<?xml version="1.0" encoding="UTF-8" standalone="no" ?>
<gpx xmlns="http://www.topografix.com/GPX/1/1" xmlns:xsi="http://www.w3.org/2001/XMLSchema-instance" xsi:schemaLocation="http://www.topografix.com/GPX/1/1 http://www.topografix.com/GPX/1/1/gpx.xsd" version="1.1" creator="VisuGPX - https://www.visugpx.com">
  <metadata>
    <name>Cima Bosco</name>
  </metadata>
  <trk>
    <name><![CDATA[Cima Bosco_1]]></name>
    <trkseg>
      <trkpt lat="44.93702" lon="6.74969">
        <ele>1743</ele>
        <time>2014-07-31T08:01:21.330Z</time>
      </trkpt>
      <trkpt lat="44.93702" lon="6.74968">
        <ele>1742</ele>
        <time>2014-07-31T08:01:34.260Z</time>
      </trkpt>
      <trkpt lat="44.93703" lon="6.7497">
        <ele>1742</ele>
        <time>2014-07-31T08:01:37.300Z</time>
      </trkpt>
      <trkpt lat="44.93704" lon="6.7497">
        <ele>1742</ele>
        <time>2014-07-31T08:01:43.300Z</time>
      </trkpt>
      <trkpt lat="44.93704" lon="6.74971">
        <ele>1742</ele>
        <time>2014-07-31T08:01:49.200Z</time>
      </trkpt>
      <trkpt lat="44.93704" lon="6.74972">
        <ele>1743</ele>
        <time>2014-07-31T08:01:59.200Z</time>
      </trkpt>
      <trkpt lat="44.93704" lon="6.74971">
        <ele>1742.3</ele>
        <time>2014-07-31T08:02:10.300Z</time>
      </trkpt>
      <trkpt lat="44.93704" lon="6.74969">
        <ele>1742</ele>
        <time>2014-07-31T08:02:11.300Z</time>
      </trkpt>
      <trkpt lat="44.93704" lon="6.74971">
        <ele>1742</ele>
        <time>2014-07-31T08:02:18.200Z</time>
      </trkpt>
      <trkpt lat="44.93702" lon="6.74971">
        <ele>1743</ele>
        <time>2014-07-31T08:02:42.300Z</time>
      </trkpt>
      <trkpt lat="44.937" lon="6.74972">
        <ele>1742</ele>
        <time>2014-07-31T08:02:52.200Z</time>
      </trkpt>
      <trkpt lat="44.93698" lon="6.74974">
        <ele>1742</ele>
        <time>2014-07-31T08:02:53.200Z</time>
      </trkpt>
      <trkpt lat="44.93697" lon="6.74975">
        <ele>1742</ele>
        <time>2014-07-31T08:02:56.200Z</time>
      </trkpt>
      <trkpt lat="44.93697" lon="6.74975">
        <ele>1742</ele>
        <time>2014-07-31T08:02:59.200Z</time>
      </trkpt>
      <trkpt lat="44.93698" lon="6.74972">
        <ele>1742</ele>
        <time>2014-07-31T08:03:05.200Z</time>
      </trkpt>
      <trkpt lat="44.93698" lon="6.74973">
        <ele>1742</ele>
        <time>2014-07-31T08:03:27.280Z</time>
      </trkpt>
      <trkpt lat="44.93698" lon="6.74975">
        <ele>1742</ele>
        <time>2014-07-31T08:03:29.300Z</time>
      </trkpt>
      <trkpt lat="44.93699" lon="6.74974">
        <ele>1742</ele>
        <time>2014-07-31T08:03:33.300Z</time>
      </trkpt>
      <trkpt lat="44.937" lon="6.74973">
        <ele>1742</ele>
        <time>2014-07-31T08:03:35.200Z</time>
      </trkpt>
      <trkpt lat="44.93701" lon="6.74971">
        <ele>1742</ele>
        <time>2014-07-31T08:03:36.200Z</time>
      </trkpt>
      <trkpt lat="44.93702" lon="6.74969">
        <ele>1742</ele>
        <time>2014-07-31T08:03:37.260Z</time>
      </trkpt>
      <trkpt lat="44.93701" lon="6.7497">
        <ele>1742</ele>
        <time>2014-07-31T08:03:57.280Z</time>
      </trkpt>
      <trkpt lat="44.93701" lon="6.7497">
        <ele>1742</ele>
        <time>2014-07-31T08:03:59.200Z</time>
      </trkpt>
      <trkpt lat="44.93702" lon="6.74969">
        <ele>1742</ele>
        <time>2014-07-31T08:04:02.300Z</time>
      </trkpt>
      <trkpt lat="44.93702" lon="6.74966">
        <ele>1742</ele>
        <time>2014-07-31T08:04:04.200Z</time>
      </trkpt>
      <trkpt lat="44.93703" lon="6.74968">
        <ele>1742</ele>
        <time>2014-07-31T08:04:08.280Z</time>
      </trkpt>
      <trkpt lat="44.93702" lon="6.74969">
        <ele>1742</ele>
        <time>2014-07-31T08:04:10.300Z</time>
      </trkpt>
      <trkpt lat="44.93703" lon="6.7497">
        <ele>1744</ele>
        <time>2014-07-31T08:04:27.300Z</time>
      </trkpt>
      <trkpt lat="44.93704" lon="6.74971">
        <ele>1744</ele>
        <time>2014-07-31T08:04:32.300Z</time>
      </trkpt>
      <trkpt lat="44.93705" lon="6.7497">
        <ele>1744</ele>
        <time>2014-07-31T08:04:35.200Z</time>
      </trkpt>
      <trkpt lat="44.93705" lon="6.74969">
        <ele>1742</ele>
        <time>2014-07-31T08:04:41.200Z</time>
      </trkpt>
      <trkpt lat="44.93704" lon="6.74968">
        <ele>1742</ele>
        <time>2014-07-31T08:04:44.200Z</time>
      </trkpt>
      <trkpt lat="44.93703" lon="6.74967">
        <ele>1742</ele>
        <time>2014-07-31T08:04:52.200Z</time>
      </trkpt>
      <trkpt lat="44.93701" lon="6.74967">
        <ele>1742</ele>
        <time>2014-07-31T08:04:56.300Z</time>
      </trkpt>
      <trkpt lat="44.93702" lon="6.74967">
        <ele>1742</ele>
        <time>2014-07-31T08:04:59.200Z</time>
      </trkpt>
      <trkpt lat="44.937" lon="6.74968">
        <ele>1742</ele>
        <time>2014-07-31T08:05:01.300Z</time>
      </trkpt>
      <trkpt lat="44.93698" lon="6.74967">
        <ele>1742</ele>
        <time>2014-07-31T08:05:03.200Z</time>
      </trkpt>
      <trkpt lat="44.93697" lon="6.74968">
        <ele>1742</ele>
        <time>2014-07-31T08:05:04.180Z</time>
      </trkpt>
      <trkpt lat="44.93695" lon="6.74969">
        <ele>1742</ele>
        <time>2014-07-31T08:05:05.200Z</time>
      </trkpt>
      <trkpt lat="44.93695" lon="6.7497">
        <ele>1742</ele>
        <time>2014-07-31T08:05:06.200Z</time>
      </trkpt>
      <trkpt lat="44.93694" lon="6.74971">
        <ele>1742</ele>
        <time>2014-07-31T08:05:07.200Z</time>
      </trkpt>
      <trkpt lat="44.93693" lon="6.74973">
        <ele>1742</ele>
        <time>2014-07-31T08:05:08.200Z</time>
      </trkpt>
      <trkpt lat="44.93692" lon="6.74976">
        <ele>1742</ele>
        <time>2014-07-31T08:05:09.200Z</time>
      </trkpt>
      <trkpt lat="44.93691" lon="6.74979">
        <ele>1742.6</ele>
        <time>2014-07-31T08:05:10.200Z</time>
      </trkpt>
      <trkpt lat="44.93691" lon="6.74982">
        <ele>1743</ele>
        <time>2014-07-31T08:05:11.200Z</time>
      </trkpt>
      <trkpt lat="44.9369" lon="6.74983">
        <ele>1743</ele>
        <time>2014-07-31T08:05:12.200Z</time>
      </trkpt>
      <trkpt lat="44.93689" lon="6.74985">
        <ele>1743</ele>
        <time>2014-07-31T08:05:13.200Z</time>
      </trkpt>
      <trkpt lat="44.93689" lon="6.74986">
        <ele>1743</ele>
        <time>2014-07-31T08:05:14.200Z</time>
      </trkpt>
      <trkpt lat="44.93687" lon="6.74986">
        <ele>1743</ele>
        <time>2014-07-31T08:05:16.200Z</time>
      </trkpt>
      <trkpt lat="44.93687" lon="6.74984">
        <ele>1743</ele>
        <time>2014-07-31T08:05:18.300Z</time>
      </trkpt>
      <trkpt lat="44.93687" lon="6.74983">
        <ele>1743</ele>
        <time>2014-07-31T08:05:20.200Z</time>
      </trkpt>
      <trkpt lat="44.93688" lon="6.74982">
        <ele>1743</ele>
        <time>2014-07-31T08:05:21.200Z</time>
      </trkpt>
      <trkpt lat="44.93688" lon="6.74981">
        <ele>1743</ele>
        <time>2014-07-31T08:05:23.200Z</time>
      </trkpt>
      <trkpt lat="44.93688" lon="6.7498">
        <ele>1743</ele>
        <time>2014-07-31T08:05:25.200Z</time>
      </trkpt>
      <trkpt lat="44.93689" lon="6.74978">
        <ele>1743</ele>
        <time>2014-07-31T08:05:27.200Z</time>
      </trkpt>
      <trkpt lat="44.9369" lon="6.74977">
        <ele>1743</ele>
        <time>2014-07-31T08:05:28.200Z</time>
      </trkpt>
      <trkpt lat="44.9369" lon="6.74977">
        <ele>1743</ele>
        <time>2014-07-31T08:05:29.200Z</time>
      </trkpt>
      <trkpt lat="44.93692" lon="6.74976">
        <ele>1742.4</ele>
        <time>2014-07-31T08:05:30.200Z</time>
      </trkpt>
      <trkpt lat="44.93693" lon="6.74975">
        <ele>1742</ele>
        <time>2014-07-31T08:05:31.200Z</time>
      </trkpt>
      <trkpt lat="44.93694" lon="6.74975">
        <ele>1742</ele>
        <time>2014-07-31T08:05:32.200Z</time>
      </trkpt>
      <trkpt lat="44.93695" lon="6.74975">
        <ele>1742</ele>
        <time>2014-07-31T08:05:34.260Z</time>
      </trkpt>
      <trkpt lat="44.93696" lon="6.74974">
        <ele>1742</ele>
        <time>2014-07-31T08:05:35.300Z</time>
      </trkpt>
      <trkpt lat="44.93698" lon="6.74974">
        <ele>1742</ele>
        <time>2014-07-31T08:05:37.200Z</time>
      </trkpt>
      <trkpt lat="44.93699" lon="6.74972">
        <ele>1742</ele>
        <time>2014-07-31T08:05:39.300Z</time>
      </trkpt>
      <trkpt lat="44.93698" lon="6.74971">
        <ele>1742</ele>
        <time>2014-07-31T08:05:40.300Z</time>
      </trkpt>
      <trkpt lat="44.93699" lon="6.74968">
        <ele>1742</ele>
        <time>2014-07-31T08:05:41.280Z</time>
      </trkpt>
      <trkpt lat="44.93698" lon="6.74969">
        <ele>1742</ele>
        <time>2014-07-31T08:05:43.300Z</time>
      </trkpt>
      <trkpt lat="44.93697" lon="6.7497">
        <ele>1742</ele>
        <time>2014-07-31T08:05:45.300Z</time>
      </trkpt>
      <trkpt lat="44.93696" lon="6.74971">
        <ele>1742</ele>
        <time>2014-07-31T08:05:46.300Z</time>
      </trkpt>
      <trkpt lat="44.93696" lon="6.74973">
        <ele>1742</ele>
        <time>2014-07-31T08:05:48.300Z</time>
      </trkpt>
      <trkpt lat="44.93696" lon="6.74974">
        <ele>1742</ele>
        <time>2014-07-31T08:05:52.200Z</time>
      </trkpt>
      <trkpt lat="44.93695" lon="6.74975">
        <ele>1742</ele>
        <time>2014-07-31T08:05:57.300Z</time>
      </trkpt>
      <trkpt lat="44.93694" lon="6.74976">
        <ele>1742</ele>
        <time>2014-07-31T08:05:59.300Z</time>
      </trkpt>
      <trkpt lat="44.93695" lon="6.74975">
        <ele>1742</ele>
        <time>2014-07-31T08:06:01.200Z</time>
      </trkpt>
      <trkpt lat="44.93696" lon="6.74974">
        <ele>1742</ele>
        <time>2014-07-31T08:06:03.200Z</time>
      </trkpt>
      <trkpt lat="44.93696" lon="6.74972">
        <ele>1742</ele>
        <time>2014-07-31T08:06:15.300Z</time>
      </trkpt>
      <trkpt lat="44.93697" lon="6.74971">
        <ele>1743</ele>
        <time>2014-07-31T08:06:45.200Z</time>
      </trkpt>
      <trkpt lat="44.93697" lon="6.74969">
        <ele>1743</ele>
        <time>2014-07-31T08:06:48.200Z</time>
      </trkpt>
      <trkpt lat="44.93697" lon="6.74967">
        <ele>1742</ele>
        <time>2014-07-31T08:06:51.260Z</time>
      </trkpt>
      <trkpt lat="44.93697" lon="6.74966">
        <ele>1742</ele>
        <time>2014-07-31T08:06:53.300Z</time>
      </trkpt>
      <trkpt lat="44.93695" lon="6.74967">
        <ele>1742</ele>
        <time>2014-07-31T08:06:54.280Z</time>
      </trkpt>
      <trkpt lat="44.93694" lon="6.74969">
        <ele>1742</ele>
        <time>2014-07-31T08:06:56.300Z</time>
      </trkpt>
      <trkpt lat="44.93693" lon="6.7497">
        <ele>1742</ele>
        <time>2014-07-31T08:06:57.300Z</time>
      </trkpt>
      <trkpt lat="44.93694" lon="6.74972">
        <ele>1742</ele>
        <time>2014-07-31T08:06:58.300Z</time>
      </trkpt>
      <trkpt lat="44.93694" lon="6.74974">
        <ele>1742</ele>
        <time>2014-07-31T08:06:59.300Z</time>
      </trkpt>
      <trkpt lat="44.93692" lon="6.74978">
        <ele>1742</ele>
        <time>2014-07-31T08:07:01.220Z</time>
      </trkpt>
      <trkpt lat="44.93691" lon="6.74981">
        <ele>1742</ele>
        <time>2014-07-31T08:07:02.300Z</time>
      </trkpt>
      <trkpt lat="44.93691" lon="6.74983">
        <ele>1742</ele>
        <time>2014-07-31T08:07:03.300Z</time>
      </trkpt>
      <trkpt lat="44.9369" lon="6.74987">
        <ele>1742</ele>
        <time>2014-07-31T08:07:04.300Z</time>
      </trkpt>
      <trkpt lat="44.93691" lon="6.74991">
        <ele>1742</ele>
        <time>2014-07-31T08:07:05.300Z</time>
      </trkpt>
      <trkpt lat="44.93691" lon="6.74995">
        <ele>1742</ele>
        <time>2014-07-31T08:07:06.300Z</time>
      </trkpt>
      <trkpt lat="44.93693" lon="6.74999">
        <ele>1742</ele>
        <time>2014-07-31T08:07:07.300Z</time>
      </trkpt>
      <trkpt lat="44.93697" lon="6.75008">
        <ele>1742</ele>
        <time>2014-07-31T08:07:09.200Z</time>
      </trkpt>
      <trkpt lat="44.93699" lon="6.75012">
        <ele>1741.4</ele>
        <time>2014-07-31T08:07:10.200Z</time>
      </trkpt>
      <trkpt lat="44.93701" lon="6.75016">
        <ele>1741</ele>
        <time>2014-07-31T08:07:11.200Z</time>
      </trkpt>
      <trkpt lat="44.93703" lon="6.7502">
        <ele>1741</ele>
        <time>2014-07-31T08:07:12.200Z</time>
      </trkpt>
      <trkpt lat="44.93705" lon="6.75023">
        <ele>1741</ele>
        <time>2014-07-31T08:07:13.200Z</time>
      </trkpt>
      <trkpt lat="44.93706" lon="6.75027">
        <ele>1741</ele>
        <time>2014-07-31T08:07:14.200Z</time>
      </trkpt>
      <trkpt lat="44.93708" lon="6.75032">
        <ele>1741</ele>
        <time>2014-07-31T08:07:15.200Z</time>
      </trkpt>
      <trkpt lat="44.9371" lon="6.75038">
        <ele>1741</ele>
        <time>2014-07-31T08:07:16.200Z</time>
      </trkpt>
      <trkpt lat="44.93711" lon="6.75042">
        <ele>1741</ele>
        <time>2014-07-31T08:07:17.260Z</time>
      </trkpt>
      <trkpt lat="44.93711" lon="6.7505">
        <ele>1741</ele>
        <time>2014-07-31T08:07:19.200Z</time>
      </trkpt>
      <trkpt lat="44.9371" lon="6.75053">
        <ele>1739.7</ele>
        <time>2014-07-31T08:07:20.200Z</time>
      </trkpt>
      <trkpt lat="44.93708" lon="6.75057">
        <ele>1739</ele>
        <time>2014-07-31T08:07:21.200Z</time>
      </trkpt>
      <trkpt lat="44.93707" lon="6.7506">
        <ele>1739</ele>
        <time>2014-07-31T08:07:22.200Z</time>
      </trkpt>
      <trkpt lat="44.93706" lon="6.75063">
        <ele>1739</ele>
        <time>2014-07-31T08:07:23.200Z</time>
      </trkpt>
      <trkpt lat="44.93706" lon="6.75065">
        <ele>1739</ele>
        <time>2014-07-31T08:07:24.200Z</time>
      </trkpt>
      <trkpt lat="44.93706" lon="6.75066">
        <ele>1739</ele>
        <time>2014-07-31T08:07:25.200Z</time>
      </trkpt>
      <trkpt lat="44.93708" lon="6.75066">
        <ele>1739</ele>
        <time>2014-07-31T08:07:26.200Z</time>
      </trkpt>
      <trkpt lat="44.9371" lon="6.75067">
        <ele>1739</ele>
        <time>2014-07-31T08:07:27.200Z</time>
      </trkpt>
      <trkpt lat="44.93711" lon="6.75069">
        <ele>1739</ele>
        <time>2014-07-31T08:07:28.280Z</time>
      </trkpt>
      <trkpt lat="44.93713" lon="6.75071">
        <ele>1739</ele>
        <time>2014-07-31T08:07:29.300Z</time>
      </trkpt>
      <trkpt lat="44.93716" lon="6.75075">
        <ele>1737.6</ele>
        <time>2014-07-31T08:07:30.300Z</time>
      </trkpt>
      <trkpt lat="44.93719" lon="6.75079">
        <ele>1737</ele>
        <time>2014-07-31T08:07:31.380Z</time>
      </trkpt>
      <trkpt lat="44.93721" lon="6.75083">
        <ele>1737</ele>
        <time>2014-07-31T08:07:32.300Z</time>
      </trkpt>
      <trkpt lat="44.93724" lon="6.7509">
        <ele>1737</ele>
        <time>2014-07-31T08:07:34.260Z</time>
      </trkpt>
      <trkpt lat="44.93727" lon="6.75095">
        <ele>1737</ele>
        <time>2014-07-31T08:07:36.200Z</time>
      </trkpt>
      <trkpt lat="44.93728" lon="6.75099">
        <ele>1737</ele>
        <time>2014-07-31T08:07:37.200Z</time>
      </trkpt>
      <trkpt lat="44.9373" lon="6.75102">
        <ele>1737</ele>
        <time>2014-07-31T08:07:38.200Z</time>
      </trkpt>
      <trkpt lat="44.93732" lon="6.75105">
        <ele>1737</ele>
        <time>2014-07-31T08:07:39.180Z</time>
      </trkpt>
      <trkpt lat="44.93735" lon="6.75108">
        <ele>1736.4</ele>
        <time>2014-07-31T08:07:40.200Z</time>
      </trkpt>
      <trkpt lat="44.93738" lon="6.75112">
        <ele>1736</ele>
        <time>2014-07-31T08:07:41.200Z</time>
      </trkpt>
      <trkpt lat="44.9374" lon="6.75115">
        <ele>1736</ele>
        <time>2014-07-31T08:07:42.200Z</time>
      </trkpt>
      <trkpt lat="44.93742" lon="6.7512">
        <ele>1736</ele>
        <time>2014-07-31T08:07:43.200Z</time>
      </trkpt>
      <trkpt lat="44.93744" lon="6.75125">
        <ele>1736</ele>
        <time>2014-07-31T08:07:44.200Z</time>
      </trkpt>
      <trkpt lat="44.93745" lon="6.75128">
        <ele>1736</ele>
        <time>2014-07-31T08:07:45.200Z</time>
      </trkpt>
      <trkpt lat="44.93749" lon="6.75129">
        <ele>1736</ele>
        <time>2014-07-31T08:07:46.200Z</time>
      </trkpt>
      <trkpt lat="44.93753" lon="6.7513">
        <ele>1736</ele>
        <time>2014-07-31T08:07:47.200Z</time>
      </trkpt>
      <trkpt lat="44.93757" lon="6.75132">
        <ele>1736</ele>
        <time>2014-07-31T08:07:48.200Z</time>
      </trkpt>
      <trkpt lat="44.93762" lon="6.75135">
        <ele>1736</ele>
        <time>2014-07-31T08:07:49.200Z</time>
      </trkpt>
      <trkpt lat="44.93765" lon="6.7514">
        <ele>1734.7</ele>
        <time>2014-07-31T08:07:50.200Z</time>
      </trkpt>
      <trkpt lat="44.93766" lon="6.75146">
        <ele>1734</ele>
        <time>2014-07-31T08:07:51.260Z</time>
      </trkpt>
      <trkpt lat="44.93768" lon="6.75159">
        <ele>1734</ele>
        <time>2014-07-31T08:07:53.200Z</time>
      </trkpt>
      <trkpt lat="44.93768" lon="6.75164">
        <ele>1734</ele>
        <time>2014-07-31T08:07:54.200Z</time>
      </trkpt>
      <trkpt lat="44.93768" lon="6.7517">
        <ele>1734</ele>
        <time>2014-07-31T08:07:55.200Z</time>
      </trkpt>
      <trkpt lat="44.93766" lon="6.75175">
        <ele>1734</ele>
        <time>2014-07-31T08:07:56.200Z</time>
      </trkpt>
      <trkpt lat="44.93766" lon="6.75179">
        <ele>1734</ele>
        <time>2014-07-31T08:07:57.200Z</time>
      </trkpt>
      <trkpt lat="44.93767" lon="6.75182">
        <ele>1734</ele>
        <time>2014-07-31T08:07:58.200Z</time>
      </trkpt>
      <trkpt lat="44.93767" lon="6.75185">
        <ele>1734</ele>
        <time>2014-07-31T08:07:59.200Z</time>
      </trkpt>
      <trkpt lat="44.93767" lon="6.75187">
        <ele>1734</ele>
        <time>2014-07-31T08:08:00.090Z</time>
      </trkpt>
      <trkpt lat="44.93768" lon="6.75189">
        <ele>1734</ele>
        <time>2014-07-31T08:08:01.200Z</time>
      </trkpt>
      <trkpt lat="44.93768" lon="6.75191">
        <ele>1734</ele>
        <time>2014-07-31T08:08:02.200Z</time>
      </trkpt>
      <trkpt lat="44.93768" lon="6.75194">
        <ele>1734</ele>
        <time>2014-07-31T08:08:03.200Z</time>
      </trkpt>
      <trkpt lat="44.93769" lon="6.75196">
        <ele>1734</ele>
        <time>2014-07-31T08:08:04.200Z</time>
      </trkpt>
      <trkpt lat="44.93769" lon="6.75198">
        <ele>1734</ele>
        <time>2014-07-31T08:08:05.200Z</time>
      </trkpt>
      <trkpt lat="44.9377" lon="6.752">
        <ele>1734</ele>
        <time>2014-07-31T08:08:06.200Z</time>
      </trkpt>
      <trkpt lat="44.93771" lon="6.75201">
        <ele>1734</ele>
        <time>2014-07-31T08:08:07.200Z</time>
      </trkpt>
      <trkpt lat="44.93771" lon="6.75204">
        <ele>1734</ele>
        <time>2014-07-31T08:08:08.200Z</time>
      </trkpt>
      <trkpt lat="44.93771" lon="6.75206">
        <ele>1734</ele>
        <time>2014-07-31T08:08:09.230Z</time>
      </trkpt>
      <trkpt lat="44.93772" lon="6.75207">
        <ele>1735.5</ele>
        <time>2014-07-31T08:08:10.300Z</time>
      </trkpt>
      <trkpt lat="44.93772" lon="6.75209">
        <ele>1736</ele>
        <time>2014-07-31T08:08:11.300Z</time>
      </trkpt>
      <trkpt lat="44.93772" lon="6.7521">
        <ele>1736</ele>
        <time>2014-07-31T08:08:12.300Z</time>
      </trkpt>
      <trkpt lat="44.93772" lon="6.75212">
        <ele>1736</ele>
        <time>2014-07-31T08:08:13.300Z</time>
      </trkpt>
      <trkpt lat="44.93773" lon="6.75213">
        <ele>1736</ele>
        <time>2014-07-31T08:08:14.300Z</time>
      </trkpt>
      <trkpt lat="44.93774" lon="6.75214">
        <ele>1736</ele>
        <time>2014-07-31T08:08:15.300Z</time>
      </trkpt>
      <trkpt lat="44.93774" lon="6.75217">
        <ele>1736</ele>
        <time>2014-07-31T08:08:16.300Z</time>
      </trkpt>
      <trkpt lat="44.93775" lon="6.75221">
        <ele>1736</ele>
        <time>2014-07-31T08:08:18.200Z</time>
      </trkpt>
      <trkpt lat="44.93775" lon="6.75223">
        <ele>1736</ele>
        <time>2014-07-31T08:08:19.240Z</time>
      </trkpt>
      <trkpt lat="44.93776" lon="6.75224">
        <ele>1737.3</ele>
        <time>2014-07-31T08:08:20.200Z</time>
      </trkpt>
      <trkpt lat="44.93777" lon="6.75226">
        <ele>1738</ele>
        <time>2014-07-31T08:08:21.200Z</time>
      </trkpt>
      <trkpt lat="44.93778" lon="6.75228">
        <ele>1738</ele>
        <time>2014-07-31T08:08:22.200Z</time>
      </trkpt>
      <trkpt lat="44.93778" lon="6.75231">
        <ele>1738</ele>
        <time>2014-07-31T08:08:23.200Z</time>
      </trkpt>
      <trkpt lat="44.93778" lon="6.75233">
        <ele>1738</ele>
        <time>2014-07-31T08:08:24.200Z</time>
      </trkpt>
      <trkpt lat="44.93779" lon="6.75235">
        <ele>1738</ele>
        <time>2014-07-31T08:08:25.200Z</time>
      </trkpt>
      <trkpt lat="44.93781" lon="6.75235">
        <ele>1738</ele>
        <time>2014-07-31T08:08:26.260Z</time>
      </trkpt>
      <trkpt lat="44.93781" lon="6.75236">
        <ele>1738</ele>
        <time>2014-07-31T08:08:27.300Z</time>
      </trkpt>
      <trkpt lat="44.93782" lon="6.75239">
        <ele>1738</ele>
        <time>2014-07-31T08:08:28.300Z</time>
      </trkpt>
      <trkpt lat="44.93783" lon="6.7524">
        <ele>1738</ele>
        <time>2014-07-31T08:08:29.300Z</time>
      </trkpt>
      <trkpt lat="44.93783" lon="6.75242">
        <ele>1740.2</ele>
        <time>2014-07-31T08:08:30.300Z</time>
      </trkpt>
      <trkpt lat="44.93783" lon="6.75243">
        <ele>1741</ele>
        <time>2014-07-31T08:08:31.300Z</time>
      </trkpt>
      <trkpt lat="44.93783" lon="6.75245">
        <ele>1741</ele>
        <time>2014-07-31T08:08:32.300Z</time>
      </trkpt>
      <trkpt lat="44.93783" lon="6.75247">
        <ele>1741</ele>
        <time>2014-07-31T08:08:33.300Z</time>
      </trkpt>
      <trkpt lat="44.93785" lon="6.75251">
        <ele>1742.9</ele>
        <time>2014-07-31T08:08:35.200Z</time>
      </trkpt>
      <trkpt lat="44.93786" lon="6.75251">
        <ele>1744</ele>
        <time>2014-07-31T08:08:36.200Z</time>
      </trkpt>
      <trkpt lat="44.93787" lon="6.75252">
        <ele>1744</ele>
        <time>2014-07-31T08:08:37.200Z</time>
      </trkpt>
      <trkpt lat="44.93787" lon="6.75253">
        <ele>1744</ele>
        <time>2014-07-31T08:08:38.200Z</time>
      </trkpt>
      <trkpt lat="44.93788" lon="6.75255">
        <ele>1744</ele>
        <time>2014-07-31T08:08:39.200Z</time>
      </trkpt>
      <trkpt lat="44.93789" lon="6.75257">
        <ele>1744</ele>
        <time>2014-07-31T08:08:40.200Z</time>
      </trkpt>
      <trkpt lat="44.93789" lon="6.75259">
        <ele>1744</ele>
        <time>2014-07-31T08:08:41.180Z</time>
      </trkpt>
      <trkpt lat="44.93789" lon="6.75261">
        <ele>1744</ele>
        <time>2014-07-31T08:08:42.200Z</time>
      </trkpt>
      <trkpt lat="44.93791" lon="6.75262">
        <ele>1744</ele>
        <time>2014-07-31T08:08:43.260Z</time>
      </trkpt>
      <trkpt lat="44.93792" lon="6.75263">
        <ele>1744</ele>
        <time>2014-07-31T08:08:44.300Z</time>
      </trkpt>
      <trkpt lat="44.93793" lon="6.75264">
        <ele>1744.7</ele>
        <time>2014-07-31T08:08:45.300Z</time>
      </trkpt>
      <trkpt lat="44.93795" lon="6.75266">
        <ele>1745</ele>
        <time>2014-07-31T08:08:46.380Z</time>
      </trkpt>
      <trkpt lat="44.93796" lon="6.75266">
        <ele>1745</ele>
        <time>2014-07-31T08:08:47.300Z</time>
      </trkpt>
      <trkpt lat="44.93797" lon="6.75267">
        <ele>1745</ele>
        <time>2014-07-31T08:08:48.300Z</time>
      </trkpt>
      <trkpt lat="44.93797" lon="6.75269">
        <ele>1745</ele>
        <time>2014-07-31T08:08:49.300Z</time>
      </trkpt>
      <trkpt lat="44.93798" lon="6.75271">
        <ele>1745.7</ele>
        <time>2014-07-31T08:08:50.300Z</time>
      </trkpt>
      <trkpt lat="44.93798" lon="6.75276">
        <ele>1746</ele>
        <time>2014-07-31T08:08:52.200Z</time>
      </trkpt>
      <trkpt lat="44.93798" lon="6.75279">
        <ele>1746</ele>
        <time>2014-07-31T08:08:53.200Z</time>
      </trkpt>
      <trkpt lat="44.93798" lon="6.75281">
        <ele>1746</ele>
        <time>2014-07-31T08:08:54.200Z</time>
      </trkpt>
      <trkpt lat="44.93798" lon="6.75284">
        <ele>1746</ele>
        <time>2014-07-31T08:08:55.200Z</time>
      </trkpt>
      <trkpt lat="44.93798" lon="6.75286">
        <ele>1746</ele>
        <time>2014-07-31T08:08:56.200Z</time>
      </trkpt>
      <trkpt lat="44.93798" lon="6.75288">
        <ele>1746</ele>
        <time>2014-07-31T08:08:57.200Z</time>
      </trkpt>
      <trkpt lat="44.93797" lon="6.75291">
        <ele>1746</ele>
        <time>2014-07-31T08:08:58.200Z</time>
      </trkpt>
      <trkpt lat="44.93798" lon="6.75293">
        <ele>1746</ele>
        <time>2014-07-31T08:08:59.200Z</time>
      </trkpt>
      <trkpt lat="44.93798" lon="6.75296">
        <ele>1746.6</ele>
        <time>2014-07-31T08:09:00.180Z</time>
      </trkpt>
      <trkpt lat="44.93799" lon="6.753">
        <ele>1747</ele>
        <time>2014-07-31T08:09:02.200Z</time>
      </trkpt>
      <trkpt lat="44.93799" lon="6.75302">
        <ele>1747</ele>
        <time>2014-07-31T08:09:03.200Z</time>
      </trkpt>
      <trkpt lat="44.938" lon="6.75303">
        <ele>1747</ele>
        <time>2014-07-31T08:09:04.200Z</time>
      </trkpt>
      <trkpt lat="44.938" lon="6.75305">
        <ele>1747</ele>
        <time>2014-07-31T08:09:05.200Z</time>
      </trkpt>
      <trkpt lat="44.93801" lon="6.75306">
        <ele>1747</ele>
        <time>2014-07-31T08:09:06.200Z</time>
      </trkpt>
      <trkpt lat="44.93801" lon="6.75309">
        <ele>1747</ele>
        <time>2014-07-31T08:09:07.200Z</time>
      </trkpt>
      <trkpt lat="44.93801" lon="6.75311">
        <ele>1747</ele>
        <time>2014-07-31T08:09:08.200Z</time>
      </trkpt>
      <trkpt lat="44.93802" lon="6.75313">
        <ele>1747</ele>
        <time>2014-07-31T08:09:09.200Z</time>
      </trkpt>
      <trkpt lat="44.93802" lon="6.75315">
        <ele>1747</ele>
        <time>2014-07-31T08:09:10.200Z</time>
      </trkpt>
      <trkpt lat="44.93802" lon="6.75317">
        <ele>1747</ele>
        <time>2014-07-31T08:09:11.220Z</time>
      </trkpt>
      <trkpt lat="44.93802" lon="6.75319">
        <ele>1747</ele>
        <time>2014-07-31T08:09:12.300Z</time>
      </trkpt>
      <trkpt lat="44.93802" lon="6.75321">
        <ele>1747</ele>
        <time>2014-07-31T08:09:13.300Z</time>
      </trkpt>
      <trkpt lat="44.93801" lon="6.75324">
        <ele>1747</ele>
        <time>2014-07-31T08:09:14.300Z</time>
      </trkpt>
      <trkpt lat="44.93801" lon="6.75326">
        <ele>1747</ele>
        <time>2014-07-31T08:09:15.300Z</time>
      </trkpt>
      <trkpt lat="44.938" lon="6.7533">
        <ele>1747</ele>
        <time>2014-07-31T08:09:16.300Z</time>
      </trkpt>
      <trkpt lat="44.93799" lon="6.75335">
        <ele>1747</ele>
        <time>2014-07-31T08:09:18.200Z</time>
      </trkpt>
      <trkpt lat="44.93798" lon="6.75338">
        <ele>1747</ele>
        <time>2014-07-31T08:09:19.200Z</time>
      </trkpt>
      <trkpt lat="44.93797" lon="6.75341">
        <ele>1747</ele>
        <time>2014-07-31T08:09:20.200Z</time>
      </trkpt>
      <trkpt lat="44.93796" lon="6.75343">
        <ele>1747</ele>
        <time>2014-07-31T08:09:21.200Z</time>
      </trkpt>
      <trkpt lat="44.93796" lon="6.75345">
        <ele>1747</ele>
        <time>2014-07-31T08:09:22.220Z</time>
      </trkpt>
      <trkpt lat="44.93796" lon="6.75347">
        <ele>1747</ele>
        <time>2014-07-31T08:09:23.300Z</time>
      </trkpt>
      <trkpt lat="44.93796" lon="6.75349">
        <ele>1747</ele>
        <time>2014-07-31T08:09:24.300Z</time>
      </trkpt>
      <trkpt lat="44.93796" lon="6.75351">
        <ele>1747</ele>
        <time>2014-07-31T08:09:25.300Z</time>
      </trkpt>
      <trkpt lat="44.93796" lon="6.75353">
        <ele>1747</ele>
        <time>2014-07-31T08:09:26.300Z</time>
      </trkpt>
      <trkpt lat="44.93795" lon="6.75356">
        <ele>1747</ele>
        <time>2014-07-31T08:09:27.300Z</time>
      </trkpt>
      <trkpt lat="44.93795" lon="6.75358">
        <ele>1747</ele>
        <time>2014-07-31T08:09:28.300Z</time>
      </trkpt>
      <trkpt lat="44.93795" lon="6.75361">
        <ele>1747</ele>
        <time>2014-07-31T08:09:29.300Z</time>
      </trkpt>
      <trkpt lat="44.93795" lon="6.75363">
        <ele>1748.5</ele>
        <time>2014-07-31T08:09:30.300Z</time>
      </trkpt>
      <trkpt lat="44.93795" lon="6.75366">
        <ele>1749</ele>
        <time>2014-07-31T08:09:31.300Z</time>
      </trkpt>
      <trkpt lat="44.93795" lon="6.75368">
        <ele>1749</ele>
        <time>2014-07-31T08:09:32.300Z</time>
      </trkpt>
      <trkpt lat="44.93795" lon="6.75373">
        <ele>1749</ele>
        <time>2014-07-31T08:09:34.280Z</time>
      </trkpt>
      <trkpt lat="44.93795" lon="6.75376">
        <ele>1749</ele>
        <time>2014-07-31T08:09:35.300Z</time>
      </trkpt>
      <trkpt lat="44.93796" lon="6.75378">
        <ele>1749</ele>
        <time>2014-07-31T08:09:36.300Z</time>
      </trkpt>
      <trkpt lat="44.93796" lon="6.75381">
        <ele>1749</ele>
        <time>2014-07-31T08:09:37.300Z</time>
      </trkpt>
      <trkpt lat="44.93796" lon="6.75384">
        <ele>1749</ele>
        <time>2014-07-31T08:09:38.300Z</time>
      </trkpt>
      <trkpt lat="44.93796" lon="6.75386">
        <ele>1749</ele>
        <time>2014-07-31T08:09:39.300Z</time>
      </trkpt>
      <trkpt lat="44.93796" lon="6.75389">
        <ele>1749.7</ele>
        <time>2014-07-31T08:09:40.300Z</time>
      </trkpt>
      <trkpt lat="44.93796" lon="6.75392">
        <ele>1750</ele>
        <time>2014-07-31T08:09:41.300Z</time>
      </trkpt>
      <trkpt lat="44.93796" lon="6.75395">
        <ele>1750</ele>
        <time>2014-07-31T08:09:42.300Z</time>
      </trkpt>
      <trkpt lat="44.93797" lon="6.75397">
        <ele>1750</ele>
        <time>2014-07-31T08:09:43.300Z</time>
      </trkpt>
      <trkpt lat="44.93796" lon="6.75401">
        <ele>1750</ele>
        <time>2014-07-31T08:09:44.280Z</time>
      </trkpt>
      <trkpt lat="44.93796" lon="6.75405">
        <ele>1750</ele>
        <time>2014-07-31T08:09:45.300Z</time>
      </trkpt>
      <trkpt lat="44.93796" lon="6.75408">
        <ele>1750</ele>
        <time>2014-07-31T08:09:46.300Z</time>
      </trkpt>
      <trkpt lat="44.93795" lon="6.7541">
        <ele>1750</ele>
        <time>2014-07-31T08:09:47.300Z</time>
      </trkpt>
      <trkpt lat="44.93796" lon="6.75412">
        <ele>1750</ele>
        <time>2014-07-31T08:09:48.300Z</time>
      </trkpt>
      <trkpt lat="44.93796" lon="6.75414">
        <ele>1750</ele>
        <time>2014-07-31T08:09:49.300Z</time>
      </trkpt>
      <trkpt lat="44.93795" lon="6.75417">
        <ele>1750</ele>
        <time>2014-07-31T08:09:50.300Z</time>
      </trkpt>
      <trkpt lat="44.93794" lon="6.75421">
        <ele>1750</ele>
        <time>2014-07-31T08:09:52.200Z</time>
      </trkpt>
      <trkpt lat="44.93793" lon="6.75423">
        <ele>1750</ele>
        <time>2014-07-31T08:09:53.200Z</time>
      </trkpt>
      <trkpt lat="44.93792" lon="6.75424">
        <ele>1750</ele>
        <time>2014-07-31T08:09:54.200Z</time>
      </trkpt>
      <trkpt lat="44.9379" lon="6.75424">
        <ele>1750</ele>
        <time>2014-07-31T08:09:55.200Z</time>
      </trkpt>
      <trkpt lat="44.93789" lon="6.75425">
        <ele>1750</ele>
        <time>2014-07-31T08:09:56.200Z</time>
      </trkpt>
      <trkpt lat="44.93788" lon="6.75425">
        <ele>1750</ele>
        <time>2014-07-31T08:09:57.280Z</time>
      </trkpt>
      <trkpt lat="44.93786" lon="6.75426">
        <ele>1750</ele>
        <time>2014-07-31T08:09:58.200Z</time>
      </trkpt>
      <trkpt lat="44.93785" lon="6.75427">
        <ele>1750</ele>
        <time>2014-07-31T08:09:59.200Z</time>
      </trkpt>
      <trkpt lat="44.93783" lon="6.75429">
        <ele>1749.3</ele>
        <time>2014-07-31T08:10:00.260Z</time>
      </trkpt>
      <trkpt lat="44.93782" lon="6.7543">
        <ele>1749</ele>
        <time>2014-07-31T08:10:01.300Z</time>
      </trkpt>
      <trkpt lat="44.9378" lon="6.75433">
        <ele>1749</ele>
        <time>2014-07-31T08:10:02.300Z</time>
      </trkpt>
      <trkpt lat="44.93779" lon="6.75435">
        <ele>1749</ele>
        <time>2014-07-31T08:10:03.300Z</time>
      </trkpt>
      <trkpt lat="44.93778" lon="6.75437">
        <ele>1749</ele>
        <time>2014-07-31T08:10:04.300Z</time>
      </trkpt>
      <trkpt lat="44.93777" lon="6.75439">
        <ele>1749</ele>
        <time>2014-07-31T08:10:05.300Z</time>
      </trkpt>
      <trkpt lat="44.93776" lon="6.75441">
        <ele>1749</ele>
        <time>2014-07-31T08:10:06.300Z</time>
      </trkpt>
      <trkpt lat="44.93775" lon="6.75445">
        <ele>1749</ele>
        <time>2014-07-31T08:10:08.260Z</time>
      </trkpt>
      <trkpt lat="44.93775" lon="6.75446">
        <ele>1749</ele>
        <time>2014-07-31T08:10:09.300Z</time>
      </trkpt>
      <trkpt lat="44.93774" lon="6.75448">
        <ele>1749.7</ele>
        <time>2014-07-31T08:10:10.300Z</time>
      </trkpt>
      <trkpt lat="44.93774" lon="6.7545">
        <ele>1750</ele>
        <time>2014-07-31T08:10:11.300Z</time>
      </trkpt>
      <trkpt lat="44.93773" lon="6.75451">
        <ele>1750</ele>
        <time>2014-07-31T08:10:12.300Z</time>
      </trkpt>
      <trkpt lat="44.93773" lon="6.75453">
        <ele>1750</ele>
        <time>2014-07-31T08:10:13.300Z</time>
      </trkpt>
      <trkpt lat="44.93772" lon="6.75455">
        <ele>1750</ele>
        <time>2014-07-31T08:10:14.300Z</time>
      </trkpt>
      <trkpt lat="44.93772" lon="6.75457">
        <ele>1750</ele>
        <time>2014-07-31T08:10:16.300Z</time>
      </trkpt>
      <trkpt lat="44.93772" lon="6.7546">
        <ele>1750</ele>
        <time>2014-07-31T08:10:18.180Z</time>
      </trkpt>
      <trkpt lat="44.93772" lon="6.75462">
        <ele>1750</ele>
        <time>2014-07-31T08:10:19.200Z</time>
      </trkpt>
      <trkpt lat="44.93772" lon="6.75463">
        <ele>1751.3</ele>
        <time>2014-07-31T08:10:20.200Z</time>
      </trkpt>
      <trkpt lat="44.93772" lon="6.75466">
        <ele>1752</ele>
        <time>2014-07-31T08:10:21.200Z</time>
      </trkpt>
      <trkpt lat="44.93772" lon="6.75468">
        <ele>1752</ele>
        <time>2014-07-31T08:10:22.200Z</time>
      </trkpt>
      <trkpt lat="44.93771" lon="6.75469">
        <ele>1752</ele>
        <time>2014-07-31T08:10:23.200Z</time>
      </trkpt>
      <trkpt lat="44.93772" lon="6.75471">
        <ele>1752</ele>
        <time>2014-07-31T08:10:24.200Z</time>
      </trkpt>
      <trkpt lat="44.93772" lon="6.75472">
        <ele>1752</ele>
        <time>2014-07-31T08:10:25.260Z</time>
      </trkpt>
      <trkpt lat="44.93773" lon="6.75474">
        <ele>1752</ele>
        <time>2014-07-31T08:10:26.300Z</time>
      </trkpt>
      <trkpt lat="44.93774" lon="6.75475">
        <ele>1752</ele>
        <time>2014-07-31T08:10:27.300Z</time>
      </trkpt>
      <trkpt lat="44.93775" lon="6.75477">
        <ele>1752</ele>
        <time>2014-07-31T08:10:28.280Z</time>
      </trkpt>
      <trkpt lat="44.93775" lon="6.7548">
        <ele>1752</ele>
        <time>2014-07-31T08:10:29.300Z</time>
      </trkpt>
      <trkpt lat="44.93775" lon="6.75484">
        <ele>1752.7</ele>
        <time>2014-07-31T08:10:30.300Z</time>
      </trkpt>
      <trkpt lat="44.93775" lon="6.75486">
        <ele>1753</ele>
        <time>2014-07-31T08:10:31.300Z</time>
      </trkpt>
      <trkpt lat="44.93776" lon="6.75487">
        <ele>1753</ele>
        <time>2014-07-31T08:10:32.300Z</time>
      </trkpt>
      <trkpt lat="44.93777" lon="6.75489">
        <ele>1753</ele>
        <time>2014-07-31T08:10:33.300Z</time>
      </trkpt>
      <trkpt lat="44.93778" lon="6.75494">
        <ele>1753</ele>
        <time>2014-07-31T08:10:35.200Z</time>
      </trkpt>
      <trkpt lat="44.93778" lon="6.75496">
        <ele>1753</ele>
        <time>2014-07-31T08:10:36.200Z</time>
      </trkpt>
      <trkpt lat="44.93779" lon="6.75498">
        <ele>1753</ele>
        <time>2014-07-31T08:10:37.200Z</time>
      </trkpt>
      <trkpt lat="44.93779" lon="6.75499">
        <ele>1753</ele>
        <time>2014-07-31T08:10:38.200Z</time>
      </trkpt>
      <trkpt lat="44.93779" lon="6.75501">
        <ele>1753</ele>
        <time>2014-07-31T08:10:39.200Z</time>
      </trkpt>
      <trkpt lat="44.93779" lon="6.75504">
        <ele>1754.3</ele>
        <time>2014-07-31T08:10:40.200Z</time>
      </trkpt>
      <trkpt lat="44.9378" lon="6.75506">
        <ele>1755</ele>
        <time>2014-07-31T08:10:41.180Z</time>
      </trkpt>
      <trkpt lat="44.93781" lon="6.75508">
        <ele>1755</ele>
        <time>2014-07-31T08:10:42.260Z</time>
      </trkpt>
      <trkpt lat="44.93782" lon="6.75513">
        <ele>1755</ele>
        <time>2014-07-31T08:10:44.200Z</time>
      </trkpt>
      <trkpt lat="44.93783" lon="6.75515">
        <ele>1755</ele>
        <time>2014-07-31T08:10:45.200Z</time>
      </trkpt>
      <trkpt lat="44.93783" lon="6.75518">
        <ele>1755</ele>
        <time>2014-07-31T08:10:46.200Z</time>
      </trkpt>
      <trkpt lat="44.93782" lon="6.7552">
        <ele>1755</ele>
        <time>2014-07-31T08:10:47.200Z</time>
      </trkpt>
      <trkpt lat="44.93782" lon="6.75522">
        <ele>1755</ele>
        <time>2014-07-31T08:10:48.200Z</time>
      </trkpt>
      <trkpt lat="44.93781" lon="6.75524">
        <ele>1755</ele>
        <time>2014-07-31T08:10:49.200Z</time>
      </trkpt>
      <trkpt lat="44.93781" lon="6.75525">
        <ele>1755</ele>
        <time>2014-07-31T08:10:50.200Z</time>
      </trkpt>
      <trkpt lat="44.93781" lon="6.75528">
        <ele>1755</ele>
        <time>2014-07-31T08:10:51.200Z</time>
      </trkpt>
      <trkpt lat="44.93781" lon="6.7553">
        <ele>1755</ele>
        <time>2014-07-31T08:10:52.300Z</time>
      </trkpt>
      <trkpt lat="44.93782" lon="6.75532">
        <ele>1755</ele>
        <time>2014-07-31T08:10:53.300Z</time>
      </trkpt>
      <trkpt lat="44.93782" lon="6.75534">
        <ele>1755</ele>
        <time>2014-07-31T08:10:54.300Z</time>
      </trkpt>
      <trkpt lat="44.93782" lon="6.75537">
        <ele>1755</ele>
        <time>2014-07-31T08:10:55.300Z</time>
      </trkpt>
      <trkpt lat="44.93782" lon="6.75539">
        <ele>1755</ele>
        <time>2014-07-31T08:10:56.300Z</time>
      </trkpt>
      <trkpt lat="44.93781" lon="6.75542">
        <ele>1755</ele>
        <time>2014-07-31T08:10:57.300Z</time>
      </trkpt>
      <trkpt lat="44.9378" lon="6.75546">
        <ele>1755</ele>
        <time>2014-07-31T08:10:58.300Z</time>
      </trkpt>
      <trkpt lat="44.93779" lon="6.75552">
        <ele>1756.4</ele>
        <time>2014-07-31T08:11:00.260Z</time>
      </trkpt>
      <trkpt lat="44.93779" lon="6.75555">
        <ele>1757</ele>
        <time>2014-07-31T08:11:01.300Z</time>
      </trkpt>
      <trkpt lat="44.93779" lon="6.75558">
        <ele>1757</ele>
        <time>2014-07-31T08:11:02.280Z</time>
      </trkpt>
      <trkpt lat="44.93779" lon="6.7556">
        <ele>1757</ele>
        <time>2014-07-31T08:11:03.300Z</time>
      </trkpt>
      <trkpt lat="44.93779" lon="6.75563">
        <ele>1757</ele>
        <time>2014-07-31T08:11:04.300Z</time>
      </trkpt>
      <trkpt lat="44.93779" lon="6.75565">
        <ele>1757</ele>
        <time>2014-07-31T08:11:05.300Z</time>
      </trkpt>
      <trkpt lat="44.93778" lon="6.75568">
        <ele>1757</ele>
        <time>2014-07-31T08:11:06.300Z</time>
      </trkpt>
      <trkpt lat="44.93777" lon="6.7557">
        <ele>1757</ele>
        <time>2014-07-31T08:11:07.300Z</time>
      </trkpt>
      <trkpt lat="44.93777" lon="6.75573">
        <ele>1757</ele>
        <time>2014-07-31T08:11:08.300Z</time>
      </trkpt>
      <trkpt lat="44.93776" lon="6.75575">
        <ele>1757</ele>
        <time>2014-07-31T08:11:09.310Z</time>
      </trkpt>
      <trkpt lat="44.93776" lon="6.75577">
        <ele>1758.5</ele>
        <time>2014-07-31T08:11:10.300Z</time>
      </trkpt>
      <trkpt lat="44.93776" lon="6.75579">
        <ele>1759</ele>
        <time>2014-07-31T08:11:11.300Z</time>
      </trkpt>
      <trkpt lat="44.93776" lon="6.75582">
        <ele>1759</ele>
        <time>2014-07-31T08:11:12.300Z</time>
      </trkpt>
      <trkpt lat="44.93776" lon="6.75583">
        <ele>1759</ele>
        <time>2014-07-31T08:11:13.280Z</time>
      </trkpt>
      <trkpt lat="44.93777" lon="6.75585">
        <ele>1759</ele>
        <time>2014-07-31T08:11:14.300Z</time>
      </trkpt>
      <trkpt lat="44.93777" lon="6.75587">
        <ele>1759</ele>
        <time>2014-07-31T08:11:15.300Z</time>
      </trkpt>
      <trkpt lat="44.93777" lon="6.7559">
        <ele>1759</ele>
        <time>2014-07-31T08:11:17.260Z</time>
      </trkpt>
      <trkpt lat="44.93777" lon="6.75591">
        <ele>1759</ele>
        <time>2014-07-31T08:11:18.300Z</time>
      </trkpt>
      <trkpt lat="44.93776" lon="6.75593">
        <ele>1759</ele>
        <time>2014-07-31T08:11:19.300Z</time>
      </trkpt>
      <trkpt lat="44.93776" lon="6.75594">
        <ele>1761.2</ele>
        <time>2014-07-31T08:11:20.300Z</time>
      </trkpt>
      <trkpt lat="44.93775" lon="6.75597">
        <ele>1762</ele>
        <time>2014-07-31T08:11:22.300Z</time>
      </trkpt>
      <trkpt lat="44.93775" lon="6.75599">
        <ele>1762</ele>
        <time>2014-07-31T08:11:23.300Z</time>
      </trkpt>
      <trkpt lat="44.93774" lon="6.75601">
        <ele>1762</ele>
        <time>2014-07-31T08:11:24.280Z</time>
      </trkpt>
      <trkpt lat="44.93774" lon="6.75602">
        <ele>1762</ele>
        <time>2014-07-31T08:11:25.300Z</time>
      </trkpt>
      <trkpt lat="44.93773" lon="6.75603">
        <ele>1762</ele>
        <time>2014-07-31T08:11:26.300Z</time>
      </trkpt>
      <trkpt lat="44.93773" lon="6.75605">
        <ele>1762</ele>
        <time>2014-07-31T08:11:27.300Z</time>
      </trkpt>
      <trkpt lat="44.93773" lon="6.75607">
        <ele>1762</ele>
        <time>2014-07-31T08:11:28.300Z</time>
      </trkpt>
      <trkpt lat="44.93772" lon="6.75608">
        <ele>1762</ele>
        <time>2014-07-31T08:11:29.300Z</time>
      </trkpt>
      <trkpt lat="44.93771" lon="6.75609">
        <ele>1762.7</ele>
        <time>2014-07-31T08:11:30.300Z</time>
      </trkpt>
      <trkpt lat="44.9377" lon="6.7561">
        <ele>1763</ele>
        <time>2014-07-31T08:11:31.300Z</time>
      </trkpt>
      <trkpt lat="44.93769" lon="6.75611">
        <ele>1763</ele>
        <time>2014-07-31T08:11:32.300Z</time>
      </trkpt>
      <trkpt lat="44.93769" lon="6.75614">
        <ele>1763</ele>
        <time>2014-07-31T08:11:34.260Z</time>
      </trkpt>
      <trkpt lat="44.93768" lon="6.75616">
        <ele>1763</ele>
        <time>2014-07-31T08:11:35.300Z</time>
      </trkpt>
      <trkpt lat="44.93767" lon="6.75617">
        <ele>1763</ele>
        <time>2014-07-31T08:11:36.380Z</time>
      </trkpt>
      <trkpt lat="44.93766" lon="6.75619">
        <ele>1763</ele>
        <time>2014-07-31T08:11:37.300Z</time>
      </trkpt>
      <trkpt lat="44.93766" lon="6.75619">
        <ele>1763</ele>
        <time>2014-07-31T08:11:38.300Z</time>
      </trkpt>
      <trkpt lat="44.93764" lon="6.75622">
        <ele>1764.5</ele>
        <time>2014-07-31T08:11:40.300Z</time>
      </trkpt>
      <trkpt lat="44.93764" lon="6.75624">
        <ele>1765</ele>
        <time>2014-07-31T08:11:41.300Z</time>
      </trkpt>
      <trkpt lat="44.93763" lon="6.75625">
        <ele>1765</ele>
        <time>2014-07-31T08:11:42.300Z</time>
      </trkpt>
      <trkpt lat="44.93762" lon="6.75627">
        <ele>1765</ele>
        <time>2014-07-31T08:11:43.300Z</time>
      </trkpt>
      <trkpt lat="44.93761" lon="6.75629">
        <ele>1765</ele>
        <time>2014-07-31T08:11:44.300Z</time>
      </trkpt>
      <trkpt lat="44.9376" lon="6.75632">
        <ele>1765</ele>
        <time>2014-07-31T08:11:45.300Z</time>
      </trkpt>
      <trkpt lat="44.93759" lon="6.75634">
        <ele>1765</ele>
        <time>2014-07-31T08:11:46.300Z</time>
      </trkpt>
      <trkpt lat="44.93758" lon="6.75636">
        <ele>1765</ele>
        <time>2014-07-31T08:11:47.300Z</time>
      </trkpt>
      <trkpt lat="44.93757" lon="6.75638">
        <ele>1765</ele>
        <time>2014-07-31T08:11:48.300Z</time>
      </trkpt>
      <trkpt lat="44.93756" lon="6.75641">
        <ele>1765</ele>
        <time>2014-07-31T08:11:49.300Z</time>
      </trkpt>
      <trkpt lat="44.93754" lon="6.75645">
        <ele>1765</ele>
        <time>2014-07-31T08:11:51.260Z</time>
      </trkpt>
      <trkpt lat="44.93754" lon="6.75648">
        <ele>1765</ele>
        <time>2014-07-31T08:11:52.300Z</time>
      </trkpt>
      <trkpt lat="44.93753" lon="6.7565">
        <ele>1765</ele>
        <time>2014-07-31T08:11:53.300Z</time>
      </trkpt>
      <trkpt lat="44.93752" lon="6.75651">
        <ele>1765</ele>
        <time>2014-07-31T08:11:54.300Z</time>
      </trkpt>
      <trkpt lat="44.93751" lon="6.75652">
        <ele>1765</ele>
        <time>2014-07-31T08:11:55.300Z</time>
      </trkpt>
      <trkpt lat="44.9375" lon="6.75654">
        <ele>1765</ele>
        <time>2014-07-31T08:11:56.300Z</time>
      </trkpt>
      <trkpt lat="44.93749" lon="6.75656">
        <ele>1765</ele>
        <time>2014-07-31T08:11:57.300Z</time>
      </trkpt>
      <trkpt lat="44.93748" lon="6.75659">
        <ele>1765</ele>
        <time>2014-07-31T08:11:59.200Z</time>
      </trkpt>
      <trkpt lat="44.93748" lon="6.7566">
        <ele>1765.7</ele>
        <time>2014-07-31T08:12:00.220Z</time>
      </trkpt>
      <trkpt lat="44.93747" lon="6.75663">
        <ele>1766</ele>
        <time>2014-07-31T08:12:02.300Z</time>
      </trkpt>
      <trkpt lat="44.93746" lon="6.75665">
        <ele>1766</ele>
        <time>2014-07-31T08:12:03.300Z</time>
      </trkpt>
      <trkpt lat="44.93746" lon="6.75666">
        <ele>1766</ele>
        <time>2014-07-31T08:12:04.300Z</time>
      </trkpt>
      <trkpt lat="44.93746" lon="6.75667">
        <ele>1766</ele>
        <time>2014-07-31T08:12:05.300Z</time>
      </trkpt>
      <trkpt lat="44.93746" lon="6.7567">
        <ele>1766</ele>
        <time>2014-07-31T08:12:06.300Z</time>
      </trkpt>
      <trkpt lat="44.93748" lon="6.75679">
        <ele>1766</ele>
        <time>2014-07-31T08:12:08.200Z</time>
      </trkpt>
      <trkpt lat="44.93748" lon="6.75683">
        <ele>1766</ele>
        <time>2014-07-31T08:12:09.200Z</time>
      </trkpt>
      <trkpt lat="44.93747" lon="6.75687">
        <ele>1766</ele>
        <time>2014-07-31T08:12:10.220Z</time>
      </trkpt>
      <trkpt lat="44.93747" lon="6.75689">
        <ele>1766</ele>
        <time>2014-07-31T08:12:11.300Z</time>
      </trkpt>
      <trkpt lat="44.93747" lon="6.75691">
        <ele>1766</ele>
        <time>2014-07-31T08:12:12.300Z</time>
      </trkpt>
      <trkpt lat="44.93746" lon="6.75696">
        <ele>1766</ele>
        <time>2014-07-31T08:12:14.200Z</time>
      </trkpt>
      <trkpt lat="44.93746" lon="6.75698">
        <ele>1766</ele>
        <time>2014-07-31T08:12:15.200Z</time>
      </trkpt>
      <trkpt lat="44.93745" lon="6.757">
        <ele>1766</ele>
        <time>2014-07-31T08:12:16.200Z</time>
      </trkpt>
      <trkpt lat="44.93744" lon="6.75703">
        <ele>1766</ele>
        <time>2014-07-31T08:12:17.260Z</time>
      </trkpt>
      <trkpt lat="44.93744" lon="6.75706">
        <ele>1766</ele>
        <time>2014-07-31T08:12:18.300Z</time>
      </trkpt>
      <trkpt lat="44.93743" lon="6.75709">
        <ele>1766</ele>
        <time>2014-07-31T08:12:19.300Z</time>
      </trkpt>
      <trkpt lat="44.93742" lon="6.75712">
        <ele>1766.7</ele>
        <time>2014-07-31T08:12:20.300Z</time>
      </trkpt>
      <trkpt lat="44.93742" lon="6.75715">
        <ele>1767</ele>
        <time>2014-07-31T08:12:21.280Z</time>
      </trkpt>
      <trkpt lat="44.93742" lon="6.75718">
        <ele>1767</ele>
        <time>2014-07-31T08:12:22.300Z</time>
      </trkpt>
      <trkpt lat="44.93741" lon="6.75724">
        <ele>1767</ele>
        <time>2014-07-31T08:12:24.260Z</time>
      </trkpt>
      <trkpt lat="44.93741" lon="6.75727">
        <ele>1767</ele>
        <time>2014-07-31T08:12:25.300Z</time>
      </trkpt>
      <trkpt lat="44.9374" lon="6.75729">
        <ele>1767</ele>
        <time>2014-07-31T08:12:26.300Z</time>
      </trkpt>
      <trkpt lat="44.9374" lon="6.75731">
        <ele>1767</ele>
        <time>2014-07-31T08:12:27.300Z</time>
      </trkpt>
      <trkpt lat="44.9374" lon="6.75734">
        <ele>1767</ele>
        <time>2014-07-31T08:12:28.300Z</time>
      </trkpt>
      <trkpt lat="44.93739" lon="6.75736">
        <ele>1767</ele>
        <time>2014-07-31T08:12:29.300Z</time>
      </trkpt>
      <trkpt lat="44.93739" lon="6.75738">
        <ele>1768.5</ele>
        <time>2014-07-31T08:12:30.300Z</time>
      </trkpt>
      <trkpt lat="44.93738" lon="6.7574">
        <ele>1769</ele>
        <time>2014-07-31T08:12:31.300Z</time>
      </trkpt>
      <trkpt lat="44.93738" lon="6.75743">
        <ele>1769</ele>
        <time>2014-07-31T08:12:32.280Z</time>
      </trkpt>
      <trkpt lat="44.93738" lon="6.75745">
        <ele>1769</ele>
        <time>2014-07-31T08:12:33.300Z</time>
      </trkpt>
      <trkpt lat="44.93738" lon="6.7575">
        <ele>1769</ele>
        <time>2014-07-31T08:12:35.200Z</time>
      </trkpt>
      <trkpt lat="44.93737" lon="6.75752">
        <ele>1769</ele>
        <time>2014-07-31T08:12:36.200Z</time>
      </trkpt>
      <trkpt lat="44.93736" lon="6.75755">
        <ele>1769</ele>
        <time>2014-07-31T08:12:37.200Z</time>
      </trkpt>
      <trkpt lat="44.93736" lon="6.75757">
        <ele>1769</ele>
        <time>2014-07-31T08:12:38.300Z</time>
      </trkpt>
      <trkpt lat="44.93735" lon="6.75759">
        <ele>1769</ele>
        <time>2014-07-31T08:12:39.300Z</time>
      </trkpt>
      <trkpt lat="44.93734" lon="6.7576">
        <ele>1769.7</ele>
        <time>2014-07-31T08:12:40.300Z</time>
      </trkpt>
      <trkpt lat="44.93732" lon="6.75764">
        <ele>1770</ele>
        <time>2014-07-31T08:12:42.200Z</time>
      </trkpt>
      <trkpt lat="44.93731" lon="6.75766">
        <ele>1770</ele>
        <time>2014-07-31T08:12:43.200Z</time>
      </trkpt>
      <trkpt lat="44.93731" lon="6.75767">
        <ele>1770</ele>
        <time>2014-07-31T08:12:44.180Z</time>
      </trkpt>
      <trkpt lat="44.9373" lon="6.75768">
        <ele>1770</ele>
        <time>2014-07-31T08:12:45.200Z</time>
      </trkpt>
      <trkpt lat="44.93729" lon="6.7577">
        <ele>1770</ele>
        <time>2014-07-31T08:12:46.200Z</time>
      </trkpt>
      <trkpt lat="44.93729" lon="6.75772">
        <ele>1770</ele>
        <time>2014-07-31T08:12:47.200Z</time>
      </trkpt>
      <trkpt lat="44.93728" lon="6.75774">
        <ele>1770</ele>
        <time>2014-07-31T08:12:48.200Z</time>
      </trkpt>
      <trkpt lat="44.93727" lon="6.75776">
        <ele>1770</ele>
        <time>2014-07-31T08:12:49.200Z</time>
      </trkpt>
      <trkpt lat="44.93725" lon="6.75778">
        <ele>1770.6</ele>
        <time>2014-07-31T08:12:50.200Z</time>
      </trkpt>
      <trkpt lat="44.93724" lon="6.75779">
        <ele>1771</ele>
        <time>2014-07-31T08:12:51.260Z</time>
      </trkpt>
      <trkpt lat="44.93722" lon="6.75781">
        <ele>1771</ele>
        <time>2014-07-31T08:12:52.300Z</time>
      </trkpt>
      <trkpt lat="44.9372" lon="6.75783">
        <ele>1771</ele>
        <time>2014-07-31T08:12:53.380Z</time>
      </trkpt>
      <trkpt lat="44.93719" lon="6.75784">
        <ele>1771</ele>
        <time>2014-07-31T08:12:54.300Z</time>
      </trkpt>
      <trkpt lat="44.93718" lon="6.75786">
        <ele>1771</ele>
        <time>2014-07-31T08:12:55.280Z</time>
      </trkpt>
      <trkpt lat="44.93717" lon="6.75787">
        <ele>1771</ele>
        <time>2014-07-31T08:12:56.300Z</time>
      </trkpt>
      <trkpt lat="44.93716" lon="6.75788">
        <ele>1771</ele>
        <time>2014-07-31T08:12:57.300Z</time>
      </trkpt>
      <trkpt lat="44.93714" lon="6.7579">
        <ele>1771</ele>
        <time>2014-07-31T08:12:59.200Z</time>
      </trkpt>
      <trkpt lat="44.93713" lon="6.75791">
        <ele>1772.4</ele>
        <time>2014-07-31T08:13:00.260Z</time>
      </trkpt>
      <trkpt lat="44.93712" lon="6.75793">
        <ele>1773</ele>
        <time>2014-07-31T08:13:01.300Z</time>
      </trkpt>
      <trkpt lat="44.93711" lon="6.75794">
        <ele>1773</ele>
        <time>2014-07-31T08:13:02.300Z</time>
      </trkpt>
      <trkpt lat="44.93709" lon="6.75795">
        <ele>1773</ele>
        <time>2014-07-31T08:13:03.300Z</time>
      </trkpt>
      <trkpt lat="44.93708" lon="6.75796">
        <ele>1773</ele>
        <time>2014-07-31T08:13:04.300Z</time>
      </trkpt>
      <trkpt lat="44.93706" lon="6.75797">
        <ele>1773</ele>
        <time>2014-07-31T08:13:06.280Z</time>
      </trkpt>
      <trkpt lat="44.93705" lon="6.75798">
        <ele>1773</ele>
        <time>2014-07-31T08:13:08.300Z</time>
      </trkpt>
      <trkpt lat="44.93704" lon="6.75799">
        <ele>1773</ele>
        <time>2014-07-31T08:13:09.300Z</time>
      </trkpt>
      <trkpt lat="44.93702" lon="6.758">
        <ele>1774.5</ele>
        <time>2014-07-31T08:13:10.300Z</time>
      </trkpt>
      <trkpt lat="44.937" lon="6.75802">
        <ele>1775</ele>
        <time>2014-07-31T08:13:11.300Z</time>
      </trkpt>
      <trkpt lat="44.93698" lon="6.75802">
        <ele>1775</ele>
        <time>2014-07-31T08:13:12.300Z</time>
      </trkpt>
      <trkpt lat="44.93697" lon="6.75803">
        <ele>1775</ele>
        <time>2014-07-31T08:13:13.300Z</time>
      </trkpt>
      <trkpt lat="44.93696" lon="6.75805">
        <ele>1775</ele>
        <time>2014-07-31T08:13:14.300Z</time>
      </trkpt>
      <trkpt lat="44.93693" lon="6.75807">
        <ele>1775</ele>
        <time>2014-07-31T08:13:16.200Z</time>
      </trkpt>
      <trkpt lat="44.93693" lon="6.75808">
        <ele>1775</ele>
        <time>2014-07-31T08:13:17.260Z</time>
      </trkpt>
      <trkpt lat="44.93691" lon="6.75811">
        <ele>1775</ele>
        <time>2014-07-31T08:13:19.200Z</time>
      </trkpt>
      <trkpt lat="44.9369" lon="6.75812">
        <ele>1775.6</ele>
        <time>2014-07-31T08:13:20.200Z</time>
      </trkpt>
      <trkpt lat="44.93689" lon="6.75812">
        <ele>1776</ele>
        <time>2014-07-31T08:13:21.200Z</time>
      </trkpt>
      <trkpt lat="44.93687" lon="6.75812">
        <ele>1776</ele>
        <time>2014-07-31T08:13:22.200Z</time>
      </trkpt>
      <trkpt lat="44.93686" lon="6.75813">
        <ele>1776</ele>
        <time>2014-07-31T08:13:23.200Z</time>
      </trkpt>
      <trkpt lat="44.93684" lon="6.75814">
        <ele>1776</ele>
        <time>2014-07-31T08:13:24.200Z</time>
      </trkpt>
      <trkpt lat="44.93682" lon="6.75816">
        <ele>1776</ele>
        <time>2014-07-31T08:13:25.200Z</time>
      </trkpt>
      <trkpt lat="44.9368" lon="6.75817">
        <ele>1776</ele>
        <time>2014-07-31T08:13:26.200Z</time>
      </trkpt>
      <trkpt lat="44.93679" lon="6.75818">
        <ele>1776</ele>
        <time>2014-07-31T08:13:27.200Z</time>
      </trkpt>
      <trkpt lat="44.93678" lon="6.75819">
        <ele>1776</ele>
        <time>2014-07-31T08:13:28.200Z</time>
      </trkpt>
      <trkpt lat="44.93676" lon="6.7582">
        <ele>1776</ele>
        <time>2014-07-31T08:13:29.180Z</time>
      </trkpt>
      <trkpt lat="44.93675" lon="6.75821">
        <ele>1776.6</ele>
        <time>2014-07-31T08:13:30.200Z</time>
      </trkpt>
      <trkpt lat="44.93674" lon="6.75822">
        <ele>1777</ele>
        <time>2014-07-31T08:13:31.200Z</time>
      </trkpt>
      <trkpt lat="44.93672" lon="6.75823">
        <ele>1777</ele>
        <time>2014-07-31T08:13:32.260Z</time>
      </trkpt>
      <trkpt lat="44.93671" lon="6.75824">
        <ele>1777</ele>
        <time>2014-07-31T08:13:33.300Z</time>
      </trkpt>
      <trkpt lat="44.93669" lon="6.75826">
        <ele>1777</ele>
        <time>2014-07-31T08:13:35.200Z</time>
      </trkpt>
      <trkpt lat="44.93667" lon="6.75827">
        <ele>1777</ele>
        <time>2014-07-31T08:13:36.200Z</time>
      </trkpt>
      <trkpt lat="44.93665" lon="6.75828">
        <ele>1777</ele>
        <time>2014-07-31T08:13:37.200Z</time>
      </trkpt>
      <trkpt lat="44.93664" lon="6.75829">
        <ele>1777</ele>
        <time>2014-07-31T08:13:38.200Z</time>
      </trkpt>
      <trkpt lat="44.93662" lon="6.7583">
        <ele>1777</ele>
        <time>2014-07-31T08:13:39.200Z</time>
      </trkpt>
      <trkpt lat="44.9366" lon="6.75831">
        <ele>1778.2</ele>
        <time>2014-07-31T08:13:40.180Z</time>
      </trkpt>
      <trkpt lat="44.93659" lon="6.75831">
        <ele>1779</ele>
        <time>2014-07-31T08:13:41.200Z</time>
      </trkpt>
      <trkpt lat="44.93658" lon="6.75832">
        <ele>1779</ele>
        <time>2014-07-31T08:13:42.200Z</time>
      </trkpt>
      <trkpt lat="44.93656" lon="6.75833">
        <ele>1779</ele>
        <time>2014-07-31T08:13:43.200Z</time>
      </trkpt>
      <trkpt lat="44.93654" lon="6.75834">
        <ele>1779</ele>
        <time>2014-07-31T08:13:44.200Z</time>
      </trkpt>
      <trkpt lat="44.93653" lon="6.75835">
        <ele>1779</ele>
        <time>2014-07-31T08:13:45.200Z</time>
      </trkpt>
      <trkpt lat="44.93651" lon="6.75836">
        <ele>1779</ele>
        <time>2014-07-31T08:13:46.200Z</time>
      </trkpt>
      <trkpt lat="44.9365" lon="6.75837">
        <ele>1779</ele>
        <time>2014-07-31T08:13:47.200Z</time>
      </trkpt>
      <trkpt lat="44.93649" lon="6.75838">
        <ele>1779</ele>
        <time>2014-07-31T08:13:48.200Z</time>
      </trkpt>
      <trkpt lat="44.93647" lon="6.75839">
        <ele>1779</ele>
        <time>2014-07-31T08:13:49.260Z</time>
      </trkpt>
      <trkpt lat="44.93646" lon="6.75839">
        <ele>1780.5</ele>
        <time>2014-07-31T08:13:50.300Z</time>
      </trkpt>
      <trkpt lat="44.93644" lon="6.75841">
        <ele>1781</ele>
        <time>2014-07-31T08:13:52.180Z</time>
      </trkpt>
      <trkpt lat="44.93643" lon="6.75842">
        <ele>1781</ele>
        <time>2014-07-31T08:13:53.200Z</time>
      </trkpt>
      <trkpt lat="44.93641" lon="6.75843">
        <ele>1781</ele>
        <time>2014-07-31T08:13:54.200Z</time>
      </trkpt>
      <trkpt lat="44.9364" lon="6.75845">
        <ele>1781</ele>
        <time>2014-07-31T08:13:55.200Z</time>
      </trkpt>
      <trkpt lat="44.93639" lon="6.75846">
        <ele>1781</ele>
        <time>2014-07-31T08:13:56.200Z</time>
      </trkpt>
      <trkpt lat="44.93638" lon="6.75847">
        <ele>1781</ele>
        <time>2014-07-31T08:13:57.200Z</time>
      </trkpt>
      <trkpt lat="44.93637" lon="6.75848">
        <ele>1781</ele>
        <time>2014-07-31T08:13:58.200Z</time>
      </trkpt>
      <trkpt lat="44.93636" lon="6.75849">
        <ele>1781</ele>
        <time>2014-07-31T08:13:59.200Z</time>
      </trkpt>
      <trkpt lat="44.93635" lon="6.7585">
        <ele>1782.4</ele>
        <time>2014-07-31T08:14:00.260Z</time>
      </trkpt>
      <trkpt lat="44.93633" lon="6.75851">
        <ele>1783</ele>
        <time>2014-07-31T08:14:01.300Z</time>
      </trkpt>
      <trkpt lat="44.93631" lon="6.75853">
        <ele>1783</ele>
        <time>2014-07-31T08:14:03.300Z</time>
      </trkpt>
      <trkpt lat="44.9363" lon="6.75855">
        <ele>1783</ele>
        <time>2014-07-31T08:14:05.300Z</time>
      </trkpt>
      <trkpt lat="44.93629" lon="6.75857">
        <ele>1783</ele>
        <time>2014-07-31T08:14:07.200Z</time>
      </trkpt>
      <trkpt lat="44.93628" lon="6.75859">
        <ele>1783</ele>
        <time>2014-07-31T08:14:08.200Z</time>
      </trkpt>
      <trkpt lat="44.93627" lon="6.7586">
        <ele>1783</ele>
        <time>2014-07-31T08:14:09.200Z</time>
      </trkpt>
      <trkpt lat="44.93626" lon="6.7586">
        <ele>1784.3</ele>
        <time>2014-07-31T08:14:10.200Z</time>
      </trkpt>
      <trkpt lat="44.93624" lon="6.7586">
        <ele>1785</ele>
        <time>2014-07-31T08:14:11.200Z</time>
      </trkpt>
      <trkpt lat="44.93622" lon="6.75861">
        <ele>1785</ele>
        <time>2014-07-31T08:14:13.200Z</time>
      </trkpt>
      <trkpt lat="44.93621" lon="6.75862">
        <ele>1785</ele>
        <time>2014-07-31T08:14:14.200Z</time>
      </trkpt>
      <trkpt lat="44.9362" lon="6.75863">
        <ele>1785</ele>
        <time>2014-07-31T08:14:16.200Z</time>
      </trkpt>
      <trkpt lat="44.93616" lon="6.75866">
        <ele>1785</ele>
        <time>2014-07-31T08:14:19.200Z</time>
      </trkpt>
      <trkpt lat="44.93615" lon="6.75866">
        <ele>1786.3</ele>
        <time>2014-07-31T08:14:20.200Z</time>
      </trkpt>
      <trkpt lat="44.93613" lon="6.75867">
        <ele>1787</ele>
        <time>2014-07-31T08:14:21.200Z</time>
      </trkpt>
      <trkpt lat="44.93612" lon="6.75868">
        <ele>1787</ele>
        <time>2014-07-31T08:14:22.200Z</time>
      </trkpt>
      <trkpt lat="44.93611" lon="6.75869">
        <ele>1787</ele>
        <time>2014-07-31T08:14:23.100Z</time>
      </trkpt>
      <trkpt lat="44.9361" lon="6.7587">
        <ele>1787</ele>
        <time>2014-07-31T08:14:24.200Z</time>
      </trkpt>
      <trkpt lat="44.93609" lon="6.75872">
        <ele>1787</ele>
        <time>2014-07-31T08:14:26.200Z</time>
      </trkpt>
      <trkpt lat="44.93608" lon="6.75872">
        <ele>1787</ele>
        <time>2014-07-31T08:14:27.180Z</time>
      </trkpt>
      <trkpt lat="44.93608" lon="6.75874">
        <ele>1787</ele>
        <time>2014-07-31T08:14:29.200Z</time>
      </trkpt>
      <trkpt lat="44.93607" lon="6.75875">
        <ele>1788.9</ele>
        <time>2014-07-31T08:14:30.200Z</time>
      </trkpt>
      <trkpt lat="44.93606" lon="6.75876">
        <ele>1790</ele>
        <time>2014-07-31T08:14:31.200Z</time>
      </trkpt>
      <trkpt lat="44.93605" lon="6.75877">
        <ele>1790</ele>
        <time>2014-07-31T08:14:32.200Z</time>
      </trkpt>
      <trkpt lat="44.93604" lon="6.75878">
        <ele>1790</ele>
        <time>2014-07-31T08:14:33.300Z</time>
      </trkpt>
      <trkpt lat="44.93603" lon="6.75881">
        <ele>1790.6</ele>
        <time>2014-07-31T08:14:35.200Z</time>
      </trkpt>
      <trkpt lat="44.93602" lon="6.75883">
        <ele>1791</ele>
        <time>2014-07-31T08:14:36.200Z</time>
      </trkpt>
      <trkpt lat="44.93601" lon="6.75884">
        <ele>1791</ele>
        <time>2014-07-31T08:14:37.200Z</time>
      </trkpt>
      <trkpt lat="44.936" lon="6.75886">
        <ele>1791</ele>
        <time>2014-07-31T08:14:38.180Z</time>
      </trkpt>
      <trkpt lat="44.93599" lon="6.75888">
        <ele>1791</ele>
        <time>2014-07-31T08:14:39.200Z</time>
      </trkpt>
      <trkpt lat="44.93598" lon="6.7589">
        <ele>1791</ele>
        <time>2014-07-31T08:14:40.280Z</time>
      </trkpt>
      <trkpt lat="44.93598" lon="6.75891">
        <ele>1791</ele>
        <time>2014-07-31T08:14:41.300Z</time>
      </trkpt>
      <trkpt lat="44.93598" lon="6.75893">
        <ele>1791</ele>
        <time>2014-07-31T08:14:42.300Z</time>
      </trkpt>
      <trkpt lat="44.93597" lon="6.75895">
        <ele>1791</ele>
        <time>2014-07-31T08:14:43.300Z</time>
      </trkpt>
      <trkpt lat="44.93596" lon="6.75896">
        <ele>1791</ele>
        <time>2014-07-31T08:14:44.300Z</time>
      </trkpt>
      <trkpt lat="44.93596" lon="6.75898">
        <ele>1791</ele>
        <time>2014-07-31T08:14:45.300Z</time>
      </trkpt>
      <trkpt lat="44.93596" lon="6.75901">
        <ele>1791</ele>
        <time>2014-07-31T08:14:46.300Z</time>
      </trkpt>
      <trkpt lat="44.93595" lon="6.75903">
        <ele>1791</ele>
        <time>2014-07-31T08:14:47.300Z</time>
      </trkpt>
      <trkpt lat="44.93595" lon="6.75904">
        <ele>1791</ele>
        <time>2014-07-31T08:14:48.300Z</time>
      </trkpt>
      <trkpt lat="44.93594" lon="6.75906">
        <ele>1791</ele>
        <time>2014-07-31T08:14:49.280Z</time>
      </trkpt>
      <trkpt lat="44.93594" lon="6.75908">
        <ele>1792.5</ele>
        <time>2014-07-31T08:14:50.300Z</time>
      </trkpt>
      <trkpt lat="44.93594" lon="6.75912">
        <ele>1793</ele>
        <time>2014-07-31T08:14:52.200Z</time>
      </trkpt>
      <trkpt lat="44.93594" lon="6.75914">
        <ele>1793</ele>
        <time>2014-07-31T08:14:53.200Z</time>
      </trkpt>
      <trkpt lat="44.93595" lon="6.75915">
        <ele>1793</ele>
        <time>2014-07-31T08:14:54.200Z</time>
      </trkpt>
      <trkpt lat="44.93596" lon="6.75916">
        <ele>1793</ele>
        <time>2014-07-31T08:14:55.200Z</time>
      </trkpt>
      <trkpt lat="44.93597" lon="6.75918">
        <ele>1793</ele>
        <time>2014-07-31T08:14:56.200Z</time>
      </trkpt>
      <trkpt lat="44.93597" lon="6.75919">
        <ele>1793</ele>
        <time>2014-07-31T08:14:57.260Z</time>
      </trkpt>
      <trkpt lat="44.93599" lon="6.7592">
        <ele>1793</ele>
        <time>2014-07-31T08:14:58.300Z</time>
      </trkpt>
      <trkpt lat="44.936" lon="6.75921">
        <ele>1793</ele>
        <time>2014-07-31T08:14:59.300Z</time>
      </trkpt>
      <trkpt lat="44.93602" lon="6.75921">
        <ele>1793</ele>
        <time>2014-07-31T08:15:01.180Z</time>
      </trkpt>
      <trkpt lat="44.93603" lon="6.75921">
        <ele>1793</ele>
        <time>2014-07-31T08:15:02.200Z</time>
      </trkpt>
      <trkpt lat="44.93605" lon="6.75922">
        <ele>1793</ele>
        <time>2014-07-31T08:15:03.200Z</time>
      </trkpt>
      <trkpt lat="44.93605" lon="6.75922">
        <ele>1793</ele>
        <time>2014-07-31T08:15:04.200Z</time>
      </trkpt>
      <trkpt lat="44.93607" lon="6.75922">
        <ele>1793</ele>
        <time>2014-07-31T08:15:05.200Z</time>
      </trkpt>
      <trkpt lat="44.93608" lon="6.75922">
        <ele>1793</ele>
        <time>2014-07-31T08:15:06.200Z</time>
      </trkpt>
      <trkpt lat="44.9361" lon="6.75922">
        <ele>1793</ele>
        <time>2014-07-31T08:15:07.200Z</time>
      </trkpt>
      <trkpt lat="44.93612" lon="6.75923">
        <ele>1793</ele>
        <time>2014-07-31T08:15:08.200Z</time>
      </trkpt>
      <trkpt lat="44.93614" lon="6.75923">
        <ele>1793</ele>
        <time>2014-07-31T08:15:09.200Z</time>
      </trkpt>
      <trkpt lat="44.93616" lon="6.75923">
        <ele>1794.2</ele>
        <time>2014-07-31T08:15:10.180Z</time>
      </trkpt>
      <trkpt lat="44.93617" lon="6.75923">
        <ele>1795</ele>
        <time>2014-07-31T08:15:11.200Z</time>
      </trkpt>
      <trkpt lat="44.93619" lon="6.75923">
        <ele>1795</ele>
        <time>2014-07-31T08:15:12.200Z</time>
      </trkpt>
      <trkpt lat="44.93621" lon="6.75924">
        <ele>1795</ele>
        <time>2014-07-31T08:15:13.200Z</time>
      </trkpt>
      <trkpt lat="44.93622" lon="6.75924">
        <ele>1795</ele>
        <time>2014-07-31T08:15:14.260Z</time>
      </trkpt>
      <trkpt lat="44.93624" lon="6.75925">
        <ele>1795</ele>
        <time>2014-07-31T08:15:15.300Z</time>
      </trkpt>
      <trkpt lat="44.93625" lon="6.75925">
        <ele>1795</ele>
        <time>2014-07-31T08:15:16.300Z</time>
      </trkpt>
      <trkpt lat="44.93628" lon="6.75926">
        <ele>1795</ele>
        <time>2014-07-31T08:15:18.200Z</time>
      </trkpt>
      <trkpt lat="44.9363" lon="6.75927">
        <ele>1795</ele>
        <time>2014-07-31T08:15:19.200Z</time>
      </trkpt>
      <trkpt lat="44.93631" lon="6.75928">
        <ele>1796.3</ele>
        <time>2014-07-31T08:15:20.200Z</time>
      </trkpt>
      <trkpt lat="44.93633" lon="6.75929">
        <ele>1797</ele>
        <time>2014-07-31T08:15:21.180Z</time>
      </trkpt>
      <trkpt lat="44.93634" lon="6.7593">
        <ele>1797</ele>
        <time>2014-07-31T08:15:22.200Z</time>
      </trkpt>
      <trkpt lat="44.93635" lon="6.7593">
        <ele>1797</ele>
        <time>2014-07-31T08:15:23.200Z</time>
      </trkpt>
      <trkpt lat="44.93636" lon="6.75931">
        <ele>1797</ele>
        <time>2014-07-31T08:15:24.200Z</time>
      </trkpt>
      <trkpt lat="44.93638" lon="6.75932">
        <ele>1797</ele>
        <time>2014-07-31T08:15:25.200Z</time>
      </trkpt>
      <trkpt lat="44.93639" lon="6.75934">
        <ele>1797</ele>
        <time>2014-07-31T08:15:26.200Z</time>
      </trkpt>
      <trkpt lat="44.9364" lon="6.75935">
        <ele>1797</ele>
        <time>2014-07-31T08:15:27.200Z</time>
      </trkpt>
      <trkpt lat="44.93641" lon="6.75936">
        <ele>1797</ele>
        <time>2014-07-31T08:15:28.200Z</time>
      </trkpt>
      <trkpt lat="44.93642" lon="6.75937">
        <ele>1797</ele>
        <time>2014-07-31T08:15:29.200Z</time>
      </trkpt>
      <trkpt lat="44.93642" lon="6.75938">
        <ele>1798.3</ele>
        <time>2014-07-31T08:15:30.200Z</time>
      </trkpt>
      <trkpt lat="44.93643" lon="6.75939">
        <ele>1799</ele>
        <time>2014-07-31T08:15:31.260Z</time>
      </trkpt>
      <trkpt lat="44.93644" lon="6.75941">
        <ele>1799</ele>
        <time>2014-07-31T08:15:32.340Z</time>
      </trkpt>
      <trkpt lat="44.93644" lon="6.75943">
        <ele>1799</ele>
        <time>2014-07-31T08:15:33.300Z</time>
      </trkpt>
      <trkpt lat="44.93643" lon="6.75947">
        <ele>1799</ele>
        <time>2014-07-31T08:15:35.200Z</time>
      </trkpt>
      <trkpt lat="44.93642" lon="6.75948">
        <ele>1799</ele>
        <time>2014-07-31T08:15:36.200Z</time>
      </trkpt>
      <trkpt lat="44.9364" lon="6.75949">
        <ele>1799</ele>
        <time>2014-07-31T08:15:37.200Z</time>
      </trkpt>
      <trkpt lat="44.93638" lon="6.7595">
        <ele>1799</ele>
        <time>2014-07-31T08:15:38.200Z</time>
      </trkpt>
      <trkpt lat="44.93637" lon="6.7595">
        <ele>1799</ele>
        <time>2014-07-31T08:15:39.200Z</time>
      </trkpt>
      <trkpt lat="44.93636" lon="6.75951">
        <ele>1800.3</ele>
        <time>2014-07-31T08:15:40.200Z</time>
      </trkpt>
      <trkpt lat="44.93634" lon="6.75951">
        <ele>1801</ele>
        <time>2014-07-31T08:15:41.200Z</time>
      </trkpt>
      <trkpt lat="44.93633" lon="6.75951">
        <ele>1801</ele>
        <time>2014-07-31T08:15:42.200Z</time>
      </trkpt>
      <trkpt lat="44.93631" lon="6.75951">
        <ele>1801</ele>
        <time>2014-07-31T08:15:43.200Z</time>
      </trkpt>
      <trkpt lat="44.9363" lon="6.75951">
        <ele>1801</ele>
        <time>2014-07-31T08:15:44.200Z</time>
      </trkpt>
      <trkpt lat="44.93629" lon="6.7595">
        <ele>1801</ele>
        <time>2014-07-31T08:15:45.180Z</time>
      </trkpt>
      <trkpt lat="44.93627" lon="6.7595">
        <ele>1801</ele>
        <time>2014-07-31T08:15:46.200Z</time>
      </trkpt>
      <trkpt lat="44.93626" lon="6.75949">
        <ele>1801</ele>
        <time>2014-07-31T08:15:47.200Z</time>
      </trkpt>
      <trkpt lat="44.93624" lon="6.75949">
        <ele>1801</ele>
        <time>2014-07-31T08:15:48.260Z</time>
      </trkpt>
      <trkpt lat="44.93623" lon="6.75949">
        <ele>1801</ele>
        <time>2014-07-31T08:15:49.300Z</time>
      </trkpt>
      <trkpt lat="44.93621" lon="6.75949">
        <ele>1802.5</ele>
        <time>2014-07-31T08:15:50.300Z</time>
      </trkpt>
      <trkpt lat="44.93618" lon="6.7595">
        <ele>1803</ele>
        <time>2014-07-31T08:15:52.200Z</time>
      </trkpt>
      <trkpt lat="44.93617" lon="6.7595">
        <ele>1803</ele>
        <time>2014-07-31T08:15:53.200Z</time>
      </trkpt>
      <trkpt lat="44.93615" lon="6.7595">
        <ele>1803</ele>
        <time>2014-07-31T08:15:54.200Z</time>
      </trkpt>
      <trkpt lat="44.93614" lon="6.75951">
        <ele>1803</ele>
        <time>2014-07-31T08:15:55.200Z</time>
      </trkpt>
      <trkpt lat="44.93613" lon="6.75952">
        <ele>1803</ele>
        <time>2014-07-31T08:15:56.200Z</time>
      </trkpt>
      <trkpt lat="44.93611" lon="6.75953">
        <ele>1803</ele>
        <time>2014-07-31T08:15:57.200Z</time>
      </trkpt>
      <trkpt lat="44.9361" lon="6.75954">
        <ele>1803</ele>
        <time>2014-07-31T08:15:58.200Z</time>
      </trkpt>
      <trkpt lat="44.93608" lon="6.75955">
        <ele>1803</ele>
        <time>2014-07-31T08:15:59.200Z</time>
      </trkpt>
      <trkpt lat="44.93607" lon="6.75956">
        <ele>1804.4</ele>
        <time>2014-07-31T08:16:00.260Z</time>
      </trkpt>
      <trkpt lat="44.93606" lon="6.75957">
        <ele>1805</ele>
        <time>2014-07-31T08:16:01.300Z</time>
      </trkpt>
      <trkpt lat="44.93605" lon="6.75958">
        <ele>1805</ele>
        <time>2014-07-31T08:16:02.300Z</time>
      </trkpt>
      <trkpt lat="44.93603" lon="6.75959">
        <ele>1805</ele>
        <time>2014-07-31T08:16:03.300Z</time>
      </trkpt>
      <trkpt lat="44.93601" lon="6.7596">
        <ele>1805</ele>
        <time>2014-07-31T08:16:04.300Z</time>
      </trkpt>
      <trkpt lat="44.936" lon="6.75962">
        <ele>1805</ele>
        <time>2014-07-31T08:16:06.180Z</time>
      </trkpt>
      <trkpt lat="44.93599" lon="6.75963">
        <ele>1805</ele>
        <time>2014-07-31T08:16:07.200Z</time>
      </trkpt>
      <trkpt lat="44.93598" lon="6.75964">
        <ele>1805</ele>
        <time>2014-07-31T08:16:08.300Z</time>
      </trkpt>
      <trkpt lat="44.93597" lon="6.75965">
        <ele>1805</ele>
        <time>2014-07-31T08:16:09.300Z</time>
      </trkpt>
      <trkpt lat="44.93596" lon="6.75965">
        <ele>1806.5</ele>
        <time>2014-07-31T08:16:10.300Z</time>
      </trkpt>
      <trkpt lat="44.93595" lon="6.75966">
        <ele>1807</ele>
        <time>2014-07-31T08:16:11.300Z</time>
      </trkpt>
      <trkpt lat="44.93593" lon="6.75967">
        <ele>1807</ele>
        <time>2014-07-31T08:16:12.300Z</time>
      </trkpt>
      <trkpt lat="44.93592" lon="6.75968">
        <ele>1807</ele>
        <time>2014-07-31T08:16:13.380Z</time>
      </trkpt>
      <trkpt lat="44.93591" lon="6.7597">
        <ele>1807</ele>
        <time>2014-07-31T08:16:14.300Z</time>
      </trkpt>
      <trkpt lat="44.9359" lon="6.75971">
        <ele>1807</ele>
        <time>2014-07-31T08:16:15.300Z</time>
      </trkpt>
      <trkpt lat="44.93589" lon="6.75972">
        <ele>1807</ele>
        <time>2014-07-31T08:16:16.300Z</time>
      </trkpt>
      <trkpt lat="44.93587" lon="6.75973">
        <ele>1807</ele>
        <time>2014-07-31T08:16:17.160Z</time>
      </trkpt>
      <trkpt lat="44.93585" lon="6.75975">
        <ele>1807</ele>
        <time>2014-07-31T08:16:19.200Z</time>
      </trkpt>
      <trkpt lat="44.93584" lon="6.75975">
        <ele>1807.6</ele>
        <time>2014-07-31T08:16:20.200Z</time>
      </trkpt>
      <trkpt lat="44.93582" lon="6.75975">
        <ele>1808</ele>
        <time>2014-07-31T08:16:21.200Z</time>
      </trkpt>
      <trkpt lat="44.93581" lon="6.75976">
        <ele>1808</ele>
        <time>2014-07-31T08:16:22.260Z</time>
      </trkpt>
      <trkpt lat="44.9358" lon="6.75978">
        <ele>1808</ele>
        <time>2014-07-31T08:16:23.300Z</time>
      </trkpt>
      <trkpt lat="44.93579" lon="6.75979">
        <ele>1808</ele>
        <time>2014-07-31T08:16:24.300Z</time>
      </trkpt>
      <trkpt lat="44.93577" lon="6.7598">
        <ele>1808</ele>
        <time>2014-07-31T08:16:26.300Z</time>
      </trkpt>
      <trkpt lat="44.93576" lon="6.75982">
        <ele>1808</ele>
        <time>2014-07-31T08:16:27.300Z</time>
      </trkpt>
      <trkpt lat="44.93573" lon="6.75985">
        <ele>1808</ele>
        <time>2014-07-31T08:16:29.200Z</time>
      </trkpt>
      <trkpt lat="44.93572" lon="6.75987">
        <ele>1809.3</ele>
        <time>2014-07-31T08:16:30.200Z</time>
      </trkpt>
      <trkpt lat="44.93571" lon="6.75988">
        <ele>1810</ele>
        <time>2014-07-31T08:16:31.200Z</time>
      </trkpt>
      <trkpt lat="44.93569" lon="6.75988">
        <ele>1810</ele>
        <time>2014-07-31T08:16:32.200Z</time>
      </trkpt>
      <trkpt lat="44.93568" lon="6.75988">
        <ele>1810</ele>
        <time>2014-07-31T08:16:33.200Z</time>
      </trkpt>
      <trkpt lat="44.93567" lon="6.75989">
        <ele>1810</ele>
        <time>2014-07-31T08:16:34.260Z</time>
      </trkpt>
      <trkpt lat="44.93565" lon="6.75989">
        <ele>1810</ele>
        <time>2014-07-31T08:16:35.300Z</time>
      </trkpt>
      <trkpt lat="44.93564" lon="6.7599">
        <ele>1810</ele>
        <time>2014-07-31T08:16:36.300Z</time>
      </trkpt>
      <trkpt lat="44.93562" lon="6.75991">
        <ele>1810</ele>
        <time>2014-07-31T08:16:37.300Z</time>
      </trkpt>
      <trkpt lat="44.93561" lon="6.75992">
        <ele>1810</ele>
        <time>2014-07-31T08:16:38.300Z</time>
      </trkpt>
      <trkpt lat="44.93558" lon="6.75994">
        <ele>1811.3</ele>
        <time>2014-07-31T08:16:40.220Z</time>
      </trkpt>
      <trkpt lat="44.93557" lon="6.75994">
        <ele>1812</ele>
        <time>2014-07-31T08:16:41.300Z</time>
      </trkpt>
      <trkpt lat="44.93556" lon="6.75994">
        <ele>1812</ele>
        <time>2014-07-31T08:16:42.300Z</time>
      </trkpt>
      <trkpt lat="44.93552" lon="6.75998">
        <ele>1812</ele>
        <time>2014-07-31T08:16:44.200Z</time>
      </trkpt>
      <trkpt lat="44.93551" lon="6.75999">
        <ele>1812</ele>
        <time>2014-07-31T08:16:45.200Z</time>
      </trkpt>
      <trkpt lat="44.9355" lon="6.75999">
        <ele>1812</ele>
        <time>2014-07-31T08:16:46.200Z</time>
      </trkpt>
      <trkpt lat="44.93548" lon="6.76001">
        <ele>1812</ele>
        <time>2014-07-31T08:16:48.200Z</time>
      </trkpt>
      <trkpt lat="44.93547" lon="6.76001">
        <ele>1812</ele>
        <time>2014-07-31T08:16:49.200Z</time>
      </trkpt>
      <trkpt lat="44.93545" lon="6.76001">
        <ele>1813.9</ele>
        <time>2014-07-31T08:16:50.200Z</time>
      </trkpt>
      <trkpt lat="44.93544" lon="6.76001">
        <ele>1815</ele>
        <time>2014-07-31T08:16:51.060Z</time>
      </trkpt>
      <trkpt lat="44.93542" lon="6.76001">
        <ele>1815</ele>
        <time>2014-07-31T08:16:52.200Z</time>
      </trkpt>
      <trkpt lat="44.93541" lon="6.76001">
        <ele>1815</ele>
        <time>2014-07-31T08:16:53.200Z</time>
      </trkpt>
      <trkpt lat="44.93539" lon="6.76002">
        <ele>1815</ele>
        <time>2014-07-31T08:16:54.200Z</time>
      </trkpt>
      <trkpt lat="44.93538" lon="6.76002">
        <ele>1815</ele>
        <time>2014-07-31T08:16:55.200Z</time>
      </trkpt>
      <trkpt lat="44.93536" lon="6.76003">
        <ele>1815</ele>
        <time>2014-07-31T08:16:56.260Z</time>
      </trkpt>
      <trkpt lat="44.93535" lon="6.76003">
        <ele>1815</ele>
        <time>2014-07-31T08:16:57.300Z</time>
      </trkpt>
      <trkpt lat="44.93533" lon="6.76003">
        <ele>1815</ele>
        <time>2014-07-31T08:16:58.300Z</time>
      </trkpt>
      <trkpt lat="44.93531" lon="6.76003">
        <ele>1815</ele>
        <time>2014-07-31T08:16:59.300Z</time>
      </trkpt>
      <trkpt lat="44.93528" lon="6.76002">
        <ele>1816</ele>
        <time>2014-07-31T08:17:01.200Z</time>
      </trkpt>
      <trkpt lat="44.93526" lon="6.76002">
        <ele>1816</ele>
        <time>2014-07-31T08:17:02.200Z</time>
      </trkpt>
      <trkpt lat="44.93524" lon="6.76001">
        <ele>1816</ele>
        <time>2014-07-31T08:17:03.200Z</time>
      </trkpt>
      <trkpt lat="44.93522" lon="6.76001">
        <ele>1816</ele>
        <time>2014-07-31T08:17:04.200Z</time>
      </trkpt>
      <trkpt lat="44.9352" lon="6.76">
        <ele>1816</ele>
        <time>2014-07-31T08:17:05.200Z</time>
      </trkpt>
      <trkpt lat="44.93518" lon="6.76">
        <ele>1816</ele>
        <time>2014-07-31T08:17:06.200Z</time>
      </trkpt>
      <trkpt lat="44.93517" lon="6.76">
        <ele>1816</ele>
        <time>2014-07-31T08:17:07.200Z</time>
      </trkpt>
      <trkpt lat="44.93515" lon="6.76">
        <ele>1816</ele>
        <time>2014-07-31T08:17:08.200Z</time>
      </trkpt>
      <trkpt lat="44.93513" lon="6.76">
        <ele>1816</ele>
        <time>2014-07-31T08:17:09.200Z</time>
      </trkpt>
      <trkpt lat="44.93511" lon="6.76">
        <ele>1816.6</ele>
        <time>2014-07-31T08:17:10.200Z</time>
      </trkpt>
      <trkpt lat="44.9351" lon="6.76001">
        <ele>1817</ele>
        <time>2014-07-31T08:17:11.200Z</time>
      </trkpt>
      <trkpt lat="44.93508" lon="6.76001">
        <ele>1817</ele>
        <time>2014-07-31T08:17:12.200Z</time>
      </trkpt>
      <trkpt lat="44.93506" lon="6.76001">
        <ele>1817</ele>
        <time>2014-07-31T08:17:13.100Z</time>
      </trkpt>
      <trkpt lat="44.93504" lon="6.76001">
        <ele>1817</ele>
        <time>2014-07-31T08:17:14.200Z</time>
      </trkpt>
      <trkpt lat="44.93503" lon="6.76002">
        <ele>1817</ele>
        <time>2014-07-31T08:17:15.200Z</time>
      </trkpt>
      <trkpt lat="44.93502" lon="6.76002">
        <ele>1817</ele>
        <time>2014-07-31T08:17:16.200Z</time>
      </trkpt>
      <trkpt lat="44.935" lon="6.76002">
        <ele>1817</ele>
        <time>2014-07-31T08:17:17.260Z</time>
      </trkpt>
      <trkpt lat="44.93498" lon="6.76002">
        <ele>1817</ele>
        <time>2014-07-31T08:17:18.300Z</time>
      </trkpt>
      <trkpt lat="44.93496" lon="6.76002">
        <ele>1817</ele>
        <time>2014-07-31T08:17:19.300Z</time>
      </trkpt>
      <trkpt lat="44.93494" lon="6.76002">
        <ele>1818.5</ele>
        <time>2014-07-31T08:17:20.300Z</time>
      </trkpt>
      <trkpt lat="44.93493" lon="6.76002">
        <ele>1819</ele>
        <time>2014-07-31T08:17:21.300Z</time>
      </trkpt>
      <trkpt lat="44.93491" lon="6.76002">
        <ele>1819</ele>
        <time>2014-07-31T08:17:22.300Z</time>
      </trkpt>
      <trkpt lat="44.9349" lon="6.76003">
        <ele>1819</ele>
        <time>2014-07-31T08:17:23.300Z</time>
      </trkpt>
      <trkpt lat="44.93488" lon="6.76003">
        <ele>1819</ele>
        <time>2014-07-31T08:17:24.300Z</time>
      </trkpt>
      <trkpt lat="44.93485" lon="6.76002">
        <ele>1819</ele>
        <time>2014-07-31T08:17:26.200Z</time>
      </trkpt>
      <trkpt lat="44.93484" lon="6.76003">
        <ele>1819</ele>
        <time>2014-07-31T08:17:27.200Z</time>
      </trkpt>
      <trkpt lat="44.93482" lon="6.76003">
        <ele>1819</ele>
        <time>2014-07-31T08:17:28.300Z</time>
      </trkpt>
      <trkpt lat="44.93481" lon="6.76004">
        <ele>1819</ele>
        <time>2014-07-31T08:17:29.300Z</time>
      </trkpt>
      <trkpt lat="44.93478" lon="6.76005">
        <ele>1821</ele>
        <time>2014-07-31T08:17:31.200Z</time>
      </trkpt>
      <trkpt lat="44.93476" lon="6.76006">
        <ele>1821</ele>
        <time>2014-07-31T08:17:32.200Z</time>
      </trkpt>
      <trkpt lat="44.93475" lon="6.76006">
        <ele>1821</ele>
        <time>2014-07-31T08:17:33.200Z</time>
      </trkpt>
      <trkpt lat="44.93474" lon="6.76006">
        <ele>1821</ele>
        <time>2014-07-31T08:17:34.260Z</time>
      </trkpt>
      <trkpt lat="44.93472" lon="6.76006">
        <ele>1821</ele>
        <time>2014-07-31T08:17:35.300Z</time>
      </trkpt>
      <trkpt lat="44.93471" lon="6.76007">
        <ele>1821</ele>
        <time>2014-07-31T08:17:36.280Z</time>
      </trkpt>
      <trkpt lat="44.9347" lon="6.76008">
        <ele>1821</ele>
        <time>2014-07-31T08:17:37.300Z</time>
      </trkpt>
      <trkpt lat="44.93468" lon="6.76008">
        <ele>1821</ele>
        <time>2014-07-31T08:17:38.300Z</time>
      </trkpt>
      <trkpt lat="44.93467" lon="6.76008">
        <ele>1821</ele>
        <time>2014-07-31T08:17:39.300Z</time>
      </trkpt>
      <trkpt lat="44.93466" lon="6.76009">
        <ele>1823.1</ele>
        <time>2014-07-31T08:17:40.300Z</time>
      </trkpt>
      <trkpt lat="44.93464" lon="6.76009">
        <ele>1824</ele>
        <time>2014-07-31T08:17:41.380Z</time>
      </trkpt>
      <trkpt lat="44.93463" lon="6.7601">
        <ele>1824</ele>
        <time>2014-07-31T08:17:42.300Z</time>
      </trkpt>
      <trkpt lat="44.93462" lon="6.76011">
        <ele>1824</ele>
        <time>2014-07-31T08:17:43.300Z</time>
      </trkpt>
      <trkpt lat="44.93461" lon="6.76011">
        <ele>1824</ele>
        <time>2014-07-31T08:17:44.300Z</time>
      </trkpt>
      <trkpt lat="44.93459" lon="6.76011">
        <ele>1824.7</ele>
        <time>2014-07-31T08:17:45.300Z</time>
      </trkpt>
      <trkpt lat="44.93458" lon="6.76011">
        <ele>1825</ele>
        <time>2014-07-31T08:17:46.300Z</time>
      </trkpt>
      <trkpt lat="44.93455" lon="6.76012">
        <ele>1825</ele>
        <time>2014-07-31T08:17:48.200Z</time>
      </trkpt>
      <trkpt lat="44.93454" lon="6.76012">
        <ele>1825</ele>
        <time>2014-07-31T08:17:49.200Z</time>
      </trkpt>
      <trkpt lat="44.93452" lon="6.76012">
        <ele>1825</ele>
        <time>2014-07-31T08:17:50.200Z</time>
      </trkpt>
      <trkpt lat="44.93451" lon="6.76012">
        <ele>1825</ele>
        <time>2014-07-31T08:17:51.260Z</time>
      </trkpt>
      <trkpt lat="44.93449" lon="6.76012">
        <ele>1825</ele>
        <time>2014-07-31T08:17:52.300Z</time>
      </trkpt>
      <trkpt lat="44.93448" lon="6.76013">
        <ele>1825</ele>
        <time>2014-07-31T08:17:53.300Z</time>
      </trkpt>
      <trkpt lat="44.93446" lon="6.76014">
        <ele>1825</ele>
        <time>2014-07-31T08:17:54.300Z</time>
      </trkpt>
      <trkpt lat="44.93445" lon="6.76015">
        <ele>1825</ele>
        <time>2014-07-31T08:17:55.300Z</time>
      </trkpt>
      <trkpt lat="44.93443" lon="6.76016">
        <ele>1825</ele>
        <time>2014-07-31T08:17:56.300Z</time>
      </trkpt>
      <trkpt lat="44.93442" lon="6.76017">
        <ele>1825</ele>
        <time>2014-07-31T08:17:57.300Z</time>
      </trkpt>
      <trkpt lat="44.93439" lon="6.76017">
        <ele>1825</ele>
        <time>2014-07-31T08:17:59.200Z</time>
      </trkpt>
      <trkpt lat="44.93437" lon="6.76018">
        <ele>1826.4</ele>
        <time>2014-07-31T08:18:00.260Z</time>
      </trkpt>
      <trkpt lat="44.93436" lon="6.76019">
        <ele>1827</ele>
        <time>2014-07-31T08:18:01.300Z</time>
      </trkpt>
      <trkpt lat="44.93434" lon="6.7602">
        <ele>1827</ele>
        <time>2014-07-31T08:18:02.300Z</time>
      </trkpt>
      <trkpt lat="44.93431" lon="6.76021">
        <ele>1827</ele>
        <time>2014-07-31T08:18:04.200Z</time>
      </trkpt>
      <trkpt lat="44.9343" lon="6.76024">
        <ele>1827</ele>
        <time>2014-07-31T08:18:06.300Z</time>
      </trkpt>
      <trkpt lat="44.93429" lon="6.76025">
        <ele>1827</ele>
        <time>2014-07-31T08:18:07.300Z</time>
      </trkpt>
      <trkpt lat="44.93427" lon="6.76027">
        <ele>1827</ele>
        <time>2014-07-31T08:18:09.200Z</time>
      </trkpt>
      <trkpt lat="44.93426" lon="6.76028">
        <ele>1828.3</ele>
        <time>2014-07-31T08:18:10.200Z</time>
      </trkpt>
      <trkpt lat="44.93425" lon="6.7603">
        <ele>1829</ele>
        <time>2014-07-31T08:18:11.200Z</time>
      </trkpt>
      <trkpt lat="44.93423" lon="6.76031">
        <ele>1829</ele>
        <time>2014-07-31T08:18:12.200Z</time>
      </trkpt>
      <trkpt lat="44.93422" lon="6.76032">
        <ele>1829</ele>
        <time>2014-07-31T08:18:13.200Z</time>
      </trkpt>
      <trkpt lat="44.93421" lon="6.76033">
        <ele>1829</ele>
        <time>2014-07-31T08:18:14.200Z</time>
      </trkpt>
      <trkpt lat="44.9342" lon="6.76035">
        <ele>1829</ele>
        <time>2014-07-31T08:18:15.200Z</time>
      </trkpt>
      <trkpt lat="44.93419" lon="6.76036">
        <ele>1829</ele>
        <time>2014-07-31T08:18:16.200Z</time>
      </trkpt>
      <trkpt lat="44.93418" lon="6.76037">
        <ele>1829</ele>
        <time>2014-07-31T08:18:17.260Z</time>
      </trkpt>
      <trkpt lat="44.93417" lon="6.76039">
        <ele>1829</ele>
        <time>2014-07-31T08:18:18.300Z</time>
      </trkpt>
      <trkpt lat="44.93416" lon="6.76041">
        <ele>1829</ele>
        <time>2014-07-31T08:18:19.300Z</time>
      </trkpt>
      <trkpt lat="44.93414" lon="6.76042">
        <ele>1830.5</ele>
        <time>2014-07-31T08:18:20.300Z</time>
      </trkpt>
      <trkpt lat="44.93412" lon="6.76044">
        <ele>1831</ele>
        <time>2014-07-31T08:18:22.200Z</time>
      </trkpt>
      <trkpt lat="44.93411" lon="6.76046">
        <ele>1831</ele>
        <time>2014-07-31T08:18:23.200Z</time>
      </trkpt>
      <trkpt lat="44.93409" lon="6.76047">
        <ele>1831</ele>
        <time>2014-07-31T08:18:24.200Z</time>
      </trkpt>
      <trkpt lat="44.93408" lon="6.76049">
        <ele>1831</ele>
        <time>2014-07-31T08:18:25.200Z</time>
      </trkpt>
      <trkpt lat="44.93407" lon="6.76051">
        <ele>1831</ele>
        <time>2014-07-31T08:18:26.200Z</time>
      </trkpt>
      <trkpt lat="44.93406" lon="6.76052">
        <ele>1831</ele>
        <time>2014-07-31T08:18:27.200Z</time>
      </trkpt>
      <trkpt lat="44.93405" lon="6.76053">
        <ele>1831</ele>
        <time>2014-07-31T08:18:28.300Z</time>
      </trkpt>
      <trkpt lat="44.93403" lon="6.76053">
        <ele>1831</ele>
        <time>2014-07-31T08:18:29.300Z</time>
      </trkpt>
      <trkpt lat="44.93402" lon="6.76054">
        <ele>1833.2</ele>
        <time>2014-07-31T08:18:30.300Z</time>
      </trkpt>
      <trkpt lat="44.93401" lon="6.76055">
        <ele>1834</ele>
        <time>2014-07-31T08:18:31.280Z</time>
      </trkpt>
      <trkpt lat="44.93399" lon="6.76055">
        <ele>1834</ele>
        <time>2014-07-31T08:18:32.300Z</time>
      </trkpt>
      <trkpt lat="44.93398" lon="6.76055">
        <ele>1834</ele>
        <time>2014-07-31T08:18:33.300Z</time>
      </trkpt>
      <trkpt lat="44.93396" lon="6.76058">
        <ele>1834.6</ele>
        <time>2014-07-31T08:18:35.200Z</time>
      </trkpt>
      <trkpt lat="44.93394" lon="6.7606">
        <ele>1835</ele>
        <time>2014-07-31T08:18:36.200Z</time>
      </trkpt>
      <trkpt lat="44.93393" lon="6.76061">
        <ele>1835</ele>
        <time>2014-07-31T08:18:37.200Z</time>
      </trkpt>
      <trkpt lat="44.93392" lon="6.76062">
        <ele>1835</ele>
        <time>2014-07-31T08:18:38.260Z</time>
      </trkpt>
      <trkpt lat="44.93391" lon="6.76064">
        <ele>1835</ele>
        <time>2014-07-31T08:18:39.300Z</time>
      </trkpt>
      <trkpt lat="44.93389" lon="6.76065">
        <ele>1835</ele>
        <time>2014-07-31T08:18:40.300Z</time>
      </trkpt>
      <trkpt lat="44.93388" lon="6.76067">
        <ele>1835</ele>
        <time>2014-07-31T08:18:41.380Z</time>
      </trkpt>
      <trkpt lat="44.93386" lon="6.76069">
        <ele>1835</ele>
        <time>2014-07-31T08:18:43.200Z</time>
      </trkpt>
      <trkpt lat="44.93384" lon="6.76071">
        <ele>1835</ele>
        <time>2014-07-31T08:18:44.200Z</time>
      </trkpt>
      <trkpt lat="44.93383" lon="6.76072">
        <ele>1835</ele>
        <time>2014-07-31T08:18:45.200Z</time>
      </trkpt>
      <trkpt lat="44.93382" lon="6.76073">
        <ele>1835</ele>
        <time>2014-07-31T08:18:46.200Z</time>
      </trkpt>
      <trkpt lat="44.93381" lon="6.76075">
        <ele>1835</ele>
        <time>2014-07-31T08:18:47.200Z</time>
      </trkpt>
      <trkpt lat="44.93379" lon="6.76075">
        <ele>1835</ele>
        <time>2014-07-31T08:18:48.200Z</time>
      </trkpt>
      <trkpt lat="44.93378" lon="6.76076">
        <ele>1835</ele>
        <time>2014-07-31T08:18:49.200Z</time>
      </trkpt>
      <trkpt lat="44.93377" lon="6.76077">
        <ele>1836.3</ele>
        <time>2014-07-31T08:18:50.200Z</time>
      </trkpt>
      <trkpt lat="44.93376" lon="6.76078">
        <ele>1837</ele>
        <time>2014-07-31T08:18:51.260Z</time>
      </trkpt>
      <trkpt lat="44.93375" lon="6.76079">
        <ele>1837</ele>
        <time>2014-07-31T08:18:52.300Z</time>
      </trkpt>
      <trkpt lat="44.93373" lon="6.7608">
        <ele>1837</ele>
        <time>2014-07-31T08:18:54.200Z</time>
      </trkpt>
      <trkpt lat="44.93372" lon="6.76081">
        <ele>1837</ele>
        <time>2014-07-31T08:18:55.260Z</time>
      </trkpt>
      <trkpt lat="44.93371" lon="6.76082">
        <ele>1837</ele>
        <time>2014-07-31T08:18:56.300Z</time>
      </trkpt>
      <trkpt lat="44.9337" lon="6.76083">
        <ele>1837</ele>
        <time>2014-07-31T08:18:57.300Z</time>
      </trkpt>
      <trkpt lat="44.93369" lon="6.76085">
        <ele>1837</ele>
        <time>2014-07-31T08:18:58.300Z</time>
      </trkpt>
      <trkpt lat="44.93368" lon="6.76086">
        <ele>1837</ele>
        <time>2014-07-31T08:18:59.300Z</time>
      </trkpt>
      <trkpt lat="44.93367" lon="6.76088">
        <ele>1838.2</ele>
        <time>2014-07-31T08:19:00.190Z</time>
      </trkpt>
      <trkpt lat="44.93365" lon="6.7609">
        <ele>1839</ele>
        <time>2014-07-31T08:19:01.300Z</time>
      </trkpt>
      <trkpt lat="44.93364" lon="6.76092">
        <ele>1839</ele>
        <time>2014-07-31T08:19:02.300Z</time>
      </trkpt>
      <trkpt lat="44.93362" lon="6.76094">
        <ele>1839</ele>
        <time>2014-07-31T08:19:04.200Z</time>
      </trkpt>
      <trkpt lat="44.93361" lon="6.76095">
        <ele>1839</ele>
        <time>2014-07-31T08:19:05.200Z</time>
      </trkpt>
      <trkpt lat="44.9336" lon="6.76096">
        <ele>1839</ele>
        <time>2014-07-31T08:19:06.200Z</time>
      </trkpt>
      <trkpt lat="44.93358" lon="6.76097">
        <ele>1839</ele>
        <time>2014-07-31T08:19:07.200Z</time>
      </trkpt>
      <trkpt lat="44.93357" lon="6.76098">
        <ele>1839</ele>
        <time>2014-07-31T08:19:08.200Z</time>
      </trkpt>
      <trkpt lat="44.93356" lon="6.761">
        <ele>1839</ele>
        <time>2014-07-31T08:19:09.200Z</time>
      </trkpt>
      <trkpt lat="44.93355" lon="6.76101">
        <ele>1840.3</ele>
        <time>2014-07-31T08:19:10.200Z</time>
      </trkpt>
      <trkpt lat="44.93354" lon="6.76102">
        <ele>1841</ele>
        <time>2014-07-31T08:19:11.200Z</time>
      </trkpt>
      <trkpt lat="44.93353" lon="6.76103">
        <ele>1841</ele>
        <time>2014-07-31T08:19:12.260Z</time>
      </trkpt>
      <trkpt lat="44.93351" lon="6.76104">
        <ele>1841</ele>
        <time>2014-07-31T08:19:13.300Z</time>
      </trkpt>
      <trkpt lat="44.9335" lon="6.76106">
        <ele>1841</ele>
        <time>2014-07-31T08:19:14.300Z</time>
      </trkpt>
      <trkpt lat="44.93349" lon="6.76107">
        <ele>1841</ele>
        <time>2014-07-31T08:19:15.300Z</time>
      </trkpt>
      <trkpt lat="44.93348" lon="6.76109">
        <ele>1841</ele>
        <time>2014-07-31T08:19:16.300Z</time>
      </trkpt>
      <trkpt lat="44.93346" lon="6.76112">
        <ele>1841</ele>
        <time>2014-07-31T08:19:18.380Z</time>
      </trkpt>
      <trkpt lat="44.93345" lon="6.76113">
        <ele>1841</ele>
        <time>2014-07-31T08:19:19.300Z</time>
      </trkpt>
      <trkpt lat="44.93344" lon="6.76115">
        <ele>1842.5</ele>
        <time>2014-07-31T08:19:20.300Z</time>
      </trkpt>
      <trkpt lat="44.93343" lon="6.76116">
        <ele>1843</ele>
        <time>2014-07-31T08:19:21.300Z</time>
      </trkpt>
      <trkpt lat="44.93343" lon="6.76118">
        <ele>1843</ele>
        <time>2014-07-31T08:19:22.300Z</time>
      </trkpt>
      <trkpt lat="44.93342" lon="6.76119">
        <ele>1843</ele>
        <time>2014-07-31T08:19:23.300Z</time>
      </trkpt>
      <trkpt lat="44.93341" lon="6.7612">
        <ele>1843</ele>
        <time>2014-07-31T08:19:24.300Z</time>
      </trkpt>
      <trkpt lat="44.9334" lon="6.76122">
        <ele>1843</ele>
        <time>2014-07-31T08:19:25.300Z</time>
      </trkpt>
      <trkpt lat="44.93339" lon="6.76123">
        <ele>1843</ele>
        <time>2014-07-31T08:19:26.300Z</time>
      </trkpt>
      <trkpt lat="44.93338" lon="6.76125">
        <ele>1843</ele>
        <time>2014-07-31T08:19:27.280Z</time>
      </trkpt>
      <trkpt lat="44.93337" lon="6.76126">
        <ele>1843</ele>
        <time>2014-07-31T08:19:28.300Z</time>
      </trkpt>
      <trkpt lat="44.93336" lon="6.7613">
        <ele>1844.4</ele>
        <time>2014-07-31T08:19:30.280Z</time>
      </trkpt>
      <trkpt lat="44.93335" lon="6.76132">
        <ele>1845</ele>
        <time>2014-07-31T08:19:31.200Z</time>
      </trkpt>
      <trkpt lat="44.93334" lon="6.76133">
        <ele>1845</ele>
        <time>2014-07-31T08:19:32.200Z</time>
      </trkpt>
      <trkpt lat="44.93333" lon="6.76135">
        <ele>1845</ele>
        <time>2014-07-31T08:19:33.200Z</time>
      </trkpt>
      <trkpt lat="44.93332" lon="6.76137">
        <ele>1845</ele>
        <time>2014-07-31T08:19:34.260Z</time>
      </trkpt>
      <trkpt lat="44.93332" lon="6.76138">
        <ele>1845</ele>
        <time>2014-07-31T08:19:35.300Z</time>
      </trkpt>
      <trkpt lat="44.93331" lon="6.76141">
        <ele>1845</ele>
        <time>2014-07-31T08:19:37.300Z</time>
      </trkpt>
      <trkpt lat="44.93329" lon="6.76146">
        <ele>1845</ele>
        <time>2014-07-31T08:19:39.200Z</time>
      </trkpt>
      <trkpt lat="44.93329" lon="6.76148">
        <ele>1846.3</ele>
        <time>2014-07-31T08:19:40.200Z</time>
      </trkpt>
      <trkpt lat="44.93328" lon="6.7615">
        <ele>1847</ele>
        <time>2014-07-31T08:19:41.200Z</time>
      </trkpt>
      <trkpt lat="44.93328" lon="6.76152">
        <ele>1847</ele>
        <time>2014-07-31T08:19:42.200Z</time>
      </trkpt>
      <trkpt lat="44.93328" lon="6.76154">
        <ele>1847</ele>
        <time>2014-07-31T08:19:43.200Z</time>
      </trkpt>
      <trkpt lat="44.93327" lon="6.76156">
        <ele>1847</ele>
        <time>2014-07-31T08:19:44.200Z</time>
      </trkpt>
      <trkpt lat="44.93327" lon="6.76157">
        <ele>1847</ele>
        <time>2014-07-31T08:19:45.200Z</time>
      </trkpt>
      <trkpt lat="44.93327" lon="6.76159">
        <ele>1847</ele>
        <time>2014-07-31T08:19:46.260Z</time>
      </trkpt>
      <trkpt lat="44.93326" lon="6.76161">
        <ele>1847</ele>
        <time>2014-07-31T08:19:47.300Z</time>
      </trkpt>
      <trkpt lat="44.93326" lon="6.76164">
        <ele>1847</ele>
        <time>2014-07-31T08:19:49.300Z</time>
      </trkpt>
      <trkpt lat="44.93325" lon="6.76166">
        <ele>1848.4</ele>
        <time>2014-07-31T08:19:50.280Z</time>
      </trkpt>
      <trkpt lat="44.93325" lon="6.7617">
        <ele>1849</ele>
        <time>2014-07-31T08:19:52.200Z</time>
      </trkpt>
      <trkpt lat="44.93325" lon="6.76173">
        <ele>1849</ele>
        <time>2014-07-31T08:19:53.300Z</time>
      </trkpt>
      <trkpt lat="44.93324" lon="6.76177">
        <ele>1849</ele>
        <time>2014-07-31T08:19:55.300Z</time>
      </trkpt>
      <trkpt lat="44.93324" lon="6.76178">
        <ele>1849</ele>
        <time>2014-07-31T08:19:56.300Z</time>
      </trkpt>
      <trkpt lat="44.93324" lon="6.7618">
        <ele>1849</ele>
        <time>2014-07-31T08:19:57.300Z</time>
      </trkpt>
      <trkpt lat="44.93323" lon="6.76182">
        <ele>1849</ele>
        <time>2014-07-31T08:19:58.300Z</time>
      </trkpt>
      <trkpt lat="44.93322" lon="6.76184">
        <ele>1849</ele>
        <time>2014-07-31T08:19:59.300Z</time>
      </trkpt>
      <trkpt lat="44.93322" lon="6.76186">
        <ele>1850.2</ele>
        <time>2014-07-31T08:20:00.190Z</time>
      </trkpt>
      <trkpt lat="44.93322" lon="6.76188">
        <ele>1851</ele>
        <time>2014-07-31T08:20:01.300Z</time>
      </trkpt>
      <trkpt lat="44.93321" lon="6.7619">
        <ele>1851</ele>
        <time>2014-07-31T08:20:02.300Z</time>
      </trkpt>
      <trkpt lat="44.93321" lon="6.76192">
        <ele>1851</ele>
        <time>2014-07-31T08:20:03.260Z</time>
      </trkpt>
      <trkpt lat="44.9332" lon="6.76193">
        <ele>1851</ele>
        <time>2014-07-31T08:20:04.300Z</time>
      </trkpt>
      <trkpt lat="44.9332" lon="6.76195">
        <ele>1851</ele>
        <time>2014-07-31T08:20:05.300Z</time>
      </trkpt>
      <trkpt lat="44.93319" lon="6.76197">
        <ele>1851</ele>
        <time>2014-07-31T08:20:06.300Z</time>
      </trkpt>
      <trkpt lat="44.93319" lon="6.76199">
        <ele>1851</ele>
        <time>2014-07-31T08:20:07.380Z</time>
      </trkpt>
      <trkpt lat="44.93319" lon="6.76201">
        <ele>1851</ele>
        <time>2014-07-31T08:20:08.300Z</time>
      </trkpt>
      <trkpt lat="44.93318" lon="6.76203">
        <ele>1851</ele>
        <time>2014-07-31T08:20:09.300Z</time>
      </trkpt>
      <trkpt lat="44.93317" lon="6.76205">
        <ele>1853.2</ele>
        <time>2014-07-31T08:20:10.300Z</time>
      </trkpt>
      <trkpt lat="44.93316" lon="6.76206">
        <ele>1854</ele>
        <time>2014-07-31T08:20:11.300Z</time>
      </trkpt>
      <trkpt lat="44.93315" lon="6.76207">
        <ele>1854</ele>
        <time>2014-07-31T08:20:13.300Z</time>
      </trkpt>
      <trkpt lat="44.93314" lon="6.76209">
        <ele>1854</ele>
        <time>2014-07-31T08:20:14.300Z</time>
      </trkpt>
      <trkpt lat="44.93313" lon="6.76211">
        <ele>1854.7</ele>
        <time>2014-07-31T08:20:15.300Z</time>
      </trkpt>
      <trkpt lat="44.93313" lon="6.76212">
        <ele>1855</ele>
        <time>2014-07-31T08:20:16.300Z</time>
      </trkpt>
      <trkpt lat="44.93311" lon="6.76217">
        <ele>1855</ele>
        <time>2014-07-31T08:20:18.200Z</time>
      </trkpt>
      <trkpt lat="44.93311" lon="6.76219">
        <ele>1855</ele>
        <time>2014-07-31T08:20:19.200Z</time>
      </trkpt>
      <trkpt lat="44.93311" lon="6.7622">
        <ele>1855.7</ele>
        <time>2014-07-31T08:20:20.260Z</time>
      </trkpt>
      <trkpt lat="44.9331" lon="6.76222">
        <ele>1856</ele>
        <time>2014-07-31T08:20:21.300Z</time>
      </trkpt>
      <trkpt lat="44.93309" lon="6.76224">
        <ele>1856</ele>
        <time>2014-07-31T08:20:22.280Z</time>
      </trkpt>
      <trkpt lat="44.93309" lon="6.76226">
        <ele>1856</ele>
        <time>2014-07-31T08:20:23.300Z</time>
      </trkpt>
      <trkpt lat="44.93308" lon="6.76229">
        <ele>1856</ele>
        <time>2014-07-31T08:20:24.300Z</time>
      </trkpt>
      <trkpt lat="44.93307" lon="6.76231">
        <ele>1856</ele>
        <time>2014-07-31T08:20:25.300Z</time>
      </trkpt>
      <trkpt lat="44.93307" lon="6.76232">
        <ele>1856</ele>
        <time>2014-07-31T08:20:26.300Z</time>
      </trkpt>
      <trkpt lat="44.93306" lon="6.76234">
        <ele>1856</ele>
        <time>2014-07-31T08:20:27.300Z</time>
      </trkpt>
      <trkpt lat="44.93306" lon="6.76236">
        <ele>1856</ele>
        <time>2014-07-31T08:20:28.300Z</time>
      </trkpt>
      <trkpt lat="44.93305" lon="6.76239">
        <ele>1856.8</ele>
        <time>2014-07-31T08:20:30.340Z</time>
      </trkpt>
      <trkpt lat="44.93305" lon="6.7624">
        <ele>1857</ele>
        <time>2014-07-31T08:20:31.300Z</time>
      </trkpt>
      <trkpt lat="44.93304" lon="6.76242">
        <ele>1857</ele>
        <time>2014-07-31T08:20:32.300Z</time>
      </trkpt>
      <trkpt lat="44.93304" lon="6.76244">
        <ele>1857</ele>
        <time>2014-07-31T08:20:33.280Z</time>
      </trkpt>
      <trkpt lat="44.93304" lon="6.76248">
        <ele>1857</ele>
        <time>2014-07-31T08:20:35.200Z</time>
      </trkpt>
      <trkpt lat="44.93304" lon="6.7625">
        <ele>1857</ele>
        <time>2014-07-31T08:20:36.200Z</time>
      </trkpt>
      <trkpt lat="44.93304" lon="6.76251">
        <ele>1857</ele>
        <time>2014-07-31T08:20:37.260Z</time>
      </trkpt>
      <trkpt lat="44.93304" lon="6.76253">
        <ele>1857</ele>
        <time>2014-07-31T08:20:38.300Z</time>
      </trkpt>
      <trkpt lat="44.93304" lon="6.76255">
        <ele>1857</ele>
        <time>2014-07-31T08:20:39.300Z</time>
      </trkpt>
      <trkpt lat="44.93304" lon="6.76257">
        <ele>1858.5</ele>
        <time>2014-07-31T08:20:40.300Z</time>
      </trkpt>
      <trkpt lat="44.93304" lon="6.76258">
        <ele>1859</ele>
        <time>2014-07-31T08:20:41.300Z</time>
      </trkpt>
      <trkpt lat="44.93304" lon="6.7626">
        <ele>1859</ele>
        <time>2014-07-31T08:20:42.300Z</time>
      </trkpt>
      <trkpt lat="44.93304" lon="6.76261">
        <ele>1859</ele>
        <time>2014-07-31T08:20:43.380Z</time>
      </trkpt>
      <trkpt lat="44.93304" lon="6.76263">
        <ele>1859</ele>
        <time>2014-07-31T08:20:44.300Z</time>
      </trkpt>
      <trkpt lat="44.93304" lon="6.76265">
        <ele>1859</ele>
        <time>2014-07-31T08:20:45.300Z</time>
      </trkpt>
      <trkpt lat="44.93304" lon="6.76266">
        <ele>1859</ele>
        <time>2014-07-31T08:20:46.300Z</time>
      </trkpt>
      <trkpt lat="44.93304" lon="6.76268">
        <ele>1859</ele>
        <time>2014-07-31T08:20:47.300Z</time>
      </trkpt>
      <trkpt lat="44.93304" lon="6.76271">
        <ele>1859</ele>
        <time>2014-07-31T08:20:48.300Z</time>
      </trkpt>
      <trkpt lat="44.93304" lon="6.76273">
        <ele>1859</ele>
        <time>2014-07-31T08:20:49.300Z</time>
      </trkpt>
      <trkpt lat="44.93305" lon="6.76274">
        <ele>1859.7</ele>
        <time>2014-07-31T08:20:50.300Z</time>
      </trkpt>
      <trkpt lat="44.93306" lon="6.76279">
        <ele>1860</ele>
        <time>2014-07-31T08:20:52.200Z</time>
      </trkpt>
      <trkpt lat="44.93307" lon="6.76281">
        <ele>1860</ele>
        <time>2014-07-31T08:20:53.200Z</time>
      </trkpt>
      <trkpt lat="44.93307" lon="6.76283">
        <ele>1860</ele>
        <time>2014-07-31T08:20:54.200Z</time>
      </trkpt>
      <trkpt lat="44.93307" lon="6.76285">
        <ele>1860</ele>
        <time>2014-07-31T08:20:55.300Z</time>
      </trkpt>
      <trkpt lat="44.93307" lon="6.76288">
        <ele>1860</ele>
        <time>2014-07-31T08:20:57.200Z</time>
      </trkpt>
      <trkpt lat="44.93308" lon="6.76291">
        <ele>1860</ele>
        <time>2014-07-31T08:20:59.200Z</time>
      </trkpt>
      <trkpt lat="44.93308" lon="6.76293">
        <ele>1861.2</ele>
        <time>2014-07-31T08:21:00.160Z</time>
      </trkpt>
      <trkpt lat="44.93309" lon="6.76294">
        <ele>1862</ele>
        <time>2014-07-31T08:21:01.200Z</time>
      </trkpt>
      <trkpt lat="44.9331" lon="6.76296">
        <ele>1862</ele>
        <time>2014-07-31T08:21:02.200Z</time>
      </trkpt>
      <trkpt lat="44.93311" lon="6.76298">
        <ele>1862</ele>
        <time>2014-07-31T08:21:03.200Z</time>
      </trkpt>
      <trkpt lat="44.93311" lon="6.763">
        <ele>1862</ele>
        <time>2014-07-31T08:21:04.200Z</time>
      </trkpt>
      <trkpt lat="44.93311" lon="6.76302">
        <ele>1862</ele>
        <time>2014-07-31T08:21:05.200Z</time>
      </trkpt>
      <trkpt lat="44.93312" lon="6.76304">
        <ele>1862</ele>
        <time>2014-07-31T08:21:06.200Z</time>
      </trkpt>
      <trkpt lat="44.93312" lon="6.76306">
        <ele>1862</ele>
        <time>2014-07-31T08:21:07.270Z</time>
      </trkpt>
      <trkpt lat="44.93312" lon="6.76308">
        <ele>1862</ele>
        <time>2014-07-31T08:21:08.300Z</time>
      </trkpt>
      <trkpt lat="44.93313" lon="6.76309">
        <ele>1862</ele>
        <time>2014-07-31T08:21:09.300Z</time>
      </trkpt>
      <trkpt lat="44.93313" lon="6.76311">
        <ele>1864.2</ele>
        <time>2014-07-31T08:21:10.300Z</time>
      </trkpt>
      <trkpt lat="44.93315" lon="6.76315">
        <ele>1865</ele>
        <time>2014-07-31T08:21:12.200Z</time>
      </trkpt>
      <trkpt lat="44.93316" lon="6.76316">
        <ele>1865</ele>
        <time>2014-07-31T08:21:13.200Z</time>
      </trkpt>
      <trkpt lat="44.93316" lon="6.76318">
        <ele>1865</ele>
        <time>2014-07-31T08:21:14.200Z</time>
      </trkpt>
      <trkpt lat="44.93317" lon="6.7632">
        <ele>1865.6</ele>
        <time>2014-07-31T08:21:15.200Z</time>
      </trkpt>
      <trkpt lat="44.93318" lon="6.76322">
        <ele>1866</ele>
        <time>2014-07-31T08:21:16.200Z</time>
      </trkpt>
      <trkpt lat="44.93318" lon="6.76324">
        <ele>1866</ele>
        <time>2014-07-31T08:21:17.260Z</time>
      </trkpt>
      <trkpt lat="44.93319" lon="6.76326">
        <ele>1866</ele>
        <time>2014-07-31T08:21:18.300Z</time>
      </trkpt>
      <trkpt lat="44.9332" lon="6.76328">
        <ele>1866</ele>
        <time>2014-07-31T08:21:19.300Z</time>
      </trkpt>
      <trkpt lat="44.93321" lon="6.76329">
        <ele>1867.5</ele>
        <time>2014-07-31T08:21:20.300Z</time>
      </trkpt>
      <trkpt lat="44.93322" lon="6.76331">
        <ele>1868</ele>
        <time>2014-07-31T08:21:21.300Z</time>
      </trkpt>
      <trkpt lat="44.93323" lon="6.76333">
        <ele>1868</ele>
        <time>2014-07-31T08:21:22.300Z</time>
      </trkpt>
      <trkpt lat="44.93324" lon="6.76334">
        <ele>1868</ele>
        <time>2014-07-31T08:21:23.300Z</time>
      </trkpt>
      <trkpt lat="44.93325" lon="6.76336">
        <ele>1868</ele>
        <time>2014-07-31T08:21:24.300Z</time>
      </trkpt>
      <trkpt lat="44.93326" lon="6.76338">
        <ele>1868</ele>
        <time>2014-07-31T08:21:25.300Z</time>
      </trkpt>
      <trkpt lat="44.93327" lon="6.76339">
        <ele>1868</ele>
        <time>2014-07-31T08:21:26.300Z</time>
      </trkpt>
      <trkpt lat="44.93328" lon="6.7634">
        <ele>1868</ele>
        <time>2014-07-31T08:21:27.300Z</time>
      </trkpt>
      <trkpt lat="44.9333" lon="6.76343">
        <ele>1868</ele>
        <time>2014-07-31T08:21:29.200Z</time>
      </trkpt>
      <trkpt lat="44.9333" lon="6.76345">
        <ele>1869.2</ele>
        <time>2014-07-31T08:21:30.180Z</time>
      </trkpt>
      <trkpt lat="44.93331" lon="6.76346">
        <ele>1870</ele>
        <time>2014-07-31T08:21:31.200Z</time>
      </trkpt>
      <trkpt lat="44.93331" lon="6.76347">
        <ele>1870</ele>
        <time>2014-07-31T08:21:32.200Z</time>
      </trkpt>
      <trkpt lat="44.93332" lon="6.76349">
        <ele>1870</ele>
        <time>2014-07-31T08:21:33.200Z</time>
      </trkpt>
      <trkpt lat="44.93334" lon="6.76351">
        <ele>1870</ele>
        <time>2014-07-31T08:21:34.260Z</time>
      </trkpt>
      <trkpt lat="44.93335" lon="6.76352">
        <ele>1870</ele>
        <time>2014-07-31T08:21:35.300Z</time>
      </trkpt>
      <trkpt lat="44.93336" lon="6.76352">
        <ele>1870</ele>
        <time>2014-07-31T08:21:36.300Z</time>
      </trkpt>
      <trkpt lat="44.93337" lon="6.76354">
        <ele>1870</ele>
        <time>2014-07-31T08:21:37.300Z</time>
      </trkpt>
      <trkpt lat="44.93338" lon="6.76357">
        <ele>1870</ele>
        <time>2014-07-31T08:21:39.200Z</time>
      </trkpt>
      <trkpt lat="44.93339" lon="6.76359">
        <ele>1870.6</ele>
        <time>2014-07-31T08:21:40.200Z</time>
      </trkpt>
      <trkpt lat="44.93339" lon="6.7636">
        <ele>1871</ele>
        <time>2014-07-31T08:21:41.180Z</time>
      </trkpt>
      <trkpt lat="44.9334" lon="6.76362">
        <ele>1871</ele>
        <time>2014-07-31T08:21:42.200Z</time>
      </trkpt>
      <trkpt lat="44.93341" lon="6.76363">
        <ele>1871</ele>
        <time>2014-07-31T08:21:43.200Z</time>
      </trkpt>
      <trkpt lat="44.93342" lon="6.76365">
        <ele>1871</ele>
        <time>2014-07-31T08:21:44.200Z</time>
      </trkpt>
      <trkpt lat="44.93342" lon="6.76366">
        <ele>1871</ele>
        <time>2014-07-31T08:21:45.100Z</time>
      </trkpt>
      <trkpt lat="44.93343" lon="6.76368">
        <ele>1871</ele>
        <time>2014-07-31T08:21:46.200Z</time>
      </trkpt>
      <trkpt lat="44.93344" lon="6.7637">
        <ele>1871</ele>
        <time>2014-07-31T08:21:47.200Z</time>
      </trkpt>
      <trkpt lat="44.93345" lon="6.76372">
        <ele>1871</ele>
        <time>2014-07-31T08:21:48.200Z</time>
      </trkpt>
      <trkpt lat="44.93346" lon="6.76373">
        <ele>1871</ele>
        <time>2014-07-31T08:21:49.200Z</time>
      </trkpt>
      <trkpt lat="44.93347" lon="6.76375">
        <ele>1872.3</ele>
        <time>2014-07-31T08:21:50.200Z</time>
      </trkpt>
      <trkpt lat="44.93348" lon="6.76376">
        <ele>1873</ele>
        <time>2014-07-31T08:21:51.260Z</time>
      </trkpt>
      <trkpt lat="44.93351" lon="6.76379">
        <ele>1873</ele>
        <time>2014-07-31T08:21:53.200Z</time>
      </trkpt>
      <trkpt lat="44.93352" lon="6.76381">
        <ele>1873</ele>
        <time>2014-07-31T08:21:54.200Z</time>
      </trkpt>
      <trkpt lat="44.93353" lon="6.76383">
        <ele>1873</ele>
        <time>2014-07-31T08:21:55.200Z</time>
      </trkpt>
      <trkpt lat="44.93354" lon="6.76384">
        <ele>1873</ele>
        <time>2014-07-31T08:21:56.200Z</time>
      </trkpt>
      <trkpt lat="44.93356" lon="6.76386">
        <ele>1873</ele>
        <time>2014-07-31T08:21:57.280Z</time>
      </trkpt>
      <trkpt lat="44.93357" lon="6.76387">
        <ele>1873</ele>
        <time>2014-07-31T08:21:58.200Z</time>
      </trkpt>
      <trkpt lat="44.93358" lon="6.76389">
        <ele>1873</ele>
        <time>2014-07-31T08:21:59.200Z</time>
      </trkpt>
      <trkpt lat="44.93359" lon="6.76391">
        <ele>1873.7</ele>
        <time>2014-07-31T08:22:00.260Z</time>
      </trkpt>
      <trkpt lat="44.9336" lon="6.76392">
        <ele>1874</ele>
        <time>2014-07-31T08:22:01.280Z</time>
      </trkpt>
      <trkpt lat="44.93362" lon="6.76395">
        <ele>1874</ele>
        <time>2014-07-31T08:22:03.200Z</time>
      </trkpt>
      <trkpt lat="44.93364" lon="6.76396">
        <ele>1874</ele>
        <time>2014-07-31T08:22:04.200Z</time>
      </trkpt>
      <trkpt lat="44.93365" lon="6.76397">
        <ele>1874</ele>
        <time>2014-07-31T08:22:05.200Z</time>
      </trkpt>
      <trkpt lat="44.93367" lon="6.76398">
        <ele>1874</ele>
        <time>2014-07-31T08:22:06.200Z</time>
      </trkpt>
      <trkpt lat="44.93368" lon="6.764">
        <ele>1874</ele>
        <time>2014-07-31T08:22:07.200Z</time>
      </trkpt>
      <trkpt lat="44.93369" lon="6.76402">
        <ele>1874</ele>
        <time>2014-07-31T08:22:08.200Z</time>
      </trkpt>
      <trkpt lat="44.9337" lon="6.76404">
        <ele>1874</ele>
        <time>2014-07-31T08:22:09.280Z</time>
      </trkpt>
      <trkpt lat="44.93372" lon="6.76406">
        <ele>1874.6</ele>
        <time>2014-07-31T08:22:10.200Z</time>
      </trkpt>
      <trkpt lat="44.93373" lon="6.76408">
        <ele>1875</ele>
        <time>2014-07-31T08:22:11.200Z</time>
      </trkpt>
      <trkpt lat="44.93374" lon="6.76409">
        <ele>1875</ele>
        <time>2014-07-31T08:22:12.200Z</time>
      </trkpt>
      <trkpt lat="44.93375" lon="6.76411">
        <ele>1875</ele>
        <time>2014-07-31T08:22:13.200Z</time>
      </trkpt>
      <trkpt lat="44.93376" lon="6.76413">
        <ele>1875</ele>
        <time>2014-07-31T08:22:14.200Z</time>
      </trkpt>
      <trkpt lat="44.93377" lon="6.76414">
        <ele>1875</ele>
        <time>2014-07-31T08:22:15.200Z</time>
      </trkpt>
      <trkpt lat="44.93379" lon="6.76415">
        <ele>1875</ele>
        <time>2014-07-31T08:22:16.200Z</time>
      </trkpt>
      <trkpt lat="44.9338" lon="6.76416">
        <ele>1875</ele>
        <time>2014-07-31T08:22:17.260Z</time>
      </trkpt>
      <trkpt lat="44.93382" lon="6.76417">
        <ele>1875</ele>
        <time>2014-07-31T08:22:18.300Z</time>
      </trkpt>
      <trkpt lat="44.93385" lon="6.76419">
        <ele>1875.6</ele>
        <time>2014-07-31T08:22:20.200Z</time>
      </trkpt>
      <trkpt lat="44.93386" lon="6.76421">
        <ele>1876</ele>
        <time>2014-07-31T08:22:21.200Z</time>
      </trkpt>
      <trkpt lat="44.93388" lon="6.76422">
        <ele>1876</ele>
        <time>2014-07-31T08:22:22.200Z</time>
      </trkpt>
      <trkpt lat="44.93389" lon="6.76423">
        <ele>1876</ele>
        <time>2014-07-31T08:22:23.200Z</time>
      </trkpt>
      <trkpt lat="44.93391" lon="6.76425">
        <ele>1876</ele>
        <time>2014-07-31T08:22:24.180Z</time>
      </trkpt>
      <trkpt lat="44.93392" lon="6.76427">
        <ele>1876</ele>
        <time>2014-07-31T08:22:25.200Z</time>
      </trkpt>
      <trkpt lat="44.93393" lon="6.76428">
        <ele>1876</ele>
        <time>2014-07-31T08:22:26.200Z</time>
      </trkpt>
      <trkpt lat="44.93395" lon="6.76429">
        <ele>1876</ele>
        <time>2014-07-31T08:22:27.200Z</time>
      </trkpt>
      <trkpt lat="44.93396" lon="6.76431">
        <ele>1876</ele>
        <time>2014-07-31T08:22:28.200Z</time>
      </trkpt>
      <trkpt lat="44.93397" lon="6.76433">
        <ele>1876</ele>
        <time>2014-07-31T08:22:29.200Z</time>
      </trkpt>
      <trkpt lat="44.93398" lon="6.76435">
        <ele>1877.3</ele>
        <time>2014-07-31T08:22:30.200Z</time>
      </trkpt>
      <trkpt lat="44.934" lon="6.76436">
        <ele>1878</ele>
        <time>2014-07-31T08:22:31.200Z</time>
      </trkpt>
      <trkpt lat="44.93401" lon="6.76438">
        <ele>1878</ele>
        <time>2014-07-31T08:22:32.200Z</time>
      </trkpt>
      <trkpt lat="44.93402" lon="6.7644">
        <ele>1878</ele>
        <time>2014-07-31T08:22:33.200Z</time>
      </trkpt>
      <trkpt lat="44.93403" lon="6.76442">
        <ele>1878</ele>
        <time>2014-07-31T08:22:34.260Z</time>
      </trkpt>
      <trkpt lat="44.93404" lon="6.76443">
        <ele>1878</ele>
        <time>2014-07-31T08:22:35.280Z</time>
      </trkpt>
      <trkpt lat="44.93406" lon="6.76445">
        <ele>1878</ele>
        <time>2014-07-31T08:22:37.200Z</time>
      </trkpt>
      <trkpt lat="44.93408" lon="6.76446">
        <ele>1878</ele>
        <time>2014-07-31T08:22:38.200Z</time>
      </trkpt>
      <trkpt lat="44.93409" lon="6.76448">
        <ele>1878</ele>
        <time>2014-07-31T08:22:39.200Z</time>
      </trkpt>
      <trkpt lat="44.9341" lon="6.76449">
        <ele>1879.3</ele>
        <time>2014-07-31T08:22:40.200Z</time>
      </trkpt>
      <trkpt lat="44.93411" lon="6.76451">
        <ele>1880</ele>
        <time>2014-07-31T08:22:41.200Z</time>
      </trkpt>
      <trkpt lat="44.93412" lon="6.76452">
        <ele>1880</ele>
        <time>2014-07-31T08:22:42.200Z</time>
      </trkpt>
      <trkpt lat="44.93414" lon="6.76454">
        <ele>1880</ele>
        <time>2014-07-31T08:22:43.200Z</time>
      </trkpt>
      <trkpt lat="44.93415" lon="6.76455">
        <ele>1880</ele>
        <time>2014-07-31T08:22:44.200Z</time>
      </trkpt>
      <trkpt lat="44.93416" lon="6.76457">
        <ele>1880</ele>
        <time>2014-07-31T08:22:45.200Z</time>
      </trkpt>
      <trkpt lat="44.93417" lon="6.76458">
        <ele>1880</ele>
        <time>2014-07-31T08:22:46.200Z</time>
      </trkpt>
      <trkpt lat="44.93419" lon="6.7646">
        <ele>1880</ele>
        <time>2014-07-31T08:22:47.300Z</time>
      </trkpt>
      <trkpt lat="44.9342" lon="6.76461">
        <ele>1880</ele>
        <time>2014-07-31T08:22:48.300Z</time>
      </trkpt>
      <trkpt lat="44.93421" lon="6.76463">
        <ele>1880</ele>
        <time>2014-07-31T08:22:49.300Z</time>
      </trkpt>
      <trkpt lat="44.93423" lon="6.76464">
        <ele>1881.5</ele>
        <time>2014-07-31T08:22:50.300Z</time>
      </trkpt>
      <trkpt lat="44.93426" lon="6.76467">
        <ele>1882</ele>
        <time>2014-07-31T08:22:52.200Z</time>
      </trkpt>
      <trkpt lat="44.93427" lon="6.76468">
        <ele>1882</ele>
        <time>2014-07-31T08:22:53.260Z</time>
      </trkpt>
      <trkpt lat="44.93429" lon="6.7647">
        <ele>1882</ele>
        <time>2014-07-31T08:22:54.300Z</time>
      </trkpt>
      <trkpt lat="44.9343" lon="6.76471">
        <ele>1882</ele>
        <time>2014-07-31T08:22:55.300Z</time>
      </trkpt>
      <trkpt lat="44.93432" lon="6.76472">
        <ele>1882</ele>
        <time>2014-07-31T08:22:56.300Z</time>
      </trkpt>
      <trkpt lat="44.93433" lon="6.76473">
        <ele>1882</ele>
        <time>2014-07-31T08:22:57.300Z</time>
      </trkpt>
      <trkpt lat="44.93436" lon="6.76474">
        <ele>1882</ele>
        <time>2014-07-31T08:22:59.200Z</time>
      </trkpt>
      <trkpt lat="44.93438" lon="6.76474">
        <ele>1882.7</ele>
        <time>2014-07-31T08:23:00.260Z</time>
      </trkpt>
      <trkpt lat="44.93439" lon="6.76475">
        <ele>1883</ele>
        <time>2014-07-31T08:23:01.300Z</time>
      </trkpt>
      <trkpt lat="44.93441" lon="6.76476">
        <ele>1883</ele>
        <time>2014-07-31T08:23:02.300Z</time>
      </trkpt>
      <trkpt lat="44.93443" lon="6.76477">
        <ele>1883</ele>
        <time>2014-07-31T08:23:03.300Z</time>
      </trkpt>
      <trkpt lat="44.93445" lon="6.76479">
        <ele>1883</ele>
        <time>2014-07-31T08:23:04.300Z</time>
      </trkpt>
      <trkpt lat="44.93446" lon="6.7648">
        <ele>1883</ele>
        <time>2014-07-31T08:23:05.300Z</time>
      </trkpt>
      <trkpt lat="44.93448" lon="6.7648">
        <ele>1883</ele>
        <time>2014-07-31T08:23:06.300Z</time>
      </trkpt>
      <trkpt lat="44.9345" lon="6.76481">
        <ele>1883</ele>
        <time>2014-07-31T08:23:07.300Z</time>
      </trkpt>
      <trkpt lat="44.93452" lon="6.76482">
        <ele>1883</ele>
        <time>2014-07-31T08:23:08.300Z</time>
      </trkpt>
      <trkpt lat="44.93456" lon="6.76484">
        <ele>1884.4</ele>
        <time>2014-07-31T08:23:10.260Z</time>
      </trkpt>
      <trkpt lat="44.93458" lon="6.76485">
        <ele>1885</ele>
        <time>2014-07-31T08:23:11.300Z</time>
      </trkpt>
      <trkpt lat="44.9346" lon="6.76487">
        <ele>1885</ele>
        <time>2014-07-31T08:23:12.380Z</time>
      </trkpt>
      <trkpt lat="44.93462" lon="6.76488">
        <ele>1885</ele>
        <time>2014-07-31T08:23:13.300Z</time>
      </trkpt>
      <trkpt lat="44.93463" lon="6.76489">
        <ele>1885</ele>
        <time>2014-07-31T08:23:14.300Z</time>
      </trkpt>
      <trkpt lat="44.93465" lon="6.7649">
        <ele>1885</ele>
        <time>2014-07-31T08:23:15.300Z</time>
      </trkpt>
      <trkpt lat="44.93467" lon="6.76491">
        <ele>1885</ele>
        <time>2014-07-31T08:23:16.300Z</time>
      </trkpt>
      <trkpt lat="44.9347" lon="6.76493">
        <ele>1885</ele>
        <time>2014-07-31T08:23:18.200Z</time>
      </trkpt>
      <trkpt lat="44.93472" lon="6.76494">
        <ele>1885</ele>
        <time>2014-07-31T08:23:19.200Z</time>
      </trkpt>
      <trkpt lat="44.93473" lon="6.76495">
        <ele>1885.6</ele>
        <time>2014-07-31T08:23:20.180Z</time>
      </trkpt>
      <trkpt lat="44.93475" lon="6.76496">
        <ele>1886</ele>
        <time>2014-07-31T08:23:21.200Z</time>
      </trkpt>
      <trkpt lat="44.93477" lon="6.76498">
        <ele>1886</ele>
        <time>2014-07-31T08:23:22.200Z</time>
      </trkpt>
      <trkpt lat="44.93478" lon="6.76499">
        <ele>1886</ele>
        <time>2014-07-31T08:23:23.200Z</time>
      </trkpt>
      <trkpt lat="44.93479" lon="6.765">
        <ele>1886</ele>
        <time>2014-07-31T08:23:24.200Z</time>
      </trkpt>
      <trkpt lat="44.93481" lon="6.76502">
        <ele>1886</ele>
        <time>2014-07-31T08:23:25.280Z</time>
      </trkpt>
      <trkpt lat="44.93482" lon="6.76503">
        <ele>1886</ele>
        <time>2014-07-31T08:23:26.200Z</time>
      </trkpt>
      <trkpt lat="44.93483" lon="6.76504">
        <ele>1886</ele>
        <time>2014-07-31T08:23:27.260Z</time>
      </trkpt>
      <trkpt lat="44.93485" lon="6.76505">
        <ele>1886</ele>
        <time>2014-07-31T08:23:28.300Z</time>
      </trkpt>
      <trkpt lat="44.93486" lon="6.76506">
        <ele>1886</ele>
        <time>2014-07-31T08:23:29.300Z</time>
      </trkpt>
      <trkpt lat="44.93487" lon="6.76508">
        <ele>1886.7</ele>
        <time>2014-07-31T08:23:30.300Z</time>
      </trkpt>
      <trkpt lat="44.93488" lon="6.76509">
        <ele>1887</ele>
        <time>2014-07-31T08:23:31.280Z</time>
      </trkpt>
      <trkpt lat="44.93489" lon="6.76509">
        <ele>1887</ele>
        <time>2014-07-31T08:23:38.300Z</time>
      </trkpt>
      <trkpt lat="44.93489" lon="6.76507">
        <ele>1887</ele>
        <time>2014-07-31T08:23:43.300Z</time>
      </trkpt>
      <trkpt lat="44.93489" lon="6.76508">
        <ele>1887</ele>
        <time>2014-07-31T08:24:01.260Z</time>
      </trkpt>
      <trkpt lat="44.93489" lon="6.76507">
        <ele>1887</ele>
        <time>2014-07-31T08:24:10.300Z</time>
      </trkpt>
      <trkpt lat="44.93489" lon="6.76508">
        <ele>1886</ele>
        <time>2014-07-31T08:24:21.200Z</time>
      </trkpt>
      <trkpt lat="44.9349" lon="6.76509">
        <ele>1886</ele>
        <time>2014-07-31T08:24:28.200Z</time>
      </trkpt>
      <trkpt lat="44.9349" lon="6.7651">
        <ele>1886</ele>
        <time>2014-07-31T08:24:29.200Z</time>
      </trkpt>
      <trkpt lat="44.9349" lon="6.76511">
        <ele>1886.6</ele>
        <time>2014-07-31T08:24:30.200Z</time>
      </trkpt>
      <trkpt lat="44.9349" lon="6.76513">
        <ele>1887</ele>
        <time>2014-07-31T08:24:31.200Z</time>
      </trkpt>
      <trkpt lat="44.9349" lon="6.76514">
        <ele>1887</ele>
        <time>2014-07-31T08:24:32.200Z</time>
      </trkpt>
      <trkpt lat="44.93491" lon="6.76516">
        <ele>1887</ele>
        <time>2014-07-31T08:24:33.200Z</time>
      </trkpt>
      <trkpt lat="44.93492" lon="6.76518">
        <ele>1887</ele>
        <time>2014-07-31T08:24:34.200Z</time>
      </trkpt>
      <trkpt lat="44.93494" lon="6.76525">
        <ele>1887</ele>
        <time>2014-07-31T08:24:36.200Z</time>
      </trkpt>
      <trkpt lat="44.93495" lon="6.7653">
        <ele>1887</ele>
        <time>2014-07-31T08:24:37.200Z</time>
      </trkpt>
      <trkpt lat="44.93494" lon="6.76536">
        <ele>1887</ele>
        <time>2014-07-31T08:24:38.180Z</time>
      </trkpt>
      <trkpt lat="44.93493" lon="6.76542">
        <ele>1887</ele>
        <time>2014-07-31T08:24:39.200Z</time>
      </trkpt>
      <trkpt lat="44.93492" lon="6.76548">
        <ele>1886.4</ele>
        <time>2014-07-31T08:24:40.200Z</time>
      </trkpt>
      <trkpt lat="44.9349" lon="6.76554">
        <ele>1886</ele>
        <time>2014-07-31T08:24:41.200Z</time>
      </trkpt>
      <trkpt lat="44.93489" lon="6.7656">
        <ele>1886</ele>
        <time>2014-07-31T08:24:42.200Z</time>
      </trkpt>
      <trkpt lat="44.93488" lon="6.76565">
        <ele>1886</ele>
        <time>2014-07-31T08:24:43.300Z</time>
      </trkpt>
      <trkpt lat="44.93488" lon="6.76568">
        <ele>1886</ele>
        <time>2014-07-31T08:24:44.300Z</time>
      </trkpt>
      <trkpt lat="44.93487" lon="6.76571">
        <ele>1886</ele>
        <time>2014-07-31T08:24:45.300Z</time>
      </trkpt>
      <trkpt lat="44.93487" lon="6.76574">
        <ele>1886</ele>
        <time>2014-07-31T08:24:46.300Z</time>
      </trkpt>
      <trkpt lat="44.93487" lon="6.76577">
        <ele>1886</ele>
        <time>2014-07-31T08:24:47.360Z</time>
      </trkpt>
      <trkpt lat="44.93488" lon="6.76579">
        <ele>1886</ele>
        <time>2014-07-31T08:24:48.300Z</time>
      </trkpt>
      <trkpt lat="44.93488" lon="6.76582">
        <ele>1886</ele>
        <time>2014-07-31T08:24:49.280Z</time>
      </trkpt>
      <trkpt lat="44.93489" lon="6.76588">
        <ele>1887</ele>
        <time>2014-07-31T08:24:51.260Z</time>
      </trkpt>
      <trkpt lat="44.9349" lon="6.76594">
        <ele>1887</ele>
        <time>2014-07-31T08:24:53.200Z</time>
      </trkpt>
      <trkpt lat="44.93491" lon="6.76597">
        <ele>1887</ele>
        <time>2014-07-31T08:24:54.200Z</time>
      </trkpt>
      <trkpt lat="44.93491" lon="6.766">
        <ele>1887</ele>
        <time>2014-07-31T08:24:55.200Z</time>
      </trkpt>
      <trkpt lat="44.93492" lon="6.76602">
        <ele>1887</ele>
        <time>2014-07-31T08:24:56.200Z</time>
      </trkpt>
      <trkpt lat="44.93492" lon="6.76605">
        <ele>1887</ele>
        <time>2014-07-31T08:24:57.200Z</time>
      </trkpt>
      <trkpt lat="44.93493" lon="6.76609">
        <ele>1887</ele>
        <time>2014-07-31T08:24:58.200Z</time>
      </trkpt>
      <trkpt lat="44.93493" lon="6.76612">
        <ele>1887</ele>
        <time>2014-07-31T08:24:59.200Z</time>
      </trkpt>
      <trkpt lat="44.93494" lon="6.76615">
        <ele>1888.4</ele>
        <time>2014-07-31T08:25:00.260Z</time>
      </trkpt>
      <trkpt lat="44.93496" lon="6.7662">
        <ele>1889</ele>
        <time>2014-07-31T08:25:02.200Z</time>
      </trkpt>
      <trkpt lat="44.93497" lon="6.76623">
        <ele>1889</ele>
        <time>2014-07-31T08:25:03.200Z</time>
      </trkpt>
      <trkpt lat="44.93498" lon="6.76627">
        <ele>1889</ele>
        <time>2014-07-31T08:25:04.200Z</time>
      </trkpt>
      <trkpt lat="44.93499" lon="6.7663">
        <ele>1889</ele>
        <time>2014-07-31T08:25:05.200Z</time>
      </trkpt>
      <trkpt lat="44.935" lon="6.76634">
        <ele>1889</ele>
        <time>2014-07-31T08:25:06.200Z</time>
      </trkpt>
      <trkpt lat="44.93501" lon="6.76637">
        <ele>1889</ele>
        <time>2014-07-31T08:25:07.200Z</time>
      </trkpt>
      <trkpt lat="44.93502" lon="6.76641">
        <ele>1889</ele>
        <time>2014-07-31T08:25:08.300Z</time>
      </trkpt>
      <trkpt lat="44.93504" lon="6.76648">
        <ele>1889.6</ele>
        <time>2014-07-31T08:25:10.200Z</time>
      </trkpt>
      <trkpt lat="44.93505" lon="6.76651">
        <ele>1890</ele>
        <time>2014-07-31T08:25:11.200Z</time>
      </trkpt>
      <trkpt lat="44.93506" lon="6.76655">
        <ele>1890</ele>
        <time>2014-07-31T08:25:12.220Z</time>
      </trkpt>
      <trkpt lat="44.93507" lon="6.76658">
        <ele>1890</ele>
        <time>2014-07-31T08:25:13.300Z</time>
      </trkpt>
      <trkpt lat="44.93508" lon="6.76662">
        <ele>1890</ele>
        <time>2014-07-31T08:25:14.300Z</time>
      </trkpt>
      <trkpt lat="44.93509" lon="6.76665">
        <ele>1890</ele>
        <time>2014-07-31T08:25:15.300Z</time>
      </trkpt>
      <trkpt lat="44.9351" lon="6.76669">
        <ele>1890</ele>
        <time>2014-07-31T08:25:16.300Z</time>
      </trkpt>
      <trkpt lat="44.93512" lon="6.76672">
        <ele>1890</ele>
        <time>2014-07-31T08:25:17.260Z</time>
      </trkpt>
      <trkpt lat="44.93514" lon="6.76679">
        <ele>1890</ele>
        <time>2014-07-31T08:25:19.200Z</time>
      </trkpt>
      <trkpt lat="44.93515" lon="6.76682">
        <ele>1890</ele>
        <time>2014-07-31T08:25:20.200Z</time>
      </trkpt>
      <trkpt lat="44.93516" lon="6.76685">
        <ele>1890</ele>
        <time>2014-07-31T08:25:21.200Z</time>
      </trkpt>
      <trkpt lat="44.93517" lon="6.76688">
        <ele>1890</ele>
        <time>2014-07-31T08:25:22.200Z</time>
      </trkpt>
      <trkpt lat="44.93518" lon="6.76691">
        <ele>1890</ele>
        <time>2014-07-31T08:25:23.200Z</time>
      </trkpt>
      <trkpt lat="44.93519" lon="6.76694">
        <ele>1890</ele>
        <time>2014-07-31T08:25:24.200Z</time>
      </trkpt>
      <trkpt lat="44.9352" lon="6.76698">
        <ele>1890</ele>
        <time>2014-07-31T08:25:25.200Z</time>
      </trkpt>
      <trkpt lat="44.9352" lon="6.76701">
        <ele>1890</ele>
        <time>2014-07-31T08:25:26.200Z</time>
      </trkpt>
      <trkpt lat="44.93521" lon="6.76703">
        <ele>1890</ele>
        <time>2014-07-31T08:25:27.300Z</time>
      </trkpt>
      <trkpt lat="44.93521" lon="6.76705">
        <ele>1890</ele>
        <time>2014-07-31T08:25:28.300Z</time>
      </trkpt>
      <trkpt lat="44.93522" lon="6.76708">
        <ele>1890</ele>
        <time>2014-07-31T08:25:29.300Z</time>
      </trkpt>
      <trkpt lat="44.93523" lon="6.7671">
        <ele>1891.5</ele>
        <time>2014-07-31T08:25:30.300Z</time>
      </trkpt>
      <trkpt lat="44.93524" lon="6.76712">
        <ele>1892</ele>
        <time>2014-07-31T08:25:31.300Z</time>
      </trkpt>
      <trkpt lat="44.93526" lon="6.76713">
        <ele>1892</ele>
        <time>2014-07-31T08:25:32.380Z</time>
      </trkpt>
      <trkpt lat="44.93527" lon="6.76715">
        <ele>1892</ele>
        <time>2014-07-31T08:25:33.300Z</time>
      </trkpt>
      <trkpt lat="44.93532" lon="6.76716">
        <ele>1892</ele>
        <time>2014-07-31T08:25:35.180Z</time>
      </trkpt>
      <trkpt lat="44.93535" lon="6.76716">
        <ele>1892</ele>
        <time>2014-07-31T08:25:36.200Z</time>
      </trkpt>
      <trkpt lat="44.93537" lon="6.76716">
        <ele>1892</ele>
        <time>2014-07-31T08:25:37.200Z</time>
      </trkpt>
      <trkpt lat="44.93539" lon="6.76715">
        <ele>1892</ele>
        <time>2014-07-31T08:25:38.200Z</time>
      </trkpt>
      <trkpt lat="44.93541" lon="6.76714">
        <ele>1892</ele>
        <time>2014-07-31T08:25:39.200Z</time>
      </trkpt>
      <trkpt lat="44.93544" lon="6.76714">
        <ele>1892</ele>
        <time>2014-07-31T08:25:40.200Z</time>
      </trkpt>
      <trkpt lat="44.93547" lon="6.76714">
        <ele>1892</ele>
        <time>2014-07-31T08:25:41.200Z</time>
      </trkpt>
      <trkpt lat="44.9355" lon="6.76715">
        <ele>1892</ele>
        <time>2014-07-31T08:25:42.200Z</time>
      </trkpt>
      <trkpt lat="44.93553" lon="6.76716">
        <ele>1892</ele>
        <time>2014-07-31T08:25:43.260Z</time>
      </trkpt>
      <trkpt lat="44.93555" lon="6.76717">
        <ele>1892</ele>
        <time>2014-07-31T08:25:44.300Z</time>
      </trkpt>
      <trkpt lat="44.93558" lon="6.76718">
        <ele>1892</ele>
        <time>2014-07-31T08:25:45.300Z</time>
      </trkpt>
      <trkpt lat="44.93562" lon="6.76723">
        <ele>1892</ele>
        <time>2014-07-31T08:25:47.200Z</time>
      </trkpt>
      <trkpt lat="44.93564" lon="6.76726">
        <ele>1892</ele>
        <time>2014-07-31T08:25:48.200Z</time>
      </trkpt>
      <trkpt lat="44.93566" lon="6.76728">
        <ele>1892</ele>
        <time>2014-07-31T08:25:49.200Z</time>
      </trkpt>
      <trkpt lat="44.93568" lon="6.76731">
        <ele>1892.6</ele>
        <time>2014-07-31T08:25:50.200Z</time>
      </trkpt>
      <trkpt lat="44.9357" lon="6.76733">
        <ele>1893</ele>
        <time>2014-07-31T08:25:51.260Z</time>
      </trkpt>
      <trkpt lat="44.93572" lon="6.76736">
        <ele>1893</ele>
        <time>2014-07-31T08:25:52.300Z</time>
      </trkpt>
      <trkpt lat="44.93575" lon="6.76742">
        <ele>1893</ele>
        <time>2014-07-31T08:25:54.200Z</time>
      </trkpt>
      <trkpt lat="44.93577" lon="6.76744">
        <ele>1893</ele>
        <time>2014-07-31T08:25:55.200Z</time>
      </trkpt>
      <trkpt lat="44.93578" lon="6.76747">
        <ele>1893</ele>
        <time>2014-07-31T08:25:56.200Z</time>
      </trkpt>
      <trkpt lat="44.9358" lon="6.76749">
        <ele>1893</ele>
        <time>2014-07-31T08:25:57.200Z</time>
      </trkpt>
      <trkpt lat="44.93582" lon="6.76752">
        <ele>1893</ele>
        <time>2014-07-31T08:25:58.200Z</time>
      </trkpt>
      <trkpt lat="44.93583" lon="6.76754">
        <ele>1893</ele>
        <time>2014-07-31T08:25:59.180Z</time>
      </trkpt>
      <trkpt lat="44.93587" lon="6.76757">
        <ele>1894</ele>
        <time>2014-07-31T08:26:01.300Z</time>
      </trkpt>
      <trkpt lat="44.9359" lon="6.76759">
        <ele>1894</ele>
        <time>2014-07-31T08:26:02.300Z</time>
      </trkpt>
      <trkpt lat="44.93592" lon="6.76761">
        <ele>1894</ele>
        <time>2014-07-31T08:26:03.300Z</time>
      </trkpt>
      <trkpt lat="44.93594" lon="6.76763">
        <ele>1894</ele>
        <time>2014-07-31T08:26:04.300Z</time>
      </trkpt>
      <trkpt lat="44.93596" lon="6.76765">
        <ele>1894</ele>
        <time>2014-07-31T08:26:05.300Z</time>
      </trkpt>
      <trkpt lat="44.93599" lon="6.76766">
        <ele>1894</ele>
        <time>2014-07-31T08:26:06.300Z</time>
      </trkpt>
      <trkpt lat="44.93601" lon="6.76768">
        <ele>1894</ele>
        <time>2014-07-31T08:26:07.300Z</time>
      </trkpt>
      <trkpt lat="44.93603" lon="6.76769">
        <ele>1894</ele>
        <time>2014-07-31T08:26:08.300Z</time>
      </trkpt>
      <trkpt lat="44.93605" lon="6.76771">
        <ele>1894</ele>
        <time>2014-07-31T08:26:09.300Z</time>
      </trkpt>
      <trkpt lat="44.93607" lon="6.76773">
        <ele>1895.5</ele>
        <time>2014-07-31T08:26:10.300Z</time>
      </trkpt>
      <trkpt lat="44.93609" lon="6.76774">
        <ele>1896</ele>
        <time>2014-07-31T08:26:11.300Z</time>
      </trkpt>
      <trkpt lat="44.93611" lon="6.76775">
        <ele>1896</ele>
        <time>2014-07-31T08:26:12.300Z</time>
      </trkpt>
      <trkpt lat="44.93613" lon="6.76776">
        <ele>1896</ele>
        <time>2014-07-31T08:26:13.300Z</time>
      </trkpt>
      <trkpt lat="44.93614" lon="6.76778">
        <ele>1896</ele>
        <time>2014-07-31T08:26:14.300Z</time>
      </trkpt>
      <trkpt lat="44.93615" lon="6.7678">
        <ele>1896</ele>
        <time>2014-07-31T08:26:15.300Z</time>
      </trkpt>
      <trkpt lat="44.93617" lon="6.76782">
        <ele>1896</ele>
        <time>2014-07-31T08:26:16.300Z</time>
      </trkpt>
      <trkpt lat="44.93618" lon="6.76784">
        <ele>1896</ele>
        <time>2014-07-31T08:26:17.220Z</time>
      </trkpt>
      <trkpt lat="44.93621" lon="6.76787">
        <ele>1896</ele>
        <time>2014-07-31T08:26:18.300Z</time>
      </trkpt>
      <trkpt lat="44.93623" lon="6.7679">
        <ele>1896</ele>
        <time>2014-07-31T08:26:19.300Z</time>
      </trkpt>
      <trkpt lat="44.93626" lon="6.76792">
        <ele>1896.7</ele>
        <time>2014-07-31T08:26:20.300Z</time>
      </trkpt>
      <trkpt lat="44.93629" lon="6.76795">
        <ele>1897</ele>
        <time>2014-07-31T08:26:21.300Z</time>
      </trkpt>
      <trkpt lat="44.93632" lon="6.76797">
        <ele>1897</ele>
        <time>2014-07-31T08:26:22.300Z</time>
      </trkpt>
      <trkpt lat="44.93635" lon="6.768">
        <ele>1897</ele>
        <time>2014-07-31T08:26:23.300Z</time>
      </trkpt>
      <trkpt lat="44.93638" lon="6.76803">
        <ele>1897</ele>
        <time>2014-07-31T08:26:24.300Z</time>
      </trkpt>
      <trkpt lat="44.9364" lon="6.76806">
        <ele>1897</ele>
        <time>2014-07-31T08:26:25.300Z</time>
      </trkpt>
      <trkpt lat="44.93642" lon="6.76808">
        <ele>1897</ele>
        <time>2014-07-31T08:26:26.300Z</time>
      </trkpt>
      <trkpt lat="44.93645" lon="6.76811">
        <ele>1897</ele>
        <time>2014-07-31T08:26:27.300Z</time>
      </trkpt>
      <trkpt lat="44.93647" lon="6.76813">
        <ele>1897</ele>
        <time>2014-07-31T08:26:28.300Z</time>
      </trkpt>
      <trkpt lat="44.9365" lon="6.76815">
        <ele>1897</ele>
        <time>2014-07-31T08:26:29.370Z</time>
      </trkpt>
      <trkpt lat="44.93652" lon="6.76817">
        <ele>1897</ele>
        <time>2014-07-31T08:26:30.300Z</time>
      </trkpt>
      <trkpt lat="44.93657" lon="6.76822">
        <ele>1897</ele>
        <time>2014-07-31T08:26:32.200Z</time>
      </trkpt>
      <trkpt lat="44.93659" lon="6.76825">
        <ele>1897</ele>
        <time>2014-07-31T08:26:33.200Z</time>
      </trkpt>
      <trkpt lat="44.93662" lon="6.76828">
        <ele>1897</ele>
        <time>2014-07-31T08:26:34.280Z</time>
      </trkpt>
      <trkpt lat="44.93664" lon="6.76831">
        <ele>1897</ele>
        <time>2014-07-31T08:26:35.300Z</time>
      </trkpt>
      <trkpt lat="44.93666" lon="6.76833">
        <ele>1897</ele>
        <time>2014-07-31T08:26:36.300Z</time>
      </trkpt>
      <trkpt lat="44.93668" lon="6.76836">
        <ele>1897</ele>
        <time>2014-07-31T08:26:37.300Z</time>
      </trkpt>
      <trkpt lat="44.9367" lon="6.76839">
        <ele>1897</ele>
        <time>2014-07-31T08:26:38.300Z</time>
      </trkpt>
      <trkpt lat="44.93672" lon="6.76842">
        <ele>1897</ele>
        <time>2014-07-31T08:26:39.300Z</time>
      </trkpt>
      <trkpt lat="44.93674" lon="6.76845">
        <ele>1898.5</ele>
        <time>2014-07-31T08:26:40.300Z</time>
      </trkpt>
      <trkpt lat="44.93675" lon="6.76847">
        <ele>1899</ele>
        <time>2014-07-31T08:26:41.300Z</time>
      </trkpt>
      <trkpt lat="44.93677" lon="6.76849">
        <ele>1899</ele>
        <time>2014-07-31T08:26:42.300Z</time>
      </trkpt>
      <trkpt lat="44.9368" lon="6.76852">
        <ele>1899</ele>
        <time>2014-07-31T08:26:43.300Z</time>
      </trkpt>
      <trkpt lat="44.93682" lon="6.76854">
        <ele>1899</ele>
        <time>2014-07-31T08:26:44.300Z</time>
      </trkpt>
      <trkpt lat="44.93684" lon="6.76856">
        <ele>1899</ele>
        <time>2014-07-31T08:26:45.300Z</time>
      </trkpt>
      <trkpt lat="44.93685" lon="6.76859">
        <ele>1899</ele>
        <time>2014-07-31T08:26:46.300Z</time>
      </trkpt>
      <trkpt lat="44.93687" lon="6.7686">
        <ele>1899</ele>
        <time>2014-07-31T08:26:47.300Z</time>
      </trkpt>
      <trkpt lat="44.9369" lon="6.76862">
        <ele>1899</ele>
        <time>2014-07-31T08:26:48.300Z</time>
      </trkpt>
      <trkpt lat="44.93692" lon="6.76864">
        <ele>1899</ele>
        <time>2014-07-31T08:26:49.300Z</time>
      </trkpt>
      <trkpt lat="44.93694" lon="6.76866">
        <ele>1899.7</ele>
        <time>2014-07-31T08:26:50.300Z</time>
      </trkpt>
      <trkpt lat="44.937" lon="6.76869">
        <ele>1900</ele>
        <time>2014-07-31T08:26:52.200Z</time>
      </trkpt>
      <trkpt lat="44.93703" lon="6.76871">
        <ele>1900</ele>
        <time>2014-07-31T08:26:53.200Z</time>
      </trkpt>
      <trkpt lat="44.93705" lon="6.76874">
        <ele>1900</ele>
        <time>2014-07-31T08:26:54.200Z</time>
      </trkpt>
      <trkpt lat="44.93708" lon="6.76876">
        <ele>1900</ele>
        <time>2014-07-31T08:26:55.260Z</time>
      </trkpt>
      <trkpt lat="44.93712" lon="6.76878">
        <ele>1900</ele>
        <time>2014-07-31T08:26:56.300Z</time>
      </trkpt>
      <trkpt lat="44.93715" lon="6.7688">
        <ele>1900</ele>
        <time>2014-07-31T08:26:57.300Z</time>
      </trkpt>
      <trkpt lat="44.93718" lon="6.76881">
        <ele>1900</ele>
        <time>2014-07-31T08:26:58.300Z</time>
      </trkpt>
      <trkpt lat="44.9372" lon="6.76883">
        <ele>1900</ele>
        <time>2014-07-31T08:26:59.300Z</time>
      </trkpt>
      <trkpt lat="44.93725" lon="6.76885">
        <ele>1900</ele>
        <time>2014-07-31T08:27:01.200Z</time>
      </trkpt>
      <trkpt lat="44.93727" lon="6.76887">
        <ele>1900</ele>
        <time>2014-07-31T08:27:02.200Z</time>
      </trkpt>
      <trkpt lat="44.93729" lon="6.76888">
        <ele>1900</ele>
        <time>2014-07-31T08:27:03.200Z</time>
      </trkpt>
      <trkpt lat="44.93731" lon="6.76889">
        <ele>1900</ele>
        <time>2014-07-31T08:27:04.180Z</time>
      </trkpt>
      <trkpt lat="44.93734" lon="6.7689">
        <ele>1900</ele>
        <time>2014-07-31T08:27:05.200Z</time>
      </trkpt>
      <trkpt lat="44.93736" lon="6.76891">
        <ele>1900</ele>
        <time>2014-07-31T08:27:06.200Z</time>
      </trkpt>
      <trkpt lat="44.93739" lon="6.76892">
        <ele>1900</ele>
        <time>2014-07-31T08:27:07.200Z</time>
      </trkpt>
      <trkpt lat="44.93742" lon="6.76893">
        <ele>1900</ele>
        <time>2014-07-31T08:27:08.260Z</time>
      </trkpt>
      <trkpt lat="44.93745" lon="6.76893">
        <ele>1900</ele>
        <time>2014-07-31T08:27:09.300Z</time>
      </trkpt>
      <trkpt lat="44.93749" lon="6.76894">
        <ele>1898.5</ele>
        <time>2014-07-31T08:27:10.300Z</time>
      </trkpt>
      <trkpt lat="44.93752" lon="6.76896">
        <ele>1898</ele>
        <time>2014-07-31T08:27:11.300Z</time>
      </trkpt>
      <trkpt lat="44.93755" lon="6.76898">
        <ele>1898</ele>
        <time>2014-07-31T08:27:12.300Z</time>
      </trkpt>
      <trkpt lat="44.93758" lon="6.76901">
        <ele>1898</ele>
        <time>2014-07-31T08:27:13.300Z</time>
      </trkpt>
      <trkpt lat="44.93761" lon="6.76904">
        <ele>1898</ele>
        <time>2014-07-31T08:27:14.300Z</time>
      </trkpt>
      <trkpt lat="44.93763" lon="6.76908">
        <ele>1898</ele>
        <time>2014-07-31T08:27:15.300Z</time>
      </trkpt>
      <trkpt lat="44.93764" lon="6.76912">
        <ele>1898</ele>
        <time>2014-07-31T08:27:16.300Z</time>
      </trkpt>
      <trkpt lat="44.93767" lon="6.76919">
        <ele>1898</ele>
        <time>2014-07-31T08:27:18.200Z</time>
      </trkpt>
      <trkpt lat="44.93769" lon="6.76924">
        <ele>1898</ele>
        <time>2014-07-31T08:27:19.200Z</time>
      </trkpt>
      <trkpt lat="44.9377" lon="6.7693">
        <ele>1898</ele>
        <time>2014-07-31T08:27:20.200Z</time>
      </trkpt>
      <trkpt lat="44.93771" lon="6.76936">
        <ele>1898</ele>
        <time>2014-07-31T08:27:21.200Z</time>
      </trkpt>
      <trkpt lat="44.93772" lon="6.76942">
        <ele>1898</ele>
        <time>2014-07-31T08:27:22.200Z</time>
      </trkpt>
      <trkpt lat="44.93772" lon="6.76949">
        <ele>1898</ele>
        <time>2014-07-31T08:27:23.200Z</time>
      </trkpt>
      <trkpt lat="44.93772" lon="6.76955">
        <ele>1898</ele>
        <time>2014-07-31T08:27:24.200Z</time>
      </trkpt>
      <trkpt lat="44.93772" lon="6.7696">
        <ele>1898</ele>
        <time>2014-07-31T08:27:25.260Z</time>
      </trkpt>
      <trkpt lat="44.93772" lon="6.76965">
        <ele>1898</ele>
        <time>2014-07-31T08:27:26.300Z</time>
      </trkpt>
      <trkpt lat="44.93771" lon="6.76969">
        <ele>1898</ele>
        <time>2014-07-31T08:27:27.300Z</time>
      </trkpt>
      <trkpt lat="44.93771" lon="6.76972">
        <ele>1898</ele>
        <time>2014-07-31T08:27:28.280Z</time>
      </trkpt>
      <trkpt lat="44.93771" lon="6.76976">
        <ele>1898</ele>
        <time>2014-07-31T08:27:29.300Z</time>
      </trkpt>
      <trkpt lat="44.93771" lon="6.76979">
        <ele>1898</ele>
        <time>2014-07-31T08:27:30.300Z</time>
      </trkpt>
      <trkpt lat="44.9377" lon="6.76982">
        <ele>1898</ele>
        <time>2014-07-31T08:27:31.300Z</time>
      </trkpt>
      <trkpt lat="44.9377" lon="6.76986">
        <ele>1898</ele>
        <time>2014-07-31T08:27:32.300Z</time>
      </trkpt>
      <trkpt lat="44.93769" lon="6.7699">
        <ele>1898</ele>
        <time>2014-07-31T08:27:33.300Z</time>
      </trkpt>
      <trkpt lat="44.93769" lon="6.76997">
        <ele>1898</ele>
        <time>2014-07-31T08:27:35.200Z</time>
      </trkpt>
      <trkpt lat="44.93769" lon="6.77">
        <ele>1898</ele>
        <time>2014-07-31T08:27:36.200Z</time>
      </trkpt>
      <trkpt lat="44.93769" lon="6.77004">
        <ele>1898</ele>
        <time>2014-07-31T08:27:37.200Z</time>
      </trkpt>
      <trkpt lat="44.93769" lon="6.77008">
        <ele>1898</ele>
        <time>2014-07-31T08:27:38.200Z</time>
      </trkpt>
      <trkpt lat="44.93769" lon="6.77012">
        <ele>1898</ele>
        <time>2014-07-31T08:27:39.200Z</time>
      </trkpt>
      <trkpt lat="44.93768" lon="6.77015">
        <ele>1899.3</ele>
        <time>2014-07-31T08:27:40.200Z</time>
      </trkpt>
      <trkpt lat="44.93769" lon="6.77019">
        <ele>1900</ele>
        <time>2014-07-31T08:27:41.200Z</time>
      </trkpt>
      <trkpt lat="44.9377" lon="6.77021">
        <ele>1900</ele>
        <time>2014-07-31T08:27:42.260Z</time>
      </trkpt>
      <trkpt lat="44.9377" lon="6.77023">
        <ele>1900</ele>
        <time>2014-07-31T08:27:43.300Z</time>
      </trkpt>
      <trkpt lat="44.93771" lon="6.77025">
        <ele>1900</ele>
        <time>2014-07-31T08:27:44.300Z</time>
      </trkpt>
      <trkpt lat="44.93772" lon="6.77028">
        <ele>1900</ele>
        <time>2014-07-31T08:27:45.300Z</time>
      </trkpt>
      <trkpt lat="44.93773" lon="6.77033">
        <ele>1900</ele>
        <time>2014-07-31T08:27:47.300Z</time>
      </trkpt>
      <trkpt lat="44.93773" lon="6.77036">
        <ele>1900</ele>
        <time>2014-07-31T08:27:48.300Z</time>
      </trkpt>
      <trkpt lat="44.93774" lon="6.77039">
        <ele>1900</ele>
        <time>2014-07-31T08:27:49.300Z</time>
      </trkpt>
      <trkpt lat="44.93774" lon="6.77041">
        <ele>1902.2</ele>
        <time>2014-07-31T08:27:50.300Z</time>
      </trkpt>
      <trkpt lat="44.93775" lon="6.77044">
        <ele>1903</ele>
        <time>2014-07-31T08:27:52.200Z</time>
      </trkpt>
      <trkpt lat="44.93776" lon="6.77046">
        <ele>1903</ele>
        <time>2014-07-31T08:27:53.200Z</time>
      </trkpt>
      <trkpt lat="44.93777" lon="6.7705">
        <ele>1903</ele>
        <time>2014-07-31T08:27:54.200Z</time>
      </trkpt>
      <trkpt lat="44.93778" lon="6.77052">
        <ele>1903.6</ele>
        <time>2014-07-31T08:27:55.200Z</time>
      </trkpt>
      <trkpt lat="44.93779" lon="6.77055">
        <ele>1904</ele>
        <time>2014-07-31T08:27:56.200Z</time>
      </trkpt>
      <trkpt lat="44.93779" lon="6.77058">
        <ele>1904</ele>
        <time>2014-07-31T08:27:57.200Z</time>
      </trkpt>
      <trkpt lat="44.9378" lon="6.77062">
        <ele>1904</ele>
        <time>2014-07-31T08:27:58.200Z</time>
      </trkpt>
      <trkpt lat="44.93781" lon="6.77066">
        <ele>1904</ele>
        <time>2014-07-31T08:27:59.260Z</time>
      </trkpt>
      <trkpt lat="44.93781" lon="6.7707">
        <ele>1904</ele>
        <time>2014-07-31T08:28:00.260Z</time>
      </trkpt>
      <trkpt lat="44.93781" lon="6.77074">
        <ele>1904</ele>
        <time>2014-07-31T08:28:01.300Z</time>
      </trkpt>
      <trkpt lat="44.9378" lon="6.77078">
        <ele>1904</ele>
        <time>2014-07-31T08:28:02.300Z</time>
      </trkpt>
      <trkpt lat="44.9378" lon="6.77081">
        <ele>1904</ele>
        <time>2014-07-31T08:28:03.300Z</time>
      </trkpt>
      <trkpt lat="44.93779" lon="6.77083">
        <ele>1904</ele>
        <time>2014-07-31T08:28:04.300Z</time>
      </trkpt>
      <trkpt lat="44.93778" lon="6.77086">
        <ele>1904</ele>
        <time>2014-07-31T08:28:05.300Z</time>
      </trkpt>
      <trkpt lat="44.93778" lon="6.77089">
        <ele>1904</ele>
        <time>2014-07-31T08:28:06.300Z</time>
      </trkpt>
      <trkpt lat="44.93777" lon="6.77093">
        <ele>1904</ele>
        <time>2014-07-31T08:28:07.300Z</time>
      </trkpt>
      <trkpt lat="44.93776" lon="6.77096">
        <ele>1904</ele>
        <time>2014-07-31T08:28:08.300Z</time>
      </trkpt>
      <trkpt lat="44.93777" lon="6.77099">
        <ele>1904</ele>
        <time>2014-07-31T08:28:09.300Z</time>
      </trkpt>
      <trkpt lat="44.93777" lon="6.77103">
        <ele>1904</ele>
        <time>2014-07-31T08:28:10.300Z</time>
      </trkpt>
      <trkpt lat="44.93777" lon="6.77106">
        <ele>1904</ele>
        <time>2014-07-31T08:28:11.300Z</time>
      </trkpt>
      <trkpt lat="44.93777" lon="6.7711">
        <ele>1904</ele>
        <time>2014-07-31T08:28:12.300Z</time>
      </trkpt>
      <trkpt lat="44.93778" lon="6.77118">
        <ele>1904</ele>
        <time>2014-07-31T08:28:14.200Z</time>
      </trkpt>
      <trkpt lat="44.93778" lon="6.77122">
        <ele>1904</ele>
        <time>2014-07-31T08:28:15.200Z</time>
      </trkpt>
      <trkpt lat="44.93778" lon="6.77128">
        <ele>1904</ele>
        <time>2014-07-31T08:28:16.260Z</time>
      </trkpt>
      <trkpt lat="44.93778" lon="6.77136">
        <ele>1904</ele>
        <time>2014-07-31T08:28:18.200Z</time>
      </trkpt>
      <trkpt lat="44.93778" lon="6.77139">
        <ele>1904</ele>
        <time>2014-07-31T08:28:19.200Z</time>
      </trkpt>
      <trkpt lat="44.93778" lon="6.77143">
        <ele>1905.3</ele>
        <time>2014-07-31T08:28:20.200Z</time>
      </trkpt>
      <trkpt lat="44.93778" lon="6.77147">
        <ele>1906</ele>
        <time>2014-07-31T08:28:21.200Z</time>
      </trkpt>
      <trkpt lat="44.93777" lon="6.7715">
        <ele>1906</ele>
        <time>2014-07-31T08:28:22.200Z</time>
      </trkpt>
      <trkpt lat="44.93777" lon="6.77154">
        <ele>1906</ele>
        <time>2014-07-31T08:28:23.200Z</time>
      </trkpt>
      <trkpt lat="44.93776" lon="6.77158">
        <ele>1906</ele>
        <time>2014-07-31T08:28:24.200Z</time>
      </trkpt>
      <trkpt lat="44.93775" lon="6.77161">
        <ele>1906</ele>
        <time>2014-07-31T08:28:25.200Z</time>
      </trkpt>
      <trkpt lat="44.93775" lon="6.77164">
        <ele>1906</ele>
        <time>2014-07-31T08:28:26.200Z</time>
      </trkpt>
      <trkpt lat="44.93774" lon="6.77167">
        <ele>1906</ele>
        <time>2014-07-31T08:28:27.200Z</time>
      </trkpt>
      <trkpt lat="44.93773" lon="6.77171">
        <ele>1906</ele>
        <time>2014-07-31T08:28:28.200Z</time>
      </trkpt>
      <trkpt lat="44.93773" lon="6.77175">
        <ele>1906</ele>
        <time>2014-07-31T08:28:29.200Z</time>
      </trkpt>
      <trkpt lat="44.93772" lon="6.77178">
        <ele>1907.3</ele>
        <time>2014-07-31T08:28:30.200Z</time>
      </trkpt>
      <trkpt lat="44.93772" lon="6.77182">
        <ele>1908</ele>
        <time>2014-07-31T08:28:31.200Z</time>
      </trkpt>
      <trkpt lat="44.93771" lon="6.77186">
        <ele>1908</ele>
        <time>2014-07-31T08:28:32.200Z</time>
      </trkpt>
      <trkpt lat="44.9377" lon="6.7719">
        <ele>1908</ele>
        <time>2014-07-31T08:28:33.260Z</time>
      </trkpt>
      <trkpt lat="44.93769" lon="6.77197">
        <ele>1908</ele>
        <time>2014-07-31T08:28:35.200Z</time>
      </trkpt>
      <trkpt lat="44.93769" lon="6.77201">
        <ele>1908</ele>
        <time>2014-07-31T08:28:36.180Z</time>
      </trkpt>
      <trkpt lat="44.93768" lon="6.77204">
        <ele>1908</ele>
        <time>2014-07-31T08:28:37.200Z</time>
      </trkpt>
      <trkpt lat="44.93768" lon="6.77208">
        <ele>1908</ele>
        <time>2014-07-31T08:28:38.200Z</time>
      </trkpt>
      <trkpt lat="44.93767" lon="6.77212">
        <ele>1908</ele>
        <time>2014-07-31T08:28:39.200Z</time>
      </trkpt>
      <trkpt lat="44.93767" lon="6.77216">
        <ele>1908</ele>
        <time>2014-07-31T08:28:40.200Z</time>
      </trkpt>
      <trkpt lat="44.93766" lon="6.7722">
        <ele>1908</ele>
        <time>2014-07-31T08:28:41.200Z</time>
      </trkpt>
      <trkpt lat="44.93765" lon="6.77223">
        <ele>1908</ele>
        <time>2014-07-31T08:28:42.200Z</time>
      </trkpt>
      <trkpt lat="44.93765" lon="6.77227">
        <ele>1908</ele>
        <time>2014-07-31T08:28:43.300Z</time>
      </trkpt>
      <trkpt lat="44.93764" lon="6.77231">
        <ele>1908</ele>
        <time>2014-07-31T08:28:44.300Z</time>
      </trkpt>
      <trkpt lat="44.93763" lon="6.77234">
        <ele>1908</ele>
        <time>2014-07-31T08:28:45.300Z</time>
      </trkpt>
      <trkpt lat="44.93762" lon="6.77238">
        <ele>1908</ele>
        <time>2014-07-31T08:28:46.300Z</time>
      </trkpt>
      <trkpt lat="44.93761" lon="6.77241">
        <ele>1908</ele>
        <time>2014-07-31T08:28:47.280Z</time>
      </trkpt>
      <trkpt lat="44.9376" lon="6.77244">
        <ele>1908</ele>
        <time>2014-07-31T08:28:48.300Z</time>
      </trkpt>
      <trkpt lat="44.93759" lon="6.77247">
        <ele>1908</ele>
        <time>2014-07-31T08:28:49.300Z</time>
      </trkpt>
      <trkpt lat="44.93757" lon="6.77253">
        <ele>1910</ele>
        <time>2014-07-31T08:28:51.260Z</time>
      </trkpt>
      <trkpt lat="44.93756" lon="6.77256">
        <ele>1910</ele>
        <time>2014-07-31T08:28:52.300Z</time>
      </trkpt>
      <trkpt lat="44.93755" lon="6.77258">
        <ele>1910</ele>
        <time>2014-07-31T08:28:53.300Z</time>
      </trkpt>
      <trkpt lat="44.93754" lon="6.77261">
        <ele>1910</ele>
        <time>2014-07-31T08:28:54.300Z</time>
      </trkpt>
      <trkpt lat="44.93753" lon="6.77264">
        <ele>1910</ele>
        <time>2014-07-31T08:28:55.300Z</time>
      </trkpt>
      <trkpt lat="44.93751" lon="6.77266">
        <ele>1910</ele>
        <time>2014-07-31T08:28:56.300Z</time>
      </trkpt>
      <trkpt lat="44.93751" lon="6.77269">
        <ele>1910</ele>
        <time>2014-07-31T08:28:57.300Z</time>
      </trkpt>
      <trkpt lat="44.9375" lon="6.77272">
        <ele>1910</ele>
        <time>2014-07-31T08:28:58.280Z</time>
      </trkpt>
      <trkpt lat="44.93749" lon="6.77274">
        <ele>1910</ele>
        <time>2014-07-31T08:28:59.300Z</time>
      </trkpt>
      <trkpt lat="44.93748" lon="6.77277">
        <ele>1911.3</ele>
        <time>2014-07-31T08:29:00.200Z</time>
      </trkpt>
      <trkpt lat="44.93747" lon="6.7728">
        <ele>1912</ele>
        <time>2014-07-31T08:29:01.300Z</time>
      </trkpt>
      <trkpt lat="44.93746" lon="6.77283">
        <ele>1912</ele>
        <time>2014-07-31T08:29:02.300Z</time>
      </trkpt>
      <trkpt lat="44.93745" lon="6.77287">
        <ele>1912</ele>
        <time>2014-07-31T08:29:03.300Z</time>
      </trkpt>
      <trkpt lat="44.93744" lon="6.7729">
        <ele>1912</ele>
        <time>2014-07-31T08:29:04.300Z</time>
      </trkpt>
      <trkpt lat="44.93743" lon="6.77293">
        <ele>1912</ele>
        <time>2014-07-31T08:29:05.300Z</time>
      </trkpt>
      <trkpt lat="44.93741" lon="6.77296">
        <ele>1912</ele>
        <time>2014-07-31T08:29:06.300Z</time>
      </trkpt>
      <trkpt lat="44.93739" lon="6.77301">
        <ele>1912</ele>
        <time>2014-07-31T08:29:08.200Z</time>
      </trkpt>
      <trkpt lat="44.93739" lon="6.77303">
        <ele>1912</ele>
        <time>2014-07-31T08:29:09.180Z</time>
      </trkpt>
      <trkpt lat="44.93739" lon="6.77306">
        <ele>1912.6</ele>
        <time>2014-07-31T08:29:10.200Z</time>
      </trkpt>
      <trkpt lat="44.93739" lon="6.77307">
        <ele>1913</ele>
        <time>2014-07-31T08:29:11.200Z</time>
      </trkpt>
      <trkpt lat="44.93739" lon="6.77309">
        <ele>1913</ele>
        <time>2014-07-31T08:29:12.200Z</time>
      </trkpt>
      <trkpt lat="44.93738" lon="6.77311">
        <ele>1913</ele>
        <time>2014-07-31T08:29:13.200Z</time>
      </trkpt>
      <trkpt lat="44.93737" lon="6.77314">
        <ele>1913</ele>
        <time>2014-07-31T08:29:14.200Z</time>
      </trkpt>
      <trkpt lat="44.93737" lon="6.77317">
        <ele>1913</ele>
        <time>2014-07-31T08:29:15.200Z</time>
      </trkpt>
      <trkpt lat="44.93737" lon="6.7732">
        <ele>1913</ele>
        <time>2014-07-31T08:29:16.200Z</time>
      </trkpt>
      <trkpt lat="44.93736" lon="6.77323">
        <ele>1913</ele>
        <time>2014-07-31T08:29:17.260Z</time>
      </trkpt>
      <trkpt lat="44.93736" lon="6.77326">
        <ele>1913</ele>
        <time>2014-07-31T08:29:18.300Z</time>
      </trkpt>
      <trkpt lat="44.93735" lon="6.77329">
        <ele>1913</ele>
        <time>2014-07-31T08:29:19.300Z</time>
      </trkpt>
      <trkpt lat="44.93734" lon="6.77332">
        <ele>1913.7</ele>
        <time>2014-07-31T08:29:20.280Z</time>
      </trkpt>
      <trkpt lat="44.93733" lon="6.77336">
        <ele>1914</ele>
        <time>2014-07-31T08:29:21.300Z</time>
      </trkpt>
      <trkpt lat="44.93732" lon="6.77339">
        <ele>1914</ele>
        <time>2014-07-31T08:29:22.300Z</time>
      </trkpt>
      <trkpt lat="44.93732" lon="6.77342">
        <ele>1914</ele>
        <time>2014-07-31T08:29:23.300Z</time>
      </trkpt>
      <trkpt lat="44.9373" lon="6.77347">
        <ele>1914</ele>
        <time>2014-07-31T08:29:25.200Z</time>
      </trkpt>
      <trkpt lat="44.9373" lon="6.7735">
        <ele>1914</ele>
        <time>2014-07-31T08:29:26.200Z</time>
      </trkpt>
      <trkpt lat="44.9373" lon="6.77353">
        <ele>1914</ele>
        <time>2014-07-31T08:29:27.200Z</time>
      </trkpt>
      <trkpt lat="44.9373" lon="6.77356">
        <ele>1914</ele>
        <time>2014-07-31T08:29:28.300Z</time>
      </trkpt>
      <trkpt lat="44.93729" lon="6.77358">
        <ele>1914</ele>
        <time>2014-07-31T08:29:29.300Z</time>
      </trkpt>
      <trkpt lat="44.93728" lon="6.77361">
        <ele>1915.4</ele>
        <time>2014-07-31T08:29:30.280Z</time>
      </trkpt>
      <trkpt lat="44.93728" lon="6.77363">
        <ele>1916</ele>
        <time>2014-07-31T08:29:31.300Z</time>
      </trkpt>
      <trkpt lat="44.93728" lon="6.77366">
        <ele>1916</ele>
        <time>2014-07-31T08:29:32.300Z</time>
      </trkpt>
      <trkpt lat="44.93728" lon="6.77369">
        <ele>1916</ele>
        <time>2014-07-31T08:29:33.300Z</time>
      </trkpt>
      <trkpt lat="44.93728" lon="6.77375">
        <ele>1916</ele>
        <time>2014-07-31T08:29:35.200Z</time>
      </trkpt>
      <trkpt lat="44.93729" lon="6.77377">
        <ele>1916</ele>
        <time>2014-07-31T08:29:36.200Z</time>
      </trkpt>
      <trkpt lat="44.93728" lon="6.77379">
        <ele>1916</ele>
        <time>2014-07-31T08:29:37.200Z</time>
      </trkpt>
      <trkpt lat="44.93728" lon="6.77382">
        <ele>1916</ele>
        <time>2014-07-31T08:29:38.200Z</time>
      </trkpt>
      <trkpt lat="44.93727" lon="6.77385">
        <ele>1916</ele>
        <time>2014-07-31T08:29:39.200Z</time>
      </trkpt>
      <trkpt lat="44.93727" lon="6.77387">
        <ele>1917.3</ele>
        <time>2014-07-31T08:29:40.200Z</time>
      </trkpt>
      <trkpt lat="44.93727" lon="6.77389">
        <ele>1918</ele>
        <time>2014-07-31T08:29:41.260Z</time>
      </trkpt>
      <trkpt lat="44.93727" lon="6.7739">
        <ele>1918</ele>
        <time>2014-07-31T08:29:42.300Z</time>
      </trkpt>
      <trkpt lat="44.93727" lon="6.77392">
        <ele>1918</ele>
        <time>2014-07-31T08:29:43.300Z</time>
      </trkpt>
      <trkpt lat="44.93726" lon="6.77395">
        <ele>1918</ele>
        <time>2014-07-31T08:29:44.300Z</time>
      </trkpt>
      <trkpt lat="44.93726" lon="6.77397">
        <ele>1918</ele>
        <time>2014-07-31T08:29:45.300Z</time>
      </trkpt>
      <trkpt lat="44.93726" lon="6.774">
        <ele>1918</ele>
        <time>2014-07-31T08:29:46.300Z</time>
      </trkpt>
      <trkpt lat="44.93726" lon="6.77403">
        <ele>1918</ele>
        <time>2014-07-31T08:29:47.300Z</time>
      </trkpt>
      <trkpt lat="44.93725" lon="6.77405">
        <ele>1918</ele>
        <time>2014-07-31T08:29:48.300Z</time>
      </trkpt>
      <trkpt lat="44.93726" lon="6.77408">
        <ele>1918</ele>
        <time>2014-07-31T08:29:49.300Z</time>
      </trkpt>
      <trkpt lat="44.93726" lon="6.77411">
        <ele>1920.2</ele>
        <time>2014-07-31T08:29:50.300Z</time>
      </trkpt>
      <trkpt lat="44.93725" lon="6.77415">
        <ele>1921</ele>
        <time>2014-07-31T08:29:52.200Z</time>
      </trkpt>
      <trkpt lat="44.93725" lon="6.77417">
        <ele>1921</ele>
        <time>2014-07-31T08:29:53.380Z</time>
      </trkpt>
      <trkpt lat="44.93725" lon="6.7742">
        <ele>1921</ele>
        <time>2014-07-31T08:29:54.300Z</time>
      </trkpt>
      <trkpt lat="44.93724" lon="6.77423">
        <ele>1921.7</ele>
        <time>2014-07-31T08:29:55.300Z</time>
      </trkpt>
      <trkpt lat="44.93724" lon="6.77426">
        <ele>1922</ele>
        <time>2014-07-31T08:29:56.300Z</time>
      </trkpt>
      <trkpt lat="44.93723" lon="6.77429">
        <ele>1922</ele>
        <time>2014-07-31T08:29:57.300Z</time>
      </trkpt>
      <trkpt lat="44.93722" lon="6.77432">
        <ele>1922</ele>
        <time>2014-07-31T08:29:58.200Z</time>
      </trkpt>
      <trkpt lat="44.93721" lon="6.77436">
        <ele>1922</ele>
        <time>2014-07-31T08:29:59.300Z</time>
      </trkpt>
      <trkpt lat="44.9372" lon="6.77441">
        <ele>1922</ele>
        <time>2014-07-31T08:30:01.200Z</time>
      </trkpt>
      <trkpt lat="44.93719" lon="6.77444">
        <ele>1922</ele>
        <time>2014-07-31T08:30:02.200Z</time>
      </trkpt>
      <trkpt lat="44.93718" lon="6.77447">
        <ele>1922</ele>
        <time>2014-07-31T08:30:03.220Z</time>
      </trkpt>
      <trkpt lat="44.93718" lon="6.7745">
        <ele>1922</ele>
        <time>2014-07-31T08:30:04.300Z</time>
      </trkpt>
      <trkpt lat="44.93717" lon="6.77453">
        <ele>1923.5</ele>
        <time>2014-07-31T08:30:05.300Z</time>
      </trkpt>
      <trkpt lat="44.93717" lon="6.77456">
        <ele>1924</ele>
        <time>2014-07-31T08:30:06.300Z</time>
      </trkpt>
      <trkpt lat="44.93716" lon="6.77459">
        <ele>1924</ele>
        <time>2014-07-31T08:30:07.300Z</time>
      </trkpt>
      <trkpt lat="44.93715" lon="6.77462">
        <ele>1924</ele>
        <time>2014-07-31T08:30:08.300Z</time>
      </trkpt>
      <trkpt lat="44.93713" lon="6.77464">
        <ele>1924</ele>
        <time>2014-07-31T08:30:09.300Z</time>
      </trkpt>
      <trkpt lat="44.93712" lon="6.77467">
        <ele>1924.7</ele>
        <time>2014-07-31T08:30:10.300Z</time>
      </trkpt>
      <trkpt lat="44.93711" lon="6.77469">
        <ele>1925</ele>
        <time>2014-07-31T08:30:11.300Z</time>
      </trkpt>
      <trkpt lat="44.9371" lon="6.77471">
        <ele>1925</ele>
        <time>2014-07-31T08:30:12.300Z</time>
      </trkpt>
      <trkpt lat="44.93707" lon="6.77479">
        <ele>1925</ele>
        <time>2014-07-31T08:30:14.180Z</time>
      </trkpt>
      <trkpt lat="44.93706" lon="6.77482">
        <ele>1925</ele>
        <time>2014-07-31T08:30:15.260Z</time>
      </trkpt>
      <trkpt lat="44.93705" lon="6.77485">
        <ele>1925</ele>
        <time>2014-07-31T08:30:16.300Z</time>
      </trkpt>
      <trkpt lat="44.93704" lon="6.77492">
        <ele>1925</ele>
        <time>2014-07-31T08:30:18.200Z</time>
      </trkpt>
      <trkpt lat="44.93704" lon="6.77495">
        <ele>1925</ele>
        <time>2014-07-31T08:30:19.200Z</time>
      </trkpt>
      <trkpt lat="44.93703" lon="6.77498">
        <ele>1925</ele>
        <time>2014-07-31T08:30:20.200Z</time>
      </trkpt>
      <trkpt lat="44.93703" lon="6.77502">
        <ele>1925</ele>
        <time>2014-07-31T08:30:21.200Z</time>
      </trkpt>
      <trkpt lat="44.93703" lon="6.77505">
        <ele>1925</ele>
        <time>2014-07-31T08:30:22.200Z</time>
      </trkpt>
      <trkpt lat="44.93703" lon="6.77508">
        <ele>1925</ele>
        <time>2014-07-31T08:30:23.200Z</time>
      </trkpt>
      <trkpt lat="44.93703" lon="6.77511">
        <ele>1925</ele>
        <time>2014-07-31T08:30:24.200Z</time>
      </trkpt>
      <trkpt lat="44.93703" lon="6.77514">
        <ele>1925.6</ele>
        <time>2014-07-31T08:30:25.200Z</time>
      </trkpt>
      <trkpt lat="44.93703" lon="6.77517">
        <ele>1926</ele>
        <time>2014-07-31T08:30:26.200Z</time>
      </trkpt>
      <trkpt lat="44.93703" lon="6.7752">
        <ele>1926</ele>
        <time>2014-07-31T08:30:27.200Z</time>
      </trkpt>
      <trkpt lat="44.93703" lon="6.77523">
        <ele>1926</ele>
        <time>2014-07-31T08:30:28.200Z</time>
      </trkpt>
      <trkpt lat="44.93703" lon="6.77526">
        <ele>1926</ele>
        <time>2014-07-31T08:30:29.200Z</time>
      </trkpt>
      <trkpt lat="44.93703" lon="6.77528">
        <ele>1926</ele>
        <time>2014-07-31T08:30:30.200Z</time>
      </trkpt>
      <trkpt lat="44.93703" lon="6.77531">
        <ele>1926</ele>
        <time>2014-07-31T08:30:31.200Z</time>
      </trkpt>
      <trkpt lat="44.93703" lon="6.77535">
        <ele>1926</ele>
        <time>2014-07-31T08:30:32.260Z</time>
      </trkpt>
      <trkpt lat="44.93703" lon="6.77538">
        <ele>1926</ele>
        <time>2014-07-31T08:30:33.300Z</time>
      </trkpt>
      <trkpt lat="44.93702" lon="6.77545">
        <ele>1926.6</ele>
        <time>2014-07-31T08:30:35.200Z</time>
      </trkpt>
      <trkpt lat="44.93702" lon="6.77548">
        <ele>1927</ele>
        <time>2014-07-31T08:30:36.200Z</time>
      </trkpt>
      <trkpt lat="44.93702" lon="6.77552">
        <ele>1927</ele>
        <time>2014-07-31T08:30:37.180Z</time>
      </trkpt>
      <trkpt lat="44.93702" lon="6.77556">
        <ele>1927</ele>
        <time>2014-07-31T08:30:38.200Z</time>
      </trkpt>
      <trkpt lat="44.93702" lon="6.7756">
        <ele>1927</ele>
        <time>2014-07-31T08:30:39.200Z</time>
      </trkpt>
      <trkpt lat="44.93702" lon="6.77564">
        <ele>1927</ele>
        <time>2014-07-31T08:30:40.200Z</time>
      </trkpt>
      <trkpt lat="44.93701" lon="6.77568">
        <ele>1927</ele>
        <time>2014-07-31T08:30:41.200Z</time>
      </trkpt>
      <trkpt lat="44.93701" lon="6.77572">
        <ele>1927</ele>
        <time>2014-07-31T08:30:42.200Z</time>
      </trkpt>
      <trkpt lat="44.937" lon="6.77576">
        <ele>1927</ele>
        <time>2014-07-31T08:30:43.200Z</time>
      </trkpt>
      <trkpt lat="44.93699" lon="6.77579">
        <ele>1927</ele>
        <time>2014-07-31T08:30:44.200Z</time>
      </trkpt>
      <trkpt lat="44.93699" lon="6.77582">
        <ele>1927.6</ele>
        <time>2014-07-31T08:30:45.200Z</time>
      </trkpt>
      <trkpt lat="44.93698" lon="6.77585">
        <ele>1928</ele>
        <time>2014-07-31T08:30:46.200Z</time>
      </trkpt>
      <trkpt lat="44.93697" lon="6.77588">
        <ele>1928</ele>
        <time>2014-07-31T08:30:47.200Z</time>
      </trkpt>
      <trkpt lat="44.93697" lon="6.77591">
        <ele>1928</ele>
        <time>2014-07-31T08:30:48.220Z</time>
      </trkpt>
      <trkpt lat="44.93695" lon="6.77597">
        <ele>1928</ele>
        <time>2014-07-31T08:30:50.200Z</time>
      </trkpt>
      <trkpt lat="44.93694" lon="6.776">
        <ele>1928</ele>
        <time>2014-07-31T08:30:51.200Z</time>
      </trkpt>
      <trkpt lat="44.93694" lon="6.77603">
        <ele>1928</ele>
        <time>2014-07-31T08:30:52.300Z</time>
      </trkpt>
      <trkpt lat="44.93692" lon="6.77606">
        <ele>1928</ele>
        <time>2014-07-31T08:30:53.300Z</time>
      </trkpt>
      <trkpt lat="44.93692" lon="6.77607">
        <ele>1928</ele>
        <time>2014-07-31T08:30:54.300Z</time>
      </trkpt>
      <trkpt lat="44.93691" lon="6.7761">
        <ele>1928.7</ele>
        <time>2014-07-31T08:30:55.300Z</time>
      </trkpt>
      <trkpt lat="44.93691" lon="6.77614">
        <ele>1929</ele>
        <time>2014-07-31T08:30:56.300Z</time>
      </trkpt>
      <trkpt lat="44.9369" lon="6.77617">
        <ele>1929</ele>
        <time>2014-07-31T08:30:57.300Z</time>
      </trkpt>
      <trkpt lat="44.93689" lon="6.7762">
        <ele>1929</ele>
        <time>2014-07-31T08:30:58.300Z</time>
      </trkpt>
      <trkpt lat="44.93688" lon="6.77624">
        <ele>1929</ele>
        <time>2014-07-31T08:30:59.280Z</time>
      </trkpt>
      <trkpt lat="44.93689" lon="6.77629">
        <ele>1929</ele>
        <time>2014-07-31T08:31:01.200Z</time>
      </trkpt>
      <trkpt lat="44.93689" lon="6.77632">
        <ele>1929</ele>
        <time>2014-07-31T08:31:02.200Z</time>
      </trkpt>
      <trkpt lat="44.9369" lon="6.77636">
        <ele>1929</ele>
        <time>2014-07-31T08:31:03.200Z</time>
      </trkpt>
      <trkpt lat="44.9369" lon="6.77639">
        <ele>1929</ele>
        <time>2014-07-31T08:31:04.200Z</time>
      </trkpt>
      <trkpt lat="44.9369" lon="6.77643">
        <ele>1930.3</ele>
        <time>2014-07-31T08:31:05.200Z</time>
      </trkpt>
      <trkpt lat="44.93691" lon="6.77646">
        <ele>1931</ele>
        <time>2014-07-31T08:31:06.260Z</time>
      </trkpt>
      <trkpt lat="44.93691" lon="6.77648">
        <ele>1931</ele>
        <time>2014-07-31T08:31:07.300Z</time>
      </trkpt>
      <trkpt lat="44.93691" lon="6.7765">
        <ele>1931</ele>
        <time>2014-07-31T08:31:08.300Z</time>
      </trkpt>
      <trkpt lat="44.93691" lon="6.77658">
        <ele>1931</ele>
        <time>2014-07-31T08:31:10.200Z</time>
      </trkpt>
      <trkpt lat="44.93691" lon="6.77663">
        <ele>1931</ele>
        <time>2014-07-31T08:31:11.200Z</time>
      </trkpt>
      <trkpt lat="44.93692" lon="6.77668">
        <ele>1931</ele>
        <time>2014-07-31T08:31:12.200Z</time>
      </trkpt>
      <trkpt lat="44.93693" lon="6.77674">
        <ele>1931</ele>
        <time>2014-07-31T08:31:13.200Z</time>
      </trkpt>
      <trkpt lat="44.93693" lon="6.77679">
        <ele>1931</ele>
        <time>2014-07-31T08:31:14.200Z</time>
      </trkpt>
      <trkpt lat="44.93694" lon="6.77683">
        <ele>1931</ele>
        <time>2014-07-31T08:31:15.200Z</time>
      </trkpt>
      <trkpt lat="44.93695" lon="6.77688">
        <ele>1931</ele>
        <time>2014-07-31T08:31:16.200Z</time>
      </trkpt>
      <trkpt lat="44.93696" lon="6.77693">
        <ele>1931</ele>
        <time>2014-07-31T08:31:17.260Z</time>
      </trkpt>
      <trkpt lat="44.93697" lon="6.77698">
        <ele>1931</ele>
        <time>2014-07-31T08:31:18.300Z</time>
      </trkpt>
      <trkpt lat="44.93697" lon="6.77703">
        <ele>1931</ele>
        <time>2014-07-31T08:31:19.280Z</time>
      </trkpt>
      <trkpt lat="44.93697" lon="6.77709">
        <ele>1931</ele>
        <time>2014-07-31T08:31:20.300Z</time>
      </trkpt>
      <trkpt lat="44.93696" lon="6.77716">
        <ele>1931</ele>
        <time>2014-07-31T08:31:21.300Z</time>
      </trkpt>
      <trkpt lat="44.93695" lon="6.77724">
        <ele>1931</ele>
        <time>2014-07-31T08:31:22.300Z</time>
      </trkpt>
      <trkpt lat="44.93694" lon="6.77738">
        <ele>1931</ele>
        <time>2014-07-31T08:31:24.200Z</time>
      </trkpt>
      <trkpt lat="44.93693" lon="6.77744">
        <ele>1929.7</ele>
        <time>2014-07-31T08:31:25.200Z</time>
      </trkpt>
      <trkpt lat="44.93692" lon="6.77751">
        <ele>1929</ele>
        <time>2014-07-31T08:31:26.380Z</time>
      </trkpt>
      <trkpt lat="44.93691" lon="6.7776">
        <ele>1929</ele>
        <time>2014-07-31T08:31:27.300Z</time>
      </trkpt>
      <trkpt lat="44.93689" lon="6.77768">
        <ele>1929</ele>
        <time>2014-07-31T08:31:28.300Z</time>
      </trkpt>
      <trkpt lat="44.93686" lon="6.77777">
        <ele>1929</ele>
        <time>2014-07-31T08:31:29.300Z</time>
      </trkpt>
      <trkpt lat="44.93682" lon="6.77793">
        <ele>1929</ele>
        <time>2014-07-31T08:31:31.200Z</time>
      </trkpt>
      <trkpt lat="44.93679" lon="6.77801">
        <ele>1929</ele>
        <time>2014-07-31T08:31:32.200Z</time>
      </trkpt>
      <trkpt lat="44.93677" lon="6.77808">
        <ele>1929</ele>
        <time>2014-07-31T08:31:33.300Z</time>
      </trkpt>
      <trkpt lat="44.93675" lon="6.77825">
        <ele>1927.1</ele>
        <time>2014-07-31T08:31:35.200Z</time>
      </trkpt>
      <trkpt lat="44.93675" lon="6.77834">
        <ele>1926</ele>
        <time>2014-07-31T08:31:36.200Z</time>
      </trkpt>
      <trkpt lat="44.93674" lon="6.77842">
        <ele>1926</ele>
        <time>2014-07-31T08:31:37.200Z</time>
      </trkpt>
      <trkpt lat="44.93674" lon="6.77851">
        <ele>1926</ele>
        <time>2014-07-31T08:31:38.200Z</time>
      </trkpt>
      <trkpt lat="44.93671" lon="6.7786">
        <ele>1926</ele>
        <time>2014-07-31T08:31:39.200Z</time>
      </trkpt>
      <trkpt lat="44.93668" lon="6.77867">
        <ele>1923.9</ele>
        <time>2014-07-31T08:31:40.260Z</time>
      </trkpt>
      <trkpt lat="44.93662" lon="6.77871">
        <ele>1923</ele>
        <time>2014-07-31T08:31:41.300Z</time>
      </trkpt>
      <trkpt lat="44.93653" lon="6.77875">
        <ele>1923</ele>
        <time>2014-07-31T08:31:42.300Z</time>
      </trkpt>
      <trkpt lat="44.93646" lon="6.77877">
        <ele>1923</ele>
        <time>2014-07-31T08:31:43.300Z</time>
      </trkpt>
      <trkpt lat="44.9364" lon="6.7788">
        <ele>1923</ele>
        <time>2014-07-31T08:31:44.300Z</time>
      </trkpt>
      <trkpt lat="44.93634" lon="6.77883">
        <ele>1922.3</ele>
        <time>2014-07-31T08:31:45.300Z</time>
      </trkpt>
      <trkpt lat="44.93629" lon="6.77887">
        <ele>1922</ele>
        <time>2014-07-31T08:31:46.300Z</time>
      </trkpt>
      <trkpt lat="44.93624" lon="6.77891">
        <ele>1922</ele>
        <time>2014-07-31T08:31:47.300Z</time>
      </trkpt>
      <trkpt lat="44.9362" lon="6.77895">
        <ele>1922</ele>
        <time>2014-07-31T08:31:48.300Z</time>
      </trkpt>
      <trkpt lat="44.93617" lon="6.77897">
        <ele>1922</ele>
        <time>2014-07-31T08:31:49.300Z</time>
      </trkpt>
      <trkpt lat="44.93615" lon="6.779">
        <ele>1921.3</ele>
        <time>2014-07-31T08:31:50.300Z</time>
      </trkpt>
      <trkpt lat="44.93613" lon="6.77903">
        <ele>1921</ele>
        <time>2014-07-31T08:31:51.160Z</time>
      </trkpt>
      <trkpt lat="44.93612" lon="6.77906">
        <ele>1921</ele>
        <time>2014-07-31T08:31:52.300Z</time>
      </trkpt>
      <trkpt lat="44.93608" lon="6.77912">
        <ele>1921</ele>
        <time>2014-07-31T08:31:54.200Z</time>
      </trkpt>
      <trkpt lat="44.93606" lon="6.77915">
        <ele>1922.3</ele>
        <time>2014-07-31T08:31:55.200Z</time>
      </trkpt>
      <trkpt lat="44.93603" lon="6.77917">
        <ele>1923</ele>
        <time>2014-07-31T08:31:56.200Z</time>
      </trkpt>
      <trkpt lat="44.93601" lon="6.7792">
        <ele>1923</ele>
        <time>2014-07-31T08:31:57.260Z</time>
      </trkpt>
      <trkpt lat="44.936" lon="6.77922">
        <ele>1923</ele>
        <time>2014-07-31T08:31:58.300Z</time>
      </trkpt>
      <trkpt lat="44.93598" lon="6.77924">
        <ele>1923</ele>
        <time>2014-07-31T08:31:59.300Z</time>
      </trkpt>
      <trkpt lat="44.93595" lon="6.77929">
        <ele>1923</ele>
        <time>2014-07-31T08:32:01.200Z</time>
      </trkpt>
      <trkpt lat="44.93593" lon="6.77931">
        <ele>1923</ele>
        <time>2014-07-31T08:32:02.200Z</time>
      </trkpt>
      <trkpt lat="44.93592" lon="6.77933">
        <ele>1923</ele>
        <time>2014-07-31T08:32:03.200Z</time>
      </trkpt>
      <trkpt lat="44.9359" lon="6.77935">
        <ele>1923</ele>
        <time>2014-07-31T08:32:04.200Z</time>
      </trkpt>
      <trkpt lat="44.93589" lon="6.77937">
        <ele>1923.6</ele>
        <time>2014-07-31T08:32:05.200Z</time>
      </trkpt>
      <trkpt lat="44.93587" lon="6.77939">
        <ele>1924</ele>
        <time>2014-07-31T08:32:06.200Z</time>
      </trkpt>
      <trkpt lat="44.93584" lon="6.7794">
        <ele>1924</ele>
        <time>2014-07-31T08:32:07.200Z</time>
      </trkpt>
      <trkpt lat="44.93583" lon="6.77942">
        <ele>1924</ele>
        <time>2014-07-31T08:32:08.200Z</time>
      </trkpt>
      <trkpt lat="44.93581" lon="6.77945">
        <ele>1924</ele>
        <time>2014-07-31T08:32:09.200Z</time>
      </trkpt>
      <trkpt lat="44.9358" lon="6.77947">
        <ele>1924</ele>
        <time>2014-07-31T08:32:10.200Z</time>
      </trkpt>
      <trkpt lat="44.93578" lon="6.77949">
        <ele>1924</ele>
        <time>2014-07-31T08:32:11.200Z</time>
      </trkpt>
      <trkpt lat="44.93577" lon="6.77951">
        <ele>1924</ele>
        <time>2014-07-31T08:32:12.180Z</time>
      </trkpt>
      <trkpt lat="44.93575" lon="6.77953">
        <ele>1924</ele>
        <time>2014-07-31T08:32:13.200Z</time>
      </trkpt>
      <trkpt lat="44.93573" lon="6.77955">
        <ele>1924</ele>
        <time>2014-07-31T08:32:14.260Z</time>
      </trkpt>
      <trkpt lat="44.93571" lon="6.77958">
        <ele>1924.7</ele>
        <time>2014-07-31T08:32:15.300Z</time>
      </trkpt>
      <trkpt lat="44.93569" lon="6.7796">
        <ele>1925</ele>
        <time>2014-07-31T08:32:16.300Z</time>
      </trkpt>
      <trkpt lat="44.93566" lon="6.77963">
        <ele>1925</ele>
        <time>2014-07-31T08:32:18.300Z</time>
      </trkpt>
      <trkpt lat="44.93565" lon="6.77965">
        <ele>1925</ele>
        <time>2014-07-31T08:32:19.300Z</time>
      </trkpt>
      <trkpt lat="44.93563" lon="6.77967">
        <ele>1925</ele>
        <time>2014-07-31T08:32:20.300Z</time>
      </trkpt>
      <trkpt lat="44.9356" lon="6.77968">
        <ele>1925</ele>
        <time>2014-07-31T08:32:21.300Z</time>
      </trkpt>
      <trkpt lat="44.93559" lon="6.77969">
        <ele>1925</ele>
        <time>2014-07-31T08:32:22.280Z</time>
      </trkpt>
      <trkpt lat="44.93557" lon="6.77971">
        <ele>1925</ele>
        <time>2014-07-31T08:32:23.300Z</time>
      </trkpt>
      <trkpt lat="44.93555" lon="6.77973">
        <ele>1925</ele>
        <time>2014-07-31T08:32:24.300Z</time>
      </trkpt>
      <trkpt lat="44.93553" lon="6.77974">
        <ele>1926.5</ele>
        <time>2014-07-31T08:32:25.300Z</time>
      </trkpt>
      <trkpt lat="44.93551" lon="6.77975">
        <ele>1927</ele>
        <time>2014-07-31T08:32:26.300Z</time>
      </trkpt>
      <trkpt lat="44.93549" lon="6.77975">
        <ele>1927</ele>
        <time>2014-07-31T08:32:27.300Z</time>
      </trkpt>
      <trkpt lat="44.93546" lon="6.77976">
        <ele>1927</ele>
        <time>2014-07-31T08:32:29.200Z</time>
      </trkpt>
      <trkpt lat="44.93544" lon="6.77977">
        <ele>1927</ele>
        <time>2014-07-31T08:32:30.200Z</time>
      </trkpt>
      <trkpt lat="44.93543" lon="6.77978">
        <ele>1927</ele>
        <time>2014-07-31T08:32:31.260Z</time>
      </trkpt>
      <trkpt lat="44.93539" lon="6.7798">
        <ele>1927</ele>
        <time>2014-07-31T08:32:33.200Z</time>
      </trkpt>
      <trkpt lat="44.93536" lon="6.77982">
        <ele>1927</ele>
        <time>2014-07-31T08:32:34.260Z</time>
      </trkpt>
      <trkpt lat="44.93534" lon="6.77984">
        <ele>1928.5</ele>
        <time>2014-07-31T08:32:35.300Z</time>
      </trkpt>
      <trkpt lat="44.93532" lon="6.77986">
        <ele>1929</ele>
        <time>2014-07-31T08:32:36.300Z</time>
      </trkpt>
      <trkpt lat="44.9353" lon="6.77989">
        <ele>1929</ele>
        <time>2014-07-31T08:32:37.300Z</time>
      </trkpt>
      <trkpt lat="44.93528" lon="6.77992">
        <ele>1929</ele>
        <time>2014-07-31T08:32:38.300Z</time>
      </trkpt>
      <trkpt lat="44.93527" lon="6.77994">
        <ele>1929</ele>
        <time>2014-07-31T08:32:39.300Z</time>
      </trkpt>
      <trkpt lat="44.93525" lon="6.77996">
        <ele>1929</ele>
        <time>2014-07-31T08:32:40.300Z</time>
      </trkpt>
      <trkpt lat="44.93524" lon="6.77998">
        <ele>1929</ele>
        <time>2014-07-31T08:32:41.300Z</time>
      </trkpt>
      <trkpt lat="44.93522" lon="6.78">
        <ele>1929</ele>
        <time>2014-07-31T08:32:42.280Z</time>
      </trkpt>
      <trkpt lat="44.93522" lon="6.78002">
        <ele>1929</ele>
        <time>2014-07-31T08:32:43.300Z</time>
      </trkpt>
      <trkpt lat="44.9352" lon="6.78005">
        <ele>1929</ele>
        <time>2014-07-31T08:32:44.300Z</time>
      </trkpt>
      <trkpt lat="44.93519" lon="6.78007">
        <ele>1929</ele>
        <time>2014-07-31T08:32:45.300Z</time>
      </trkpt>
      <trkpt lat="44.93518" lon="6.7801">
        <ele>1929</ele>
        <time>2014-07-31T08:32:46.300Z</time>
      </trkpt>
      <trkpt lat="44.93518" lon="6.78012">
        <ele>1929</ele>
        <time>2014-07-31T08:32:47.300Z</time>
      </trkpt>
      <trkpt lat="44.93517" lon="6.78014">
        <ele>1929</ele>
        <time>2014-07-31T08:32:48.200Z</time>
      </trkpt>
      <trkpt lat="44.93516" lon="6.78016">
        <ele>1929</ele>
        <time>2014-07-31T08:32:49.300Z</time>
      </trkpt>
      <trkpt lat="44.93515" lon="6.78018">
        <ele>1929</ele>
        <time>2014-07-31T08:32:50.300Z</time>
      </trkpt>
      <trkpt lat="44.93514" lon="6.78022">
        <ele>1929</ele>
        <time>2014-07-31T08:32:52.200Z</time>
      </trkpt>
      <trkpt lat="44.93513" lon="6.78024">
        <ele>1929</ele>
        <time>2014-07-31T08:32:53.300Z</time>
      </trkpt>
      <trkpt lat="44.93514" lon="6.78026">
        <ele>1929</ele>
        <time>2014-07-31T08:32:54.280Z</time>
      </trkpt>
      <trkpt lat="44.93515" lon="6.78029">
        <ele>1930.5</ele>
        <time>2014-07-31T08:32:55.300Z</time>
      </trkpt>
      <trkpt lat="44.93515" lon="6.78032">
        <ele>1931</ele>
        <time>2014-07-31T08:32:56.300Z</time>
      </trkpt>
      <trkpt lat="44.93514" lon="6.78035">
        <ele>1931</ele>
        <time>2014-07-31T08:32:57.300Z</time>
      </trkpt>
      <trkpt lat="44.93514" lon="6.78037">
        <ele>1931</ele>
        <time>2014-07-31T08:32:58.300Z</time>
      </trkpt>
      <trkpt lat="44.93513" lon="6.78039">
        <ele>1931</ele>
        <time>2014-07-31T08:32:59.300Z</time>
      </trkpt>
      <trkpt lat="44.93512" lon="6.78043">
        <ele>1931</ele>
        <time>2014-07-31T08:33:01.200Z</time>
      </trkpt>
      <trkpt lat="44.93511" lon="6.78045">
        <ele>1931</ele>
        <time>2014-07-31T08:33:02.200Z</time>
      </trkpt>
      <trkpt lat="44.93511" lon="6.78046">
        <ele>1931</ele>
        <time>2014-07-31T08:33:03.300Z</time>
      </trkpt>
      <trkpt lat="44.93511" lon="6.78051">
        <ele>1933</ele>
        <time>2014-07-31T08:33:06.200Z</time>
      </trkpt>
      <trkpt lat="44.9351" lon="6.78053">
        <ele>1933</ele>
        <time>2014-07-31T08:33:07.200Z</time>
      </trkpt>
      <trkpt lat="44.9351" lon="6.78056">
        <ele>1933</ele>
        <time>2014-07-31T08:33:08.200Z</time>
      </trkpt>
      <trkpt lat="44.9351" lon="6.78057">
        <ele>1933</ele>
        <time>2014-07-31T08:33:09.200Z</time>
      </trkpt>
      <trkpt lat="44.93509" lon="6.78059">
        <ele>1933</ele>
        <time>2014-07-31T08:33:10.200Z</time>
      </trkpt>
      <trkpt lat="44.93509" lon="6.78061">
        <ele>1933</ele>
        <time>2014-07-31T08:33:11.200Z</time>
      </trkpt>
      <trkpt lat="44.93509" lon="6.78064">
        <ele>1933</ele>
        <time>2014-07-31T08:33:12.200Z</time>
      </trkpt>
      <trkpt lat="44.93508" lon="6.78067">
        <ele>1933</ele>
        <time>2014-07-31T08:33:13.280Z</time>
      </trkpt>
      <trkpt lat="44.93508" lon="6.78069">
        <ele>1933</ele>
        <time>2014-07-31T08:33:14.300Z</time>
      </trkpt>
      <trkpt lat="44.93507" lon="6.78072">
        <ele>1934.5</ele>
        <time>2014-07-31T08:33:15.300Z</time>
      </trkpt>
      <trkpt lat="44.93507" lon="6.78074">
        <ele>1935</ele>
        <time>2014-07-31T08:33:16.300Z</time>
      </trkpt>
      <trkpt lat="44.93505" lon="6.78078">
        <ele>1935</ele>
        <time>2014-07-31T08:33:18.300Z</time>
      </trkpt>
      <trkpt lat="44.93504" lon="6.7808">
        <ele>1935</ele>
        <time>2014-07-31T08:33:19.300Z</time>
      </trkpt>
      <trkpt lat="44.93504" lon="6.78083">
        <ele>1935</ele>
        <time>2014-07-31T08:33:20.300Z</time>
      </trkpt>
      <trkpt lat="44.93504" lon="6.78085">
        <ele>1935</ele>
        <time>2014-07-31T08:33:21.300Z</time>
      </trkpt>
      <trkpt lat="44.93503" lon="6.78089">
        <ele>1935</ele>
        <time>2014-07-31T08:33:23.200Z</time>
      </trkpt>
      <trkpt lat="44.93503" lon="6.78092">
        <ele>1935</ele>
        <time>2014-07-31T08:33:24.200Z</time>
      </trkpt>
      <trkpt lat="44.93503" lon="6.78095">
        <ele>1936.9</ele>
        <time>2014-07-31T08:33:25.200Z</time>
      </trkpt>
      <trkpt lat="44.93503" lon="6.78097">
        <ele>1938</ele>
        <time>2014-07-31T08:33:26.200Z</time>
      </trkpt>
      <trkpt lat="44.93503" lon="6.78099">
        <ele>1938</ele>
        <time>2014-07-31T08:33:27.200Z</time>
      </trkpt>
      <trkpt lat="44.93502" lon="6.78101">
        <ele>1938</ele>
        <time>2014-07-31T08:33:28.200Z</time>
      </trkpt>
      <trkpt lat="44.93502" lon="6.78103">
        <ele>1938</ele>
        <time>2014-07-31T08:33:29.200Z</time>
      </trkpt>
      <trkpt lat="44.93502" lon="6.78105">
        <ele>1939.3</ele>
        <time>2014-07-31T08:33:30.200Z</time>
      </trkpt>
      <trkpt lat="44.93502" lon="6.78108">
        <ele>1940</ele>
        <time>2014-07-31T08:33:31.200Z</time>
      </trkpt>
      <trkpt lat="44.93503" lon="6.78109">
        <ele>1940</ele>
        <time>2014-07-31T08:33:32.200Z</time>
      </trkpt>
      <trkpt lat="44.93502" lon="6.78111">
        <ele>1940</ele>
        <time>2014-07-31T08:33:33.200Z</time>
      </trkpt>
      <trkpt lat="44.93502" lon="6.78113">
        <ele>1940</ele>
        <time>2014-07-31T08:33:34.220Z</time>
      </trkpt>
      <trkpt lat="44.93502" lon="6.78115">
        <ele>1940</ele>
        <time>2014-07-31T08:33:35.300Z</time>
      </trkpt>
      <trkpt lat="44.93501" lon="6.78117">
        <ele>1940</ele>
        <time>2014-07-31T08:33:36.300Z</time>
      </trkpt>
      <trkpt lat="44.93501" lon="6.78119">
        <ele>1940</ele>
        <time>2014-07-31T08:33:37.300Z</time>
      </trkpt>
      <trkpt lat="44.93501" lon="6.78121">
        <ele>1940</ele>
        <time>2014-07-31T08:33:38.300Z</time>
      </trkpt>
      <trkpt lat="44.935" lon="6.78124">
        <ele>1940</ele>
        <time>2014-07-31T08:33:40.200Z</time>
      </trkpt>
      <trkpt lat="44.93501" lon="6.78126">
        <ele>1940</ele>
        <time>2014-07-31T08:33:41.200Z</time>
      </trkpt>
      <trkpt lat="44.93501" lon="6.78129">
        <ele>1940</ele>
        <time>2014-07-31T08:33:42.200Z</time>
      </trkpt>
      <trkpt lat="44.93501" lon="6.78131">
        <ele>1940</ele>
        <time>2014-07-31T08:33:43.200Z</time>
      </trkpt>
      <trkpt lat="44.93501" lon="6.78133">
        <ele>1940</ele>
        <time>2014-07-31T08:33:44.200Z</time>
      </trkpt>
      <trkpt lat="44.93501" lon="6.78135">
        <ele>1941.4</ele>
        <time>2014-07-31T08:33:45.260Z</time>
      </trkpt>
      <trkpt lat="44.93501" lon="6.78137">
        <ele>1942</ele>
        <time>2014-07-31T08:33:46.200Z</time>
      </trkpt>
      <trkpt lat="44.93502" lon="6.78139">
        <ele>1942</ele>
        <time>2014-07-31T08:33:47.200Z</time>
      </trkpt>
      <trkpt lat="44.93502" lon="6.78142">
        <ele>1942</ele>
        <time>2014-07-31T08:33:48.200Z</time>
      </trkpt>
      <trkpt lat="44.93502" lon="6.78143">
        <ele>1942</ele>
        <time>2014-07-31T08:33:49.200Z</time>
      </trkpt>
      <trkpt lat="44.93503" lon="6.78145">
        <ele>1942</ele>
        <time>2014-07-31T08:33:50.200Z</time>
      </trkpt>
      <trkpt lat="44.93503" lon="6.78147">
        <ele>1942</ele>
        <time>2014-07-31T08:33:51.260Z</time>
      </trkpt>
      <trkpt lat="44.93503" lon="6.78149">
        <ele>1942</ele>
        <time>2014-07-31T08:33:52.300Z</time>
      </trkpt>
      <trkpt lat="44.93504" lon="6.78151">
        <ele>1942</ele>
        <time>2014-07-31T08:33:53.300Z</time>
      </trkpt>
      <trkpt lat="44.93504" lon="6.78153">
        <ele>1942</ele>
        <time>2014-07-31T08:33:54.300Z</time>
      </trkpt>
      <trkpt lat="44.93504" lon="6.78155">
        <ele>1943.5</ele>
        <time>2014-07-31T08:33:55.300Z</time>
      </trkpt>
      <trkpt lat="44.93504" lon="6.7816">
        <ele>1944</ele>
        <time>2014-07-31T08:33:57.280Z</time>
      </trkpt>
      <trkpt lat="44.93504" lon="6.78162">
        <ele>1944</ele>
        <time>2014-07-31T08:33:58.300Z</time>
      </trkpt>
      <trkpt lat="44.93504" lon="6.78164">
        <ele>1944</ele>
        <time>2014-07-31T08:33:59.300Z</time>
      </trkpt>
      <trkpt lat="44.93503" lon="6.78168">
        <ele>1944</ele>
        <time>2014-07-31T08:34:01.200Z</time>
      </trkpt>
      <trkpt lat="44.93503" lon="6.7817">
        <ele>1944</ele>
        <time>2014-07-31T08:34:02.200Z</time>
      </trkpt>
      <trkpt lat="44.93503" lon="6.78173">
        <ele>1944</ele>
        <time>2014-07-31T08:34:03.300Z</time>
      </trkpt>
      <trkpt lat="44.93503" lon="6.78175">
        <ele>1944</ele>
        <time>2014-07-31T08:34:04.300Z</time>
      </trkpt>
      <trkpt lat="44.93502" lon="6.78177">
        <ele>1945.5</ele>
        <time>2014-07-31T08:34:05.300Z</time>
      </trkpt>
      <trkpt lat="44.93502" lon="6.78179">
        <ele>1946</ele>
        <time>2014-07-31T08:34:06.300Z</time>
      </trkpt>
      <trkpt lat="44.93502" lon="6.78183">
        <ele>1946</ele>
        <time>2014-07-31T08:34:08.200Z</time>
      </trkpt>
      <trkpt lat="44.93501" lon="6.78185">
        <ele>1946</ele>
        <time>2014-07-31T08:34:09.200Z</time>
      </trkpt>
      <trkpt lat="44.93501" lon="6.78188">
        <ele>1946</ele>
        <time>2014-07-31T08:34:10.200Z</time>
      </trkpt>
      <trkpt lat="44.93501" lon="6.7819">
        <ele>1946</ele>
        <time>2014-07-31T08:34:11.200Z</time>
      </trkpt>
      <trkpt lat="44.93501" lon="6.78192">
        <ele>1946</ele>
        <time>2014-07-31T08:34:12.200Z</time>
      </trkpt>
      <trkpt lat="44.93501" lon="6.78194">
        <ele>1946</ele>
        <time>2014-07-31T08:34:13.260Z</time>
      </trkpt>
      <trkpt lat="44.93501" lon="6.78196">
        <ele>1946</ele>
        <time>2014-07-31T08:34:14.300Z</time>
      </trkpt>
      <trkpt lat="44.93501" lon="6.78198">
        <ele>1947.5</ele>
        <time>2014-07-31T08:34:15.300Z</time>
      </trkpt>
      <trkpt lat="44.93502" lon="6.782">
        <ele>1948</ele>
        <time>2014-07-31T08:34:16.300Z</time>
      </trkpt>
      <trkpt lat="44.93502" lon="6.78204">
        <ele>1948</ele>
        <time>2014-07-31T08:34:18.220Z</time>
      </trkpt>
      <trkpt lat="44.93503" lon="6.78205">
        <ele>1948</ele>
        <time>2014-07-31T08:34:19.300Z</time>
      </trkpt>
      <trkpt lat="44.93504" lon="6.78207">
        <ele>1948</ele>
        <time>2014-07-31T08:34:20.300Z</time>
      </trkpt>
      <trkpt lat="44.93505" lon="6.78208">
        <ele>1948</ele>
        <time>2014-07-31T08:34:21.300Z</time>
      </trkpt>
      <trkpt lat="44.93506" lon="6.7821">
        <ele>1948</ele>
        <time>2014-07-31T08:34:22.300Z</time>
      </trkpt>
      <trkpt lat="44.93507" lon="6.78212">
        <ele>1948</ele>
        <time>2014-07-31T08:34:23.300Z</time>
      </trkpt>
      <trkpt lat="44.93508" lon="6.78214">
        <ele>1948</ele>
        <time>2014-07-31T08:34:24.300Z</time>
      </trkpt>
      <trkpt lat="44.93509" lon="6.78215">
        <ele>1949.5</ele>
        <time>2014-07-31T08:34:25.300Z</time>
      </trkpt>
      <trkpt lat="44.9351" lon="6.78217">
        <ele>1950</ele>
        <time>2014-07-31T08:34:26.300Z</time>
      </trkpt>
      <trkpt lat="44.93512" lon="6.78218">
        <ele>1950</ele>
        <time>2014-07-31T08:34:27.300Z</time>
      </trkpt>
      <trkpt lat="44.93514" lon="6.78221">
        <ele>1950</ele>
        <time>2014-07-31T08:34:29.200Z</time>
      </trkpt>
      <trkpt lat="44.93515" lon="6.78223">
        <ele>1950</ele>
        <time>2014-07-31T08:34:30.260Z</time>
      </trkpt>
      <trkpt lat="44.93517" lon="6.78225">
        <ele>1950</ele>
        <time>2014-07-31T08:34:31.300Z</time>
      </trkpt>
      <trkpt lat="44.93518" lon="6.78226">
        <ele>1950</ele>
        <time>2014-07-31T08:34:32.300Z</time>
      </trkpt>
      <trkpt lat="44.93519" lon="6.78227">
        <ele>1950</ele>
        <time>2014-07-31T08:34:33.300Z</time>
      </trkpt>
      <trkpt lat="44.93522" lon="6.7823">
        <ele>1950.6</ele>
        <time>2014-07-31T08:34:35.200Z</time>
      </trkpt>
      <trkpt lat="44.93524" lon="6.78231">
        <ele>1951</ele>
        <time>2014-07-31T08:34:36.200Z</time>
      </trkpt>
      <trkpt lat="44.93526" lon="6.78233">
        <ele>1951</ele>
        <time>2014-07-31T08:34:37.200Z</time>
      </trkpt>
      <trkpt lat="44.93527" lon="6.78235">
        <ele>1951</ele>
        <time>2014-07-31T08:34:38.200Z</time>
      </trkpt>
      <trkpt lat="44.93528" lon="6.78236">
        <ele>1951</ele>
        <time>2014-07-31T08:34:39.200Z</time>
      </trkpt>
      <trkpt lat="44.9353" lon="6.78238">
        <ele>1951</ele>
        <time>2014-07-31T08:34:40.200Z</time>
      </trkpt>
      <trkpt lat="44.93531" lon="6.78239">
        <ele>1951</ele>
        <time>2014-07-31T08:34:41.180Z</time>
      </trkpt>
      <trkpt lat="44.93533" lon="6.78241">
        <ele>1951</ele>
        <time>2014-07-31T08:34:42.200Z</time>
      </trkpt>
      <trkpt lat="44.93534" lon="6.78242">
        <ele>1951</ele>
        <time>2014-07-31T08:34:43.200Z</time>
      </trkpt>
      <trkpt lat="44.93535" lon="6.78244">
        <ele>1951</ele>
        <time>2014-07-31T08:34:44.200Z</time>
      </trkpt>
      <trkpt lat="44.93536" lon="6.78246">
        <ele>1952.3</ele>
        <time>2014-07-31T08:34:45.200Z</time>
      </trkpt>
      <trkpt lat="44.93537" lon="6.78248">
        <ele>1953</ele>
        <time>2014-07-31T08:34:46.200Z</time>
      </trkpt>
      <trkpt lat="44.93538" lon="6.7825">
        <ele>1953</ele>
        <time>2014-07-31T08:34:47.260Z</time>
      </trkpt>
      <trkpt lat="44.93539" lon="6.78252">
        <ele>1953</ele>
        <time>2014-07-31T08:34:48.300Z</time>
      </trkpt>
      <trkpt lat="44.9354" lon="6.78254">
        <ele>1953</ele>
        <time>2014-07-31T08:34:49.300Z</time>
      </trkpt>
      <trkpt lat="44.9354" lon="6.78255">
        <ele>1953</ele>
        <time>2014-07-31T08:34:50.300Z</time>
      </trkpt>
      <trkpt lat="44.93541" lon="6.78259">
        <ele>1953</ele>
        <time>2014-07-31T08:34:52.180Z</time>
      </trkpt>
      <trkpt lat="44.93542" lon="6.78261">
        <ele>1953</ele>
        <time>2014-07-31T08:34:53.200Z</time>
      </trkpt>
      <trkpt lat="44.93542" lon="6.78264">
        <ele>1953</ele>
        <time>2014-07-31T08:34:54.200Z</time>
      </trkpt>
      <trkpt lat="44.93543" lon="6.78266">
        <ele>1954.3</ele>
        <time>2014-07-31T08:34:55.200Z</time>
      </trkpt>
      <trkpt lat="44.93544" lon="6.78268">
        <ele>1955</ele>
        <time>2014-07-31T08:34:56.200Z</time>
      </trkpt>
      <trkpt lat="44.93545" lon="6.78271">
        <ele>1955</ele>
        <time>2014-07-31T08:34:57.200Z</time>
      </trkpt>
      <trkpt lat="44.93546" lon="6.78273">
        <ele>1955</ele>
        <time>2014-07-31T08:34:58.200Z</time>
      </trkpt>
      <trkpt lat="44.93546" lon="6.78276">
        <ele>1955</ele>
        <time>2014-07-31T08:34:59.200Z</time>
      </trkpt>
      <trkpt lat="44.93547" lon="6.78278">
        <ele>1955</ele>
        <time>2014-07-31T08:35:00.260Z</time>
      </trkpt>
      <trkpt lat="44.93548" lon="6.7828">
        <ele>1955</ele>
        <time>2014-07-31T08:35:01.280Z</time>
      </trkpt>
      <trkpt lat="44.93548" lon="6.78283">
        <ele>1955</ele>
        <time>2014-07-31T08:35:02.300Z</time>
      </trkpt>
      <trkpt lat="44.93549" lon="6.78285">
        <ele>1955</ele>
        <time>2014-07-31T08:35:03.300Z</time>
      </trkpt>
      <trkpt lat="44.93551" lon="6.7829">
        <ele>1956.3</ele>
        <time>2014-07-31T08:35:05.200Z</time>
      </trkpt>
      <trkpt lat="44.93551" lon="6.78292">
        <ele>1957</ele>
        <time>2014-07-31T08:35:06.200Z</time>
      </trkpt>
      <trkpt lat="44.93551" lon="6.78294">
        <ele>1957</ele>
        <time>2014-07-31T08:35:07.200Z</time>
      </trkpt>
      <trkpt lat="44.93551" lon="6.78296">
        <ele>1957</ele>
        <time>2014-07-31T08:35:08.200Z</time>
      </trkpt>
      <trkpt lat="44.93552" lon="6.78299">
        <ele>1957</ele>
        <time>2014-07-31T08:35:09.200Z</time>
      </trkpt>
      <trkpt lat="44.93553" lon="6.78301">
        <ele>1957</ele>
        <time>2014-07-31T08:35:10.200Z</time>
      </trkpt>
      <trkpt lat="44.93553" lon="6.78304">
        <ele>1957</ele>
        <time>2014-07-31T08:35:11.200Z</time>
      </trkpt>
      <trkpt lat="44.93553" lon="6.78307">
        <ele>1957</ele>
        <time>2014-07-31T08:35:12.180Z</time>
      </trkpt>
      <trkpt lat="44.93554" lon="6.78309">
        <ele>1957</ele>
        <time>2014-07-31T08:35:13.300Z</time>
      </trkpt>
      <trkpt lat="44.93554" lon="6.78311">
        <ele>1957</ele>
        <time>2014-07-31T08:35:14.300Z</time>
      </trkpt>
      <trkpt lat="44.93554" lon="6.78314">
        <ele>1958.5</ele>
        <time>2014-07-31T08:35:15.300Z</time>
      </trkpt>
      <trkpt lat="44.93555" lon="6.78316">
        <ele>1959</ele>
        <time>2014-07-31T08:35:16.300Z</time>
      </trkpt>
      <trkpt lat="44.93556" lon="6.78321">
        <ele>1959</ele>
        <time>2014-07-31T08:35:18.200Z</time>
      </trkpt>
      <trkpt lat="44.93556" lon="6.78324">
        <ele>1959</ele>
        <time>2014-07-31T08:35:19.200Z</time>
      </trkpt>
      <trkpt lat="44.93557" lon="6.78326">
        <ele>1959</ele>
        <time>2014-07-31T08:35:20.200Z</time>
      </trkpt>
      <trkpt lat="44.93557" lon="6.78328">
        <ele>1959</ele>
        <time>2014-07-31T08:35:21.200Z</time>
      </trkpt>
      <trkpt lat="44.93557" lon="6.78331">
        <ele>1959</ele>
        <time>2014-07-31T08:35:22.300Z</time>
      </trkpt>
      <trkpt lat="44.93557" lon="6.78333">
        <ele>1959</ele>
        <time>2014-07-31T08:35:23.300Z</time>
      </trkpt>
      <trkpt lat="44.93557" lon="6.78339">
        <ele>1959.6</ele>
        <time>2014-07-31T08:35:25.200Z</time>
      </trkpt>
      <trkpt lat="44.93557" lon="6.78342">
        <ele>1960</ele>
        <time>2014-07-31T08:35:26.200Z</time>
      </trkpt>
      <trkpt lat="44.93557" lon="6.78344">
        <ele>1960</ele>
        <time>2014-07-31T08:35:27.200Z</time>
      </trkpt>
      <trkpt lat="44.93556" lon="6.78346">
        <ele>1960</ele>
        <time>2014-07-31T08:35:28.200Z</time>
      </trkpt>
      <trkpt lat="44.93557" lon="6.78348">
        <ele>1960</ele>
        <time>2014-07-31T08:35:29.200Z</time>
      </trkpt>
      <trkpt lat="44.93557" lon="6.78351">
        <ele>1960</ele>
        <time>2014-07-31T08:35:30.200Z</time>
      </trkpt>
      <trkpt lat="44.93557" lon="6.78353">
        <ele>1960</ele>
        <time>2014-07-31T08:35:31.200Z</time>
      </trkpt>
      <trkpt lat="44.93557" lon="6.78355">
        <ele>1960</ele>
        <time>2014-07-31T08:35:32.200Z</time>
      </trkpt>
      <trkpt lat="44.93557" lon="6.78357">
        <ele>1960</ele>
        <time>2014-07-31T08:35:33.200Z</time>
      </trkpt>
      <trkpt lat="44.93557" lon="6.78359">
        <ele>1960</ele>
        <time>2014-07-31T08:35:34.260Z</time>
      </trkpt>
      <trkpt lat="44.93557" lon="6.78361">
        <ele>1962.2</ele>
        <time>2014-07-31T08:35:35.300Z</time>
      </trkpt>
      <trkpt lat="44.93557" lon="6.78364">
        <ele>1963</ele>
        <time>2014-07-31T08:35:36.300Z</time>
      </trkpt>
      <trkpt lat="44.93556" lon="6.78366">
        <ele>1963</ele>
        <time>2014-07-31T08:35:37.300Z</time>
      </trkpt>
      <trkpt lat="44.93555" lon="6.78373">
        <ele>1963</ele>
        <time>2014-07-31T08:35:39.200Z</time>
      </trkpt>
      <trkpt lat="44.93555" lon="6.78377">
        <ele>1964.3</ele>
        <time>2014-07-31T08:35:40.200Z</time>
      </trkpt>
      <trkpt lat="44.93554" lon="6.7838">
        <ele>1965</ele>
        <time>2014-07-31T08:35:41.200Z</time>
      </trkpt>
      <trkpt lat="44.93553" lon="6.78383">
        <ele>1965</ele>
        <time>2014-07-31T08:35:42.200Z</time>
      </trkpt>
      <trkpt lat="44.93552" lon="6.78386">
        <ele>1965</ele>
        <time>2014-07-31T08:35:43.200Z</time>
      </trkpt>
      <trkpt lat="44.93551" lon="6.78389">
        <ele>1965</ele>
        <time>2014-07-31T08:35:44.200Z</time>
      </trkpt>
      <trkpt lat="44.9355" lon="6.78391">
        <ele>1965</ele>
        <time>2014-07-31T08:35:45.200Z</time>
      </trkpt>
      <trkpt lat="44.93549" lon="6.78394">
        <ele>1965</ele>
        <time>2014-07-31T08:35:46.200Z</time>
      </trkpt>
      <trkpt lat="44.93548" lon="6.78397">
        <ele>1965</ele>
        <time>2014-07-31T08:35:47.200Z</time>
      </trkpt>
      <trkpt lat="44.93547" lon="6.78399">
        <ele>1965</ele>
        <time>2014-07-31T08:35:48.280Z</time>
      </trkpt>
      <trkpt lat="44.93545" lon="6.78401">
        <ele>1965</ele>
        <time>2014-07-31T08:35:49.200Z</time>
      </trkpt>
      <trkpt lat="44.93544" lon="6.78404">
        <ele>1965</ele>
        <time>2014-07-31T08:35:50.200Z</time>
      </trkpt>
      <trkpt lat="44.93543" lon="6.78406">
        <ele>1965</ele>
        <time>2014-07-31T08:35:51.260Z</time>
      </trkpt>
      <trkpt lat="44.93541" lon="6.78408">
        <ele>1965</ele>
        <time>2014-07-31T08:35:52.300Z</time>
      </trkpt>
      <trkpt lat="44.9354" lon="6.7841">
        <ele>1965</ele>
        <time>2014-07-31T08:35:53.300Z</time>
      </trkpt>
      <trkpt lat="44.93538" lon="6.78413">
        <ele>1965</ele>
        <time>2014-07-31T08:35:54.300Z</time>
      </trkpt>
      <trkpt lat="44.93536" lon="6.78417">
        <ele>1966</ele>
        <time>2014-07-31T08:35:56.200Z</time>
      </trkpt>
      <trkpt lat="44.93535" lon="6.7842">
        <ele>1966</ele>
        <time>2014-07-31T08:35:57.200Z</time>
      </trkpt>
      <trkpt lat="44.93534" lon="6.78423">
        <ele>1966</ele>
        <time>2014-07-31T08:35:58.300Z</time>
      </trkpt>
      <trkpt lat="44.93534" lon="6.78426">
        <ele>1966</ele>
        <time>2014-07-31T08:35:59.280Z</time>
      </trkpt>
      <trkpt lat="44.93532" lon="6.78431">
        <ele>1966</ele>
        <time>2014-07-31T08:36:01.190Z</time>
      </trkpt>
      <trkpt lat="44.93531" lon="6.78434">
        <ele>1966</ele>
        <time>2014-07-31T08:36:02.200Z</time>
      </trkpt>
      <trkpt lat="44.9353" lon="6.78437">
        <ele>1966</ele>
        <time>2014-07-31T08:36:03.200Z</time>
      </trkpt>
      <trkpt lat="44.93529" lon="6.7844">
        <ele>1966</ele>
        <time>2014-07-31T08:36:04.200Z</time>
      </trkpt>
      <trkpt lat="44.93529" lon="6.78442">
        <ele>1967.3</ele>
        <time>2014-07-31T08:36:05.200Z</time>
      </trkpt>
      <trkpt lat="44.93528" lon="6.78445">
        <ele>1968</ele>
        <time>2014-07-31T08:36:06.200Z</time>
      </trkpt>
      <trkpt lat="44.93526" lon="6.78448">
        <ele>1968</ele>
        <time>2014-07-31T08:36:07.200Z</time>
      </trkpt>
      <trkpt lat="44.93525" lon="6.78451">
        <ele>1968</ele>
        <time>2014-07-31T08:36:08.300Z</time>
      </trkpt>
      <trkpt lat="44.93524" lon="6.78453">
        <ele>1968</ele>
        <time>2014-07-31T08:36:09.300Z</time>
      </trkpt>
      <trkpt lat="44.93523" lon="6.78456">
        <ele>1968</ele>
        <time>2014-07-31T08:36:10.300Z</time>
      </trkpt>
      <trkpt lat="44.93523" lon="6.78459">
        <ele>1968</ele>
        <time>2014-07-31T08:36:11.300Z</time>
      </trkpt>
      <trkpt lat="44.93523" lon="6.78465">
        <ele>1968</ele>
        <time>2014-07-31T08:36:13.200Z</time>
      </trkpt>
      <trkpt lat="44.93523" lon="6.78468">
        <ele>1968</ele>
        <time>2014-07-31T08:36:14.200Z</time>
      </trkpt>
      <trkpt lat="44.93522" lon="6.78471">
        <ele>1968</ele>
        <time>2014-07-31T08:36:15.200Z</time>
      </trkpt>
      <trkpt lat="44.93522" lon="6.78474">
        <ele>1968</ele>
        <time>2014-07-31T08:36:16.200Z</time>
      </trkpt>
      <trkpt lat="44.93521" lon="6.78477">
        <ele>1968</ele>
        <time>2014-07-31T08:36:17.200Z</time>
      </trkpt>
      <trkpt lat="44.9352" lon="6.7848">
        <ele>1968</ele>
        <time>2014-07-31T08:36:18.300Z</time>
      </trkpt>
      <trkpt lat="44.93519" lon="6.78483">
        <ele>1968</ele>
        <time>2014-07-31T08:36:19.300Z</time>
      </trkpt>
      <trkpt lat="44.93518" lon="6.78486">
        <ele>1968</ele>
        <time>2014-07-31T08:36:20.280Z</time>
      </trkpt>
      <trkpt lat="44.93516" lon="6.78489">
        <ele>1968</ele>
        <time>2014-07-31T08:36:21.300Z</time>
      </trkpt>
      <trkpt lat="44.93515" lon="6.78491">
        <ele>1968</ele>
        <time>2014-07-31T08:36:22.300Z</time>
      </trkpt>
      <trkpt lat="44.93513" lon="6.78494">
        <ele>1968</ele>
        <time>2014-07-31T08:36:23.300Z</time>
      </trkpt>
      <trkpt lat="44.93512" lon="6.78496">
        <ele>1968</ele>
        <time>2014-07-31T08:36:24.300Z</time>
      </trkpt>
      <trkpt lat="44.9351" lon="6.78499">
        <ele>1968</ele>
        <time>2014-07-31T08:36:25.300Z</time>
      </trkpt>
      <trkpt lat="44.93509" lon="6.78502">
        <ele>1968</ele>
        <time>2014-07-31T08:36:26.300Z</time>
      </trkpt>
      <trkpt lat="44.93507" lon="6.78505">
        <ele>1968</ele>
        <time>2014-07-31T08:36:27.300Z</time>
      </trkpt>
      <trkpt lat="44.93505" lon="6.78508">
        <ele>1968</ele>
        <time>2014-07-31T08:36:28.300Z</time>
      </trkpt>
      <trkpt lat="44.93501" lon="6.78514">
        <ele>1968</ele>
        <time>2014-07-31T08:36:30.200Z</time>
      </trkpt>
      <trkpt lat="44.93498" lon="6.78517">
        <ele>1968</ele>
        <time>2014-07-31T08:36:31.180Z</time>
      </trkpt>
      <trkpt lat="44.93495" lon="6.78519">
        <ele>1968</ele>
        <time>2014-07-31T08:36:32.200Z</time>
      </trkpt>
      <trkpt lat="44.93493" lon="6.78521">
        <ele>1968</ele>
        <time>2014-07-31T08:36:33.200Z</time>
      </trkpt>
      <trkpt lat="44.9349" lon="6.78524">
        <ele>1968</ele>
        <time>2014-07-31T08:36:34.260Z</time>
      </trkpt>
      <trkpt lat="44.93487" lon="6.78526">
        <ele>1968</ele>
        <time>2014-07-31T08:36:35.300Z</time>
      </trkpt>
      <trkpt lat="44.93483" lon="6.78527">
        <ele>1968</ele>
        <time>2014-07-31T08:36:36.300Z</time>
      </trkpt>
      <trkpt lat="44.9348" lon="6.78529">
        <ele>1968</ele>
        <time>2014-07-31T08:36:37.300Z</time>
      </trkpt>
      <trkpt lat="44.93477" lon="6.78531">
        <ele>1968</ele>
        <time>2014-07-31T08:36:38.300Z</time>
      </trkpt>
      <trkpt lat="44.93473" lon="6.78532">
        <ele>1968</ele>
        <time>2014-07-31T08:36:39.300Z</time>
      </trkpt>
      <trkpt lat="44.9347" lon="6.78533">
        <ele>1968</ele>
        <time>2014-07-31T08:36:40.300Z</time>
      </trkpt>
      <trkpt lat="44.93466" lon="6.78534">
        <ele>1968</ele>
        <time>2014-07-31T08:36:41.300Z</time>
      </trkpt>
      <trkpt lat="44.93462" lon="6.78534">
        <ele>1968</ele>
        <time>2014-07-31T08:36:42.280Z</time>
      </trkpt>
      <trkpt lat="44.93458" lon="6.78534">
        <ele>1968</ele>
        <time>2014-07-31T08:36:43.300Z</time>
      </trkpt>
      <trkpt lat="44.93453" lon="6.78534">
        <ele>1968</ele>
        <time>2014-07-31T08:36:44.300Z</time>
      </trkpt>
      <trkpt lat="44.93449" lon="6.78535">
        <ele>1968</ele>
        <time>2014-07-31T08:36:45.300Z</time>
      </trkpt>
      <trkpt lat="44.9344" lon="6.78537">
        <ele>1968</ele>
        <time>2014-07-31T08:36:47.200Z</time>
      </trkpt>
      <trkpt lat="44.93435" lon="6.78539">
        <ele>1968</ele>
        <time>2014-07-31T08:36:48.200Z</time>
      </trkpt>
      <trkpt lat="44.93431" lon="6.78542">
        <ele>1968</ele>
        <time>2014-07-31T08:36:49.200Z</time>
      </trkpt>
      <trkpt lat="44.93427" lon="6.78546">
        <ele>1968</ele>
        <time>2014-07-31T08:36:50.200Z</time>
      </trkpt>
      <trkpt lat="44.93423" lon="6.7855">
        <ele>1968</ele>
        <time>2014-07-31T08:36:51.260Z</time>
      </trkpt>
      <trkpt lat="44.9342" lon="6.78555">
        <ele>1968</ele>
        <time>2014-07-31T08:36:52.300Z</time>
      </trkpt>
      <trkpt lat="44.93417" lon="6.78564">
        <ele>1968</ele>
        <time>2014-07-31T08:36:54.200Z</time>
      </trkpt>
      <trkpt lat="44.93416" lon="6.78568">
        <ele>1968</ele>
        <time>2014-07-31T08:36:55.200Z</time>
      </trkpt>
      <trkpt lat="44.93415" lon="6.78571">
        <ele>1968</ele>
        <time>2014-07-31T08:36:56.200Z</time>
      </trkpt>
      <trkpt lat="44.93415" lon="6.78574">
        <ele>1968</ele>
        <time>2014-07-31T08:36:57.200Z</time>
      </trkpt>
      <trkpt lat="44.93415" lon="6.78577">
        <ele>1968</ele>
        <time>2014-07-31T08:36:58.200Z</time>
      </trkpt>
      <trkpt lat="44.93414" lon="6.78579">
        <ele>1968</ele>
        <time>2014-07-31T08:36:59.200Z</time>
      </trkpt>
      <trkpt lat="44.93414" lon="6.78581">
        <ele>1968</ele>
        <time>2014-07-31T08:37:00.260Z</time>
      </trkpt>
      <trkpt lat="44.93413" lon="6.78583">
        <ele>1968</ele>
        <time>2014-07-31T08:37:01.300Z</time>
      </trkpt>
      <trkpt lat="44.93412" lon="6.78586">
        <ele>1968</ele>
        <time>2014-07-31T08:37:02.300Z</time>
      </trkpt>
      <trkpt lat="44.93411" lon="6.78588">
        <ele>1968</ele>
        <time>2014-07-31T08:37:03.230Z</time>
      </trkpt>
      <trkpt lat="44.9341" lon="6.7859">
        <ele>1968</ele>
        <time>2014-07-31T08:37:04.300Z</time>
      </trkpt>
      <trkpt lat="44.93409" lon="6.78592">
        <ele>1968.7</ele>
        <time>2014-07-31T08:37:05.300Z</time>
      </trkpt>
      <trkpt lat="44.93408" lon="6.78594">
        <ele>1969</ele>
        <time>2014-07-31T08:37:06.300Z</time>
      </trkpt>
      <trkpt lat="44.93407" lon="6.78596">
        <ele>1969</ele>
        <time>2014-07-31T08:37:07.300Z</time>
      </trkpt>
      <trkpt lat="44.93406" lon="6.78598">
        <ele>1969</ele>
        <time>2014-07-31T08:37:08.300Z</time>
      </trkpt>
      <trkpt lat="44.93405" lon="6.786">
        <ele>1969</ele>
        <time>2014-07-31T08:37:09.300Z</time>
      </trkpt>
      <trkpt lat="44.93404" lon="6.78603">
        <ele>1969</ele>
        <time>2014-07-31T08:37:10.300Z</time>
      </trkpt>
      <trkpt lat="44.93403" lon="6.78604">
        <ele>1969</ele>
        <time>2014-07-31T08:37:11.300Z</time>
      </trkpt>
      <trkpt lat="44.93402" lon="6.78605">
        <ele>1969</ele>
        <time>2014-07-31T08:37:12.300Z</time>
      </trkpt>
      <trkpt lat="44.934" lon="6.78606">
        <ele>1969</ele>
        <time>2014-07-31T08:37:14.200Z</time>
      </trkpt>
      <trkpt lat="44.93399" lon="6.78607">
        <ele>1970</ele>
        <time>2014-07-31T08:37:16.200Z</time>
      </trkpt>
      <trkpt lat="44.93398" lon="6.78608">
        <ele>1970</ele>
        <time>2014-07-31T08:37:17.200Z</time>
      </trkpt>
      <trkpt lat="44.93397" lon="6.7861">
        <ele>1970</ele>
        <time>2014-07-31T08:37:18.300Z</time>
      </trkpt>
      <trkpt lat="44.93395" lon="6.78611">
        <ele>1970</ele>
        <time>2014-07-31T08:37:19.300Z</time>
      </trkpt>
      <trkpt lat="44.93392" lon="6.78614">
        <ele>1970</ele>
        <time>2014-07-31T08:37:21.200Z</time>
      </trkpt>
      <trkpt lat="44.9339" lon="6.78616">
        <ele>1970</ele>
        <time>2014-07-31T08:37:22.200Z</time>
      </trkpt>
      <trkpt lat="44.93388" lon="6.78617">
        <ele>1970</ele>
        <time>2014-07-31T08:37:23.200Z</time>
      </trkpt>
      <trkpt lat="44.93387" lon="6.78618">
        <ele>1970</ele>
        <time>2014-07-31T08:37:24.200Z</time>
      </trkpt>
      <trkpt lat="44.93385" lon="6.78619">
        <ele>1971.5</ele>
        <time>2014-07-31T08:37:25.300Z</time>
      </trkpt>
      <trkpt lat="44.93382" lon="6.78619">
        <ele>1972</ele>
        <time>2014-07-31T08:37:26.300Z</time>
      </trkpt>
      <trkpt lat="44.9338" lon="6.78619">
        <ele>1972</ele>
        <time>2014-07-31T08:37:27.300Z</time>
      </trkpt>
      <trkpt lat="44.93377" lon="6.7862">
        <ele>1972</ele>
        <time>2014-07-31T08:37:29.200Z</time>
      </trkpt>
      <trkpt lat="44.93376" lon="6.78621">
        <ele>1972</ele>
        <time>2014-07-31T08:37:30.200Z</time>
      </trkpt>
      <trkpt lat="44.93375" lon="6.78623">
        <ele>1972</ele>
        <time>2014-07-31T08:37:32.200Z</time>
      </trkpt>
      <trkpt lat="44.93375" lon="6.78625">
        <ele>1972</ele>
        <time>2014-07-31T08:37:33.200Z</time>
      </trkpt>
      <trkpt lat="44.93374" lon="6.78627">
        <ele>1972</ele>
        <time>2014-07-31T08:37:34.260Z</time>
      </trkpt>
      <trkpt lat="44.93374" lon="6.78629">
        <ele>1973.5</ele>
        <time>2014-07-31T08:37:35.300Z</time>
      </trkpt>
      <trkpt lat="44.93373" lon="6.78631">
        <ele>1974</ele>
        <time>2014-07-31T08:37:36.300Z</time>
      </trkpt>
      <trkpt lat="44.93372" lon="6.78635">
        <ele>1974</ele>
        <time>2014-07-31T08:37:38.200Z</time>
      </trkpt>
      <trkpt lat="44.93372" lon="6.78637">
        <ele>1974</ele>
        <time>2014-07-31T08:37:39.200Z</time>
      </trkpt>
      <trkpt lat="44.93371" lon="6.78639">
        <ele>1974</ele>
        <time>2014-07-31T08:37:40.200Z</time>
      </trkpt>
      <trkpt lat="44.9337" lon="6.7864">
        <ele>1974</ele>
        <time>2014-07-31T08:37:41.200Z</time>
      </trkpt>
      <trkpt lat="44.93369" lon="6.78642">
        <ele>1974</ele>
        <time>2014-07-31T08:37:42.200Z</time>
      </trkpt>
      <trkpt lat="44.93368" lon="6.78644">
        <ele>1974</ele>
        <time>2014-07-31T08:37:43.300Z</time>
      </trkpt>
      <trkpt lat="44.93368" lon="6.78645">
        <ele>1974</ele>
        <time>2014-07-31T08:37:44.300Z</time>
      </trkpt>
      <trkpt lat="44.93368" lon="6.78646">
        <ele>1975.5</ele>
        <time>2014-07-31T08:37:45.300Z</time>
      </trkpt>
      <trkpt lat="44.93368" lon="6.78649">
        <ele>1976</ele>
        <time>2014-07-31T08:37:47.300Z</time>
      </trkpt>
      <trkpt lat="44.93367" lon="6.78651">
        <ele>1976</ele>
        <time>2014-07-31T08:37:48.280Z</time>
      </trkpt>
      <trkpt lat="44.93367" lon="6.78653">
        <ele>1976</ele>
        <time>2014-07-31T08:37:49.300Z</time>
      </trkpt>
      <trkpt lat="44.93367" lon="6.78655">
        <ele>1976</ele>
        <time>2014-07-31T08:37:50.300Z</time>
      </trkpt>
      <trkpt lat="44.93365" lon="6.78658">
        <ele>1976</ele>
        <time>2014-07-31T08:37:52.200Z</time>
      </trkpt>
      <trkpt lat="44.93364" lon="6.7866">
        <ele>1976</ele>
        <time>2014-07-31T08:37:53.200Z</time>
      </trkpt>
      <trkpt lat="44.93363" lon="6.78661">
        <ele>1976</ele>
        <time>2014-07-31T08:37:54.260Z</time>
      </trkpt>
      <trkpt lat="44.93361" lon="6.78663">
        <ele>1978.2</ele>
        <time>2014-07-31T08:37:55.300Z</time>
      </trkpt>
      <trkpt lat="44.93361" lon="6.78665">
        <ele>1979</ele>
        <time>2014-07-31T08:37:56.300Z</time>
      </trkpt>
      <trkpt lat="44.93359" lon="6.78667">
        <ele>1979</ele>
        <time>2014-07-31T08:37:57.300Z</time>
      </trkpt>
      <trkpt lat="44.93359" lon="6.78669">
        <ele>1979</ele>
        <time>2014-07-31T08:37:58.300Z</time>
      </trkpt>
      <trkpt lat="44.93358" lon="6.7867">
        <ele>1979</ele>
        <time>2014-07-31T08:37:59.280Z</time>
      </trkpt>
      <trkpt lat="44.93356" lon="6.78672">
        <ele>1981</ele>
        <time>2014-07-31T08:38:01.200Z</time>
      </trkpt>
      <trkpt lat="44.93354" lon="6.78673">
        <ele>1981</ele>
        <time>2014-07-31T08:38:02.200Z</time>
      </trkpt>
      <trkpt lat="44.93353" lon="6.78675">
        <ele>1981</ele>
        <time>2014-07-31T08:38:03.200Z</time>
      </trkpt>
      <trkpt lat="44.93351" lon="6.78676">
        <ele>1981</ele>
        <time>2014-07-31T08:38:04.280Z</time>
      </trkpt>
      <trkpt lat="44.9335" lon="6.78677">
        <ele>1981.6</ele>
        <time>2014-07-31T08:38:05.200Z</time>
      </trkpt>
      <trkpt lat="44.93349" lon="6.78678">
        <ele>1982</ele>
        <time>2014-07-31T08:38:07.200Z</time>
      </trkpt>
      <trkpt lat="44.93348" lon="6.78679">
        <ele>1982</ele>
        <time>2014-07-31T08:38:08.200Z</time>
      </trkpt>
      <trkpt lat="44.93347" lon="6.78681">
        <ele>1982</ele>
        <time>2014-07-31T08:38:09.180Z</time>
      </trkpt>
      <trkpt lat="44.93346" lon="6.78683">
        <ele>1983.3</ele>
        <time>2014-07-31T08:38:10.200Z</time>
      </trkpt>
      <trkpt lat="44.93345" lon="6.78685">
        <ele>1984</ele>
        <time>2014-07-31T08:38:11.200Z</time>
      </trkpt>
      <trkpt lat="44.93344" lon="6.78686">
        <ele>1984</ele>
        <time>2014-07-31T08:38:12.300Z</time>
      </trkpt>
      <trkpt lat="44.93343" lon="6.78686">
        <ele>1984</ele>
        <time>2014-07-31T08:38:13.300Z</time>
      </trkpt>
      <trkpt lat="44.93342" lon="6.78687">
        <ele>1984</ele>
        <time>2014-07-31T08:38:14.300Z</time>
      </trkpt>
      <trkpt lat="44.93341" lon="6.78689">
        <ele>1984</ele>
        <time>2014-07-31T08:38:15.300Z</time>
      </trkpt>
      <trkpt lat="44.9334" lon="6.7869">
        <ele>1984</ele>
        <time>2014-07-31T08:38:16.300Z</time>
      </trkpt>
      <trkpt lat="44.93338" lon="6.78693">
        <ele>1984</ele>
        <time>2014-07-31T08:38:18.200Z</time>
      </trkpt>
      <trkpt lat="44.93337" lon="6.78694">
        <ele>1984</ele>
        <time>2014-07-31T08:38:19.200Z</time>
      </trkpt>
      <trkpt lat="44.93336" lon="6.78695">
        <ele>1984</ele>
        <time>2014-07-31T08:38:20.180Z</time>
      </trkpt>
      <trkpt lat="44.93334" lon="6.78696">
        <ele>1984</ele>
        <time>2014-07-31T08:38:21.200Z</time>
      </trkpt>
      <trkpt lat="44.93333" lon="6.78698">
        <ele>1984</ele>
        <time>2014-07-31T08:38:22.200Z</time>
      </trkpt>
      <trkpt lat="44.93331" lon="6.787">
        <ele>1984</ele>
        <time>2014-07-31T08:38:23.200Z</time>
      </trkpt>
      <trkpt lat="44.9333" lon="6.78701">
        <ele>1984</ele>
        <time>2014-07-31T08:38:24.200Z</time>
      </trkpt>
      <trkpt lat="44.93329" lon="6.78702">
        <ele>1984.6</ele>
        <time>2014-07-31T08:38:25.200Z</time>
      </trkpt>
      <trkpt lat="44.93327" lon="6.78703">
        <ele>1985</ele>
        <time>2014-07-31T08:38:26.200Z</time>
      </trkpt>
      <trkpt lat="44.93326" lon="6.78705">
        <ele>1985</ele>
        <time>2014-07-31T08:38:27.200Z</time>
      </trkpt>
      <trkpt lat="44.93325" lon="6.78706">
        <ele>1985</ele>
        <time>2014-07-31T08:38:28.260Z</time>
      </trkpt>
      <trkpt lat="44.93323" lon="6.78707">
        <ele>1985</ele>
        <time>2014-07-31T08:38:29.300Z</time>
      </trkpt>
      <trkpt lat="44.93322" lon="6.78708">
        <ele>1985</ele>
        <time>2014-07-31T08:38:30.300Z</time>
      </trkpt>
      <trkpt lat="44.93321" lon="6.78708">
        <ele>1985</ele>
        <time>2014-07-31T08:38:32.300Z</time>
      </trkpt>
      <trkpt lat="44.93319" lon="6.78709">
        <ele>1985</ele>
        <time>2014-07-31T08:38:34.260Z</time>
      </trkpt>
      <trkpt lat="44.93318" lon="6.7871">
        <ele>1985.7</ele>
        <time>2014-07-31T08:38:35.300Z</time>
      </trkpt>
      <trkpt lat="44.93317" lon="6.78711">
        <ele>1986</ele>
        <time>2014-07-31T08:38:36.300Z</time>
      </trkpt>
      <trkpt lat="44.93316" lon="6.78712">
        <ele>1986</ele>
        <time>2014-07-31T08:38:37.300Z</time>
      </trkpt>
      <trkpt lat="44.93314" lon="6.78713">
        <ele>1986</ele>
        <time>2014-07-31T08:38:38.300Z</time>
      </trkpt>
      <trkpt lat="44.93313" lon="6.78713">
        <ele>1986</ele>
        <time>2014-07-31T08:38:39.300Z</time>
      </trkpt>
      <trkpt lat="44.93311" lon="6.78713">
        <ele>1986</ele>
        <time>2014-07-31T08:38:40.300Z</time>
      </trkpt>
      <trkpt lat="44.9331" lon="6.78714">
        <ele>1986</ele>
        <time>2014-07-31T08:38:41.300Z</time>
      </trkpt>
      <trkpt lat="44.93308" lon="6.78715">
        <ele>1986</ele>
        <time>2014-07-31T08:38:42.300Z</time>
      </trkpt>
      <trkpt lat="44.93307" lon="6.78717">
        <ele>1986</ele>
        <time>2014-07-31T08:38:43.300Z</time>
      </trkpt>
      <trkpt lat="44.93305" lon="6.78718">
        <ele>1986</ele>
        <time>2014-07-31T08:38:44.300Z</time>
      </trkpt>
      <trkpt lat="44.93303" lon="6.7872">
        <ele>1988</ele>
        <time>2014-07-31T08:38:46.200Z</time>
      </trkpt>
      <trkpt lat="44.93302" lon="6.78722">
        <ele>1988</ele>
        <time>2014-07-31T08:38:47.200Z</time>
      </trkpt>
      <trkpt lat="44.933" lon="6.78723">
        <ele>1988</ele>
        <time>2014-07-31T08:38:48.300Z</time>
      </trkpt>
      <trkpt lat="44.93298" lon="6.78724">
        <ele>1988</ele>
        <time>2014-07-31T08:38:49.300Z</time>
      </trkpt>
      <trkpt lat="44.93297" lon="6.78725">
        <ele>1988</ele>
        <time>2014-07-31T08:38:50.300Z</time>
      </trkpt>
      <trkpt lat="44.93294" lon="6.78727">
        <ele>1988</ele>
        <time>2014-07-31T08:38:52.200Z</time>
      </trkpt>
      <trkpt lat="44.93292" lon="6.78728">
        <ele>1988</ele>
        <time>2014-07-31T08:38:53.280Z</time>
      </trkpt>
      <trkpt lat="44.9329" lon="6.78729">
        <ele>1988</ele>
        <time>2014-07-31T08:38:54.180Z</time>
      </trkpt>
      <trkpt lat="44.93288" lon="6.7873">
        <ele>1988</ele>
        <time>2014-07-31T08:38:55.200Z</time>
      </trkpt>
      <trkpt lat="44.93286" lon="6.78731">
        <ele>1988</ele>
        <time>2014-07-31T08:38:56.200Z</time>
      </trkpt>
      <trkpt lat="44.93286" lon="6.78732">
        <ele>1988</ele>
        <time>2014-07-31T08:38:57.200Z</time>
      </trkpt>
      <trkpt lat="44.93286" lon="6.78734">
        <ele>1988</ele>
        <time>2014-07-31T08:39:00.260Z</time>
      </trkpt>
      <trkpt lat="44.93285" lon="6.78736">
        <ele>1988</ele>
        <time>2014-07-31T08:39:03.200Z</time>
      </trkpt>
      <trkpt lat="44.93284" lon="6.78737">
        <ele>1988</ele>
        <time>2014-07-31T08:39:05.200Z</time>
      </trkpt>
      <trkpt lat="44.93284" lon="6.78735">
        <ele>1988</ele>
        <time>2014-07-31T08:39:12.200Z</time>
      </trkpt>
      <trkpt lat="44.93283" lon="6.78734">
        <ele>1988</ele>
        <time>2014-07-31T08:39:15.200Z</time>
      </trkpt>
      <trkpt lat="44.93283" lon="6.78736">
        <ele>1988</ele>
        <time>2014-07-31T08:39:22.200Z</time>
      </trkpt>
      <trkpt lat="44.93284" lon="6.78737">
        <ele>1986</ele>
        <time>2014-07-31T08:39:30.200Z</time>
      </trkpt>
      <trkpt lat="44.93285" lon="6.78737">
        <ele>1986</ele>
        <time>2014-07-31T08:39:32.200Z</time>
      </trkpt>
      <trkpt lat="44.93286" lon="6.78738">
        <ele>1986</ele>
        <time>2014-07-31T08:39:37.200Z</time>
      </trkpt>
      <trkpt lat="44.93287" lon="6.78738">
        <ele>1986</ele>
        <time>2014-07-31T08:39:43.200Z</time>
      </trkpt>
      <trkpt lat="44.93286" lon="6.78736">
        <ele>1986</ele>
        <time>2014-07-31T08:39:51.260Z</time>
      </trkpt>
      <trkpt lat="44.93285" lon="6.78735">
        <ele>1986</ele>
        <time>2014-07-31T08:39:52.300Z</time>
      </trkpt>
      <trkpt lat="44.93284" lon="6.78734">
        <ele>1986</ele>
        <time>2014-07-31T08:39:54.200Z</time>
      </trkpt>
      <trkpt lat="44.93283" lon="6.78734">
        <ele>1986</ele>
        <time>2014-07-31T08:39:57.200Z</time>
      </trkpt>
      <trkpt lat="44.93283" lon="6.78735">
        <ele>1986</ele>
        <time>2014-07-31T08:40:00.190Z</time>
      </trkpt>
      <trkpt lat="44.93282" lon="6.78733">
        <ele>1986</ele>
        <time>2014-07-31T08:40:04.200Z</time>
      </trkpt>
      <trkpt lat="44.93282" lon="6.78732">
        <ele>1988</ele>
        <time>2014-07-31T08:40:07.200Z</time>
      </trkpt>
      <trkpt lat="44.93281" lon="6.78731">
        <ele>1988</ele>
        <time>2014-07-31T08:40:15.200Z</time>
      </trkpt>
      <trkpt lat="44.93281" lon="6.78729">
        <ele>1988</ele>
        <time>2014-07-31T08:40:16.200Z</time>
      </trkpt>
      <trkpt lat="44.9328" lon="6.78728">
        <ele>1988</ele>
        <time>2014-07-31T08:40:18.300Z</time>
      </trkpt>
      <trkpt lat="44.93281" lon="6.78727">
        <ele>1988</ele>
        <time>2014-07-31T08:40:21.300Z</time>
      </trkpt>
      <trkpt lat="44.93281" lon="6.78725">
        <ele>1988</ele>
        <time>2014-07-31T08:40:36.300Z</time>
      </trkpt>
      <trkpt lat="44.93282" lon="6.78726">
        <ele>1988</ele>
        <time>2014-07-31T08:40:58.180Z</time>
      </trkpt>
      <trkpt lat="44.93282" lon="6.78726">
        <ele>1988</ele>
        <time>2014-07-31T08:41:00.090Z</time>
      </trkpt>
      <trkpt lat="44.93281" lon="6.78726">
        <ele>1988</ele>
        <time>2014-07-31T08:41:11.300Z</time>
      </trkpt>
      <trkpt lat="44.9328" lon="6.78724">
        <ele>1988</ele>
        <time>2014-07-31T08:41:14.300Z</time>
      </trkpt>
      <trkpt lat="44.93281" lon="6.78722">
        <ele>1988</ele>
        <time>2014-07-31T08:41:18.260Z</time>
      </trkpt>
      <trkpt lat="44.93282" lon="6.78722">
        <ele>1988</ele>
        <time>2014-07-31T08:41:19.300Z</time>
      </trkpt>
      <trkpt lat="44.93283" lon="6.78723">
        <ele>1988</ele>
        <time>2014-07-31T08:41:20.300Z</time>
      </trkpt>
      <trkpt lat="44.93283" lon="6.78724">
        <ele>1988</ele>
        <time>2014-07-31T08:41:23.300Z</time>
      </trkpt>
      <trkpt lat="44.93284" lon="6.78726">
        <ele>1988.7</ele>
        <time>2014-07-31T08:41:25.280Z</time>
      </trkpt>
      <trkpt lat="44.93285" lon="6.78727">
        <ele>1989</ele>
        <time>2014-07-31T08:41:28.300Z</time>
      </trkpt>
      <trkpt lat="44.93286" lon="6.78728">
        <ele>1989</ele>
        <time>2014-07-31T08:41:32.300Z</time>
      </trkpt>
      <trkpt lat="44.93284" lon="6.78731">
        <ele>1989</ele>
        <time>2014-07-31T08:41:35.260Z</time>
      </trkpt>
      <trkpt lat="44.93285" lon="6.78732">
        <ele>1989</ele>
        <time>2014-07-31T08:41:38.280Z</time>
      </trkpt>
      <trkpt lat="44.93286" lon="6.78732">
        <ele>1988.3</ele>
        <time>2014-07-31T08:41:45.300Z</time>
      </trkpt>
      <trkpt lat="44.93285" lon="6.78732">
        <ele>1988</ele>
        <time>2014-07-31T08:41:55.200Z</time>
      </trkpt>
      <trkpt lat="44.93285" lon="6.78732">
        <ele>1988</ele>
        <time>2014-07-31T08:42:00.260Z</time>
      </trkpt>
      <trkpt lat="44.93285" lon="6.78731">
        <ele>1988</ele>
        <time>2014-07-31T08:42:31.200Z</time>
      </trkpt>
      <trkpt lat="44.93287" lon="6.7873">
        <ele>1988</ele>
        <time>2014-07-31T08:42:47.300Z</time>
      </trkpt>
      <trkpt lat="44.93288" lon="6.78731">
        <ele>1988</ele>
        <time>2014-07-31T08:42:48.300Z</time>
      </trkpt>
      <trkpt lat="44.93288" lon="6.78733">
        <ele>1988</ele>
        <time>2014-07-31T08:42:50.300Z</time>
      </trkpt>
      <trkpt lat="44.93286" lon="6.78732">
        <ele>1988</ele>
        <time>2014-07-31T08:42:52.200Z</time>
      </trkpt>
      <trkpt lat="44.93285" lon="6.78731">
        <ele>1988</ele>
        <time>2014-07-31T08:42:57.200Z</time>
      </trkpt>
      <trkpt lat="44.93284" lon="6.78731">
        <ele>1988</ele>
        <time>2014-07-31T08:43:00.280Z</time>
      </trkpt>
      <trkpt lat="44.93283" lon="6.78731">
        <ele>1988</ele>
        <time>2014-07-31T08:43:01.300Z</time>
      </trkpt>
      <trkpt lat="44.93282" lon="6.78731">
        <ele>1988</ele>
        <time>2014-07-31T08:43:03.300Z</time>
      </trkpt>
      <trkpt lat="44.9328" lon="6.78731">
        <ele>1988</ele>
        <time>2014-07-31T08:43:04.300Z</time>
      </trkpt>
      <trkpt lat="44.93279" lon="6.78732">
        <ele>1988</ele>
        <time>2014-07-31T08:43:05.300Z</time>
      </trkpt>
      <trkpt lat="44.93277" lon="6.78733">
        <ele>1988</ele>
        <time>2014-07-31T08:43:06.300Z</time>
      </trkpt>
      <trkpt lat="44.93275" lon="6.78734">
        <ele>1988</ele>
        <time>2014-07-31T08:43:07.300Z</time>
      </trkpt>
      <trkpt lat="44.93273" lon="6.78735">
        <ele>1988</ele>
        <time>2014-07-31T08:43:08.300Z</time>
      </trkpt>
      <trkpt lat="44.9327" lon="6.78736">
        <ele>1988</ele>
        <time>2014-07-31T08:43:09.300Z</time>
      </trkpt>
      <trkpt lat="44.93267" lon="6.78737">
        <ele>1988</ele>
        <time>2014-07-31T08:43:10.300Z</time>
      </trkpt>
      <trkpt lat="44.93265" lon="6.78738">
        <ele>1988</ele>
        <time>2014-07-31T08:43:11.300Z</time>
      </trkpt>
      <trkpt lat="44.93261" lon="6.7874">
        <ele>1988</ele>
        <time>2014-07-31T08:43:12.300Z</time>
      </trkpt>
      <trkpt lat="44.93258" lon="6.78742">
        <ele>1988</ele>
        <time>2014-07-31T08:43:13.280Z</time>
      </trkpt>
      <trkpt lat="44.93255" lon="6.78745">
        <ele>1988</ele>
        <time>2014-07-31T08:43:14.300Z</time>
      </trkpt>
      <trkpt lat="44.93251" lon="6.78748">
        <ele>1985.8</ele>
        <time>2014-07-31T08:43:15.300Z</time>
      </trkpt>
      <trkpt lat="44.93247" lon="6.7875">
        <ele>1985</ele>
        <time>2014-07-31T08:43:16.300Z</time>
      </trkpt>
      <trkpt lat="44.93239" lon="6.78756">
        <ele>1985</ele>
        <time>2014-07-31T08:43:18.200Z</time>
      </trkpt>
      <trkpt lat="44.93235" lon="6.78759">
        <ele>1985</ele>
        <time>2014-07-31T08:43:19.200Z</time>
      </trkpt>
      <trkpt lat="44.93231" lon="6.78762">
        <ele>1984.4</ele>
        <time>2014-07-31T08:43:20.200Z</time>
      </trkpt>
      <trkpt lat="44.93226" lon="6.78765">
        <ele>1984</ele>
        <time>2014-07-31T08:43:21.200Z</time>
      </trkpt>
      <trkpt lat="44.93221" lon="6.78768">
        <ele>1984</ele>
        <time>2014-07-31T08:43:22.200Z</time>
      </trkpt>
      <trkpt lat="44.93216" lon="6.7877">
        <ele>1984</ele>
        <time>2014-07-31T08:43:23.200Z</time>
      </trkpt>
      <trkpt lat="44.93211" lon="6.78771">
        <ele>1984</ele>
        <time>2014-07-31T08:43:24.200Z</time>
      </trkpt>
      <trkpt lat="44.93206" lon="6.78771">
        <ele>1983.4</ele>
        <time>2014-07-31T08:43:25.200Z</time>
      </trkpt>
      <trkpt lat="44.932" lon="6.78772">
        <ele>1983</ele>
        <time>2014-07-31T08:43:26.180Z</time>
      </trkpt>
      <trkpt lat="44.93194" lon="6.78774">
        <ele>1983</ele>
        <time>2014-07-31T08:43:27.300Z</time>
      </trkpt>
      <trkpt lat="44.93188" lon="6.78776">
        <ele>1983</ele>
        <time>2014-07-31T08:43:28.300Z</time>
      </trkpt>
      <trkpt lat="44.9318" lon="6.78778">
        <ele>1983</ele>
        <time>2014-07-31T08:43:29.300Z</time>
      </trkpt>
      <trkpt lat="44.93173" lon="6.7878">
        <ele>1983</ele>
        <time>2014-07-31T08:43:30.300Z</time>
      </trkpt>
      <trkpt lat="44.93166" lon="6.78783">
        <ele>1983</ele>
        <time>2014-07-31T08:43:31.300Z</time>
      </trkpt>
      <trkpt lat="44.93158" lon="6.78786">
        <ele>1983</ele>
        <time>2014-07-31T08:43:32.300Z</time>
      </trkpt>
      <trkpt lat="44.93143" lon="6.78793">
        <ele>1983</ele>
        <time>2014-07-31T08:43:34.120Z</time>
      </trkpt>
      <trkpt lat="44.93135" lon="6.78796">
        <ele>1981.1</ele>
        <time>2014-07-31T08:43:35.200Z</time>
      </trkpt>
      <trkpt lat="44.93128" lon="6.78799">
        <ele>1980</ele>
        <time>2014-07-31T08:43:36.200Z</time>
      </trkpt>
      <trkpt lat="44.9312" lon="6.78802">
        <ele>1980</ele>
        <time>2014-07-31T08:43:37.200Z</time>
      </trkpt>
      <trkpt lat="44.93112" lon="6.78805">
        <ele>1980</ele>
        <time>2014-07-31T08:43:38.200Z</time>
      </trkpt>
      <trkpt lat="44.93105" lon="6.78808">
        <ele>1980</ele>
        <time>2014-07-31T08:43:39.200Z</time>
      </trkpt>
      <trkpt lat="44.93098" lon="6.7881">
        <ele>1977.5</ele>
        <time>2014-07-31T08:43:40.200Z</time>
      </trkpt>
      <trkpt lat="44.93092" lon="6.78812">
        <ele>1976</ele>
        <time>2014-07-31T08:43:41.200Z</time>
      </trkpt>
      <trkpt lat="44.93088" lon="6.78813">
        <ele>1976</ele>
        <time>2014-07-31T08:43:42.200Z</time>
      </trkpt>
      <trkpt lat="44.93087" lon="6.78815">
        <ele>1976</ele>
        <time>2014-07-31T08:43:43.200Z</time>
      </trkpt>
      <trkpt lat="44.93086" lon="6.78816">
        <ele>1976</ele>
        <time>2014-07-31T08:43:44.200Z</time>
      </trkpt>
      <trkpt lat="44.93085" lon="6.78816">
        <ele>1972</ele>
        <time>2014-07-31T08:43:46.280Z</time>
      </trkpt>
      <trkpt lat="44.93084" lon="6.78815">
        <ele>1972</ele>
        <time>2014-07-31T08:43:47.200Z</time>
      </trkpt>
      <trkpt lat="44.93084" lon="6.78814">
        <ele>1972</ele>
        <time>2014-07-31T08:43:48.200Z</time>
      </trkpt>
      <trkpt lat="44.93084" lon="6.78812">
        <ele>1971.4</ele>
        <time>2014-07-31T08:43:49.180Z</time>
      </trkpt>
      <trkpt lat="44.93084" lon="6.7881">
        <ele>1971.6</ele>
        <time>2014-07-31T08:43:50.200Z</time>
      </trkpt>
      <trkpt lat="44.93083" lon="6.78808">
        <ele>1972</ele>
        <time>2014-07-31T08:43:51.280Z</time>
      </trkpt>
      <trkpt lat="44.93082" lon="6.78806">
        <ele>1972</ele>
        <time>2014-07-31T08:43:52.300Z</time>
      </trkpt>
      <trkpt lat="44.93082" lon="6.78805">
        <ele>1972</ele>
        <time>2014-07-31T08:43:53.300Z</time>
      </trkpt>
      <trkpt lat="44.93081" lon="6.78803">
        <ele>1972</ele>
        <time>2014-07-31T08:43:54.300Z</time>
      </trkpt>
      <trkpt lat="44.9308" lon="6.78802">
        <ele>1972</ele>
        <time>2014-07-31T08:43:55.300Z</time>
      </trkpt>
      <trkpt lat="44.93079" lon="6.78801">
        <ele>1972</ele>
        <time>2014-07-31T08:43:56.300Z</time>
      </trkpt>
      <trkpt lat="44.93078" lon="6.78799">
        <ele>1972</ele>
        <time>2014-07-31T08:43:58.300Z</time>
      </trkpt>
      <trkpt lat="44.93077" lon="6.78799">
        <ele>1972</ele>
        <time>2014-07-31T08:43:59.300Z</time>
      </trkpt>
      <trkpt lat="44.93075" lon="6.78796">
        <ele>1972</ele>
        <time>2014-07-31T08:44:01.190Z</time>
      </trkpt>
      <trkpt lat="44.93074" lon="6.78795">
        <ele>1972</ele>
        <time>2014-07-31T08:44:02.200Z</time>
      </trkpt>
      <trkpt lat="44.93074" lon="6.78794">
        <ele>1972</ele>
        <time>2014-07-31T08:44:03.200Z</time>
      </trkpt>
      <trkpt lat="44.93073" lon="6.78793">
        <ele>1972</ele>
        <time>2014-07-31T08:44:04.200Z</time>
      </trkpt>
      <trkpt lat="44.93072" lon="6.78792">
        <ele>1972.6</ele>
        <time>2014-07-31T08:44:05.200Z</time>
      </trkpt>
      <trkpt lat="44.93071" lon="6.78791">
        <ele>1973</ele>
        <time>2014-07-31T08:44:06.200Z</time>
      </trkpt>
      <trkpt lat="44.9307" lon="6.7879">
        <ele>1973</ele>
        <time>2014-07-31T08:44:07.200Z</time>
      </trkpt>
      <trkpt lat="44.93068" lon="6.78789">
        <ele>1973</ele>
        <time>2014-07-31T08:44:08.260Z</time>
      </trkpt>
      <trkpt lat="44.93067" lon="6.78788">
        <ele>1973</ele>
        <time>2014-07-31T08:44:09.300Z</time>
      </trkpt>
      <trkpt lat="44.93066" lon="6.78787">
        <ele>1973</ele>
        <time>2014-07-31T08:44:10.300Z</time>
      </trkpt>
      <trkpt lat="44.93065" lon="6.78786">
        <ele>1973</ele>
        <time>2014-07-31T08:44:12.300Z</time>
      </trkpt>
      <trkpt lat="44.93063" lon="6.78784">
        <ele>1973</ele>
        <time>2014-07-31T08:44:13.300Z</time>
      </trkpt>
      <trkpt lat="44.93061" lon="6.78783">
        <ele>1973</ele>
        <time>2014-07-31T08:44:14.300Z</time>
      </trkpt>
      <trkpt lat="44.9306" lon="6.78782">
        <ele>1973.7</ele>
        <time>2014-07-31T08:44:15.300Z</time>
      </trkpt>
      <trkpt lat="44.9306" lon="6.78781">
        <ele>1974</ele>
        <time>2014-07-31T08:44:16.300Z</time>
      </trkpt>
      <trkpt lat="44.93058" lon="6.78777">
        <ele>1974</ele>
        <time>2014-07-31T08:44:18.200Z</time>
      </trkpt>
      <trkpt lat="44.93057" lon="6.78775">
        <ele>1974</ele>
        <time>2014-07-31T08:44:19.200Z</time>
      </trkpt>
      <trkpt lat="44.93057" lon="6.78773">
        <ele>1974</ele>
        <time>2014-07-31T08:44:20.200Z</time>
      </trkpt>
      <trkpt lat="44.93057" lon="6.78771">
        <ele>1974</ele>
        <time>2014-07-31T08:44:21.200Z</time>
      </trkpt>
      <trkpt lat="44.93056" lon="6.78769">
        <ele>1974</ele>
        <time>2014-07-31T08:44:22.200Z</time>
      </trkpt>
      <trkpt lat="44.93056" lon="6.78767">
        <ele>1974</ele>
        <time>2014-07-31T08:44:23.280Z</time>
      </trkpt>
      <trkpt lat="44.93055" lon="6.78765">
        <ele>1974</ele>
        <time>2014-07-31T08:44:24.300Z</time>
      </trkpt>
      <trkpt lat="44.93054" lon="6.7876">
        <ele>1976</ele>
        <time>2014-07-31T08:44:26.200Z</time>
      </trkpt>
      <trkpt lat="44.93053" lon="6.78757">
        <ele>1976</ele>
        <time>2014-07-31T08:44:27.200Z</time>
      </trkpt>
      <trkpt lat="44.93053" lon="6.78754">
        <ele>1976</ele>
        <time>2014-07-31T08:44:28.200Z</time>
      </trkpt>
      <trkpt lat="44.93052" lon="6.78751">
        <ele>1976</ele>
        <time>2014-07-31T08:44:29.200Z</time>
      </trkpt>
      <trkpt lat="44.93051" lon="6.78748">
        <ele>1976</ele>
        <time>2014-07-31T08:44:30.200Z</time>
      </trkpt>
      <trkpt lat="44.9305" lon="6.78745">
        <ele>1976</ele>
        <time>2014-07-31T08:44:31.200Z</time>
      </trkpt>
      <trkpt lat="44.93049" lon="6.78743">
        <ele>1976</ele>
        <time>2014-07-31T08:44:32.200Z</time>
      </trkpt>
      <trkpt lat="44.93049" lon="6.7874">
        <ele>1976</ele>
        <time>2014-07-31T08:44:33.200Z</time>
      </trkpt>
      <trkpt lat="44.93049" lon="6.78738">
        <ele>1976</ele>
        <time>2014-07-31T08:44:34.290Z</time>
      </trkpt>
      <trkpt lat="44.93048" lon="6.78733">
        <ele>1977</ele>
        <time>2014-07-31T08:44:36.200Z</time>
      </trkpt>
      <trkpt lat="44.93048" lon="6.7873">
        <ele>1977</ele>
        <time>2014-07-31T08:44:37.200Z</time>
      </trkpt>
      <trkpt lat="44.93048" lon="6.78727">
        <ele>1977</ele>
        <time>2014-07-31T08:44:38.300Z</time>
      </trkpt>
      <trkpt lat="44.93047" lon="6.78724">
        <ele>1977</ele>
        <time>2014-07-31T08:44:39.300Z</time>
      </trkpt>
      <trkpt lat="44.93046" lon="6.78721">
        <ele>1977</ele>
        <time>2014-07-31T08:44:40.300Z</time>
      </trkpt>
      <trkpt lat="44.93045" lon="6.78718">
        <ele>1977</ele>
        <time>2014-07-31T08:44:41.300Z</time>
      </trkpt>
      <trkpt lat="44.93044" lon="6.78714">
        <ele>1977</ele>
        <time>2014-07-31T08:44:43.200Z</time>
      </trkpt>
      <trkpt lat="44.93043" lon="6.78712">
        <ele>1977</ele>
        <time>2014-07-31T08:44:44.200Z</time>
      </trkpt>
      <trkpt lat="44.93042" lon="6.7871">
        <ele>1978.3</ele>
        <time>2014-07-31T08:44:45.200Z</time>
      </trkpt>
      <trkpt lat="44.9304" lon="6.78708">
        <ele>1979</ele>
        <time>2014-07-31T08:44:46.200Z</time>
      </trkpt>
      <trkpt lat="44.93038" lon="6.78706">
        <ele>1979</ele>
        <time>2014-07-31T08:44:47.180Z</time>
      </trkpt>
      <trkpt lat="44.93036" lon="6.78705">
        <ele>1979</ele>
        <time>2014-07-31T08:44:48.200Z</time>
      </trkpt>
      <trkpt lat="44.93035" lon="6.78704">
        <ele>1979</ele>
        <time>2014-07-31T08:44:49.200Z</time>
      </trkpt>
      <trkpt lat="44.93033" lon="6.78703">
        <ele>1979</ele>
        <time>2014-07-31T08:44:50.200Z</time>
      </trkpt>
      <trkpt lat="44.93031" lon="6.78702">
        <ele>1979</ele>
        <time>2014-07-31T08:44:51.260Z</time>
      </trkpt>
      <trkpt lat="44.9303" lon="6.78702">
        <ele>1979</ele>
        <time>2014-07-31T08:44:52.300Z</time>
      </trkpt>
      <trkpt lat="44.93028" lon="6.78701">
        <ele>1979</ele>
        <time>2014-07-31T08:44:53.300Z</time>
      </trkpt>
      <trkpt lat="44.93026" lon="6.78701">
        <ele>1979</ele>
        <time>2014-07-31T08:44:54.300Z</time>
      </trkpt>
      <trkpt lat="44.93024" lon="6.78701">
        <ele>1979.7</ele>
        <time>2014-07-31T08:44:55.300Z</time>
      </trkpt>
      <trkpt lat="44.93022" lon="6.78701">
        <ele>1980</ele>
        <time>2014-07-31T08:44:56.300Z</time>
      </trkpt>
      <trkpt lat="44.93021" lon="6.78701">
        <ele>1980</ele>
        <time>2014-07-31T08:44:57.300Z</time>
      </trkpt>
      <trkpt lat="44.93016" lon="6.78702">
        <ele>1980</ele>
        <time>2014-07-31T08:44:59.060Z</time>
      </trkpt>
      <trkpt lat="44.93014" lon="6.78702">
        <ele>1980</ele>
        <time>2014-07-31T08:45:00.260Z</time>
      </trkpt>
      <trkpt lat="44.93012" lon="6.78702">
        <ele>1980</ele>
        <time>2014-07-31T08:45:01.300Z</time>
      </trkpt>
      <trkpt lat="44.9301" lon="6.78702">
        <ele>1980</ele>
        <time>2014-07-31T08:45:02.300Z</time>
      </trkpt>
      <trkpt lat="44.93008" lon="6.78702">
        <ele>1980</ele>
        <time>2014-07-31T08:45:03.300Z</time>
      </trkpt>
      <trkpt lat="44.93006" lon="6.78702">
        <ele>1980</ele>
        <time>2014-07-31T08:45:04.300Z</time>
      </trkpt>
      <trkpt lat="44.93004" lon="6.78702">
        <ele>1980</ele>
        <time>2014-07-31T08:45:05.300Z</time>
      </trkpt>
      <trkpt lat="44.93002" lon="6.78702">
        <ele>1980</ele>
        <time>2014-07-31T08:45:06.300Z</time>
      </trkpt>
      <trkpt lat="44.92999" lon="6.78702">
        <ele>1980</ele>
        <time>2014-07-31T08:45:07.300Z</time>
      </trkpt>
      <trkpt lat="44.92996" lon="6.78701">
        <ele>1980</ele>
        <time>2014-07-31T08:45:09.200Z</time>
      </trkpt>
      <trkpt lat="44.92994" lon="6.787">
        <ele>1980</ele>
        <time>2014-07-31T08:45:10.200Z</time>
      </trkpt>
      <trkpt lat="44.92992" lon="6.78699">
        <ele>1980</ele>
        <time>2014-07-31T08:45:11.200Z</time>
      </trkpt>
      <trkpt lat="44.9299" lon="6.78698">
        <ele>1980</ele>
        <time>2014-07-31T08:45:12.200Z</time>
      </trkpt>
      <trkpt lat="44.92988" lon="6.78696">
        <ele>1980</ele>
        <time>2014-07-31T08:45:13.200Z</time>
      </trkpt>
      <trkpt lat="44.92987" lon="6.78695">
        <ele>1980</ele>
        <time>2014-07-31T08:45:14.200Z</time>
      </trkpt>
      <trkpt lat="44.92985" lon="6.78694">
        <ele>1980</ele>
        <time>2014-07-31T08:45:15.200Z</time>
      </trkpt>
      <trkpt lat="44.92984" lon="6.78692">
        <ele>1980</ele>
        <time>2014-07-31T08:45:16.260Z</time>
      </trkpt>
      <trkpt lat="44.92982" lon="6.78689">
        <ele>1980</ele>
        <time>2014-07-31T08:45:18.240Z</time>
      </trkpt>
      <trkpt lat="44.9298" lon="6.78688">
        <ele>1980</ele>
        <time>2014-07-31T08:45:19.180Z</time>
      </trkpt>
      <trkpt lat="44.9298" lon="6.78687">
        <ele>1980</ele>
        <time>2014-07-31T08:45:20.200Z</time>
      </trkpt>
      <trkpt lat="44.92979" lon="6.78685">
        <ele>1980</ele>
        <time>2014-07-31T08:45:22.200Z</time>
      </trkpt>
      <trkpt lat="44.92978" lon="6.78684">
        <ele>1980</ele>
        <time>2014-07-31T08:45:24.200Z</time>
      </trkpt>
      <trkpt lat="44.92976" lon="6.78682">
        <ele>1982</ele>
        <time>2014-07-31T08:45:26.200Z</time>
      </trkpt>
      <trkpt lat="44.92974" lon="6.78681">
        <ele>1982</ele>
        <time>2014-07-31T08:45:27.200Z</time>
      </trkpt>
      <trkpt lat="44.92972" lon="6.7868">
        <ele>1982</ele>
        <time>2014-07-31T08:45:28.200Z</time>
      </trkpt>
      <trkpt lat="44.9297" lon="6.78679">
        <ele>1982</ele>
        <time>2014-07-31T08:45:29.200Z</time>
      </trkpt>
      <trkpt lat="44.92969" lon="6.78678">
        <ele>1982</ele>
        <time>2014-07-31T08:45:30.200Z</time>
      </trkpt>
      <trkpt lat="44.92966" lon="6.78677">
        <ele>1982</ele>
        <time>2014-07-31T08:45:31.200Z</time>
      </trkpt>
      <trkpt lat="44.92964" lon="6.78676">
        <ele>1982</ele>
        <time>2014-07-31T08:45:32.200Z</time>
      </trkpt>
      <trkpt lat="44.92962" lon="6.78674">
        <ele>1982</ele>
        <time>2014-07-31T08:45:33.060Z</time>
      </trkpt>
      <trkpt lat="44.9296" lon="6.78673">
        <ele>1982</ele>
        <time>2014-07-31T08:45:34.260Z</time>
      </trkpt>
      <trkpt lat="44.92958" lon="6.78672">
        <ele>1983.5</ele>
        <time>2014-07-31T08:45:35.300Z</time>
      </trkpt>
      <trkpt lat="44.92956" lon="6.78671">
        <ele>1984</ele>
        <time>2014-07-31T08:45:36.300Z</time>
      </trkpt>
      <trkpt lat="44.92954" lon="6.7867">
        <ele>1984</ele>
        <time>2014-07-31T08:45:37.300Z</time>
      </trkpt>
      <trkpt lat="44.92951" lon="6.78668">
        <ele>1984</ele>
        <time>2014-07-31T08:45:38.300Z</time>
      </trkpt>
      <trkpt lat="44.92949" lon="6.78667">
        <ele>1984</ele>
        <time>2014-07-31T08:45:39.300Z</time>
      </trkpt>
      <trkpt lat="44.92946" lon="6.78667">
        <ele>1984</ele>
        <time>2014-07-31T08:45:40.300Z</time>
      </trkpt>
      <trkpt lat="44.92944" lon="6.78666">
        <ele>1984</ele>
        <time>2014-07-31T08:45:41.300Z</time>
      </trkpt>
      <trkpt lat="44.92942" lon="6.78666">
        <ele>1984</ele>
        <time>2014-07-31T08:45:42.300Z</time>
      </trkpt>
      <trkpt lat="44.92939" lon="6.78665">
        <ele>1984</ele>
        <time>2014-07-31T08:45:43.300Z</time>
      </trkpt>
      <trkpt lat="44.92937" lon="6.78664">
        <ele>1984</ele>
        <time>2014-07-31T08:45:44.280Z</time>
      </trkpt>
      <trkpt lat="44.92934" lon="6.78663">
        <ele>1984</ele>
        <time>2014-07-31T08:45:45.300Z</time>
      </trkpt>
      <trkpt lat="44.92931" lon="6.78662">
        <ele>1984</ele>
        <time>2014-07-31T08:45:46.300Z</time>
      </trkpt>
      <trkpt lat="44.92929" lon="6.78661">
        <ele>1984</ele>
        <time>2014-07-31T08:45:47.300Z</time>
      </trkpt>
      <trkpt lat="44.92926" lon="6.78661">
        <ele>1984</ele>
        <time>2014-07-31T08:45:48.300Z</time>
      </trkpt>
      <trkpt lat="44.92924" lon="6.7866">
        <ele>1984</ele>
        <time>2014-07-31T08:45:49.300Z</time>
      </trkpt>
      <trkpt lat="44.92919" lon="6.78658">
        <ele>1984</ele>
        <time>2014-07-31T08:45:51.260Z</time>
      </trkpt>
      <trkpt lat="44.92916" lon="6.78657">
        <ele>1984</ele>
        <time>2014-07-31T08:45:52.300Z</time>
      </trkpt>
      <trkpt lat="44.92911" lon="6.78654">
        <ele>1984</ele>
        <time>2014-07-31T08:45:54.200Z</time>
      </trkpt>
      <trkpt lat="44.92908" lon="6.78654">
        <ele>1984.6</ele>
        <time>2014-07-31T08:45:55.180Z</time>
      </trkpt>
      <trkpt lat="44.92905" lon="6.78654">
        <ele>1985</ele>
        <time>2014-07-31T08:45:56.200Z</time>
      </trkpt>
      <trkpt lat="44.92901" lon="6.78653">
        <ele>1985</ele>
        <time>2014-07-31T08:45:57.200Z</time>
      </trkpt>
      <trkpt lat="44.92898" lon="6.78652">
        <ele>1985</ele>
        <time>2014-07-31T08:45:58.200Z</time>
      </trkpt>
      <trkpt lat="44.92895" lon="6.78653">
        <ele>1985</ele>
        <time>2014-07-31T08:45:59.200Z</time>
      </trkpt>
      <trkpt lat="44.92892" lon="6.78654">
        <ele>1985</ele>
        <time>2014-07-31T08:46:00.260Z</time>
      </trkpt>
      <trkpt lat="44.92889" lon="6.78655">
        <ele>1985</ele>
        <time>2014-07-31T08:46:01.300Z</time>
      </trkpt>
      <trkpt lat="44.92886" lon="6.78657">
        <ele>1985</ele>
        <time>2014-07-31T08:46:02.300Z</time>
      </trkpt>
      <trkpt lat="44.92882" lon="6.78658">
        <ele>1985</ele>
        <time>2014-07-31T08:46:03.300Z</time>
      </trkpt>
      <trkpt lat="44.92878" lon="6.78661">
        <ele>1985</ele>
        <time>2014-07-31T08:46:04.300Z</time>
      </trkpt>
      <trkpt lat="44.92875" lon="6.78663">
        <ele>1987.2</ele>
        <time>2014-07-31T08:46:05.300Z</time>
      </trkpt>
      <trkpt lat="44.92872" lon="6.78665">
        <ele>1988</ele>
        <time>2014-07-31T08:46:06.300Z</time>
      </trkpt>
      <trkpt lat="44.92866" lon="6.78672">
        <ele>1988</ele>
        <time>2014-07-31T08:46:08.200Z</time>
      </trkpt>
      <trkpt lat="44.92863" lon="6.78675">
        <ele>1988</ele>
        <time>2014-07-31T08:46:09.200Z</time>
      </trkpt>
      <trkpt lat="44.92861" lon="6.78679">
        <ele>1988</ele>
        <time>2014-07-31T08:46:10.200Z</time>
      </trkpt>
      <trkpt lat="44.92858" lon="6.78683">
        <ele>1988</ele>
        <time>2014-07-31T08:46:11.200Z</time>
      </trkpt>
      <trkpt lat="44.92855" lon="6.78688">
        <ele>1988</ele>
        <time>2014-07-31T08:46:12.200Z</time>
      </trkpt>
      <trkpt lat="44.92854" lon="6.78691">
        <ele>1988</ele>
        <time>2014-07-31T08:46:13.200Z</time>
      </trkpt>
      <trkpt lat="44.92852" lon="6.78695">
        <ele>1988</ele>
        <time>2014-07-31T08:46:14.200Z</time>
      </trkpt>
      <trkpt lat="44.9285" lon="6.787">
        <ele>1988</ele>
        <time>2014-07-31T08:46:15.200Z</time>
      </trkpt>
      <trkpt lat="44.92848" lon="6.78705">
        <ele>1988</ele>
        <time>2014-07-31T08:46:16.200Z</time>
      </trkpt>
      <trkpt lat="44.92846" lon="6.7871">
        <ele>1988</ele>
        <time>2014-07-31T08:46:17.260Z</time>
      </trkpt>
      <trkpt lat="44.92841" lon="6.78719">
        <ele>1988</ele>
        <time>2014-07-31T08:46:19.200Z</time>
      </trkpt>
      <trkpt lat="44.92839" lon="6.78724">
        <ele>1988</ele>
        <time>2014-07-31T08:46:20.200Z</time>
      </trkpt>
      <trkpt lat="44.92836" lon="6.78728">
        <ele>1988</ele>
        <time>2014-07-31T08:46:21.200Z</time>
      </trkpt>
      <trkpt lat="44.92833" lon="6.78733">
        <ele>1988</ele>
        <time>2014-07-31T08:46:22.200Z</time>
      </trkpt>
      <trkpt lat="44.9283" lon="6.78738">
        <ele>1988</ele>
        <time>2014-07-31T08:46:23.200Z</time>
      </trkpt>
      <trkpt lat="44.92828" lon="6.78742">
        <ele>1988</ele>
        <time>2014-07-31T08:46:24.200Z</time>
      </trkpt>
      <trkpt lat="44.92825" lon="6.78747">
        <ele>1986.5</ele>
        <time>2014-07-31T08:46:25.300Z</time>
      </trkpt>
      <trkpt lat="44.92823" lon="6.78751">
        <ele>1986</ele>
        <time>2014-07-31T08:46:26.300Z</time>
      </trkpt>
      <trkpt lat="44.9282" lon="6.78755">
        <ele>1986</ele>
        <time>2014-07-31T08:46:27.300Z</time>
      </trkpt>
      <trkpt lat="44.92814" lon="6.78762">
        <ele>1986</ele>
        <time>2014-07-31T08:46:29.180Z</time>
      </trkpt>
      <trkpt lat="44.92811" lon="6.78765">
        <ele>1986</ele>
        <time>2014-07-31T08:46:30.200Z</time>
      </trkpt>
      <trkpt lat="44.92808" lon="6.78769">
        <ele>1986</ele>
        <time>2014-07-31T08:46:31.200Z</time>
      </trkpt>
      <trkpt lat="44.92805" lon="6.78772">
        <ele>1986</ele>
        <time>2014-07-31T08:46:32.200Z</time>
      </trkpt>
      <trkpt lat="44.92803" lon="6.78775">
        <ele>1986</ele>
        <time>2014-07-31T08:46:33.200Z</time>
      </trkpt>
      <trkpt lat="44.928" lon="6.78777">
        <ele>1986</ele>
        <time>2014-07-31T08:46:34.260Z</time>
      </trkpt>
      <trkpt lat="44.92797" lon="6.7878">
        <ele>1988.2</ele>
        <time>2014-07-31T08:46:35.300Z</time>
      </trkpt>
      <trkpt lat="44.92795" lon="6.78783">
        <ele>1989</ele>
        <time>2014-07-31T08:46:36.300Z</time>
      </trkpt>
      <trkpt lat="44.92792" lon="6.78786">
        <ele>1989</ele>
        <time>2014-07-31T08:46:37.300Z</time>
      </trkpt>
      <trkpt lat="44.9279" lon="6.78788">
        <ele>1989</ele>
        <time>2014-07-31T08:46:38.300Z</time>
      </trkpt>
      <trkpt lat="44.92787" lon="6.78791">
        <ele>1989</ele>
        <time>2014-07-31T08:46:39.300Z</time>
      </trkpt>
      <trkpt lat="44.92784" lon="6.78794">
        <ele>1989</ele>
        <time>2014-07-31T08:46:40.280Z</time>
      </trkpt>
      <trkpt lat="44.92778" lon="6.788">
        <ele>1989</ele>
        <time>2014-07-31T08:46:42.200Z</time>
      </trkpt>
      <trkpt lat="44.92775" lon="6.78803">
        <ele>1989</ele>
        <time>2014-07-31T08:46:43.200Z</time>
      </trkpt>
      <trkpt lat="44.92773" lon="6.78805">
        <ele>1989</ele>
        <time>2014-07-31T08:46:44.200Z</time>
      </trkpt>
      <trkpt lat="44.9277" lon="6.78807">
        <ele>1989</ele>
        <time>2014-07-31T08:46:45.200Z</time>
      </trkpt>
      <trkpt lat="44.92768" lon="6.7881">
        <ele>1989</ele>
        <time>2014-07-31T08:46:46.200Z</time>
      </trkpt>
      <trkpt lat="44.92766" lon="6.78812">
        <ele>1989</ele>
        <time>2014-07-31T08:46:47.200Z</time>
      </trkpt>
      <trkpt lat="44.92764" lon="6.78814">
        <ele>1989</ele>
        <time>2014-07-31T08:46:48.280Z</time>
      </trkpt>
      <trkpt lat="44.92763" lon="6.78816">
        <ele>1989</ele>
        <time>2014-07-31T08:46:49.200Z</time>
      </trkpt>
      <trkpt lat="44.92761" lon="6.78819">
        <ele>1989</ele>
        <time>2014-07-31T08:46:50.200Z</time>
      </trkpt>
      <trkpt lat="44.9276" lon="6.78823">
        <ele>1989</ele>
        <time>2014-07-31T08:46:51.220Z</time>
      </trkpt>
      <trkpt lat="44.9276" lon="6.78826">
        <ele>1989</ele>
        <time>2014-07-31T08:46:52.300Z</time>
      </trkpt>
      <trkpt lat="44.92759" lon="6.78829">
        <ele>1989</ele>
        <time>2014-07-31T08:46:53.300Z</time>
      </trkpt>
      <trkpt lat="44.92758" lon="6.78832">
        <ele>1989</ele>
        <time>2014-07-31T08:46:54.300Z</time>
      </trkpt>
      <trkpt lat="44.92758" lon="6.78836">
        <ele>1990.5</ele>
        <time>2014-07-31T08:46:55.300Z</time>
      </trkpt>
      <trkpt lat="44.92757" lon="6.78839">
        <ele>1991</ele>
        <time>2014-07-31T08:46:56.300Z</time>
      </trkpt>
      <trkpt lat="44.92756" lon="6.78842">
        <ele>1991</ele>
        <time>2014-07-31T08:46:57.300Z</time>
      </trkpt>
      <trkpt lat="44.92754" lon="6.78849">
        <ele>1991</ele>
        <time>2014-07-31T08:46:59.200Z</time>
      </trkpt>
      <trkpt lat="44.92754" lon="6.78853">
        <ele>1991</ele>
        <time>2014-07-31T08:47:00.260Z</time>
      </trkpt>
      <trkpt lat="44.92753" lon="6.78856">
        <ele>1991</ele>
        <time>2014-07-31T08:47:01.300Z</time>
      </trkpt>
      <trkpt lat="44.92752" lon="6.7886">
        <ele>1991</ele>
        <time>2014-07-31T08:47:02.300Z</time>
      </trkpt>
      <trkpt lat="44.92749" lon="6.78866">
        <ele>1991</ele>
        <time>2014-07-31T08:47:04.200Z</time>
      </trkpt>
      <trkpt lat="44.92747" lon="6.78868">
        <ele>1992.3</ele>
        <time>2014-07-31T08:47:05.200Z</time>
      </trkpt>
      <trkpt lat="44.92746" lon="6.78871">
        <ele>1993</ele>
        <time>2014-07-31T08:47:06.200Z</time>
      </trkpt>
      <trkpt lat="44.92745" lon="6.78874">
        <ele>1993</ele>
        <time>2014-07-31T08:47:07.200Z</time>
      </trkpt>
      <trkpt lat="44.92744" lon="6.78877">
        <ele>1993</ele>
        <time>2014-07-31T08:47:08.200Z</time>
      </trkpt>
      <trkpt lat="44.92742" lon="6.7888">
        <ele>1993</ele>
        <time>2014-07-31T08:47:09.200Z</time>
      </trkpt>
      <trkpt lat="44.92741" lon="6.78884">
        <ele>1993</ele>
        <time>2014-07-31T08:47:10.200Z</time>
      </trkpt>
      <trkpt lat="44.9274" lon="6.78888">
        <ele>1993</ele>
        <time>2014-07-31T08:47:11.200Z</time>
      </trkpt>
      <trkpt lat="44.92739" lon="6.78891">
        <ele>1993</ele>
        <time>2014-07-31T08:47:12.200Z</time>
      </trkpt>
      <trkpt lat="44.92738" lon="6.78894">
        <ele>1993</ele>
        <time>2014-07-31T08:47:13.280Z</time>
      </trkpt>
      <trkpt lat="44.92737" lon="6.78898">
        <ele>1993</ele>
        <time>2014-07-31T08:47:14.300Z</time>
      </trkpt>
      <trkpt lat="44.92734" lon="6.78903">
        <ele>1994</ele>
        <time>2014-07-31T08:47:16.280Z</time>
      </trkpt>
      <trkpt lat="44.92733" lon="6.78906">
        <ele>1994</ele>
        <time>2014-07-31T08:47:17.190Z</time>
      </trkpt>
      <trkpt lat="44.92729" lon="6.78913">
        <ele>1994</ele>
        <time>2014-07-31T08:47:19.200Z</time>
      </trkpt>
      <trkpt lat="44.92728" lon="6.78916">
        <ele>1994</ele>
        <time>2014-07-31T08:47:20.200Z</time>
      </trkpt>
      <trkpt lat="44.92726" lon="6.78919">
        <ele>1994</ele>
        <time>2014-07-31T08:47:21.200Z</time>
      </trkpt>
      <trkpt lat="44.92725" lon="6.78921">
        <ele>1994</ele>
        <time>2014-07-31T08:47:22.200Z</time>
      </trkpt>
      <trkpt lat="44.92723" lon="6.78923">
        <ele>1994</ele>
        <time>2014-07-31T08:47:23.200Z</time>
      </trkpt>
      <trkpt lat="44.92721" lon="6.78926">
        <ele>1994</ele>
        <time>2014-07-31T08:47:24.180Z</time>
      </trkpt>
      <trkpt lat="44.92719" lon="6.78929">
        <ele>1995.3</ele>
        <time>2014-07-31T08:47:25.200Z</time>
      </trkpt>
      <trkpt lat="44.92717" lon="6.78931">
        <ele>1996</ele>
        <time>2014-07-31T08:47:26.200Z</time>
      </trkpt>
      <trkpt lat="44.92715" lon="6.78933">
        <ele>1996</ele>
        <time>2014-07-31T08:47:27.200Z</time>
      </trkpt>
      <trkpt lat="44.92713" lon="6.78936">
        <ele>1996</ele>
        <time>2014-07-31T08:47:28.200Z</time>
      </trkpt>
      <trkpt lat="44.92711" lon="6.78939">
        <ele>1996</ele>
        <time>2014-07-31T08:47:29.200Z</time>
      </trkpt>
      <trkpt lat="44.9271" lon="6.78941">
        <ele>1996</ele>
        <time>2014-07-31T08:47:30.200Z</time>
      </trkpt>
      <trkpt lat="44.92709" lon="6.78944">
        <ele>1996</ele>
        <time>2014-07-31T08:47:31.200Z</time>
      </trkpt>
      <trkpt lat="44.92708" lon="6.78946">
        <ele>1996</ele>
        <time>2014-07-31T08:47:32.260Z</time>
      </trkpt>
      <trkpt lat="44.92706" lon="6.7895">
        <ele>1996</ele>
        <time>2014-07-31T08:47:33.300Z</time>
      </trkpt>
      <trkpt lat="44.92703" lon="6.78956">
        <ele>1996.6</ele>
        <time>2014-07-31T08:47:35.180Z</time>
      </trkpt>
      <trkpt lat="44.92701" lon="6.78959">
        <ele>1997</ele>
        <time>2014-07-31T08:47:36.300Z</time>
      </trkpt>
      <trkpt lat="44.92699" lon="6.78962">
        <ele>1997</ele>
        <time>2014-07-31T08:47:37.300Z</time>
      </trkpt>
      <trkpt lat="44.92697" lon="6.78965">
        <ele>1997</ele>
        <time>2014-07-31T08:47:38.300Z</time>
      </trkpt>
      <trkpt lat="44.92695" lon="6.78968">
        <ele>1997</ele>
        <time>2014-07-31T08:47:39.300Z</time>
      </trkpt>
      <trkpt lat="44.92693" lon="6.78969">
        <ele>1997</ele>
        <time>2014-07-31T08:47:40.300Z</time>
      </trkpt>
      <trkpt lat="44.92691" lon="6.78971">
        <ele>1997</ele>
        <time>2014-07-31T08:47:41.300Z</time>
      </trkpt>
      <trkpt lat="44.92689" lon="6.78972">
        <ele>1997</ele>
        <time>2014-07-31T08:47:42.300Z</time>
      </trkpt>
      <trkpt lat="44.92686" lon="6.78974">
        <ele>1997</ele>
        <time>2014-07-31T08:47:44.200Z</time>
      </trkpt>
      <trkpt lat="44.92684" lon="6.78975">
        <ele>1997.6</ele>
        <time>2014-07-31T08:47:45.200Z</time>
      </trkpt>
      <trkpt lat="44.92682" lon="6.78978">
        <ele>1998</ele>
        <time>2014-07-31T08:47:46.200Z</time>
      </trkpt>
      <trkpt lat="44.92678" lon="6.7898">
        <ele>1998</ele>
        <time>2014-07-31T08:47:47.300Z</time>
      </trkpt>
      <trkpt lat="44.92675" lon="6.78981">
        <ele>1998</ele>
        <time>2014-07-31T08:47:48.300Z</time>
      </trkpt>
      <trkpt lat="44.92669" lon="6.78984">
        <ele>1998</ele>
        <time>2014-07-31T08:47:50.200Z</time>
      </trkpt>
      <trkpt lat="44.92667" lon="6.78986">
        <ele>1998</ele>
        <time>2014-07-31T08:47:51.260Z</time>
      </trkpt>
      <trkpt lat="44.92664" lon="6.78989">
        <ele>1998</ele>
        <time>2014-07-31T08:47:52.300Z</time>
      </trkpt>
      <trkpt lat="44.92662" lon="6.78992">
        <ele>1998</ele>
        <time>2014-07-31T08:47:53.300Z</time>
      </trkpt>
      <trkpt lat="44.92659" lon="6.78994">
        <ele>1998</ele>
        <time>2014-07-31T08:47:54.300Z</time>
      </trkpt>
      <trkpt lat="44.92656" lon="6.78997">
        <ele>1998.7</ele>
        <time>2014-07-31T08:47:55.300Z</time>
      </trkpt>
      <trkpt lat="44.92653" lon="6.79">
        <ele>1999</ele>
        <time>2014-07-31T08:47:56.300Z</time>
      </trkpt>
      <trkpt lat="44.92651" lon="6.79004">
        <ele>1999</ele>
        <time>2014-07-31T08:47:57.300Z</time>
      </trkpt>
      <trkpt lat="44.92647" lon="6.79011">
        <ele>1999</ele>
        <time>2014-07-31T08:47:59.200Z</time>
      </trkpt>
      <trkpt lat="44.92645" lon="6.79015">
        <ele>1999</ele>
        <time>2014-07-31T08:48:00.260Z</time>
      </trkpt>
      <trkpt lat="44.92642" lon="6.79019">
        <ele>1999</ele>
        <time>2014-07-31T08:48:01.300Z</time>
      </trkpt>
      <trkpt lat="44.92641" lon="6.79024">
        <ele>1999</ele>
        <time>2014-07-31T08:48:02.300Z</time>
      </trkpt>
      <trkpt lat="44.9264" lon="6.79029">
        <ele>1999</ele>
        <time>2014-07-31T08:48:03.300Z</time>
      </trkpt>
      <trkpt lat="44.92639" lon="6.79034">
        <ele>1999</ele>
        <time>2014-07-31T08:48:04.300Z</time>
      </trkpt>
      <trkpt lat="44.92638" lon="6.79038">
        <ele>1999</ele>
        <time>2014-07-31T08:48:05.300Z</time>
      </trkpt>
      <trkpt lat="44.92637" lon="6.79047">
        <ele>1999</ele>
        <time>2014-07-31T08:48:07.200Z</time>
      </trkpt>
      <trkpt lat="44.92637" lon="6.79051">
        <ele>1999</ele>
        <time>2014-07-31T08:48:08.200Z</time>
      </trkpt>
      <trkpt lat="44.92636" lon="6.79055">
        <ele>1999</ele>
        <time>2014-07-31T08:48:09.180Z</time>
      </trkpt>
      <trkpt lat="44.92635" lon="6.79059">
        <ele>1999</ele>
        <time>2014-07-31T08:48:10.200Z</time>
      </trkpt>
      <trkpt lat="44.92635" lon="6.79062">
        <ele>1999</ele>
        <time>2014-07-31T08:48:11.200Z</time>
      </trkpt>
      <trkpt lat="44.92634" lon="6.79066">
        <ele>1999</ele>
        <time>2014-07-31T08:48:12.200Z</time>
      </trkpt>
      <trkpt lat="44.92634" lon="6.7907">
        <ele>1999</ele>
        <time>2014-07-31T08:48:13.200Z</time>
      </trkpt>
      <trkpt lat="44.92633" lon="6.79074">
        <ele>1999</ele>
        <time>2014-07-31T08:48:14.200Z</time>
      </trkpt>
      <trkpt lat="44.92633" lon="6.79078">
        <ele>1999.6</ele>
        <time>2014-07-31T08:48:15.200Z</time>
      </trkpt>
      <trkpt lat="44.92632" lon="6.79082">
        <ele>2000</ele>
        <time>2014-07-31T08:48:16.200Z</time>
      </trkpt>
      <trkpt lat="44.92632" lon="6.79087">
        <ele>2000</ele>
        <time>2014-07-31T08:48:17.190Z</time>
      </trkpt>
      <trkpt lat="44.92631" lon="6.79091">
        <ele>2000</ele>
        <time>2014-07-31T08:48:18.300Z</time>
      </trkpt>
      <trkpt lat="44.92631" lon="6.79096">
        <ele>2000</ele>
        <time>2014-07-31T08:48:19.300Z</time>
      </trkpt>
      <trkpt lat="44.9263" lon="6.791">
        <ele>2000</ele>
        <time>2014-07-31T08:48:20.280Z</time>
      </trkpt>
      <trkpt lat="44.9263" lon="6.79104">
        <ele>2000</ele>
        <time>2014-07-31T08:48:21.300Z</time>
      </trkpt>
      <trkpt lat="44.9263" lon="6.79108">
        <ele>2000</ele>
        <time>2014-07-31T08:48:22.300Z</time>
      </trkpt>
      <trkpt lat="44.92629" lon="6.79116">
        <ele>2000</ele>
        <time>2014-07-31T08:48:24.280Z</time>
      </trkpt>
      <trkpt lat="44.92629" lon="6.7912">
        <ele>2000.6</ele>
        <time>2014-07-31T08:48:25.200Z</time>
      </trkpt>
      <trkpt lat="44.92629" lon="6.79124">
        <ele>2001</ele>
        <time>2014-07-31T08:48:26.200Z</time>
      </trkpt>
      <trkpt lat="44.92629" lon="6.79128">
        <ele>2001</ele>
        <time>2014-07-31T08:48:27.200Z</time>
      </trkpt>
      <trkpt lat="44.92629" lon="6.79133">
        <ele>2001</ele>
        <time>2014-07-31T08:48:28.200Z</time>
      </trkpt>
      <trkpt lat="44.92628" lon="6.79136">
        <ele>2001</ele>
        <time>2014-07-31T08:48:29.200Z</time>
      </trkpt>
      <trkpt lat="44.92628" lon="6.7914">
        <ele>2001</ele>
        <time>2014-07-31T08:48:30.200Z</time>
      </trkpt>
      <trkpt lat="44.92626" lon="6.79144">
        <ele>2001</ele>
        <time>2014-07-31T08:48:31.180Z</time>
      </trkpt>
      <trkpt lat="44.92625" lon="6.79148">
        <ele>2001</ele>
        <time>2014-07-31T08:48:32.200Z</time>
      </trkpt>
      <trkpt lat="44.92622" lon="6.79151">
        <ele>2001</ele>
        <time>2014-07-31T08:48:33.200Z</time>
      </trkpt>
      <trkpt lat="44.92621" lon="6.79154">
        <ele>2001</ele>
        <time>2014-07-31T08:48:34.260Z</time>
      </trkpt>
      <trkpt lat="44.92619" lon="6.79157">
        <ele>2002.5</ele>
        <time>2014-07-31T08:48:35.300Z</time>
      </trkpt>
      <trkpt lat="44.92617" lon="6.7916">
        <ele>2003</ele>
        <time>2014-07-31T08:48:36.300Z</time>
      </trkpt>
      <trkpt lat="44.92615" lon="6.79162">
        <ele>2003</ele>
        <time>2014-07-31T08:48:37.300Z</time>
      </trkpt>
      <trkpt lat="44.92613" lon="6.79165">
        <ele>2003</ele>
        <time>2014-07-31T08:48:38.300Z</time>
      </trkpt>
      <trkpt lat="44.92611" lon="6.79168">
        <ele>2003</ele>
        <time>2014-07-31T08:48:39.300Z</time>
      </trkpt>
      <trkpt lat="44.92606" lon="6.79174">
        <ele>2003</ele>
        <time>2014-07-31T08:48:41.200Z</time>
      </trkpt>
      <trkpt lat="44.92604" lon="6.79177">
        <ele>2003</ele>
        <time>2014-07-31T08:48:42.180Z</time>
      </trkpt>
      <trkpt lat="44.92601" lon="6.7918">
        <ele>2003</ele>
        <time>2014-07-31T08:48:43.200Z</time>
      </trkpt>
      <trkpt lat="44.92599" lon="6.79182">
        <ele>2003</ele>
        <time>2014-07-31T08:48:44.200Z</time>
      </trkpt>
      <trkpt lat="44.92597" lon="6.79185">
        <ele>2003.6</ele>
        <time>2014-07-31T08:48:45.200Z</time>
      </trkpt>
      <trkpt lat="44.92594" lon="6.79187">
        <ele>2004</ele>
        <time>2014-07-31T08:48:46.200Z</time>
      </trkpt>
      <trkpt lat="44.92592" lon="6.7919">
        <ele>2004</ele>
        <time>2014-07-31T08:48:47.200Z</time>
      </trkpt>
      <trkpt lat="44.9259" lon="6.79193">
        <ele>2004</ele>
        <time>2014-07-31T08:48:48.200Z</time>
      </trkpt>
      <trkpt lat="44.92587" lon="6.79196">
        <ele>2004</ele>
        <time>2014-07-31T08:48:49.200Z</time>
      </trkpt>
      <trkpt lat="44.92584" lon="6.79199">
        <ele>2004</ele>
        <time>2014-07-31T08:48:50.200Z</time>
      </trkpt>
      <trkpt lat="44.92582" lon="6.79203">
        <ele>2004</ele>
        <time>2014-07-31T08:48:51.260Z</time>
      </trkpt>
      <trkpt lat="44.9258" lon="6.79207">
        <ele>2004</ele>
        <time>2014-07-31T08:48:52.300Z</time>
      </trkpt>
      <trkpt lat="44.92579" lon="6.79212">
        <ele>2004</ele>
        <time>2014-07-31T08:48:53.300Z</time>
      </trkpt>
      <trkpt lat="44.92577" lon="6.79216">
        <ele>2004</ele>
        <time>2014-07-31T08:48:54.300Z</time>
      </trkpt>
      <trkpt lat="44.92575" lon="6.79221">
        <ele>2004</ele>
        <time>2014-07-31T08:48:55.300Z</time>
      </trkpt>
      <trkpt lat="44.92573" lon="6.79225">
        <ele>2004</ele>
        <time>2014-07-31T08:48:56.300Z</time>
      </trkpt>
      <trkpt lat="44.92567" lon="6.79231">
        <ele>2004</ele>
        <time>2014-07-31T08:48:58.200Z</time>
      </trkpt>
      <trkpt lat="44.92564" lon="6.79233">
        <ele>2004</ele>
        <time>2014-07-31T08:48:59.200Z</time>
      </trkpt>
      <trkpt lat="44.92561" lon="6.79235">
        <ele>2004</ele>
        <time>2014-07-31T08:49:00.160Z</time>
      </trkpt>
      <trkpt lat="44.92557" lon="6.79237">
        <ele>2004</ele>
        <time>2014-07-31T08:49:01.200Z</time>
      </trkpt>
      <trkpt lat="44.92554" lon="6.79238">
        <ele>2004</ele>
        <time>2014-07-31T08:49:02.200Z</time>
      </trkpt>
      <trkpt lat="44.9255" lon="6.7924">
        <ele>2004</ele>
        <time>2014-07-31T08:49:03.200Z</time>
      </trkpt>
      <trkpt lat="44.92547" lon="6.79241">
        <ele>2004</ele>
        <time>2014-07-31T08:49:04.200Z</time>
      </trkpt>
      <trkpt lat="44.92545" lon="6.79242">
        <ele>2004.6</ele>
        <time>2014-07-31T08:49:05.200Z</time>
      </trkpt>
      <trkpt lat="44.92542" lon="6.79243">
        <ele>2005</ele>
        <time>2014-07-31T08:49:06.280Z</time>
      </trkpt>
      <trkpt lat="44.92539" lon="6.79244">
        <ele>2005</ele>
        <time>2014-07-31T08:49:07.200Z</time>
      </trkpt>
      <trkpt lat="44.92536" lon="6.79245">
        <ele>2005</ele>
        <time>2014-07-31T08:49:08.300Z</time>
      </trkpt>
      <trkpt lat="44.92532" lon="6.79245">
        <ele>2005</ele>
        <time>2014-07-31T08:49:09.300Z</time>
      </trkpt>
      <trkpt lat="44.92529" lon="6.79246">
        <ele>2005</ele>
        <time>2014-07-31T08:49:10.300Z</time>
      </trkpt>
      <trkpt lat="44.92526" lon="6.79248">
        <ele>2005</ele>
        <time>2014-07-31T08:49:11.300Z</time>
      </trkpt>
      <trkpt lat="44.92524" lon="6.79249">
        <ele>2005</ele>
        <time>2014-07-31T08:49:12.300Z</time>
      </trkpt>
      <trkpt lat="44.92521" lon="6.7925">
        <ele>2005</ele>
        <time>2014-07-31T08:49:13.300Z</time>
      </trkpt>
      <trkpt lat="44.92516" lon="6.79251">
        <ele>2006.2</ele>
        <time>2014-07-31T08:49:15.180Z</time>
      </trkpt>
      <trkpt lat="44.92512" lon="6.79252">
        <ele>2007</ele>
        <time>2014-07-31T08:49:16.200Z</time>
      </trkpt>
      <trkpt lat="44.92509" lon="6.79253">
        <ele>2007</ele>
        <time>2014-07-31T08:49:17.260Z</time>
      </trkpt>
      <trkpt lat="44.92507" lon="6.79253">
        <ele>2007</ele>
        <time>2014-07-31T08:49:18.300Z</time>
      </trkpt>
      <trkpt lat="44.92504" lon="6.79254">
        <ele>2007</ele>
        <time>2014-07-31T08:49:19.300Z</time>
      </trkpt>
      <trkpt lat="44.92501" lon="6.79254">
        <ele>2007</ele>
        <time>2014-07-31T08:49:20.300Z</time>
      </trkpt>
      <trkpt lat="44.92498" lon="6.79255">
        <ele>2007</ele>
        <time>2014-07-31T08:49:21.300Z</time>
      </trkpt>
      <trkpt lat="44.92495" lon="6.79255">
        <ele>2007</ele>
        <time>2014-07-31T08:49:22.300Z</time>
      </trkpt>
      <trkpt lat="44.92491" lon="6.79256">
        <ele>2007</ele>
        <time>2014-07-31T08:49:23.300Z</time>
      </trkpt>
      <trkpt lat="44.92488" lon="6.79257">
        <ele>2007</ele>
        <time>2014-07-31T08:49:24.300Z</time>
      </trkpt>
      <trkpt lat="44.92485" lon="6.79257">
        <ele>2007.7</ele>
        <time>2014-07-31T08:49:25.300Z</time>
      </trkpt>
      <trkpt lat="44.92482" lon="6.79258">
        <ele>2008</ele>
        <time>2014-07-31T08:49:26.280Z</time>
      </trkpt>
      <trkpt lat="44.92479" lon="6.79258">
        <ele>2008</ele>
        <time>2014-07-31T08:49:27.300Z</time>
      </trkpt>
      <trkpt lat="44.92475" lon="6.79259">
        <ele>2008</ele>
        <time>2014-07-31T08:49:28.300Z</time>
      </trkpt>
      <trkpt lat="44.92472" lon="6.7926">
        <ele>2008</ele>
        <time>2014-07-31T08:49:29.300Z</time>
      </trkpt>
      <trkpt lat="44.92469" lon="6.79261">
        <ele>2008</ele>
        <time>2014-07-31T08:49:30.300Z</time>
      </trkpt>
      <trkpt lat="44.92463" lon="6.79263">
        <ele>2008</ele>
        <time>2014-07-31T08:49:32.200Z</time>
      </trkpt>
      <trkpt lat="44.92459" lon="6.79263">
        <ele>2008</ele>
        <time>2014-07-31T08:49:33.200Z</time>
      </trkpt>
      <trkpt lat="44.92456" lon="6.79263">
        <ele>2008</ele>
        <time>2014-07-31T08:49:34.260Z</time>
      </trkpt>
      <trkpt lat="44.92452" lon="6.79264">
        <ele>2008.7</ele>
        <time>2014-07-31T08:49:35.300Z</time>
      </trkpt>
      <trkpt lat="44.92449" lon="6.79265">
        <ele>2009</ele>
        <time>2014-07-31T08:49:36.300Z</time>
      </trkpt>
      <trkpt lat="44.92446" lon="6.79265">
        <ele>2009</ele>
        <time>2014-07-31T08:49:37.280Z</time>
      </trkpt>
      <trkpt lat="44.92442" lon="6.79265">
        <ele>2009</ele>
        <time>2014-07-31T08:49:38.300Z</time>
      </trkpt>
      <trkpt lat="44.92439" lon="6.79264">
        <ele>2009</ele>
        <time>2014-07-31T08:49:39.300Z</time>
      </trkpt>
      <trkpt lat="44.92436" lon="6.79263">
        <ele>2009</ele>
        <time>2014-07-31T08:49:40.300Z</time>
      </trkpt>
      <trkpt lat="44.92432" lon="6.79263">
        <ele>2009</ele>
        <time>2014-07-31T08:49:41.300Z</time>
      </trkpt>
      <trkpt lat="44.92429" lon="6.79262">
        <ele>2009</ele>
        <time>2014-07-31T08:49:42.300Z</time>
      </trkpt>
      <trkpt lat="44.92427" lon="6.79263">
        <ele>2009</ele>
        <time>2014-07-31T08:49:43.300Z</time>
      </trkpt>
      <trkpt lat="44.92424" lon="6.79263">
        <ele>2009</ele>
        <time>2014-07-31T08:49:44.300Z</time>
      </trkpt>
      <trkpt lat="44.9242" lon="6.79263">
        <ele>2009</ele>
        <time>2014-07-31T08:49:45.300Z</time>
      </trkpt>
      <trkpt lat="44.92417" lon="6.79263">
        <ele>2009</ele>
        <time>2014-07-31T08:49:46.300Z</time>
      </trkpt>
      <trkpt lat="44.92414" lon="6.79263">
        <ele>2009</ele>
        <time>2014-07-31T08:49:47.300Z</time>
      </trkpt>
      <trkpt lat="44.92408" lon="6.79265">
        <ele>2009</ele>
        <time>2014-07-31T08:49:49.200Z</time>
      </trkpt>
      <trkpt lat="44.92405" lon="6.79266">
        <ele>2009</ele>
        <time>2014-07-31T08:49:50.200Z</time>
      </trkpt>
      <trkpt lat="44.92402" lon="6.79267">
        <ele>2009</ele>
        <time>2014-07-31T08:49:51.260Z</time>
      </trkpt>
      <trkpt lat="44.92399" lon="6.79269">
        <ele>2009</ele>
        <time>2014-07-31T08:49:52.300Z</time>
      </trkpt>
      <trkpt lat="44.92394" lon="6.79271">
        <ele>2009</ele>
        <time>2014-07-31T08:49:54.200Z</time>
      </trkpt>
      <trkpt lat="44.92391" lon="6.79271">
        <ele>2010.3</ele>
        <time>2014-07-31T08:49:55.200Z</time>
      </trkpt>
      <trkpt lat="44.92388" lon="6.79271">
        <ele>2011</ele>
        <time>2014-07-31T08:49:56.200Z</time>
      </trkpt>
      <trkpt lat="44.92385" lon="6.79271">
        <ele>2011</ele>
        <time>2014-07-31T08:49:57.200Z</time>
      </trkpt>
      <trkpt lat="44.92381" lon="6.79269">
        <ele>2011</ele>
        <time>2014-07-31T08:49:58.200Z</time>
      </trkpt>
      <trkpt lat="44.92378" lon="6.79267">
        <ele>2011</ele>
        <time>2014-07-31T08:49:59.200Z</time>
      </trkpt>
      <trkpt lat="44.92375" lon="6.79264">
        <ele>2011</ele>
        <time>2014-07-31T08:50:00.090Z</time>
      </trkpt>
      <trkpt lat="44.9237" lon="6.79258">
        <ele>2011</ele>
        <time>2014-07-31T08:50:02.200Z</time>
      </trkpt>
      <trkpt lat="44.92367" lon="6.79256">
        <ele>2011</ele>
        <time>2014-07-31T08:50:03.200Z</time>
      </trkpt>
      <trkpt lat="44.92364" lon="6.79253">
        <ele>2011</ele>
        <time>2014-07-31T08:50:04.200Z</time>
      </trkpt>
      <trkpt lat="44.9236" lon="6.7925">
        <ele>2011.7</ele>
        <time>2014-07-31T08:50:05.260Z</time>
      </trkpt>
      <trkpt lat="44.92357" lon="6.79248">
        <ele>2012</ele>
        <time>2014-07-31T08:50:06.300Z</time>
      </trkpt>
      <trkpt lat="44.92353" lon="6.79246">
        <ele>2012</ele>
        <time>2014-07-31T08:50:07.300Z</time>
      </trkpt>
      <trkpt lat="44.92349" lon="6.79245">
        <ele>2012</ele>
        <time>2014-07-31T08:50:08.300Z</time>
      </trkpt>
      <trkpt lat="44.92343" lon="6.79245">
        <ele>2012</ele>
        <time>2014-07-31T08:50:09.300Z</time>
      </trkpt>
      <trkpt lat="44.92337" lon="6.79246">
        <ele>2012</ele>
        <time>2014-07-31T08:50:10.280Z</time>
      </trkpt>
      <trkpt lat="44.92332" lon="6.79247">
        <ele>2012</ele>
        <time>2014-07-31T08:50:11.300Z</time>
      </trkpt>
      <trkpt lat="44.92326" lon="6.79248">
        <ele>2012</ele>
        <time>2014-07-31T08:50:12.300Z</time>
      </trkpt>
      <trkpt lat="44.9232" lon="6.79249">
        <ele>2012</ele>
        <time>2014-07-31T08:50:13.300Z</time>
      </trkpt>
      <trkpt lat="44.92314" lon="6.79249">
        <ele>2012</ele>
        <time>2014-07-31T08:50:14.300Z</time>
      </trkpt>
      <trkpt lat="44.92308" lon="6.79248">
        <ele>2009.8</ele>
        <time>2014-07-31T08:50:15.300Z</time>
      </trkpt>
      <trkpt lat="44.92302" lon="6.79248">
        <ele>2009</ele>
        <time>2014-07-31T08:50:16.300Z</time>
      </trkpt>
      <trkpt lat="44.9229" lon="6.79248">
        <ele>2009</ele>
        <time>2014-07-31T08:50:18.300Z</time>
      </trkpt>
      <trkpt lat="44.92284" lon="6.7925">
        <ele>2009</ele>
        <time>2014-07-31T08:50:19.300Z</time>
      </trkpt>
      <trkpt lat="44.92278" lon="6.79252">
        <ele>2006.1</ele>
        <time>2014-07-31T08:50:20.300Z</time>
      </trkpt>
      <trkpt lat="44.92272" lon="6.79254">
        <ele>2005</ele>
        <time>2014-07-31T08:50:21.280Z</time>
      </trkpt>
      <trkpt lat="44.9226" lon="6.79259">
        <ele>2005</ele>
        <time>2014-07-31T08:50:23.200Z</time>
      </trkpt>
      <trkpt lat="44.92255" lon="6.79258">
        <ele>2005</ele>
        <time>2014-07-31T08:50:24.200Z</time>
      </trkpt>
      <trkpt lat="44.9225" lon="6.79256">
        <ele>2002.5</ele>
        <time>2014-07-31T08:50:25.200Z</time>
      </trkpt>
      <trkpt lat="44.92245" lon="6.79252">
        <ele>1999.7</ele>
        <time>2014-07-31T08:50:26.200Z</time>
      </trkpt>
      <trkpt lat="44.9224" lon="6.79248">
        <ele>1999</ele>
        <time>2014-07-31T08:50:27.200Z</time>
      </trkpt>
      <trkpt lat="44.92234" lon="6.79244">
        <ele>1999</ele>
        <time>2014-07-31T08:50:28.200Z</time>
      </trkpt>
      <trkpt lat="44.92229" lon="6.7924">
        <ele>1998.4</ele>
        <time>2014-07-31T08:50:29.200Z</time>
      </trkpt>
      <trkpt lat="44.92223" lon="6.79238">
        <ele>1997.3</ele>
        <time>2014-07-31T08:50:30.260Z</time>
      </trkpt>
      <trkpt lat="44.92218" lon="6.79236">
        <ele>1995.7</ele>
        <time>2014-07-31T08:50:31.200Z</time>
      </trkpt>
      <trkpt lat="44.92211" lon="6.79234">
        <ele>1994.3</ele>
        <time>2014-07-31T08:50:32.220Z</time>
      </trkpt>
      <trkpt lat="44.92203" lon="6.7923">
        <ele>1994</ele>
        <time>2014-07-31T08:50:33.300Z</time>
      </trkpt>
      <trkpt lat="44.92191" lon="6.79219">
        <ele>1991.4</ele>
        <time>2014-07-31T08:50:35.200Z</time>
      </trkpt>
      <trkpt lat="44.92186" lon="6.79214">
        <ele>1991</ele>
        <time>2014-07-31T08:50:36.200Z</time>
      </trkpt>
      <trkpt lat="44.9218" lon="6.7921">
        <ele>1990.4</ele>
        <time>2014-07-31T08:50:37.200Z</time>
      </trkpt>
      <trkpt lat="44.92175" lon="6.79208">
        <ele>1989.4</ele>
        <time>2014-07-31T08:50:38.200Z</time>
      </trkpt>
      <trkpt lat="44.9217" lon="6.79207">
        <ele>1989</ele>
        <time>2014-07-31T08:50:39.260Z</time>
      </trkpt>
      <trkpt lat="44.92164" lon="6.79208">
        <ele>1989</ele>
        <time>2014-07-31T08:50:40.300Z</time>
      </trkpt>
      <trkpt lat="44.92158" lon="6.79209">
        <ele>1988.3</ele>
        <time>2014-07-31T08:50:41.300Z</time>
      </trkpt>
      <trkpt lat="44.92151" lon="6.7921">
        <ele>1986.5</ele>
        <time>2014-07-31T08:50:42.300Z</time>
      </trkpt>
      <trkpt lat="44.92144" lon="6.79212">
        <ele>1984.5</ele>
        <time>2014-07-31T08:50:43.300Z</time>
      </trkpt>
      <trkpt lat="44.92139" lon="6.79214">
        <ele>1983.3</ele>
        <time>2014-07-31T08:50:44.280Z</time>
      </trkpt>
      <trkpt lat="44.92133" lon="6.79217">
        <ele>1983</ele>
        <time>2014-07-31T08:50:45.300Z</time>
      </trkpt>
      <trkpt lat="44.92128" lon="6.79222">
        <ele>1982.3</ele>
        <time>2014-07-31T08:50:46.300Z</time>
      </trkpt>
      <trkpt lat="44.92121" lon="6.79226">
        <ele>1981.3</ele>
        <time>2014-07-31T08:50:47.300Z</time>
      </trkpt>
      <trkpt lat="44.92116" lon="6.79231">
        <ele>1980.3</ele>
        <time>2014-07-31T08:50:48.300Z</time>
      </trkpt>
      <trkpt lat="44.9211" lon="6.79236">
        <ele>1979.3</ele>
        <time>2014-07-31T08:50:49.300Z</time>
      </trkpt>
      <trkpt lat="44.92104" lon="6.7924">
        <ele>1978.3</ele>
        <time>2014-07-31T08:50:50.300Z</time>
      </trkpt>
      <trkpt lat="44.92093" lon="6.79255">
        <ele>1975.4</ele>
        <time>2014-07-31T08:50:52.200Z</time>
      </trkpt>
      <trkpt lat="44.92086" lon="6.79262">
        <ele>1975</ele>
        <time>2014-07-31T08:50:53.300Z</time>
      </trkpt>
      <trkpt lat="44.92081" lon="6.79266">
        <ele>1974.3</ele>
        <time>2014-07-31T08:50:54.300Z</time>
      </trkpt>
      <trkpt lat="44.92075" lon="6.79268">
        <ele>1974</ele>
        <time>2014-07-31T08:50:55.300Z</time>
      </trkpt>
      <trkpt lat="44.9207" lon="6.79269">
        <ele>1973.4</ele>
        <time>2014-07-31T08:50:56.200Z</time>
      </trkpt>
      <trkpt lat="44.92066" lon="6.79269">
        <ele>1972.3</ele>
        <time>2014-07-31T08:50:57.300Z</time>
      </trkpt>
      <trkpt lat="44.92062" lon="6.7927">
        <ele>1972</ele>
        <time>2014-07-31T08:50:58.300Z</time>
      </trkpt>
      <trkpt lat="44.92057" lon="6.79272">
        <ele>1972</ele>
        <time>2014-07-31T08:50:59.300Z</time>
      </trkpt>
      <trkpt lat="44.92048" lon="6.79278">
        <ele>1971</ele>
        <time>2014-07-31T08:51:01.190Z</time>
      </trkpt>
      <trkpt lat="44.92045" lon="6.79283">
        <ele>1970.4</ele>
        <time>2014-07-31T08:51:02.200Z</time>
      </trkpt>
      <trkpt lat="44.92042" lon="6.79289">
        <ele>1969.4</ele>
        <time>2014-07-31T08:51:03.200Z</time>
      </trkpt>
      <trkpt lat="44.92038" lon="6.79296">
        <ele>1969</ele>
        <time>2014-07-31T08:51:04.200Z</time>
      </trkpt>
      <trkpt lat="44.92034" lon="6.79303">
        <ele>1968.4</ele>
        <time>2014-07-31T08:51:05.180Z</time>
      </trkpt>
      <trkpt lat="44.9203" lon="6.79312">
        <ele>1968</ele>
        <time>2014-07-31T08:51:06.200Z</time>
      </trkpt>
      <trkpt lat="44.92026" lon="6.7932">
        <ele>1967.4</ele>
        <time>2014-07-31T08:51:07.200Z</time>
      </trkpt>
      <trkpt lat="44.92023" lon="6.79329">
        <ele>1966.4</ele>
        <time>2014-07-31T08:51:08.200Z</time>
      </trkpt>
      <trkpt lat="44.9202" lon="6.79338">
        <ele>1965.4</ele>
        <time>2014-07-31T08:51:09.200Z</time>
      </trkpt>
      <trkpt lat="44.92016" lon="6.79347">
        <ele>1964.4</ele>
        <time>2014-07-31T08:51:10.200Z</time>
      </trkpt>
      <trkpt lat="44.92011" lon="6.79353">
        <ele>1964</ele>
        <time>2014-07-31T08:51:11.200Z</time>
      </trkpt>
      <trkpt lat="44.92006" lon="6.7936">
        <ele>1964</ele>
        <time>2014-07-31T08:51:12.200Z</time>
      </trkpt>
      <trkpt lat="44.92001" lon="6.79366">
        <ele>1964</ele>
        <time>2014-07-31T08:51:13.260Z</time>
      </trkpt>
      <trkpt lat="44.91996" lon="6.79372">
        <ele>1964</ele>
        <time>2014-07-31T08:51:14.300Z</time>
      </trkpt>
      <trkpt lat="44.91991" lon="6.79376">
        <ele>1964</ele>
        <time>2014-07-31T08:51:15.280Z</time>
      </trkpt>
      <trkpt lat="44.91986" lon="6.79382">
        <ele>1964</ele>
        <time>2014-07-31T08:51:16.300Z</time>
      </trkpt>
      <trkpt lat="44.91975" lon="6.7939">
        <ele>1964</ele>
        <time>2014-07-31T08:51:18.200Z</time>
      </trkpt>
      <trkpt lat="44.91971" lon="6.79392">
        <ele>1964</ele>
        <time>2014-07-31T08:51:19.200Z</time>
      </trkpt>
      <trkpt lat="44.91967" lon="6.79395">
        <ele>1963.4</ele>
        <time>2014-07-31T08:51:20.200Z</time>
      </trkpt>
      <trkpt lat="44.91963" lon="6.79398">
        <ele>1963</ele>
        <time>2014-07-31T08:51:21.200Z</time>
      </trkpt>
      <trkpt lat="44.9196" lon="6.79401">
        <ele>1963</ele>
        <time>2014-07-31T08:51:22.200Z</time>
      </trkpt>
      <trkpt lat="44.91957" lon="6.79404">
        <ele>1963</ele>
        <time>2014-07-31T08:51:23.260Z</time>
      </trkpt>
      <trkpt lat="44.91954" lon="6.79408">
        <ele>1963</ele>
        <time>2014-07-31T08:51:24.200Z</time>
      </trkpt>
      <trkpt lat="44.91951" lon="6.79412">
        <ele>1963.6</ele>
        <time>2014-07-31T08:51:25.200Z</time>
      </trkpt>
      <trkpt lat="44.9195" lon="6.79416">
        <ele>1964</ele>
        <time>2014-07-31T08:51:26.200Z</time>
      </trkpt>
      <trkpt lat="44.91949" lon="6.7942">
        <ele>1964</ele>
        <time>2014-07-31T08:51:27.200Z</time>
      </trkpt>
      <trkpt lat="44.91947" lon="6.79424">
        <ele>1964</ele>
        <time>2014-07-31T08:51:28.200Z</time>
      </trkpt>
      <trkpt lat="44.91947" lon="6.79428">
        <ele>1964</ele>
        <time>2014-07-31T08:51:29.200Z</time>
      </trkpt>
      <trkpt lat="44.91947" lon="6.79432">
        <ele>1964</ele>
        <time>2014-07-31T08:51:30.260Z</time>
      </trkpt>
      <trkpt lat="44.91947" lon="6.79437">
        <ele>1964</ele>
        <time>2014-07-31T08:51:31.300Z</time>
      </trkpt>
      <trkpt lat="44.91946" lon="6.79442">
        <ele>1964</ele>
        <time>2014-07-31T08:51:32.300Z</time>
      </trkpt>
      <trkpt lat="44.91945" lon="6.79447">
        <ele>1964</ele>
        <time>2014-07-31T08:51:33.300Z</time>
      </trkpt>
      <trkpt lat="44.91944" lon="6.79455">
        <ele>1965.3</ele>
        <time>2014-07-31T08:51:35.200Z</time>
      </trkpt>
      <trkpt lat="44.91943" lon="6.79458">
        <ele>1966</ele>
        <time>2014-07-31T08:51:36.200Z</time>
      </trkpt>
      <trkpt lat="44.91942" lon="6.79462">
        <ele>1966</ele>
        <time>2014-07-31T08:51:37.200Z</time>
      </trkpt>
      <trkpt lat="44.91941" lon="6.79465">
        <ele>1966</ele>
        <time>2014-07-31T08:51:38.220Z</time>
      </trkpt>
      <trkpt lat="44.91941" lon="6.79469">
        <ele>1966</ele>
        <time>2014-07-31T08:51:39.300Z</time>
      </trkpt>
      <trkpt lat="44.9194" lon="6.79472">
        <ele>1966</ele>
        <time>2014-07-31T08:51:40.300Z</time>
      </trkpt>
      <trkpt lat="44.91939" lon="6.79476">
        <ele>1966</ele>
        <time>2014-07-31T08:51:41.300Z</time>
      </trkpt>
      <trkpt lat="44.91937" lon="6.7948">
        <ele>1966</ele>
        <time>2014-07-31T08:51:42.300Z</time>
      </trkpt>
      <trkpt lat="44.91936" lon="6.79484">
        <ele>1966</ele>
        <time>2014-07-31T08:51:43.300Z</time>
      </trkpt>
      <trkpt lat="44.91935" lon="6.79487">
        <ele>1966</ele>
        <time>2014-07-31T08:51:44.300Z</time>
      </trkpt>
      <trkpt lat="44.91933" lon="6.7949">
        <ele>1966.7</ele>
        <time>2014-07-31T08:51:45.300Z</time>
      </trkpt>
      <trkpt lat="44.91931" lon="6.79493">
        <ele>1967</ele>
        <time>2014-07-31T08:51:46.300Z</time>
      </trkpt>
      <trkpt lat="44.91927" lon="6.79496">
        <ele>1967</ele>
        <time>2014-07-31T08:51:48.200Z</time>
      </trkpt>
      <trkpt lat="44.91925" lon="6.79498">
        <ele>1967</ele>
        <time>2014-07-31T08:51:49.180Z</time>
      </trkpt>
      <trkpt lat="44.91923" lon="6.795">
        <ele>1967</ele>
        <time>2014-07-31T08:51:50.200Z</time>
      </trkpt>
      <trkpt lat="44.9192" lon="6.79502">
        <ele>1967</ele>
        <time>2014-07-31T08:51:51.190Z</time>
      </trkpt>
      <trkpt lat="44.91918" lon="6.79504">
        <ele>1967</ele>
        <time>2014-07-31T08:51:52.300Z</time>
      </trkpt>
      <trkpt lat="44.91915" lon="6.79505">
        <ele>1967</ele>
        <time>2014-07-31T08:51:53.300Z</time>
      </trkpt>
      <trkpt lat="44.91912" lon="6.79507">
        <ele>1967</ele>
        <time>2014-07-31T08:51:54.300Z</time>
      </trkpt>
      <trkpt lat="44.91911" lon="6.79509">
        <ele>1967.7</ele>
        <time>2014-07-31T08:51:55.300Z</time>
      </trkpt>
      <trkpt lat="44.91909" lon="6.7951">
        <ele>1968</ele>
        <time>2014-07-31T08:51:56.300Z</time>
      </trkpt>
      <trkpt lat="44.91907" lon="6.79512">
        <ele>1968</ele>
        <time>2014-07-31T08:51:57.300Z</time>
      </trkpt>
      <trkpt lat="44.91904" lon="6.79514">
        <ele>1968</ele>
        <time>2014-07-31T08:51:58.300Z</time>
      </trkpt>
      <trkpt lat="44.91901" lon="6.79515">
        <ele>1968</ele>
        <time>2014-07-31T08:51:59.300Z</time>
      </trkpt>
      <trkpt lat="44.91897" lon="6.79516">
        <ele>1968</ele>
        <time>2014-07-31T08:52:01.190Z</time>
      </trkpt>
      <trkpt lat="44.91894" lon="6.79517">
        <ele>1968</ele>
        <time>2014-07-31T08:52:02.190Z</time>
      </trkpt>
      <trkpt lat="44.91891" lon="6.79519">
        <ele>1968</ele>
        <time>2014-07-31T08:52:03.190Z</time>
      </trkpt>
      <trkpt lat="44.91889" lon="6.7952">
        <ele>1968</ele>
        <time>2014-07-31T08:52:04.260Z</time>
      </trkpt>
      <trkpt lat="44.91887" lon="6.7952">
        <ele>1969.4</ele>
        <time>2014-07-31T08:52:05.290Z</time>
      </trkpt>
      <trkpt lat="44.91884" lon="6.79521">
        <ele>1970</ele>
        <time>2014-07-31T08:52:06.290Z</time>
      </trkpt>
      <trkpt lat="44.91881" lon="6.79522">
        <ele>1970</ele>
        <time>2014-07-31T08:52:07.290Z</time>
      </trkpt>
      <trkpt lat="44.91879" lon="6.79523">
        <ele>1970</ele>
        <time>2014-07-31T08:52:08.290Z</time>
      </trkpt>
      <trkpt lat="44.91876" lon="6.79524">
        <ele>1970</ele>
        <time>2014-07-31T08:52:09.290Z</time>
      </trkpt>
      <trkpt lat="44.91873" lon="6.79524">
        <ele>1970</ele>
        <time>2014-07-31T08:52:10.290Z</time>
      </trkpt>
      <trkpt lat="44.91871" lon="6.79525">
        <ele>1970</ele>
        <time>2014-07-31T08:52:11.290Z</time>
      </trkpt>
      <trkpt lat="44.91868" lon="6.79526">
        <ele>1970</ele>
        <time>2014-07-31T08:52:12.290Z</time>
      </trkpt>
      <trkpt lat="44.91866" lon="6.79526">
        <ele>1970</ele>
        <time>2014-07-31T08:52:13.290Z</time>
      </trkpt>
      <trkpt lat="44.91863" lon="6.79527">
        <ele>1970</ele>
        <time>2014-07-31T08:52:14.290Z</time>
      </trkpt>
      <trkpt lat="44.91861" lon="6.79528">
        <ele>1971.4</ele>
        <time>2014-07-31T08:52:15.290Z</time>
      </trkpt>
      <trkpt lat="44.9186" lon="6.7953">
        <ele>1972</ele>
        <time>2014-07-31T08:52:16.290Z</time>
      </trkpt>
      <trkpt lat="44.91855" lon="6.79531">
        <ele>1972</ele>
        <time>2014-07-31T08:52:18.190Z</time>
      </trkpt>
      <trkpt lat="44.91853" lon="6.79532">
        <ele>1972</ele>
        <time>2014-07-31T08:52:19.190Z</time>
      </trkpt>
      <trkpt lat="44.91851" lon="6.79532">
        <ele>1972</ele>
        <time>2014-07-31T08:52:20.190Z</time>
      </trkpt>
      <trkpt lat="44.91849" lon="6.79533">
        <ele>1972</ele>
        <time>2014-07-31T08:52:21.220Z</time>
      </trkpt>
      <trkpt lat="44.91847" lon="6.79533">
        <ele>1972</ele>
        <time>2014-07-31T08:52:22.290Z</time>
      </trkpt>
      <trkpt lat="44.91845" lon="6.79533">
        <ele>1972</ele>
        <time>2014-07-31T08:52:23.290Z</time>
      </trkpt>
      <trkpt lat="44.91843" lon="6.79532">
        <ele>1972</ele>
        <time>2014-07-31T08:52:24.290Z</time>
      </trkpt>
      <trkpt lat="44.91841" lon="6.79531">
        <ele>1973.4</ele>
        <time>2014-07-31T08:52:25.290Z</time>
      </trkpt>
      <trkpt lat="44.91838" lon="6.7953">
        <ele>1974</ele>
        <time>2014-07-31T08:52:26.290Z</time>
      </trkpt>
      <trkpt lat="44.91836" lon="6.79529">
        <ele>1974</ele>
        <time>2014-07-31T08:52:27.290Z</time>
      </trkpt>
      <trkpt lat="44.91835" lon="6.79528">
        <ele>1974</ele>
        <time>2014-07-31T08:52:28.290Z</time>
      </trkpt>
      <trkpt lat="44.91832" lon="6.79526">
        <ele>1974</ele>
        <time>2014-07-31T08:52:29.290Z</time>
      </trkpt>
      <trkpt lat="44.9183" lon="6.79525">
        <ele>1974</ele>
        <time>2014-07-31T08:52:30.290Z</time>
      </trkpt>
      <trkpt lat="44.91828" lon="6.79524">
        <ele>1974</ele>
        <time>2014-07-31T08:52:31.290Z</time>
      </trkpt>
      <trkpt lat="44.91826" lon="6.79523">
        <ele>1974</ele>
        <time>2014-07-31T08:52:32.290Z</time>
      </trkpt>
      <trkpt lat="44.91824" lon="6.79522">
        <ele>1974</ele>
        <time>2014-07-31T08:52:33.290Z</time>
      </trkpt>
      <trkpt lat="44.9182" lon="6.7952">
        <ele>1975.2</ele>
        <time>2014-07-31T08:52:35.190Z</time>
      </trkpt>
      <trkpt lat="44.91817" lon="6.79519">
        <ele>1976</ele>
        <time>2014-07-31T08:52:36.190Z</time>
      </trkpt>
      <trkpt lat="44.91813" lon="6.79519">
        <ele>1976</ele>
        <time>2014-07-31T08:52:37.190Z</time>
      </trkpt>
      <trkpt lat="44.9181" lon="6.7952">
        <ele>1976</ele>
        <time>2014-07-31T08:52:38.260Z</time>
      </trkpt>
      <trkpt lat="44.91808" lon="6.79521">
        <ele>1976</ele>
        <time>2014-07-31T08:52:39.290Z</time>
      </trkpt>
      <trkpt lat="44.91805" lon="6.79523">
        <ele>1976</ele>
        <time>2014-07-31T08:52:40.290Z</time>
      </trkpt>
      <trkpt lat="44.91804" lon="6.79527">
        <ele>1976</ele>
        <time>2014-07-31T08:52:41.290Z</time>
      </trkpt>
      <trkpt lat="44.91803" lon="6.79532">
        <ele>1976</ele>
        <time>2014-07-31T08:52:42.290Z</time>
      </trkpt>
      <trkpt lat="44.91801" lon="6.7954">
        <ele>1976</ele>
        <time>2014-07-31T08:52:44.190Z</time>
      </trkpt>
      <trkpt lat="44.91801" lon="6.79544">
        <ele>1974.8</ele>
        <time>2014-07-31T08:52:45.190Z</time>
      </trkpt>
      <trkpt lat="44.918" lon="6.7955">
        <ele>1974</ele>
        <time>2014-07-31T08:52:46.190Z</time>
      </trkpt>
      <trkpt lat="44.91799" lon="6.79555">
        <ele>1974</ele>
        <time>2014-07-31T08:52:47.190Z</time>
      </trkpt>
      <trkpt lat="44.91796" lon="6.79563">
        <ele>1974</ele>
        <time>2014-07-31T08:52:48.190Z</time>
      </trkpt>
      <trkpt lat="44.91794" lon="6.79573">
        <ele>1974</ele>
        <time>2014-07-31T08:52:49.190Z</time>
      </trkpt>
      <trkpt lat="44.91791" lon="6.79583">
        <ele>1974</ele>
        <time>2014-07-31T08:52:50.190Z</time>
      </trkpt>
      <trkpt lat="44.91787" lon="6.79591">
        <ele>1974</ele>
        <time>2014-07-31T08:52:51.190Z</time>
      </trkpt>
      <trkpt lat="44.91783" lon="6.79598">
        <ele>1974</ele>
        <time>2014-07-31T08:52:52.290Z</time>
      </trkpt>
      <trkpt lat="44.91771" lon="6.79609">
        <ele>1974</ele>
        <time>2014-07-31T08:52:54.190Z</time>
      </trkpt>
      <trkpt lat="44.91765" lon="6.79612">
        <ele>1970.5</ele>
        <time>2014-07-31T08:52:55.260Z</time>
      </trkpt>
      <trkpt lat="44.91759" lon="6.79613">
        <ele>1969</ele>
        <time>2014-07-31T08:52:56.290Z</time>
      </trkpt>
      <trkpt lat="44.91753" lon="6.79615">
        <ele>1969</ele>
        <time>2014-07-31T08:52:57.290Z</time>
      </trkpt>
      <trkpt lat="44.91746" lon="6.79617">
        <ele>1969</ele>
        <time>2014-07-31T08:52:58.290Z</time>
      </trkpt>
      <trkpt lat="44.9174" lon="6.79619">
        <ele>1969</ele>
        <time>2014-07-31T08:52:59.290Z</time>
      </trkpt>
      <trkpt lat="44.91725" lon="6.79622">
        <ele>1965</ele>
        <time>2014-07-31T08:53:01.190Z</time>
      </trkpt>
      <trkpt lat="44.91717" lon="6.79622">
        <ele>1965</ele>
        <time>2014-07-31T08:53:02.190Z</time>
      </trkpt>
      <trkpt lat="44.91709" lon="6.79619">
        <ele>1965</ele>
        <time>2014-07-31T08:53:03.280Z</time>
      </trkpt>
      <trkpt lat="44.91703" lon="6.79616">
        <ele>1965</ele>
        <time>2014-07-31T08:53:04.190Z</time>
      </trkpt>
      <trkpt lat="44.91698" lon="6.7961">
        <ele>1963.8</ele>
        <time>2014-07-31T08:53:05.190Z</time>
      </trkpt>
      <trkpt lat="44.91691" lon="6.79603">
        <ele>1962.4</ele>
        <time>2014-07-31T08:53:06.190Z</time>
      </trkpt>
      <trkpt lat="44.91685" lon="6.79596">
        <ele>1962</ele>
        <time>2014-07-31T08:53:07.190Z</time>
      </trkpt>
      <trkpt lat="44.91678" lon="6.79592">
        <ele>1960.6</ele>
        <time>2014-07-31T08:53:08.290Z</time>
      </trkpt>
      <trkpt lat="44.91671" lon="6.79588">
        <ele>1960</ele>
        <time>2014-07-31T08:53:09.290Z</time>
      </trkpt>
      <trkpt lat="44.91664" lon="6.79583">
        <ele>1960</ele>
        <time>2014-07-31T08:53:10.290Z</time>
      </trkpt>
      <trkpt lat="44.91658" lon="6.79578">
        <ele>1960</ele>
        <time>2014-07-31T08:53:11.290Z</time>
      </trkpt>
      <trkpt lat="44.91645" lon="6.79573">
        <ele>1960</ele>
        <time>2014-07-31T08:53:13.190Z</time>
      </trkpt>
      <trkpt lat="44.91639" lon="6.79575">
        <ele>1959.4</ele>
        <time>2014-07-31T08:53:14.190Z</time>
      </trkpt>
      <trkpt lat="44.91634" lon="6.79579">
        <ele>1959</ele>
        <time>2014-07-31T08:53:15.190Z</time>
      </trkpt>
      <trkpt lat="44.91629" lon="6.79583">
        <ele>1959</ele>
        <time>2014-07-31T08:53:16.190Z</time>
      </trkpt>
      <trkpt lat="44.91624" lon="6.79587">
        <ele>1959</ele>
        <time>2014-07-31T08:53:17.260Z</time>
      </trkpt>
      <trkpt lat="44.91621" lon="6.79593">
        <ele>1959</ele>
        <time>2014-07-31T08:53:18.290Z</time>
      </trkpt>
      <trkpt lat="44.91618" lon="6.796">
        <ele>1959</ele>
        <time>2014-07-31T08:53:19.290Z</time>
      </trkpt>
      <trkpt lat="44.91615" lon="6.79606">
        <ele>1959</ele>
        <time>2014-07-31T08:53:20.290Z</time>
      </trkpt>
      <trkpt lat="44.91612" lon="6.79612">
        <ele>1959</ele>
        <time>2014-07-31T08:53:21.290Z</time>
      </trkpt>
      <trkpt lat="44.91609" lon="6.79618">
        <ele>1959</ele>
        <time>2014-07-31T08:53:22.290Z</time>
      </trkpt>
      <trkpt lat="44.91606" lon="6.79622">
        <ele>1959</ele>
        <time>2014-07-31T08:53:23.290Z</time>
      </trkpt>
      <trkpt lat="44.91602" lon="6.79626">
        <ele>1959</ele>
        <time>2014-07-31T08:53:24.280Z</time>
      </trkpt>
      <trkpt lat="44.91597" lon="6.7963">
        <ele>1958.3</ele>
        <time>2014-07-31T08:53:25.290Z</time>
      </trkpt>
      <trkpt lat="44.91593" lon="6.79632">
        <ele>1958</ele>
        <time>2014-07-31T08:53:26.290Z</time>
      </trkpt>
      <trkpt lat="44.91588" lon="6.79634">
        <ele>1958</ele>
        <time>2014-07-31T08:53:27.290Z</time>
      </trkpt>
      <trkpt lat="44.91583" lon="6.79634">
        <ele>1958</ele>
        <time>2014-07-31T08:53:28.290Z</time>
      </trkpt>
      <trkpt lat="44.91573" lon="6.79631">
        <ele>1958</ele>
        <time>2014-07-31T08:53:30.190Z</time>
      </trkpt>
      <trkpt lat="44.91567" lon="6.79629">
        <ele>1958</ele>
        <time>2014-07-31T08:53:31.190Z</time>
      </trkpt>
      <trkpt lat="44.91562" lon="6.79627">
        <ele>1958</ele>
        <time>2014-07-31T08:53:32.190Z</time>
      </trkpt>
      <trkpt lat="44.91557" lon="6.79625">
        <ele>1958</ele>
        <time>2014-07-31T08:53:33.190Z</time>
      </trkpt>
      <trkpt lat="44.91552" lon="6.79623">
        <ele>1958</ele>
        <time>2014-07-31T08:53:34.260Z</time>
      </trkpt>
      <trkpt lat="44.91547" lon="6.79621">
        <ele>1956.6</ele>
        <time>2014-07-31T08:53:35.290Z</time>
      </trkpt>
      <trkpt lat="44.91542" lon="6.79619">
        <ele>1956</ele>
        <time>2014-07-31T08:53:36.290Z</time>
      </trkpt>
      <trkpt lat="44.91537" lon="6.79618">
        <ele>1956</ele>
        <time>2014-07-31T08:53:37.290Z</time>
      </trkpt>
      <trkpt lat="44.91533" lon="6.79617">
        <ele>1956</ele>
        <time>2014-07-31T08:53:38.290Z</time>
      </trkpt>
      <trkpt lat="44.9153" lon="6.79616">
        <ele>1956</ele>
        <time>2014-07-31T08:53:39.290Z</time>
      </trkpt>
      <trkpt lat="44.91527" lon="6.79615">
        <ele>1956</ele>
        <time>2014-07-31T08:53:40.290Z</time>
      </trkpt>
      <trkpt lat="44.91523" lon="6.79615">
        <ele>1956</ele>
        <time>2014-07-31T08:53:41.290Z</time>
      </trkpt>
      <trkpt lat="44.91519" lon="6.79614">
        <ele>1956</ele>
        <time>2014-07-31T08:53:42.290Z</time>
      </trkpt>
      <trkpt lat="44.91515" lon="6.79614">
        <ele>1956</ele>
        <time>2014-07-31T08:53:43.290Z</time>
      </trkpt>
      <trkpt lat="44.91511" lon="6.79613">
        <ele>1956</ele>
        <time>2014-07-31T08:53:44.290Z</time>
      </trkpt>
      <trkpt lat="44.91506" lon="6.79612">
        <ele>1955.3</ele>
        <time>2014-07-31T08:53:45.290Z</time>
      </trkpt>
      <trkpt lat="44.91501" lon="6.79612">
        <ele>1955</ele>
        <time>2014-07-31T08:53:46.200Z</time>
      </trkpt>
      <trkpt lat="44.91496" lon="6.79613">
        <ele>1955</ele>
        <time>2014-07-31T08:53:47.290Z</time>
      </trkpt>
      <trkpt lat="44.91491" lon="6.79614">
        <ele>1955</ele>
        <time>2014-07-31T08:53:48.280Z</time>
      </trkpt>
      <trkpt lat="44.91487" lon="6.79615">
        <ele>1955</ele>
        <time>2014-07-31T08:53:49.290Z</time>
      </trkpt>
      <trkpt lat="44.91482" lon="6.79617">
        <ele>1955</ele>
        <time>2014-07-31T08:53:50.290Z</time>
      </trkpt>
      <trkpt lat="44.91473" lon="6.79621">
        <ele>1955</ele>
        <time>2014-07-31T08:53:52.270Z</time>
      </trkpt>
      <trkpt lat="44.91469" lon="6.79623">
        <ele>1955</ele>
        <time>2014-07-31T08:53:53.290Z</time>
      </trkpt>
      <trkpt lat="44.91466" lon="6.79627">
        <ele>1955</ele>
        <time>2014-07-31T08:53:54.290Z</time>
      </trkpt>
      <trkpt lat="44.91463" lon="6.7963">
        <ele>1956.4</ele>
        <time>2014-07-31T08:53:55.290Z</time>
      </trkpt>
      <trkpt lat="44.91459" lon="6.79634">
        <ele>1957</ele>
        <time>2014-07-31T08:53:56.290Z</time>
      </trkpt>
      <trkpt lat="44.91456" lon="6.79636">
        <ele>1957</ele>
        <time>2014-07-31T08:53:57.290Z</time>
      </trkpt>
      <trkpt lat="44.91452" lon="6.79638">
        <ele>1957</ele>
        <time>2014-07-31T08:53:58.290Z</time>
      </trkpt>
      <trkpt lat="44.91448" lon="6.79639">
        <ele>1957</ele>
        <time>2014-07-31T08:53:59.290Z</time>
      </trkpt>
      <trkpt lat="44.91439" lon="6.79639">
        <ele>1957</ele>
        <time>2014-07-31T08:54:01.190Z</time>
      </trkpt>
      <trkpt lat="44.91435" lon="6.79639">
        <ele>1957</ele>
        <time>2014-07-31T08:54:02.190Z</time>
      </trkpt>
      <trkpt lat="44.9143" lon="6.79638">
        <ele>1957</ele>
        <time>2014-07-31T08:54:03.260Z</time>
      </trkpt>
      <trkpt lat="44.91424" lon="6.79638">
        <ele>1957</ele>
        <time>2014-07-31T08:54:04.290Z</time>
      </trkpt>
      <trkpt lat="44.91419" lon="6.79639">
        <ele>1956.3</ele>
        <time>2014-07-31T08:54:05.290Z</time>
      </trkpt>
      <trkpt lat="44.91415" lon="6.79641">
        <ele>1956</ele>
        <time>2014-07-31T08:54:06.290Z</time>
      </trkpt>
      <trkpt lat="44.9141" lon="6.79643">
        <ele>1956</ele>
        <time>2014-07-31T08:54:07.290Z</time>
      </trkpt>
      <trkpt lat="44.91406" lon="6.79645">
        <ele>1956</ele>
        <time>2014-07-31T08:54:08.290Z</time>
      </trkpt>
      <trkpt lat="44.91402" lon="6.79647">
        <ele>1956</ele>
        <time>2014-07-31T08:54:09.290Z</time>
      </trkpt>
      <trkpt lat="44.91398" lon="6.79649">
        <ele>1956</ele>
        <time>2014-07-31T08:54:10.290Z</time>
      </trkpt>
      <trkpt lat="44.91394" lon="6.79651">
        <ele>1956</ele>
        <time>2014-07-31T08:54:11.290Z</time>
      </trkpt>
      <trkpt lat="44.9139" lon="6.79652">
        <ele>1956</ele>
        <time>2014-07-31T08:54:12.290Z</time>
      </trkpt>
      <trkpt lat="44.91386" lon="6.79652">
        <ele>1956</ele>
        <time>2014-07-31T08:54:13.290Z</time>
      </trkpt>
      <trkpt lat="44.91382" lon="6.79652">
        <ele>1956</ele>
        <time>2014-07-31T08:54:14.290Z</time>
      </trkpt>
      <trkpt lat="44.91377" lon="6.79651">
        <ele>1955.3</ele>
        <time>2014-07-31T08:54:15.290Z</time>
      </trkpt>
      <trkpt lat="44.91373" lon="6.7965">
        <ele>1955</ele>
        <time>2014-07-31T08:54:16.290Z</time>
      </trkpt>
      <trkpt lat="44.91364" lon="6.79651">
        <ele>1955</ele>
        <time>2014-07-31T08:54:18.190Z</time>
      </trkpt>
      <trkpt lat="44.91359" lon="6.79652">
        <ele>1955</ele>
        <time>2014-07-31T08:54:19.190Z</time>
      </trkpt>
      <trkpt lat="44.91356" lon="6.79653">
        <ele>1955</ele>
        <time>2014-07-31T08:54:20.260Z</time>
      </trkpt>
      <trkpt lat="44.91348" lon="6.79657">
        <ele>1955</ele>
        <time>2014-07-31T08:54:22.190Z</time>
      </trkpt>
      <trkpt lat="44.91344" lon="6.79659">
        <ele>1955</ele>
        <time>2014-07-31T08:54:23.190Z</time>
      </trkpt>
      <trkpt lat="44.91339" lon="6.79661">
        <ele>1955</ele>
        <time>2014-07-31T08:54:24.190Z</time>
      </trkpt>
      <trkpt lat="44.91336" lon="6.79664">
        <ele>1955.7</ele>
        <time>2014-07-31T08:54:25.280Z</time>
      </trkpt>
      <trkpt lat="44.91332" lon="6.79667">
        <ele>1956</ele>
        <time>2014-07-31T08:54:26.190Z</time>
      </trkpt>
      <trkpt lat="44.91329" lon="6.79669">
        <ele>1956</ele>
        <time>2014-07-31T08:54:27.190Z</time>
      </trkpt>
      <trkpt lat="44.91325" lon="6.79671">
        <ele>1956</ele>
        <time>2014-07-31T08:54:28.290Z</time>
      </trkpt>
      <trkpt lat="44.91321" lon="6.79672">
        <ele>1956</ele>
        <time>2014-07-31T08:54:29.290Z</time>
      </trkpt>
      <trkpt lat="44.91317" lon="6.79671">
        <ele>1956</ele>
        <time>2014-07-31T08:54:30.290Z</time>
      </trkpt>
      <trkpt lat="44.91312" lon="6.79669">
        <ele>1956</ele>
        <time>2014-07-31T08:54:31.290Z</time>
      </trkpt>
      <trkpt lat="44.91304" lon="6.79661">
        <ele>1956</ele>
        <time>2014-07-31T08:54:33.190Z</time>
      </trkpt>
      <trkpt lat="44.913" lon="6.79657">
        <ele>1956</ele>
        <time>2014-07-31T08:54:34.260Z</time>
      </trkpt>
      <trkpt lat="44.91296" lon="6.79655">
        <ele>1956</ele>
        <time>2014-07-31T08:54:35.290Z</time>
      </trkpt>
      <trkpt lat="44.91291" lon="6.79653">
        <ele>1956</ele>
        <time>2014-07-31T08:54:36.290Z</time>
      </trkpt>
      <trkpt lat="44.91282" lon="6.79654">
        <ele>1956</ele>
        <time>2014-07-31T08:54:38.190Z</time>
      </trkpt>
      <trkpt lat="44.91278" lon="6.79656">
        <ele>1956</ele>
        <time>2014-07-31T08:54:39.190Z</time>
      </trkpt>
      <trkpt lat="44.91274" lon="6.79659">
        <ele>1956</ele>
        <time>2014-07-31T08:54:40.190Z</time>
      </trkpt>
      <trkpt lat="44.91269" lon="6.79662">
        <ele>1956</ele>
        <time>2014-07-31T08:54:41.190Z</time>
      </trkpt>
      <trkpt lat="44.91266" lon="6.79666">
        <ele>1956</ele>
        <time>2014-07-31T08:54:42.190Z</time>
      </trkpt>
      <trkpt lat="44.91264" lon="6.79671">
        <ele>1956</ele>
        <time>2014-07-31T08:54:43.180Z</time>
      </trkpt>
      <trkpt lat="44.91262" lon="6.79677">
        <ele>1956</ele>
        <time>2014-07-31T08:54:44.190Z</time>
      </trkpt>
      <trkpt lat="44.91261" lon="6.79684">
        <ele>1955.4</ele>
        <time>2014-07-31T08:54:45.190Z</time>
      </trkpt>
      <trkpt lat="44.91261" lon="6.79691">
        <ele>1955</ele>
        <time>2014-07-31T08:54:46.190Z</time>
      </trkpt>
      <trkpt lat="44.91261" lon="6.79699">
        <ele>1955</ele>
        <time>2014-07-31T08:54:47.190Z</time>
      </trkpt>
      <trkpt lat="44.9126" lon="6.79706">
        <ele>1955</ele>
        <time>2014-07-31T08:54:48.190Z</time>
      </trkpt>
      <trkpt lat="44.91257" lon="6.79711">
        <ele>1955</ele>
        <time>2014-07-31T08:54:49.190Z</time>
      </trkpt>
      <trkpt lat="44.91254" lon="6.79716">
        <ele>1955</ele>
        <time>2014-07-31T08:54:50.190Z</time>
      </trkpt>
      <trkpt lat="44.91248" lon="6.79718">
        <ele>1955</ele>
        <time>2014-07-31T08:54:51.260Z</time>
      </trkpt>
      <trkpt lat="44.91243" lon="6.79719">
        <ele>1955</ele>
        <time>2014-07-31T08:54:52.290Z</time>
      </trkpt>
      <trkpt lat="44.91238" lon="6.7972">
        <ele>1955</ele>
        <time>2014-07-31T08:54:53.290Z</time>
      </trkpt>
      <trkpt lat="44.91229" lon="6.79718">
        <ele>1955.6</ele>
        <time>2014-07-31T08:54:55.180Z</time>
      </trkpt>
      <trkpt lat="44.91224" lon="6.79716">
        <ele>1956</ele>
        <time>2014-07-31T08:54:56.380Z</time>
      </trkpt>
      <trkpt lat="44.91219" lon="6.79714">
        <ele>1956</ele>
        <time>2014-07-31T08:54:57.290Z</time>
      </trkpt>
      <trkpt lat="44.91214" lon="6.79711">
        <ele>1956</ele>
        <time>2014-07-31T08:54:58.290Z</time>
      </trkpt>
      <trkpt lat="44.9121" lon="6.79707">
        <ele>1956</ele>
        <time>2014-07-31T08:54:59.290Z</time>
      </trkpt>
      <trkpt lat="44.91202" lon="6.79697">
        <ele>1956</ele>
        <time>2014-07-31T08:55:01.190Z</time>
      </trkpt>
      <trkpt lat="44.91199" lon="6.79691">
        <ele>1956</ele>
        <time>2014-07-31T08:55:02.190Z</time>
      </trkpt>
      <trkpt lat="44.91196" lon="6.79685">
        <ele>1956</ele>
        <time>2014-07-31T08:55:03.190Z</time>
      </trkpt>
      <trkpt lat="44.91193" lon="6.79679">
        <ele>1956</ele>
        <time>2014-07-31T08:55:04.180Z</time>
      </trkpt>
      <trkpt lat="44.9119" lon="6.79674">
        <ele>1956</ele>
        <time>2014-07-31T08:55:05.190Z</time>
      </trkpt>
      <trkpt lat="44.91187" lon="6.79668">
        <ele>1956</ele>
        <time>2014-07-31T08:55:06.190Z</time>
      </trkpt>
      <trkpt lat="44.91184" lon="6.79663">
        <ele>1956</ele>
        <time>2014-07-31T08:55:07.190Z</time>
      </trkpt>
      <trkpt lat="44.91181" lon="6.79658">
        <ele>1956</ele>
        <time>2014-07-31T08:55:08.190Z</time>
      </trkpt>
      <trkpt lat="44.91178" lon="6.79654">
        <ele>1956</ele>
        <time>2014-07-31T08:55:09.190Z</time>
      </trkpt>
      <trkpt lat="44.91174" lon="6.7965">
        <ele>1956</ele>
        <time>2014-07-31T08:55:10.190Z</time>
      </trkpt>
      <trkpt lat="44.9117" lon="6.79649">
        <ele>1956</ele>
        <time>2014-07-31T08:55:11.260Z</time>
      </trkpt>
      <trkpt lat="44.91167" lon="6.7965">
        <ele>1956</ele>
        <time>2014-07-31T08:55:12.290Z</time>
      </trkpt>
      <trkpt lat="44.91164" lon="6.79651">
        <ele>1956</ele>
        <time>2014-07-31T08:55:13.290Z</time>
      </trkpt>
      <trkpt lat="44.91162" lon="6.79655">
        <ele>1956</ele>
        <time>2014-07-31T08:55:14.290Z</time>
      </trkpt>
      <trkpt lat="44.9116" lon="6.79661">
        <ele>1956</ele>
        <time>2014-07-31T08:55:15.280Z</time>
      </trkpt>
      <trkpt lat="44.91161" lon="6.79669">
        <ele>1956</ele>
        <time>2014-07-31T08:55:16.290Z</time>
      </trkpt>
      <trkpt lat="44.91158" lon="6.79684">
        <ele>1956</ele>
        <time>2014-07-31T08:55:18.190Z</time>
      </trkpt>
      <trkpt lat="44.91155" lon="6.7969">
        <ele>1956</ele>
        <time>2014-07-31T08:55:19.190Z</time>
      </trkpt>
      <trkpt lat="44.91152" lon="6.79696">
        <ele>1956</ele>
        <time>2014-07-31T08:55:20.190Z</time>
      </trkpt>
      <trkpt lat="44.91148" lon="6.79702">
        <ele>1956</ele>
        <time>2014-07-31T08:55:21.190Z</time>
      </trkpt>
      <trkpt lat="44.91143" lon="6.79707">
        <ele>1956</ele>
        <time>2014-07-31T08:55:22.190Z</time>
      </trkpt>
      <trkpt lat="44.91139" lon="6.79712">
        <ele>1956</ele>
        <time>2014-07-31T08:55:23.190Z</time>
      </trkpt>
      <trkpt lat="44.91134" lon="6.79716">
        <ele>1956</ele>
        <time>2014-07-31T08:55:24.190Z</time>
      </trkpt>
      <trkpt lat="44.9113" lon="6.79721">
        <ele>1956</ele>
        <time>2014-07-31T08:55:25.190Z</time>
      </trkpt>
      <trkpt lat="44.91128" lon="6.79728">
        <ele>1956</ele>
        <time>2014-07-31T08:55:26.190Z</time>
      </trkpt>
      <trkpt lat="44.91127" lon="6.79735">
        <ele>1956</ele>
        <time>2014-07-31T08:55:27.190Z</time>
      </trkpt>
      <trkpt lat="44.91126" lon="6.79741">
        <ele>1956</ele>
        <time>2014-07-31T08:55:28.260Z</time>
      </trkpt>
      <trkpt lat="44.91125" lon="6.79747">
        <ele>1956</ele>
        <time>2014-07-31T08:55:29.290Z</time>
      </trkpt>
      <trkpt lat="44.91124" lon="6.79751">
        <ele>1956</ele>
        <time>2014-07-31T08:55:30.290Z</time>
      </trkpt>
      <trkpt lat="44.91124" lon="6.79755">
        <ele>1956</ele>
        <time>2014-07-31T08:55:31.290Z</time>
      </trkpt>
      <trkpt lat="44.91122" lon="6.79759">
        <ele>1956</ele>
        <time>2014-07-31T08:55:32.290Z</time>
      </trkpt>
      <trkpt lat="44.91121" lon="6.79761">
        <ele>1956</ele>
        <time>2014-07-31T08:55:33.290Z</time>
      </trkpt>
      <trkpt lat="44.9112" lon="6.79765">
        <ele>1956</ele>
        <time>2014-07-31T08:55:34.190Z</time>
      </trkpt>
      <trkpt lat="44.91119" lon="6.79768">
        <ele>1956</ele>
        <time>2014-07-31T08:55:35.290Z</time>
      </trkpt>
      <trkpt lat="44.91119" lon="6.7977">
        <ele>1956</ele>
        <time>2014-07-31T08:55:36.290Z</time>
      </trkpt>
      <trkpt lat="44.91119" lon="6.79773">
        <ele>1956</ele>
        <time>2014-07-31T08:55:37.290Z</time>
      </trkpt>
      <trkpt lat="44.91117" lon="6.79777">
        <ele>1956</ele>
        <time>2014-07-31T08:55:38.290Z</time>
      </trkpt>
      <trkpt lat="44.91117" lon="6.79781">
        <ele>1956</ele>
        <time>2014-07-31T08:55:39.290Z</time>
      </trkpt>
      <trkpt lat="44.91116" lon="6.79785">
        <ele>1956</ele>
        <time>2014-07-31T08:55:40.290Z</time>
      </trkpt>
      <trkpt lat="44.91114" lon="6.79789">
        <ele>1956</ele>
        <time>2014-07-31T08:55:41.290Z</time>
      </trkpt>
      <trkpt lat="44.91114" lon="6.79792">
        <ele>1956</ele>
        <time>2014-07-31T08:55:42.290Z</time>
      </trkpt>
      <trkpt lat="44.91113" lon="6.79795">
        <ele>1956</ele>
        <time>2014-07-31T08:55:43.290Z</time>
      </trkpt>
      <trkpt lat="44.91112" lon="6.79797">
        <ele>1956</ele>
        <time>2014-07-31T08:55:44.290Z</time>
      </trkpt>
      <trkpt lat="44.9111" lon="6.798">
        <ele>1956</ele>
        <time>2014-07-31T08:55:46.190Z</time>
      </trkpt>
      <trkpt lat="44.91109" lon="6.79801">
        <ele>1956</ele>
        <time>2014-07-31T08:55:47.190Z</time>
      </trkpt>
      <trkpt lat="44.91108" lon="6.798">
        <ele>1956</ele>
        <time>2014-07-31T08:55:49.290Z</time>
      </trkpt>
      <trkpt lat="44.91107" lon="6.79799">
        <ele>1956</ele>
        <time>2014-07-31T08:55:50.290Z</time>
      </trkpt>
      <trkpt lat="44.91109" lon="6.79794">
        <ele>1956</ele>
        <time>2014-07-31T08:55:52.190Z</time>
      </trkpt>
      <trkpt lat="44.9111" lon="6.79793">
        <ele>1956</ele>
        <time>2014-07-31T08:55:53.190Z</time>
      </trkpt>
      <trkpt lat="44.91112" lon="6.79789">
        <ele>1956</ele>
        <time>2014-07-31T08:55:54.190Z</time>
      </trkpt>
      <trkpt lat="44.91113" lon="6.79786">
        <ele>1956</ele>
        <time>2014-07-31T08:55:55.190Z</time>
      </trkpt>
      <trkpt lat="44.91114" lon="6.79782">
        <ele>1956</ele>
        <time>2014-07-31T08:55:56.190Z</time>
      </trkpt>
      <trkpt lat="44.91115" lon="6.79777">
        <ele>1956</ele>
        <time>2014-07-31T08:55:57.190Z</time>
      </trkpt>
      <trkpt lat="44.91117" lon="6.79772">
        <ele>1956</ele>
        <time>2014-07-31T08:55:58.190Z</time>
      </trkpt>
      <trkpt lat="44.91118" lon="6.79767">
        <ele>1956</ele>
        <time>2014-07-31T08:55:59.210Z</time>
      </trkpt>
      <trkpt lat="44.91121" lon="6.79757">
        <ele>1956</ele>
        <time>2014-07-31T08:56:01.190Z</time>
      </trkpt>
      <trkpt lat="44.91122" lon="6.79752">
        <ele>1956</ele>
        <time>2014-07-31T08:56:02.260Z</time>
      </trkpt>
      <trkpt lat="44.91122" lon="6.79746">
        <ele>1956</ele>
        <time>2014-07-31T08:56:03.290Z</time>
      </trkpt>
      <trkpt lat="44.91123" lon="6.79741">
        <ele>1956</ele>
        <time>2014-07-31T08:56:04.290Z</time>
      </trkpt>
      <trkpt lat="44.91124" lon="6.79735">
        <ele>1956</ele>
        <time>2014-07-31T08:56:05.290Z</time>
      </trkpt>
      <trkpt lat="44.91126" lon="6.7973">
        <ele>1956</ele>
        <time>2014-07-31T08:56:06.290Z</time>
      </trkpt>
      <trkpt lat="44.91128" lon="6.79726">
        <ele>1956</ele>
        <time>2014-07-31T08:56:07.290Z</time>
      </trkpt>
      <trkpt lat="44.9113" lon="6.79724">
        <ele>1956</ele>
        <time>2014-07-31T08:56:08.300Z</time>
      </trkpt>
      <trkpt lat="44.91131" lon="6.79725">
        <ele>1956</ele>
        <time>2014-07-31T08:56:09.290Z</time>
      </trkpt>
      <trkpt lat="44.91132" lon="6.79726">
        <ele>1956</ele>
        <time>2014-07-31T08:56:10.280Z</time>
      </trkpt>
      <trkpt lat="44.91133" lon="6.79728">
        <ele>1956</ele>
        <time>2014-07-31T08:56:11.290Z</time>
      </trkpt>
      <trkpt lat="44.91133" lon="6.7973">
        <ele>1956</ele>
        <time>2014-07-31T08:56:12.290Z</time>
      </trkpt>
      <trkpt lat="44.91133" lon="6.79734">
        <ele>1956</ele>
        <time>2014-07-31T08:56:13.290Z</time>
      </trkpt>
      <trkpt lat="44.91133" lon="6.79739">
        <ele>1956</ele>
        <time>2014-07-31T08:56:14.290Z</time>
      </trkpt>
      <trkpt lat="44.91133" lon="6.79744">
        <ele>1954.6</ele>
        <time>2014-07-31T08:56:15.290Z</time>
      </trkpt>
      <trkpt lat="44.91132" lon="6.7975">
        <ele>1954</ele>
        <time>2014-07-31T08:56:16.290Z</time>
      </trkpt>
      <trkpt lat="44.9113" lon="6.7976">
        <ele>1954</ele>
        <time>2014-07-31T08:56:18.190Z</time>
      </trkpt>
      <trkpt lat="44.91129" lon="6.79765">
        <ele>1954</ele>
        <time>2014-07-31T08:56:19.200Z</time>
      </trkpt>
      <trkpt lat="44.91128" lon="6.79769">
        <ele>1954</ele>
        <time>2014-07-31T08:56:20.290Z</time>
      </trkpt>
      <trkpt lat="44.91127" lon="6.79773">
        <ele>1954</ele>
        <time>2014-07-31T08:56:21.290Z</time>
      </trkpt>
      <trkpt lat="44.91126" lon="6.79778">
        <ele>1954</ele>
        <time>2014-07-31T08:56:22.290Z</time>
      </trkpt>
      <trkpt lat="44.91126" lon="6.79789">
        <ele>1954</ele>
        <time>2014-07-31T08:56:24.190Z</time>
      </trkpt>
      <trkpt lat="44.91125" lon="6.79795">
        <ele>1952.8</ele>
        <time>2014-07-31T08:56:25.190Z</time>
      </trkpt>
      <trkpt lat="44.91124" lon="6.798">
        <ele>1952</ele>
        <time>2014-07-31T08:56:26.190Z</time>
      </trkpt>
      <trkpt lat="44.91122" lon="6.79805">
        <ele>1952</ele>
        <time>2014-07-31T08:56:27.190Z</time>
      </trkpt>
      <trkpt lat="44.9112" lon="6.79812">
        <ele>1952</ele>
        <time>2014-07-31T08:56:28.190Z</time>
      </trkpt>
      <trkpt lat="44.91118" lon="6.79818">
        <ele>1952</ele>
        <time>2014-07-31T08:56:29.190Z</time>
      </trkpt>
      <trkpt lat="44.91116" lon="6.79824">
        <ele>1952</ele>
        <time>2014-07-31T08:56:30.190Z</time>
      </trkpt>
      <trkpt lat="44.91113" lon="6.79831">
        <ele>1952</ele>
        <time>2014-07-31T08:56:31.190Z</time>
      </trkpt>
      <trkpt lat="44.91111" lon="6.79838">
        <ele>1952</ele>
        <time>2014-07-31T08:56:32.190Z</time>
      </trkpt>
      <trkpt lat="44.91107" lon="6.79845">
        <ele>1952</ele>
        <time>2014-07-31T08:56:33.190Z</time>
      </trkpt>
      <trkpt lat="44.91104" lon="6.79853">
        <ele>1952</ele>
        <time>2014-07-31T08:56:34.260Z</time>
      </trkpt>
      <trkpt lat="44.91102" lon="6.79863">
        <ele>1949.8</ele>
        <time>2014-07-31T08:56:35.290Z</time>
      </trkpt>
      <trkpt lat="44.911" lon="6.79878">
        <ele>1949</ele>
        <time>2014-07-31T08:56:37.190Z</time>
      </trkpt>
      <trkpt lat="44.911" lon="6.79888">
        <ele>1949</ele>
        <time>2014-07-31T08:56:38.190Z</time>
      </trkpt>
      <trkpt lat="44.91098" lon="6.79899">
        <ele>1949</ele>
        <time>2014-07-31T08:56:39.190Z</time>
      </trkpt>
      <trkpt lat="44.91096" lon="6.79908">
        <ele>1947.1</ele>
        <time>2014-07-31T08:56:40.190Z</time>
      </trkpt>
      <trkpt lat="44.91093" lon="6.79916">
        <ele>1946</ele>
        <time>2014-07-31T08:56:41.190Z</time>
      </trkpt>
      <trkpt lat="44.91089" lon="6.79924">
        <ele>1946</ele>
        <time>2014-07-31T08:56:42.190Z</time>
      </trkpt>
      <trkpt lat="44.91086" lon="6.79932">
        <ele>1946</ele>
        <time>2014-07-31T08:56:43.190Z</time>
      </trkpt>
      <trkpt lat="44.91082" lon="6.79939">
        <ele>1946</ele>
        <time>2014-07-31T08:56:44.190Z</time>
      </trkpt>
      <trkpt lat="44.91078" lon="6.79947">
        <ele>1942.9</ele>
        <time>2014-07-31T08:56:45.190Z</time>
      </trkpt>
      <trkpt lat="44.91073" lon="6.79956">
        <ele>1939.8</ele>
        <time>2014-07-31T08:56:46.190Z</time>
      </trkpt>
      <trkpt lat="44.91069" lon="6.79962">
        <ele>1939</ele>
        <time>2014-07-31T08:56:47.190Z</time>
      </trkpt>
      <trkpt lat="44.91064" lon="6.79968">
        <ele>1938.4</ele>
        <time>2014-07-31T08:56:48.190Z</time>
      </trkpt>
      <trkpt lat="44.9106" lon="6.79973">
        <ele>1937.4</ele>
        <time>2014-07-31T08:56:49.190Z</time>
      </trkpt>
      <trkpt lat="44.91054" lon="6.79979">
        <ele>1936.4</ele>
        <time>2014-07-31T08:56:50.190Z</time>
      </trkpt>
      <trkpt lat="44.91049" lon="6.79984">
        <ele>1936</ele>
        <time>2014-07-31T08:56:51.260Z</time>
      </trkpt>
      <trkpt lat="44.91043" lon="6.7999">
        <ele>1936</ele>
        <time>2014-07-31T08:56:52.280Z</time>
      </trkpt>
      <trkpt lat="44.91032" lon="6.80004">
        <ele>1935.4</ele>
        <time>2014-07-31T08:56:54.190Z</time>
      </trkpt>
      <trkpt lat="44.91026" lon="6.80011">
        <ele>1934.4</ele>
        <time>2014-07-31T08:56:55.190Z</time>
      </trkpt>
      <trkpt lat="44.91021" lon="6.80017">
        <ele>1933.4</ele>
        <time>2014-07-31T08:56:56.190Z</time>
      </trkpt>
      <trkpt lat="44.91017" lon="6.80021">
        <ele>1932.4</ele>
        <time>2014-07-31T08:56:57.190Z</time>
      </trkpt>
      <trkpt lat="44.91015" lon="6.80024">
        <ele>1932</ele>
        <time>2014-07-31T08:56:58.290Z</time>
      </trkpt>
      <trkpt lat="44.91014" lon="6.80027">
        <ele>1932</ele>
        <time>2014-07-31T08:56:59.290Z</time>
      </trkpt>
      <trkpt lat="44.91014" lon="6.80029">
        <ele>1932</ele>
        <time>2014-07-31T08:57:01.190Z</time>
      </trkpt>
      <trkpt lat="44.91015" lon="6.80028">
        <ele>1932</ele>
        <time>2014-07-31T08:57:02.190Z</time>
      </trkpt>
      <trkpt lat="44.91017" lon="6.80028">
        <ele>1932</ele>
        <time>2014-07-31T08:57:03.190Z</time>
      </trkpt>
      <trkpt lat="44.91019" lon="6.80028">
        <ele>1931.4</ele>
        <time>2014-07-31T08:57:04.190Z</time>
      </trkpt>
      <trkpt lat="44.91021" lon="6.80027">
        <ele>1931</ele>
        <time>2014-07-31T08:57:05.190Z</time>
      </trkpt>
      <trkpt lat="44.91025" lon="6.80027">
        <ele>1931</ele>
        <time>2014-07-31T08:57:06.190Z</time>
      </trkpt>
      <trkpt lat="44.9103" lon="6.80025">
        <ele>1931</ele>
        <time>2014-07-31T08:57:07.190Z</time>
      </trkpt>
      <trkpt lat="44.91036" lon="6.80024">
        <ele>1931</ele>
        <time>2014-07-31T08:57:08.190Z</time>
      </trkpt>
      <trkpt lat="44.91041" lon="6.80024">
        <ele>1931</ele>
        <time>2014-07-31T08:57:09.190Z</time>
      </trkpt>
      <trkpt lat="44.91047" lon="6.80025">
        <ele>1929.6</ele>
        <time>2014-07-31T08:57:10.260Z</time>
      </trkpt>
      <trkpt lat="44.91054" lon="6.80025">
        <ele>1929</ele>
        <time>2014-07-31T08:57:11.290Z</time>
      </trkpt>
      <trkpt lat="44.91059" lon="6.80024">
        <ele>1929</ele>
        <time>2014-07-31T08:57:12.290Z</time>
      </trkpt>
      <trkpt lat="44.91064" lon="6.80023">
        <ele>1929</ele>
        <time>2014-07-31T08:57:13.290Z</time>
      </trkpt>
      <trkpt lat="44.91069" lon="6.80022">
        <ele>1929</ele>
        <time>2014-07-31T08:57:14.290Z</time>
      </trkpt>
      <trkpt lat="44.91072" lon="6.80023">
        <ele>1926.1</ele>
        <time>2014-07-31T08:57:15.290Z</time>
      </trkpt>
      <trkpt lat="44.91074" lon="6.80025">
        <ele>1923.6</ele>
        <time>2014-07-31T08:57:16.290Z</time>
      </trkpt>
      <trkpt lat="44.91075" lon="6.8003">
        <ele>1923</ele>
        <time>2014-07-31T08:57:18.190Z</time>
      </trkpt>
      <trkpt lat="44.91074" lon="6.80032">
        <ele>1922.4</ele>
        <time>2014-07-31T08:57:19.190Z</time>
      </trkpt>
      <trkpt lat="44.91074" lon="6.80034">
        <ele>1922.6</ele>
        <time>2014-07-31T08:57:20.190Z</time>
      </trkpt>
      <trkpt lat="44.91073" lon="6.80036">
        <ele>1922.4</ele>
        <time>2014-07-31T08:57:21.190Z</time>
      </trkpt>
      <trkpt lat="44.91071" lon="6.80038">
        <ele>1922</ele>
        <time>2014-07-31T08:57:22.190Z</time>
      </trkpt>
      <trkpt lat="44.91071" lon="6.8004">
        <ele>1922</ele>
        <time>2014-07-31T08:57:23.190Z</time>
      </trkpt>
      <trkpt lat="44.9107" lon="6.80036">
        <ele>1922</ele>
        <time>2014-07-31T08:57:26.190Z</time>
      </trkpt>
      <trkpt lat="44.91069" lon="6.80035">
        <ele>1922</ele>
        <time>2014-07-31T08:57:28.290Z</time>
      </trkpt>
      <trkpt lat="44.91068" lon="6.80034">
        <ele>1921</ele>
        <time>2014-07-31T08:57:31.290Z</time>
      </trkpt>
      <trkpt lat="44.91068" lon="6.80032">
        <ele>1921</ele>
        <time>2014-07-31T08:57:35.190Z</time>
      </trkpt>
      <trkpt lat="44.91066" lon="6.80032">
        <ele>1921</ele>
        <time>2014-07-31T08:57:37.190Z</time>
      </trkpt>
      <trkpt lat="44.91067" lon="6.80033">
        <ele>1921</ele>
        <time>2014-07-31T08:57:39.190Z</time>
      </trkpt>
      <trkpt lat="44.91066" lon="6.80034">
        <ele>1921</ele>
        <time>2014-07-31T08:57:41.190Z</time>
      </trkpt>
      <trkpt lat="44.91065" lon="6.80035">
        <ele>1921</ele>
        <time>2014-07-31T08:57:42.190Z</time>
      </trkpt>
      <trkpt lat="44.91063" lon="6.80036">
        <ele>1921</ele>
        <time>2014-07-31T08:57:43.190Z</time>
      </trkpt>
      <trkpt lat="44.91061" lon="6.80036">
        <ele>1921</ele>
        <time>2014-07-31T08:57:44.260Z</time>
      </trkpt>
      <trkpt lat="44.9106" lon="6.80035">
        <ele>1922.4</ele>
        <time>2014-07-31T08:57:45.290Z</time>
      </trkpt>
      <trkpt lat="44.91058" lon="6.80034">
        <ele>1923</ele>
        <time>2014-07-31T08:57:46.290Z</time>
      </trkpt>
      <trkpt lat="44.91056" lon="6.80034">
        <ele>1923</ele>
        <time>2014-07-31T08:57:47.290Z</time>
      </trkpt>
      <trkpt lat="44.91052" lon="6.80036">
        <ele>1923</ele>
        <time>2014-07-31T08:57:49.180Z</time>
      </trkpt>
      <trkpt lat="44.9105" lon="6.80038">
        <ele>1923</ele>
        <time>2014-07-31T08:57:50.190Z</time>
      </trkpt>
      <trkpt lat="44.91048" lon="6.80039">
        <ele>1923</ele>
        <time>2014-07-31T08:57:51.260Z</time>
      </trkpt>
      <trkpt lat="44.91045" lon="6.80041">
        <ele>1923</ele>
        <time>2014-07-31T08:57:52.290Z</time>
      </trkpt>
      <trkpt lat="44.91042" lon="6.80043">
        <ele>1923</ele>
        <time>2014-07-31T08:57:53.290Z</time>
      </trkpt>
      <trkpt lat="44.91039" lon="6.80044">
        <ele>1923</ele>
        <time>2014-07-31T08:57:54.290Z</time>
      </trkpt>
      <trkpt lat="44.91036" lon="6.80045">
        <ele>1923</ele>
        <time>2014-07-31T08:57:55.290Z</time>
      </trkpt>
      <trkpt lat="44.91033" lon="6.80047">
        <ele>1923</ele>
        <time>2014-07-31T08:57:56.290Z</time>
      </trkpt>
      <trkpt lat="44.91029" lon="6.80049">
        <ele>1923</ele>
        <time>2014-07-31T08:57:57.290Z</time>
      </trkpt>
      <trkpt lat="44.91026" lon="6.80053">
        <ele>1923</ele>
        <time>2014-07-31T08:57:58.290Z</time>
      </trkpt>
      <trkpt lat="44.91022" lon="6.80055">
        <ele>1923</ele>
        <time>2014-07-31T08:57:59.290Z</time>
      </trkpt>
      <trkpt lat="44.91015" lon="6.80059">
        <ele>1923</ele>
        <time>2014-07-31T08:58:01.260Z</time>
      </trkpt>
      <trkpt lat="44.9101" lon="6.80061">
        <ele>1923</ele>
        <time>2014-07-31T08:58:02.290Z</time>
      </trkpt>
      <trkpt lat="44.91006" lon="6.80062">
        <ele>1923</ele>
        <time>2014-07-31T08:58:03.290Z</time>
      </trkpt>
      <trkpt lat="44.91002" lon="6.80061">
        <ele>1923</ele>
        <time>2014-07-31T08:58:04.290Z</time>
      </trkpt>
      <trkpt lat="44.90998" lon="6.8006">
        <ele>1923</ele>
        <time>2014-07-31T08:58:05.290Z</time>
      </trkpt>
      <trkpt lat="44.90993" lon="6.80059">
        <ele>1923</ele>
        <time>2014-07-31T08:58:06.290Z</time>
      </trkpt>
      <trkpt lat="44.90987" lon="6.80058">
        <ele>1923</ele>
        <time>2014-07-31T08:58:07.290Z</time>
      </trkpt>
      <trkpt lat="44.90982" lon="6.80057">
        <ele>1923</ele>
        <time>2014-07-31T08:58:08.290Z</time>
      </trkpt>
      <trkpt lat="44.90975" lon="6.80056">
        <ele>1923</ele>
        <time>2014-07-31T08:58:09.290Z</time>
      </trkpt>
      <trkpt lat="44.9097" lon="6.80058">
        <ele>1923</ele>
        <time>2014-07-31T08:58:10.290Z</time>
      </trkpt>
      <trkpt lat="44.90965" lon="6.8006">
        <ele>1923</ele>
        <time>2014-07-31T08:58:11.280Z</time>
      </trkpt>
      <trkpt lat="44.90961" lon="6.80064">
        <ele>1923</ele>
        <time>2014-07-31T08:58:12.290Z</time>
      </trkpt>
      <trkpt lat="44.90957" lon="6.80068">
        <ele>1923</ele>
        <time>2014-07-31T08:58:13.290Z</time>
      </trkpt>
      <trkpt lat="44.90954" lon="6.8007">
        <ele>1923</ele>
        <time>2014-07-31T08:58:14.290Z</time>
      </trkpt>
      <trkpt lat="44.9095" lon="6.80071">
        <ele>1923</ele>
        <time>2014-07-31T08:58:15.290Z</time>
      </trkpt>
      <trkpt lat="44.90947" lon="6.80072">
        <ele>1923</ele>
        <time>2014-07-31T08:58:16.290Z</time>
      </trkpt>
      <trkpt lat="44.90941" lon="6.80072">
        <ele>1923</ele>
        <time>2014-07-31T08:58:18.260Z</time>
      </trkpt>
      <trkpt lat="44.90937" lon="6.8007">
        <ele>1923</ele>
        <time>2014-07-31T08:58:19.290Z</time>
      </trkpt>
      <trkpt lat="44.90934" lon="6.80068">
        <ele>1923</ele>
        <time>2014-07-31T08:58:20.290Z</time>
      </trkpt>
      <trkpt lat="44.9093" lon="6.80066">
        <ele>1923</ele>
        <time>2014-07-31T08:58:21.290Z</time>
      </trkpt>
      <trkpt lat="44.90926" lon="6.80064">
        <ele>1923</ele>
        <time>2014-07-31T08:58:22.280Z</time>
      </trkpt>
      <trkpt lat="44.90922" lon="6.80064">
        <ele>1923</ele>
        <time>2014-07-31T08:58:23.290Z</time>
      </trkpt>
      <trkpt lat="44.90918" lon="6.80063">
        <ele>1923</ele>
        <time>2014-07-31T08:58:24.290Z</time>
      </trkpt>
      <trkpt lat="44.90915" lon="6.80062">
        <ele>1922.3</ele>
        <time>2014-07-31T08:58:25.290Z</time>
      </trkpt>
      <trkpt lat="44.90912" lon="6.8006">
        <ele>1922</ele>
        <time>2014-07-31T08:58:26.290Z</time>
      </trkpt>
      <trkpt lat="44.90909" lon="6.80058">
        <ele>1922</ele>
        <time>2014-07-31T08:58:27.290Z</time>
      </trkpt>
      <trkpt lat="44.90906" lon="6.80055">
        <ele>1922</ele>
        <time>2014-07-31T08:58:28.290Z</time>
      </trkpt>
      <trkpt lat="44.90902" lon="6.80051">
        <ele>1922</ele>
        <time>2014-07-31T08:58:29.290Z</time>
      </trkpt>
      <trkpt lat="44.90899" lon="6.80048">
        <ele>1922</ele>
        <time>2014-07-31T08:58:30.290Z</time>
      </trkpt>
      <trkpt lat="44.90895" lon="6.80045">
        <ele>1922</ele>
        <time>2014-07-31T08:58:31.290Z</time>
      </trkpt>
      <trkpt lat="44.90887" lon="6.8004">
        <ele>1922</ele>
        <time>2014-07-31T08:58:33.190Z</time>
      </trkpt>
      <trkpt lat="44.90883" lon="6.80037">
        <ele>1922</ele>
        <time>2014-07-31T08:58:34.260Z</time>
      </trkpt>
      <trkpt lat="44.90875" lon="6.8003">
        <ele>1921</ele>
        <time>2014-07-31T08:58:36.190Z</time>
      </trkpt>
      <trkpt lat="44.90872" lon="6.80027">
        <ele>1921</ele>
        <time>2014-07-31T08:58:37.190Z</time>
      </trkpt>
      <trkpt lat="44.90868" lon="6.80024">
        <ele>1921</ele>
        <time>2014-07-31T08:58:38.190Z</time>
      </trkpt>
      <trkpt lat="44.90864" lon="6.80022">
        <ele>1921</ele>
        <time>2014-07-31T08:58:39.190Z</time>
      </trkpt>
      <trkpt lat="44.90859" lon="6.80022">
        <ele>1921</ele>
        <time>2014-07-31T08:58:40.190Z</time>
      </trkpt>
      <trkpt lat="44.90854" lon="6.80021">
        <ele>1921</ele>
        <time>2014-07-31T08:58:41.190Z</time>
      </trkpt>
      <trkpt lat="44.90849" lon="6.80021">
        <ele>1921</ele>
        <time>2014-07-31T08:58:42.190Z</time>
      </trkpt>
      <trkpt lat="44.90843" lon="6.80022">
        <ele>1921</ele>
        <time>2014-07-31T08:58:43.190Z</time>
      </trkpt>
      <trkpt lat="44.90839" lon="6.80022">
        <ele>1921</ele>
        <time>2014-07-31T08:58:44.180Z</time>
      </trkpt>
      <trkpt lat="44.90835" lon="6.80023">
        <ele>1920.4</ele>
        <time>2014-07-31T08:58:45.190Z</time>
      </trkpt>
      <trkpt lat="44.90832" lon="6.80023">
        <ele>1920</ele>
        <time>2014-07-31T08:58:46.190Z</time>
      </trkpt>
      <trkpt lat="44.90827" lon="6.80023">
        <ele>1920</ele>
        <time>2014-07-31T08:58:47.190Z</time>
      </trkpt>
      <trkpt lat="44.90822" lon="6.80023">
        <ele>1920</ele>
        <time>2014-07-31T08:58:48.190Z</time>
      </trkpt>
      <trkpt lat="44.90819" lon="6.80022">
        <ele>1920</ele>
        <time>2014-07-31T08:58:49.190Z</time>
      </trkpt>
      <trkpt lat="44.90815" lon="6.80023">
        <ele>1920</ele>
        <time>2014-07-31T08:58:50.190Z</time>
      </trkpt>
      <trkpt lat="44.90811" lon="6.80024">
        <ele>1920</ele>
        <time>2014-07-31T08:58:51.260Z</time>
      </trkpt>
      <trkpt lat="44.90803" lon="6.8003">
        <ele>1920</ele>
        <time>2014-07-31T08:58:53.190Z</time>
      </trkpt>
      <trkpt lat="44.908" lon="6.80033">
        <ele>1920</ele>
        <time>2014-07-31T08:58:54.190Z</time>
      </trkpt>
      <trkpt lat="44.90793" lon="6.8004">
        <ele>1919</ele>
        <time>2014-07-31T08:58:56.190Z</time>
      </trkpt>
      <trkpt lat="44.9079" lon="6.80044">
        <ele>1919</ele>
        <time>2014-07-31T08:58:57.190Z</time>
      </trkpt>
      <trkpt lat="44.90787" lon="6.80048">
        <ele>1919</ele>
        <time>2014-07-31T08:58:58.190Z</time>
      </trkpt>
      <trkpt lat="44.90783" lon="6.80052">
        <ele>1919</ele>
        <time>2014-07-31T08:58:59.190Z</time>
      </trkpt>
      <trkpt lat="44.9078" lon="6.80057">
        <ele>1919</ele>
        <time>2014-07-31T08:59:00.250Z</time>
      </trkpt>
      <trkpt lat="44.90777" lon="6.80061">
        <ele>1919</ele>
        <time>2014-07-31T08:59:01.290Z</time>
      </trkpt>
      <trkpt lat="44.90773" lon="6.80065">
        <ele>1919</ele>
        <time>2014-07-31T08:59:02.290Z</time>
      </trkpt>
      <trkpt lat="44.90769" lon="6.80069">
        <ele>1919</ele>
        <time>2014-07-31T08:59:03.290Z</time>
      </trkpt>
      <trkpt lat="44.90765" lon="6.80071">
        <ele>1919</ele>
        <time>2014-07-31T08:59:04.290Z</time>
      </trkpt>
      <trkpt lat="44.90755" lon="6.80074">
        <ele>1917</ele>
        <time>2014-07-31T08:59:06.190Z</time>
      </trkpt>
      <trkpt lat="44.9075" lon="6.80078">
        <ele>1917</ele>
        <time>2014-07-31T08:59:07.190Z</time>
      </trkpt>
      <trkpt lat="44.90746" lon="6.80084">
        <ele>1917</ele>
        <time>2014-07-31T08:59:08.290Z</time>
      </trkpt>
      <trkpt lat="44.90739" lon="6.80096">
        <ele>1917</ele>
        <time>2014-07-31T08:59:10.190Z</time>
      </trkpt>
      <trkpt lat="44.90738" lon="6.80103">
        <ele>1917</ele>
        <time>2014-07-31T08:59:11.190Z</time>
      </trkpt>
      <trkpt lat="44.90738" lon="6.80108">
        <ele>1917</ele>
        <time>2014-07-31T08:59:12.190Z</time>
      </trkpt>
      <trkpt lat="44.90739" lon="6.80113">
        <ele>1917</ele>
        <time>2014-07-31T08:59:13.190Z</time>
      </trkpt>
      <trkpt lat="44.9074" lon="6.80118">
        <ele>1917</ele>
        <time>2014-07-31T08:59:14.190Z</time>
      </trkpt>
      <trkpt lat="44.90742" lon="6.80121">
        <ele>1916.4</ele>
        <time>2014-07-31T08:59:15.190Z</time>
      </trkpt>
      <trkpt lat="44.90743" lon="6.80125">
        <ele>1916</ele>
        <time>2014-07-31T08:59:16.290Z</time>
      </trkpt>
      <trkpt lat="44.90745" lon="6.80133">
        <ele>1916</ele>
        <time>2014-07-31T08:59:18.190Z</time>
      </trkpt>
      <trkpt lat="44.90746" lon="6.80136">
        <ele>1916</ele>
        <time>2014-07-31T08:59:19.190Z</time>
      </trkpt>
      <trkpt lat="44.90748" lon="6.80139">
        <ele>1916</ele>
        <time>2014-07-31T08:59:20.190Z</time>
      </trkpt>
      <trkpt lat="44.90749" lon="6.80141">
        <ele>1916</ele>
        <time>2014-07-31T08:59:21.190Z</time>
      </trkpt>
      <trkpt lat="44.90751" lon="6.80143">
        <ele>1916</ele>
        <time>2014-07-31T08:59:22.190Z</time>
      </trkpt>
      <trkpt lat="44.90752" lon="6.80145">
        <ele>1916</ele>
        <time>2014-07-31T08:59:23.190Z</time>
      </trkpt>
      <trkpt lat="44.90754" lon="6.80148">
        <ele>1916</ele>
        <time>2014-07-31T08:59:24.190Z</time>
      </trkpt>
      <trkpt lat="44.90755" lon="6.8015">
        <ele>1917.2</ele>
        <time>2014-07-31T08:59:25.190Z</time>
      </trkpt>
      <trkpt lat="44.90756" lon="6.80152">
        <ele>1918</ele>
        <time>2014-07-31T08:59:26.260Z</time>
      </trkpt>
      <trkpt lat="44.90758" lon="6.80154">
        <ele>1918</ele>
        <time>2014-07-31T08:59:27.290Z</time>
      </trkpt>
      <trkpt lat="44.90758" lon="6.80156">
        <ele>1918</ele>
        <time>2014-07-31T08:59:28.290Z</time>
      </trkpt>
      <trkpt lat="44.9076" lon="6.80159">
        <ele>1918</ele>
        <time>2014-07-31T08:59:29.290Z</time>
      </trkpt>
      <trkpt lat="44.9076" lon="6.80161">
        <ele>1918</ele>
        <time>2014-07-31T08:59:30.290Z</time>
      </trkpt>
      <trkpt lat="44.90761" lon="6.80163">
        <ele>1918</ele>
        <time>2014-07-31T08:59:31.290Z</time>
      </trkpt>
      <trkpt lat="44.90761" lon="6.80166">
        <ele>1918</ele>
        <time>2014-07-31T08:59:32.290Z</time>
      </trkpt>
      <trkpt lat="44.90762" lon="6.80169">
        <ele>1918</ele>
        <time>2014-07-31T08:59:33.290Z</time>
      </trkpt>
      <trkpt lat="44.90762" lon="6.80173">
        <ele>1919.2</ele>
        <time>2014-07-31T08:59:35.190Z</time>
      </trkpt>
      <trkpt lat="44.90762" lon="6.80176">
        <ele>1920</ele>
        <time>2014-07-31T08:59:36.190Z</time>
      </trkpt>
      <trkpt lat="44.90762" lon="6.80179">
        <ele>1920</ele>
        <time>2014-07-31T08:59:37.190Z</time>
      </trkpt>
      <trkpt lat="44.90763" lon="6.80181">
        <ele>1920</ele>
        <time>2014-07-31T08:59:38.190Z</time>
      </trkpt>
      <trkpt lat="44.90764" lon="6.80183">
        <ele>1920</ele>
        <time>2014-07-31T08:59:39.180Z</time>
      </trkpt>
      <trkpt lat="44.90764" lon="6.80185">
        <ele>1920</ele>
        <time>2014-07-31T08:59:40.280Z</time>
      </trkpt>
      <trkpt lat="44.90765" lon="6.80187">
        <ele>1920</ele>
        <time>2014-07-31T08:59:41.190Z</time>
      </trkpt>
      <trkpt lat="44.90765" lon="6.8019">
        <ele>1920</ele>
        <time>2014-07-31T08:59:42.190Z</time>
      </trkpt>
      <trkpt lat="44.90766" lon="6.80192">
        <ele>1920</ele>
        <time>2014-07-31T08:59:43.160Z</time>
      </trkpt>
      <trkpt lat="44.90767" lon="6.80195">
        <ele>1920</ele>
        <time>2014-07-31T08:59:44.190Z</time>
      </trkpt>
      <trkpt lat="44.90768" lon="6.80197">
        <ele>1921.2</ele>
        <time>2014-07-31T08:59:45.190Z</time>
      </trkpt>
      <trkpt lat="44.90769" lon="6.80199">
        <ele>1922</ele>
        <time>2014-07-31T08:59:46.190Z</time>
      </trkpt>
      <trkpt lat="44.9077" lon="6.80201">
        <ele>1922</ele>
        <time>2014-07-31T08:59:47.190Z</time>
      </trkpt>
      <trkpt lat="44.90772" lon="6.80204">
        <ele>1922</ele>
        <time>2014-07-31T08:59:48.190Z</time>
      </trkpt>
      <trkpt lat="44.90773" lon="6.80206">
        <ele>1922</ele>
        <time>2014-07-31T08:59:49.190Z</time>
      </trkpt>
      <trkpt lat="44.90774" lon="6.80207">
        <ele>1922</ele>
        <time>2014-07-31T08:59:50.220Z</time>
      </trkpt>
      <trkpt lat="44.90777" lon="6.80212">
        <ele>1922</ele>
        <time>2014-07-31T08:59:52.190Z</time>
      </trkpt>
      <trkpt lat="44.90777" lon="6.80214">
        <ele>1922</ele>
        <time>2014-07-31T08:59:53.190Z</time>
      </trkpt>
      <trkpt lat="44.90778" lon="6.80216">
        <ele>1922</ele>
        <time>2014-07-31T08:59:54.190Z</time>
      </trkpt>
      <trkpt lat="44.9078" lon="6.80217">
        <ele>1922.6</ele>
        <time>2014-07-31T08:59:55.190Z</time>
      </trkpt>
      <trkpt lat="44.90781" lon="6.80219">
        <ele>1923</ele>
        <time>2014-07-31T08:59:56.190Z</time>
      </trkpt>
      <trkpt lat="44.90783" lon="6.80221">
        <ele>1923</ele>
        <time>2014-07-31T08:59:57.190Z</time>
      </trkpt>
      <trkpt lat="44.90784" lon="6.80223">
        <ele>1923</ele>
        <time>2014-07-31T08:59:58.190Z</time>
      </trkpt>
      <trkpt lat="44.90785" lon="6.80225">
        <ele>1923</ele>
        <time>2014-07-31T08:59:59.190Z</time>
      </trkpt>
      <trkpt lat="44.90786" lon="6.80226">
        <ele>1923</ele>
        <time>2014-07-31T09:00:00.210Z</time>
      </trkpt>
      <trkpt lat="44.90786" lon="6.80228">
        <ele>1923</ele>
        <time>2014-07-31T09:00:02.290Z</time>
      </trkpt>
      <trkpt lat="44.90787" lon="6.8023">
        <ele>1923</ele>
        <time>2014-07-31T09:00:04.290Z</time>
      </trkpt>
      <trkpt lat="44.90788" lon="6.80232">
        <ele>1923.7</ele>
        <time>2014-07-31T09:00:05.290Z</time>
      </trkpt>
      <trkpt lat="44.9079" lon="6.80235">
        <ele>1924</ele>
        <time>2014-07-31T09:00:06.290Z</time>
      </trkpt>
      <trkpt lat="44.90792" lon="6.80238">
        <ele>1924</ele>
        <time>2014-07-31T09:00:07.290Z</time>
      </trkpt>
      <trkpt lat="44.90795" lon="6.8024">
        <ele>1924</ele>
        <time>2014-07-31T09:00:08.290Z</time>
      </trkpt>
      <trkpt lat="44.90797" lon="6.80242">
        <ele>1924</ele>
        <time>2014-07-31T09:00:09.290Z</time>
      </trkpt>
      <trkpt lat="44.90799" lon="6.80244">
        <ele>1924</ele>
        <time>2014-07-31T09:00:10.290Z</time>
      </trkpt>
      <trkpt lat="44.90801" lon="6.80246">
        <ele>1924</ele>
        <time>2014-07-31T09:00:11.280Z</time>
      </trkpt>
      <trkpt lat="44.90803" lon="6.80248">
        <ele>1924</ele>
        <time>2014-07-31T09:00:12.290Z</time>
      </trkpt>
      <trkpt lat="44.90806" lon="6.80251">
        <ele>1924</ele>
        <time>2014-07-31T09:00:13.290Z</time>
      </trkpt>
      <trkpt lat="44.90807" lon="6.80253">
        <ele>1924</ele>
        <time>2014-07-31T09:00:14.290Z</time>
      </trkpt>
      <trkpt lat="44.90809" lon="6.80255">
        <ele>1924.7</ele>
        <time>2014-07-31T09:00:15.290Z</time>
      </trkpt>
      <trkpt lat="44.90812" lon="6.80257">
        <ele>1925</ele>
        <time>2014-07-31T09:00:16.290Z</time>
      </trkpt>
      <trkpt lat="44.90816" lon="6.80261">
        <ele>1925</ele>
        <time>2014-07-31T09:00:18.190Z</time>
      </trkpt>
      <trkpt lat="44.90818" lon="6.80263">
        <ele>1925</ele>
        <time>2014-07-31T09:00:19.190Z</time>
      </trkpt>
      <trkpt lat="44.90819" lon="6.80265">
        <ele>1925</ele>
        <time>2014-07-31T09:00:20.190Z</time>
      </trkpt>
      <trkpt lat="44.9082" lon="6.80267">
        <ele>1925</ele>
        <time>2014-07-31T09:00:21.190Z</time>
      </trkpt>
      <trkpt lat="44.90822" lon="6.80269">
        <ele>1925</ele>
        <time>2014-07-31T09:00:22.180Z</time>
      </trkpt>
      <trkpt lat="44.90823" lon="6.80272">
        <ele>1925</ele>
        <time>2014-07-31T09:00:23.190Z</time>
      </trkpt>
      <trkpt lat="44.90826" lon="6.80275">
        <ele>1925</ele>
        <time>2014-07-31T09:00:24.190Z</time>
      </trkpt>
      <trkpt lat="44.90828" lon="6.80278">
        <ele>1925.6</ele>
        <time>2014-07-31T09:00:25.190Z</time>
      </trkpt>
      <trkpt lat="44.9083" lon="6.80282">
        <ele>1926</ele>
        <time>2014-07-31T09:00:26.190Z</time>
      </trkpt>
      <trkpt lat="44.90832" lon="6.80285">
        <ele>1926</ele>
        <time>2014-07-31T09:00:27.190Z</time>
      </trkpt>
      <trkpt lat="44.90834" lon="6.80288">
        <ele>1926</ele>
        <time>2014-07-31T09:00:28.290Z</time>
      </trkpt>
      <trkpt lat="44.90835" lon="6.8029">
        <ele>1926</ele>
        <time>2014-07-31T09:00:29.290Z</time>
      </trkpt>
      <trkpt lat="44.90837" lon="6.80292">
        <ele>1926</ele>
        <time>2014-07-31T09:00:30.290Z</time>
      </trkpt>
      <trkpt lat="44.90839" lon="6.80294">
        <ele>1926</ele>
        <time>2014-07-31T09:00:31.290Z</time>
      </trkpt>
      <trkpt lat="44.90842" lon="6.80296">
        <ele>1926</ele>
        <time>2014-07-31T09:00:32.290Z</time>
      </trkpt>
      <trkpt lat="44.90845" lon="6.80298">
        <ele>1926</ele>
        <time>2014-07-31T09:00:33.290Z</time>
      </trkpt>
      <trkpt lat="44.90847" lon="6.80299">
        <ele>1926</ele>
        <time>2014-07-31T09:00:34.210Z</time>
      </trkpt>
      <trkpt lat="44.9085" lon="6.80299">
        <ele>1926</ele>
        <time>2014-07-31T09:00:35.380Z</time>
      </trkpt>
      <trkpt lat="44.90852" lon="6.803">
        <ele>1926</ele>
        <time>2014-07-31T09:00:36.290Z</time>
      </trkpt>
      <trkpt lat="44.90855" lon="6.803">
        <ele>1926</ele>
        <time>2014-07-31T09:00:37.290Z</time>
      </trkpt>
      <trkpt lat="44.90858" lon="6.803">
        <ele>1926</ele>
        <time>2014-07-31T09:00:38.290Z</time>
      </trkpt>
      <trkpt lat="44.90861" lon="6.80299">
        <ele>1926</ele>
        <time>2014-07-31T09:00:39.290Z</time>
      </trkpt>
      <trkpt lat="44.90864" lon="6.80299">
        <ele>1926</ele>
        <time>2014-07-31T09:00:40.290Z</time>
      </trkpt>
      <trkpt lat="44.90867" lon="6.80298">
        <ele>1926</ele>
        <time>2014-07-31T09:00:41.290Z</time>
      </trkpt>
      <trkpt lat="44.90869" lon="6.80296">
        <ele>1926</ele>
        <time>2014-07-31T09:00:42.290Z</time>
      </trkpt>
      <trkpt lat="44.90871" lon="6.80295">
        <ele>1926</ele>
        <time>2014-07-31T09:00:43.290Z</time>
      </trkpt>
      <trkpt lat="44.90874" lon="6.80294">
        <ele>1926</ele>
        <time>2014-07-31T09:00:44.290Z</time>
      </trkpt>
      <trkpt lat="44.90876" lon="6.80293">
        <ele>1927.4</ele>
        <time>2014-07-31T09:00:45.290Z</time>
      </trkpt>
      <trkpt lat="44.90878" lon="6.80293">
        <ele>1928</ele>
        <time>2014-07-31T09:00:46.290Z</time>
      </trkpt>
      <trkpt lat="44.90881" lon="6.80292">
        <ele>1928</ele>
        <time>2014-07-31T09:00:47.290Z</time>
      </trkpt>
      <trkpt lat="44.90883" lon="6.80292">
        <ele>1928</ele>
        <time>2014-07-31T09:00:48.290Z</time>
      </trkpt>
      <trkpt lat="44.90886" lon="6.80291">
        <ele>1928</ele>
        <time>2014-07-31T09:00:49.290Z</time>
      </trkpt>
      <trkpt lat="44.90889" lon="6.8029">
        <ele>1928</ele>
        <time>2014-07-31T09:00:50.290Z</time>
      </trkpt>
      <trkpt lat="44.90893" lon="6.80289">
        <ele>1928</ele>
        <time>2014-07-31T09:00:52.190Z</time>
      </trkpt>
      <trkpt lat="44.90896" lon="6.80289">
        <ele>1928</ele>
        <time>2014-07-31T09:00:53.190Z</time>
      </trkpt>
      <trkpt lat="44.90898" lon="6.80289">
        <ele>1928</ele>
        <time>2014-07-31T09:00:54.190Z</time>
      </trkpt>
      <trkpt lat="44.90901" lon="6.80289">
        <ele>1928.6</ele>
        <time>2014-07-31T09:00:55.190Z</time>
      </trkpt>
      <trkpt lat="44.90903" lon="6.80289">
        <ele>1929</ele>
        <time>2014-07-31T09:00:56.190Z</time>
      </trkpt>
      <trkpt lat="44.90905" lon="6.8029">
        <ele>1929</ele>
        <time>2014-07-31T09:00:57.180Z</time>
      </trkpt>
      <trkpt lat="44.90907" lon="6.80291">
        <ele>1929</ele>
        <time>2014-07-31T09:00:58.190Z</time>
      </trkpt>
      <trkpt lat="44.90909" lon="6.80293">
        <ele>1929</ele>
        <time>2014-07-31T09:00:59.190Z</time>
      </trkpt>
      <trkpt lat="44.90911" lon="6.80294">
        <ele>1929</ele>
        <time>2014-07-31T09:01:00.250Z</time>
      </trkpt>
      <trkpt lat="44.90914" lon="6.80296">
        <ele>1929</ele>
        <time>2014-07-31T09:01:01.290Z</time>
      </trkpt>
      <trkpt lat="44.90916" lon="6.80299">
        <ele>1929</ele>
        <time>2014-07-31T09:01:02.290Z</time>
      </trkpt>
      <trkpt lat="44.90921" lon="6.80304">
        <ele>1929</ele>
        <time>2014-07-31T09:01:04.190Z</time>
      </trkpt>
      <trkpt lat="44.90923" lon="6.80306">
        <ele>1929</ele>
        <time>2014-07-31T09:01:05.190Z</time>
      </trkpt>
      <trkpt lat="44.90926" lon="6.80309">
        <ele>1929</ele>
        <time>2014-07-31T09:01:06.180Z</time>
      </trkpt>
      <trkpt lat="44.90927" lon="6.80311">
        <ele>1929</ele>
        <time>2014-07-31T09:01:07.190Z</time>
      </trkpt>
      <trkpt lat="44.90929" lon="6.80313">
        <ele>1929</ele>
        <time>2014-07-31T09:01:08.260Z</time>
      </trkpt>
      <trkpt lat="44.9093" lon="6.80316">
        <ele>1929</ele>
        <time>2014-07-31T09:01:09.290Z</time>
      </trkpt>
      <trkpt lat="44.90931" lon="6.80318">
        <ele>1929</ele>
        <time>2014-07-31T09:01:10.290Z</time>
      </trkpt>
      <trkpt lat="44.90932" lon="6.8032">
        <ele>1929</ele>
        <time>2014-07-31T09:01:11.290Z</time>
      </trkpt>
      <trkpt lat="44.90933" lon="6.80323">
        <ele>1929</ele>
        <time>2014-07-31T09:01:12.290Z</time>
      </trkpt>
      <trkpt lat="44.90934" lon="6.80326">
        <ele>1929</ele>
        <time>2014-07-31T09:01:13.290Z</time>
      </trkpt>
      <trkpt lat="44.90936" lon="6.80328">
        <ele>1929</ele>
        <time>2014-07-31T09:01:14.290Z</time>
      </trkpt>
      <trkpt lat="44.90939" lon="6.80332">
        <ele>1929.7</ele>
        <time>2014-07-31T09:01:15.290Z</time>
      </trkpt>
      <trkpt lat="44.90941" lon="6.80335">
        <ele>1930</ele>
        <time>2014-07-31T09:01:16.280Z</time>
      </trkpt>
      <trkpt lat="44.90945" lon="6.80341">
        <ele>1930</ele>
        <time>2014-07-31T09:01:18.190Z</time>
      </trkpt>
      <trkpt lat="44.90948" lon="6.80343">
        <ele>1930</ele>
        <time>2014-07-31T09:01:19.190Z</time>
      </trkpt>
      <trkpt lat="44.90951" lon="6.80345">
        <ele>1930</ele>
        <time>2014-07-31T09:01:20.190Z</time>
      </trkpt>
      <trkpt lat="44.90954" lon="6.80346">
        <ele>1930</ele>
        <time>2014-07-31T09:01:21.190Z</time>
      </trkpt>
      <trkpt lat="44.90957" lon="6.80349">
        <ele>1930</ele>
        <time>2014-07-31T09:01:22.190Z</time>
      </trkpt>
      <trkpt lat="44.9096" lon="6.8035">
        <ele>1930</ele>
        <time>2014-07-31T09:01:23.290Z</time>
      </trkpt>
      <trkpt lat="44.90962" lon="6.80352">
        <ele>1930</ele>
        <time>2014-07-31T09:01:24.290Z</time>
      </trkpt>
      <trkpt lat="44.90966" lon="6.80357">
        <ele>1931</ele>
        <time>2014-07-31T09:01:26.190Z</time>
      </trkpt>
      <trkpt lat="44.90968" lon="6.80357">
        <ele>1931</ele>
        <time>2014-07-31T09:01:27.190Z</time>
      </trkpt>
      <trkpt lat="44.90971" lon="6.80359">
        <ele>1931</ele>
        <time>2014-07-31T09:01:28.190Z</time>
      </trkpt>
      <trkpt lat="44.90977" lon="6.80363">
        <ele>1931</ele>
        <time>2014-07-31T09:01:30.190Z</time>
      </trkpt>
      <trkpt lat="44.90979" lon="6.80366">
        <ele>1931</ele>
        <time>2014-07-31T09:01:31.190Z</time>
      </trkpt>
      <trkpt lat="44.90982" lon="6.80368">
        <ele>1931</ele>
        <time>2014-07-31T09:01:32.190Z</time>
      </trkpt>
      <trkpt lat="44.90985" lon="6.80371">
        <ele>1931</ele>
        <time>2014-07-31T09:01:33.190Z</time>
      </trkpt>
      <trkpt lat="44.90987" lon="6.80374">
        <ele>1931</ele>
        <time>2014-07-31T09:01:34.190Z</time>
      </trkpt>
      <trkpt lat="44.9099" lon="6.80377">
        <ele>1931.7</ele>
        <time>2014-07-31T09:01:35.290Z</time>
      </trkpt>
      <trkpt lat="44.90992" lon="6.80381">
        <ele>1932</ele>
        <time>2014-07-31T09:01:36.290Z</time>
      </trkpt>
      <trkpt lat="44.90994" lon="6.80384">
        <ele>1932</ele>
        <time>2014-07-31T09:01:37.290Z</time>
      </trkpt>
      <trkpt lat="44.90998" lon="6.80392">
        <ele>1932</ele>
        <time>2014-07-31T09:01:39.190Z</time>
      </trkpt>
      <trkpt lat="44.91" lon="6.80395">
        <ele>1932</ele>
        <time>2014-07-31T09:01:40.180Z</time>
      </trkpt>
      <trkpt lat="44.91003" lon="6.80399">
        <ele>1932</ele>
        <time>2014-07-31T09:01:41.190Z</time>
      </trkpt>
      <trkpt lat="44.91005" lon="6.80403">
        <ele>1932</ele>
        <time>2014-07-31T09:01:42.260Z</time>
      </trkpt>
      <trkpt lat="44.91007" lon="6.80407">
        <ele>1932</ele>
        <time>2014-07-31T09:01:43.290Z</time>
      </trkpt>
      <trkpt lat="44.91009" lon="6.8041">
        <ele>1932</ele>
        <time>2014-07-31T09:01:44.290Z</time>
      </trkpt>
      <trkpt lat="44.91011" lon="6.80414">
        <ele>1932.7</ele>
        <time>2014-07-31T09:01:45.290Z</time>
      </trkpt>
      <trkpt lat="44.91014" lon="6.80418">
        <ele>1933</ele>
        <time>2014-07-31T09:01:46.290Z</time>
      </trkpt>
      <trkpt lat="44.91015" lon="6.80421">
        <ele>1933</ele>
        <time>2014-07-31T09:01:47.290Z</time>
      </trkpt>
      <trkpt lat="44.91017" lon="6.80424">
        <ele>1933</ele>
        <time>2014-07-31T09:01:48.290Z</time>
      </trkpt>
      <trkpt lat="44.91018" lon="6.80428">
        <ele>1933</ele>
        <time>2014-07-31T09:01:49.290Z</time>
      </trkpt>
      <trkpt lat="44.91018" lon="6.80432">
        <ele>1933</ele>
        <time>2014-07-31T09:01:50.280Z</time>
      </trkpt>
      <trkpt lat="44.91021" lon="6.80441">
        <ele>1933</ele>
        <time>2014-07-31T09:01:52.190Z</time>
      </trkpt>
      <trkpt lat="44.91022" lon="6.80445">
        <ele>1933</ele>
        <time>2014-07-31T09:01:53.190Z</time>
      </trkpt>
      <trkpt lat="44.91024" lon="6.80449">
        <ele>1933</ele>
        <time>2014-07-31T09:01:54.190Z</time>
      </trkpt>
      <trkpt lat="44.91026" lon="6.80454">
        <ele>1933</ele>
        <time>2014-07-31T09:01:55.190Z</time>
      </trkpt>
      <trkpt lat="44.91028" lon="6.80458">
        <ele>1933</ele>
        <time>2014-07-31T09:01:56.280Z</time>
      </trkpt>
      <trkpt lat="44.9103" lon="6.80462">
        <ele>1933</ele>
        <time>2014-07-31T09:01:57.190Z</time>
      </trkpt>
      <trkpt lat="44.91033" lon="6.80466">
        <ele>1933</ele>
        <time>2014-07-31T09:01:58.190Z</time>
      </trkpt>
      <trkpt lat="44.91035" lon="6.8047">
        <ele>1933</ele>
        <time>2014-07-31T09:01:59.260Z</time>
      </trkpt>
      <trkpt lat="44.91039" lon="6.80478">
        <ele>1933</ele>
        <time>2014-07-31T09:02:01.190Z</time>
      </trkpt>
      <trkpt lat="44.91042" lon="6.80482">
        <ele>1933</ele>
        <time>2014-07-31T09:02:02.190Z</time>
      </trkpt>
      <trkpt lat="44.91043" lon="6.80486">
        <ele>1933</ele>
        <time>2014-07-31T09:02:03.190Z</time>
      </trkpt>
      <trkpt lat="44.91045" lon="6.8049">
        <ele>1933</ele>
        <time>2014-07-31T09:02:04.190Z</time>
      </trkpt>
      <trkpt lat="44.91047" lon="6.80495">
        <ele>1933</ele>
        <time>2014-07-31T09:02:05.190Z</time>
      </trkpt>
      <trkpt lat="44.91049" lon="6.805">
        <ele>1933</ele>
        <time>2014-07-31T09:02:06.190Z</time>
      </trkpt>
      <trkpt lat="44.91052" lon="6.80505">
        <ele>1933</ele>
        <time>2014-07-31T09:02:07.190Z</time>
      </trkpt>
      <trkpt lat="44.91055" lon="6.8051">
        <ele>1933</ele>
        <time>2014-07-31T09:02:08.190Z</time>
      </trkpt>
      <trkpt lat="44.9106" lon="6.80514">
        <ele>1933</ele>
        <time>2014-07-31T09:02:09.190Z</time>
      </trkpt>
      <trkpt lat="44.91064" lon="6.80517">
        <ele>1933</ele>
        <time>2014-07-31T09:02:10.180Z</time>
      </trkpt>
      <trkpt lat="44.91067" lon="6.8052">
        <ele>1933</ele>
        <time>2014-07-31T09:02:11.190Z</time>
      </trkpt>
      <trkpt lat="44.9107" lon="6.80524">
        <ele>1933</ele>
        <time>2014-07-31T09:02:12.190Z</time>
      </trkpt>
      <trkpt lat="44.91074" lon="6.80527">
        <ele>1933</ele>
        <time>2014-07-31T09:02:13.190Z</time>
      </trkpt>
      <trkpt lat="44.91078" lon="6.8053">
        <ele>1933</ele>
        <time>2014-07-31T09:02:14.190Z</time>
      </trkpt>
      <trkpt lat="44.91081" lon="6.80534">
        <ele>1933.6</ele>
        <time>2014-07-31T09:02:15.190Z</time>
      </trkpt>
      <trkpt lat="44.91085" lon="6.80538">
        <ele>1934</ele>
        <time>2014-07-31T09:02:16.260Z</time>
      </trkpt>
      <trkpt lat="44.91091" lon="6.80546">
        <ele>1934</ele>
        <time>2014-07-31T09:02:18.190Z</time>
      </trkpt>
      <trkpt lat="44.91093" lon="6.80551">
        <ele>1934</ele>
        <time>2014-07-31T09:02:19.190Z</time>
      </trkpt>
      <trkpt lat="44.91094" lon="6.80555">
        <ele>1934</ele>
        <time>2014-07-31T09:02:20.190Z</time>
      </trkpt>
      <trkpt lat="44.91097" lon="6.80561">
        <ele>1934</ele>
        <time>2014-07-31T09:02:21.190Z</time>
      </trkpt>
      <trkpt lat="44.91099" lon="6.80565">
        <ele>1934</ele>
        <time>2014-07-31T09:02:22.180Z</time>
      </trkpt>
      <trkpt lat="44.91101" lon="6.8057">
        <ele>1934</ele>
        <time>2014-07-31T09:02:23.290Z</time>
      </trkpt>
      <trkpt lat="44.91103" lon="6.80576">
        <ele>1934</ele>
        <time>2014-07-31T09:02:24.290Z</time>
      </trkpt>
      <trkpt lat="44.91106" lon="6.80581">
        <ele>1934</ele>
        <time>2014-07-31T09:02:25.290Z</time>
      </trkpt>
      <trkpt lat="44.91108" lon="6.80586">
        <ele>1934</ele>
        <time>2014-07-31T09:02:26.290Z</time>
      </trkpt>
      <trkpt lat="44.9111" lon="6.80592">
        <ele>1934</ele>
        <time>2014-07-31T09:02:27.290Z</time>
      </trkpt>
      <trkpt lat="44.91112" lon="6.80597">
        <ele>1934</ele>
        <time>2014-07-31T09:02:28.290Z</time>
      </trkpt>
      <trkpt lat="44.91114" lon="6.80602">
        <ele>1934</ele>
        <time>2014-07-31T09:02:29.290Z</time>
      </trkpt>
      <trkpt lat="44.91117" lon="6.80608">
        <ele>1934</ele>
        <time>2014-07-31T09:02:30.290Z</time>
      </trkpt>
      <trkpt lat="44.91119" lon="6.80613">
        <ele>1934</ele>
        <time>2014-07-31T09:02:31.290Z</time>
      </trkpt>
      <trkpt lat="44.91121" lon="6.80618">
        <ele>1934</ele>
        <time>2014-07-31T09:02:32.290Z</time>
      </trkpt>
      <trkpt lat="44.91122" lon="6.80624">
        <ele>1934</ele>
        <time>2014-07-31T09:02:33.190Z</time>
      </trkpt>
      <trkpt lat="44.91124" lon="6.80634">
        <ele>1934.6</ele>
        <time>2014-07-31T09:02:35.190Z</time>
      </trkpt>
      <trkpt lat="44.91125" lon="6.80638">
        <ele>1935</ele>
        <time>2014-07-31T09:02:36.190Z</time>
      </trkpt>
      <trkpt lat="44.91126" lon="6.80643">
        <ele>1935</ele>
        <time>2014-07-31T09:02:37.190Z</time>
      </trkpt>
      <trkpt lat="44.91127" lon="6.80647">
        <ele>1935</ele>
        <time>2014-07-31T09:02:38.190Z</time>
      </trkpt>
      <trkpt lat="44.91128" lon="6.80652">
        <ele>1935</ele>
        <time>2014-07-31T09:02:39.190Z</time>
      </trkpt>
      <trkpt lat="44.91129" lon="6.80657">
        <ele>1935</ele>
        <time>2014-07-31T09:02:40.190Z</time>
      </trkpt>
      <trkpt lat="44.91131" lon="6.80662">
        <ele>1935</ele>
        <time>2014-07-31T09:02:41.190Z</time>
      </trkpt>
      <trkpt lat="44.91134" lon="6.80667">
        <ele>1935</ele>
        <time>2014-07-31T09:02:42.180Z</time>
      </trkpt>
      <trkpt lat="44.91136" lon="6.80672">
        <ele>1935</ele>
        <time>2014-07-31T09:02:43.190Z</time>
      </trkpt>
      <trkpt lat="44.91139" lon="6.80677">
        <ele>1935</ele>
        <time>2014-07-31T09:02:44.190Z</time>
      </trkpt>
      <trkpt lat="44.91141" lon="6.80682">
        <ele>1935.6</ele>
        <time>2014-07-31T09:02:45.190Z</time>
      </trkpt>
      <trkpt lat="44.91142" lon="6.80686">
        <ele>1936</ele>
        <time>2014-07-31T09:02:46.190Z</time>
      </trkpt>
      <trkpt lat="44.91142" lon="6.80691">
        <ele>1936</ele>
        <time>2014-07-31T09:02:47.190Z</time>
      </trkpt>
      <trkpt lat="44.91142" lon="6.80696">
        <ele>1936</ele>
        <time>2014-07-31T09:02:48.190Z</time>
      </trkpt>
      <trkpt lat="44.91142" lon="6.80699">
        <ele>1936</ele>
        <time>2014-07-31T09:02:49.190Z</time>
      </trkpt>
      <trkpt lat="44.91142" lon="6.80702">
        <ele>1936</ele>
        <time>2014-07-31T09:02:50.260Z</time>
      </trkpt>
      <trkpt lat="44.91142" lon="6.80708">
        <ele>1936</ele>
        <time>2014-07-31T09:02:52.180Z</time>
      </trkpt>
      <trkpt lat="44.91141" lon="6.8071">
        <ele>1936</ele>
        <time>2014-07-31T09:02:53.190Z</time>
      </trkpt>
      <trkpt lat="44.91141" lon="6.80712">
        <ele>1936</ele>
        <time>2014-07-31T09:02:54.190Z</time>
      </trkpt>
      <trkpt lat="44.9114" lon="6.80715">
        <ele>1936.6</ele>
        <time>2014-07-31T09:02:55.190Z</time>
      </trkpt>
      <trkpt lat="44.9114" lon="6.80718">
        <ele>1937</ele>
        <time>2014-07-31T09:02:56.190Z</time>
      </trkpt>
      <trkpt lat="44.9114" lon="6.80721">
        <ele>1937</ele>
        <time>2014-07-31T09:02:57.190Z</time>
      </trkpt>
      <trkpt lat="44.91139" lon="6.80723">
        <ele>1937</ele>
        <time>2014-07-31T09:02:58.190Z</time>
      </trkpt>
      <trkpt lat="44.91139" lon="6.80725">
        <ele>1937</ele>
        <time>2014-07-31T09:02:59.190Z</time>
      </trkpt>
      <trkpt lat="44.91138" lon="6.80726">
        <ele>1937</ele>
        <time>2014-07-31T09:03:00.250Z</time>
      </trkpt>
      <trkpt lat="44.91138" lon="6.80728">
        <ele>1937</ele>
        <time>2014-07-31T09:03:01.290Z</time>
      </trkpt>
      <trkpt lat="44.91138" lon="6.8073">
        <ele>1937</ele>
        <time>2014-07-31T09:03:02.280Z</time>
      </trkpt>
      <trkpt lat="44.91138" lon="6.80733">
        <ele>1937</ele>
        <time>2014-07-31T09:03:03.290Z</time>
      </trkpt>
      <trkpt lat="44.9114" lon="6.80735">
        <ele>1937</ele>
        <time>2014-07-31T09:03:04.290Z</time>
      </trkpt>
      <trkpt lat="44.91142" lon="6.80738">
        <ele>1938.4</ele>
        <time>2014-07-31T09:03:05.290Z</time>
      </trkpt>
      <trkpt lat="44.91142" lon="6.8074">
        <ele>1939</ele>
        <time>2014-07-31T09:03:06.290Z</time>
      </trkpt>
      <trkpt lat="44.91144" lon="6.80744">
        <ele>1939</ele>
        <time>2014-07-31T09:03:08.190Z</time>
      </trkpt>
      <trkpt lat="44.91145" lon="6.80745">
        <ele>1939</ele>
        <time>2014-07-31T09:03:09.190Z</time>
      </trkpt>
      <trkpt lat="44.91147" lon="6.80747">
        <ele>1939</ele>
        <time>2014-07-31T09:03:10.190Z</time>
      </trkpt>
      <trkpt lat="44.91148" lon="6.80747">
        <ele>1939</ele>
        <time>2014-07-31T09:03:11.190Z</time>
      </trkpt>
      <trkpt lat="44.9115" lon="6.80749">
        <ele>1939</ele>
        <time>2014-07-31T09:03:12.190Z</time>
      </trkpt>
      <trkpt lat="44.91151" lon="6.80751">
        <ele>1939</ele>
        <time>2014-07-31T09:03:13.190Z</time>
      </trkpt>
      <trkpt lat="44.91152" lon="6.80753">
        <ele>1939</ele>
        <time>2014-07-31T09:03:14.190Z</time>
      </trkpt>
      <trkpt lat="44.91153" lon="6.80754">
        <ele>1940.9</ele>
        <time>2014-07-31T09:03:15.190Z</time>
      </trkpt>
      <trkpt lat="44.91155" lon="6.80756">
        <ele>1942</ele>
        <time>2014-07-31T09:03:16.190Z</time>
      </trkpt>
      <trkpt lat="44.91156" lon="6.80759">
        <ele>1942</ele>
        <time>2014-07-31T09:03:17.260Z</time>
      </trkpt>
      <trkpt lat="44.91158" lon="6.80762">
        <ele>1942</ele>
        <time>2014-07-31T09:03:19.190Z</time>
      </trkpt>
      <trkpt lat="44.91159" lon="6.80764">
        <ele>1942</ele>
        <time>2014-07-31T09:03:20.190Z</time>
      </trkpt>
      <trkpt lat="44.9116" lon="6.80766">
        <ele>1942</ele>
        <time>2014-07-31T09:03:21.190Z</time>
      </trkpt>
      <trkpt lat="44.91161" lon="6.80769">
        <ele>1942</ele>
        <time>2014-07-31T09:03:22.190Z</time>
      </trkpt>
      <trkpt lat="44.91162" lon="6.8077">
        <ele>1942</ele>
        <time>2014-07-31T09:03:23.280Z</time>
      </trkpt>
      <trkpt lat="44.91162" lon="6.80773">
        <ele>1943.2</ele>
        <time>2014-07-31T09:03:25.190Z</time>
      </trkpt>
      <trkpt lat="44.91162" lon="6.80775">
        <ele>1944</ele>
        <time>2014-07-31T09:03:26.190Z</time>
      </trkpt>
      <trkpt lat="44.91162" lon="6.80777">
        <ele>1944</ele>
        <time>2014-07-31T09:03:27.190Z</time>
      </trkpt>
      <trkpt lat="44.91163" lon="6.80779">
        <ele>1944</ele>
        <time>2014-07-31T09:03:28.290Z</time>
      </trkpt>
      <trkpt lat="44.91164" lon="6.80781">
        <ele>1944</ele>
        <time>2014-07-31T09:03:29.290Z</time>
      </trkpt>
      <trkpt lat="44.91164" lon="6.80783">
        <ele>1944</ele>
        <time>2014-07-31T09:03:30.290Z</time>
      </trkpt>
      <trkpt lat="44.91164" lon="6.80785">
        <ele>1944</ele>
        <time>2014-07-31T09:03:31.290Z</time>
      </trkpt>
      <trkpt lat="44.91164" lon="6.80787">
        <ele>1944</ele>
        <time>2014-07-31T09:03:32.290Z</time>
      </trkpt>
      <trkpt lat="44.91164" lon="6.80792">
        <ele>1944</ele>
        <time>2014-07-31T09:03:34.220Z</time>
      </trkpt>
      <trkpt lat="44.91165" lon="6.80795">
        <ele>1944.7</ele>
        <time>2014-07-31T09:03:35.290Z</time>
      </trkpt>
      <trkpt lat="44.91166" lon="6.80797">
        <ele>1945</ele>
        <time>2014-07-31T09:03:36.290Z</time>
      </trkpt>
      <trkpt lat="44.91167" lon="6.808">
        <ele>1945</ele>
        <time>2014-07-31T09:03:37.290Z</time>
      </trkpt>
      <trkpt lat="44.91167" lon="6.80802">
        <ele>1945</ele>
        <time>2014-07-31T09:03:38.290Z</time>
      </trkpt>
      <trkpt lat="44.91168" lon="6.80804">
        <ele>1945</ele>
        <time>2014-07-31T09:03:39.290Z</time>
      </trkpt>
      <trkpt lat="44.91168" lon="6.80807">
        <ele>1945</ele>
        <time>2014-07-31T09:03:40.290Z</time>
      </trkpt>
      <trkpt lat="44.91168" lon="6.80811">
        <ele>1945</ele>
        <time>2014-07-31T09:03:42.190Z</time>
      </trkpt>
      <trkpt lat="44.91169" lon="6.80814">
        <ele>1945</ele>
        <time>2014-07-31T09:03:43.290Z</time>
      </trkpt>
      <trkpt lat="44.91169" lon="6.80816">
        <ele>1945</ele>
        <time>2014-07-31T09:03:44.280Z</time>
      </trkpt>
      <trkpt lat="44.91169" lon="6.80819">
        <ele>1946.4</ele>
        <time>2014-07-31T09:03:45.290Z</time>
      </trkpt>
      <trkpt lat="44.9117" lon="6.80821">
        <ele>1947</ele>
        <time>2014-07-31T09:03:46.290Z</time>
      </trkpt>
      <trkpt lat="44.91171" lon="6.80824">
        <ele>1947</ele>
        <time>2014-07-31T09:03:47.290Z</time>
      </trkpt>
      <trkpt lat="44.91171" lon="6.80827">
        <ele>1947</ele>
        <time>2014-07-31T09:03:48.290Z</time>
      </trkpt>
      <trkpt lat="44.91172" lon="6.80829">
        <ele>1947</ele>
        <time>2014-07-31T09:03:49.290Z</time>
      </trkpt>
      <trkpt lat="44.91172" lon="6.80834">
        <ele>1947</ele>
        <time>2014-07-31T09:03:51.250Z</time>
      </trkpt>
      <trkpt lat="44.91172" lon="6.80836">
        <ele>1947</ele>
        <time>2014-07-31T09:03:52.290Z</time>
      </trkpt>
      <trkpt lat="44.91171" lon="6.80838">
        <ele>1947</ele>
        <time>2014-07-31T09:03:53.290Z</time>
      </trkpt>
      <trkpt lat="44.9117" lon="6.8084">
        <ele>1947</ele>
        <time>2014-07-31T09:03:54.310Z</time>
      </trkpt>
      <trkpt lat="44.9117" lon="6.80842">
        <ele>1948.4</ele>
        <time>2014-07-31T09:03:55.290Z</time>
      </trkpt>
      <trkpt lat="44.91169" lon="6.80844">
        <ele>1949</ele>
        <time>2014-07-31T09:03:56.290Z</time>
      </trkpt>
      <trkpt lat="44.91168" lon="6.80846">
        <ele>1949</ele>
        <time>2014-07-31T09:03:57.290Z</time>
      </trkpt>
      <trkpt lat="44.91166" lon="6.8085">
        <ele>1949</ele>
        <time>2014-07-31T09:03:59.190Z</time>
      </trkpt>
      <trkpt lat="44.91166" lon="6.80852">
        <ele>1949</ele>
        <time>2014-07-31T09:04:00.250Z</time>
      </trkpt>
      <trkpt lat="44.91165" lon="6.80854">
        <ele>1949</ele>
        <time>2014-07-31T09:04:01.290Z</time>
      </trkpt>
      <trkpt lat="44.91164" lon="6.80856">
        <ele>1949</ele>
        <time>2014-07-31T09:04:02.290Z</time>
      </trkpt>
      <trkpt lat="44.91162" lon="6.80857">
        <ele>1949</ele>
        <time>2014-07-31T09:04:03.290Z</time>
      </trkpt>
      <trkpt lat="44.91161" lon="6.80859">
        <ele>1949</ele>
        <time>2014-07-31T09:04:04.290Z</time>
      </trkpt>
      <trkpt lat="44.91159" lon="6.8086">
        <ele>1949.7</ele>
        <time>2014-07-31T09:04:05.290Z</time>
      </trkpt>
      <trkpt lat="44.91158" lon="6.80862">
        <ele>1950</ele>
        <time>2014-07-31T09:04:06.290Z</time>
      </trkpt>
      <trkpt lat="44.91157" lon="6.80863">
        <ele>1950</ele>
        <time>2014-07-31T09:04:07.310Z</time>
      </trkpt>
      <trkpt lat="44.91155" lon="6.80864">
        <ele>1950</ele>
        <time>2014-07-31T09:04:08.290Z</time>
      </trkpt>
      <trkpt lat="44.91154" lon="6.80866">
        <ele>1950</ele>
        <time>2014-07-31T09:04:09.290Z</time>
      </trkpt>
      <trkpt lat="44.91152" lon="6.80867">
        <ele>1950</ele>
        <time>2014-07-31T09:04:10.290Z</time>
      </trkpt>
      <trkpt lat="44.91151" lon="6.80868">
        <ele>1950</ele>
        <time>2014-07-31T09:04:11.290Z</time>
      </trkpt>
      <trkpt lat="44.91149" lon="6.80869">
        <ele>1950</ele>
        <time>2014-07-31T09:04:12.290Z</time>
      </trkpt>
      <trkpt lat="44.91148" lon="6.80871">
        <ele>1950</ele>
        <time>2014-07-31T09:04:13.290Z</time>
      </trkpt>
      <trkpt lat="44.91147" lon="6.80872">
        <ele>1950</ele>
        <time>2014-07-31T09:04:14.290Z</time>
      </trkpt>
      <trkpt lat="44.91144" lon="6.80876">
        <ele>1952</ele>
        <time>2014-07-31T09:04:16.190Z</time>
      </trkpt>
      <trkpt lat="44.91143" lon="6.80878">
        <ele>1952</ele>
        <time>2014-07-31T09:04:17.190Z</time>
      </trkpt>
      <trkpt lat="44.91142" lon="6.80881">
        <ele>1952</ele>
        <time>2014-07-31T09:04:18.290Z</time>
      </trkpt>
      <trkpt lat="44.91141" lon="6.80882">
        <ele>1952</ele>
        <time>2014-07-31T09:04:19.290Z</time>
      </trkpt>
      <trkpt lat="44.91141" lon="6.80884">
        <ele>1952</ele>
        <time>2014-07-31T09:04:20.380Z</time>
      </trkpt>
      <trkpt lat="44.91141" lon="6.80887">
        <ele>1952</ele>
        <time>2014-07-31T09:04:21.290Z</time>
      </trkpt>
      <trkpt lat="44.9114" lon="6.8089">
        <ele>1952</ele>
        <time>2014-07-31T09:04:22.290Z</time>
      </trkpt>
      <trkpt lat="44.9114" lon="6.80892">
        <ele>1952</ele>
        <time>2014-07-31T09:04:23.290Z</time>
      </trkpt>
      <trkpt lat="44.9114" lon="6.80894">
        <ele>1952</ele>
        <time>2014-07-31T09:04:24.290Z</time>
      </trkpt>
      <trkpt lat="44.91141" lon="6.80899">
        <ele>1954</ele>
        <time>2014-07-31T09:04:26.190Z</time>
      </trkpt>
      <trkpt lat="44.91141" lon="6.80901">
        <ele>1954</ele>
        <time>2014-07-31T09:04:27.190Z</time>
      </trkpt>
      <trkpt lat="44.91142" lon="6.80904">
        <ele>1954</ele>
        <time>2014-07-31T09:04:28.290Z</time>
      </trkpt>
      <trkpt lat="44.91142" lon="6.80906">
        <ele>1954</ele>
        <time>2014-07-31T09:04:29.290Z</time>
      </trkpt>
      <trkpt lat="44.91143" lon="6.80908">
        <ele>1954</ele>
        <time>2014-07-31T09:04:30.290Z</time>
      </trkpt>
      <trkpt lat="44.91144" lon="6.8091">
        <ele>1954</ele>
        <time>2014-07-31T09:04:31.290Z</time>
      </trkpt>
      <trkpt lat="44.91145" lon="6.80916">
        <ele>1954</ele>
        <time>2014-07-31T09:04:33.190Z</time>
      </trkpt>
      <trkpt lat="44.91145" lon="6.80919">
        <ele>1954</ele>
        <time>2014-07-31T09:04:34.260Z</time>
      </trkpt>
      <trkpt lat="44.91146" lon="6.80923">
        <ele>1956</ele>
        <time>2014-07-31T09:04:36.190Z</time>
      </trkpt>
      <trkpt lat="44.91146" lon="6.80926">
        <ele>1956</ele>
        <time>2014-07-31T09:04:37.190Z</time>
      </trkpt>
      <trkpt lat="44.91146" lon="6.80928">
        <ele>1956</ele>
        <time>2014-07-31T09:04:38.190Z</time>
      </trkpt>
      <trkpt lat="44.91147" lon="6.80931">
        <ele>1956</ele>
        <time>2014-07-31T09:04:39.190Z</time>
      </trkpt>
      <trkpt lat="44.91147" lon="6.80933">
        <ele>1956</ele>
        <time>2014-07-31T09:04:40.190Z</time>
      </trkpt>
      <trkpt lat="44.91148" lon="6.80935">
        <ele>1956</ele>
        <time>2014-07-31T09:04:41.190Z</time>
      </trkpt>
      <trkpt lat="44.91149" lon="6.80938">
        <ele>1956</ele>
        <time>2014-07-31T09:04:42.190Z</time>
      </trkpt>
      <trkpt lat="44.91149" lon="6.8094">
        <ele>1956</ele>
        <time>2014-07-31T09:04:43.190Z</time>
      </trkpt>
      <trkpt lat="44.9115" lon="6.80942">
        <ele>1956</ele>
        <time>2014-07-31T09:04:44.190Z</time>
      </trkpt>
      <trkpt lat="44.9115" lon="6.80944">
        <ele>1957.2</ele>
        <time>2014-07-31T09:04:45.190Z</time>
      </trkpt>
      <trkpt lat="44.9115" lon="6.80947">
        <ele>1958</ele>
        <time>2014-07-31T09:04:46.190Z</time>
      </trkpt>
      <trkpt lat="44.91151" lon="6.80949">
        <ele>1958</ele>
        <time>2014-07-31T09:04:47.190Z</time>
      </trkpt>
      <trkpt lat="44.91152" lon="6.80952">
        <ele>1958</ele>
        <time>2014-07-31T09:04:48.190Z</time>
      </trkpt>
      <trkpt lat="44.91152" lon="6.80954">
        <ele>1958</ele>
        <time>2014-07-31T09:04:49.260Z</time>
      </trkpt>
      <trkpt lat="44.91153" lon="6.80956">
        <ele>1958</ele>
        <time>2014-07-31T09:04:50.290Z</time>
      </trkpt>
      <trkpt lat="44.91154" lon="6.80961">
        <ele>1958</ele>
        <time>2014-07-31T09:04:52.190Z</time>
      </trkpt>
      <trkpt lat="44.91155" lon="6.80964">
        <ele>1958</ele>
        <time>2014-07-31T09:04:53.190Z</time>
      </trkpt>
      <trkpt lat="44.91156" lon="6.80966">
        <ele>1958</ele>
        <time>2014-07-31T09:04:54.190Z</time>
      </trkpt>
      <trkpt lat="44.91157" lon="6.80968">
        <ele>1959.2</ele>
        <time>2014-07-31T09:04:55.190Z</time>
      </trkpt>
      <trkpt lat="44.91157" lon="6.8097">
        <ele>1960</ele>
        <time>2014-07-31T09:04:56.190Z</time>
      </trkpt>
      <trkpt lat="44.91158" lon="6.80971">
        <ele>1960</ele>
        <time>2014-07-31T09:04:57.190Z</time>
      </trkpt>
      <trkpt lat="44.91158" lon="6.80973">
        <ele>1960</ele>
        <time>2014-07-31T09:04:58.190Z</time>
      </trkpt>
      <trkpt lat="44.91158" lon="6.80975">
        <ele>1960</ele>
        <time>2014-07-31T09:04:59.190Z</time>
      </trkpt>
      <trkpt lat="44.91158" lon="6.80977">
        <ele>1960</ele>
        <time>2014-07-31T09:05:00.250Z</time>
      </trkpt>
      <trkpt lat="44.91159" lon="6.80979">
        <ele>1960</ele>
        <time>2014-07-31T09:05:01.290Z</time>
      </trkpt>
      <trkpt lat="44.9116" lon="6.80981">
        <ele>1960</ele>
        <time>2014-07-31T09:05:02.290Z</time>
      </trkpt>
      <trkpt lat="44.9116" lon="6.80983">
        <ele>1960</ele>
        <time>2014-07-31T09:05:03.290Z</time>
      </trkpt>
      <trkpt lat="44.91161" lon="6.80985">
        <ele>1960</ele>
        <time>2014-07-31T09:05:04.290Z</time>
      </trkpt>
      <trkpt lat="44.91161" lon="6.80987">
        <ele>1962.2</ele>
        <time>2014-07-31T09:05:05.290Z</time>
      </trkpt>
      <trkpt lat="44.91162" lon="6.80991">
        <ele>1963</ele>
        <time>2014-07-31T09:05:07.190Z</time>
      </trkpt>
      <trkpt lat="44.91162" lon="6.80993">
        <ele>1963</ele>
        <time>2014-07-31T09:05:08.280Z</time>
      </trkpt>
      <trkpt lat="44.91163" lon="6.80996">
        <ele>1963</ele>
        <time>2014-07-31T09:05:09.290Z</time>
      </trkpt>
      <trkpt lat="44.91163" lon="6.80999">
        <ele>1963.8</ele>
        <time>2014-07-31T09:05:10.380Z</time>
      </trkpt>
      <trkpt lat="44.91164" lon="6.81001">
        <ele>1964</ele>
        <time>2014-07-31T09:05:11.290Z</time>
      </trkpt>
      <trkpt lat="44.91164" lon="6.81003">
        <ele>1964</ele>
        <time>2014-07-31T09:05:12.290Z</time>
      </trkpt>
      <trkpt lat="44.91165" lon="6.81008">
        <ele>1964</ele>
        <time>2014-07-31T09:05:14.190Z</time>
      </trkpt>
      <trkpt lat="44.91166" lon="6.8101">
        <ele>1964.6</ele>
        <time>2014-07-31T09:05:15.190Z</time>
      </trkpt>
      <trkpt lat="44.91166" lon="6.81012">
        <ele>1965</ele>
        <time>2014-07-31T09:05:16.190Z</time>
      </trkpt>
      <trkpt lat="44.91165" lon="6.81014">
        <ele>1965</ele>
        <time>2014-07-31T09:05:18.190Z</time>
      </trkpt>
      <trkpt lat="44.91165" lon="6.81016">
        <ele>1965</ele>
        <time>2014-07-31T09:05:19.190Z</time>
      </trkpt>
      <trkpt lat="44.91167" lon="6.81021">
        <ele>1965</ele>
        <time>2014-07-31T09:05:21.190Z</time>
      </trkpt>
      <trkpt lat="44.91168" lon="6.81023">
        <ele>1965</ele>
        <time>2014-07-31T09:05:22.190Z</time>
      </trkpt>
      <trkpt lat="44.91169" lon="6.81026">
        <ele>1965</ele>
        <time>2014-07-31T09:05:23.260Z</time>
      </trkpt>
      <trkpt lat="44.9117" lon="6.81028">
        <ele>1965</ele>
        <time>2014-07-31T09:05:24.290Z</time>
      </trkpt>
      <trkpt lat="44.91171" lon="6.81029">
        <ele>1966.4</ele>
        <time>2014-07-31T09:05:25.290Z</time>
      </trkpt>
      <trkpt lat="44.91172" lon="6.81031">
        <ele>1967</ele>
        <time>2014-07-31T09:05:26.290Z</time>
      </trkpt>
      <trkpt lat="44.91174" lon="6.81032">
        <ele>1967</ele>
        <time>2014-07-31T09:05:27.290Z</time>
      </trkpt>
      <trkpt lat="44.91177" lon="6.81035">
        <ele>1967</ele>
        <time>2014-07-31T09:05:29.190Z</time>
      </trkpt>
      <trkpt lat="44.91179" lon="6.81036">
        <ele>1967</ele>
        <time>2014-07-31T09:05:30.190Z</time>
      </trkpt>
      <trkpt lat="44.9118" lon="6.81037">
        <ele>1967</ele>
        <time>2014-07-31T09:05:31.180Z</time>
      </trkpt>
      <trkpt lat="44.91182" lon="6.81039">
        <ele>1967</ele>
        <time>2014-07-31T09:05:32.190Z</time>
      </trkpt>
      <trkpt lat="44.91184" lon="6.8104">
        <ele>1967</ele>
        <time>2014-07-31T09:05:33.190Z</time>
      </trkpt>
      <trkpt lat="44.91186" lon="6.81041">
        <ele>1967</ele>
        <time>2014-07-31T09:05:34.260Z</time>
      </trkpt>
      <trkpt lat="44.91187" lon="6.81043">
        <ele>1968.4</ele>
        <time>2014-07-31T09:05:35.290Z</time>
      </trkpt>
      <trkpt lat="44.91189" lon="6.81044">
        <ele>1969</ele>
        <time>2014-07-31T09:05:36.290Z</time>
      </trkpt>
      <trkpt lat="44.91191" lon="6.81046">
        <ele>1969</ele>
        <time>2014-07-31T09:05:37.290Z</time>
      </trkpt>
      <trkpt lat="44.91193" lon="6.81047">
        <ele>1969</ele>
        <time>2014-07-31T09:05:38.290Z</time>
      </trkpt>
      <trkpt lat="44.91194" lon="6.81048">
        <ele>1969</ele>
        <time>2014-07-31T09:05:39.290Z</time>
      </trkpt>
      <trkpt lat="44.91197" lon="6.81051">
        <ele>1969</ele>
        <time>2014-07-31T09:05:41.190Z</time>
      </trkpt>
      <trkpt lat="44.91198" lon="6.81053">
        <ele>1969</ele>
        <time>2014-07-31T09:05:42.280Z</time>
      </trkpt>
      <trkpt lat="44.91199" lon="6.81054">
        <ele>1969</ele>
        <time>2014-07-31T09:05:43.290Z</time>
      </trkpt>
      <trkpt lat="44.912" lon="6.81056">
        <ele>1969</ele>
        <time>2014-07-31T09:05:44.290Z</time>
      </trkpt>
      <trkpt lat="44.912" lon="6.81057">
        <ele>1970.4</ele>
        <time>2014-07-31T09:05:45.290Z</time>
      </trkpt>
      <trkpt lat="44.912" lon="6.81062">
        <ele>1971</ele>
        <time>2014-07-31T09:05:47.280Z</time>
      </trkpt>
      <trkpt lat="44.912" lon="6.81065">
        <ele>1971</ele>
        <time>2014-07-31T09:05:48.190Z</time>
      </trkpt>
      <trkpt lat="44.91201" lon="6.81067">
        <ele>1971</ele>
        <time>2014-07-31T09:05:49.190Z</time>
      </trkpt>
      <trkpt lat="44.91201" lon="6.81069">
        <ele>1971</ele>
        <time>2014-07-31T09:05:50.190Z</time>
      </trkpt>
      <trkpt lat="44.91202" lon="6.81072">
        <ele>1971</ele>
        <time>2014-07-31T09:05:51.260Z</time>
      </trkpt>
      <trkpt lat="44.91203" lon="6.81073">
        <ele>1971</ele>
        <time>2014-07-31T09:05:52.290Z</time>
      </trkpt>
      <trkpt lat="44.91205" lon="6.81077">
        <ele>1971</ele>
        <time>2014-07-31T09:05:54.190Z</time>
      </trkpt>
      <trkpt lat="44.91206" lon="6.81078">
        <ele>1972.2</ele>
        <time>2014-07-31T09:05:55.190Z</time>
      </trkpt>
      <trkpt lat="44.91207" lon="6.8108">
        <ele>1973</ele>
        <time>2014-07-31T09:05:56.190Z</time>
      </trkpt>
      <trkpt lat="44.91208" lon="6.81083">
        <ele>1973</ele>
        <time>2014-07-31T09:05:57.260Z</time>
      </trkpt>
      <trkpt lat="44.91209" lon="6.81085">
        <ele>1973</ele>
        <time>2014-07-31T09:05:58.290Z</time>
      </trkpt>
      <trkpt lat="44.9121" lon="6.81087">
        <ele>1973</ele>
        <time>2014-07-31T09:05:59.290Z</time>
      </trkpt>
      <trkpt lat="44.91213" lon="6.81091">
        <ele>1973</ele>
        <time>2014-07-31T09:06:01.190Z</time>
      </trkpt>
      <trkpt lat="44.91214" lon="6.81093">
        <ele>1973</ele>
        <time>2014-07-31T09:06:02.190Z</time>
      </trkpt>
      <trkpt lat="44.91215" lon="6.81095">
        <ele>1973</ele>
        <time>2014-07-31T09:06:03.280Z</time>
      </trkpt>
      <trkpt lat="44.91215" lon="6.81096">
        <ele>1973</ele>
        <time>2014-07-31T09:06:04.290Z</time>
      </trkpt>
      <trkpt lat="44.91216" lon="6.81098">
        <ele>1973.7</ele>
        <time>2014-07-31T09:06:05.290Z</time>
      </trkpt>
      <trkpt lat="44.91216" lon="6.811">
        <ele>1974</ele>
        <time>2014-07-31T09:06:06.290Z</time>
      </trkpt>
      <trkpt lat="44.91217" lon="6.81102">
        <ele>1974</ele>
        <time>2014-07-31T09:06:07.290Z</time>
      </trkpt>
      <trkpt lat="44.91217" lon="6.81105">
        <ele>1974</ele>
        <time>2014-07-31T09:06:08.290Z</time>
      </trkpt>
      <trkpt lat="44.91218" lon="6.81106">
        <ele>1974</ele>
        <time>2014-07-31T09:06:09.290Z</time>
      </trkpt>
      <trkpt lat="44.91218" lon="6.81108">
        <ele>1974</ele>
        <time>2014-07-31T09:06:10.290Z</time>
      </trkpt>
      <trkpt lat="44.91218" lon="6.8111">
        <ele>1974</ele>
        <time>2014-07-31T09:06:11.290Z</time>
      </trkpt>
      <trkpt lat="44.91218" lon="6.81112">
        <ele>1974</ele>
        <time>2014-07-31T09:06:12.290Z</time>
      </trkpt>
      <trkpt lat="44.91218" lon="6.81114">
        <ele>1974</ele>
        <time>2014-07-31T09:06:13.290Z</time>
      </trkpt>
      <trkpt lat="44.91219" lon="6.81117">
        <ele>1974</ele>
        <time>2014-07-31T09:06:14.100Z</time>
      </trkpt>
      <trkpt lat="44.91219" lon="6.8112">
        <ele>1975.4</ele>
        <time>2014-07-31T09:06:15.290Z</time>
      </trkpt>
      <trkpt lat="44.9122" lon="6.81122">
        <ele>1976</ele>
        <time>2014-07-31T09:06:16.290Z</time>
      </trkpt>
      <trkpt lat="44.9122" lon="6.81127">
        <ele>1976</ele>
        <time>2014-07-31T09:06:18.190Z</time>
      </trkpt>
      <trkpt lat="44.91221" lon="6.8113">
        <ele>1976</ele>
        <time>2014-07-31T09:06:19.190Z</time>
      </trkpt>
      <trkpt lat="44.91221" lon="6.81132">
        <ele>1976</ele>
        <time>2014-07-31T09:06:20.190Z</time>
      </trkpt>
      <trkpt lat="44.91221" lon="6.81135">
        <ele>1976</ele>
        <time>2014-07-31T09:06:21.190Z</time>
      </trkpt>
      <trkpt lat="44.91222" lon="6.81137">
        <ele>1976</ele>
        <time>2014-07-31T09:06:22.190Z</time>
      </trkpt>
      <trkpt lat="44.91222" lon="6.81139">
        <ele>1976</ele>
        <time>2014-07-31T09:06:23.190Z</time>
      </trkpt>
      <trkpt lat="44.91222" lon="6.81142">
        <ele>1976</ele>
        <time>2014-07-31T09:06:24.190Z</time>
      </trkpt>
      <trkpt lat="44.91222" lon="6.81144">
        <ele>1977.2</ele>
        <time>2014-07-31T09:06:25.180Z</time>
      </trkpt>
      <trkpt lat="44.91222" lon="6.81146">
        <ele>1978</ele>
        <time>2014-07-31T09:06:26.190Z</time>
      </trkpt>
      <trkpt lat="44.91223" lon="6.81149">
        <ele>1978</ele>
        <time>2014-07-31T09:06:27.190Z</time>
      </trkpt>
      <trkpt lat="44.91222" lon="6.81151">
        <ele>1978</ele>
        <time>2014-07-31T09:06:28.190Z</time>
      </trkpt>
      <trkpt lat="44.91222" lon="6.81153">
        <ele>1978</ele>
        <time>2014-07-31T09:06:29.190Z</time>
      </trkpt>
      <trkpt lat="44.91223" lon="6.81155">
        <ele>1978</ele>
        <time>2014-07-31T09:06:30.190Z</time>
      </trkpt>
      <trkpt lat="44.91223" lon="6.81158">
        <ele>1978</ele>
        <time>2014-07-31T09:06:31.260Z</time>
      </trkpt>
      <trkpt lat="44.91223" lon="6.8116">
        <ele>1978</ele>
        <time>2014-07-31T09:06:32.290Z</time>
      </trkpt>
      <trkpt lat="44.91222" lon="6.81162">
        <ele>1978</ele>
        <time>2014-07-31T09:06:33.290Z</time>
      </trkpt>
      <trkpt lat="44.91223" lon="6.81166">
        <ele>1978.6</ele>
        <time>2014-07-31T09:06:35.190Z</time>
      </trkpt>
      <trkpt lat="44.91223" lon="6.81169">
        <ele>1979</ele>
        <time>2014-07-31T09:06:36.190Z</time>
      </trkpt>
      <trkpt lat="44.91223" lon="6.81171">
        <ele>1979</ele>
        <time>2014-07-31T09:06:37.190Z</time>
      </trkpt>
      <trkpt lat="44.91224" lon="6.81174">
        <ele>1979</ele>
        <time>2014-07-31T09:06:38.290Z</time>
      </trkpt>
      <trkpt lat="44.91224" lon="6.81176">
        <ele>1979</ele>
        <time>2014-07-31T09:06:39.290Z</time>
      </trkpt>
      <trkpt lat="44.91224" lon="6.81179">
        <ele>1979</ele>
        <time>2014-07-31T09:06:40.290Z</time>
      </trkpt>
      <trkpt lat="44.91225" lon="6.81181">
        <ele>1979</ele>
        <time>2014-07-31T09:06:41.290Z</time>
      </trkpt>
      <trkpt lat="44.91225" lon="6.81184">
        <ele>1979</ele>
        <time>2014-07-31T09:06:42.290Z</time>
      </trkpt>
      <trkpt lat="44.91225" lon="6.81187">
        <ele>1979</ele>
        <time>2014-07-31T09:06:43.290Z</time>
      </trkpt>
      <trkpt lat="44.91225" lon="6.81189">
        <ele>1979</ele>
        <time>2014-07-31T09:06:44.290Z</time>
      </trkpt>
      <trkpt lat="44.91226" lon="6.81192">
        <ele>1980.4</ele>
        <time>2014-07-31T09:06:45.290Z</time>
      </trkpt>
      <trkpt lat="44.91226" lon="6.81194">
        <ele>1981</ele>
        <time>2014-07-31T09:06:46.290Z</time>
      </trkpt>
      <trkpt lat="44.91227" lon="6.81196">
        <ele>1981</ele>
        <time>2014-07-31T09:06:47.290Z</time>
      </trkpt>
      <trkpt lat="44.91228" lon="6.81199">
        <ele>1981</ele>
        <time>2014-07-31T09:06:48.260Z</time>
      </trkpt>
      <trkpt lat="44.91228" lon="6.81201">
        <ele>1981</ele>
        <time>2014-07-31T09:06:49.290Z</time>
      </trkpt>
      <trkpt lat="44.91229" lon="6.81204">
        <ele>1981</ele>
        <time>2014-07-31T09:06:50.290Z</time>
      </trkpt>
      <trkpt lat="44.91229" lon="6.81208">
        <ele>1981</ele>
        <time>2014-07-31T09:06:52.190Z</time>
      </trkpt>
      <trkpt lat="44.91229" lon="6.8121">
        <ele>1981</ele>
        <time>2014-07-31T09:06:53.190Z</time>
      </trkpt>
      <trkpt lat="44.91231" lon="6.81213">
        <ele>1981</ele>
        <time>2014-07-31T09:06:54.190Z</time>
      </trkpt>
      <trkpt lat="44.91231" lon="6.81216">
        <ele>1981.6</ele>
        <time>2014-07-31T09:06:55.190Z</time>
      </trkpt>
      <trkpt lat="44.91232" lon="6.81218">
        <ele>1982</ele>
        <time>2014-07-31T09:06:56.190Z</time>
      </trkpt>
      <trkpt lat="44.91233" lon="6.81221">
        <ele>1982</ele>
        <time>2014-07-31T09:06:57.190Z</time>
      </trkpt>
      <trkpt lat="44.91234" lon="6.81224">
        <ele>1982</ele>
        <time>2014-07-31T09:06:58.190Z</time>
      </trkpt>
      <trkpt lat="44.91236" lon="6.81228">
        <ele>1982</ele>
        <time>2014-07-31T09:06:59.190Z</time>
      </trkpt>
      <trkpt lat="44.91237" lon="6.8123">
        <ele>1982</ele>
        <time>2014-07-31T09:07:00.150Z</time>
      </trkpt>
      <trkpt lat="44.9124" lon="6.81235">
        <ele>1982</ele>
        <time>2014-07-31T09:07:02.190Z</time>
      </trkpt>
      <trkpt lat="44.91241" lon="6.81236">
        <ele>1982</ele>
        <time>2014-07-31T09:07:03.190Z</time>
      </trkpt>
      <trkpt lat="44.91243" lon="6.81238">
        <ele>1982</ele>
        <time>2014-07-31T09:07:04.190Z</time>
      </trkpt>
      <trkpt lat="44.91247" lon="6.8124">
        <ele>1984</ele>
        <time>2014-07-31T09:07:06.290Z</time>
      </trkpt>
      <trkpt lat="44.9125" lon="6.81243">
        <ele>1984</ele>
        <time>2014-07-31T09:07:08.290Z</time>
      </trkpt>
      <trkpt lat="44.91253" lon="6.81244">
        <ele>1984</ele>
        <time>2014-07-31T09:07:09.290Z</time>
      </trkpt>
      <trkpt lat="44.91257" lon="6.81245">
        <ele>1984</ele>
        <time>2014-07-31T09:07:11.190Z</time>
      </trkpt>
      <trkpt lat="44.91259" lon="6.81245">
        <ele>1984</ele>
        <time>2014-07-31T09:07:12.190Z</time>
      </trkpt>
      <trkpt lat="44.91261" lon="6.81246">
        <ele>1984</ele>
        <time>2014-07-31T09:07:13.190Z</time>
      </trkpt>
      <trkpt lat="44.91262" lon="6.81247">
        <ele>1984</ele>
        <time>2014-07-31T09:07:14.190Z</time>
      </trkpt>
      <trkpt lat="44.91264" lon="6.81247">
        <ele>1984</ele>
        <time>2014-07-31T09:07:15.190Z</time>
      </trkpt>
      <trkpt lat="44.91266" lon="6.81249">
        <ele>1984</ele>
        <time>2014-07-31T09:07:16.190Z</time>
      </trkpt>
      <trkpt lat="44.91268" lon="6.8125">
        <ele>1984</ele>
        <time>2014-07-31T09:07:17.260Z</time>
      </trkpt>
      <trkpt lat="44.91272" lon="6.81253">
        <ele>1984</ele>
        <time>2014-07-31T09:07:19.090Z</time>
      </trkpt>
      <trkpt lat="44.91274" lon="6.81254">
        <ele>1984</ele>
        <time>2014-07-31T09:07:20.090Z</time>
      </trkpt>
      <trkpt lat="44.91276" lon="6.81255">
        <ele>1984</ele>
        <time>2014-07-31T09:07:21.090Z</time>
      </trkpt>
      <trkpt lat="44.91277" lon="6.81257">
        <ele>1984</ele>
        <time>2014-07-31T09:07:22.120Z</time>
      </trkpt>
      <trkpt lat="44.91278" lon="6.81258">
        <ele>1984</ele>
        <time>2014-07-31T09:07:23.190Z</time>
      </trkpt>
      <trkpt lat="44.9128" lon="6.8126">
        <ele>1984</ele>
        <time>2014-07-31T09:07:24.190Z</time>
      </trkpt>
      <trkpt lat="44.91282" lon="6.81261">
        <ele>1985.2</ele>
        <time>2014-07-31T09:07:25.190Z</time>
      </trkpt>
      <trkpt lat="44.91283" lon="6.81262">
        <ele>1986</ele>
        <time>2014-07-31T09:07:26.190Z</time>
      </trkpt>
      <trkpt lat="44.91284" lon="6.81262">
        <ele>1986</ele>
        <time>2014-07-31T09:07:27.190Z</time>
      </trkpt>
      <trkpt lat="44.91285" lon="6.81263">
        <ele>1986</ele>
        <time>2014-07-31T09:07:28.290Z</time>
      </trkpt>
      <trkpt lat="44.91287" lon="6.81264">
        <ele>1986</ele>
        <time>2014-07-31T09:07:29.290Z</time>
      </trkpt>
      <trkpt lat="44.91288" lon="6.81265">
        <ele>1986</ele>
        <time>2014-07-31T09:07:30.290Z</time>
      </trkpt>
      <trkpt lat="44.91289" lon="6.81266">
        <ele>1986</ele>
        <time>2014-07-31T09:07:31.290Z</time>
      </trkpt>
      <trkpt lat="44.91292" lon="6.81267">
        <ele>1986</ele>
        <time>2014-07-31T09:07:33.080Z</time>
      </trkpt>
      <trkpt lat="44.91293" lon="6.81267">
        <ele>1986</ele>
        <time>2014-07-31T09:07:34.160Z</time>
      </trkpt>
      <trkpt lat="44.91294" lon="6.81267">
        <ele>1987.9</ele>
        <time>2014-07-31T09:07:35.190Z</time>
      </trkpt>
      <trkpt lat="44.91296" lon="6.81267">
        <ele>1989</ele>
        <time>2014-07-31T09:07:36.190Z</time>
      </trkpt>
      <trkpt lat="44.91298" lon="6.81268">
        <ele>1989</ele>
        <time>2014-07-31T09:07:37.190Z</time>
      </trkpt>
      <trkpt lat="44.913" lon="6.81269">
        <ele>1989</ele>
        <time>2014-07-31T09:07:38.190Z</time>
      </trkpt>
      <trkpt lat="44.91302" lon="6.8127">
        <ele>1989</ele>
        <time>2014-07-31T09:07:39.260Z</time>
      </trkpt>
      <trkpt lat="44.91304" lon="6.81271">
        <ele>1989</ele>
        <time>2014-07-31T09:07:40.290Z</time>
      </trkpt>
      <trkpt lat="44.91305" lon="6.81272">
        <ele>1989</ele>
        <time>2014-07-31T09:07:41.290Z</time>
      </trkpt>
      <trkpt lat="44.91307" lon="6.81272">
        <ele>1989</ele>
        <time>2014-07-31T09:07:42.290Z</time>
      </trkpt>
      <trkpt lat="44.91308" lon="6.81273">
        <ele>1989</ele>
        <time>2014-07-31T09:07:43.290Z</time>
      </trkpt>
      <trkpt lat="44.91309" lon="6.81274">
        <ele>1989</ele>
        <time>2014-07-31T09:07:44.280Z</time>
      </trkpt>
      <trkpt lat="44.91312" lon="6.81275">
        <ele>1991</ele>
        <time>2014-07-31T09:07:46.090Z</time>
      </trkpt>
      <trkpt lat="44.91314" lon="6.81276">
        <ele>1991</ele>
        <time>2014-07-31T09:07:47.090Z</time>
      </trkpt>
      <trkpt lat="44.91315" lon="6.81277">
        <ele>1991</ele>
        <time>2014-07-31T09:07:48.090Z</time>
      </trkpt>
      <trkpt lat="44.91317" lon="6.81278">
        <ele>1991</ele>
        <time>2014-07-31T09:07:49.290Z</time>
      </trkpt>
      <trkpt lat="44.91319" lon="6.81278">
        <ele>1991</ele>
        <time>2014-07-31T09:07:50.290Z</time>
      </trkpt>
      <trkpt lat="44.91321" lon="6.81281">
        <ele>1991</ele>
        <time>2014-07-31T09:07:52.190Z</time>
      </trkpt>
      <trkpt lat="44.91323" lon="6.81282">
        <ele>1991</ele>
        <time>2014-07-31T09:07:53.290Z</time>
      </trkpt>
      <trkpt lat="44.91324" lon="6.81284">
        <ele>1991</ele>
        <time>2014-07-31T09:07:54.290Z</time>
      </trkpt>
      <trkpt lat="44.91326" lon="6.81285">
        <ele>1991.7</ele>
        <time>2014-07-31T09:07:55.290Z</time>
      </trkpt>
      <trkpt lat="44.91327" lon="6.81286">
        <ele>1992</ele>
        <time>2014-07-31T09:07:56.090Z</time>
      </trkpt>
      <trkpt lat="44.91328" lon="6.81288">
        <ele>1992</ele>
        <time>2014-07-31T09:07:57.290Z</time>
      </trkpt>
      <trkpt lat="44.91331" lon="6.8129">
        <ele>1992</ele>
        <time>2014-07-31T09:07:59.090Z</time>
      </trkpt>
      <trkpt lat="44.91332" lon="6.81291">
        <ele>1992</ele>
        <time>2014-07-31T09:08:00.150Z</time>
      </trkpt>
      <trkpt lat="44.91333" lon="6.81293">
        <ele>1992</ele>
        <time>2014-07-31T09:08:01.190Z</time>
      </trkpt>
      <trkpt lat="44.91334" lon="6.81294">
        <ele>1992</ele>
        <time>2014-07-31T09:08:02.190Z</time>
      </trkpt>
      <trkpt lat="44.91336" lon="6.81295">
        <ele>1992</ele>
        <time>2014-07-31T09:08:03.290Z</time>
      </trkpt>
      <trkpt lat="44.91337" lon="6.81296">
        <ele>1992</ele>
        <time>2014-07-31T09:08:04.290Z</time>
      </trkpt>
      <trkpt lat="44.91338" lon="6.81297">
        <ele>1993.4</ele>
        <time>2014-07-31T09:08:05.290Z</time>
      </trkpt>
      <trkpt lat="44.9134" lon="6.81299">
        <ele>1994</ele>
        <time>2014-07-31T09:08:07.190Z</time>
      </trkpt>
      <trkpt lat="44.91341" lon="6.813">
        <ele>1994</ele>
        <time>2014-07-31T09:08:08.190Z</time>
      </trkpt>
      <trkpt lat="44.91342" lon="6.81301">
        <ele>1994</ele>
        <time>2014-07-31T09:08:09.190Z</time>
      </trkpt>
      <trkpt lat="44.91344" lon="6.81302">
        <ele>1994</ele>
        <time>2014-07-31T09:08:10.190Z</time>
      </trkpt>
      <trkpt lat="44.91346" lon="6.81303">
        <ele>1994</ele>
        <time>2014-07-31T09:08:11.190Z</time>
      </trkpt>
      <trkpt lat="44.91347" lon="6.81305">
        <ele>1994</ele>
        <time>2014-07-31T09:08:12.190Z</time>
      </trkpt>
      <trkpt lat="44.91349" lon="6.81306">
        <ele>1994</ele>
        <time>2014-07-31T09:08:13.160Z</time>
      </trkpt>
      <trkpt lat="44.9135" lon="6.81307">
        <ele>1994</ele>
        <time>2014-07-31T09:08:14.190Z</time>
      </trkpt>
      <trkpt lat="44.91352" lon="6.81308">
        <ele>1995.2</ele>
        <time>2014-07-31T09:08:15.190Z</time>
      </trkpt>
      <trkpt lat="44.91353" lon="6.81309">
        <ele>1996</ele>
        <time>2014-07-31T09:08:16.190Z</time>
      </trkpt>
      <trkpt lat="44.91357" lon="6.81312">
        <ele>1996</ele>
        <time>2014-07-31T09:08:18.280Z</time>
      </trkpt>
      <trkpt lat="44.91358" lon="6.81313">
        <ele>1996</ele>
        <time>2014-07-31T09:08:19.290Z</time>
      </trkpt>
      <trkpt lat="44.9136" lon="6.81314">
        <ele>1996</ele>
        <time>2014-07-31T09:08:20.290Z</time>
      </trkpt>
      <trkpt lat="44.91362" lon="6.81315">
        <ele>1996</ele>
        <time>2014-07-31T09:08:21.290Z</time>
      </trkpt>
      <trkpt lat="44.91364" lon="6.81317">
        <ele>1996</ele>
        <time>2014-07-31T09:08:22.290Z</time>
      </trkpt>
      <trkpt lat="44.91365" lon="6.81317">
        <ele>1996</ele>
        <time>2014-07-31T09:08:23.290Z</time>
      </trkpt>
      <trkpt lat="44.91369" lon="6.8132">
        <ele>1997.2</ele>
        <time>2014-07-31T09:08:25.190Z</time>
      </trkpt>
      <trkpt lat="44.9137" lon="6.81322">
        <ele>1998</ele>
        <time>2014-07-31T09:08:26.190Z</time>
      </trkpt>
      <trkpt lat="44.91372" lon="6.81323">
        <ele>1998</ele>
        <time>2014-07-31T09:08:27.190Z</time>
      </trkpt>
      <trkpt lat="44.91373" lon="6.81325">
        <ele>1998</ele>
        <time>2014-07-31T09:08:28.190Z</time>
      </trkpt>
      <trkpt lat="44.91376" lon="6.81328">
        <ele>1998</ele>
        <time>2014-07-31T09:08:30.060Z</time>
      </trkpt>
      <trkpt lat="44.91377" lon="6.8133">
        <ele>1998</ele>
        <time>2014-07-31T09:08:31.290Z</time>
      </trkpt>
      <trkpt lat="44.91378" lon="6.81331">
        <ele>1998</ele>
        <time>2014-07-31T09:08:32.380Z</time>
      </trkpt>
      <trkpt lat="44.91379" lon="6.81333">
        <ele>1998</ele>
        <time>2014-07-31T09:08:33.290Z</time>
      </trkpt>
      <trkpt lat="44.9138" lon="6.81336">
        <ele>1998.6</ele>
        <time>2014-07-31T09:08:35.190Z</time>
      </trkpt>
      <trkpt lat="44.9138" lon="6.81337">
        <ele>1999</ele>
        <time>2014-07-31T09:08:36.190Z</time>
      </trkpt>
      <trkpt lat="44.9138" lon="6.81339">
        <ele>1999</ele>
        <time>2014-07-31T09:08:38.190Z</time>
      </trkpt>
      <trkpt lat="44.9138" lon="6.81343">
        <ele>1999</ele>
        <time>2014-07-31T09:08:50.290Z</time>
      </trkpt>
      <trkpt lat="44.9138" lon="6.81346">
        <ele>1999</ele>
        <time>2014-07-31T09:08:52.090Z</time>
      </trkpt>
      <trkpt lat="44.91379" lon="6.81348">
        <ele>1999</ele>
        <time>2014-07-31T09:08:53.090Z</time>
      </trkpt>
      <trkpt lat="44.91379" lon="6.81349">
        <ele>1999</ele>
        <time>2014-07-31T09:08:54.080Z</time>
      </trkpt>
      <trkpt lat="44.91378" lon="6.81351">
        <ele>1999</ele>
        <time>2014-07-31T09:08:55.090Z</time>
      </trkpt>
      <trkpt lat="44.91377" lon="6.81352">
        <ele>1999</ele>
        <time>2014-07-31T09:08:56.090Z</time>
      </trkpt>
      <trkpt lat="44.91375" lon="6.81354">
        <ele>1999</ele>
        <time>2014-07-31T09:08:57.090Z</time>
      </trkpt>
      <trkpt lat="44.91373" lon="6.81355">
        <ele>1999</ele>
        <time>2014-07-31T09:08:58.280Z</time>
      </trkpt>
      <trkpt lat="44.91371" lon="6.81357">
        <ele>1999</ele>
        <time>2014-07-31T09:08:59.190Z</time>
      </trkpt>
      <trkpt lat="44.9137" lon="6.81359">
        <ele>1999</ele>
        <time>2014-07-31T09:09:00.250Z</time>
      </trkpt>
      <trkpt lat="44.91368" lon="6.81362">
        <ele>1999</ele>
        <time>2014-07-31T09:09:01.290Z</time>
      </trkpt>
      <trkpt lat="44.91367" lon="6.81365">
        <ele>1999</ele>
        <time>2014-07-31T09:09:02.290Z</time>
      </trkpt>
      <trkpt lat="44.91365" lon="6.81368">
        <ele>1999</ele>
        <time>2014-07-31T09:09:04.160Z</time>
      </trkpt>
      <trkpt lat="44.91363" lon="6.81369">
        <ele>1999</ele>
        <time>2014-07-31T09:09:06.190Z</time>
      </trkpt>
      <trkpt lat="44.91362" lon="6.81369">
        <ele>1999</ele>
        <time>2014-07-31T09:09:07.190Z</time>
      </trkpt>
      <trkpt lat="44.91361" lon="6.81369">
        <ele>1999</ele>
        <time>2014-07-31T09:09:08.190Z</time>
      </trkpt>
      <trkpt lat="44.9136" lon="6.8137">
        <ele>1999</ele>
        <time>2014-07-31T09:09:12.280Z</time>
      </trkpt>
      <trkpt lat="44.9136" lon="6.81369">
        <ele>1997</ele>
        <time>2014-07-31T09:09:18.190Z</time>
      </trkpt>
      <trkpt lat="44.91361" lon="6.81366">
        <ele>1997</ele>
        <time>2014-07-31T09:09:22.090Z</time>
      </trkpt>
      <trkpt lat="44.91362" lon="6.81366">
        <ele>1997</ele>
        <time>2014-07-31T09:09:24.090Z</time>
      </trkpt>
      <trkpt lat="44.91363" lon="6.81367">
        <ele>1997</ele>
        <time>2014-07-31T09:09:27.290Z</time>
      </trkpt>
      <trkpt lat="44.91364" lon="6.81367">
        <ele>1997</ele>
        <time>2014-07-31T09:09:31.090Z</time>
      </trkpt>
      <trkpt lat="44.91365" lon="6.81367">
        <ele>1997</ele>
        <time>2014-07-31T09:09:42.090Z</time>
      </trkpt>
      <trkpt lat="44.91365" lon="6.81365">
        <ele>1997</ele>
        <time>2014-07-31T09:09:44.090Z</time>
      </trkpt>
      <trkpt lat="44.91366" lon="6.81365">
        <ele>1998</ele>
        <time>2014-07-31T09:09:47.090Z</time>
      </trkpt>
      <trkpt lat="44.91367" lon="6.81365">
        <ele>1998</ele>
        <time>2014-07-31T09:09:52.190Z</time>
      </trkpt>
      <trkpt lat="44.91366" lon="6.81364">
        <ele>1998</ele>
        <time>2014-07-31T09:09:54.190Z</time>
      </trkpt>
      <trkpt lat="44.91367" lon="6.81364">
        <ele>1997</ele>
        <time>2014-07-31T09:10:00.150Z</time>
      </trkpt>
      <trkpt lat="44.91368" lon="6.81364">
        <ele>1997</ele>
        <time>2014-07-31T09:10:03.190Z</time>
      </trkpt>
      <trkpt lat="44.91368" lon="6.81365">
        <ele>1997</ele>
        <time>2014-07-31T09:10:07.190Z</time>
      </trkpt>
      <trkpt lat="44.91368" lon="6.81367">
        <ele>1997</ele>
        <time>2014-07-31T09:10:10.180Z</time>
      </trkpt>
      <trkpt lat="44.91366" lon="6.81367">
        <ele>1997</ele>
        <time>2014-07-31T09:10:14.090Z</time>
      </trkpt>
      <trkpt lat="44.91366" lon="6.81366">
        <ele>1997</ele>
        <time>2014-07-31T09:10:20.190Z</time>
      </trkpt>
      <trkpt lat="44.91365" lon="6.81366">
        <ele>1997</ele>
        <time>2014-07-31T09:10:30.090Z</time>
      </trkpt>
      <trkpt lat="44.91364" lon="6.81366">
        <ele>1997</ele>
        <time>2014-07-31T09:10:45.190Z</time>
      </trkpt>
      <trkpt lat="44.91364" lon="6.81367">
        <ele>1997</ele>
        <time>2014-07-31T09:10:49.090Z</time>
      </trkpt>
      <trkpt lat="44.91363" lon="6.81367">
        <ele>1997</ele>
        <time>2014-07-31T09:10:52.190Z</time>
      </trkpt>
      <trkpt lat="44.91363" lon="6.81368">
        <ele>1997</ele>
        <time>2014-07-31T09:11:01.090Z</time>
      </trkpt>
      <trkpt lat="44.91363" lon="6.81367">
        <ele>1997</ele>
        <time>2014-07-31T09:11:04.190Z</time>
      </trkpt>
      <trkpt lat="44.91363" lon="6.81368">
        <ele>1998</ele>
        <time>2014-07-31T09:11:10.180Z</time>
      </trkpt>
      <trkpt lat="44.91365" lon="6.81367">
        <ele>1998</ele>
        <time>2014-07-31T09:11:17.150Z</time>
      </trkpt>
      <trkpt lat="44.91367" lon="6.81367">
        <ele>1998</ele>
        <time>2014-07-31T09:11:19.190Z</time>
      </trkpt>
      <trkpt lat="44.91368" lon="6.81368">
        <ele>1998</ele>
        <time>2014-07-31T09:11:24.090Z</time>
      </trkpt>
      <trkpt lat="44.91368" lon="6.81367">
        <ele>1997</ele>
        <time>2014-07-31T09:11:30.090Z</time>
      </trkpt>
      <trkpt lat="44.91368" lon="6.81369">
        <ele>1998</ele>
        <time>2014-07-31T09:11:44.190Z</time>
      </trkpt>
      <trkpt lat="44.91367" lon="6.81369">
        <ele>1997</ele>
        <time>2014-07-31T09:11:48.180Z</time>
      </trkpt>
      <trkpt lat="44.91366" lon="6.8137">
        <ele>1997</ele>
        <time>2014-07-31T09:11:52.090Z</time>
      </trkpt>
      <trkpt lat="44.91365" lon="6.81369">
        <ele>1997</ele>
        <time>2014-07-31T09:11:58.190Z</time>
      </trkpt>
      <trkpt lat="44.91366" lon="6.81369">
        <ele>1997</ele>
        <time>2014-07-31T09:12:01.090Z</time>
      </trkpt>
      <trkpt lat="44.91367" lon="6.81369">
        <ele>1997</ele>
        <time>2014-07-31T09:12:03.190Z</time>
      </trkpt>
      <trkpt lat="44.91365" lon="6.81367">
        <ele>1997</ele>
        <time>2014-07-31T09:12:10.190Z</time>
      </trkpt>
      <trkpt lat="44.91366" lon="6.81367">
        <ele>1996</ele>
        <time>2014-07-31T09:12:18.090Z</time>
      </trkpt>
      <trkpt lat="44.91367" lon="6.81369">
        <ele>1996</ele>
        <time>2014-07-31T09:12:20.090Z</time>
      </trkpt>
      <trkpt lat="44.91366" lon="6.8137">
        <ele>1997</ele>
        <time>2014-07-31T09:12:27.090Z</time>
      </trkpt>
      <trkpt lat="44.91365" lon="6.81371">
        <ele>1997</ele>
        <time>2014-07-31T09:12:30.190Z</time>
      </trkpt>
      <trkpt lat="44.91364" lon="6.81371">
        <ele>1997</ele>
        <time>2014-07-31T09:12:31.190Z</time>
      </trkpt>
      <trkpt lat="44.91363" lon="6.8137">
        <ele>1997</ele>
        <time>2014-07-31T09:12:32.190Z</time>
      </trkpt>
      <trkpt lat="44.91362" lon="6.8137">
        <ele>1997</ele>
        <time>2014-07-31T09:12:33.190Z</time>
      </trkpt>
      <trkpt lat="44.91362" lon="6.81371">
        <ele>1997</ele>
        <time>2014-07-31T09:12:35.090Z</time>
      </trkpt>
      <trkpt lat="44.91361" lon="6.81372">
        <ele>1997</ele>
        <time>2014-07-31T09:12:38.090Z</time>
      </trkpt>
      <trkpt lat="44.91361" lon="6.81373">
        <ele>1997</ele>
        <time>2014-07-31T09:12:40.090Z</time>
      </trkpt>
      <trkpt lat="44.91361" lon="6.81374">
        <ele>1997</ele>
        <time>2014-07-31T09:12:42.090Z</time>
      </trkpt>
      <trkpt lat="44.91362" lon="6.81375">
        <ele>1996.4</ele>
        <time>2014-07-31T09:12:45.160Z</time>
      </trkpt>
      <trkpt lat="44.91361" lon="6.81376">
        <ele>1996</ele>
        <time>2014-07-31T09:12:47.190Z</time>
      </trkpt>
      <trkpt lat="44.91361" lon="6.81376">
        <ele>1997</ele>
        <time>2014-07-31T09:13:01.090Z</time>
      </trkpt>
      <trkpt lat="44.91361" lon="6.81378">
        <ele>1997</ele>
        <time>2014-07-31T09:13:02.160Z</time>
      </trkpt>
      <trkpt lat="44.91362" lon="6.81378">
        <ele>1997</ele>
        <time>2014-07-31T09:13:04.190Z</time>
      </trkpt>
      <trkpt lat="44.91362" lon="6.81379">
        <ele>1997</ele>
        <time>2014-07-31T09:13:06.190Z</time>
      </trkpt>
      <trkpt lat="44.91362" lon="6.81381">
        <ele>1997</ele>
        <time>2014-07-31T09:13:11.190Z</time>
      </trkpt>
      <trkpt lat="44.91362" lon="6.81382">
        <ele>1997</ele>
        <time>2014-07-31T09:13:13.190Z</time>
      </trkpt>
      <trkpt lat="44.91363" lon="6.81383">
        <ele>1997</ele>
        <time>2014-07-31T09:13:14.190Z</time>
      </trkpt>
      <trkpt lat="44.91362" lon="6.81383">
        <ele>1996</ele>
        <time>2014-07-31T09:13:18.090Z</time>
      </trkpt>
      <trkpt lat="44.91362" lon="6.8138">
        <ele>1996</ele>
        <time>2014-07-31T09:13:25.190Z</time>
      </trkpt>
      <trkpt lat="44.91361" lon="6.81379">
        <ele>1996</ele>
        <time>2014-07-31T09:13:26.190Z</time>
      </trkpt>
      <trkpt lat="44.9136" lon="6.81378">
        <ele>1996</ele>
        <time>2014-07-31T09:13:28.280Z</time>
      </trkpt>
      <trkpt lat="44.91359" lon="6.81377">
        <ele>1996</ele>
        <time>2014-07-31T09:13:31.190Z</time>
      </trkpt>
      <trkpt lat="44.91358" lon="6.81377">
        <ele>1997</ele>
        <time>2014-07-31T09:13:42.190Z</time>
      </trkpt>
      <trkpt lat="44.91357" lon="6.81377">
        <ele>1997</ele>
        <time>2014-07-31T09:13:44.190Z</time>
      </trkpt>
      <trkpt lat="44.91356" lon="6.81376">
        <ele>1997</ele>
        <time>2014-07-31T09:13:45.190Z</time>
      </trkpt>
      <trkpt lat="44.91354" lon="6.81376">
        <ele>1997</ele>
        <time>2014-07-31T09:13:52.090Z</time>
      </trkpt>
      <trkpt lat="44.91354" lon="6.81375">
        <ele>1997</ele>
        <time>2014-07-31T09:13:55.190Z</time>
      </trkpt>
      <trkpt lat="44.91356" lon="6.81376">
        <ele>1997</ele>
        <time>2014-07-31T09:14:01.090Z</time>
      </trkpt>
      <trkpt lat="44.91357" lon="6.81377">
        <ele>1997</ele>
        <time>2014-07-31T09:14:02.090Z</time>
      </trkpt>
      <trkpt lat="44.91357" lon="6.81378">
        <ele>1997</ele>
        <time>2014-07-31T09:14:06.090Z</time>
      </trkpt>
      <trkpt lat="44.91357" lon="6.8138">
        <ele>1997</ele>
        <time>2014-07-31T09:14:20.190Z</time>
      </trkpt>
      <trkpt lat="44.91356" lon="6.8138">
        <ele>1997</ele>
        <time>2014-07-31T09:14:22.280Z</time>
      </trkpt>
      <trkpt lat="44.91355" lon="6.8138">
        <ele>1996.4</ele>
        <time>2014-07-31T09:14:25.190Z</time>
      </trkpt>
      <trkpt lat="44.91354" lon="6.8138">
        <ele>1996</ele>
        <time>2014-07-31T09:14:28.190Z</time>
      </trkpt>
      <trkpt lat="44.91353" lon="6.81379">
        <ele>1996</ele>
        <time>2014-07-31T09:14:30.190Z</time>
      </trkpt>
      <trkpt lat="44.91352" lon="6.81377">
        <ele>1996</ele>
        <time>2014-07-31T09:14:32.190Z</time>
      </trkpt>
      <trkpt lat="44.91353" lon="6.81379">
        <ele>1996</ele>
        <time>2014-07-31T09:14:35.090Z</time>
      </trkpt>
      <trkpt lat="44.91355" lon="6.81379">
        <ele>1996</ele>
        <time>2014-07-31T09:14:38.150Z</time>
      </trkpt>
      <trkpt lat="44.91357" lon="6.81378">
        <ele>1996</ele>
        <time>2014-07-31T09:14:45.090Z</time>
      </trkpt>
      <trkpt lat="44.91358" lon="6.81379">
        <ele>1996</ele>
        <time>2014-07-31T09:14:50.090Z</time>
      </trkpt>
      <trkpt lat="44.91359" lon="6.81379">
        <ele>1996</ele>
        <time>2014-07-31T09:14:52.190Z</time>
      </trkpt>
      <trkpt lat="44.9136" lon="6.81379">
        <ele>1996.6</ele>
        <time>2014-07-31T09:14:55.190Z</time>
      </trkpt>
      <trkpt lat="44.91361" lon="6.81379">
        <ele>1997</ele>
        <time>2014-07-31T09:14:57.190Z</time>
      </trkpt>
      <trkpt lat="44.91362" lon="6.81377">
        <ele>1997</ele>
        <time>2014-07-31T09:14:58.190Z</time>
      </trkpt>
      <trkpt lat="44.91362" lon="6.81377">
        <ele>1997</ele>
        <time>2014-07-31T09:15:01.160Z</time>
      </trkpt>
      <trkpt lat="44.91363" lon="6.81376">
        <ele>1996.4</ele>
        <time>2014-07-31T09:15:05.190Z</time>
      </trkpt>
      <trkpt lat="44.91362" lon="6.81377">
        <ele>1996</ele>
        <time>2014-07-31T09:15:07.190Z</time>
      </trkpt>
      <trkpt lat="44.91362" lon="6.81378">
        <ele>1997</ele>
        <time>2014-07-31T09:15:27.090Z</time>
      </trkpt>
      <trkpt lat="44.91361" lon="6.81378">
        <ele>1997</ele>
        <time>2014-07-31T09:15:33.090Z</time>
      </trkpt>
      <trkpt lat="44.9136" lon="6.81377">
        <ele>1997</ele>
        <time>2014-07-31T09:15:38.090Z</time>
      </trkpt>
      <trkpt lat="44.91361" lon="6.81379">
        <ele>1997</ele>
        <time>2014-07-31T09:15:44.090Z</time>
      </trkpt>
      <trkpt lat="44.91362" lon="6.8138">
        <ele>1997</ele>
        <time>2014-07-31T09:15:46.090Z</time>
      </trkpt>
      <trkpt lat="44.9136" lon="6.81379">
        <ele>1996</ele>
        <time>2014-07-31T09:16:01.090Z</time>
      </trkpt>
      <trkpt lat="44.9136" lon="6.81377">
        <ele>1996</ele>
        <time>2014-07-31T09:16:05.190Z</time>
      </trkpt>
      <trkpt lat="44.9136" lon="6.81376">
        <ele>1996</ele>
        <time>2014-07-31T09:16:11.090Z</time>
      </trkpt>
      <trkpt lat="44.91361" lon="6.81378">
        <ele>1996</ele>
        <time>2014-07-31T09:16:29.190Z</time>
      </trkpt>
      <trkpt lat="44.9136" lon="6.8138">
        <ele>1996</ele>
        <time>2014-07-31T09:16:31.190Z</time>
      </trkpt>
      <trkpt lat="44.91359" lon="6.8138">
        <ele>1996</ele>
        <time>2014-07-31T09:16:33.090Z</time>
      </trkpt>
      <trkpt lat="44.91358" lon="6.81379">
        <ele>1996</ele>
        <time>2014-07-31T09:16:45.090Z</time>
      </trkpt>
      <trkpt lat="44.91357" lon="6.81379">
        <ele>1996</ele>
        <time>2014-07-31T09:16:53.090Z</time>
      </trkpt>
      <trkpt lat="44.91357" lon="6.81377">
        <ele>1996</ele>
        <time>2014-07-31T09:16:58.190Z</time>
      </trkpt>
      <trkpt lat="44.91357" lon="6.81377">
        <ele>1996</ele>
        <time>2014-07-31T09:17:01.090Z</time>
      </trkpt>
      <trkpt lat="44.91357" lon="6.81376">
        <ele>1996</ele>
        <time>2014-07-31T09:17:04.090Z</time>
      </trkpt>
      <trkpt lat="44.91355" lon="6.81376">
        <ele>1997</ele>
        <time>2014-07-31T09:17:15.090Z</time>
      </trkpt>
      <trkpt lat="44.91355" lon="6.81378">
        <ele>1997</ele>
        <time>2014-07-31T09:17:26.090Z</time>
      </trkpt>
      <trkpt lat="44.91354" lon="6.81376">
        <ele>1997</ele>
        <time>2014-07-31T09:17:33.090Z</time>
      </trkpt>
      <trkpt lat="44.91356" lon="6.81375">
        <ele>1997</ele>
        <time>2014-07-31T09:17:36.190Z</time>
      </trkpt>
      <trkpt lat="44.91355" lon="6.81376">
        <ele>1997</ele>
        <time>2014-07-31T09:17:42.180Z</time>
      </trkpt>
      <trkpt lat="44.91356" lon="6.81376">
        <ele>1997</ele>
        <time>2014-07-31T09:17:44.190Z</time>
      </trkpt>
      <trkpt lat="44.91357" lon="6.81375">
        <ele>1996.4</ele>
        <time>2014-07-31T09:17:45.190Z</time>
      </trkpt>
      <trkpt lat="44.91358" lon="6.81374">
        <ele>1996</ele>
        <time>2014-07-31T09:17:46.190Z</time>
      </trkpt>
      <trkpt lat="44.91358" lon="6.81373">
        <ele>1996</ele>
        <time>2014-07-31T09:17:47.190Z</time>
      </trkpt>
      <trkpt lat="44.91359" lon="6.81373">
        <ele>1996</ele>
        <time>2014-07-31T09:17:48.190Z</time>
      </trkpt>
      <trkpt lat="44.91361" lon="6.81372">
        <ele>1996</ele>
        <time>2014-07-31T09:17:50.190Z</time>
      </trkpt>
      <trkpt lat="44.91359" lon="6.8137">
        <ele>1996</ele>
        <time>2014-07-31T09:17:52.090Z</time>
      </trkpt>
      <trkpt lat="44.9136" lon="6.81369">
        <ele>1996</ele>
        <time>2014-07-31T09:17:54.190Z</time>
      </trkpt>
      <trkpt lat="44.9136" lon="6.81368">
        <ele>1996</ele>
        <time>2014-07-31T09:17:57.190Z</time>
      </trkpt>
      <trkpt lat="44.9136" lon="6.81366">
        <ele>1996</ele>
        <time>2014-07-31T09:18:01.090Z</time>
      </trkpt>
      <trkpt lat="44.9136" lon="6.81365">
        <ele>1996</ele>
        <time>2014-07-31T09:18:04.090Z</time>
      </trkpt>
      <trkpt lat="44.91358" lon="6.81364">
        <ele>1996</ele>
        <time>2014-07-31T09:18:07.080Z</time>
      </trkpt>
      <trkpt lat="44.91357" lon="6.81364">
        <ele>1996</ele>
        <time>2014-07-31T09:18:09.090Z</time>
      </trkpt>
      <trkpt lat="44.91358" lon="6.81363">
        <ele>1996</ele>
        <time>2014-07-31T09:18:12.090Z</time>
      </trkpt>
      <trkpt lat="44.91358" lon="6.81364">
        <ele>1996</ele>
        <time>2014-07-31T09:18:15.170Z</time>
      </trkpt>
      <trkpt lat="44.91359" lon="6.81364">
        <ele>1996</ele>
        <time>2014-07-31T09:18:16.090Z</time>
      </trkpt>
      <trkpt lat="44.9136" lon="6.81363">
        <ele>1996</ele>
        <time>2014-07-31T09:18:18.190Z</time>
      </trkpt>
      <trkpt lat="44.91359" lon="6.81363">
        <ele>1997</ele>
        <time>2014-07-31T09:18:27.190Z</time>
      </trkpt>
      <trkpt lat="44.91358" lon="6.81364">
        <ele>1997</ele>
        <time>2014-07-31T09:18:29.190Z</time>
      </trkpt>
      <trkpt lat="44.91357" lon="6.81364">
        <ele>1997</ele>
        <time>2014-07-31T09:18:31.190Z</time>
      </trkpt>
      <trkpt lat="44.91358" lon="6.81365">
        <ele>1997</ele>
        <time>2014-07-31T09:18:41.090Z</time>
      </trkpt>
      <trkpt lat="44.91356" lon="6.81364">
        <ele>1997</ele>
        <time>2014-07-31T09:18:52.090Z</time>
      </trkpt>
      <trkpt lat="44.91357" lon="6.81363">
        <ele>1997</ele>
        <time>2014-07-31T09:18:59.990Z</time>
      </trkpt>
      <trkpt lat="44.91356" lon="6.81364">
        <ele>1997</ele>
        <time>2014-07-31T09:19:02.090Z</time>
      </trkpt>
      <trkpt lat="44.91356" lon="6.81366">
        <ele>1997</ele>
        <time>2014-07-31T09:19:04.190Z</time>
      </trkpt>
      <trkpt lat="44.91356" lon="6.81368">
        <ele>1997</ele>
        <time>2014-07-31T09:19:05.190Z</time>
      </trkpt>
      <trkpt lat="44.91356" lon="6.81369">
        <ele>1997</ele>
        <time>2014-07-31T09:19:06.190Z</time>
      </trkpt>
      <trkpt lat="44.91356" lon="6.81371">
        <ele>1997</ele>
        <time>2014-07-31T09:19:12.190Z</time>
      </trkpt>
      <trkpt lat="44.91355" lon="6.81372">
        <ele>1997</ele>
        <time>2014-07-31T09:19:14.090Z</time>
      </trkpt>
      <trkpt lat="44.91358" lon="6.81375">
        <ele>1996</ele>
        <time>2014-07-31T09:19:18.090Z</time>
      </trkpt>
      <trkpt lat="44.91359" lon="6.81376">
        <ele>1996</ele>
        <time>2014-07-31T09:19:19.090Z</time>
      </trkpt>
      <trkpt lat="44.9136" lon="6.81377">
        <ele>1997</ele>
        <time>2014-07-31T09:19:26.090Z</time>
      </trkpt>
      <trkpt lat="44.91361" lon="6.81377">
        <ele>1997</ele>
        <time>2014-07-31T09:19:27.090Z</time>
      </trkpt>
      <trkpt lat="44.91362" lon="6.81377">
        <ele>1997</ele>
        <time>2014-07-31T09:19:31.090Z</time>
      </trkpt>
      <trkpt lat="44.91361" lon="6.81376">
        <ele>1997</ele>
        <time>2014-07-31T09:19:41.190Z</time>
      </trkpt>
      <trkpt lat="44.91361" lon="6.81377">
        <ele>1997</ele>
        <time>2014-07-31T09:19:46.090Z</time>
      </trkpt>
      <trkpt lat="44.91361" lon="6.81376">
        <ele>1997</ele>
        <time>2014-07-31T09:19:50.160Z</time>
      </trkpt>
      <trkpt lat="44.91361" lon="6.81374">
        <ele>1997</ele>
        <time>2014-07-31T09:19:52.170Z</time>
      </trkpt>
      <trkpt lat="44.91361" lon="6.81372">
        <ele>1997</ele>
        <time>2014-07-31T09:19:54.090Z</time>
      </trkpt>
      <trkpt lat="44.91361" lon="6.81371">
        <ele>1997</ele>
        <time>2014-07-31T09:19:58.080Z</time>
      </trkpt>
      <trkpt lat="44.91361" lon="6.8137">
        <ele>1997</ele>
        <time>2014-07-31T09:20:00.130Z</time>
      </trkpt>
      <trkpt lat="44.91362" lon="6.81368">
        <ele>1997</ele>
        <time>2014-07-31T09:20:03.190Z</time>
      </trkpt>
      <trkpt lat="44.91363" lon="6.81369">
        <ele>1997</ele>
        <time>2014-07-31T09:20:08.090Z</time>
      </trkpt>
      <trkpt lat="44.91364" lon="6.81369">
        <ele>1997</ele>
        <time>2014-07-31T09:20:13.090Z</time>
      </trkpt>
      <trkpt lat="44.91365" lon="6.81368">
        <ele>1997</ele>
        <time>2014-07-31T09:20:15.090Z</time>
      </trkpt>
      <trkpt lat="44.91365" lon="6.81367">
        <ele>1997</ele>
        <time>2014-07-31T09:20:16.090Z</time>
      </trkpt>
      <trkpt lat="44.91365" lon="6.81366">
        <ele>1997</ele>
        <time>2014-07-31T09:20:18.190Z</time>
      </trkpt>
      <trkpt lat="44.91364" lon="6.81367">
        <ele>1997</ele>
        <time>2014-07-31T09:20:20.190Z</time>
      </trkpt>
      <trkpt lat="44.91364" lon="6.81369">
        <ele>1997</ele>
        <time>2014-07-31T09:20:22.190Z</time>
      </trkpt>
      <trkpt lat="44.91364" lon="6.8137">
        <ele>1997</ele>
        <time>2014-07-31T09:20:23.190Z</time>
      </trkpt>
      <trkpt lat="44.91362" lon="6.81374">
        <ele>1997</ele>
        <time>2014-07-31T09:20:25.090Z</time>
      </trkpt>
      <trkpt lat="44.91361" lon="6.81377">
        <ele>1997</ele>
        <time>2014-07-31T09:20:26.090Z</time>
      </trkpt>
      <trkpt lat="44.9136" lon="6.8138">
        <ele>1997</ele>
        <time>2014-07-31T09:20:27.090Z</time>
      </trkpt>
      <trkpt lat="44.91358" lon="6.81384">
        <ele>1997</ele>
        <time>2014-07-31T09:20:28.090Z</time>
      </trkpt>
      <trkpt lat="44.91357" lon="6.81389">
        <ele>1997</ele>
        <time>2014-07-31T09:20:29.090Z</time>
      </trkpt>
      <trkpt lat="44.91355" lon="6.81395">
        <ele>1997</ele>
        <time>2014-07-31T09:20:30.180Z</time>
      </trkpt>
      <trkpt lat="44.91354" lon="6.81402">
        <ele>1997</ele>
        <time>2014-07-31T09:20:31.090Z</time>
      </trkpt>
      <trkpt lat="44.91353" lon="6.81408">
        <ele>1997</ele>
        <time>2014-07-31T09:20:32.090Z</time>
      </trkpt>
      <trkpt lat="44.91351" lon="6.81411">
        <ele>1997</ele>
        <time>2014-07-31T09:20:33.090Z</time>
      </trkpt>
      <trkpt lat="44.91351" lon="6.81413">
        <ele>1997</ele>
        <time>2014-07-31T09:20:34.150Z</time>
      </trkpt>
      <trkpt lat="44.91351" lon="6.81413">
        <ele>1992.7</ele>
        <time>2014-07-31T09:20:35.180Z</time>
      </trkpt>
      <trkpt lat="44.91353" lon="6.81413">
        <ele>1986.9</ele>
        <time>2014-07-31T09:20:36.190Z</time>
      </trkpt>
      <trkpt lat="44.91355" lon="6.81412">
        <ele>1984.4</ele>
        <time>2014-07-31T09:20:37.190Z</time>
      </trkpt>
      <trkpt lat="44.91357" lon="6.81411">
        <ele>1984</ele>
        <time>2014-07-31T09:20:38.190Z</time>
      </trkpt>
      <trkpt lat="44.9136" lon="6.8141">
        <ele>1983.4</ele>
        <time>2014-07-31T09:20:39.190Z</time>
      </trkpt>
      <trkpt lat="44.91363" lon="6.8141">
        <ele>1982.4</ele>
        <time>2014-07-31T09:20:40.190Z</time>
      </trkpt>
      <trkpt lat="44.91369" lon="6.81414">
        <ele>1980.5</ele>
        <time>2014-07-31T09:20:42.090Z</time>
      </trkpt>
      <trkpt lat="44.91369" lon="6.81417">
        <ele>1979.5</ele>
        <time>2014-07-31T09:20:43.090Z</time>
      </trkpt>
      <trkpt lat="44.9137" lon="6.81419">
        <ele>1978.5</ele>
        <time>2014-07-31T09:20:44.090Z</time>
      </trkpt>
      <trkpt lat="44.91372" lon="6.81417">
        <ele>1978</ele>
        <time>2014-07-31T09:20:46.080Z</time>
      </trkpt>
      <trkpt lat="44.91374" lon="6.81415">
        <ele>1977</ele>
        <time>2014-07-31T09:20:47.090Z</time>
      </trkpt>
      <trkpt lat="44.91379" lon="6.81413">
        <ele>1975</ele>
        <time>2014-07-31T09:20:48.090Z</time>
      </trkpt>
      <trkpt lat="44.91384" lon="6.81409">
        <ele>1973.5</ele>
        <time>2014-07-31T09:20:49.090Z</time>
      </trkpt>
      <trkpt lat="44.9139" lon="6.81405">
        <ele>1972.5</ele>
        <time>2014-07-31T09:20:50.090Z</time>
      </trkpt>
      <trkpt lat="44.91397" lon="6.81402">
        <ele>1971.4</ele>
        <time>2014-07-31T09:20:51.150Z</time>
      </trkpt>
      <trkpt lat="44.91405" lon="6.81398">
        <ele>1969.8</ele>
        <time>2014-07-31T09:20:52.190Z</time>
      </trkpt>
      <trkpt lat="44.91412" lon="6.81395">
        <ele>1968.4</ele>
        <time>2014-07-31T09:20:53.190Z</time>
      </trkpt>
      <trkpt lat="44.91418" lon="6.8139">
        <ele>1967.4</ele>
        <time>2014-07-31T09:20:54.190Z</time>
      </trkpt>
      <trkpt lat="44.91424" lon="6.81383">
        <ele>1966.4</ele>
        <time>2014-07-31T09:20:55.190Z</time>
      </trkpt>
      <trkpt lat="44.91427" lon="6.81379">
        <ele>1966.6</ele>
        <time>2014-07-31T09:20:56.190Z</time>
      </trkpt>
      <trkpt lat="44.91431" lon="6.81376">
        <ele>1967</ele>
        <time>2014-07-31T09:20:57.190Z</time>
      </trkpt>
      <trkpt lat="44.91439" lon="6.81373">
        <ele>1966</ele>
        <time>2014-07-31T09:20:59.190Z</time>
      </trkpt>
      <trkpt lat="44.91443" lon="6.81373">
        <ele>1965.5</ele>
        <time>2014-07-31T09:21:00.090Z</time>
      </trkpt>
      <trkpt lat="44.91448" lon="6.81372">
        <ele>1964.4</ele>
        <time>2014-07-31T09:21:01.190Z</time>
      </trkpt>
      <trkpt lat="44.91453" lon="6.81371">
        <ele>1963.4</ele>
        <time>2014-07-31T09:21:02.190Z</time>
      </trkpt>
      <trkpt lat="44.91457" lon="6.81368">
        <ele>1962.4</ele>
        <time>2014-07-31T09:21:03.190Z</time>
      </trkpt>
      <trkpt lat="44.9146" lon="6.81365">
        <ele>1960.8</ele>
        <time>2014-07-31T09:21:04.190Z</time>
      </trkpt>
      <trkpt lat="44.91462" lon="6.81362">
        <ele>1960</ele>
        <time>2014-07-31T09:21:05.190Z</time>
      </trkpt>
      <trkpt lat="44.91464" lon="6.8136">
        <ele>1960</ele>
        <time>2014-07-31T09:21:06.180Z</time>
      </trkpt>
      <trkpt lat="44.91467" lon="6.81356">
        <ele>1960</ele>
        <time>2014-07-31T09:21:07.190Z</time>
      </trkpt>
      <trkpt lat="44.9147" lon="6.81354">
        <ele>1960</ele>
        <time>2014-07-31T09:21:08.190Z</time>
      </trkpt>
      <trkpt lat="44.91473" lon="6.81351">
        <ele>1959.4</ele>
        <time>2014-07-31T09:21:09.190Z</time>
      </trkpt>
      <trkpt lat="44.91476" lon="6.81347">
        <ele>1958.4</ele>
        <time>2014-07-31T09:21:10.190Z</time>
      </trkpt>
      <trkpt lat="44.91481" lon="6.81344">
        <ele>1958</ele>
        <time>2014-07-31T09:21:11.190Z</time>
      </trkpt>
      <trkpt lat="44.91486" lon="6.81342">
        <ele>1958</ele>
        <time>2014-07-31T09:21:12.190Z</time>
      </trkpt>
      <trkpt lat="44.9149" lon="6.81339">
        <ele>1957.4</ele>
        <time>2014-07-31T09:21:13.190Z</time>
      </trkpt>
      <trkpt lat="44.91494" lon="6.81336">
        <ele>1957</ele>
        <time>2014-07-31T09:21:14.190Z</time>
      </trkpt>
      <trkpt lat="44.915" lon="6.81331">
        <ele>1957</ele>
        <time>2014-07-31T09:21:16.090Z</time>
      </trkpt>
      <trkpt lat="44.91503" lon="6.81328">
        <ele>1957</ele>
        <time>2014-07-31T09:21:17.150Z</time>
      </trkpt>
      <trkpt lat="44.91507" lon="6.81326">
        <ele>1957</ele>
        <time>2014-07-31T09:21:18.190Z</time>
      </trkpt>
      <trkpt lat="44.9151" lon="6.81325">
        <ele>1957</ele>
        <time>2014-07-31T09:21:19.190Z</time>
      </trkpt>
      <trkpt lat="44.91514" lon="6.81324">
        <ele>1956.4</ele>
        <time>2014-07-31T09:21:20.190Z</time>
      </trkpt>
      <trkpt lat="44.91518" lon="6.81322">
        <ele>1956</ele>
        <time>2014-07-31T09:21:21.190Z</time>
      </trkpt>
      <trkpt lat="44.91522" lon="6.81319">
        <ele>1956</ele>
        <time>2014-07-31T09:21:22.190Z</time>
      </trkpt>
      <trkpt lat="44.9153" lon="6.81314">
        <ele>1956</ele>
        <time>2014-07-31T09:21:24.090Z</time>
      </trkpt>
      <trkpt lat="44.91533" lon="6.81312">
        <ele>1953.9</ele>
        <time>2014-07-31T09:21:25.090Z</time>
      </trkpt>
      <trkpt lat="44.91536" lon="6.81311">
        <ele>1952</ele>
        <time>2014-07-31T09:21:26.090Z</time>
      </trkpt>
      <trkpt lat="44.91539" lon="6.81308">
        <ele>1952</ele>
        <time>2014-07-31T09:21:27.090Z</time>
      </trkpt>
      <trkpt lat="44.91543" lon="6.81306">
        <ele>1952</ele>
        <time>2014-07-31T09:21:28.180Z</time>
      </trkpt>
      <trkpt lat="44.91548" lon="6.81304">
        <ele>1952</ele>
        <time>2014-07-31T09:21:29.190Z</time>
      </trkpt>
      <trkpt lat="44.91553" lon="6.81301">
        <ele>1948.3</ele>
        <time>2014-07-31T09:21:30.190Z</time>
      </trkpt>
      <trkpt lat="44.91559" lon="6.81295">
        <ele>1946</ele>
        <time>2014-07-31T09:21:31.190Z</time>
      </trkpt>
      <trkpt lat="44.91567" lon="6.81292">
        <ele>1946</ele>
        <time>2014-07-31T09:21:33.090Z</time>
      </trkpt>
      <trkpt lat="44.91572" lon="6.81289">
        <ele>1946</ele>
        <time>2014-07-31T09:21:34.150Z</time>
      </trkpt>
      <trkpt lat="44.91577" lon="6.81288">
        <ele>1941.7</ele>
        <time>2014-07-31T09:21:35.190Z</time>
      </trkpt>
      <trkpt lat="44.91582" lon="6.81287">
        <ele>1936.5</ele>
        <time>2014-07-31T09:21:36.190Z</time>
      </trkpt>
      <trkpt lat="44.91585" lon="6.81287">
        <ele>1934.4</ele>
        <time>2014-07-31T09:21:37.190Z</time>
      </trkpt>
      <trkpt lat="44.9159" lon="6.81286">
        <ele>1932.5</ele>
        <time>2014-07-31T09:21:39.090Z</time>
      </trkpt>
      <trkpt lat="44.91589" lon="6.81288">
        <ele>1931.5</ele>
        <time>2014-07-31T09:21:40.090Z</time>
      </trkpt>
      <trkpt lat="44.91591" lon="6.81288">
        <ele>1929</ele>
        <time>2014-07-31T09:21:45.090Z</time>
      </trkpt>
      <trkpt lat="44.91591" lon="6.81288">
        <ele>1929</ele>
        <time>2014-07-31T09:21:46.090Z</time>
      </trkpt>
      <trkpt lat="44.91593" lon="6.81287">
        <ele>1928</ele>
        <time>2014-07-31T09:21:51.050Z</time>
      </trkpt>
      <trkpt lat="44.91593" lon="6.81286">
        <ele>1928</ele>
        <time>2014-07-31T09:21:52.190Z</time>
      </trkpt>
      <trkpt lat="44.91593" lon="6.81284">
        <ele>1928</ele>
        <time>2014-07-31T09:21:54.190Z</time>
      </trkpt>
      <trkpt lat="44.91593" lon="6.81282">
        <ele>1928</ele>
        <time>2014-07-31T09:21:56.190Z</time>
      </trkpt>
      <trkpt lat="44.91593" lon="6.81281">
        <ele>1928</ele>
        <time>2014-07-31T09:21:57.190Z</time>
      </trkpt>
      <trkpt lat="44.91595" lon="6.8128">
        <ele>1928</ele>
        <time>2014-07-31T09:21:58.190Z</time>
      </trkpt>
      <trkpt lat="44.91596" lon="6.81279">
        <ele>1928</ele>
        <time>2014-07-31T09:22:01.090Z</time>
      </trkpt>
      <trkpt lat="44.91597" lon="6.81278">
        <ele>1928</ele>
        <time>2014-07-31T09:22:04.190Z</time>
      </trkpt>
      <trkpt lat="44.91598" lon="6.8128">
        <ele>1927.4</ele>
        <time>2014-07-31T09:22:05.190Z</time>
      </trkpt>
      <trkpt lat="44.91601" lon="6.81287">
        <ele>1927</ele>
        <time>2014-07-31T09:22:07.090Z</time>
      </trkpt>
      <trkpt lat="44.91604" lon="6.8129">
        <ele>1927</ele>
        <time>2014-07-31T09:22:08.090Z</time>
      </trkpt>
      <trkpt lat="44.91605" lon="6.81291">
        <ele>1927</ele>
        <time>2014-07-31T09:22:09.090Z</time>
      </trkpt>
      <trkpt lat="44.91607" lon="6.8129">
        <ele>1927</ele>
        <time>2014-07-31T09:22:10.090Z</time>
      </trkpt>
      <trkpt lat="44.91608" lon="6.81288">
        <ele>1927</ele>
        <time>2014-07-31T09:22:11.090Z</time>
      </trkpt>
      <trkpt lat="44.9161" lon="6.81286">
        <ele>1927</ele>
        <time>2014-07-31T09:22:12.090Z</time>
      </trkpt>
      <trkpt lat="44.91611" lon="6.81285">
        <ele>1927</ele>
        <time>2014-07-31T09:22:13.090Z</time>
      </trkpt>
      <trkpt lat="44.91613" lon="6.81285">
        <ele>1927</ele>
        <time>2014-07-31T09:22:14.110Z</time>
      </trkpt>
      <trkpt lat="44.91615" lon="6.81288">
        <ele>1923.3</ele>
        <time>2014-07-31T09:22:15.190Z</time>
      </trkpt>
      <trkpt lat="44.91618" lon="6.81292">
        <ele>1917.9</ele>
        <time>2014-07-31T09:22:16.190Z</time>
      </trkpt>
      <trkpt lat="44.91624" lon="6.81296">
        <ele>1913.5</ele>
        <time>2014-07-31T09:22:18.090Z</time>
      </trkpt>
      <trkpt lat="44.91627" lon="6.81296">
        <ele>1913</ele>
        <time>2014-07-31T09:22:19.090Z</time>
      </trkpt>
      <trkpt lat="44.9163" lon="6.81297">
        <ele>1912.5</ele>
        <time>2014-07-31T09:22:20.090Z</time>
      </trkpt>
      <trkpt lat="44.91633" lon="6.81298">
        <ele>1911.5</ele>
        <time>2014-07-31T09:22:21.090Z</time>
      </trkpt>
      <trkpt lat="44.91635" lon="6.81298">
        <ele>1910</ele>
        <time>2014-07-31T09:22:22.090Z</time>
      </trkpt>
      <trkpt lat="44.91637" lon="6.81299">
        <ele>1908.4</ele>
        <time>2014-07-31T09:22:23.160Z</time>
      </trkpt>
      <trkpt lat="44.91639" lon="6.81299">
        <ele>1908</ele>
        <time>2014-07-31T09:22:24.190Z</time>
      </trkpt>
      <trkpt lat="44.91642" lon="6.813">
        <ele>1907.5</ele>
        <time>2014-07-31T09:22:26.090Z</time>
      </trkpt>
      <trkpt lat="44.91643" lon="6.81301">
        <ele>1906.5</ele>
        <time>2014-07-31T09:22:27.090Z</time>
      </trkpt>
      <trkpt lat="44.91644" lon="6.81299">
        <ele>1906</ele>
        <time>2014-07-31T09:22:28.190Z</time>
      </trkpt>
      <trkpt lat="44.91645" lon="6.81299">
        <ele>1905.4</ele>
        <time>2014-07-31T09:22:29.190Z</time>
      </trkpt>
      <trkpt lat="44.91647" lon="6.81297">
        <ele>1905</ele>
        <time>2014-07-31T09:22:30.190Z</time>
      </trkpt>
      <trkpt lat="44.91648" lon="6.81294">
        <ele>1905.4</ele>
        <time>2014-07-31T09:22:34.150Z</time>
      </trkpt>
      <trkpt lat="44.91649" lon="6.81293">
        <ele>1905</ele>
        <time>2014-07-31T09:22:35.190Z</time>
      </trkpt>
      <trkpt lat="44.91652" lon="6.81291">
        <ele>1905</ele>
        <time>2014-07-31T09:22:37.190Z</time>
      </trkpt>
      <trkpt lat="44.91654" lon="6.81291">
        <ele>1905</ele>
        <time>2014-07-31T09:22:38.190Z</time>
      </trkpt>
      <trkpt lat="44.91655" lon="6.81291">
        <ele>1905</ele>
        <time>2014-07-31T09:22:39.190Z</time>
      </trkpt>
      <trkpt lat="44.91657" lon="6.81292">
        <ele>1905</ele>
        <time>2014-07-31T09:22:41.090Z</time>
      </trkpt>
      <trkpt lat="44.91658" lon="6.81292">
        <ele>1905</ele>
        <time>2014-07-31T09:22:42.090Z</time>
      </trkpt>
      <trkpt lat="44.91659" lon="6.81292">
        <ele>1905</ele>
        <time>2014-07-31T09:22:43.090Z</time>
      </trkpt>
      <trkpt lat="44.9166" lon="6.81292">
        <ele>1905</ele>
        <time>2014-07-31T09:22:44.090Z</time>
      </trkpt>
      <trkpt lat="44.91662" lon="6.81291">
        <ele>1905</ele>
        <time>2014-07-31T09:22:45.090Z</time>
      </trkpt>
      <trkpt lat="44.91662" lon="6.8129">
        <ele>1905</ele>
        <time>2014-07-31T09:22:51.090Z</time>
      </trkpt>
      <trkpt lat="44.91662" lon="6.81289">
        <ele>1905</ele>
        <time>2014-07-31T09:22:53.190Z</time>
      </trkpt>
      <trkpt lat="44.91662" lon="6.81289">
        <ele>1905</ele>
        <time>2014-07-31T09:23:01.090Z</time>
      </trkpt>
      <trkpt lat="44.91663" lon="6.81287">
        <ele>1905</ele>
        <time>2014-07-31T09:23:14.160Z</time>
      </trkpt>
      <trkpt lat="44.91662" lon="6.81287">
        <ele>1905</ele>
        <time>2014-07-31T09:23:16.190Z</time>
      </trkpt>
      <trkpt lat="44.9166" lon="6.81287">
        <ele>1905</ele>
        <time>2014-07-31T09:23:32.090Z</time>
      </trkpt>
      <trkpt lat="44.91659" lon="6.81288">
        <ele>1905</ele>
        <time>2014-07-31T09:23:37.190Z</time>
      </trkpt>
      <trkpt lat="44.9166" lon="6.81287">
        <ele>1905</ele>
        <time>2014-07-31T09:23:39.190Z</time>
      </trkpt>
      <trkpt lat="44.91661" lon="6.81288">
        <ele>1905</ele>
        <time>2014-07-31T09:23:45.090Z</time>
      </trkpt>
      <trkpt lat="44.91659" lon="6.81288">
        <ele>1905</ele>
        <time>2014-07-31T09:23:51.150Z</time>
      </trkpt>
      <trkpt lat="44.91657" lon="6.81288">
        <ele>1905</ele>
        <time>2014-07-31T09:23:52.190Z</time>
      </trkpt>
      <trkpt lat="44.91655" lon="6.81289">
        <ele>1905</ele>
        <time>2014-07-31T09:23:53.190Z</time>
      </trkpt>
      <trkpt lat="44.91652" lon="6.81289">
        <ele>1905</ele>
        <time>2014-07-31T09:23:54.190Z</time>
      </trkpt>
      <trkpt lat="44.9165" lon="6.8129">
        <ele>1905.6</ele>
        <time>2014-07-31T09:23:55.190Z</time>
      </trkpt>
      <trkpt lat="44.91649" lon="6.8129">
        <ele>1906</ele>
        <time>2014-07-31T09:23:56.190Z</time>
      </trkpt>
      <trkpt lat="44.91648" lon="6.81289">
        <ele>1906</ele>
        <time>2014-07-31T09:23:57.280Z</time>
      </trkpt>
      <trkpt lat="44.91647" lon="6.81288">
        <ele>1906</ele>
        <time>2014-07-31T09:23:59.090Z</time>
      </trkpt>
      <trkpt lat="44.91648" lon="6.81288">
        <ele>1906</ele>
        <time>2014-07-31T09:24:00.150Z</time>
      </trkpt>
      <trkpt lat="44.91648" lon="6.81289">
        <ele>1906</ele>
        <time>2014-07-31T09:24:01.190Z</time>
      </trkpt>
      <trkpt lat="44.91647" lon="6.81289">
        <ele>1906</ele>
        <time>2014-07-31T09:24:06.090Z</time>
      </trkpt>
      <trkpt lat="44.91645" lon="6.8129">
        <ele>1906</ele>
        <time>2014-07-31T09:24:09.180Z</time>
      </trkpt>
      <trkpt lat="44.91646" lon="6.81291">
        <ele>1906</ele>
        <time>2014-07-31T09:24:11.190Z</time>
      </trkpt>
      <trkpt lat="44.91646" lon="6.81293">
        <ele>1906</ele>
        <time>2014-07-31T09:24:13.190Z</time>
      </trkpt>
      <trkpt lat="44.91645" lon="6.81294">
        <ele>1905.4</ele>
        <time>2014-07-31T09:24:15.190Z</time>
      </trkpt>
      <trkpt lat="44.91646" lon="6.81293">
        <ele>1905</ele>
        <time>2014-07-31T09:24:18.190Z</time>
      </trkpt>
      <trkpt lat="44.91644" lon="6.81294">
        <ele>1905</ele>
        <time>2014-07-31T09:24:21.190Z</time>
      </trkpt>
      <trkpt lat="44.91645" lon="6.81295">
        <ele>1905</ele>
        <time>2014-07-31T09:24:26.190Z</time>
      </trkpt>
      <trkpt lat="44.91645" lon="6.81297">
        <ele>1905</ele>
        <time>2014-07-31T09:24:28.190Z</time>
      </trkpt>
      <trkpt lat="44.91644" lon="6.81297">
        <ele>1905</ele>
        <time>2014-07-31T09:24:30.190Z</time>
      </trkpt>
      <trkpt lat="44.91643" lon="6.81298">
        <ele>1905</ele>
        <time>2014-07-31T09:24:35.090Z</time>
      </trkpt>
      <trkpt lat="44.91642" lon="6.81297">
        <ele>1905</ele>
        <time>2014-07-31T09:24:38.090Z</time>
      </trkpt>
      <trkpt lat="44.91643" lon="6.81298">
        <ele>1905</ele>
        <time>2014-07-31T09:24:41.190Z</time>
      </trkpt>
      <trkpt lat="44.91643" lon="6.81297">
        <ele>1905</ele>
        <time>2014-07-31T09:24:44.090Z</time>
      </trkpt>
      <trkpt lat="44.91642" lon="6.81295">
        <ele>1905.5</ele>
        <time>2014-07-31T09:24:45.090Z</time>
      </trkpt>
      <trkpt lat="44.91642" lon="6.81293">
        <ele>1906</ele>
        <time>2014-07-31T09:24:47.090Z</time>
      </trkpt>
      <trkpt lat="44.91643" lon="6.81293">
        <ele>1906</ele>
        <time>2014-07-31T09:24:51.150Z</time>
      </trkpt>
      <trkpt lat="44.91642" lon="6.81294">
        <ele>1906</ele>
        <time>2014-07-31T09:24:59.190Z</time>
      </trkpt>
      <trkpt lat="44.91641" lon="6.81295">
        <ele>1906</ele>
        <time>2014-07-31T09:25:01.090Z</time>
      </trkpt>
      <trkpt lat="44.91639" lon="6.81294">
        <ele>1906</ele>
        <time>2014-07-31T09:25:03.090Z</time>
      </trkpt>
      <trkpt lat="44.91639" lon="6.81294">
        <ele>1906</ele>
        <time>2014-07-31T09:25:07.090Z</time>
      </trkpt>
      <trkpt lat="44.91639" lon="6.81295">
        <ele>1906</ele>
        <time>2014-07-31T09:25:10.090Z</time>
      </trkpt>
      <trkpt lat="44.9164" lon="6.81294">
        <ele>1906</ele>
        <time>2014-07-31T09:25:14.080Z</time>
      </trkpt>
      <trkpt lat="44.91641" lon="6.81294">
        <ele>1906</ele>
        <time>2014-07-31T09:25:17.160Z</time>
      </trkpt>
      <trkpt lat="44.91642" lon="6.81295">
        <ele>1906</ele>
        <time>2014-07-31T09:25:19.190Z</time>
      </trkpt>
      <trkpt lat="44.91643" lon="6.81296">
        <ele>1906</ele>
        <time>2014-07-31T09:25:20.190Z</time>
      </trkpt>
      <trkpt lat="44.91644" lon="6.81297">
        <ele>1906</ele>
        <time>2014-07-31T09:25:21.190Z</time>
      </trkpt>
      <trkpt lat="44.91645" lon="6.81299">
        <ele>1906</ele>
        <time>2014-07-31T09:25:22.190Z</time>
      </trkpt>
      <trkpt lat="44.91646" lon="6.813">
        <ele>1906</ele>
        <time>2014-07-31T09:25:23.190Z</time>
      </trkpt>
      <trkpt lat="44.91645" lon="6.81301">
        <ele>1905.4</ele>
        <time>2014-07-31T09:25:25.200Z</time>
      </trkpt>
      <trkpt lat="44.91644" lon="6.81302">
        <ele>1905</ele>
        <time>2014-07-31T09:25:27.190Z</time>
      </trkpt>
      <trkpt lat="44.91643" lon="6.81301">
        <ele>1905</ele>
        <time>2014-07-31T09:25:28.190Z</time>
      </trkpt>
      <trkpt lat="44.91642" lon="6.81298">
        <ele>1905</ele>
        <time>2014-07-31T09:25:31.090Z</time>
      </trkpt>
      <trkpt lat="44.91643" lon="6.81297">
        <ele>1905</ele>
        <time>2014-07-31T09:25:36.190Z</time>
      </trkpt>
      <trkpt lat="44.91643" lon="6.81295">
        <ele>1905</ele>
        <time>2014-07-31T09:25:38.190Z</time>
      </trkpt>
      <trkpt lat="44.91644" lon="6.81293">
        <ele>1905</ele>
        <time>2014-07-31T09:25:41.280Z</time>
      </trkpt>
      <trkpt lat="44.91645" lon="6.81291">
        <ele>1905</ele>
        <time>2014-07-31T09:25:42.190Z</time>
      </trkpt>
      <trkpt lat="44.91646" lon="6.8129">
        <ele>1905</ele>
        <time>2014-07-31T09:25:43.190Z</time>
      </trkpt>
      <trkpt lat="44.91647" lon="6.81289">
        <ele>1905</ele>
        <time>2014-07-31T09:25:45.190Z</time>
      </trkpt>
      <trkpt lat="44.91648" lon="6.81288">
        <ele>1905</ele>
        <time>2014-07-31T09:25:48.090Z</time>
      </trkpt>
      <trkpt lat="44.9165" lon="6.81287">
        <ele>1905</ele>
        <time>2014-07-31T09:25:51.150Z</time>
      </trkpt>
      <trkpt lat="44.91652" lon="6.81285">
        <ele>1905</ele>
        <time>2014-07-31T09:25:52.190Z</time>
      </trkpt>
      <trkpt lat="44.91655" lon="6.81281">
        <ele>1905</ele>
        <time>2014-07-31T09:25:54.080Z</time>
      </trkpt>
      <trkpt lat="44.91657" lon="6.81279">
        <ele>1903.4</ele>
        <time>2014-07-31T09:25:55.090Z</time>
      </trkpt>
      <trkpt lat="44.9166" lon="6.81278">
        <ele>1902</ele>
        <time>2014-07-31T09:25:56.090Z</time>
      </trkpt>
      <trkpt lat="44.91663" lon="6.81278">
        <ele>1902</ele>
        <time>2014-07-31T09:25:57.090Z</time>
      </trkpt>
      <trkpt lat="44.91668" lon="6.81279">
        <ele>1902</ele>
        <time>2014-07-31T09:25:58.090Z</time>
      </trkpt>
      <trkpt lat="44.91671" lon="6.81279">
        <ele>1902</ele>
        <time>2014-07-31T09:25:59.090Z</time>
      </trkpt>
      <trkpt lat="44.91675" lon="6.81277">
        <ele>1899.1</ele>
        <time>2014-07-31T09:26:00.150Z</time>
      </trkpt>
      <trkpt lat="44.91681" lon="6.81275">
        <ele>1897</ele>
        <time>2014-07-31T09:26:01.190Z</time>
      </trkpt>
      <trkpt lat="44.91687" lon="6.81272">
        <ele>1897</ele>
        <time>2014-07-31T09:26:02.190Z</time>
      </trkpt>
      <trkpt lat="44.917" lon="6.81267">
        <ele>1897</ele>
        <time>2014-07-31T09:26:04.160Z</time>
      </trkpt>
      <trkpt lat="44.91707" lon="6.81264">
        <ele>1892.7</ele>
        <time>2014-07-31T09:26:05.190Z</time>
      </trkpt>
      <trkpt lat="44.91714" lon="6.81261">
        <ele>1888.1</ele>
        <time>2014-07-31T09:26:06.190Z</time>
      </trkpt>
      <trkpt lat="44.91722" lon="6.81259">
        <ele>1886.4</ele>
        <time>2014-07-31T09:26:07.190Z</time>
      </trkpt>
      <trkpt lat="44.91728" lon="6.81256">
        <ele>1885.4</ele>
        <time>2014-07-31T09:26:08.190Z</time>
      </trkpt>
      <trkpt lat="44.91734" lon="6.81254">
        <ele>1884.4</ele>
        <time>2014-07-31T09:26:09.190Z</time>
      </trkpt>
      <trkpt lat="44.91739" lon="6.81251">
        <ele>1883.4</ele>
        <time>2014-07-31T09:26:10.190Z</time>
      </trkpt>
      <trkpt lat="44.91744" lon="6.81249">
        <ele>1883</ele>
        <time>2014-07-31T09:26:11.190Z</time>
      </trkpt>
      <trkpt lat="44.91748" lon="6.81247">
        <ele>1883</ele>
        <time>2014-07-31T09:26:12.200Z</time>
      </trkpt>
      <trkpt lat="44.91752" lon="6.81246">
        <ele>1883</ele>
        <time>2014-07-31T09:26:13.190Z</time>
      </trkpt>
      <trkpt lat="44.91756" lon="6.81245">
        <ele>1883</ele>
        <time>2014-07-31T09:26:15.090Z</time>
      </trkpt>
      <trkpt lat="44.91758" lon="6.81245">
        <ele>1883</ele>
        <time>2014-07-31T09:26:16.090Z</time>
      </trkpt>
      <trkpt lat="44.9176" lon="6.81244">
        <ele>1882.4</ele>
        <time>2014-07-31T09:26:17.150Z</time>
      </trkpt>
      <trkpt lat="44.91764" lon="6.81241">
        <ele>1882</ele>
        <time>2014-07-31T09:26:18.190Z</time>
      </trkpt>
      <trkpt lat="44.91768" lon="6.81239">
        <ele>1882</ele>
        <time>2014-07-31T09:26:19.190Z</time>
      </trkpt>
      <trkpt lat="44.91772" lon="6.81236">
        <ele>1881.4</ele>
        <time>2014-07-31T09:26:20.190Z</time>
      </trkpt>
      <trkpt lat="44.91781" lon="6.81229">
        <ele>1880</ele>
        <time>2014-07-31T09:26:22.090Z</time>
      </trkpt>
      <trkpt lat="44.91786" lon="6.81226">
        <ele>1880</ele>
        <time>2014-07-31T09:26:23.090Z</time>
      </trkpt>
      <trkpt lat="44.91792" lon="6.81224">
        <ele>1879.5</ele>
        <time>2014-07-31T09:26:24.090Z</time>
      </trkpt>
      <trkpt lat="44.91797" lon="6.81223">
        <ele>1879</ele>
        <time>2014-07-31T09:26:25.090Z</time>
      </trkpt>
      <trkpt lat="44.91802" lon="6.81223">
        <ele>1879</ele>
        <time>2014-07-31T09:26:26.090Z</time>
      </trkpt>
      <trkpt lat="44.91808" lon="6.81223">
        <ele>1879</ele>
        <time>2014-07-31T09:26:27.080Z</time>
      </trkpt>
      <trkpt lat="44.91813" lon="6.81221">
        <ele>1879</ele>
        <time>2014-07-31T09:26:28.190Z</time>
      </trkpt>
      <trkpt lat="44.91818" lon="6.8122">
        <ele>1879</ele>
        <time>2014-07-31T09:26:29.190Z</time>
      </trkpt>
      <trkpt lat="44.91822" lon="6.81218">
        <ele>1877.8</ele>
        <time>2014-07-31T09:26:30.190Z</time>
      </trkpt>
      <trkpt lat="44.91826" lon="6.81217">
        <ele>1877</ele>
        <time>2014-07-31T09:26:31.190Z</time>
      </trkpt>
      <trkpt lat="44.9183" lon="6.81214">
        <ele>1877</ele>
        <time>2014-07-31T09:26:32.190Z</time>
      </trkpt>
      <trkpt lat="44.91833" lon="6.8121">
        <ele>1877</ele>
        <time>2014-07-31T09:26:33.190Z</time>
      </trkpt>
      <trkpt lat="44.91837" lon="6.81202">
        <ele>1874.9</ele>
        <time>2014-07-31T09:26:35.090Z</time>
      </trkpt>
      <trkpt lat="44.91839" lon="6.81199">
        <ele>1871.4</ele>
        <time>2014-07-31T09:26:36.090Z</time>
      </trkpt>
      <trkpt lat="44.91841" lon="6.81197">
        <ele>1869</ele>
        <time>2014-07-31T09:26:37.090Z</time>
      </trkpt>
      <trkpt lat="44.91844" lon="6.81194">
        <ele>1866.8</ele>
        <time>2014-07-31T09:26:38.160Z</time>
      </trkpt>
      <trkpt lat="44.91849" lon="6.81185">
        <ele>1864.5</ele>
        <time>2014-07-31T09:26:40.090Z</time>
      </trkpt>
      <trkpt lat="44.91852" lon="6.81182">
        <ele>1863.5</ele>
        <time>2014-07-31T09:26:41.090Z</time>
      </trkpt>
      <trkpt lat="44.91854" lon="6.81178">
        <ele>1862.5</ele>
        <time>2014-07-31T09:26:42.090Z</time>
      </trkpt>
      <trkpt lat="44.91857" lon="6.81174">
        <ele>1861.5</ele>
        <time>2014-07-31T09:26:43.090Z</time>
      </trkpt>
      <trkpt lat="44.9186" lon="6.81171">
        <ele>1860.5</ele>
        <time>2014-07-31T09:26:44.090Z</time>
      </trkpt>
      <trkpt lat="44.91864" lon="6.81167">
        <ele>1859</ele>
        <time>2014-07-31T09:26:45.090Z</time>
      </trkpt>
      <trkpt lat="44.91868" lon="6.81163">
        <ele>1857.5</ele>
        <time>2014-07-31T09:26:46.090Z</time>
      </trkpt>
      <trkpt lat="44.91871" lon="6.81159">
        <ele>1856.5</ele>
        <time>2014-07-31T09:26:47.090Z</time>
      </trkpt>
      <trkpt lat="44.91875" lon="6.81156">
        <ele>1855.5</ele>
        <time>2014-07-31T09:26:48.090Z</time>
      </trkpt>
      <trkpt lat="44.91879" lon="6.81154">
        <ele>1854.5</ele>
        <time>2014-07-31T09:26:49.090Z</time>
      </trkpt>
      <trkpt lat="44.91882" lon="6.81153">
        <ele>1854</ele>
        <time>2014-07-31T09:26:50.080Z</time>
      </trkpt>
      <trkpt lat="44.91884" lon="6.81151">
        <ele>1853.4</ele>
        <time>2014-07-31T09:26:51.150Z</time>
      </trkpt>
      <trkpt lat="44.91886" lon="6.81149">
        <ele>1853</ele>
        <time>2014-07-31T09:26:52.190Z</time>
      </trkpt>
      <trkpt lat="44.91887" lon="6.81149">
        <ele>1853</ele>
        <time>2014-07-31T09:26:53.190Z</time>
      </trkpt>
      <trkpt lat="44.91887" lon="6.81148">
        <ele>1853</ele>
        <time>2014-07-31T09:26:54.190Z</time>
      </trkpt>
      <trkpt lat="44.91887" lon="6.81144">
        <ele>1853</ele>
        <time>2014-07-31T09:26:56.090Z</time>
      </trkpt>
      <trkpt lat="44.91887" lon="6.81145">
        <ele>1853</ele>
        <time>2014-07-31T09:27:00.150Z</time>
      </trkpt>
      <trkpt lat="44.91889" lon="6.81145">
        <ele>1853</ele>
        <time>2014-07-31T09:27:02.090Z</time>
      </trkpt>
      <trkpt lat="44.91889" lon="6.81143">
        <ele>1853</ele>
        <time>2014-07-31T09:27:05.090Z</time>
      </trkpt>
      <trkpt lat="44.9189" lon="6.81143">
        <ele>1853</ele>
        <time>2014-07-31T09:27:06.090Z</time>
      </trkpt>
      <trkpt lat="44.9189" lon="6.81141">
        <ele>1853</ele>
        <time>2014-07-31T09:27:09.090Z</time>
      </trkpt>
      <trkpt lat="44.91891" lon="6.81141">
        <ele>1853</ele>
        <time>2014-07-31T09:27:10.090Z</time>
      </trkpt>
      <trkpt lat="44.91892" lon="6.81139">
        <ele>1853</ele>
        <time>2014-07-31T09:27:11.090Z</time>
      </trkpt>
      <trkpt lat="44.91892" lon="6.81137">
        <ele>1853</ele>
        <time>2014-07-31T09:27:12.160Z</time>
      </trkpt>
      <trkpt lat="44.91892" lon="6.81131">
        <ele>1853</ele>
        <time>2014-07-31T09:27:14.090Z</time>
      </trkpt>
      <trkpt lat="44.91892" lon="6.81127">
        <ele>1852</ele>
        <time>2014-07-31T09:27:15.090Z</time>
      </trkpt>
      <trkpt lat="44.91893" lon="6.81125">
        <ele>1851</ele>
        <time>2014-07-31T09:27:16.090Z</time>
      </trkpt>
      <trkpt lat="44.91894" lon="6.81126">
        <ele>1851</ele>
        <time>2014-07-31T09:27:18.190Z</time>
      </trkpt>
      <trkpt lat="44.91896" lon="6.81128">
        <ele>1851</ele>
        <time>2014-07-31T09:27:19.190Z</time>
      </trkpt>
      <trkpt lat="44.91899" lon="6.81131">
        <ele>1851</ele>
        <time>2014-07-31T09:27:20.190Z</time>
      </trkpt>
      <trkpt lat="44.91901" lon="6.81133">
        <ele>1851</ele>
        <time>2014-07-31T09:27:21.190Z</time>
      </trkpt>
      <trkpt lat="44.91903" lon="6.81133">
        <ele>1851</ele>
        <time>2014-07-31T09:27:22.190Z</time>
      </trkpt>
      <trkpt lat="44.91905" lon="6.81131">
        <ele>1851</ele>
        <time>2014-07-31T09:27:23.190Z</time>
      </trkpt>
      <trkpt lat="44.91904" lon="6.81129">
        <ele>1851</ele>
        <time>2014-07-31T09:27:24.190Z</time>
      </trkpt>
      <trkpt lat="44.91905" lon="6.81128">
        <ele>1847.9</ele>
        <time>2014-07-31T09:27:25.190Z</time>
      </trkpt>
      <trkpt lat="44.91904" lon="6.81126">
        <ele>1846</ele>
        <time>2014-07-31T09:27:26.180Z</time>
      </trkpt>
      <trkpt lat="44.91903" lon="6.81125">
        <ele>1846</ele>
        <time>2014-07-31T09:27:27.190Z</time>
      </trkpt>
      <trkpt lat="44.91904" lon="6.81123">
        <ele>1843</ele>
        <time>2014-07-31T09:27:31.090Z</time>
      </trkpt>
      <trkpt lat="44.91906" lon="6.81123">
        <ele>1843</ele>
        <time>2014-07-31T09:27:33.190Z</time>
      </trkpt>
      <trkpt lat="44.9191" lon="6.81127">
        <ele>1842</ele>
        <time>2014-07-31T09:27:35.090Z</time>
      </trkpt>
      <trkpt lat="44.91912" lon="6.81131">
        <ele>1841</ele>
        <time>2014-07-31T09:27:36.090Z</time>
      </trkpt>
      <trkpt lat="44.91914" lon="6.81136">
        <ele>1841</ele>
        <time>2014-07-31T09:27:37.090Z</time>
      </trkpt>
      <trkpt lat="44.91916" lon="6.8114">
        <ele>1841</ele>
        <time>2014-07-31T09:27:38.180Z</time>
      </trkpt>
      <trkpt lat="44.91917" lon="6.81143">
        <ele>1841</ele>
        <time>2014-07-31T09:27:39.190Z</time>
      </trkpt>
      <trkpt lat="44.91918" lon="6.81146">
        <ele>1839.1</ele>
        <time>2014-07-31T09:27:40.190Z</time>
      </trkpt>
      <trkpt lat="44.9192" lon="6.81149">
        <ele>1838</ele>
        <time>2014-07-31T09:27:41.190Z</time>
      </trkpt>
      <trkpt lat="44.91924" lon="6.81148">
        <ele>1838</ele>
        <time>2014-07-31T09:27:44.090Z</time>
      </trkpt>
      <trkpt lat="44.91924" lon="6.81147">
        <ele>1836.4</ele>
        <time>2014-07-31T09:27:45.090Z</time>
      </trkpt>
      <trkpt lat="44.91924" lon="6.81145">
        <ele>1834.4</ele>
        <time>2014-07-31T09:27:46.160Z</time>
      </trkpt>
      <trkpt lat="44.91924" lon="6.81144">
        <ele>1833.4</ele>
        <time>2014-07-31T09:27:48.190Z</time>
      </trkpt>
      <trkpt lat="44.91925" lon="6.81144">
        <ele>1833</ele>
        <time>2014-07-31T09:27:49.190Z</time>
      </trkpt>
      <trkpt lat="44.91926" lon="6.81146">
        <ele>1833.5</ele>
        <time>2014-07-31T09:27:52.090Z</time>
      </trkpt>
      <trkpt lat="44.91926" lon="6.81148">
        <ele>1833.5</ele>
        <time>2014-07-31T09:27:53.090Z</time>
      </trkpt>
      <trkpt lat="44.91926" lon="6.8115">
        <ele>1833</ele>
        <time>2014-07-31T09:27:54.090Z</time>
      </trkpt>
      <trkpt lat="44.91927" lon="6.81154">
        <ele>1833</ele>
        <time>2014-07-31T09:27:55.090Z</time>
      </trkpt>
      <trkpt lat="44.91929" lon="6.81156">
        <ele>1833</ele>
        <time>2014-07-31T09:27:56.090Z</time>
      </trkpt>
      <trkpt lat="44.91929" lon="6.81159">
        <ele>1833</ele>
        <time>2014-07-31T09:27:57.090Z</time>
      </trkpt>
      <trkpt lat="44.9193" lon="6.8116">
        <ele>1833</ele>
        <time>2014-07-31T09:27:58.090Z</time>
      </trkpt>
      <trkpt lat="44.91931" lon="6.81161">
        <ele>1833</ele>
        <time>2014-07-31T09:28:00.150Z</time>
      </trkpt>
      <trkpt lat="44.91932" lon="6.8116">
        <ele>1833</ele>
        <time>2014-07-31T09:28:02.190Z</time>
      </trkpt>
      <trkpt lat="44.91931" lon="6.81157">
        <ele>1833</ele>
        <time>2014-07-31T09:28:04.090Z</time>
      </trkpt>
      <trkpt lat="44.91931" lon="6.81154">
        <ele>1832</ele>
        <time>2014-07-31T09:28:05.090Z</time>
      </trkpt>
      <trkpt lat="44.91931" lon="6.81151">
        <ele>1831</ele>
        <time>2014-07-31T09:28:06.090Z</time>
      </trkpt>
      <trkpt lat="44.91931" lon="6.81148">
        <ele>1831</ele>
        <time>2014-07-31T09:28:07.090Z</time>
      </trkpt>
      <trkpt lat="44.91931" lon="6.81145">
        <ele>1831</ele>
        <time>2014-07-31T09:28:08.090Z</time>
      </trkpt>
      <trkpt lat="44.9193" lon="6.81143">
        <ele>1831</ele>
        <time>2014-07-31T09:28:09.090Z</time>
      </trkpt>
      <trkpt lat="44.9193" lon="6.81142">
        <ele>1831</ele>
        <time>2014-07-31T09:28:10.090Z</time>
      </trkpt>
      <trkpt lat="44.91931" lon="6.81141">
        <ele>1831</ele>
        <time>2014-07-31T09:28:12.180Z</time>
      </trkpt>
      <trkpt lat="44.91933" lon="6.81141">
        <ele>1831</ele>
        <time>2014-07-31T09:28:13.090Z</time>
      </trkpt>
      <trkpt lat="44.91934" lon="6.8114">
        <ele>1830</ele>
        <time>2014-07-31T09:28:15.090Z</time>
      </trkpt>
      <trkpt lat="44.91937" lon="6.81141">
        <ele>1829</ele>
        <time>2014-07-31T09:28:16.090Z</time>
      </trkpt>
      <trkpt lat="44.91938" lon="6.81141">
        <ele>1829</ele>
        <time>2014-07-31T09:28:17.150Z</time>
      </trkpt>
      <trkpt lat="44.91938" lon="6.81144">
        <ele>1829</ele>
        <time>2014-07-31T09:28:19.190Z</time>
      </trkpt>
      <trkpt lat="44.91939" lon="6.81146">
        <ele>1829</ele>
        <time>2014-07-31T09:28:21.090Z</time>
      </trkpt>
      <trkpt lat="44.91938" lon="6.81148">
        <ele>1829</ele>
        <time>2014-07-31T09:28:22.090Z</time>
      </trkpt>
      <trkpt lat="44.9194" lon="6.81151">
        <ele>1829</ele>
        <time>2014-07-31T09:28:24.090Z</time>
      </trkpt>
      <trkpt lat="44.91941" lon="6.81155">
        <ele>1828.5</ele>
        <time>2014-07-31T09:28:25.080Z</time>
      </trkpt>
      <trkpt lat="44.91941" lon="6.81158">
        <ele>1828</ele>
        <time>2014-07-31T09:28:26.090Z</time>
      </trkpt>
      <trkpt lat="44.91942" lon="6.81162">
        <ele>1828</ele>
        <time>2014-07-31T09:28:27.090Z</time>
      </trkpt>
      <trkpt lat="44.91943" lon="6.81165">
        <ele>1828</ele>
        <time>2014-07-31T09:28:28.190Z</time>
      </trkpt>
      <trkpt lat="44.91943" lon="6.81167">
        <ele>1828</ele>
        <time>2014-07-31T09:28:29.190Z</time>
      </trkpt>
      <trkpt lat="44.91944" lon="6.81165">
        <ele>1828</ele>
        <time>2014-07-31T09:28:31.190Z</time>
      </trkpt>
      <trkpt lat="44.91944" lon="6.81164">
        <ele>1828</ele>
        <time>2014-07-31T09:28:32.190Z</time>
      </trkpt>
      <trkpt lat="44.91944" lon="6.81162">
        <ele>1828</ele>
        <time>2014-07-31T09:28:34.150Z</time>
      </trkpt>
      <trkpt lat="44.91945" lon="6.81162">
        <ele>1825</ele>
        <time>2014-07-31T09:28:36.180Z</time>
      </trkpt>
      <trkpt lat="44.91945" lon="6.8116">
        <ele>1824</ele>
        <time>2014-07-31T09:28:46.190Z</time>
      </trkpt>
      <trkpt lat="44.91945" lon="6.81159">
        <ele>1824</ele>
        <time>2014-07-31T09:28:52.090Z</time>
      </trkpt>
      <trkpt lat="44.91946" lon="6.81157">
        <ele>1824</ele>
        <time>2014-07-31T09:28:53.090Z</time>
      </trkpt>
      <trkpt lat="44.91947" lon="6.81155">
        <ele>1824</ele>
        <time>2014-07-31T09:28:54.160Z</time>
      </trkpt>
      <trkpt lat="44.91948" lon="6.81153">
        <ele>1823.4</ele>
        <time>2014-07-31T09:28:55.190Z</time>
      </trkpt>
      <trkpt lat="44.91948" lon="6.81151">
        <ele>1823</ele>
        <time>2014-07-31T09:28:56.190Z</time>
      </trkpt>
      <trkpt lat="44.91949" lon="6.8115">
        <ele>1823</ele>
        <time>2014-07-31T09:28:57.190Z</time>
      </trkpt>
      <trkpt lat="44.9195" lon="6.81149">
        <ele>1823</ele>
        <time>2014-07-31T09:28:58.190Z</time>
      </trkpt>
      <trkpt lat="44.91951" lon="6.81149">
        <ele>1823</ele>
        <time>2014-07-31T09:28:59.190Z</time>
      </trkpt>
      <trkpt lat="44.91954" lon="6.81149">
        <ele>1823</ele>
        <time>2014-07-31T09:29:01.090Z</time>
      </trkpt>
      <trkpt lat="44.91954" lon="6.81152">
        <ele>1822.5</ele>
        <time>2014-07-31T09:29:05.090Z</time>
      </trkpt>
      <trkpt lat="44.91954" lon="6.81155">
        <ele>1822</ele>
        <time>2014-07-31T09:29:06.090Z</time>
      </trkpt>
      <trkpt lat="44.91955" lon="6.81159">
        <ele>1822</ele>
        <time>2014-07-31T09:29:07.090Z</time>
      </trkpt>
      <trkpt lat="44.91958" lon="6.81164">
        <ele>1822</ele>
        <time>2014-07-31T09:29:08.090Z</time>
      </trkpt>
      <trkpt lat="44.9196" lon="6.81169">
        <ele>1822</ele>
        <time>2014-07-31T09:29:09.090Z</time>
      </trkpt>
      <trkpt lat="44.91961" lon="6.81174">
        <ele>1822</ele>
        <time>2014-07-31T09:29:10.090Z</time>
      </trkpt>
      <trkpt lat="44.91963" lon="6.81178">
        <ele>1822</ele>
        <time>2014-07-31T09:29:11.160Z</time>
      </trkpt>
      <trkpt lat="44.91965" lon="6.81183">
        <ele>1822</ele>
        <time>2014-07-31T09:29:13.090Z</time>
      </trkpt>
      <trkpt lat="44.91966" lon="6.81182">
        <ele>1822</ele>
        <time>2014-07-31T09:29:14.090Z</time>
      </trkpt>
      <trkpt lat="44.91966" lon="6.8118">
        <ele>1819.9</ele>
        <time>2014-07-31T09:29:15.090Z</time>
      </trkpt>
      <trkpt lat="44.91965" lon="6.81177">
        <ele>1818</ele>
        <time>2014-07-31T09:29:16.090Z</time>
      </trkpt>
      <trkpt lat="44.91966" lon="6.81173">
        <ele>1818</ele>
        <time>2014-07-31T09:29:17.090Z</time>
      </trkpt>
      <trkpt lat="44.91966" lon="6.81169">
        <ele>1818</ele>
        <time>2014-07-31T09:29:18.190Z</time>
      </trkpt>
      <trkpt lat="44.91967" lon="6.81168">
        <ele>1818</ele>
        <time>2014-07-31T09:29:19.190Z</time>
      </trkpt>
      <trkpt lat="44.9197" lon="6.8117">
        <ele>1813</ele>
        <time>2014-07-31T09:29:21.190Z</time>
      </trkpt>
      <trkpt lat="44.91973" lon="6.81172">
        <ele>1813</ele>
        <time>2014-07-31T09:29:22.180Z</time>
      </trkpt>
      <trkpt lat="44.91975" lon="6.81172">
        <ele>1813</ele>
        <time>2014-07-31T09:29:24.090Z</time>
      </trkpt>
      <trkpt lat="44.91976" lon="6.81168">
        <ele>1810.9</ele>
        <time>2014-07-31T09:29:25.090Z</time>
      </trkpt>
      <trkpt lat="44.91976" lon="6.81166">
        <ele>1808.5</ele>
        <time>2014-07-31T09:29:26.090Z</time>
      </trkpt>
      <trkpt lat="44.91976" lon="6.81163">
        <ele>1807.5</ele>
        <time>2014-07-31T09:29:27.090Z</time>
      </trkpt>
      <trkpt lat="44.91977" lon="6.81164">
        <ele>1807</ele>
        <time>2014-07-31T09:29:28.160Z</time>
      </trkpt>
      <trkpt lat="44.91978" lon="6.81165">
        <ele>1806</ele>
        <time>2014-07-31T09:29:30.190Z</time>
      </trkpt>
      <trkpt lat="44.9198" lon="6.81168">
        <ele>1806</ele>
        <time>2014-07-31T09:29:31.190Z</time>
      </trkpt>
      <trkpt lat="44.91982" lon="6.81171">
        <ele>1805.4</ele>
        <time>2014-07-31T09:29:32.190Z</time>
      </trkpt>
      <trkpt lat="44.91985" lon="6.81174">
        <ele>1804.4</ele>
        <time>2014-07-31T09:29:33.210Z</time>
      </trkpt>
      <trkpt lat="44.91989" lon="6.81178">
        <ele>1803</ele>
        <time>2014-07-31T09:29:34.050Z</time>
      </trkpt>
      <trkpt lat="44.91992" lon="6.81181">
        <ele>1801.4</ele>
        <time>2014-07-31T09:29:35.190Z</time>
      </trkpt>
      <trkpt lat="44.91996" lon="6.81184">
        <ele>1800.4</ele>
        <time>2014-07-31T09:29:36.190Z</time>
      </trkpt>
      <trkpt lat="44.91998" lon="6.81184">
        <ele>1799.4</ele>
        <time>2014-07-31T09:29:37.190Z</time>
      </trkpt>
      <trkpt lat="44.91998" lon="6.81182">
        <ele>1798.4</ele>
        <time>2014-07-31T09:29:38.190Z</time>
      </trkpt>
      <trkpt lat="44.91999" lon="6.81178">
        <ele>1798</ele>
        <time>2014-07-31T09:29:39.190Z</time>
      </trkpt>
      <trkpt lat="44.92" lon="6.81172">
        <ele>1797.4</ele>
        <time>2014-07-31T09:29:40.190Z</time>
      </trkpt>
      <trkpt lat="44.92001" lon="6.81167">
        <ele>1795.8</ele>
        <time>2014-07-31T09:29:41.190Z</time>
      </trkpt>
      <trkpt lat="44.92002" lon="6.81162">
        <ele>1794.4</ele>
        <time>2014-07-31T09:29:42.190Z</time>
      </trkpt>
      <trkpt lat="44.92003" lon="6.8116">
        <ele>1793.4</ele>
        <time>2014-07-31T09:29:43.190Z</time>
      </trkpt>
      <trkpt lat="44.92004" lon="6.8116">
        <ele>1792.4</ele>
        <time>2014-07-31T09:29:44.190Z</time>
      </trkpt>
      <trkpt lat="44.92009" lon="6.81166">
        <ele>1790.5</ele>
        <time>2014-07-31T09:29:46.090Z</time>
      </trkpt>
      <trkpt lat="44.92013" lon="6.8117">
        <ele>1788.3</ele>
        <time>2014-07-31T09:29:48.280Z</time>
      </trkpt>
      <trkpt lat="44.92015" lon="6.8117">
        <ele>1787.4</ele>
        <time>2014-07-31T09:29:49.190Z</time>
      </trkpt>
      <trkpt lat="44.92016" lon="6.81169">
        <ele>1786.4</ele>
        <time>2014-07-31T09:29:50.190Z</time>
      </trkpt>
      <trkpt lat="44.92018" lon="6.81162">
        <ele>1785.5</ele>
        <time>2014-07-31T09:29:52.090Z</time>
      </trkpt>
      <trkpt lat="44.92017" lon="6.81157">
        <ele>1784.5</ele>
        <time>2014-07-31T09:29:53.090Z</time>
      </trkpt>
      <trkpt lat="44.92018" lon="6.81153">
        <ele>1783</ele>
        <time>2014-07-31T09:29:54.090Z</time>
      </trkpt>
      <trkpt lat="44.92017" lon="6.81148">
        <ele>1781.5</ele>
        <time>2014-07-31T09:29:55.090Z</time>
      </trkpt>
      <trkpt lat="44.92017" lon="6.81142">
        <ele>1780.5</ele>
        <time>2014-07-31T09:29:56.090Z</time>
      </trkpt>
      <trkpt lat="44.92016" lon="6.81137">
        <ele>1779.5</ele>
        <time>2014-07-31T09:29:57.090Z</time>
      </trkpt>
      <trkpt lat="44.92014" lon="6.81127">
        <ele>1777.5</ele>
        <time>2014-07-31T09:29:59.090Z</time>
      </trkpt>
      <trkpt lat="44.92013" lon="6.81121">
        <ele>1777</ele>
        <time>2014-07-31T09:30:00.150Z</time>
      </trkpt>
      <trkpt lat="44.92011" lon="6.81113">
        <ele>1775.8</ele>
        <time>2014-07-31T09:30:01.190Z</time>
      </trkpt>
      <trkpt lat="44.92006" lon="6.81104">
        <ele>1773.4</ele>
        <time>2014-07-31T09:30:03.190Z</time>
      </trkpt>
      <trkpt lat="44.92005" lon="6.81102">
        <ele>1773</ele>
        <time>2014-07-31T09:30:04.190Z</time>
      </trkpt>
      <trkpt lat="44.92004" lon="6.81101">
        <ele>1773</ele>
        <time>2014-07-31T09:30:05.190Z</time>
      </trkpt>
      <trkpt lat="44.92005" lon="6.81101">
        <ele>1772.5</ele>
        <time>2014-07-31T09:30:07.090Z</time>
      </trkpt>
      <trkpt lat="44.92008" lon="6.81103">
        <ele>1772</ele>
        <time>2014-07-31T09:30:08.090Z</time>
      </trkpt>
      <trkpt lat="44.9201" lon="6.81106">
        <ele>1771.5</ele>
        <time>2014-07-31T09:30:09.090Z</time>
      </trkpt>
      <trkpt lat="44.92012" lon="6.81108">
        <ele>1770.5</ele>
        <time>2014-07-31T09:30:10.090Z</time>
      </trkpt>
      <trkpt lat="44.92014" lon="6.81109">
        <ele>1769.5</ele>
        <time>2014-07-31T09:30:11.090Z</time>
      </trkpt>
      <trkpt lat="44.92016" lon="6.8111">
        <ele>1769</ele>
        <time>2014-07-31T09:30:12.090Z</time>
      </trkpt>
      <trkpt lat="44.92018" lon="6.81108">
        <ele>1768.5</ele>
        <time>2014-07-31T09:30:13.090Z</time>
      </trkpt>
      <trkpt lat="44.9202" lon="6.81105">
        <ele>1768</ele>
        <time>2014-07-31T09:30:14.090Z</time>
      </trkpt>
      <trkpt lat="44.9202" lon="6.81104">
        <ele>1768</ele>
        <time>2014-07-31T09:30:15.090Z</time>
      </trkpt>
      <trkpt lat="44.9202" lon="6.81103">
        <ele>1768</ele>
        <time>2014-07-31T09:30:16.090Z</time>
      </trkpt>
      <trkpt lat="44.9202" lon="6.811">
        <ele>1768</ele>
        <time>2014-07-31T09:30:16.890Z</time>
      </trkpt>
      <trkpt lat="44.92019" lon="6.81098">
        <ele>1768</ele>
        <time>2014-07-31T09:30:18.090Z</time>
      </trkpt>
      <trkpt lat="44.92018" lon="6.81096">
        <ele>1768</ele>
        <time>2014-07-31T09:30:19.160Z</time>
      </trkpt>
      <trkpt lat="44.92017" lon="6.81094">
        <ele>1767.4</ele>
        <time>2014-07-31T09:30:20.190Z</time>
      </trkpt>
      <trkpt lat="44.92015" lon="6.81092">
        <ele>1767</ele>
        <time>2014-07-31T09:30:21.190Z</time>
      </trkpt>
      <trkpt lat="44.92014" lon="6.8109">
        <ele>1767</ele>
        <time>2014-07-31T09:30:22.190Z</time>
      </trkpt>
      <trkpt lat="44.92014" lon="6.81087">
        <ele>1767</ele>
        <time>2014-07-31T09:30:23.190Z</time>
      </trkpt>
      <trkpt lat="44.92015" lon="6.81088">
        <ele>1766</ele>
        <time>2014-07-31T09:30:27.220Z</time>
      </trkpt>
      <trkpt lat="44.92017" lon="6.81091">
        <ele>1766</ele>
        <time>2014-07-31T09:30:29.090Z</time>
      </trkpt>
      <trkpt lat="44.92019" lon="6.81092">
        <ele>1766</ele>
        <time>2014-07-31T09:30:30.090Z</time>
      </trkpt>
      <trkpt lat="44.9202" lon="6.81094">
        <ele>1766</ele>
        <time>2014-07-31T09:30:31.090Z</time>
      </trkpt>
      <trkpt lat="44.92022" lon="6.81094">
        <ele>1766</ele>
        <time>2014-07-31T09:30:32.090Z</time>
      </trkpt>
      <trkpt lat="44.92024" lon="6.81093">
        <ele>1766</ele>
        <time>2014-07-31T09:30:33.090Z</time>
      </trkpt>
      <trkpt lat="44.92026" lon="6.81091">
        <ele>1766</ele>
        <time>2014-07-31T09:30:34.150Z</time>
      </trkpt>
      <trkpt lat="44.92027" lon="6.81089">
        <ele>1761.7</ele>
        <time>2014-07-31T09:30:35.190Z</time>
      </trkpt>
      <trkpt lat="44.92028" lon="6.81084">
        <ele>1755</ele>
        <time>2014-07-31T09:30:37.090Z</time>
      </trkpt>
      <trkpt lat="44.92028" lon="6.81082">
        <ele>1754.5</ele>
        <time>2014-07-31T09:30:38.090Z</time>
      </trkpt>
      <trkpt lat="44.92026" lon="6.81079">
        <ele>1753.5</ele>
        <time>2014-07-31T09:30:39.090Z</time>
      </trkpt>
      <trkpt lat="44.92025" lon="6.81076">
        <ele>1753</ele>
        <time>2014-07-31T09:30:40.080Z</time>
      </trkpt>
      <trkpt lat="44.92026" lon="6.81073">
        <ele>1752.5</ele>
        <time>2014-07-31T09:30:41.090Z</time>
      </trkpt>
      <trkpt lat="44.92027" lon="6.81072">
        <ele>1751.5</ele>
        <time>2014-07-31T09:30:42.090Z</time>
      </trkpt>
      <trkpt lat="44.92027" lon="6.81071">
        <ele>1750.5</ele>
        <time>2014-07-31T09:30:44.090Z</time>
      </trkpt>
      <trkpt lat="44.92026" lon="6.8107">
        <ele>1748</ele>
        <time>2014-07-31T09:30:46.090Z</time>
      </trkpt>
      <trkpt lat="44.92027" lon="6.81069">
        <ele>1745.5</ele>
        <time>2014-07-31T09:30:48.090Z</time>
      </trkpt>
      <trkpt lat="44.92028" lon="6.81065">
        <ele>1745</ele>
        <time>2014-07-31T09:30:49.090Z</time>
      </trkpt>
      <trkpt lat="44.92028" lon="6.81063">
        <ele>1745.5</ele>
        <time>2014-07-31T09:30:50.090Z</time>
      </trkpt>
      <trkpt lat="44.92028" lon="6.81061">
        <ele>1746</ele>
        <time>2014-07-31T09:30:51.150Z</time>
      </trkpt>
      <trkpt lat="44.92023" lon="6.81053">
        <ele>1745</ele>
        <time>2014-07-31T09:30:53.060Z</time>
      </trkpt>
      <trkpt lat="44.92021" lon="6.8105">
        <ele>1745</ele>
        <time>2014-07-31T09:30:54.090Z</time>
      </trkpt>
      <trkpt lat="44.92019" lon="6.81047">
        <ele>1745</ele>
        <time>2014-07-31T09:30:55.090Z</time>
      </trkpt>
      <trkpt lat="44.92017" lon="6.81043">
        <ele>1745</ele>
        <time>2014-07-31T09:30:56.090Z</time>
      </trkpt>
      <trkpt lat="44.92015" lon="6.8104">
        <ele>1745</ele>
        <time>2014-07-31T09:30:57.090Z</time>
      </trkpt>
      <trkpt lat="44.92014" lon="6.81037">
        <ele>1745</ele>
        <time>2014-07-31T09:30:58.190Z</time>
      </trkpt>
      <trkpt lat="44.92014" lon="6.81033">
        <ele>1745</ele>
        <time>2014-07-31T09:30:59.190Z</time>
      </trkpt>
      <trkpt lat="44.92014" lon="6.81033">
        <ele>1742</ele>
        <time>2014-07-31T09:31:01.090Z</time>
      </trkpt>
      <trkpt lat="44.92015" lon="6.81035">
        <ele>1742</ele>
        <time>2014-07-31T09:31:02.190Z</time>
      </trkpt>
      <trkpt lat="44.92016" lon="6.8104">
        <ele>1742</ele>
        <time>2014-07-31T09:31:04.090Z</time>
      </trkpt>
      <trkpt lat="44.92017" lon="6.81041">
        <ele>1741</ele>
        <time>2014-07-31T09:31:05.090Z</time>
      </trkpt>
      <trkpt lat="44.92019" lon="6.81043">
        <ele>1740</ele>
        <time>2014-07-31T09:31:06.180Z</time>
      </trkpt>
      <trkpt lat="44.92021" lon="6.81044">
        <ele>1740</ele>
        <time>2014-07-31T09:31:07.090Z</time>
      </trkpt>
      <trkpt lat="44.92024" lon="6.81046">
        <ele>1740</ele>
        <time>2014-07-31T09:31:08.190Z</time>
      </trkpt>
      <trkpt lat="44.92026" lon="6.81048">
        <ele>1740</ele>
        <time>2014-07-31T09:31:09.190Z</time>
      </trkpt>
      <trkpt lat="44.92029" lon="6.81047">
        <ele>1736</ele>
        <time>2014-07-31T09:31:11.090Z</time>
      </trkpt>
      <trkpt lat="44.9203" lon="6.81044">
        <ele>1736</ele>
        <time>2014-07-31T09:31:12.080Z</time>
      </trkpt>
      <trkpt lat="44.9203" lon="6.8104">
        <ele>1736</ele>
        <time>2014-07-31T09:31:13.090Z</time>
      </trkpt>
      <trkpt lat="44.92029" lon="6.81037">
        <ele>1736</ele>
        <time>2014-07-31T09:31:14.090Z</time>
      </trkpt>
      <trkpt lat="44.92027" lon="6.81035">
        <ele>1735</ele>
        <time>2014-07-31T09:31:15.090Z</time>
      </trkpt>
      <trkpt lat="44.92026" lon="6.81032">
        <ele>1733.5</ele>
        <time>2014-07-31T09:31:16.090Z</time>
      </trkpt>
      <trkpt lat="44.92024" lon="6.81029">
        <ele>1732.4</ele>
        <time>2014-07-31T09:31:17.150Z</time>
      </trkpt>
      <trkpt lat="44.92023" lon="6.81026">
        <ele>1731.4</ele>
        <time>2014-07-31T09:31:18.190Z</time>
      </trkpt>
      <trkpt lat="44.92023" lon="6.81024">
        <ele>1731</ele>
        <time>2014-07-31T09:31:19.190Z</time>
      </trkpt>
      <trkpt lat="44.92024" lon="6.81023">
        <ele>1731</ele>
        <time>2014-07-31T09:31:20.190Z</time>
      </trkpt>
      <trkpt lat="44.92026" lon="6.81023">
        <ele>1731</ele>
        <time>2014-07-31T09:31:21.190Z</time>
      </trkpt>
      <trkpt lat="44.92028" lon="6.81025">
        <ele>1730.4</ele>
        <time>2014-07-31T09:31:22.190Z</time>
      </trkpt>
      <trkpt lat="44.92032" lon="6.81027">
        <ele>1728.5</ele>
        <time>2014-07-31T09:31:24.090Z</time>
      </trkpt>
      <trkpt lat="44.92034" lon="6.81028">
        <ele>1727.5</ele>
        <time>2014-07-31T09:31:25.090Z</time>
      </trkpt>
      <trkpt lat="44.92037" lon="6.8103">
        <ele>1725.4</ele>
        <time>2014-07-31T09:31:26.090Z</time>
      </trkpt>
      <trkpt lat="44.92042" lon="6.81033">
        <ele>1723.4</ele>
        <time>2014-07-31T09:31:27.160Z</time>
      </trkpt>
      <trkpt lat="44.92046" lon="6.81035">
        <ele>1722.4</ele>
        <time>2014-07-31T09:31:28.190Z</time>
      </trkpt>
      <trkpt lat="44.92051" lon="6.81039">
        <ele>1721.4</ele>
        <time>2014-07-31T09:31:29.190Z</time>
      </trkpt>
      <trkpt lat="44.92054" lon="6.81042">
        <ele>1719.8</ele>
        <time>2014-07-31T09:31:30.190Z</time>
      </trkpt>
      <trkpt lat="44.92058" lon="6.81045">
        <ele>1717.8</ele>
        <time>2014-07-31T09:31:31.190Z</time>
      </trkpt>
      <trkpt lat="44.92063" lon="6.81048">
        <ele>1716.4</ele>
        <time>2014-07-31T09:31:32.190Z</time>
      </trkpt>
      <trkpt lat="44.92068" lon="6.81051">
        <ele>1714.8</ele>
        <time>2014-07-31T09:31:33.190Z</time>
      </trkpt>
      <trkpt lat="44.92076" lon="6.8106">
        <ele>1712.5</ele>
        <time>2014-07-31T09:31:35.090Z</time>
      </trkpt>
      <trkpt lat="44.92079" lon="6.81063">
        <ele>1712</ele>
        <time>2014-07-31T09:31:36.090Z</time>
      </trkpt>
      <trkpt lat="44.92082" lon="6.81065">
        <ele>1711.5</ele>
        <time>2014-07-31T09:31:37.090Z</time>
      </trkpt>
      <trkpt lat="44.92085" lon="6.81067">
        <ele>1711</ele>
        <time>2014-07-31T09:31:38.090Z</time>
      </trkpt>
      <trkpt lat="44.92087" lon="6.81067">
        <ele>1710.5</ele>
        <time>2014-07-31T09:31:39.090Z</time>
      </trkpt>
      <trkpt lat="44.92091" lon="6.81064">
        <ele>1709.5</ele>
        <time>2014-07-31T09:31:40.090Z</time>
      </trkpt>
      <trkpt lat="44.92093" lon="6.81063">
        <ele>1709</ele>
        <time>2014-07-31T09:31:41.090Z</time>
      </trkpt>
      <trkpt lat="44.92094" lon="6.81062">
        <ele>1709</ele>
        <time>2014-07-31T09:31:42.090Z</time>
      </trkpt>
      <trkpt lat="44.92093" lon="6.8106">
        <ele>1709</ele>
        <time>2014-07-31T09:31:43.090Z</time>
      </trkpt>
      <trkpt lat="44.92094" lon="6.81058">
        <ele>1709</ele>
        <time>2014-07-31T09:31:43.960Z</time>
      </trkpt>
      <trkpt lat="44.92093" lon="6.81056">
        <ele>1708.5</ele>
        <time>2014-07-31T09:31:45.090Z</time>
      </trkpt>
      <trkpt lat="44.92093" lon="6.81054">
        <ele>1708</ele>
        <time>2014-07-31T09:31:46.090Z</time>
      </trkpt>
      <trkpt lat="44.92094" lon="6.81056">
        <ele>1708</ele>
        <time>2014-07-31T09:31:49.190Z</time>
      </trkpt>
      <trkpt lat="44.92094" lon="6.81057">
        <ele>1707.4</ele>
        <time>2014-07-31T09:31:50.190Z</time>
      </trkpt>
      <trkpt lat="44.92098" lon="6.81059">
        <ele>1707</ele>
        <time>2014-07-31T09:31:52.090Z</time>
      </trkpt>
      <trkpt lat="44.921" lon="6.81062">
        <ele>1707</ele>
        <time>2014-07-31T09:31:53.090Z</time>
      </trkpt>
      <trkpt lat="44.921" lon="6.81063">
        <ele>1707</ele>
        <time>2014-07-31T09:31:54.090Z</time>
      </trkpt>
      <trkpt lat="44.92099" lon="6.81063">
        <ele>1707</ele>
        <time>2014-07-31T09:31:55.090Z</time>
      </trkpt>
      <trkpt lat="44.92098" lon="6.81065">
        <ele>1707</ele>
        <time>2014-07-31T09:31:56.080Z</time>
      </trkpt>
      <trkpt lat="44.92098" lon="6.81066">
        <ele>1707</ele>
        <time>2014-07-31T09:31:57.090Z</time>
      </trkpt>
      <trkpt lat="44.92098" lon="6.81066">
        <ele>1707</ele>
        <time>2014-07-31T09:32:01.090Z</time>
      </trkpt>
      <trkpt lat="44.92099" lon="6.81066">
        <ele>1707</ele>
        <time>2014-07-31T09:32:03.190Z</time>
      </trkpt>
      <trkpt lat="44.92099" lon="6.81068">
        <ele>1706.4</ele>
        <time>2014-07-31T09:32:05.190Z</time>
      </trkpt>
      <trkpt lat="44.921" lon="6.81069">
        <ele>1706</ele>
        <time>2014-07-31T09:32:06.190Z</time>
      </trkpt>
      <trkpt lat="44.92101" lon="6.81071">
        <ele>1706</ele>
        <time>2014-07-31T09:32:07.190Z</time>
      </trkpt>
      <trkpt lat="44.92102" lon="6.81072">
        <ele>1706</ele>
        <time>2014-07-31T09:32:08.190Z</time>
      </trkpt>
      <trkpt lat="44.92103" lon="6.81075">
        <ele>1706</ele>
        <time>2014-07-31T09:32:10.190Z</time>
      </trkpt>
      <trkpt lat="44.92105" lon="6.81074">
        <ele>1706</ele>
        <time>2014-07-31T09:32:12.190Z</time>
      </trkpt>
      <trkpt lat="44.92105" lon="6.81071">
        <ele>1706</ele>
        <time>2014-07-31T09:32:14.090Z</time>
      </trkpt>
      <trkpt lat="44.92106" lon="6.8107">
        <ele>1704.4</ele>
        <time>2014-07-31T09:32:15.090Z</time>
      </trkpt>
      <trkpt lat="44.92105" lon="6.81068">
        <ele>1703</ele>
        <time>2014-07-31T09:32:16.090Z</time>
      </trkpt>
      <trkpt lat="44.92104" lon="6.81066">
        <ele>1703</ele>
        <time>2014-07-31T09:32:17.150Z</time>
      </trkpt>
      <trkpt lat="44.92102" lon="6.81062">
        <ele>1703</ele>
        <time>2014-07-31T09:32:19.090Z</time>
      </trkpt>
      <trkpt lat="44.92101" lon="6.8106">
        <ele>1702.5</ele>
        <time>2014-07-31T09:32:20.090Z</time>
      </trkpt>
      <trkpt lat="44.92099" lon="6.81053">
        <ele>1702</ele>
        <time>2014-07-31T09:32:22.090Z</time>
      </trkpt>
      <trkpt lat="44.92099" lon="6.8105">
        <ele>1702</ele>
        <time>2014-07-31T09:32:23.190Z</time>
      </trkpt>
      <trkpt lat="44.92098" lon="6.81048">
        <ele>1702</ele>
        <time>2014-07-31T09:32:24.190Z</time>
      </trkpt>
      <trkpt lat="44.92097" lon="6.81046">
        <ele>1700.8</ele>
        <time>2014-07-31T09:32:25.190Z</time>
      </trkpt>
      <trkpt lat="44.92097" lon="6.81045">
        <ele>1700</ele>
        <time>2014-07-31T09:32:26.190Z</time>
      </trkpt>
      <trkpt lat="44.92098" lon="6.81046">
        <ele>1700</ele>
        <time>2014-07-31T09:32:29.190Z</time>
      </trkpt>
      <trkpt lat="44.92099" lon="6.81049">
        <ele>1698.8</ele>
        <time>2014-07-31T09:32:30.190Z</time>
      </trkpt>
      <trkpt lat="44.921" lon="6.81053">
        <ele>1698</ele>
        <time>2014-07-31T09:32:31.190Z</time>
      </trkpt>
      <trkpt lat="44.92103" lon="6.81057">
        <ele>1698</ele>
        <time>2014-07-31T09:32:32.180Z</time>
      </trkpt>
      <trkpt lat="44.92106" lon="6.81062">
        <ele>1698</ele>
        <time>2014-07-31T09:32:33.190Z</time>
      </trkpt>
      <trkpt lat="44.92114" lon="6.81074">
        <ele>1696.8</ele>
        <time>2014-07-31T09:32:35.160Z</time>
      </trkpt>
      <trkpt lat="44.92119" lon="6.81081">
        <ele>1696</ele>
        <time>2014-07-31T09:32:36.190Z</time>
      </trkpt>
      <trkpt lat="44.92125" lon="6.81088">
        <ele>1696</ele>
        <time>2014-07-31T09:32:37.280Z</time>
      </trkpt>
      <trkpt lat="44.92131" lon="6.81097">
        <ele>1696</ele>
        <time>2014-07-31T09:32:39.090Z</time>
      </trkpt>
      <trkpt lat="44.92134" lon="6.81099">
        <ele>1693.9</ele>
        <time>2014-07-31T09:32:40.090Z</time>
      </trkpt>
      <trkpt lat="44.92138" lon="6.81101">
        <ele>1692</ele>
        <time>2014-07-31T09:32:41.090Z</time>
      </trkpt>
      <trkpt lat="44.92141" lon="6.81101">
        <ele>1692</ele>
        <time>2014-07-31T09:32:42.090Z</time>
      </trkpt>
      <trkpt lat="44.92142" lon="6.81099">
        <ele>1692</ele>
        <time>2014-07-31T09:32:43.090Z</time>
      </trkpt>
      <trkpt lat="44.92143" lon="6.81093">
        <ele>1690.4</ele>
        <time>2014-07-31T09:32:45.090Z</time>
      </trkpt>
      <trkpt lat="44.92144" lon="6.8109">
        <ele>1688.5</ele>
        <time>2014-07-31T09:32:46.090Z</time>
      </trkpt>
      <trkpt lat="44.92144" lon="6.81088">
        <ele>1687.5</ele>
        <time>2014-07-31T09:32:47.090Z</time>
      </trkpt>
      <trkpt lat="44.92145" lon="6.81087">
        <ele>1687</ele>
        <time>2014-07-31T09:32:48.090Z</time>
      </trkpt>
      <trkpt lat="44.92147" lon="6.81088">
        <ele>1687</ele>
        <time>2014-07-31T09:32:49.090Z</time>
      </trkpt>
      <trkpt lat="44.92148" lon="6.81089">
        <ele>1687</ele>
        <time>2014-07-31T09:32:50.090Z</time>
      </trkpt>
      <trkpt lat="44.92151" lon="6.81092">
        <ele>1686.4</ele>
        <time>2014-07-31T09:32:51.150Z</time>
      </trkpt>
      <trkpt lat="44.92156" lon="6.81102">
        <ele>1684.4</ele>
        <time>2014-07-31T09:32:53.190Z</time>
      </trkpt>
      <trkpt lat="44.92159" lon="6.8111">
        <ele>1683.4</ele>
        <time>2014-07-31T09:32:54.180Z</time>
      </trkpt>
      <trkpt lat="44.92165" lon="6.81127">
        <ele>1682</ele>
        <time>2014-07-31T09:32:56.190Z</time>
      </trkpt>
      <trkpt lat="44.92168" lon="6.81136">
        <ele>1681.4</ele>
        <time>2014-07-31T09:32:57.190Z</time>
      </trkpt>
      <trkpt lat="44.92168" lon="6.81143">
        <ele>1681</ele>
        <time>2014-07-31T09:32:58.190Z</time>
      </trkpt>
      <trkpt lat="44.92169" lon="6.81151">
        <ele>1679.8</ele>
        <time>2014-07-31T09:32:59.190Z</time>
      </trkpt>
      <trkpt lat="44.92169" lon="6.81158">
        <ele>1678.5</ele>
        <time>2014-07-31T09:33:00.090Z</time>
      </trkpt>
      <trkpt lat="44.9217" lon="6.81165">
        <ele>1677.4</ele>
        <time>2014-07-31T09:33:01.190Z</time>
      </trkpt>
      <trkpt lat="44.92172" lon="6.81171">
        <ele>1677</ele>
        <time>2014-07-31T09:33:02.190Z</time>
      </trkpt>
      <trkpt lat="44.92174" lon="6.81177">
        <ele>1675.8</ele>
        <time>2014-07-31T09:33:03.190Z</time>
      </trkpt>
      <trkpt lat="44.92179" lon="6.81186">
        <ele>1673.8</ele>
        <time>2014-07-31T09:33:04.190Z</time>
      </trkpt>
      <trkpt lat="44.92185" lon="6.81195">
        <ele>1672.4</ele>
        <time>2014-07-31T09:33:05.190Z</time>
      </trkpt>
      <trkpt lat="44.9219" lon="6.81204">
        <ele>1671.4</ele>
        <time>2014-07-31T09:33:06.190Z</time>
      </trkpt>
      <trkpt lat="44.92195" lon="6.81212">
        <ele>1669.8</ele>
        <time>2014-07-31T09:33:07.190Z</time>
      </trkpt>
      <trkpt lat="44.92201" lon="6.8122">
        <ele>1668.4</ele>
        <time>2014-07-31T09:33:08.190Z</time>
      </trkpt>
      <trkpt lat="44.92209" lon="6.81235">
        <ele>1666</ele>
        <time>2014-07-31T09:33:10.090Z</time>
      </trkpt>
      <trkpt lat="44.92212" lon="6.81244">
        <ele>1665</ele>
        <time>2014-07-31T09:33:11.090Z</time>
      </trkpt>
      <trkpt lat="44.92217" lon="6.81253">
        <ele>1665</ele>
        <time>2014-07-31T09:33:12.090Z</time>
      </trkpt>
      <trkpt lat="44.92221" lon="6.81262">
        <ele>1664.5</ele>
        <time>2014-07-31T09:33:13.090Z</time>
      </trkpt>
      <trkpt lat="44.92224" lon="6.81271">
        <ele>1663.5</ele>
        <time>2014-07-31T09:33:14.090Z</time>
      </trkpt>
      <trkpt lat="44.92232" lon="6.81289">
        <ele>1662.5</ele>
        <time>2014-07-31T09:33:16.090Z</time>
      </trkpt>
      <trkpt lat="44.92235" lon="6.81298">
        <ele>1661.4</ele>
        <time>2014-07-31T09:33:17.150Z</time>
      </trkpt>
      <trkpt lat="44.92238" lon="6.81306">
        <ele>1659.8</ele>
        <time>2014-07-31T09:33:18.190Z</time>
      </trkpt>
      <trkpt lat="44.92242" lon="6.81313">
        <ele>1658.4</ele>
        <time>2014-07-31T09:33:19.190Z</time>
      </trkpt>
      <trkpt lat="44.92245" lon="6.8132">
        <ele>1657.4</ele>
        <time>2014-07-31T09:33:20.190Z</time>
      </trkpt>
      <trkpt lat="44.92248" lon="6.81329">
        <ele>1655.8</ele>
        <time>2014-07-31T09:33:21.190Z</time>
      </trkpt>
      <trkpt lat="44.92251" lon="6.81337">
        <ele>1654.4</ele>
        <time>2014-07-31T09:33:22.190Z</time>
      </trkpt>
      <trkpt lat="44.92253" lon="6.81343">
        <ele>1653.4</ele>
        <time>2014-07-31T09:33:23.190Z</time>
      </trkpt>
      <trkpt lat="44.92252" lon="6.81346">
        <ele>1653</ele>
        <time>2014-07-31T09:33:24.190Z</time>
      </trkpt>
      <trkpt lat="44.92251" lon="6.81347">
        <ele>1653</ele>
        <time>2014-07-31T09:33:26.060Z</time>
      </trkpt>
      <trkpt lat="44.92251" lon="6.81349">
        <ele>1653</ele>
        <time>2014-07-31T09:33:27.090Z</time>
      </trkpt>
      <trkpt lat="44.92251" lon="6.8135">
        <ele>1653</ele>
        <time>2014-07-31T09:33:28.190Z</time>
      </trkpt>
      <trkpt lat="44.92252" lon="6.81351">
        <ele>1653</ele>
        <time>2014-07-31T09:33:34.150Z</time>
      </trkpt>
      <trkpt lat="44.92251" lon="6.81349">
        <ele>1653</ele>
        <time>2014-07-31T09:33:36.190Z</time>
      </trkpt>
      <trkpt lat="44.92252" lon="6.81349">
        <ele>1653</ele>
        <time>2014-07-31T09:33:38.090Z</time>
      </trkpt>
      <trkpt lat="44.92252" lon="6.81348">
        <ele>1653</ele>
        <time>2014-07-31T09:33:44.090Z</time>
      </trkpt>
      <trkpt lat="44.92254" lon="6.81347">
        <ele>1653</ele>
        <time>2014-07-31T09:33:46.090Z</time>
      </trkpt>
      <trkpt lat="44.92255" lon="6.81346">
        <ele>1653</ele>
        <time>2014-07-31T09:33:50.180Z</time>
      </trkpt>
      <trkpt lat="44.92254" lon="6.81347">
        <ele>1653</ele>
        <time>2014-07-31T09:33:52.090Z</time>
      </trkpt>
      <trkpt lat="44.92254" lon="6.81349">
        <ele>1653</ele>
        <time>2014-07-31T09:33:54.090Z</time>
      </trkpt>
      <trkpt lat="44.92255" lon="6.8135">
        <ele>1653</ele>
        <time>2014-07-31T09:33:55.090Z</time>
      </trkpt>
      <trkpt lat="44.92255" lon="6.81352">
        <ele>1653</ele>
        <time>2014-07-31T09:33:57.090Z</time>
      </trkpt>
      <trkpt lat="44.92254" lon="6.81354">
        <ele>1653</ele>
        <time>2014-07-31T09:33:58.090Z</time>
      </trkpt>
      <trkpt lat="44.92255" lon="6.81356">
        <ele>1653</ele>
        <time>2014-07-31T09:33:59.090Z</time>
      </trkpt>
      <trkpt lat="44.92256" lon="6.81356">
        <ele>1653</ele>
        <time>2014-07-31T09:34:00.070Z</time>
      </trkpt>
      <trkpt lat="44.92255" lon="6.81352">
        <ele>1653</ele>
        <time>2014-07-31T09:34:02.190Z</time>
      </trkpt>
      <trkpt lat="44.92256" lon="6.81348">
        <ele>1653</ele>
        <time>2014-07-31T09:34:03.190Z</time>
      </trkpt>
      <trkpt lat="44.92255" lon="6.81341">
        <ele>1653</ele>
        <time>2014-07-31T09:34:04.190Z</time>
      </trkpt>
      <trkpt lat="44.92255" lon="6.81336">
        <ele>1651.8</ele>
        <time>2014-07-31T09:34:05.190Z</time>
      </trkpt>
      <trkpt lat="44.92256" lon="6.81331">
        <ele>1651</ele>
        <time>2014-07-31T09:34:06.190Z</time>
      </trkpt>
      <trkpt lat="44.92255" lon="6.81326">
        <ele>1651</ele>
        <time>2014-07-31T09:34:07.190Z</time>
      </trkpt>
      <trkpt lat="44.92256" lon="6.81323">
        <ele>1651</ele>
        <time>2014-07-31T09:34:08.190Z</time>
      </trkpt>
      <trkpt lat="44.92258" lon="6.81324">
        <ele>1651</ele>
        <time>2014-07-31T09:34:09.190Z</time>
      </trkpt>
      <trkpt lat="44.92259" lon="6.81325">
        <ele>1651</ele>
        <time>2014-07-31T09:34:10.190Z</time>
      </trkpt>
      <trkpt lat="44.92263" lon="6.81333">
        <ele>1651</ele>
        <time>2014-07-31T09:34:12.090Z</time>
      </trkpt>
      <trkpt lat="44.92264" lon="6.81337">
        <ele>1651</ele>
        <time>2014-07-31T09:34:13.090Z</time>
      </trkpt>
      <trkpt lat="44.92268" lon="6.81343">
        <ele>1651</ele>
        <time>2014-07-31T09:34:14.090Z</time>
      </trkpt>
      <trkpt lat="44.92271" lon="6.8135">
        <ele>1647.3</ele>
        <time>2014-07-31T09:34:15.180Z</time>
      </trkpt>
      <trkpt lat="44.92273" lon="6.81356">
        <ele>1643</ele>
        <time>2014-07-31T09:34:16.090Z</time>
      </trkpt>
      <trkpt lat="44.92274" lon="6.81359">
        <ele>1640.4</ele>
        <time>2014-07-31T09:34:17.180Z</time>
      </trkpt>
      <trkpt lat="44.92276" lon="6.8136">
        <ele>1639</ele>
        <time>2014-07-31T09:34:19.090Z</time>
      </trkpt>
      <trkpt lat="44.92276" lon="6.81358">
        <ele>1639</ele>
        <time>2014-07-31T09:34:20.090Z</time>
      </trkpt>
      <trkpt lat="44.92276" lon="6.81353">
        <ele>1638.5</ele>
        <time>2014-07-31T09:34:21.090Z</time>
      </trkpt>
      <trkpt lat="44.92276" lon="6.81349">
        <ele>1638</ele>
        <time>2014-07-31T09:34:22.080Z</time>
      </trkpt>
      <trkpt lat="44.92276" lon="6.81348">
        <ele>1638</ele>
        <time>2014-07-31T09:34:23.190Z</time>
      </trkpt>
      <trkpt lat="44.92276" lon="6.8135">
        <ele>1637</ele>
        <time>2014-07-31T09:34:25.190Z</time>
      </trkpt>
      <trkpt lat="44.92276" lon="6.81355">
        <ele>1636.4</ele>
        <time>2014-07-31T09:34:26.190Z</time>
      </trkpt>
      <trkpt lat="44.92277" lon="6.8136">
        <ele>1635.4</ele>
        <time>2014-07-31T09:34:27.190Z</time>
      </trkpt>
      <trkpt lat="44.9228" lon="6.81367">
        <ele>1633.5</ele>
        <time>2014-07-31T09:34:29.090Z</time>
      </trkpt>
      <trkpt lat="44.92282" lon="6.81368">
        <ele>1633</ele>
        <time>2014-07-31T09:34:30.090Z</time>
      </trkpt>
      <trkpt lat="44.92284" lon="6.81367">
        <ele>1632.5</ele>
        <time>2014-07-31T09:34:31.090Z</time>
      </trkpt>
      <trkpt lat="44.92284" lon="6.81364">
        <ele>1631.5</ele>
        <time>2014-07-31T09:34:32.080Z</time>
      </trkpt>
      <trkpt lat="44.92284" lon="6.81361">
        <ele>1630</ele>
        <time>2014-07-31T09:34:33.090Z</time>
      </trkpt>
      <trkpt lat="44.92285" lon="6.81357">
        <ele>1629</ele>
        <time>2014-07-31T09:34:34.180Z</time>
      </trkpt>
      <trkpt lat="44.92286" lon="6.81355">
        <ele>1629</ele>
        <time>2014-07-31T09:34:35.190Z</time>
      </trkpt>
      <trkpt lat="44.92289" lon="6.81356">
        <ele>1628.4</ele>
        <time>2014-07-31T09:34:36.190Z</time>
      </trkpt>
      <trkpt lat="44.92292" lon="6.81358">
        <ele>1627.4</ele>
        <time>2014-07-31T09:34:37.190Z</time>
      </trkpt>
      <trkpt lat="44.92296" lon="6.81363">
        <ele>1625.8</ele>
        <time>2014-07-31T09:34:38.190Z</time>
      </trkpt>
      <trkpt lat="44.92298" lon="6.81365">
        <ele>1624.4</ele>
        <time>2014-07-31T09:34:39.190Z</time>
      </trkpt>
      <trkpt lat="44.923" lon="6.81361">
        <ele>1623.4</ele>
        <time>2014-07-31T09:34:41.190Z</time>
      </trkpt>
      <trkpt lat="44.92301" lon="6.81358">
        <ele>1622.4</ele>
        <time>2014-07-31T09:34:42.190Z</time>
      </trkpt>
      <trkpt lat="44.92305" lon="6.81363">
        <ele>1622</ele>
        <time>2014-07-31T09:34:44.190Z</time>
      </trkpt>
      <trkpt lat="44.92305" lon="6.81368">
        <ele>1621.4</ele>
        <time>2014-07-31T09:34:45.190Z</time>
      </trkpt>
      <trkpt lat="44.92303" lon="6.81373">
        <ele>1621</ele>
        <time>2014-07-31T09:34:46.190Z</time>
      </trkpt>
      <trkpt lat="44.92305" lon="6.81378">
        <ele>1620.4</ele>
        <time>2014-07-31T09:34:47.190Z</time>
      </trkpt>
      <trkpt lat="44.92306" lon="6.81382">
        <ele>1618.8</ele>
        <time>2014-07-31T09:34:48.190Z</time>
      </trkpt>
      <trkpt lat="44.92307" lon="6.81383">
        <ele>1617.4</ele>
        <time>2014-07-31T09:34:49.190Z</time>
      </trkpt>
      <trkpt lat="44.9231" lon="6.81383">
        <ele>1616.4</ele>
        <time>2014-07-31T09:34:50.190Z</time>
      </trkpt>
      <trkpt lat="44.92314" lon="6.81375">
        <ele>1615.5</ele>
        <time>2014-07-31T09:34:52.090Z</time>
      </trkpt>
      <trkpt lat="44.92316" lon="6.81369">
        <ele>1614</ele>
        <time>2014-07-31T09:34:53.090Z</time>
      </trkpt>
      <trkpt lat="44.92317" lon="6.8136">
        <ele>1612.5</ele>
        <time>2014-07-31T09:34:54.090Z</time>
      </trkpt>
      <trkpt lat="44.92315" lon="6.81343">
        <ele>1610</ele>
        <time>2014-07-31T09:34:56.090Z</time>
      </trkpt>
      <trkpt lat="44.92314" lon="6.81336">
        <ele>1608.4</ele>
        <time>2014-07-31T09:34:57.180Z</time>
      </trkpt>
      <trkpt lat="44.92313" lon="6.8133">
        <ele>1607</ele>
        <time>2014-07-31T09:34:58.090Z</time>
      </trkpt>
      <trkpt lat="44.92312" lon="6.81324">
        <ele>1605</ele>
        <time>2014-07-31T09:34:59.090Z</time>
      </trkpt>
      <trkpt lat="44.9231" lon="6.81318">
        <ele>1603.4</ele>
        <time>2014-07-31T09:35:00.150Z</time>
      </trkpt>
      <trkpt lat="44.92311" lon="6.81313">
        <ele>1602.4</ele>
        <time>2014-07-31T09:35:01.190Z</time>
      </trkpt>
      <trkpt lat="44.92311" lon="6.8131">
        <ele>1601.4</ele>
        <time>2014-07-31T09:35:02.190Z</time>
      </trkpt>
      <trkpt lat="44.92317" lon="6.81309">
        <ele>1600.5</ele>
        <time>2014-07-31T09:35:04.090Z</time>
      </trkpt>
      <trkpt lat="44.9232" lon="6.81311">
        <ele>1600</ele>
        <time>2014-07-31T09:35:05.090Z</time>
      </trkpt>
      <trkpt lat="44.92321" lon="6.81312">
        <ele>1600</ele>
        <time>2014-07-31T09:35:06.090Z</time>
      </trkpt>
      <trkpt lat="44.92324" lon="6.81316">
        <ele>1599.5</ele>
        <time>2014-07-31T09:35:07.090Z</time>
      </trkpt>
      <trkpt lat="44.92326" lon="6.81314">
        <ele>1597.4</ele>
        <time>2014-07-31T09:35:09.190Z</time>
      </trkpt>
      <trkpt lat="44.92328" lon="6.81311">
        <ele>1597</ele>
        <time>2014-07-31T09:35:10.190Z</time>
      </trkpt>
      <trkpt lat="44.9233" lon="6.81308">
        <ele>1597</ele>
        <time>2014-07-31T09:35:11.280Z</time>
      </trkpt>
      <trkpt lat="44.92332" lon="6.81305">
        <ele>1596.4</ele>
        <time>2014-07-31T09:35:12.190Z</time>
      </trkpt>
      <trkpt lat="44.92333" lon="6.81303">
        <ele>1596</ele>
        <time>2014-07-31T09:35:13.190Z</time>
      </trkpt>
      <trkpt lat="44.92336" lon="6.81299">
        <ele>1596</ele>
        <time>2014-07-31T09:35:15.190Z</time>
      </trkpt>
      <trkpt lat="44.92336" lon="6.81297">
        <ele>1596</ele>
        <time>2014-07-31T09:35:16.190Z</time>
      </trkpt>
      <trkpt lat="44.9234" lon="6.813">
        <ele>1596</ele>
        <time>2014-07-31T09:35:18.090Z</time>
      </trkpt>
      <trkpt lat="44.9234" lon="6.81301">
        <ele>1596</ele>
        <time>2014-07-31T09:35:19.090Z</time>
      </trkpt>
      <trkpt lat="44.92339" lon="6.81302">
        <ele>1596</ele>
        <time>2014-07-31T09:35:20.090Z</time>
      </trkpt>
      <trkpt lat="44.92338" lon="6.81302">
        <ele>1596</ele>
        <time>2014-07-31T09:35:21.090Z</time>
      </trkpt>
      <trkpt lat="44.92336" lon="6.81303">
        <ele>1596</ele>
        <time>2014-07-31T09:35:22.090Z</time>
      </trkpt>
      <trkpt lat="44.92334" lon="6.81303">
        <ele>1596</ele>
        <time>2014-07-31T09:35:23.090Z</time>
      </trkpt>
      <trkpt lat="44.92334" lon="6.81305">
        <ele>1596</ele>
        <time>2014-07-31T09:35:24.090Z</time>
      </trkpt>
      <trkpt lat="44.92334" lon="6.81308">
        <ele>1596</ele>
        <time>2014-07-31T09:35:26.190Z</time>
      </trkpt>
      <trkpt lat="44.92333" lon="6.81309">
        <ele>1596</ele>
        <time>2014-07-31T09:35:27.190Z</time>
      </trkpt>
      <trkpt lat="44.92332" lon="6.8131">
        <ele>1596</ele>
        <time>2014-07-31T09:35:28.190Z</time>
      </trkpt>
      <trkpt lat="44.92331" lon="6.81312">
        <ele>1596</ele>
        <time>2014-07-31T09:35:29.190Z</time>
      </trkpt>
      <trkpt lat="44.92331" lon="6.81313">
        <ele>1596</ele>
        <time>2014-07-31T09:35:30.190Z</time>
      </trkpt>
      <trkpt lat="44.9233" lon="6.81312">
        <ele>1596</ele>
        <time>2014-07-31T09:35:33.190Z</time>
      </trkpt>
      <trkpt lat="44.92331" lon="6.8131">
        <ele>1596.5</ele>
        <time>2014-07-31T09:35:35.090Z</time>
      </trkpt>
      <trkpt lat="44.9233" lon="6.81309">
        <ele>1597</ele>
        <time>2014-07-31T09:35:36.090Z</time>
      </trkpt>
      <trkpt lat="44.9233" lon="6.81308">
        <ele>1597</ele>
        <time>2014-07-31T09:35:37.160Z</time>
      </trkpt>
      <trkpt lat="44.9233" lon="6.81306">
        <ele>1597</ele>
        <time>2014-07-31T09:35:40.190Z</time>
      </trkpt>
      <trkpt lat="44.92331" lon="6.81305">
        <ele>1597</ele>
        <time>2014-07-31T09:35:41.190Z</time>
      </trkpt>
      <trkpt lat="44.92332" lon="6.813">
        <ele>1597</ele>
        <time>2014-07-31T09:35:43.090Z</time>
      </trkpt>
      <trkpt lat="44.92333" lon="6.81298">
        <ele>1597</ele>
        <time>2014-07-31T09:35:44.090Z</time>
      </trkpt>
      <trkpt lat="44.92335" lon="6.81298">
        <ele>1597</ele>
        <time>2014-07-31T09:35:45.090Z</time>
      </trkpt>
      <trkpt lat="44.92337" lon="6.81298">
        <ele>1597</ele>
        <time>2014-07-31T09:35:46.090Z</time>
      </trkpt>
      <trkpt lat="44.92339" lon="6.81297">
        <ele>1597</ele>
        <time>2014-07-31T09:35:47.090Z</time>
      </trkpt>
      <trkpt lat="44.92338" lon="6.81298">
        <ele>1597</ele>
        <time>2014-07-31T09:35:50.090Z</time>
      </trkpt>
      <trkpt lat="44.92339" lon="6.813">
        <ele>1597</ele>
        <time>2014-07-31T09:35:52.190Z</time>
      </trkpt>
      <trkpt lat="44.92341" lon="6.81299">
        <ele>1597</ele>
        <time>2014-07-31T09:35:54.280Z</time>
      </trkpt>
      <trkpt lat="44.92342" lon="6.813">
        <ele>1596.4</ele>
        <time>2014-07-31T09:35:55.190Z</time>
      </trkpt>
      <trkpt lat="44.92344" lon="6.81299">
        <ele>1596</ele>
        <time>2014-07-31T09:35:56.190Z</time>
      </trkpt>
      <trkpt lat="44.92341" lon="6.81299">
        <ele>1596</ele>
        <time>2014-07-31T09:35:59.950Z</time>
      </trkpt>
      <trkpt lat="44.9234" lon="6.813">
        <ele>1596</ele>
        <time>2014-07-31T09:36:01.090Z</time>
      </trkpt>
      <trkpt lat="44.92339" lon="6.81301">
        <ele>1596</ele>
        <time>2014-07-31T09:36:02.090Z</time>
      </trkpt>
      <trkpt lat="44.92338" lon="6.813">
        <ele>1595</ele>
        <time>2014-07-31T09:36:07.190Z</time>
      </trkpt>
      <trkpt lat="44.92337" lon="6.813">
        <ele>1595</ele>
        <time>2014-07-31T09:36:09.190Z</time>
      </trkpt>
      <trkpt lat="44.92336" lon="6.81299">
        <ele>1595</ele>
        <time>2014-07-31T09:36:12.190Z</time>
      </trkpt>
      <trkpt lat="44.92336" lon="6.813">
        <ele>1595</ele>
        <time>2014-07-31T09:36:14.090Z</time>
      </trkpt>
      <trkpt lat="44.92337" lon="6.81301">
        <ele>1595</ele>
        <time>2014-07-31T09:36:15.090Z</time>
      </trkpt>
      <trkpt lat="44.92338" lon="6.81301">
        <ele>1595</ele>
        <time>2014-07-31T09:36:16.160Z</time>
      </trkpt>
      <trkpt lat="44.92339" lon="6.813">
        <ele>1595</ele>
        <time>2014-07-31T09:36:21.090Z</time>
      </trkpt>
      <trkpt lat="44.92339" lon="6.81298">
        <ele>1595</ele>
        <time>2014-07-31T09:36:25.190Z</time>
      </trkpt>
      <trkpt lat="44.92338" lon="6.81296">
        <ele>1595</ele>
        <time>2014-07-31T09:36:28.190Z</time>
      </trkpt>
      <trkpt lat="44.92338" lon="6.81295">
        <ele>1595</ele>
        <time>2014-07-31T09:36:29.190Z</time>
      </trkpt>
      <trkpt lat="44.92337" lon="6.81293">
        <ele>1595</ele>
        <time>2014-07-31T09:36:31.190Z</time>
      </trkpt>
      <trkpt lat="44.92336" lon="6.81291">
        <ele>1595</ele>
        <time>2014-07-31T09:36:32.190Z</time>
      </trkpt>
      <trkpt lat="44.92335" lon="6.8129">
        <ele>1595</ele>
        <time>2014-07-31T09:36:34.150Z</time>
      </trkpt>
      <trkpt lat="44.92334" lon="6.81292">
        <ele>1595</ele>
        <time>2014-07-31T09:36:37.090Z</time>
      </trkpt>
      <trkpt lat="44.92335" lon="6.81292">
        <ele>1595</ele>
        <time>2014-07-31T09:36:38.090Z</time>
      </trkpt>
      <trkpt lat="44.92335" lon="6.81294">
        <ele>1595</ele>
        <time>2014-07-31T09:36:41.090Z</time>
      </trkpt>
      <trkpt lat="44.92335" lon="6.81296">
        <ele>1595</ele>
        <time>2014-07-31T09:36:42.090Z</time>
      </trkpt>
      <trkpt lat="44.92336" lon="6.81298">
        <ele>1595</ele>
        <time>2014-07-31T09:36:44.090Z</time>
      </trkpt>
      <trkpt lat="44.92337" lon="6.81298">
        <ele>1596</ele>
        <time>2014-07-31T09:36:49.990Z</time>
      </trkpt>
      <trkpt lat="44.92339" lon="6.81299">
        <ele>1596</ele>
        <time>2014-07-31T09:36:52.190Z</time>
      </trkpt>
      <trkpt lat="44.9234" lon="6.81299">
        <ele>1596</ele>
        <time>2014-07-31T09:36:53.190Z</time>
      </trkpt>
      <trkpt lat="44.92343" lon="6.813">
        <ele>1596</ele>
        <time>2014-07-31T09:36:55.190Z</time>
      </trkpt>
      <trkpt lat="44.92345" lon="6.813">
        <ele>1596</ele>
        <time>2014-07-31T09:36:56.190Z</time>
      </trkpt>
      <trkpt lat="44.92348" lon="6.81301">
        <ele>1596</ele>
        <time>2014-07-31T09:36:57.190Z</time>
      </trkpt>
      <trkpt lat="44.92353" lon="6.81303">
        <ele>1596</ele>
        <time>2014-07-31T09:36:59.090Z</time>
      </trkpt>
      <trkpt lat="44.92355" lon="6.81304">
        <ele>1596</ele>
        <time>2014-07-31T09:37:00.150Z</time>
      </trkpt>
      <trkpt lat="44.92358" lon="6.81305">
        <ele>1596</ele>
        <time>2014-07-31T09:37:02.190Z</time>
      </trkpt>
      <trkpt lat="44.92359" lon="6.81306">
        <ele>1596</ele>
        <time>2014-07-31T09:37:03.190Z</time>
      </trkpt>
      <trkpt lat="44.9236" lon="6.81306">
        <ele>1596</ele>
        <time>2014-07-31T09:37:04.190Z</time>
      </trkpt>
      <trkpt lat="44.92357" lon="6.81301">
        <ele>1596</ele>
        <time>2014-07-31T09:37:14.190Z</time>
      </trkpt>
      <trkpt lat="44.92359" lon="6.813">
        <ele>1595.4</ele>
        <time>2014-07-31T09:37:15.180Z</time>
      </trkpt>
      <trkpt lat="44.92362" lon="6.81298">
        <ele>1595</ele>
        <time>2014-07-31T09:37:16.190Z</time>
      </trkpt>
      <trkpt lat="44.92357" lon="6.81298">
        <ele>1595</ele>
        <time>2014-07-31T09:37:18.090Z</time>
      </trkpt>
      <trkpt lat="44.92358" lon="6.81297">
        <ele>1595</ele>
        <time>2014-07-31T09:37:19.090Z</time>
      </trkpt>
      <trkpt lat="44.92355" lon="6.81297">
        <ele>1595</ele>
        <time>2014-07-31T09:37:20.090Z</time>
      </trkpt>
      <trkpt lat="44.92347" lon="6.81302">
        <ele>1595</ele>
        <time>2014-07-31T09:37:21.090Z</time>
      </trkpt>
      <trkpt lat="44.9234" lon="6.81305">
        <ele>1595</ele>
        <time>2014-07-31T09:37:22.090Z</time>
      </trkpt>
      <trkpt lat="44.92345" lon="6.81306">
        <ele>1595</ele>
        <time>2014-07-31T09:37:23.090Z</time>
      </trkpt>
      <trkpt lat="44.9235" lon="6.81305">
        <ele>1595</ele>
        <time>2014-07-31T09:37:24.160Z</time>
      </trkpt>
      <trkpt lat="44.92356" lon="6.81303">
        <ele>1595.6</ele>
        <time>2014-07-31T09:37:25.190Z</time>
      </trkpt>
      <trkpt lat="44.92361" lon="6.81302">
        <ele>1596</ele>
        <time>2014-07-31T09:37:26.190Z</time>
      </trkpt>
      <trkpt lat="44.92362" lon="6.81301">
        <ele>1596</ele>
        <time>2014-07-31T09:37:30.190Z</time>
      </trkpt>
      <trkpt lat="44.92365" lon="6.81301">
        <ele>1596</ele>
        <time>2014-07-31T09:37:31.190Z</time>
      </trkpt>
      <trkpt lat="44.92366" lon="6.81301">
        <ele>1596</ele>
        <time>2014-07-31T09:37:32.190Z</time>
      </trkpt>
      <trkpt lat="44.92368" lon="6.81301">
        <ele>1596</ele>
        <time>2014-07-31T09:37:33.190Z</time>
      </trkpt>
      <trkpt lat="44.92369" lon="6.813">
        <ele>1596</ele>
        <time>2014-07-31T09:37:35.090Z</time>
      </trkpt>
      <trkpt lat="44.92367" lon="6.813">
        <ele>1596</ele>
        <time>2014-07-31T09:37:38.090Z</time>
      </trkpt>
      <trkpt lat="44.92366" lon="6.81301">
        <ele>1596</ele>
        <time>2014-07-31T09:37:39.090Z</time>
      </trkpt>
      <trkpt lat="44.92364" lon="6.81301">
        <ele>1596</ele>
        <time>2014-07-31T09:37:42.090Z</time>
      </trkpt>
      <trkpt lat="44.92364" lon="6.81301">
        <ele>1596</ele>
        <time>2014-07-31T09:38:01.090Z</time>
      </trkpt>
      <trkpt lat="44.92363" lon="6.81301">
        <ele>1596</ele>
        <time>2014-07-31T09:38:04.090Z</time>
      </trkpt>
      <trkpt lat="44.92361" lon="6.813">
        <ele>1596</ele>
        <time>2014-07-31T09:38:06.080Z</time>
      </trkpt>
      <trkpt lat="44.92359" lon="6.81299">
        <ele>1596</ele>
        <time>2014-07-31T09:38:08.090Z</time>
      </trkpt>
      <trkpt lat="44.92358" lon="6.81299">
        <ele>1596</ele>
        <time>2014-07-31T09:38:09.090Z</time>
      </trkpt>
      <trkpt lat="44.92357" lon="6.81298">
        <ele>1596</ele>
        <time>2014-07-31T09:38:10.090Z</time>
      </trkpt>
      <trkpt lat="44.92356" lon="6.81298">
        <ele>1596</ele>
        <time>2014-07-31T09:38:12.090Z</time>
      </trkpt>
      <trkpt lat="44.92355" lon="6.81296">
        <ele>1596</ele>
        <time>2014-07-31T09:38:15.160Z</time>
      </trkpt>
      <trkpt lat="44.92354" lon="6.81297">
        <ele>1596</ele>
        <time>2014-07-31T09:38:18.080Z</time>
      </trkpt>
      <trkpt lat="44.92354" lon="6.81295">
        <ele>1596</ele>
        <time>2014-07-31T09:38:20.090Z</time>
      </trkpt>
      <trkpt lat="44.92355" lon="6.81294">
        <ele>1596</ele>
        <time>2014-07-31T09:38:21.090Z</time>
      </trkpt>
      <trkpt lat="44.92356" lon="6.81293">
        <ele>1596</ele>
        <time>2014-07-31T09:38:23.090Z</time>
      </trkpt>
      <trkpt lat="44.92355" lon="6.81292">
        <ele>1596</ele>
        <time>2014-07-31T09:38:26.090Z</time>
      </trkpt>
      <trkpt lat="44.92354" lon="6.81292">
        <ele>1596</ele>
        <time>2014-07-31T09:38:27.090Z</time>
      </trkpt>
      <trkpt lat="44.92353" lon="6.81291">
        <ele>1596</ele>
        <time>2014-07-31T09:38:29.090Z</time>
      </trkpt>
      <trkpt lat="44.92352" lon="6.81292">
        <ele>1596</ele>
        <time>2014-07-31T09:38:31.090Z</time>
      </trkpt>
      <trkpt lat="44.9235" lon="6.81293">
        <ele>1596</ele>
        <time>2014-07-31T09:38:35.190Z</time>
      </trkpt>
      <trkpt lat="44.9235" lon="6.81294">
        <ele>1596</ele>
        <time>2014-07-31T09:38:37.190Z</time>
      </trkpt>
      <trkpt lat="44.92349" lon="6.81295">
        <ele>1596</ele>
        <time>2014-07-31T09:38:39.090Z</time>
      </trkpt>
      <trkpt lat="44.92349" lon="6.81295">
        <ele>1596</ele>
        <time>2014-07-31T09:39:00.110Z</time>
      </trkpt>
      <trkpt lat="44.92348" lon="6.81296">
        <ele>1596</ele>
        <time>2014-07-31T09:39:07.090Z</time>
      </trkpt>
      <trkpt lat="44.92347" lon="6.81297">
        <ele>1596</ele>
        <time>2014-07-31T09:39:08.090Z</time>
      </trkpt>
      <trkpt lat="44.92346" lon="6.81299">
        <ele>1596</ele>
        <time>2014-07-31T09:39:10.090Z</time>
      </trkpt>
      <trkpt lat="44.92346" lon="6.813">
        <ele>1596</ele>
        <time>2014-07-31T09:39:15.190Z</time>
      </trkpt>
      <trkpt lat="44.92346" lon="6.81302">
        <ele>1596</ele>
        <time>2014-07-31T09:39:27.190Z</time>
      </trkpt>
      <trkpt lat="44.92345" lon="6.81302">
        <ele>1596</ele>
        <time>2014-07-31T09:39:31.190Z</time>
      </trkpt>
      <trkpt lat="44.92343" lon="6.81304">
        <ele>1596</ele>
        <time>2014-07-31T09:39:43.080Z</time>
      </trkpt>
      <trkpt lat="44.92342" lon="6.81304">
        <ele>1596</ele>
        <time>2014-07-31T09:39:55.190Z</time>
      </trkpt>
      <trkpt lat="44.92343" lon="6.81304">
        <ele>1596</ele>
        <time>2014-07-31T09:39:58.090Z</time>
      </trkpt>
      <trkpt lat="44.92344" lon="6.81304">
        <ele>1596</ele>
        <time>2014-07-31T09:40:00.150Z</time>
      </trkpt>
      <trkpt lat="44.92346" lon="6.81304">
        <ele>1596</ele>
        <time>2014-07-31T09:40:07.190Z</time>
      </trkpt>
      <trkpt lat="44.92346" lon="6.81302">
        <ele>1596</ele>
        <time>2014-07-31T09:40:09.090Z</time>
      </trkpt>
      <trkpt lat="44.92345" lon="6.81302">
        <ele>1596</ele>
        <time>2014-07-31T09:40:13.190Z</time>
      </trkpt>
      <trkpt lat="44.92344" lon="6.81303">
        <ele>1596</ele>
        <time>2014-07-31T09:40:15.090Z</time>
      </trkpt>
      <trkpt lat="44.92343" lon="6.81302">
        <ele>1596</ele>
        <time>2014-07-31T09:40:19.090Z</time>
      </trkpt>
      <trkpt lat="44.92342" lon="6.81303">
        <ele>1596</ele>
        <time>2014-07-31T09:40:22.090Z</time>
      </trkpt>
      <trkpt lat="44.92343" lon="6.81301">
        <ele>1595</ele>
        <time>2014-07-31T09:40:26.090Z</time>
      </trkpt>
      <trkpt lat="44.92343" lon="6.813">
        <ele>1595</ele>
        <time>2014-07-31T09:40:27.090Z</time>
      </trkpt>
      <trkpt lat="44.92343" lon="6.81298">
        <ele>1595</ele>
        <time>2014-07-31T09:40:29.090Z</time>
      </trkpt>
      <trkpt lat="44.92345" lon="6.81297">
        <ele>1595</ele>
        <time>2014-07-31T09:40:31.090Z</time>
      </trkpt>
      <trkpt lat="44.92347" lon="6.81298">
        <ele>1595</ele>
        <time>2014-07-31T09:40:33.190Z</time>
      </trkpt>
      <trkpt lat="44.92346" lon="6.81299">
        <ele>1595.5</ele>
        <time>2014-07-31T09:40:35.090Z</time>
      </trkpt>
      <trkpt lat="44.92345" lon="6.81299">
        <ele>1596</ele>
        <time>2014-07-31T09:40:36.180Z</time>
      </trkpt>
      <trkpt lat="44.92344" lon="6.81302">
        <ele>1596</ele>
        <time>2014-07-31T09:40:38.190Z</time>
      </trkpt>
      <trkpt lat="44.92345" lon="6.81305">
        <ele>1596</ele>
        <time>2014-07-31T09:40:39.190Z</time>
      </trkpt>
      <trkpt lat="44.92347" lon="6.81307">
        <ele>1596</ele>
        <time>2014-07-31T09:40:40.190Z</time>
      </trkpt>
      <trkpt lat="44.92349" lon="6.81311">
        <ele>1596</ele>
        <time>2014-07-31T09:40:41.190Z</time>
      </trkpt>
      <trkpt lat="44.92352" lon="6.81314">
        <ele>1596</ele>
        <time>2014-07-31T09:40:42.190Z</time>
      </trkpt>
      <trkpt lat="44.92358" lon="6.81324">
        <ele>1596</ele>
        <time>2014-07-31T09:40:44.090Z</time>
      </trkpt>
      <trkpt lat="44.92362" lon="6.81329">
        <ele>1593.9</ele>
        <time>2014-07-31T09:40:45.090Z</time>
      </trkpt>
      <trkpt lat="44.92365" lon="6.81335">
        <ele>1592</ele>
        <time>2014-07-31T09:40:46.090Z</time>
      </trkpt>
      <trkpt lat="44.92368" lon="6.81341">
        <ele>1592</ele>
        <time>2014-07-31T09:40:47.090Z</time>
      </trkpt>
      <trkpt lat="44.92372" lon="6.81345">
        <ele>1592</ele>
        <time>2014-07-31T09:40:48.120Z</time>
      </trkpt>
      <trkpt lat="44.92375" lon="6.81347">
        <ele>1592</ele>
        <time>2014-07-31T09:40:49.190Z</time>
      </trkpt>
      <trkpt lat="44.92378" lon="6.8135">
        <ele>1589.5</ele>
        <time>2014-07-31T09:40:50.190Z</time>
      </trkpt>
      <trkpt lat="44.92383" lon="6.81356">
        <ele>1588</ele>
        <time>2014-07-31T09:40:52.090Z</time>
      </trkpt>
      <trkpt lat="44.92385" lon="6.81359">
        <ele>1588</ele>
        <time>2014-07-31T09:40:53.090Z</time>
      </trkpt>
      <trkpt lat="44.92385" lon="6.8136">
        <ele>1588</ele>
        <time>2014-07-31T09:40:54.090Z</time>
      </trkpt>
      <trkpt lat="44.92387" lon="6.81359">
        <ele>1585</ele>
        <time>2014-07-31T09:40:56.090Z</time>
      </trkpt>
      <trkpt lat="44.92388" lon="6.81359">
        <ele>1585</ele>
        <time>2014-07-31T09:40:57.090Z</time>
      </trkpt>
      <trkpt lat="44.92389" lon="6.81359">
        <ele>1585</ele>
        <time>2014-07-31T09:40:58.190Z</time>
      </trkpt>
      <trkpt lat="44.92389" lon="6.81361">
        <ele>1585</ele>
        <time>2014-07-31T09:41:01.090Z</time>
      </trkpt>
      <trkpt lat="44.92389" lon="6.81362">
        <ele>1584</ele>
        <time>2014-07-31T09:41:04.090Z</time>
      </trkpt>
      <trkpt lat="44.92388" lon="6.81363">
        <ele>1585</ele>
        <time>2014-07-31T09:41:11.080Z</time>
      </trkpt>
      <trkpt lat="44.92389" lon="6.81362">
        <ele>1585</ele>
        <time>2014-07-31T09:41:28.090Z</time>
      </trkpt>
      <trkpt lat="44.9239" lon="6.81364">
        <ele>1585</ele>
        <time>2014-07-31T09:41:30.090Z</time>
      </trkpt>
      <trkpt lat="44.92389" lon="6.81365">
        <ele>1585</ele>
        <time>2014-07-31T09:41:32.090Z</time>
      </trkpt>
      <trkpt lat="44.92388" lon="6.81367">
        <ele>1585</ele>
        <time>2014-07-31T09:41:34.150Z</time>
      </trkpt>
      <trkpt lat="44.92389" lon="6.81368">
        <ele>1584</ele>
        <time>2014-07-31T09:41:36.190Z</time>
      </trkpt>
      <trkpt lat="44.92389" lon="6.8137">
        <ele>1584</ele>
        <time>2014-07-31T09:41:37.190Z</time>
      </trkpt>
      <trkpt lat="44.92389" lon="6.81373">
        <ele>1584</ele>
        <time>2014-07-31T09:41:38.190Z</time>
      </trkpt>
      <trkpt lat="44.92393" lon="6.81379">
        <ele>1584</ele>
        <time>2014-07-31T09:41:40.090Z</time>
      </trkpt>
      <trkpt lat="44.92396" lon="6.81384">
        <ele>1584</ele>
        <time>2014-07-31T09:41:41.080Z</time>
      </trkpt>
      <trkpt lat="44.92399" lon="6.81389">
        <ele>1584</ele>
        <time>2014-07-31T09:41:42.090Z</time>
      </trkpt>
      <trkpt lat="44.92402" lon="6.81393">
        <ele>1584</ele>
        <time>2014-07-31T09:41:43.090Z</time>
      </trkpt>
      <trkpt lat="44.92403" lon="6.81396">
        <ele>1584</ele>
        <time>2014-07-31T09:41:44.090Z</time>
      </trkpt>
      <trkpt lat="44.92404" lon="6.81397">
        <ele>1581.4</ele>
        <time>2014-07-31T09:41:45.090Z</time>
      </trkpt>
      <trkpt lat="44.92406" lon="6.81399">
        <ele>1579</ele>
        <time>2014-07-31T09:41:47.090Z</time>
      </trkpt>
      <trkpt lat="44.92407" lon="6.81398">
        <ele>1579</ele>
        <time>2014-07-31T09:41:48.090Z</time>
      </trkpt>
      <trkpt lat="44.92407" lon="6.81396">
        <ele>1575</ele>
        <time>2014-07-31T09:41:54.190Z</time>
      </trkpt>
      <trkpt lat="44.92408" lon="6.81397">
        <ele>1575</ele>
        <time>2014-07-31T09:41:58.090Z</time>
      </trkpt>
      <trkpt lat="44.92409" lon="6.81397">
        <ele>1575</ele>
        <time>2014-07-31T09:42:00.150Z</time>
      </trkpt>
      <trkpt lat="44.92407" lon="6.81398">
        <ele>1575</ele>
        <time>2014-07-31T09:42:03.090Z</time>
      </trkpt>
      <trkpt lat="44.92409" lon="6.81398">
        <ele>1576</ele>
        <time>2014-07-31T09:42:07.090Z</time>
      </trkpt>
      <trkpt lat="44.9241" lon="6.81398">
        <ele>1576</ele>
        <time>2014-07-31T09:42:08.090Z</time>
      </trkpt>
      <trkpt lat="44.92411" lon="6.81399">
        <ele>1576</ele>
        <time>2014-07-31T09:42:10.090Z</time>
      </trkpt>
      <trkpt lat="44.92411" lon="6.814">
        <ele>1576</ele>
        <time>2014-07-31T09:42:11.090Z</time>
      </trkpt>
      <trkpt lat="44.92412" lon="6.81402">
        <ele>1576</ele>
        <time>2014-07-31T09:42:12.090Z</time>
      </trkpt>
      <trkpt lat="44.92413" lon="6.81404">
        <ele>1576</ele>
        <time>2014-07-31T09:42:13.130Z</time>
      </trkpt>
      <trkpt lat="44.92414" lon="6.81406">
        <ele>1576</ele>
        <time>2014-07-31T09:42:14.190Z</time>
      </trkpt>
      <trkpt lat="44.92415" lon="6.81408">
        <ele>1574.1</ele>
        <time>2014-07-31T09:42:15.190Z</time>
      </trkpt>
      <trkpt lat="44.92416" lon="6.8141">
        <ele>1573</ele>
        <time>2014-07-31T09:42:16.180Z</time>
      </trkpt>
      <trkpt lat="44.92422" lon="6.81418">
        <ele>1573</ele>
        <time>2014-07-31T09:42:18.090Z</time>
      </trkpt>
      <trkpt lat="44.92427" lon="6.81423">
        <ele>1573</ele>
        <time>2014-07-31T09:42:19.090Z</time>
      </trkpt>
      <trkpt lat="44.92434" lon="6.8143">
        <ele>1569.9</ele>
        <time>2014-07-31T09:42:20.090Z</time>
      </trkpt>
      <trkpt lat="44.9244" lon="6.81437">
        <ele>1567</ele>
        <time>2014-07-31T09:42:21.090Z</time>
      </trkpt>
      <trkpt lat="44.92443" lon="6.81444">
        <ele>1567</ele>
        <time>2014-07-31T09:42:22.090Z</time>
      </trkpt>
      <trkpt lat="44.92447" lon="6.8145">
        <ele>1567</ele>
        <time>2014-07-31T09:42:23.090Z</time>
      </trkpt>
      <trkpt lat="44.92451" lon="6.81455">
        <ele>1567</ele>
        <time>2014-07-31T09:42:24.090Z</time>
      </trkpt>
      <trkpt lat="44.92451" lon="6.81458">
        <ele>1564.4</ele>
        <time>2014-07-31T09:42:25.090Z</time>
      </trkpt>
      <trkpt lat="44.92452" lon="6.81462">
        <ele>1561.5</ele>
        <time>2014-07-31T09:42:26.090Z</time>
      </trkpt>
      <trkpt lat="44.92454" lon="6.81466">
        <ele>1560.5</ele>
        <time>2014-07-31T09:42:27.090Z</time>
      </trkpt>
      <trkpt lat="44.92457" lon="6.81474">
        <ele>1559.5</ele>
        <time>2014-07-31T09:42:28.090Z</time>
      </trkpt>
      <trkpt lat="44.9246" lon="6.81484">
        <ele>1558.5</ele>
        <time>2014-07-31T09:42:29.080Z</time>
      </trkpt>
      <trkpt lat="44.92463" lon="6.81494">
        <ele>1557.4</ele>
        <time>2014-07-31T09:42:30.160Z</time>
      </trkpt>
      <trkpt lat="44.92465" lon="6.81502">
        <ele>1556.4</ele>
        <time>2014-07-31T09:42:31.190Z</time>
      </trkpt>
      <trkpt lat="44.92466" lon="6.81508">
        <ele>1554.8</ele>
        <time>2014-07-31T09:42:32.190Z</time>
      </trkpt>
      <trkpt lat="44.92468" lon="6.81511">
        <ele>1553.4</ele>
        <time>2014-07-31T09:42:33.190Z</time>
      </trkpt>
      <trkpt lat="44.92469" lon="6.81517">
        <ele>1551.5</ele>
        <time>2014-07-31T09:42:35.090Z</time>
      </trkpt>
      <trkpt lat="44.9247" lon="6.8152">
        <ele>1551</ele>
        <time>2014-07-31T09:42:36.090Z</time>
      </trkpt>
      <trkpt lat="44.92471" lon="6.81523">
        <ele>1550.5</ele>
        <time>2014-07-31T09:42:37.090Z</time>
      </trkpt>
      <trkpt lat="44.92472" lon="6.81525">
        <ele>1550</ele>
        <time>2014-07-31T09:42:38.190Z</time>
      </trkpt>
      <trkpt lat="44.92473" lon="6.81527">
        <ele>1550</ele>
        <time>2014-07-31T09:42:39.190Z</time>
      </trkpt>
      <trkpt lat="44.92473" lon="6.81529">
        <ele>1550</ele>
        <time>2014-07-31T09:42:40.190Z</time>
      </trkpt>
      <trkpt lat="44.92472" lon="6.81535">
        <ele>1549.4</ele>
        <time>2014-07-31T09:42:42.190Z</time>
      </trkpt>
      <trkpt lat="44.9247" lon="6.81538">
        <ele>1547.8</ele>
        <time>2014-07-31T09:42:43.190Z</time>
      </trkpt>
      <trkpt lat="44.9247" lon="6.81541">
        <ele>1546.4</ele>
        <time>2014-07-31T09:42:44.190Z</time>
      </trkpt>
      <trkpt lat="44.92469" lon="6.81544">
        <ele>1545.4</ele>
        <time>2014-07-31T09:42:45.190Z</time>
      </trkpt>
      <trkpt lat="44.92469" lon="6.81547">
        <ele>1545</ele>
        <time>2014-07-31T09:42:46.280Z</time>
      </trkpt>
      <trkpt lat="44.92465" lon="6.8156">
        <ele>1543.4</ele>
        <time>2014-07-31T09:42:48.190Z</time>
      </trkpt>
      <trkpt lat="44.92464" lon="6.81568">
        <ele>1541.8</ele>
        <time>2014-07-31T09:42:49.190Z</time>
      </trkpt>
      <trkpt lat="44.92462" lon="6.81577">
        <ele>1539.8</ele>
        <time>2014-07-31T09:42:50.190Z</time>
      </trkpt>
      <trkpt lat="44.92462" lon="6.81593">
        <ele>1536.5</ele>
        <time>2014-07-31T09:42:52.090Z</time>
      </trkpt>
      <trkpt lat="44.92461" lon="6.81605">
        <ele>1533.5</ele>
        <time>2014-07-31T09:42:54.090Z</time>
      </trkpt>
      <trkpt lat="44.92461" lon="6.81608">
        <ele>1533</ele>
        <time>2014-07-31T09:42:55.090Z</time>
      </trkpt>
      <trkpt lat="44.92461" lon="6.81611">
        <ele>1533</ele>
        <time>2014-07-31T09:42:56.090Z</time>
      </trkpt>
      <trkpt lat="44.92462" lon="6.81612">
        <ele>1533</ele>
        <time>2014-07-31T09:42:57.090Z</time>
      </trkpt>
      <trkpt lat="44.92463" lon="6.81613">
        <ele>1532.5</ele>
        <time>2014-07-31T09:42:58.090Z</time>
      </trkpt>
      <trkpt lat="44.92465" lon="6.81614">
        <ele>1531.5</ele>
        <time>2014-07-31T09:42:59.090Z</time>
      </trkpt>
      <trkpt lat="44.92466" lon="6.81613">
        <ele>1531</ele>
        <time>2014-07-31T09:43:00.150Z</time>
      </trkpt>
      <trkpt lat="44.92467" lon="6.81614">
        <ele>1531</ele>
        <time>2014-07-31T09:43:01.190Z</time>
      </trkpt>
      <trkpt lat="44.92468" lon="6.81618">
        <ele>1531</ele>
        <time>2014-07-31T09:43:03.190Z</time>
      </trkpt>
      <trkpt lat="44.92469" lon="6.81622">
        <ele>1530.5</ele>
        <time>2014-07-31T09:43:05.090Z</time>
      </trkpt>
      <trkpt lat="44.92471" lon="6.81626">
        <ele>1530</ele>
        <time>2014-07-31T09:43:06.090Z</time>
      </trkpt>
      <trkpt lat="44.92472" lon="6.81631">
        <ele>1530</ele>
        <time>2014-07-31T09:43:07.090Z</time>
      </trkpt>
      <trkpt lat="44.92474" lon="6.81636">
        <ele>1530</ele>
        <time>2014-07-31T09:43:08.090Z</time>
      </trkpt>
      <trkpt lat="44.92475" lon="6.81642">
        <ele>1530</ele>
        <time>2014-07-31T09:43:09.090Z</time>
      </trkpt>
      <trkpt lat="44.92476" lon="6.81647">
        <ele>1530</ele>
        <time>2014-07-31T09:43:10.090Z</time>
      </trkpt>
      <trkpt lat="44.92477" lon="6.81653">
        <ele>1530</ele>
        <time>2014-07-31T09:43:11.090Z</time>
      </trkpt>
      <trkpt lat="44.92479" lon="6.81659">
        <ele>1530</ele>
        <time>2014-07-31T09:43:12.090Z</time>
      </trkpt>
      <trkpt lat="44.9248" lon="6.81666">
        <ele>1530</ele>
        <time>2014-07-31T09:43:13.090Z</time>
      </trkpt>
      <trkpt lat="44.92482" lon="6.81674">
        <ele>1530</ele>
        <time>2014-07-31T09:43:14.090Z</time>
      </trkpt>
      <trkpt lat="44.92483" lon="6.81682">
        <ele>1528.5</ele>
        <time>2014-07-31T09:43:15.080Z</time>
      </trkpt>
      <trkpt lat="44.92485" lon="6.8169">
        <ele>1527</ele>
        <time>2014-07-31T09:43:16.090Z</time>
      </trkpt>
      <trkpt lat="44.92488" lon="6.81697">
        <ele>1527</ele>
        <time>2014-07-31T09:43:17.090Z</time>
      </trkpt>
      <trkpt lat="44.92496" lon="6.81713">
        <ele>1527</ele>
        <time>2014-07-31T09:43:19.090Z</time>
      </trkpt>
      <trkpt lat="44.925" lon="6.81721">
        <ele>1526</ele>
        <time>2014-07-31T09:43:20.090Z</time>
      </trkpt>
      <trkpt lat="44.92506" lon="6.81728">
        <ele>1525</ele>
        <time>2014-07-31T09:43:21.150Z</time>
      </trkpt>
      <trkpt lat="44.92512" lon="6.81736">
        <ele>1525</ele>
        <time>2014-07-31T09:43:22.190Z</time>
      </trkpt>
      <trkpt lat="44.92526" lon="6.81749">
        <ele>1525</ele>
        <time>2014-07-31T09:43:24.090Z</time>
      </trkpt>
      <trkpt lat="44.92535" lon="6.81755">
        <ele>1522.4</ele>
        <time>2014-07-31T09:43:25.090Z</time>
      </trkpt>
      <trkpt lat="44.92543" lon="6.81761">
        <ele>1519</ele>
        <time>2014-07-31T09:43:26.070Z</time>
      </trkpt>
      <trkpt lat="44.92552" lon="6.81767">
        <ele>1518</ele>
        <time>2014-07-31T09:43:27.090Z</time>
      </trkpt>
      <trkpt lat="44.92561" lon="6.81773">
        <ele>1517.4</ele>
        <time>2014-07-31T09:43:28.190Z</time>
      </trkpt>
      <trkpt lat="44.92569" lon="6.8178">
        <ele>1516.4</ele>
        <time>2014-07-31T09:43:29.190Z</time>
      </trkpt>
      <trkpt lat="44.92579" lon="6.81788">
        <ele>1515.4</ele>
        <time>2014-07-31T09:43:30.190Z</time>
      </trkpt>
      <trkpt lat="44.92588" lon="6.81796">
        <ele>1513.1</ele>
        <time>2014-07-31T09:43:31.190Z</time>
      </trkpt>
      <trkpt lat="44.92605" lon="6.81815">
        <ele>1509.5</ele>
        <time>2014-07-31T09:43:33.090Z</time>
      </trkpt>
      <trkpt lat="44.92613" lon="6.81822">
        <ele>1508.3</ele>
        <time>2014-07-31T09:43:34.150Z</time>
      </trkpt>
      <trkpt lat="44.92621" lon="6.81829">
        <ele>1505.8</ele>
        <time>2014-07-31T09:43:35.190Z</time>
      </trkpt>
      <trkpt lat="44.92629" lon="6.81836">
        <ele>1505</ele>
        <time>2014-07-31T09:43:36.190Z</time>
      </trkpt>
      <trkpt lat="44.92637" lon="6.81844">
        <ele>1504.4</ele>
        <time>2014-07-31T09:43:37.170Z</time>
      </trkpt>
      <trkpt lat="44.92652" lon="6.81861">
        <ele>1502.5</ele>
        <time>2014-07-31T09:43:39.090Z</time>
      </trkpt>
      <trkpt lat="44.92659" lon="6.81869">
        <ele>1501.5</ele>
        <time>2014-07-31T09:43:40.090Z</time>
      </trkpt>
      <trkpt lat="44.92666" lon="6.81875">
        <ele>1500.5</ele>
        <time>2014-07-31T09:43:41.090Z</time>
      </trkpt>
      <trkpt lat="44.92674" lon="6.81879">
        <ele>1499.5</ele>
        <time>2014-07-31T09:43:42.090Z</time>
      </trkpt>
      <trkpt lat="44.92681" lon="6.8188">
        <ele>1498.5</ele>
        <time>2014-07-31T09:43:43.090Z</time>
      </trkpt>
      <trkpt lat="44.92689" lon="6.81881">
        <ele>1497.5</ele>
        <time>2014-07-31T09:43:44.090Z</time>
      </trkpt>
      <trkpt lat="44.92696" lon="6.81882">
        <ele>1496.5</ele>
        <time>2014-07-31T09:43:45.090Z</time>
      </trkpt>
      <trkpt lat="44.92704" lon="6.81882">
        <ele>1496</ele>
        <time>2014-07-31T09:43:46.090Z</time>
      </trkpt>
      <trkpt lat="44.92711" lon="6.81882">
        <ele>1495</ele>
        <time>2014-07-31T09:43:47.090Z</time>
      </trkpt>
      <trkpt lat="44.92719" lon="6.81882">
        <ele>1493</ele>
        <time>2014-07-31T09:43:48.090Z</time>
      </trkpt>
      <trkpt lat="44.92728" lon="6.81883">
        <ele>1492.6</ele>
        <time>2014-07-31T09:43:49.190Z</time>
      </trkpt>
      <trkpt lat="44.92736" lon="6.81886">
        <ele>1492.4</ele>
        <time>2014-07-31T09:43:50.190Z</time>
      </trkpt>
      <trkpt lat="44.92754" lon="6.81887">
        <ele>1488.5</ele>
        <time>2014-07-31T09:43:52.090Z</time>
      </trkpt>
      <trkpt lat="44.92761" lon="6.81886">
        <ele>1488</ele>
        <time>2014-07-31T09:43:53.190Z</time>
      </trkpt>
      <trkpt lat="44.9277" lon="6.81884">
        <ele>1486.8</ele>
        <time>2014-07-31T09:43:54.190Z</time>
      </trkpt>
      <trkpt lat="44.92788" lon="6.81881">
        <ele>1485</ele>
        <time>2014-07-31T09:43:56.090Z</time>
      </trkpt>
      <trkpt lat="44.92798" lon="6.81883">
        <ele>1484.5</ele>
        <time>2014-07-31T09:43:57.090Z</time>
      </trkpt>
      <trkpt lat="44.92805" lon="6.81882">
        <ele>1483.5</ele>
        <time>2014-07-31T09:43:58.090Z</time>
      </trkpt>
      <trkpt lat="44.92812" lon="6.81879">
        <ele>1482.5</ele>
        <time>2014-07-31T09:43:59.090Z</time>
      </trkpt>
      <trkpt lat="44.92819" lon="6.81874">
        <ele>1481.4</ele>
        <time>2014-07-31T09:44:00.150Z</time>
      </trkpt>
      <trkpt lat="44.92834" lon="6.8187">
        <ele>1480</ele>
        <time>2014-07-31T09:44:02.090Z</time>
      </trkpt>
      <trkpt lat="44.92841" lon="6.81872">
        <ele>1478.5</ele>
        <time>2014-07-31T09:44:03.090Z</time>
      </trkpt>
      <trkpt lat="44.92846" lon="6.81876">
        <ele>1477.5</ele>
        <time>2014-07-31T09:44:04.090Z</time>
      </trkpt>
      <trkpt lat="44.92851" lon="6.81884">
        <ele>1476.5</ele>
        <time>2014-07-31T09:44:05.090Z</time>
      </trkpt>
      <trkpt lat="44.92856" lon="6.81892">
        <ele>1475.4</ele>
        <time>2014-07-31T09:44:06.180Z</time>
      </trkpt>
      <trkpt lat="44.92862" lon="6.81901">
        <ele>1474.5</ele>
        <time>2014-07-31T09:44:07.090Z</time>
      </trkpt>
      <trkpt lat="44.92868" lon="6.81909">
        <ele>1474</ele>
        <time>2014-07-31T09:44:08.090Z</time>
      </trkpt>
      <trkpt lat="44.92873" lon="6.81916">
        <ele>1474</ele>
        <time>2014-07-31T09:44:09.090Z</time>
      </trkpt>
      <trkpt lat="44.92881" lon="6.81921">
        <ele>1473</ele>
        <time>2014-07-31T09:44:10.070Z</time>
      </trkpt>
      <trkpt lat="44.92891" lon="6.81923">
        <ele>1471.5</ele>
        <time>2014-07-31T09:44:11.090Z</time>
      </trkpt>
      <trkpt lat="44.92902" lon="6.81924">
        <ele>1470.5</ele>
        <time>2014-07-31T09:44:12.090Z</time>
      </trkpt>
      <trkpt lat="44.92913" lon="6.81925">
        <ele>1469.4</ele>
        <time>2014-07-31T09:44:13.190Z</time>
      </trkpt>
      <trkpt lat="44.92922" lon="6.81927">
        <ele>1468.4</ele>
        <time>2014-07-31T09:44:14.190Z</time>
      </trkpt>
      <trkpt lat="44.92933" lon="6.81929">
        <ele>1467.4</ele>
        <time>2014-07-31T09:44:15.190Z</time>
      </trkpt>
      <trkpt lat="44.92943" lon="6.81931">
        <ele>1466.4</ele>
        <time>2014-07-31T09:44:16.190Z</time>
      </trkpt>
      <trkpt lat="44.92962" lon="6.81937">
        <ele>1464.4</ele>
        <time>2014-07-31T09:44:18.190Z</time>
      </trkpt>
      <trkpt lat="44.9297" lon="6.81939">
        <ele>1463.4</ele>
        <time>2014-07-31T09:44:19.190Z</time>
      </trkpt>
      <trkpt lat="44.92977" lon="6.81941">
        <ele>1462.4</ele>
        <time>2014-07-31T09:44:20.190Z</time>
      </trkpt>
      <trkpt lat="44.92995" lon="6.81947">
        <ele>1460.5</ele>
        <time>2014-07-31T09:44:22.090Z</time>
      </trkpt>
      <trkpt lat="44.93004" lon="6.81948">
        <ele>1459.5</ele>
        <time>2014-07-31T09:44:23.090Z</time>
      </trkpt>
      <trkpt lat="44.93011" lon="6.81947">
        <ele>1458.5</ele>
        <time>2014-07-31T09:44:24.090Z</time>
      </trkpt>
      <trkpt lat="44.93018" lon="6.81943">
        <ele>1458</ele>
        <time>2014-07-31T09:44:25.090Z</time>
      </trkpt>
      <trkpt lat="44.93023" lon="6.81938">
        <ele>1458.5</ele>
        <time>2014-07-31T09:44:26.090Z</time>
      </trkpt>
      <trkpt lat="44.93026" lon="6.81933">
        <ele>1459.5</ele>
        <time>2014-07-31T09:44:27.090Z</time>
      </trkpt>
      <trkpt lat="44.93028" lon="6.81929">
        <ele>1460</ele>
        <time>2014-07-31T09:44:28.090Z</time>
      </trkpt>
      <trkpt lat="44.9303" lon="6.81925">
        <ele>1460</ele>
        <time>2014-07-31T09:44:29.150Z</time>
      </trkpt>
      <trkpt lat="44.93032" lon="6.81922">
        <ele>1460.6</ele>
        <time>2014-07-31T09:44:30.190Z</time>
      </trkpt>
      <trkpt lat="44.93033" lon="6.81919">
        <ele>1461</ele>
        <time>2014-07-31T09:44:31.190Z</time>
      </trkpt>
      <trkpt lat="44.93036" lon="6.81917">
        <ele>1461</ele>
        <time>2014-07-31T09:44:32.190Z</time>
      </trkpt>
      <trkpt lat="44.93037" lon="6.81916">
        <ele>1460.4</ele>
        <time>2014-07-31T09:44:33.190Z</time>
      </trkpt>
      <trkpt lat="44.93038" lon="6.81913">
        <ele>1460</ele>
        <time>2014-07-31T09:44:35.090Z</time>
      </trkpt>
      <trkpt lat="44.93039" lon="6.81912">
        <ele>1460</ele>
        <time>2014-07-31T09:44:36.090Z</time>
      </trkpt>
      <trkpt lat="44.9304" lon="6.8191">
        <ele>1460</ele>
        <time>2014-07-31T09:44:37.090Z</time>
      </trkpt>
      <trkpt lat="44.93042" lon="6.81908">
        <ele>1460</ele>
        <time>2014-07-31T09:44:38.090Z</time>
      </trkpt>
      <trkpt lat="44.93043" lon="6.81905">
        <ele>1460</ele>
        <time>2014-07-31T09:44:39.090Z</time>
      </trkpt>
      <trkpt lat="44.93045" lon="6.81903">
        <ele>1460</ele>
        <time>2014-07-31T09:44:40.090Z</time>
      </trkpt>
      <trkpt lat="44.93046" lon="6.819">
        <ele>1460</ele>
        <time>2014-07-31T09:44:41.090Z</time>
      </trkpt>
      <trkpt lat="44.93048" lon="6.81897">
        <ele>1460</ele>
        <time>2014-07-31T09:44:42.090Z</time>
      </trkpt>
      <trkpt lat="44.93049" lon="6.81895">
        <ele>1460</ele>
        <time>2014-07-31T09:44:43.090Z</time>
      </trkpt>
      <trkpt lat="44.9305" lon="6.81892">
        <ele>1460</ele>
        <time>2014-07-31T09:44:44.090Z</time>
      </trkpt>
      <trkpt lat="44.93052" lon="6.8189">
        <ele>1461</ele>
        <time>2014-07-31T09:44:45.070Z</time>
      </trkpt>
      <trkpt lat="44.93053" lon="6.81887">
        <ele>1462</ele>
        <time>2014-07-31T09:44:46.150Z</time>
      </trkpt>
      <trkpt lat="44.93055" lon="6.81885">
        <ele>1462</ele>
        <time>2014-07-31T09:44:47.190Z</time>
      </trkpt>
      <trkpt lat="44.93056" lon="6.81883">
        <ele>1462</ele>
        <time>2014-07-31T09:44:48.190Z</time>
      </trkpt>
      <trkpt lat="44.93057" lon="6.81882">
        <ele>1462</ele>
        <time>2014-07-31T09:44:49.190Z</time>
      </trkpt>
      <trkpt lat="44.93057" lon="6.8188">
        <ele>1462</ele>
        <time>2014-07-31T09:44:50.190Z</time>
      </trkpt>
      <trkpt lat="44.9306" lon="6.81876">
        <ele>1462</ele>
        <time>2014-07-31T09:44:52.090Z</time>
      </trkpt>
      <trkpt lat="44.93061" lon="6.81874">
        <ele>1462</ele>
        <time>2014-07-31T09:44:53.280Z</time>
      </trkpt>
      <trkpt lat="44.93062" lon="6.81871">
        <ele>1462</ele>
        <time>2014-07-31T09:44:54.190Z</time>
      </trkpt>
      <trkpt lat="44.93063" lon="6.81869">
        <ele>1463.2</ele>
        <time>2014-07-31T09:44:55.190Z</time>
      </trkpt>
      <trkpt lat="44.93064" lon="6.81865">
        <ele>1464</ele>
        <time>2014-07-31T09:44:57.090Z</time>
      </trkpt>
      <trkpt lat="44.93065" lon="6.81863">
        <ele>1464</ele>
        <time>2014-07-31T09:44:58.090Z</time>
      </trkpt>
      <trkpt lat="44.93066" lon="6.81861">
        <ele>1464</ele>
        <time>2014-07-31T09:44:59.090Z</time>
      </trkpt>
      <trkpt lat="44.93067" lon="6.81859">
        <ele>1464</ele>
        <time>2014-07-31T09:45:00.150Z</time>
      </trkpt>
      <trkpt lat="44.93068" lon="6.81857">
        <ele>1464</ele>
        <time>2014-07-31T09:45:01.190Z</time>
      </trkpt>
      <trkpt lat="44.93069" lon="6.81855">
        <ele>1464</ele>
        <time>2014-07-31T09:45:02.190Z</time>
      </trkpt>
      <trkpt lat="44.9307" lon="6.81853">
        <ele>1464</ele>
        <time>2014-07-31T09:45:03.090Z</time>
      </trkpt>
      <trkpt lat="44.9307" lon="6.81852">
        <ele>1464</ele>
        <time>2014-07-31T09:45:04.190Z</time>
      </trkpt>
      <trkpt lat="44.93071" lon="6.8185">
        <ele>1465.2</ele>
        <time>2014-07-31T09:45:05.190Z</time>
      </trkpt>
      <trkpt lat="44.93072" lon="6.81848">
        <ele>1466</ele>
        <time>2014-07-31T09:45:06.190Z</time>
      </trkpt>
      <trkpt lat="44.93073" lon="6.81844">
        <ele>1466</ele>
        <time>2014-07-31T09:45:08.090Z</time>
      </trkpt>
      <trkpt lat="44.93074" lon="6.81842">
        <ele>1466</ele>
        <time>2014-07-31T09:45:09.090Z</time>
      </trkpt>
      <trkpt lat="44.93075" lon="6.81841">
        <ele>1466</ele>
        <time>2014-07-31T09:45:10.090Z</time>
      </trkpt>
      <trkpt lat="44.93077" lon="6.81839">
        <ele>1466</ele>
        <time>2014-07-31T09:45:11.090Z</time>
      </trkpt>
      <trkpt lat="44.93078" lon="6.81837">
        <ele>1466</ele>
        <time>2014-07-31T09:45:12.090Z</time>
      </trkpt>
      <trkpt lat="44.9308" lon="6.81835">
        <ele>1466</ele>
        <time>2014-07-31T09:45:13.090Z</time>
      </trkpt>
      <trkpt lat="44.93081" lon="6.81833">
        <ele>1466</ele>
        <time>2014-07-31T09:45:14.090Z</time>
      </trkpt>
      <trkpt lat="44.93082" lon="6.81831">
        <ele>1467</ele>
        <time>2014-07-31T09:45:15.090Z</time>
      </trkpt>
      <trkpt lat="44.93083" lon="6.81828">
        <ele>1468</ele>
        <time>2014-07-31T09:45:16.090Z</time>
      </trkpt>
      <trkpt lat="44.93085" lon="6.81826">
        <ele>1468</ele>
        <time>2014-07-31T09:45:17.150Z</time>
      </trkpt>
      <trkpt lat="44.93087" lon="6.81823">
        <ele>1468</ele>
        <time>2014-07-31T09:45:19.080Z</time>
      </trkpt>
      <trkpt lat="44.93089" lon="6.81821">
        <ele>1468</ele>
        <time>2014-07-31T09:45:20.150Z</time>
      </trkpt>
      <trkpt lat="44.9309" lon="6.81819">
        <ele>1468</ele>
        <time>2014-07-31T09:45:21.190Z</time>
      </trkpt>
      <trkpt lat="44.93091" lon="6.81817">
        <ele>1468</ele>
        <time>2014-07-31T09:45:22.190Z</time>
      </trkpt>
      <trkpt lat="44.93093" lon="6.81815">
        <ele>1468</ele>
        <time>2014-07-31T09:45:23.190Z</time>
      </trkpt>
      <trkpt lat="44.93095" lon="6.81813">
        <ele>1468</ele>
        <time>2014-07-31T09:45:24.190Z</time>
      </trkpt>
      <trkpt lat="44.93096" lon="6.81812">
        <ele>1469.9</ele>
        <time>2014-07-31T09:45:25.190Z</time>
      </trkpt>
      <trkpt lat="44.93098" lon="6.8181">
        <ele>1471</ele>
        <time>2014-07-31T09:45:26.190Z</time>
      </trkpt>
      <trkpt lat="44.931" lon="6.81809">
        <ele>1471</ele>
        <time>2014-07-31T09:45:27.190Z</time>
      </trkpt>
      <trkpt lat="44.93101" lon="6.81807">
        <ele>1471</ele>
        <time>2014-07-31T09:45:28.190Z</time>
      </trkpt>
      <trkpt lat="44.93102" lon="6.81805">
        <ele>1471</ele>
        <time>2014-07-31T09:45:29.190Z</time>
      </trkpt>
      <trkpt lat="44.93104" lon="6.81804">
        <ele>1471.6</ele>
        <time>2014-07-31T09:45:30.170Z</time>
      </trkpt>
      <trkpt lat="44.93105" lon="6.81803">
        <ele>1472</ele>
        <time>2014-07-31T09:45:31.190Z</time>
      </trkpt>
      <trkpt lat="44.93106" lon="6.81801">
        <ele>1472</ele>
        <time>2014-07-31T09:45:32.190Z</time>
      </trkpt>
      <trkpt lat="44.93107" lon="6.818">
        <ele>1472</ele>
        <time>2014-07-31T09:45:33.190Z</time>
      </trkpt>
      <trkpt lat="44.93109" lon="6.81798">
        <ele>1472.5</ele>
        <time>2014-07-31T09:45:35.090Z</time>
      </trkpt>
      <trkpt lat="44.93111" lon="6.81797">
        <ele>1473</ele>
        <time>2014-07-31T09:45:36.090Z</time>
      </trkpt>
      <trkpt lat="44.93112" lon="6.81795">
        <ele>1473</ele>
        <time>2014-07-31T09:45:37.150Z</time>
      </trkpt>
      <trkpt lat="44.93113" lon="6.81794">
        <ele>1473</ele>
        <time>2014-07-31T09:45:38.190Z</time>
      </trkpt>
      <trkpt lat="44.93114" lon="6.81793">
        <ele>1473</ele>
        <time>2014-07-31T09:45:39.190Z</time>
      </trkpt>
      <trkpt lat="44.93115" lon="6.81791">
        <ele>1473</ele>
        <time>2014-07-31T09:45:40.190Z</time>
      </trkpt>
      <trkpt lat="44.93116" lon="6.81789">
        <ele>1473</ele>
        <time>2014-07-31T09:45:41.170Z</time>
      </trkpt>
      <trkpt lat="44.93118" lon="6.81788">
        <ele>1473</ele>
        <time>2014-07-31T09:45:42.190Z</time>
      </trkpt>
      <trkpt lat="44.93119" lon="6.81786">
        <ele>1473</ele>
        <time>2014-07-31T09:45:43.190Z</time>
      </trkpt>
      <trkpt lat="44.93121" lon="6.81784">
        <ele>1473</ele>
        <time>2014-07-31T09:45:44.190Z</time>
      </trkpt>
      <trkpt lat="44.93122" lon="6.81783">
        <ele>1474.2</ele>
        <time>2014-07-31T09:45:45.190Z</time>
      </trkpt>
      <trkpt lat="44.93124" lon="6.8178">
        <ele>1475</ele>
        <time>2014-07-31T09:45:46.190Z</time>
      </trkpt>
      <trkpt lat="44.93125" lon="6.81778">
        <ele>1475</ele>
        <time>2014-07-31T09:45:47.190Z</time>
      </trkpt>
      <trkpt lat="44.93126" lon="6.81776">
        <ele>1475</ele>
        <time>2014-07-31T09:45:48.280Z</time>
      </trkpt>
      <trkpt lat="44.93127" lon="6.81775">
        <ele>1475</ele>
        <time>2014-07-31T09:45:49.190Z</time>
      </trkpt>
      <trkpt lat="44.93128" lon="6.81773">
        <ele>1475</ele>
        <time>2014-07-31T09:45:50.190Z</time>
      </trkpt>
      <trkpt lat="44.93131" lon="6.8177">
        <ele>1475</ele>
        <time>2014-07-31T09:45:52.090Z</time>
      </trkpt>
      <trkpt lat="44.93132" lon="6.81769">
        <ele>1475</ele>
        <time>2014-07-31T09:45:53.190Z</time>
      </trkpt>
      <trkpt lat="44.93135" lon="6.81765">
        <ele>1476</ele>
        <time>2014-07-31T09:45:55.090Z</time>
      </trkpt>
      <trkpt lat="44.93136" lon="6.81763">
        <ele>1477</ele>
        <time>2014-07-31T09:45:56.090Z</time>
      </trkpt>
      <trkpt lat="44.93137" lon="6.81761">
        <ele>1477</ele>
        <time>2014-07-31T09:45:57.090Z</time>
      </trkpt>
      <trkpt lat="44.93137" lon="6.81759">
        <ele>1477</ele>
        <time>2014-07-31T09:45:58.090Z</time>
      </trkpt>
      <trkpt lat="44.93138" lon="6.81757">
        <ele>1477</ele>
        <time>2014-07-31T09:45:59.090Z</time>
      </trkpt>
      <trkpt lat="44.9314" lon="6.81756">
        <ele>1477</ele>
        <time>2014-07-31T09:45:59.980Z</time>
      </trkpt>
      <trkpt lat="44.93142" lon="6.81756">
        <ele>1477</ele>
        <time>2014-07-31T09:46:01.180Z</time>
      </trkpt>
      <trkpt lat="44.93143" lon="6.81754">
        <ele>1477</ele>
        <time>2014-07-31T09:46:02.070Z</time>
      </trkpt>
      <trkpt lat="44.93144" lon="6.81753">
        <ele>1477</ele>
        <time>2014-07-31T09:46:03.190Z</time>
      </trkpt>
      <trkpt lat="44.93145" lon="6.81752">
        <ele>1477</ele>
        <time>2014-07-31T09:46:04.190Z</time>
      </trkpt>
      <trkpt lat="44.93146" lon="6.8175">
        <ele>1478.2</ele>
        <time>2014-07-31T09:46:05.190Z</time>
      </trkpt>
      <trkpt lat="44.93147" lon="6.81748">
        <ele>1479</ele>
        <time>2014-07-31T09:46:06.190Z</time>
      </trkpt>
      <trkpt lat="44.93148" lon="6.81746">
        <ele>1479</ele>
        <time>2014-07-31T09:46:07.190Z</time>
      </trkpt>
      <trkpt lat="44.93149" lon="6.81743">
        <ele>1479</ele>
        <time>2014-07-31T09:46:08.190Z</time>
      </trkpt>
      <trkpt lat="44.9315" lon="6.81741">
        <ele>1479</ele>
        <time>2014-07-31T09:46:09.190Z</time>
      </trkpt>
      <trkpt lat="44.9315" lon="6.81739">
        <ele>1479</ele>
        <time>2014-07-31T09:46:10.190Z</time>
      </trkpt>
      <trkpt lat="44.93153" lon="6.81735">
        <ele>1479</ele>
        <time>2014-07-31T09:46:12.090Z</time>
      </trkpt>
      <trkpt lat="44.93154" lon="6.81733">
        <ele>1479</ele>
        <time>2014-07-31T09:46:13.090Z</time>
      </trkpt>
      <trkpt lat="44.93155" lon="6.81732">
        <ele>1479</ele>
        <time>2014-07-31T09:46:14.280Z</time>
      </trkpt>
      <trkpt lat="44.93155" lon="6.81731">
        <ele>1480.2</ele>
        <time>2014-07-31T09:46:15.190Z</time>
      </trkpt>
      <trkpt lat="44.93156" lon="6.8173">
        <ele>1481</ele>
        <time>2014-07-31T09:46:16.190Z</time>
      </trkpt>
      <trkpt lat="44.93159" lon="6.81727">
        <ele>1481</ele>
        <time>2014-07-31T09:46:18.190Z</time>
      </trkpt>
      <trkpt lat="44.9316" lon="6.81726">
        <ele>1481</ele>
        <time>2014-07-31T09:46:19.190Z</time>
      </trkpt>
      <trkpt lat="44.93161" lon="6.81724">
        <ele>1481</ele>
        <time>2014-07-31T09:46:20.190Z</time>
      </trkpt>
      <trkpt lat="44.93162" lon="6.81723">
        <ele>1481</ele>
        <time>2014-07-31T09:46:21.190Z</time>
      </trkpt>
      <trkpt lat="44.93164" lon="6.81721">
        <ele>1481</ele>
        <time>2014-07-31T09:46:22.190Z</time>
      </trkpt>
      <trkpt lat="44.93165" lon="6.81719">
        <ele>1481</ele>
        <time>2014-07-31T09:46:23.190Z</time>
      </trkpt>
      <trkpt lat="44.93166" lon="6.81717">
        <ele>1481</ele>
        <time>2014-07-31T09:46:24.190Z</time>
      </trkpt>
      <trkpt lat="44.93168" lon="6.81715">
        <ele>1481.6</ele>
        <time>2014-07-31T09:46:25.190Z</time>
      </trkpt>
      <trkpt lat="44.9317" lon="6.81713">
        <ele>1482</ele>
        <time>2014-07-31T09:46:26.170Z</time>
      </trkpt>
      <trkpt lat="44.93171" lon="6.81712">
        <ele>1482</ele>
        <time>2014-07-31T09:46:27.280Z</time>
      </trkpt>
      <trkpt lat="44.93173" lon="6.8171">
        <ele>1482</ele>
        <time>2014-07-31T09:46:28.150Z</time>
      </trkpt>
      <trkpt lat="44.93174" lon="6.81708">
        <ele>1482</ele>
        <time>2014-07-31T09:46:29.190Z</time>
      </trkpt>
      <trkpt lat="44.93176" lon="6.81707">
        <ele>1482</ele>
        <time>2014-07-31T09:46:30.190Z</time>
      </trkpt>
      <trkpt lat="44.93177" lon="6.81705">
        <ele>1482</ele>
        <time>2014-07-31T09:46:31.190Z</time>
      </trkpt>
      <trkpt lat="44.93178" lon="6.81703">
        <ele>1482</ele>
        <time>2014-07-31T09:46:32.190Z</time>
      </trkpt>
      <trkpt lat="44.93179" lon="6.817">
        <ele>1482</ele>
        <time>2014-07-31T09:46:33.190Z</time>
      </trkpt>
      <trkpt lat="44.9318" lon="6.81696">
        <ele>1483</ele>
        <time>2014-07-31T09:46:35.090Z</time>
      </trkpt>
      <trkpt lat="44.93181" lon="6.81694">
        <ele>1484</ele>
        <time>2014-07-31T09:46:36.090Z</time>
      </trkpt>
      <trkpt lat="44.93182" lon="6.81691">
        <ele>1484</ele>
        <time>2014-07-31T09:46:37.070Z</time>
      </trkpt>
      <trkpt lat="44.93183" lon="6.81689">
        <ele>1484</ele>
        <time>2014-07-31T09:46:38.090Z</time>
      </trkpt>
      <trkpt lat="44.93184" lon="6.81687">
        <ele>1484</ele>
        <time>2014-07-31T09:46:39.090Z</time>
      </trkpt>
      <trkpt lat="44.93184" lon="6.81684">
        <ele>1484</ele>
        <time>2014-07-31T09:46:40.180Z</time>
      </trkpt>
      <trkpt lat="44.93184" lon="6.81682">
        <ele>1484</ele>
        <time>2014-07-31T09:46:41.090Z</time>
      </trkpt>
      <trkpt lat="44.93185" lon="6.81679">
        <ele>1484</ele>
        <time>2014-07-31T09:46:42.090Z</time>
      </trkpt>
      <trkpt lat="44.93185" lon="6.81677">
        <ele>1484</ele>
        <time>2014-07-31T09:46:43.090Z</time>
      </trkpt>
      <trkpt lat="44.93185" lon="6.81674">
        <ele>1484</ele>
        <time>2014-07-31T09:46:44.090Z</time>
      </trkpt>
      <trkpt lat="44.93185" lon="6.81672">
        <ele>1485.2</ele>
        <time>2014-07-31T09:46:45.150Z</time>
      </trkpt>
      <trkpt lat="44.93186" lon="6.81669">
        <ele>1486</ele>
        <time>2014-07-31T09:46:46.190Z</time>
      </trkpt>
      <trkpt lat="44.93186" lon="6.81667">
        <ele>1486</ele>
        <time>2014-07-31T09:46:47.190Z</time>
      </trkpt>
      <trkpt lat="44.93187" lon="6.81665">
        <ele>1486</ele>
        <time>2014-07-31T09:46:48.170Z</time>
      </trkpt>
      <trkpt lat="44.93188" lon="6.81663">
        <ele>1486</ele>
        <time>2014-07-31T09:46:49.190Z</time>
      </trkpt>
      <trkpt lat="44.93188" lon="6.81661">
        <ele>1486</ele>
        <time>2014-07-31T09:46:50.190Z</time>
      </trkpt>
      <trkpt lat="44.93189" lon="6.81656">
        <ele>1486</ele>
        <time>2014-07-31T09:46:52.090Z</time>
      </trkpt>
      <trkpt lat="44.93189" lon="6.81654">
        <ele>1486</ele>
        <time>2014-07-31T09:46:53.190Z</time>
      </trkpt>
      <trkpt lat="44.93189" lon="6.81652">
        <ele>1486</ele>
        <time>2014-07-31T09:46:54.190Z</time>
      </trkpt>
      <trkpt lat="44.93189" lon="6.8165">
        <ele>1487.2</ele>
        <time>2014-07-31T09:46:55.190Z</time>
      </trkpt>
      <trkpt lat="44.93189" lon="6.81648">
        <ele>1488</ele>
        <time>2014-07-31T09:46:56.190Z</time>
      </trkpt>
      <trkpt lat="44.93189" lon="6.81646">
        <ele>1488</ele>
        <time>2014-07-31T09:46:57.190Z</time>
      </trkpt>
      <trkpt lat="44.9319" lon="6.81643">
        <ele>1488</ele>
        <time>2014-07-31T09:46:58.190Z</time>
      </trkpt>
      <trkpt lat="44.9319" lon="6.81641">
        <ele>1488</ele>
        <time>2014-07-31T09:46:59.190Z</time>
      </trkpt>
      <trkpt lat="44.9319" lon="6.81636">
        <ele>1488</ele>
        <time>2014-07-31T09:47:01.090Z</time>
      </trkpt>
      <trkpt lat="44.9319" lon="6.81634">
        <ele>1488</ele>
        <time>2014-07-31T09:47:02.150Z</time>
      </trkpt>
      <trkpt lat="44.93189" lon="6.81632">
        <ele>1488</ele>
        <time>2014-07-31T09:47:03.190Z</time>
      </trkpt>
      <trkpt lat="44.93189" lon="6.8163">
        <ele>1488</ele>
        <time>2014-07-31T09:47:04.190Z</time>
      </trkpt>
      <trkpt lat="44.93189" lon="6.81628">
        <ele>1489.2</ele>
        <time>2014-07-31T09:47:05.190Z</time>
      </trkpt>
      <trkpt lat="44.93189" lon="6.81626">
        <ele>1490</ele>
        <time>2014-07-31T09:47:06.190Z</time>
      </trkpt>
      <trkpt lat="44.93189" lon="6.81624">
        <ele>1490</ele>
        <time>2014-07-31T09:47:07.190Z</time>
      </trkpt>
      <trkpt lat="44.93189" lon="6.81622">
        <ele>1490</ele>
        <time>2014-07-31T09:47:08.190Z</time>
      </trkpt>
      <trkpt lat="44.93189" lon="6.81619">
        <ele>1490</ele>
        <time>2014-07-31T09:47:09.170Z</time>
      </trkpt>
      <trkpt lat="44.93189" lon="6.81617">
        <ele>1490</ele>
        <time>2014-07-31T09:47:10.190Z</time>
      </trkpt>
      <trkpt lat="44.93189" lon="6.81615">
        <ele>1490</ele>
        <time>2014-07-31T09:47:11.190Z</time>
      </trkpt>
      <trkpt lat="44.93189" lon="6.81613">
        <ele>1490</ele>
        <time>2014-07-31T09:47:12.190Z</time>
      </trkpt>
      <trkpt lat="44.9319" lon="6.81611">
        <ele>1490</ele>
        <time>2014-07-31T09:47:13.190Z</time>
      </trkpt>
      <trkpt lat="44.93191" lon="6.81609">
        <ele>1490</ele>
        <time>2014-07-31T09:47:14.190Z</time>
      </trkpt>
      <trkpt lat="44.93191" lon="6.81607">
        <ele>1490.6</ele>
        <time>2014-07-31T09:47:15.190Z</time>
      </trkpt>
      <trkpt lat="44.93192" lon="6.81606">
        <ele>1491</ele>
        <time>2014-07-31T09:47:16.190Z</time>
      </trkpt>
      <trkpt lat="44.93192" lon="6.81602">
        <ele>1491</ele>
        <time>2014-07-31T09:47:18.190Z</time>
      </trkpt>
      <trkpt lat="44.93191" lon="6.81598">
        <ele>1491</ele>
        <time>2014-07-31T09:47:20.090Z</time>
      </trkpt>
      <trkpt lat="44.93188" lon="6.81595">
        <ele>1491</ele>
        <time>2014-07-31T09:47:22.090Z</time>
      </trkpt>
      <trkpt lat="44.93188" lon="6.81592">
        <ele>1491</ele>
        <time>2014-07-31T09:47:23.090Z</time>
      </trkpt>
      <trkpt lat="44.93187" lon="6.8159">
        <ele>1491</ele>
        <time>2014-07-31T09:47:24.090Z</time>
      </trkpt>
      <trkpt lat="44.93186" lon="6.81588">
        <ele>1492</ele>
        <time>2014-07-31T09:47:25.090Z</time>
      </trkpt>
      <trkpt lat="44.93186" lon="6.81585">
        <ele>1493</ele>
        <time>2014-07-31T09:47:26.090Z</time>
      </trkpt>
      <trkpt lat="44.93185" lon="6.81583">
        <ele>1493</ele>
        <time>2014-07-31T09:47:27.090Z</time>
      </trkpt>
      <trkpt lat="44.93185" lon="6.81581">
        <ele>1493</ele>
        <time>2014-07-31T09:47:28.090Z</time>
      </trkpt>
      <trkpt lat="44.93185" lon="6.81578">
        <ele>1493</ele>
        <time>2014-07-31T09:47:29.090Z</time>
      </trkpt>
      <trkpt lat="44.93185" lon="6.81576">
        <ele>1493</ele>
        <time>2014-07-31T09:47:30.090Z</time>
      </trkpt>
      <trkpt lat="44.93185" lon="6.81574">
        <ele>1493</ele>
        <time>2014-07-31T09:47:31.090Z</time>
      </trkpt>
      <trkpt lat="44.93185" lon="6.81571">
        <ele>1493</ele>
        <time>2014-07-31T09:47:32.090Z</time>
      </trkpt>
      <trkpt lat="44.93185" lon="6.8157">
        <ele>1493</ele>
        <time>2014-07-31T09:47:33.090Z</time>
      </trkpt>
      <trkpt lat="44.93186" lon="6.81568">
        <ele>1493</ele>
        <time>2014-07-31T09:47:34.150Z</time>
      </trkpt>
      <trkpt lat="44.93185" lon="6.81565">
        <ele>1494.2</ele>
        <time>2014-07-31T09:47:35.190Z</time>
      </trkpt>
      <trkpt lat="44.93186" lon="6.8156">
        <ele>1495</ele>
        <time>2014-07-31T09:47:37.090Z</time>
      </trkpt>
      <trkpt lat="44.93186" lon="6.81557">
        <ele>1495</ele>
        <time>2014-07-31T09:47:38.090Z</time>
      </trkpt>
      <trkpt lat="44.93187" lon="6.81555">
        <ele>1495</ele>
        <time>2014-07-31T09:47:39.090Z</time>
      </trkpt>
      <trkpt lat="44.93188" lon="6.81552">
        <ele>1495</ele>
        <time>2014-07-31T09:47:40.090Z</time>
      </trkpt>
      <trkpt lat="44.93188" lon="6.8155">
        <ele>1495</ele>
        <time>2014-07-31T09:47:41.090Z</time>
      </trkpt>
      <trkpt lat="44.93188" lon="6.81547">
        <ele>1495</ele>
        <time>2014-07-31T09:47:42.090Z</time>
      </trkpt>
      <trkpt lat="44.93189" lon="6.81544">
        <ele>1495</ele>
        <time>2014-07-31T09:47:43.090Z</time>
      </trkpt>
      <trkpt lat="44.93189" lon="6.81541">
        <ele>1495</ele>
        <time>2014-07-31T09:47:44.090Z</time>
      </trkpt>
      <trkpt lat="44.9319" lon="6.81539">
        <ele>1495.5</ele>
        <time>2014-07-31T09:47:45.070Z</time>
      </trkpt>
      <trkpt lat="44.9319" lon="6.81536">
        <ele>1496</ele>
        <time>2014-07-31T09:47:46.180Z</time>
      </trkpt>
      <trkpt lat="44.93191" lon="6.81534">
        <ele>1496</ele>
        <time>2014-07-31T09:47:47.090Z</time>
      </trkpt>
      <trkpt lat="44.93191" lon="6.81531">
        <ele>1496</ele>
        <time>2014-07-31T09:47:48.090Z</time>
      </trkpt>
      <trkpt lat="44.93192" lon="6.81528">
        <ele>1496</ele>
        <time>2014-07-31T09:47:49.090Z</time>
      </trkpt>
      <trkpt lat="44.93192" lon="6.81526">
        <ele>1496</ele>
        <time>2014-07-31T09:47:50.090Z</time>
      </trkpt>
      <trkpt lat="44.93192" lon="6.81523">
        <ele>1496</ele>
        <time>2014-07-31T09:47:51.150Z</time>
      </trkpt>
      <trkpt lat="44.93193" lon="6.81521">
        <ele>1496</ele>
        <time>2014-07-31T09:47:52.190Z</time>
      </trkpt>
      <trkpt lat="44.93193" lon="6.81518">
        <ele>1496</ele>
        <time>2014-07-31T09:47:53.090Z</time>
      </trkpt>
      <trkpt lat="44.93193" lon="6.81515">
        <ele>1496</ele>
        <time>2014-07-31T09:47:54.190Z</time>
      </trkpt>
      <trkpt lat="44.93194" lon="6.81513">
        <ele>1497.2</ele>
        <time>2014-07-31T09:47:55.190Z</time>
      </trkpt>
      <trkpt lat="44.93195" lon="6.8151">
        <ele>1498</ele>
        <time>2014-07-31T09:47:56.170Z</time>
      </trkpt>
      <trkpt lat="44.93195" lon="6.81508">
        <ele>1498</ele>
        <time>2014-07-31T09:47:57.190Z</time>
      </trkpt>
      <trkpt lat="44.93195" lon="6.81506">
        <ele>1498</ele>
        <time>2014-07-31T09:47:58.190Z</time>
      </trkpt>
      <trkpt lat="44.93195" lon="6.81504">
        <ele>1498</ele>
        <time>2014-07-31T09:47:59.190Z</time>
      </trkpt>
      <trkpt lat="44.93196" lon="6.81499">
        <ele>1498</ele>
        <time>2014-07-31T09:48:01.090Z</time>
      </trkpt>
      <trkpt lat="44.93196" lon="6.81496">
        <ele>1498</ele>
        <time>2014-07-31T09:48:02.090Z</time>
      </trkpt>
      <trkpt lat="44.93196" lon="6.81493">
        <ele>1498</ele>
        <time>2014-07-31T09:48:03.090Z</time>
      </trkpt>
      <trkpt lat="44.93197" lon="6.81491">
        <ele>1498</ele>
        <time>2014-07-31T09:48:04.090Z</time>
      </trkpt>
      <trkpt lat="44.93197" lon="6.81488">
        <ele>1499.5</ele>
        <time>2014-07-31T09:48:05.070Z</time>
      </trkpt>
      <trkpt lat="44.93198" lon="6.81486">
        <ele>1501</ele>
        <time>2014-07-31T09:48:06.090Z</time>
      </trkpt>
      <trkpt lat="44.93198" lon="6.81484">
        <ele>1501</ele>
        <time>2014-07-31T09:48:07.090Z</time>
      </trkpt>
      <trkpt lat="44.93199" lon="6.81481">
        <ele>1501</ele>
        <time>2014-07-31T09:48:08.090Z</time>
      </trkpt>
      <trkpt lat="44.932" lon="6.81479">
        <ele>1501</ele>
        <time>2014-07-31T09:48:09.090Z</time>
      </trkpt>
      <trkpt lat="44.93201" lon="6.81476">
        <ele>1501</ele>
        <time>2014-07-31T09:48:10.150Z</time>
      </trkpt>
      <trkpt lat="44.93201" lon="6.81474">
        <ele>1501</ele>
        <time>2014-07-31T09:48:11.190Z</time>
      </trkpt>
      <trkpt lat="44.93202" lon="6.81472">
        <ele>1501</ele>
        <time>2014-07-31T09:48:12.190Z</time>
      </trkpt>
      <trkpt lat="44.93202" lon="6.8147">
        <ele>1501</ele>
        <time>2014-07-31T09:48:13.190Z</time>
      </trkpt>
      <trkpt lat="44.93203" lon="6.81468">
        <ele>1501</ele>
        <time>2014-07-31T09:48:14.190Z</time>
      </trkpt>
      <trkpt lat="44.93204" lon="6.81465">
        <ele>1501.6</ele>
        <time>2014-07-31T09:48:15.170Z</time>
      </trkpt>
      <trkpt lat="44.93205" lon="6.81463">
        <ele>1502</ele>
        <time>2014-07-31T09:48:16.190Z</time>
      </trkpt>
      <trkpt lat="44.93207" lon="6.81459">
        <ele>1502</ele>
        <time>2014-07-31T09:48:18.190Z</time>
      </trkpt>
      <trkpt lat="44.93208" lon="6.81456">
        <ele>1502</ele>
        <time>2014-07-31T09:48:19.190Z</time>
      </trkpt>
      <trkpt lat="44.93209" lon="6.81455">
        <ele>1502</ele>
        <time>2014-07-31T09:48:20.190Z</time>
      </trkpt>
      <trkpt lat="44.93209" lon="6.81453">
        <ele>1502</ele>
        <time>2014-07-31T09:48:21.190Z</time>
      </trkpt>
      <trkpt lat="44.9321" lon="6.81451">
        <ele>1502</ele>
        <time>2014-07-31T09:48:23.190Z</time>
      </trkpt>
      <trkpt lat="44.93212" lon="6.81448">
        <ele>1502</ele>
        <time>2014-07-31T09:48:24.190Z</time>
      </trkpt>
      <trkpt lat="44.93213" lon="6.81446">
        <ele>1503.2</ele>
        <time>2014-07-31T09:48:25.190Z</time>
      </trkpt>
      <trkpt lat="44.93215" lon="6.81444">
        <ele>1504</ele>
        <time>2014-07-31T09:48:26.190Z</time>
      </trkpt>
      <trkpt lat="44.93218" lon="6.81439">
        <ele>1504</ele>
        <time>2014-07-31T09:48:28.090Z</time>
      </trkpt>
      <trkpt lat="44.93219" lon="6.81437">
        <ele>1504</ele>
        <time>2014-07-31T09:48:29.090Z</time>
      </trkpt>
      <trkpt lat="44.9322" lon="6.81434">
        <ele>1504</ele>
        <time>2014-07-31T09:48:30.090Z</time>
      </trkpt>
      <trkpt lat="44.93221" lon="6.81432">
        <ele>1504</ele>
        <time>2014-07-31T09:48:31.090Z</time>
      </trkpt>
      <trkpt lat="44.93222" lon="6.8143">
        <ele>1504</ele>
        <time>2014-07-31T09:48:32.090Z</time>
      </trkpt>
      <trkpt lat="44.93223" lon="6.81428">
        <ele>1504</ele>
        <time>2014-07-31T09:48:33.190Z</time>
      </trkpt>
      <trkpt lat="44.93226" lon="6.81424">
        <ele>1505.6</ele>
        <time>2014-07-31T09:48:35.090Z</time>
      </trkpt>
      <trkpt lat="44.93228" lon="6.81423">
        <ele>1507</ele>
        <time>2014-07-31T09:48:36.090Z</time>
      </trkpt>
      <trkpt lat="44.93228" lon="6.8142">
        <ele>1507</ele>
        <time>2014-07-31T09:48:37.090Z</time>
      </trkpt>
      <trkpt lat="44.93229" lon="6.81419">
        <ele>1507</ele>
        <time>2014-07-31T09:48:38.190Z</time>
      </trkpt>
      <trkpt lat="44.9323" lon="6.81417">
        <ele>1507</ele>
        <time>2014-07-31T09:48:39.280Z</time>
      </trkpt>
      <trkpt lat="44.93231" lon="6.81415">
        <ele>1507.6</ele>
        <time>2014-07-31T09:48:40.190Z</time>
      </trkpt>
      <trkpt lat="44.93232" lon="6.81413">
        <ele>1508</ele>
        <time>2014-07-31T09:48:41.190Z</time>
      </trkpt>
      <trkpt lat="44.93233" lon="6.81411">
        <ele>1508</ele>
        <time>2014-07-31T09:48:42.190Z</time>
      </trkpt>
      <trkpt lat="44.93234" lon="6.81406">
        <ele>1508</ele>
        <time>2014-07-31T09:48:44.150Z</time>
      </trkpt>
      <trkpt lat="44.93235" lon="6.81404">
        <ele>1508</ele>
        <time>2014-07-31T09:48:45.190Z</time>
      </trkpt>
      <trkpt lat="44.93235" lon="6.81402">
        <ele>1508</ele>
        <time>2014-07-31T09:48:46.190Z</time>
      </trkpt>
      <trkpt lat="44.93235" lon="6.814">
        <ele>1508</ele>
        <time>2014-07-31T09:48:47.190Z</time>
      </trkpt>
      <trkpt lat="44.93237" lon="6.81395">
        <ele>1508</ele>
        <time>2014-07-31T09:48:49.090Z</time>
      </trkpt>
      <trkpt lat="44.93237" lon="6.81393">
        <ele>1508</ele>
        <time>2014-07-31T09:48:50.090Z</time>
      </trkpt>
      <trkpt lat="44.93237" lon="6.8139">
        <ele>1508</ele>
        <time>2014-07-31T09:48:50.950Z</time>
      </trkpt>
      <trkpt lat="44.93237" lon="6.81387">
        <ele>1508</ele>
        <time>2014-07-31T09:48:52.090Z</time>
      </trkpt>
      <trkpt lat="44.93238" lon="6.81385">
        <ele>1508</ele>
        <time>2014-07-31T09:48:53.190Z</time>
      </trkpt>
      <trkpt lat="44.93238" lon="6.81382">
        <ele>1508</ele>
        <time>2014-07-31T09:48:54.190Z</time>
      </trkpt>
      <trkpt lat="44.93239" lon="6.81379">
        <ele>1509.2</ele>
        <time>2014-07-31T09:48:55.190Z</time>
      </trkpt>
      <trkpt lat="44.93239" lon="6.81377">
        <ele>1510</ele>
        <time>2014-07-31T09:48:56.190Z</time>
      </trkpt>
      <trkpt lat="44.9324" lon="6.81374">
        <ele>1510</ele>
        <time>2014-07-31T09:48:57.190Z</time>
      </trkpt>
      <trkpt lat="44.93241" lon="6.81369">
        <ele>1510</ele>
        <time>2014-07-31T09:48:59.090Z</time>
      </trkpt>
      <trkpt lat="44.93241" lon="6.81367">
        <ele>1510</ele>
        <time>2014-07-31T09:49:00.150Z</time>
      </trkpt>
      <trkpt lat="44.93242" lon="6.81362">
        <ele>1510</ele>
        <time>2014-07-31T09:49:02.090Z</time>
      </trkpt>
      <trkpt lat="44.93242" lon="6.81359">
        <ele>1510</ele>
        <time>2014-07-31T09:49:03.090Z</time>
      </trkpt>
      <trkpt lat="44.93242" lon="6.81357">
        <ele>1510</ele>
        <time>2014-07-31T09:49:04.180Z</time>
      </trkpt>
      <trkpt lat="44.93242" lon="6.81355">
        <ele>1511</ele>
        <time>2014-07-31T09:49:05.090Z</time>
      </trkpt>
      <trkpt lat="44.93242" lon="6.81353">
        <ele>1512</ele>
        <time>2014-07-31T09:49:06.090Z</time>
      </trkpt>
      <trkpt lat="44.93241" lon="6.8135">
        <ele>1512</ele>
        <time>2014-07-31T09:49:07.090Z</time>
      </trkpt>
      <trkpt lat="44.93241" lon="6.81348">
        <ele>1512</ele>
        <time>2014-07-31T09:49:08.090Z</time>
      </trkpt>
      <trkpt lat="44.93242" lon="6.81345">
        <ele>1512</ele>
        <time>2014-07-31T09:49:09.090Z</time>
      </trkpt>
      <trkpt lat="44.93243" lon="6.81342">
        <ele>1512</ele>
        <time>2014-07-31T09:49:10.090Z</time>
      </trkpt>
      <trkpt lat="44.93244" lon="6.81337">
        <ele>1512</ele>
        <time>2014-07-31T09:49:12.090Z</time>
      </trkpt>
      <trkpt lat="44.93245" lon="6.81334">
        <ele>1512</ele>
        <time>2014-07-31T09:49:13.190Z</time>
      </trkpt>
      <trkpt lat="44.93246" lon="6.81332">
        <ele>1512</ele>
        <time>2014-07-31T09:49:14.190Z</time>
      </trkpt>
      <trkpt lat="44.93247" lon="6.81329">
        <ele>1513.2</ele>
        <time>2014-07-31T09:49:15.190Z</time>
      </trkpt>
      <trkpt lat="44.93246" lon="6.81327">
        <ele>1514</ele>
        <time>2014-07-31T09:49:16.190Z</time>
      </trkpt>
      <trkpt lat="44.93247" lon="6.81322">
        <ele>1514</ele>
        <time>2014-07-31T09:49:18.150Z</time>
      </trkpt>
      <trkpt lat="44.93248" lon="6.8132">
        <ele>1514</ele>
        <time>2014-07-31T09:49:19.190Z</time>
      </trkpt>
      <trkpt lat="44.93248" lon="6.81317">
        <ele>1514</ele>
        <time>2014-07-31T09:49:20.190Z</time>
      </trkpt>
      <trkpt lat="44.93249" lon="6.81314">
        <ele>1514</ele>
        <time>2014-07-31T09:49:21.170Z</time>
      </trkpt>
      <trkpt lat="44.93249" lon="6.81312">
        <ele>1514</ele>
        <time>2014-07-31T09:49:22.190Z</time>
      </trkpt>
      <trkpt lat="44.93249" lon="6.8131">
        <ele>1514</ele>
        <time>2014-07-31T09:49:23.190Z</time>
      </trkpt>
      <trkpt lat="44.93249" lon="6.81307">
        <ele>1514</ele>
        <time>2014-07-31T09:49:24.190Z</time>
      </trkpt>
      <trkpt lat="44.93249" lon="6.81304">
        <ele>1514.6</ele>
        <time>2014-07-31T09:49:25.190Z</time>
      </trkpt>
      <trkpt lat="44.9325" lon="6.81302">
        <ele>1515</ele>
        <time>2014-07-31T09:49:26.190Z</time>
      </trkpt>
      <trkpt lat="44.93251" lon="6.81299">
        <ele>1515</ele>
        <time>2014-07-31T09:49:27.190Z</time>
      </trkpt>
      <trkpt lat="44.93252" lon="6.81294">
        <ele>1515</ele>
        <time>2014-07-31T09:49:29.180Z</time>
      </trkpt>
      <trkpt lat="44.93253" lon="6.81292">
        <ele>1515</ele>
        <time>2014-07-31T09:49:30.090Z</time>
      </trkpt>
      <trkpt lat="44.93253" lon="6.81289">
        <ele>1515</ele>
        <time>2014-07-31T09:49:31.170Z</time>
      </trkpt>
      <trkpt lat="44.93253" lon="6.81286">
        <ele>1515</ele>
        <time>2014-07-31T09:49:32.190Z</time>
      </trkpt>
      <trkpt lat="44.93254" lon="6.8128">
        <ele>1515</ele>
        <time>2014-07-31T09:49:34.150Z</time>
      </trkpt>
      <trkpt lat="44.93254" lon="6.81276">
        <ele>1517</ele>
        <time>2014-07-31T09:49:36.090Z</time>
      </trkpt>
      <trkpt lat="44.93253" lon="6.81273">
        <ele>1517</ele>
        <time>2014-07-31T09:49:37.090Z</time>
      </trkpt>
      <trkpt lat="44.93253" lon="6.81271">
        <ele>1517</ele>
        <time>2014-07-31T09:49:38.190Z</time>
      </trkpt>
      <trkpt lat="44.93253" lon="6.81267">
        <ele>1517</ele>
        <time>2014-07-31T09:49:39.190Z</time>
      </trkpt>
      <trkpt lat="44.93253" lon="6.81265">
        <ele>1517</ele>
        <time>2014-07-31T09:49:40.190Z</time>
      </trkpt>
      <trkpt lat="44.93253" lon="6.81262">
        <ele>1517</ele>
        <time>2014-07-31T09:49:41.190Z</time>
      </trkpt>
      <trkpt lat="44.93252" lon="6.8126">
        <ele>1517</ele>
        <time>2014-07-31T09:49:42.190Z</time>
      </trkpt>
      <trkpt lat="44.9325" lon="6.81255">
        <ele>1517</ele>
        <time>2014-07-31T09:49:44.090Z</time>
      </trkpt>
      <trkpt lat="44.93249" lon="6.81253">
        <ele>1517.5</ele>
        <time>2014-07-31T09:49:45.090Z</time>
      </trkpt>
      <trkpt lat="44.93248" lon="6.81251">
        <ele>1518</ele>
        <time>2014-07-31T09:49:46.090Z</time>
      </trkpt>
      <trkpt lat="44.93247" lon="6.81249">
        <ele>1518</ele>
        <time>2014-07-31T09:49:47.090Z</time>
      </trkpt>
      <trkpt lat="44.93246" lon="6.81248">
        <ele>1518</ele>
        <time>2014-07-31T09:49:48.190Z</time>
      </trkpt>
      <trkpt lat="44.93244" lon="6.81246">
        <ele>1518</ele>
        <time>2014-07-31T09:49:49.190Z</time>
      </trkpt>
      <trkpt lat="44.93243" lon="6.81245">
        <ele>1518</ele>
        <time>2014-07-31T09:49:50.190Z</time>
      </trkpt>
      <trkpt lat="44.9324" lon="6.81242">
        <ele>1518</ele>
        <time>2014-07-31T09:49:52.150Z</time>
      </trkpt>
      <trkpt lat="44.93237" lon="6.81238">
        <ele>1518</ele>
        <time>2014-07-31T09:49:54.110Z</time>
      </trkpt>
      <trkpt lat="44.93235" lon="6.81236">
        <ele>1519.2</ele>
        <time>2014-07-31T09:49:55.190Z</time>
      </trkpt>
      <trkpt lat="44.93234" lon="6.81234">
        <ele>1520</ele>
        <time>2014-07-31T09:49:56.190Z</time>
      </trkpt>
      <trkpt lat="44.93233" lon="6.81232">
        <ele>1520</ele>
        <time>2014-07-31T09:49:57.190Z</time>
      </trkpt>
      <trkpt lat="44.93232" lon="6.8123">
        <ele>1520</ele>
        <time>2014-07-31T09:49:58.190Z</time>
      </trkpt>
      <trkpt lat="44.93232" lon="6.81227">
        <ele>1520</ele>
        <time>2014-07-31T09:49:59.190Z</time>
      </trkpt>
      <trkpt lat="44.9323" lon="6.81223">
        <ele>1520</ele>
        <time>2014-07-31T09:50:01.090Z</time>
      </trkpt>
      <trkpt lat="44.9323" lon="6.81221">
        <ele>1520</ele>
        <time>2014-07-31T09:50:02.090Z</time>
      </trkpt>
      <trkpt lat="44.93231" lon="6.81219">
        <ele>1520</ele>
        <time>2014-07-31T09:50:03.170Z</time>
      </trkpt>
      <trkpt lat="44.93231" lon="6.81217">
        <ele>1520</ele>
        <time>2014-07-31T09:50:04.190Z</time>
      </trkpt>
      <trkpt lat="44.93232" lon="6.81216">
        <ele>1520.6</ele>
        <time>2014-07-31T09:50:05.190Z</time>
      </trkpt>
      <trkpt lat="44.93233" lon="6.81214">
        <ele>1521</ele>
        <time>2014-07-31T09:50:06.190Z</time>
      </trkpt>
      <trkpt lat="44.93234" lon="6.81212">
        <ele>1521</ele>
        <time>2014-07-31T09:50:07.190Z</time>
      </trkpt>
      <trkpt lat="44.93235" lon="6.81208">
        <ele>1521</ele>
        <time>2014-07-31T09:50:09.150Z</time>
      </trkpt>
      <trkpt lat="44.93235" lon="6.81206">
        <ele>1521</ele>
        <time>2014-07-31T09:50:10.190Z</time>
      </trkpt>
      <trkpt lat="44.93236" lon="6.81203">
        <ele>1521</ele>
        <time>2014-07-31T09:50:11.190Z</time>
      </trkpt>
      <trkpt lat="44.93238" lon="6.81201">
        <ele>1521</ele>
        <time>2014-07-31T09:50:12.190Z</time>
      </trkpt>
      <trkpt lat="44.93241" lon="6.81195">
        <ele>1521</ele>
        <time>2014-07-31T09:50:14.090Z</time>
      </trkpt>
      <trkpt lat="44.93242" lon="6.81192">
        <ele>1522.6</ele>
        <time>2014-07-31T09:50:15.090Z</time>
      </trkpt>
      <trkpt lat="44.93244" lon="6.81189">
        <ele>1524</ele>
        <time>2014-07-31T09:50:16.090Z</time>
      </trkpt>
      <trkpt lat="44.93245" lon="6.81187">
        <ele>1524</ele>
        <time>2014-07-31T09:50:17.150Z</time>
      </trkpt>
      <trkpt lat="44.93246" lon="6.81185">
        <ele>1524</ele>
        <time>2014-07-31T09:50:18.190Z</time>
      </trkpt>
      <trkpt lat="44.93247" lon="6.81182">
        <ele>1524</ele>
        <time>2014-07-31T09:50:19.190Z</time>
      </trkpt>
      <trkpt lat="44.93248" lon="6.8118">
        <ele>1524.6</ele>
        <time>2014-07-31T09:50:20.190Z</time>
      </trkpt>
      <trkpt lat="44.93249" lon="6.81178">
        <ele>1525</ele>
        <time>2014-07-31T09:50:21.190Z</time>
      </trkpt>
      <trkpt lat="44.93249" lon="6.81176">
        <ele>1525</ele>
        <time>2014-07-31T09:50:22.190Z</time>
      </trkpt>
      <trkpt lat="44.93252" lon="6.81173">
        <ele>1525</ele>
        <time>2014-07-31T09:50:24.090Z</time>
      </trkpt>
      <trkpt lat="44.93253" lon="6.81171">
        <ele>1525.5</ele>
        <time>2014-07-31T09:50:25.090Z</time>
      </trkpt>
      <trkpt lat="44.93254" lon="6.81169">
        <ele>1526</ele>
        <time>2014-07-31T09:50:26.150Z</time>
      </trkpt>
      <trkpt lat="44.93256" lon="6.81166">
        <ele>1526</ele>
        <time>2014-07-31T09:50:27.190Z</time>
      </trkpt>
      <trkpt lat="44.93258" lon="6.8116">
        <ele>1526</ele>
        <time>2014-07-31T09:50:29.090Z</time>
      </trkpt>
      <trkpt lat="44.9326" lon="6.81158">
        <ele>1526</ele>
        <time>2014-07-31T09:50:30.090Z</time>
      </trkpt>
      <trkpt lat="44.93261" lon="6.81155">
        <ele>1526</ele>
        <time>2014-07-31T09:50:31.090Z</time>
      </trkpt>
      <trkpt lat="44.93262" lon="6.81153">
        <ele>1526</ele>
        <time>2014-07-31T09:50:32.090Z</time>
      </trkpt>
      <trkpt lat="44.93262" lon="6.81151">
        <ele>1526</ele>
        <time>2014-07-31T09:50:33.190Z</time>
      </trkpt>
      <trkpt lat="44.93264" lon="6.81146">
        <ele>1527.2</ele>
        <time>2014-07-31T09:50:35.190Z</time>
      </trkpt>
      <trkpt lat="44.93265" lon="6.81143">
        <ele>1528</ele>
        <time>2014-07-31T09:50:36.190Z</time>
      </trkpt>
      <trkpt lat="44.93265" lon="6.8114">
        <ele>1528</ele>
        <time>2014-07-31T09:50:37.190Z</time>
      </trkpt>
      <trkpt lat="44.93266" lon="6.81134">
        <ele>1528</ele>
        <time>2014-07-31T09:50:39.090Z</time>
      </trkpt>
      <trkpt lat="44.93266" lon="6.8113">
        <ele>1528</ele>
        <time>2014-07-31T09:50:40.090Z</time>
      </trkpt>
      <trkpt lat="44.93267" lon="6.81127">
        <ele>1528</ele>
        <time>2014-07-31T09:50:41.090Z</time>
      </trkpt>
      <trkpt lat="44.93266" lon="6.81124">
        <ele>1528</ele>
        <time>2014-07-31T09:50:42.090Z</time>
      </trkpt>
      <trkpt lat="44.93266" lon="6.81122">
        <ele>1528</ele>
        <time>2014-07-31T09:50:42.990Z</time>
      </trkpt>
      <trkpt lat="44.93266" lon="6.81119">
        <ele>1528</ele>
        <time>2014-07-31T09:50:44.090Z</time>
      </trkpt>
      <trkpt lat="44.93265" lon="6.81116">
        <ele>1529.1</ele>
        <time>2014-07-31T09:50:45.180Z</time>
      </trkpt>
      <trkpt lat="44.93263" lon="6.81114">
        <ele>1530</ele>
        <time>2014-07-31T09:50:46.090Z</time>
      </trkpt>
      <trkpt lat="44.93262" lon="6.81111">
        <ele>1530</ele>
        <time>2014-07-31T09:50:47.090Z</time>
      </trkpt>
      <trkpt lat="44.93261" lon="6.81108">
        <ele>1530</ele>
        <time>2014-07-31T09:50:48.190Z</time>
      </trkpt>
      <trkpt lat="44.93259" lon="6.81105">
        <ele>1530</ele>
        <time>2014-07-31T09:50:49.190Z</time>
      </trkpt>
      <trkpt lat="44.93258" lon="6.81103">
        <ele>1530</ele>
        <time>2014-07-31T09:50:50.190Z</time>
      </trkpt>
      <trkpt lat="44.93256" lon="6.81099">
        <ele>1530</ele>
        <time>2014-07-31T09:50:52.090Z</time>
      </trkpt>
      <trkpt lat="44.93255" lon="6.81098">
        <ele>1530</ele>
        <time>2014-07-31T09:50:53.090Z</time>
      </trkpt>
      <trkpt lat="44.93253" lon="6.81096">
        <ele>1530</ele>
        <time>2014-07-31T09:50:54.090Z</time>
      </trkpt>
      <trkpt lat="44.93251" lon="6.81094">
        <ele>1530.5</ele>
        <time>2014-07-31T09:50:55.090Z</time>
      </trkpt>
      <trkpt lat="44.93251" lon="6.81092">
        <ele>1531</ele>
        <time>2014-07-31T09:50:56.070Z</time>
      </trkpt>
      <trkpt lat="44.9325" lon="6.8109">
        <ele>1531</ele>
        <time>2014-07-31T09:50:57.090Z</time>
      </trkpt>
      <trkpt lat="44.93249" lon="6.81088">
        <ele>1531</ele>
        <time>2014-07-31T09:50:58.090Z</time>
      </trkpt>
      <trkpt lat="44.93248" lon="6.81086">
        <ele>1531</ele>
        <time>2014-07-31T09:50:59.090Z</time>
      </trkpt>
      <trkpt lat="44.93248" lon="6.81084">
        <ele>1531</ele>
        <time>2014-07-31T09:51:00.170Z</time>
      </trkpt>
      <trkpt lat="44.93247" lon="6.81082">
        <ele>1531</ele>
        <time>2014-07-31T09:51:01.190Z</time>
      </trkpt>
      <trkpt lat="44.93246" lon="6.8108">
        <ele>1531</ele>
        <time>2014-07-31T09:51:02.190Z</time>
      </trkpt>
      <trkpt lat="44.93245" lon="6.81077">
        <ele>1531</ele>
        <time>2014-07-31T09:51:03.190Z</time>
      </trkpt>
      <trkpt lat="44.93244" lon="6.81076">
        <ele>1531</ele>
        <time>2014-07-31T09:51:04.170Z</time>
      </trkpt>
      <trkpt lat="44.93243" lon="6.81074">
        <ele>1532.2</ele>
        <time>2014-07-31T09:51:05.190Z</time>
      </trkpt>
      <trkpt lat="44.93242" lon="6.81072">
        <ele>1533</ele>
        <time>2014-07-31T09:51:06.190Z</time>
      </trkpt>
      <trkpt lat="44.93241" lon="6.8107">
        <ele>1533</ele>
        <time>2014-07-31T09:51:07.190Z</time>
      </trkpt>
      <trkpt lat="44.9324" lon="6.81068">
        <ele>1533</ele>
        <time>2014-07-31T09:51:08.190Z</time>
      </trkpt>
      <trkpt lat="44.93239" lon="6.81065">
        <ele>1533</ele>
        <time>2014-07-31T09:51:09.190Z</time>
      </trkpt>
      <trkpt lat="44.93237" lon="6.81064">
        <ele>1533</ele>
        <time>2014-07-31T09:51:10.190Z</time>
      </trkpt>
      <trkpt lat="44.93235" lon="6.81062">
        <ele>1533</ele>
        <time>2014-07-31T09:51:11.190Z</time>
      </trkpt>
      <trkpt lat="44.93235" lon="6.8106">
        <ele>1533</ele>
        <time>2014-07-31T09:51:12.190Z</time>
      </trkpt>
      <trkpt lat="44.93234" lon="6.81058">
        <ele>1533</ele>
        <time>2014-07-31T09:51:13.190Z</time>
      </trkpt>
      <trkpt lat="44.93233" lon="6.81055">
        <ele>1533</ele>
        <time>2014-07-31T09:51:14.170Z</time>
      </trkpt>
      <trkpt lat="44.93233" lon="6.81053">
        <ele>1534.2</ele>
        <time>2014-07-31T09:51:15.190Z</time>
      </trkpt>
      <trkpt lat="44.93233" lon="6.81051">
        <ele>1535</ele>
        <time>2014-07-31T09:51:16.190Z</time>
      </trkpt>
      <trkpt lat="44.93233" lon="6.81045">
        <ele>1535</ele>
        <time>2014-07-31T09:51:18.190Z</time>
      </trkpt>
      <trkpt lat="44.93233" lon="6.81043">
        <ele>1535</ele>
        <time>2014-07-31T09:51:19.190Z</time>
      </trkpt>
      <trkpt lat="44.93233" lon="6.81039">
        <ele>1535</ele>
        <time>2014-07-31T09:51:20.190Z</time>
      </trkpt>
      <trkpt lat="44.93233" lon="6.81035">
        <ele>1535</ele>
        <time>2014-07-31T09:51:21.190Z</time>
      </trkpt>
      <trkpt lat="44.93233" lon="6.81032">
        <ele>1535</ele>
        <time>2014-07-31T09:51:22.190Z</time>
      </trkpt>
      <trkpt lat="44.93234" lon="6.81024">
        <ele>1535</ele>
        <time>2014-07-31T09:51:24.090Z</time>
      </trkpt>
      <trkpt lat="44.93235" lon="6.8102">
        <ele>1535.5</ele>
        <time>2014-07-31T09:51:25.070Z</time>
      </trkpt>
      <trkpt lat="44.93235" lon="6.81016">
        <ele>1536</ele>
        <time>2014-07-31T09:51:26.090Z</time>
      </trkpt>
      <trkpt lat="44.93236" lon="6.81012">
        <ele>1536</ele>
        <time>2014-07-31T09:51:27.090Z</time>
      </trkpt>
      <trkpt lat="44.93236" lon="6.81007">
        <ele>1536</ele>
        <time>2014-07-31T09:51:28.190Z</time>
      </trkpt>
      <trkpt lat="44.93236" lon="6.81002">
        <ele>1536</ele>
        <time>2014-07-31T09:51:29.190Z</time>
      </trkpt>
      <trkpt lat="44.93236" lon="6.80997">
        <ele>1536</ele>
        <time>2014-07-31T09:51:30.190Z</time>
      </trkpt>
      <trkpt lat="44.93235" lon="6.80993">
        <ele>1536</ele>
        <time>2014-07-31T09:51:31.190Z</time>
      </trkpt>
      <trkpt lat="44.93236" lon="6.80987">
        <ele>1536</ele>
        <time>2014-07-31T09:51:32.190Z</time>
      </trkpt>
      <trkpt lat="44.93236" lon="6.80978">
        <ele>1536</ele>
        <time>2014-07-31T09:51:34.010Z</time>
      </trkpt>
      <trkpt lat="44.93237" lon="6.80974">
        <ele>1536</ele>
        <time>2014-07-31T09:51:35.080Z</time>
      </trkpt>
      <trkpt lat="44.93237" lon="6.80966">
        <ele>1536</ele>
        <time>2014-07-31T09:51:37.090Z</time>
      </trkpt>
      <trkpt lat="44.93237" lon="6.80961">
        <ele>1536</ele>
        <time>2014-07-31T09:51:38.190Z</time>
      </trkpt>
      <trkpt lat="44.93237" lon="6.80953">
        <ele>1536</ele>
        <time>2014-07-31T09:51:39.190Z</time>
      </trkpt>
      <trkpt lat="44.93236" lon="6.80943">
        <ele>1536</ele>
        <time>2014-07-31T09:51:40.190Z</time>
      </trkpt>
      <trkpt lat="44.93235" lon="6.80933">
        <ele>1536</ele>
        <time>2014-07-31T09:51:41.190Z</time>
      </trkpt>
      <trkpt lat="44.93234" lon="6.80923">
        <ele>1536</ele>
        <time>2014-07-31T09:51:42.190Z</time>
      </trkpt>
      <trkpt lat="44.93231" lon="6.80901">
        <ele>1536</ele>
        <time>2014-07-31T09:51:44.090Z</time>
      </trkpt>
      <trkpt lat="44.9323" lon="6.80889">
        <ele>1533.9</ele>
        <time>2014-07-31T09:51:45.090Z</time>
      </trkpt>
      <trkpt lat="44.93229" lon="6.80878">
        <ele>1532</ele>
        <time>2014-07-31T09:51:46.090Z</time>
      </trkpt>
      <trkpt lat="44.93228" lon="6.80866">
        <ele>1532</ele>
        <time>2014-07-31T09:51:47.090Z</time>
      </trkpt>
      <trkpt lat="44.93228" lon="6.80853">
        <ele>1532</ele>
        <time>2014-07-31T09:51:48.190Z</time>
      </trkpt>
      <trkpt lat="44.93228" lon="6.80841">
        <ele>1532</ele>
        <time>2014-07-31T09:51:49.190Z</time>
      </trkpt>
      <trkpt lat="44.93228" lon="6.80829">
        <ele>1530.2</ele>
        <time>2014-07-31T09:51:50.190Z</time>
      </trkpt>
      <trkpt lat="44.93228" lon="6.80807">
        <ele>1529</ele>
        <time>2014-07-31T09:51:52.090Z</time>
      </trkpt>
      <trkpt lat="44.93228" lon="6.80797">
        <ele>1529</ele>
        <time>2014-07-31T09:51:53.190Z</time>
      </trkpt>
      <trkpt lat="44.93227" lon="6.80788">
        <ele>1529</ele>
        <time>2014-07-31T09:51:54.190Z</time>
      </trkpt>
      <trkpt lat="44.93227" lon="6.8078">
        <ele>1528.4</ele>
        <time>2014-07-31T09:51:55.190Z</time>
      </trkpt>
      <trkpt lat="44.93227" lon="6.80773">
        <ele>1528</ele>
        <time>2014-07-31T09:51:56.190Z</time>
      </trkpt>
      <trkpt lat="44.93226" lon="6.80765">
        <ele>1528</ele>
        <time>2014-07-31T09:51:57.190Z</time>
      </trkpt>
      <trkpt lat="44.93224" lon="6.80749">
        <ele>1528</ele>
        <time>2014-07-31T09:51:59.100Z</time>
      </trkpt>
      <trkpt lat="44.93223" lon="6.80743">
        <ele>1528</ele>
        <time>2014-07-31T09:52:00.150Z</time>
      </trkpt>
      <trkpt lat="44.93222" lon="6.80737">
        <ele>1528</ele>
        <time>2014-07-31T09:52:01.190Z</time>
      </trkpt>
      <trkpt lat="44.9322" lon="6.80731">
        <ele>1528</ele>
        <time>2014-07-31T09:52:02.190Z</time>
      </trkpt>
      <trkpt lat="44.93218" lon="6.80719">
        <ele>1528</ele>
        <time>2014-07-31T09:52:04.090Z</time>
      </trkpt>
      <trkpt lat="44.93218" lon="6.80712">
        <ele>1527.5</ele>
        <time>2014-07-31T09:52:05.090Z</time>
      </trkpt>
      <trkpt lat="44.93217" lon="6.80706">
        <ele>1527</ele>
        <time>2014-07-31T09:52:06.090Z</time>
      </trkpt>
      <trkpt lat="44.93217" lon="6.80699">
        <ele>1527</ele>
        <time>2014-07-31T09:52:07.190Z</time>
      </trkpt>
      <trkpt lat="44.93218" lon="6.80687">
        <ele>1527</ele>
        <time>2014-07-31T09:52:09.090Z</time>
      </trkpt>
      <trkpt lat="44.93219" lon="6.80682">
        <ele>1527</ele>
        <time>2014-07-31T09:52:10.090Z</time>
      </trkpt>
      <trkpt lat="44.93219" lon="6.80678">
        <ele>1527</ele>
        <time>2014-07-31T09:52:11.090Z</time>
      </trkpt>
      <trkpt lat="44.93219" lon="6.80675">
        <ele>1527</ele>
        <time>2014-07-31T09:52:12.090Z</time>
      </trkpt>
      <trkpt lat="44.93218" lon="6.80672">
        <ele>1527</ele>
        <time>2014-07-31T09:52:13.190Z</time>
      </trkpt>
      <trkpt lat="44.93218" lon="6.80669">
        <ele>1527</ele>
        <time>2014-07-31T09:52:14.190Z</time>
      </trkpt>
      <trkpt lat="44.93218" lon="6.80666">
        <ele>1527</ele>
        <time>2014-07-31T09:52:15.190Z</time>
      </trkpt>
      <trkpt lat="44.93217" lon="6.80662">
        <ele>1527</ele>
        <time>2014-07-31T09:52:16.190Z</time>
      </trkpt>
      <trkpt lat="44.93216" lon="6.80654">
        <ele>1527</ele>
        <time>2014-07-31T09:52:18.190Z</time>
      </trkpt>
      <trkpt lat="44.93214" lon="6.8065">
        <ele>1527</ele>
        <time>2014-07-31T09:52:19.190Z</time>
      </trkpt>
      <trkpt lat="44.93213" lon="6.80647">
        <ele>1527</ele>
        <time>2014-07-31T09:52:20.190Z</time>
      </trkpt>
      <trkpt lat="44.93211" lon="6.80643">
        <ele>1527</ele>
        <time>2014-07-31T09:52:21.190Z</time>
      </trkpt>
      <trkpt lat="44.93209" lon="6.80638">
        <ele>1527</ele>
        <time>2014-07-31T09:52:22.190Z</time>
      </trkpt>
      <trkpt lat="44.93205" lon="6.80633">
        <ele>1527</ele>
        <time>2014-07-31T09:52:24.090Z</time>
      </trkpt>
      <trkpt lat="44.93203" lon="6.80631">
        <ele>1525.8</ele>
        <time>2014-07-31T09:52:25.150Z</time>
      </trkpt>
      <trkpt lat="44.93202" lon="6.80629">
        <ele>1525</ele>
        <time>2014-07-31T09:52:26.190Z</time>
      </trkpt>
      <trkpt lat="44.93202" lon="6.80627">
        <ele>1525</ele>
        <time>2014-07-31T09:52:27.190Z</time>
      </trkpt>
      <trkpt lat="44.932" lon="6.80624">
        <ele>1525</ele>
        <time>2014-07-31T09:52:29.090Z</time>
      </trkpt>
      <trkpt lat="44.93199" lon="6.80622">
        <ele>1525</ele>
        <time>2014-07-31T09:52:30.070Z</time>
      </trkpt>
      <trkpt lat="44.93197" lon="6.8062">
        <ele>1525</ele>
        <time>2014-07-31T09:52:31.090Z</time>
      </trkpt>
      <trkpt lat="44.93194" lon="6.80617">
        <ele>1525</ele>
        <time>2014-07-31T09:52:32.090Z</time>
      </trkpt>
      <trkpt lat="44.93191" lon="6.80613">
        <ele>1525</ele>
        <time>2014-07-31T09:52:33.190Z</time>
      </trkpt>
      <trkpt lat="44.93185" lon="6.80605">
        <ele>1524</ele>
        <time>2014-07-31T09:52:35.090Z</time>
      </trkpt>
      <trkpt lat="44.93181" lon="6.806">
        <ele>1523</ele>
        <time>2014-07-31T09:52:36.090Z</time>
      </trkpt>
      <trkpt lat="44.93176" lon="6.80596">
        <ele>1523</ele>
        <time>2014-07-31T09:52:37.090Z</time>
      </trkpt>
      <trkpt lat="44.9317" lon="6.80593">
        <ele>1523</ele>
        <time>2014-07-31T09:52:38.090Z</time>
      </trkpt>
      <trkpt lat="44.93165" lon="6.80589">
        <ele>1523</ele>
        <time>2014-07-31T09:52:39.090Z</time>
      </trkpt>
      <trkpt lat="44.9316" lon="6.80584">
        <ele>1523</ele>
        <time>2014-07-31T09:52:40.110Z</time>
      </trkpt>
      <trkpt lat="44.93156" lon="6.80579">
        <ele>1523</ele>
        <time>2014-07-31T09:52:41.190Z</time>
      </trkpt>
      <trkpt lat="44.9315" lon="6.80568">
        <ele>1523</ele>
        <time>2014-07-31T09:52:43.090Z</time>
      </trkpt>
      <trkpt lat="44.93147" lon="6.80563">
        <ele>1523</ele>
        <time>2014-07-31T09:52:44.090Z</time>
      </trkpt>
      <trkpt lat="44.93144" lon="6.80559">
        <ele>1522</ele>
        <time>2014-07-31T09:52:45.090Z</time>
      </trkpt>
      <trkpt lat="44.93142" lon="6.80556">
        <ele>1521</ele>
        <time>2014-07-31T09:52:46.090Z</time>
      </trkpt>
      <trkpt lat="44.9314" lon="6.80554">
        <ele>1521</ele>
        <time>2014-07-31T09:52:47.090Z</time>
      </trkpt>
      <trkpt lat="44.93139" lon="6.80553">
        <ele>1521</ele>
        <time>2014-07-31T09:52:48.090Z</time>
      </trkpt>
      <trkpt lat="44.93137" lon="6.80551">
        <ele>1521</ele>
        <time>2014-07-31T09:52:49.090Z</time>
      </trkpt>
      <trkpt lat="44.93136" lon="6.80548">
        <ele>1521</ele>
        <time>2014-07-31T09:52:50.090Z</time>
      </trkpt>
      <trkpt lat="44.93136" lon="6.80545">
        <ele>1521</ele>
        <time>2014-07-31T09:52:51.150Z</time>
      </trkpt>
      <trkpt lat="44.93136" lon="6.80542">
        <ele>1521</ele>
        <time>2014-07-31T09:52:52.190Z</time>
      </trkpt>
      <trkpt lat="44.93135" lon="6.8054">
        <ele>1521</ele>
        <time>2014-07-31T09:52:53.190Z</time>
      </trkpt>
      <trkpt lat="44.93136" lon="6.80539">
        <ele>1521</ele>
        <time>2014-07-31T09:52:54.190Z</time>
      </trkpt>
      <trkpt lat="44.93137" lon="6.80538">
        <ele>1521</ele>
        <time>2014-07-31T09:52:55.190Z</time>
      </trkpt>
      <trkpt lat="44.93137" lon="6.80536">
        <ele>1521</ele>
        <time>2014-07-31T09:52:56.190Z</time>
      </trkpt>
      <trkpt lat="44.93137" lon="6.80533">
        <ele>1521</ele>
        <time>2014-07-31T09:52:59.150Z</time>
      </trkpt>
      <trkpt lat="44.93136" lon="6.80531">
        <ele>1521</ele>
        <time>2014-07-31T09:53:01.090Z</time>
      </trkpt>
      <trkpt lat="44.93136" lon="6.80533">
        <ele>1521</ele>
        <time>2014-07-31T09:53:04.090Z</time>
      </trkpt>
      <trkpt lat="44.93136" lon="6.80534">
        <ele>1521</ele>
        <time>2014-07-31T09:53:06.090Z</time>
      </trkpt>
      <trkpt lat="44.93135" lon="6.80534">
        <ele>1521</ele>
        <time>2014-07-31T09:53:09.180Z</time>
      </trkpt>
      <trkpt lat="44.93136" lon="6.80534">
        <ele>1521</ele>
        <time>2014-07-31T09:53:17.150Z</time>
      </trkpt>
      <trkpt lat="44.93137" lon="6.80536">
        <ele>1521</ele>
        <time>2014-07-31T09:53:20.090Z</time>
      </trkpt>
      <trkpt lat="44.93138" lon="6.80536">
        <ele>1521</ele>
        <time>2014-07-31T09:53:25.090Z</time>
      </trkpt>
      <trkpt lat="44.93139" lon="6.80537">
        <ele>1521</ele>
        <time>2014-07-31T09:53:29.190Z</time>
      </trkpt>
      <trkpt lat="44.93139" lon="6.80539">
        <ele>1521</ele>
        <time>2014-07-31T09:53:32.190Z</time>
      </trkpt>
      <trkpt lat="44.93138" lon="6.80537">
        <ele>1521</ele>
        <time>2014-07-31T09:53:36.090Z</time>
      </trkpt>
      <trkpt lat="44.93137" lon="6.80535">
        <ele>1521</ele>
        <time>2014-07-31T09:53:39.090Z</time>
      </trkpt>
      <trkpt lat="44.93136" lon="6.80536">
        <ele>1521</ele>
        <time>2014-07-31T09:53:41.090Z</time>
      </trkpt>
      <trkpt lat="44.93136" lon="6.80537">
        <ele>1521</ele>
        <time>2014-07-31T09:53:43.190Z</time>
      </trkpt>
      <trkpt lat="44.93136" lon="6.80539">
        <ele>1521.6</ele>
        <time>2014-07-31T09:53:45.190Z</time>
      </trkpt>
      <trkpt lat="44.93137" lon="6.80541">
        <ele>1522</ele>
        <time>2014-07-31T09:53:46.190Z</time>
      </trkpt>
      <trkpt lat="44.93137" lon="6.80539">
        <ele>1522</ele>
        <time>2014-07-31T09:53:53.190Z</time>
      </trkpt>
      <trkpt lat="44.93137" lon="6.80537">
        <ele>1522</ele>
        <time>2014-07-31T09:53:59.090Z</time>
      </trkpt>
      <trkpt lat="44.93137" lon="6.80536">
        <ele>1522</ele>
        <time>2014-07-31T09:54:00.150Z</time>
      </trkpt>
      <trkpt lat="44.93136" lon="6.80534">
        <ele>1522</ele>
        <time>2014-07-31T09:54:02.190Z</time>
      </trkpt>
      <trkpt lat="44.93135" lon="6.80533">
        <ele>1522</ele>
        <time>2014-07-31T09:54:04.090Z</time>
      </trkpt>
      <trkpt lat="44.93136" lon="6.80533">
        <ele>1521</ele>
        <time>2014-07-31T09:54:06.070Z</time>
      </trkpt>
      <trkpt lat="44.93137" lon="6.80533">
        <ele>1521</ele>
        <time>2014-07-31T09:54:09.190Z</time>
      </trkpt>
      <trkpt lat="44.93138" lon="6.80532">
        <ele>1521</ele>
        <time>2014-07-31T09:54:11.190Z</time>
      </trkpt>
      <trkpt lat="44.9314" lon="6.80531">
        <ele>1521</ele>
        <time>2014-07-31T09:54:13.110Z</time>
      </trkpt>
      <trkpt lat="44.9314" lon="6.8053">
        <ele>1521</ele>
        <time>2014-07-31T09:54:17.150Z</time>
      </trkpt>
      <trkpt lat="44.93141" lon="6.80527">
        <ele>1521</ele>
        <time>2014-07-31T09:54:19.070Z</time>
      </trkpt>
      <trkpt lat="44.93141" lon="6.80525">
        <ele>1521</ele>
        <time>2014-07-31T09:54:20.090Z</time>
      </trkpt>
      <trkpt lat="44.93142" lon="6.80524">
        <ele>1521</ele>
        <time>2014-07-31T09:54:21.090Z</time>
      </trkpt>
      <trkpt lat="44.93142" lon="6.80522">
        <ele>1521</ele>
        <time>2014-07-31T09:54:22.090Z</time>
      </trkpt>
      <trkpt lat="44.93143" lon="6.8052">
        <ele>1521</ele>
        <time>2014-07-31T09:54:23.090Z</time>
      </trkpt>
      <trkpt lat="44.93144" lon="6.80518">
        <ele>1521</ele>
        <time>2014-07-31T09:54:24.090Z</time>
      </trkpt>
      <trkpt lat="44.93145" lon="6.80517">
        <ele>1521.6</ele>
        <time>2014-07-31T09:54:25.190Z</time>
      </trkpt>
      <trkpt lat="44.93145" lon="6.80516">
        <ele>1522</ele>
        <time>2014-07-31T09:54:26.190Z</time>
      </trkpt>
      <trkpt lat="44.93146" lon="6.80514">
        <ele>1522</ele>
        <time>2014-07-31T09:54:27.190Z</time>
      </trkpt>
      <trkpt lat="44.93146" lon="6.80513">
        <ele>1522</ele>
        <time>2014-07-31T09:54:28.190Z</time>
      </trkpt>
      <trkpt lat="44.93147" lon="6.80512">
        <ele>1522</ele>
        <time>2014-07-31T09:54:29.170Z</time>
      </trkpt>
      <trkpt lat="44.93148" lon="6.80511">
        <ele>1522</ele>
        <time>2014-07-31T09:54:30.190Z</time>
      </trkpt>
      <trkpt lat="44.93149" lon="6.80509">
        <ele>1522</ele>
        <time>2014-07-31T09:54:31.190Z</time>
      </trkpt>
      <trkpt lat="44.9315" lon="6.80506">
        <ele>1522</ele>
        <time>2014-07-31T09:54:32.190Z</time>
      </trkpt>
      <trkpt lat="44.9315" lon="6.80504">
        <ele>1522</ele>
        <time>2014-07-31T09:54:33.190Z</time>
      </trkpt>
      <trkpt lat="44.93151" lon="6.80501">
        <ele>1523.6</ele>
        <time>2014-07-31T09:54:35.090Z</time>
      </trkpt>
      <trkpt lat="44.93152" lon="6.80499">
        <ele>1525</ele>
        <time>2014-07-31T09:54:36.090Z</time>
      </trkpt>
      <trkpt lat="44.93152" lon="6.80497">
        <ele>1525</ele>
        <time>2014-07-31T09:54:37.090Z</time>
      </trkpt>
      <trkpt lat="44.93153" lon="6.80495">
        <ele>1525</ele>
        <time>2014-07-31T09:54:38.190Z</time>
      </trkpt>
      <trkpt lat="44.93152" lon="6.80493">
        <ele>1525</ele>
        <time>2014-07-31T09:54:39.190Z</time>
      </trkpt>
      <trkpt lat="44.93152" lon="6.80491">
        <ele>1526.2</ele>
        <time>2014-07-31T09:54:40.190Z</time>
      </trkpt>
      <trkpt lat="44.93152" lon="6.80487">
        <ele>1527</ele>
        <time>2014-07-31T09:54:42.090Z</time>
      </trkpt>
      <trkpt lat="44.93152" lon="6.80486">
        <ele>1527</ele>
        <time>2014-07-31T09:54:43.280Z</time>
      </trkpt>
      <trkpt lat="44.93152" lon="6.80484">
        <ele>1527</ele>
        <time>2014-07-31T09:54:44.190Z</time>
      </trkpt>
      <trkpt lat="44.93152" lon="6.80483">
        <ele>1527</ele>
        <time>2014-07-31T09:54:45.190Z</time>
      </trkpt>
      <trkpt lat="44.93153" lon="6.80481">
        <ele>1527</ele>
        <time>2014-07-31T09:54:46.190Z</time>
      </trkpt>
      <trkpt lat="44.93154" lon="6.80479">
        <ele>1527</ele>
        <time>2014-07-31T09:54:47.190Z</time>
      </trkpt>
      <trkpt lat="44.93155" lon="6.80476">
        <ele>1527</ele>
        <time>2014-07-31T09:54:49.090Z</time>
      </trkpt>
      <trkpt lat="44.93155" lon="6.80475">
        <ele>1527</ele>
        <time>2014-07-31T09:54:50.090Z</time>
      </trkpt>
      <trkpt lat="44.93155" lon="6.80473">
        <ele>1527</ele>
        <time>2014-07-31T09:54:51.110Z</time>
      </trkpt>
      <trkpt lat="44.93156" lon="6.80472">
        <ele>1527</ele>
        <time>2014-07-31T09:54:52.190Z</time>
      </trkpt>
      <trkpt lat="44.93156" lon="6.80469">
        <ele>1527</ele>
        <time>2014-07-31T09:54:54.090Z</time>
      </trkpt>
      <trkpt lat="44.93156" lon="6.80468">
        <ele>1528</ele>
        <time>2014-07-31T09:54:55.090Z</time>
      </trkpt>
      <trkpt lat="44.93157" lon="6.80466">
        <ele>1529</ele>
        <time>2014-07-31T09:54:56.180Z</time>
      </trkpt>
      <trkpt lat="44.93158" lon="6.80465">
        <ele>1529</ele>
        <time>2014-07-31T09:54:57.090Z</time>
      </trkpt>
      <trkpt lat="44.93158" lon="6.80464">
        <ele>1529</ele>
        <time>2014-07-31T09:54:58.150Z</time>
      </trkpt>
      <trkpt lat="44.93159" lon="6.80463">
        <ele>1529</ele>
        <time>2014-07-31T09:54:59.190Z</time>
      </trkpt>
      <trkpt lat="44.93159" lon="6.80461">
        <ele>1529</ele>
        <time>2014-07-31T09:55:01.090Z</time>
      </trkpt>
      <trkpt lat="44.93161" lon="6.80458">
        <ele>1529</ele>
        <time>2014-07-31T09:55:04.090Z</time>
      </trkpt>
      <trkpt lat="44.93162" lon="6.80456">
        <ele>1531</ele>
        <time>2014-07-31T09:55:06.090Z</time>
      </trkpt>
      <trkpt lat="44.93163" lon="6.80455">
        <ele>1531</ele>
        <time>2014-07-31T09:55:07.090Z</time>
      </trkpt>
      <trkpt lat="44.93164" lon="6.80455">
        <ele>1531</ele>
        <time>2014-07-31T09:55:08.090Z</time>
      </trkpt>
      <trkpt lat="44.93166" lon="6.80455">
        <ele>1531</ele>
        <time>2014-07-31T09:55:09.090Z</time>
      </trkpt>
      <trkpt lat="44.93167" lon="6.80454">
        <ele>1531</ele>
        <time>2014-07-31T09:55:10.090Z</time>
      </trkpt>
      <trkpt lat="44.93171" lon="6.80454">
        <ele>1531</ele>
        <time>2014-07-31T09:55:12.090Z</time>
      </trkpt>
      <trkpt lat="44.93172" lon="6.80453">
        <ele>1531</ele>
        <time>2014-07-31T09:55:13.090Z</time>
      </trkpt>
      <trkpt lat="44.93173" lon="6.80453">
        <ele>1531</ele>
        <time>2014-07-31T09:55:14.090Z</time>
      </trkpt>
      <trkpt lat="44.93174" lon="6.80452">
        <ele>1531.6</ele>
        <time>2014-07-31T09:55:15.150Z</time>
      </trkpt>
      <trkpt lat="44.93176" lon="6.80451">
        <ele>1532</ele>
        <time>2014-07-31T09:55:16.190Z</time>
      </trkpt>
      <trkpt lat="44.93177" lon="6.80449">
        <ele>1532</ele>
        <time>2014-07-31T09:55:17.080Z</time>
      </trkpt>
      <trkpt lat="44.93179" lon="6.80448">
        <ele>1532</ele>
        <time>2014-07-31T09:55:18.190Z</time>
      </trkpt>
      <trkpt lat="44.93181" lon="6.80448">
        <ele>1532</ele>
        <time>2014-07-31T09:55:19.190Z</time>
      </trkpt>
      <trkpt lat="44.93183" lon="6.80446">
        <ele>1532</ele>
        <time>2014-07-31T09:55:20.190Z</time>
      </trkpt>
      <trkpt lat="44.93185" lon="6.80446">
        <ele>1532</ele>
        <time>2014-07-31T09:55:21.190Z</time>
      </trkpt>
      <trkpt lat="44.93186" lon="6.80446">
        <ele>1532</ele>
        <time>2014-07-31T09:55:22.190Z</time>
      </trkpt>
      <trkpt lat="44.93187" lon="6.80446">
        <ele>1532</ele>
        <time>2014-07-31T09:55:24.190Z</time>
      </trkpt>
      <trkpt lat="44.93189" lon="6.80445">
        <ele>1534</ele>
        <time>2014-07-31T09:55:26.190Z</time>
      </trkpt>
      <trkpt lat="44.9319" lon="6.80443">
        <ele>1534</ele>
        <time>2014-07-31T09:55:28.190Z</time>
      </trkpt>
      <trkpt lat="44.93191" lon="6.80441">
        <ele>1534</ele>
        <time>2014-07-31T09:55:29.190Z</time>
      </trkpt>
      <trkpt lat="44.93192" lon="6.8044">
        <ele>1534</ele>
        <time>2014-07-31T09:55:30.190Z</time>
      </trkpt>
      <trkpt lat="44.93194" lon="6.80438">
        <ele>1534</ele>
        <time>2014-07-31T09:55:31.190Z</time>
      </trkpt>
      <trkpt lat="44.93195" lon="6.80437">
        <ele>1534</ele>
        <time>2014-07-31T09:55:33.090Z</time>
      </trkpt>
      <trkpt lat="44.93195" lon="6.80435">
        <ele>1535.2</ele>
        <time>2014-07-31T09:55:35.190Z</time>
      </trkpt>
      <trkpt lat="44.93197" lon="6.80435">
        <ele>1536</ele>
        <time>2014-07-31T09:55:36.190Z</time>
      </trkpt>
      <trkpt lat="44.93198" lon="6.80433">
        <ele>1536</ele>
        <time>2014-07-31T09:55:37.190Z</time>
      </trkpt>
      <trkpt lat="44.932" lon="6.80432">
        <ele>1536</ele>
        <time>2014-07-31T09:55:39.090Z</time>
      </trkpt>
      <trkpt lat="44.93202" lon="6.80431">
        <ele>1536</ele>
        <time>2014-07-31T09:55:40.090Z</time>
      </trkpt>
      <trkpt lat="44.93203" lon="6.80429">
        <ele>1536</ele>
        <time>2014-07-31T09:55:41.090Z</time>
      </trkpt>
      <trkpt lat="44.93205" lon="6.80429">
        <ele>1536</ele>
        <time>2014-07-31T09:55:42.090Z</time>
      </trkpt>
      <trkpt lat="44.93206" lon="6.80428">
        <ele>1536</ele>
        <time>2014-07-31T09:55:43.190Z</time>
      </trkpt>
      <trkpt lat="44.93207" lon="6.80426">
        <ele>1536</ele>
        <time>2014-07-31T09:55:44.170Z</time>
      </trkpt>
      <trkpt lat="44.93207" lon="6.80425">
        <ele>1537.2</ele>
        <time>2014-07-31T09:55:45.190Z</time>
      </trkpt>
      <trkpt lat="44.93208" lon="6.80424">
        <ele>1538</ele>
        <time>2014-07-31T09:55:46.190Z</time>
      </trkpt>
      <trkpt lat="44.9321" lon="6.80423">
        <ele>1538</ele>
        <time>2014-07-31T09:55:49.150Z</time>
      </trkpt>
      <trkpt lat="44.93213" lon="6.8042">
        <ele>1538</ele>
        <time>2014-07-31T09:55:52.090Z</time>
      </trkpt>
      <trkpt lat="44.93214" lon="6.80419">
        <ele>1538</ele>
        <time>2014-07-31T09:55:53.190Z</time>
      </trkpt>
      <trkpt lat="44.93215" lon="6.80418">
        <ele>1538</ele>
        <time>2014-07-31T09:55:54.190Z</time>
      </trkpt>
      <trkpt lat="44.93217" lon="6.80416">
        <ele>1540</ele>
        <time>2014-07-31T09:55:56.090Z</time>
      </trkpt>
      <trkpt lat="44.93219" lon="6.80414">
        <ele>1540</ele>
        <time>2014-07-31T09:55:58.190Z</time>
      </trkpt>
      <trkpt lat="44.93221" lon="6.80413">
        <ele>1540</ele>
        <time>2014-07-31T09:55:59.190Z</time>
      </trkpt>
      <trkpt lat="44.93224" lon="6.80411">
        <ele>1540</ele>
        <time>2014-07-31T09:56:01.090Z</time>
      </trkpt>
      <trkpt lat="44.93224" lon="6.8041">
        <ele>1540</ele>
        <time>2014-07-31T09:56:02.090Z</time>
      </trkpt>
      <trkpt lat="44.93225" lon="6.80408">
        <ele>1540</ele>
        <time>2014-07-31T09:56:03.190Z</time>
      </trkpt>
      <trkpt lat="44.93226" lon="6.80407">
        <ele>1540</ele>
        <time>2014-07-31T09:56:04.190Z</time>
      </trkpt>
      <trkpt lat="44.93228" lon="6.80405">
        <ele>1542</ele>
        <time>2014-07-31T09:56:05.990Z</time>
      </trkpt>
      <trkpt lat="44.93229" lon="6.80403">
        <ele>1542</ele>
        <time>2014-07-31T09:56:07.090Z</time>
      </trkpt>
      <trkpt lat="44.9323" lon="6.80402">
        <ele>1542</ele>
        <time>2014-07-31T09:56:08.190Z</time>
      </trkpt>
      <trkpt lat="44.93231" lon="6.804">
        <ele>1542</ele>
        <time>2014-07-31T09:56:09.190Z</time>
      </trkpt>
      <trkpt lat="44.93232" lon="6.80399">
        <ele>1542</ele>
        <time>2014-07-31T09:56:10.190Z</time>
      </trkpt>
      <trkpt lat="44.93233" lon="6.80397">
        <ele>1542</ele>
        <time>2014-07-31T09:56:11.190Z</time>
      </trkpt>
      <trkpt lat="44.93234" lon="6.80396">
        <ele>1542</ele>
        <time>2014-07-31T09:56:12.190Z</time>
      </trkpt>
      <trkpt lat="44.93235" lon="6.80393">
        <ele>1542</ele>
        <time>2014-07-31T09:56:14.090Z</time>
      </trkpt>
      <trkpt lat="44.93235" lon="6.8039">
        <ele>1546</ele>
        <time>2014-07-31T09:56:16.090Z</time>
      </trkpt>
      <trkpt lat="44.93236" lon="6.80388">
        <ele>1546</ele>
        <time>2014-07-31T09:56:17.150Z</time>
      </trkpt>
      <trkpt lat="44.93238" lon="6.80383">
        <ele>1546</ele>
        <time>2014-07-31T09:56:19.090Z</time>
      </trkpt>
      <trkpt lat="44.93239" lon="6.8038">
        <ele>1546.5</ele>
        <time>2014-07-31T09:56:20.090Z</time>
      </trkpt>
      <trkpt lat="44.9324" lon="6.80377">
        <ele>1547</ele>
        <time>2014-07-31T09:56:21.090Z</time>
      </trkpt>
      <trkpt lat="44.93242" lon="6.80375">
        <ele>1547</ele>
        <time>2014-07-31T09:56:22.090Z</time>
      </trkpt>
      <trkpt lat="44.93243" lon="6.80373">
        <ele>1547</ele>
        <time>2014-07-31T09:56:23.150Z</time>
      </trkpt>
      <trkpt lat="44.93244" lon="6.80371">
        <ele>1547</ele>
        <time>2014-07-31T09:56:24.190Z</time>
      </trkpt>
      <trkpt lat="44.93245" lon="6.8037">
        <ele>1547</ele>
        <time>2014-07-31T09:56:25.190Z</time>
      </trkpt>
      <trkpt lat="44.93247" lon="6.80366">
        <ele>1547</ele>
        <time>2014-07-31T09:56:27.090Z</time>
      </trkpt>
      <trkpt lat="44.93248" lon="6.80364">
        <ele>1547</ele>
        <time>2014-07-31T09:56:28.090Z</time>
      </trkpt>
      <trkpt lat="44.93248" lon="6.80362">
        <ele>1547</ele>
        <time>2014-07-31T09:56:29.090Z</time>
      </trkpt>
      <trkpt lat="44.93249" lon="6.8036">
        <ele>1547</ele>
        <time>2014-07-31T09:56:30.090Z</time>
      </trkpt>
      <trkpt lat="44.9325" lon="6.80359">
        <ele>1547</ele>
        <time>2014-07-31T09:56:31.090Z</time>
      </trkpt>
      <trkpt lat="44.9325" lon="6.80357">
        <ele>1547</ele>
        <time>2014-07-31T09:56:32.090Z</time>
      </trkpt>
      <trkpt lat="44.93251" lon="6.80356">
        <ele>1547</ele>
        <time>2014-07-31T09:56:33.090Z</time>
      </trkpt>
      <trkpt lat="44.93252" lon="6.80354">
        <ele>1547</ele>
        <time>2014-07-31T09:56:34.150Z</time>
      </trkpt>
      <trkpt lat="44.93252" lon="6.80352">
        <ele>1548.2</ele>
        <time>2014-07-31T09:56:35.190Z</time>
      </trkpt>
      <trkpt lat="44.93251" lon="6.8035">
        <ele>1549</ele>
        <time>2014-07-31T09:56:36.190Z</time>
      </trkpt>
      <trkpt lat="44.93251" lon="6.80347">
        <ele>1549</ele>
        <time>2014-07-31T09:56:37.280Z</time>
      </trkpt>
      <trkpt lat="44.9325" lon="6.80345">
        <ele>1549</ele>
        <time>2014-07-31T09:56:38.190Z</time>
      </trkpt>
      <trkpt lat="44.93249" lon="6.80343">
        <ele>1549</ele>
        <time>2014-07-31T09:56:39.190Z</time>
      </trkpt>
      <trkpt lat="44.93248" lon="6.80338">
        <ele>1549</ele>
        <time>2014-07-31T09:56:41.090Z</time>
      </trkpt>
      <trkpt lat="44.93247" lon="6.80335">
        <ele>1549</ele>
        <time>2014-07-31T09:56:42.090Z</time>
      </trkpt>
      <trkpt lat="44.93246" lon="6.80333">
        <ele>1549</ele>
        <time>2014-07-31T09:56:43.090Z</time>
      </trkpt>
      <trkpt lat="44.93245" lon="6.80331">
        <ele>1549</ele>
        <time>2014-07-31T09:56:44.090Z</time>
      </trkpt>
      <trkpt lat="44.93245" lon="6.80328">
        <ele>1549</ele>
        <time>2014-07-31T09:56:45.090Z</time>
      </trkpt>
      <trkpt lat="44.93244" lon="6.80326">
        <ele>1549</ele>
        <time>2014-07-31T09:56:46.090Z</time>
      </trkpt>
      <trkpt lat="44.93244" lon="6.80324">
        <ele>1549</ele>
        <time>2014-07-31T09:56:47.090Z</time>
      </trkpt>
      <trkpt lat="44.93243" lon="6.80322">
        <ele>1549</ele>
        <time>2014-07-31T09:56:48.170Z</time>
      </trkpt>
      <trkpt lat="44.93243" lon="6.8032">
        <ele>1549</ele>
        <time>2014-07-31T09:56:49.190Z</time>
      </trkpt>
      <trkpt lat="44.93243" lon="6.80319">
        <ele>1549</ele>
        <time>2014-07-31T09:56:50.190Z</time>
      </trkpt>
      <trkpt lat="44.93243" lon="6.80315">
        <ele>1549</ele>
        <time>2014-07-31T09:56:52.090Z</time>
      </trkpt>
      <trkpt lat="44.93243" lon="6.80313">
        <ele>1549</ele>
        <time>2014-07-31T09:56:53.090Z</time>
      </trkpt>
      <trkpt lat="44.93242" lon="6.80311">
        <ele>1549</ele>
        <time>2014-07-31T09:56:54.090Z</time>
      </trkpt>
      <trkpt lat="44.93242" lon="6.80308">
        <ele>1549</ele>
        <time>2014-07-31T09:56:55.090Z</time>
      </trkpt>
      <trkpt lat="44.93242" lon="6.80306">
        <ele>1549</ele>
        <time>2014-07-31T09:56:56.090Z</time>
      </trkpt>
      <trkpt lat="44.93242" lon="6.80303">
        <ele>1549</ele>
        <time>2014-07-31T09:56:57.150Z</time>
      </trkpt>
      <trkpt lat="44.93239" lon="6.80294">
        <ele>1549</ele>
        <time>2014-07-31T09:56:59.090Z</time>
      </trkpt>
      <trkpt lat="44.93239" lon="6.8029">
        <ele>1549</ele>
        <time>2014-07-31T09:57:00.130Z</time>
      </trkpt>
      <trkpt lat="44.93239" lon="6.80287">
        <ele>1549</ele>
        <time>2014-07-31T09:57:01.190Z</time>
      </trkpt>
      <trkpt lat="44.9324" lon="6.80284">
        <ele>1549</ele>
        <time>2014-07-31T09:57:02.190Z</time>
      </trkpt>
      <trkpt lat="44.9324" lon="6.80281">
        <ele>1549</ele>
        <time>2014-07-31T09:57:03.190Z</time>
      </trkpt>
      <trkpt lat="44.9324" lon="6.80278">
        <ele>1549</ele>
        <time>2014-07-31T09:57:04.190Z</time>
      </trkpt>
      <trkpt lat="44.9324" lon="6.80274">
        <ele>1548.4</ele>
        <time>2014-07-31T09:57:05.190Z</time>
      </trkpt>
      <trkpt lat="44.9324" lon="6.80271">
        <ele>1548</ele>
        <time>2014-07-31T09:57:06.190Z</time>
      </trkpt>
      <trkpt lat="44.9324" lon="6.80265">
        <ele>1548</ele>
        <time>2014-07-31T09:57:08.090Z</time>
      </trkpt>
      <trkpt lat="44.93241" lon="6.80262">
        <ele>1548</ele>
        <time>2014-07-31T09:57:09.090Z</time>
      </trkpt>
      <trkpt lat="44.93243" lon="6.80258">
        <ele>1548</ele>
        <time>2014-07-31T09:57:10.090Z</time>
      </trkpt>
      <trkpt lat="44.93243" lon="6.80255">
        <ele>1548</ele>
        <time>2014-07-31T09:57:11.090Z</time>
      </trkpt>
      <trkpt lat="44.93244" lon="6.80253">
        <ele>1548</ele>
        <time>2014-07-31T09:57:12.090Z</time>
      </trkpt>
      <trkpt lat="44.93247" lon="6.80252">
        <ele>1548</ele>
        <time>2014-07-31T09:57:13.090Z</time>
      </trkpt>
      <trkpt lat="44.9325" lon="6.80251">
        <ele>1548</ele>
        <time>2014-07-31T09:57:14.150Z</time>
      </trkpt>
      <trkpt lat="44.93254" lon="6.8025">
        <ele>1546.8</ele>
        <time>2014-07-31T09:57:15.190Z</time>
      </trkpt>
      <trkpt lat="44.93258" lon="6.80248">
        <ele>1546</ele>
        <time>2014-07-31T09:57:16.190Z</time>
      </trkpt>
      <trkpt lat="44.93264" lon="6.80241">
        <ele>1546</ele>
        <time>2014-07-31T09:57:18.090Z</time>
      </trkpt>
      <trkpt lat="44.93268" lon="6.80237">
        <ele>1546</ele>
        <time>2014-07-31T09:57:19.090Z</time>
      </trkpt>
      <trkpt lat="44.93272" lon="6.80234">
        <ele>1546</ele>
        <time>2014-07-31T09:57:20.090Z</time>
      </trkpt>
      <trkpt lat="44.93276" lon="6.8023">
        <ele>1546</ele>
        <time>2014-07-31T09:57:21.090Z</time>
      </trkpt>
      <trkpt lat="44.9328" lon="6.80228">
        <ele>1546</ele>
        <time>2014-07-31T09:57:22.090Z</time>
      </trkpt>
      <trkpt lat="44.93283" lon="6.80227">
        <ele>1546</ele>
        <time>2014-07-31T09:57:23.090Z</time>
      </trkpt>
      <trkpt lat="44.93288" lon="6.80226">
        <ele>1546</ele>
        <time>2014-07-31T09:57:24.090Z</time>
      </trkpt>
      <trkpt lat="44.9329" lon="6.80227">
        <ele>1545.5</ele>
        <time>2014-07-31T09:57:25.090Z</time>
      </trkpt>
      <trkpt lat="44.93294" lon="6.80226">
        <ele>1545</ele>
        <time>2014-07-31T09:57:26.090Z</time>
      </trkpt>
      <trkpt lat="44.93296" lon="6.80225">
        <ele>1545</ele>
        <time>2014-07-31T09:57:27.090Z</time>
      </trkpt>
      <trkpt lat="44.933" lon="6.80222">
        <ele>1545</ele>
        <time>2014-07-31T09:57:28.170Z</time>
      </trkpt>
      <trkpt lat="44.93304" lon="6.80219">
        <ele>1545</ele>
        <time>2014-07-31T09:57:29.190Z</time>
      </trkpt>
      <trkpt lat="44.93308" lon="6.80215">
        <ele>1545</ele>
        <time>2014-07-31T09:57:30.190Z</time>
      </trkpt>
      <trkpt lat="44.93314" lon="6.80209">
        <ele>1545</ele>
        <time>2014-07-31T09:57:32.090Z</time>
      </trkpt>
      <trkpt lat="44.93318" lon="6.80206">
        <ele>1545</ele>
        <time>2014-07-31T09:57:33.190Z</time>
      </trkpt>
      <trkpt lat="44.93328" lon="6.80202">
        <ele>1543.4</ele>
        <time>2014-07-31T09:57:35.090Z</time>
      </trkpt>
      <trkpt lat="44.93331" lon="6.80202">
        <ele>1542</ele>
        <time>2014-07-31T09:57:36.090Z</time>
      </trkpt>
      <trkpt lat="44.93337" lon="6.80201">
        <ele>1542</ele>
        <time>2014-07-31T09:57:37.090Z</time>
      </trkpt>
      <trkpt lat="44.93342" lon="6.80201">
        <ele>1542</ele>
        <time>2014-07-31T09:57:38.190Z</time>
      </trkpt>
      <trkpt lat="44.93346" lon="6.80202">
        <ele>1542</ele>
        <time>2014-07-31T09:57:39.170Z</time>
      </trkpt>
      <trkpt lat="44.93349" lon="6.80206">
        <ele>1538.9</ele>
        <time>2014-07-31T09:57:40.190Z</time>
      </trkpt>
      <trkpt lat="44.93352" lon="6.8021">
        <ele>1537</ele>
        <time>2014-07-31T09:57:41.190Z</time>
      </trkpt>
      <trkpt lat="44.93354" lon="6.80214">
        <ele>1537</ele>
        <time>2014-07-31T09:57:42.190Z</time>
      </trkpt>
      <trkpt lat="44.93357" lon="6.80221">
        <ele>1537</ele>
        <time>2014-07-31T09:57:44.090Z</time>
      </trkpt>
      <trkpt lat="44.9336" lon="6.80224">
        <ele>1533.9</ele>
        <time>2014-07-31T09:57:45.090Z</time>
      </trkpt>
      <trkpt lat="44.93364" lon="6.80228">
        <ele>1529.4</ele>
        <time>2014-07-31T09:57:46.090Z</time>
      </trkpt>
      <trkpt lat="44.93369" lon="6.80231">
        <ele>1527.5</ele>
        <time>2014-07-31T09:57:47.090Z</time>
      </trkpt>
      <trkpt lat="44.93374" lon="6.80234">
        <ele>1527</ele>
        <time>2014-07-31T09:57:48.150Z</time>
      </trkpt>
      <trkpt lat="44.93378" lon="6.80237">
        <ele>1526.4</ele>
        <time>2014-07-31T09:57:49.170Z</time>
      </trkpt>
      <trkpt lat="44.93382" lon="6.80239">
        <ele>1526</ele>
        <time>2014-07-31T09:57:50.190Z</time>
      </trkpt>
      <trkpt lat="44.93392" lon="6.80242">
        <ele>1522.5</ele>
        <time>2014-07-31T09:57:52.090Z</time>
      </trkpt>
      <trkpt lat="44.93397" lon="6.80242">
        <ele>1521.5</ele>
        <time>2014-07-31T09:57:53.090Z</time>
      </trkpt>
      <trkpt lat="44.93402" lon="6.8024">
        <ele>1520.5</ele>
        <time>2014-07-31T09:57:54.090Z</time>
      </trkpt>
      <trkpt lat="44.93407" lon="6.80238">
        <ele>1519.5</ele>
        <time>2014-07-31T09:57:55.090Z</time>
      </trkpt>
      <trkpt lat="44.93412" lon="6.80236">
        <ele>1518</ele>
        <time>2014-07-31T09:57:56.090Z</time>
      </trkpt>
      <trkpt lat="44.93415" lon="6.80234">
        <ele>1516.5</ele>
        <time>2014-07-31T09:57:57.090Z</time>
      </trkpt>
      <trkpt lat="44.9342" lon="6.80232">
        <ele>1514.8</ele>
        <time>2014-07-31T09:57:58.190Z</time>
      </trkpt>
      <trkpt lat="44.93423" lon="6.80231">
        <ele>1513.3</ele>
        <time>2014-07-31T09:57:59.260Z</time>
      </trkpt>
      <trkpt lat="44.93433" lon="6.80232">
        <ele>1510</ele>
        <time>2014-07-31T09:58:01.090Z</time>
      </trkpt>
      <trkpt lat="44.93438" lon="6.80234">
        <ele>1508</ele>
        <time>2014-07-31T09:58:02.090Z</time>
      </trkpt>
      <trkpt lat="44.93442" lon="6.80235">
        <ele>1505.8</ele>
        <time>2014-07-31T09:58:03.190Z</time>
      </trkpt>
      <trkpt lat="44.9345" lon="6.80235">
        <ele>1504.4</ele>
        <time>2014-07-31T09:58:04.190Z</time>
      </trkpt>
      <trkpt lat="44.93459" lon="6.80235">
        <ele>1503.5</ele>
        <time>2014-07-31T09:58:05.090Z</time>
      </trkpt>
      <trkpt lat="44.93469" lon="6.80235">
        <ele>1501.1</ele>
        <time>2014-07-31T09:58:06.190Z</time>
      </trkpt>
      <trkpt lat="44.93483" lon="6.80235">
        <ele>1499.4</ele>
        <time>2014-07-31T09:58:07.190Z</time>
      </trkpt>
      <trkpt lat="44.93495" lon="6.80234">
        <ele>1499</ele>
        <time>2014-07-31T09:58:08.190Z</time>
      </trkpt>
      <trkpt lat="44.93505" lon="6.80232">
        <ele>1497.8</ele>
        <time>2014-07-31T09:58:09.170Z</time>
      </trkpt>
      <trkpt lat="44.93516" lon="6.80231">
        <ele>1496.4</ele>
        <time>2014-07-31T09:58:10.190Z</time>
      </trkpt>
      <trkpt lat="44.93526" lon="6.8023">
        <ele>1495.4</ele>
        <time>2014-07-31T09:58:11.190Z</time>
      </trkpt>
      <trkpt lat="44.93536" lon="6.80228">
        <ele>1494.4</ele>
        <time>2014-07-31T09:58:12.190Z</time>
      </trkpt>
      <trkpt lat="44.93547" lon="6.80225">
        <ele>1492.8</ele>
        <time>2014-07-31T09:58:13.190Z</time>
      </trkpt>
      <trkpt lat="44.93557" lon="6.80222">
        <ele>1491.4</ele>
        <time>2014-07-31T09:58:14.190Z</time>
      </trkpt>
      <trkpt lat="44.93565" lon="6.80218">
        <ele>1490.4</ele>
        <time>2014-07-31T09:58:15.190Z</time>
      </trkpt>
      <trkpt lat="44.93572" lon="6.80214">
        <ele>1488.8</ele>
        <time>2014-07-31T09:58:16.190Z</time>
      </trkpt>
      <trkpt lat="44.93578" lon="6.80204">
        <ele>1486.5</ele>
        <time>2014-07-31T09:58:18.090Z</time>
      </trkpt>
      <trkpt lat="44.93579" lon="6.80199">
        <ele>1486</ele>
        <time>2014-07-31T09:58:19.110Z</time>
      </trkpt>
      <trkpt lat="44.9358" lon="6.80195">
        <ele>1485.4</ele>
        <time>2014-07-31T09:58:20.190Z</time>
      </trkpt>
      <trkpt lat="44.93582" lon="6.80191">
        <ele>1485</ele>
        <time>2014-07-31T09:58:21.190Z</time>
      </trkpt>
      <trkpt lat="44.93586" lon="6.80189">
        <ele>1482.5</ele>
        <time>2014-07-31T09:58:23.090Z</time>
      </trkpt>
      <trkpt lat="44.93589" lon="6.80191">
        <ele>1481.5</ele>
        <time>2014-07-31T09:58:24.090Z</time>
      </trkpt>
      <trkpt lat="44.93593" lon="6.80194">
        <ele>1479.4</ele>
        <time>2014-07-31T09:58:25.090Z</time>
      </trkpt>
      <trkpt lat="44.93596" lon="6.80199">
        <ele>1477</ele>
        <time>2014-07-31T09:58:26.090Z</time>
      </trkpt>
      <trkpt lat="44.93599" lon="6.80203">
        <ele>1475</ele>
        <time>2014-07-31T09:58:27.090Z</time>
      </trkpt>
      <trkpt lat="44.93604" lon="6.8021">
        <ele>1472.4</ele>
        <time>2014-07-31T09:58:28.090Z</time>
      </trkpt>
      <trkpt lat="44.9361" lon="6.80219">
        <ele>1470</ele>
        <time>2014-07-31T09:58:29.090Z</time>
      </trkpt>
      <trkpt lat="44.93614" lon="6.80227">
        <ele>1468.4</ele>
        <time>2014-07-31T09:58:30.190Z</time>
      </trkpt>
      <trkpt lat="44.93617" lon="6.80234">
        <ele>1466.1</ele>
        <time>2014-07-31T09:58:31.190Z</time>
      </trkpt>
      <trkpt lat="44.9362" lon="6.8024">
        <ele>1464.4</ele>
        <time>2014-07-31T09:58:32.190Z</time>
      </trkpt>
      <trkpt lat="44.93623" lon="6.80244">
        <ele>1462.8</ele>
        <time>2014-07-31T09:58:33.190Z</time>
      </trkpt>
      <trkpt lat="44.93624" lon="6.80243">
        <ele>1462</ele>
        <time>2014-07-31T09:58:35.090Z</time>
      </trkpt>
      <trkpt lat="44.93624" lon="6.8024">
        <ele>1461.5</ele>
        <time>2014-07-31T09:58:36.090Z</time>
      </trkpt>
      <trkpt lat="44.93624" lon="6.80233">
        <ele>1460.5</ele>
        <time>2014-07-31T09:58:37.090Z</time>
      </trkpt>
      <trkpt lat="44.93624" lon="6.80227">
        <ele>1459</ele>
        <time>2014-07-31T09:58:38.090Z</time>
      </trkpt>
      <trkpt lat="44.93624" lon="6.80223">
        <ele>1456.3</ele>
        <time>2014-07-31T09:58:39.150Z</time>
      </trkpt>
      <trkpt lat="44.93627" lon="6.80218">
        <ele>1453</ele>
        <time>2014-07-31T09:58:41.090Z</time>
      </trkpt>
      <trkpt lat="44.93626" lon="6.80216">
        <ele>1451</ele>
        <time>2014-07-31T09:58:42.090Z</time>
      </trkpt>
      <trkpt lat="44.93627" lon="6.80213">
        <ele>1450</ele>
        <time>2014-07-31T09:58:43.090Z</time>
      </trkpt>
      <trkpt lat="44.93627" lon="6.8021">
        <ele>1449.5</ele>
        <time>2014-07-31T09:58:44.090Z</time>
      </trkpt>
      <trkpt lat="44.93629" lon="6.80207">
        <ele>1448.5</ele>
        <time>2014-07-31T09:58:45.090Z</time>
      </trkpt>
      <trkpt lat="44.9363" lon="6.80205">
        <ele>1447.5</ele>
        <time>2014-07-31T09:58:46.090Z</time>
      </trkpt>
      <trkpt lat="44.93632" lon="6.80204">
        <ele>1446.5</ele>
        <time>2014-07-31T09:58:47.090Z</time>
      </trkpt>
      <trkpt lat="44.93633" lon="6.80201">
        <ele>1446</ele>
        <time>2014-07-31T09:58:48.090Z</time>
      </trkpt>
      <trkpt lat="44.93636" lon="6.80198">
        <ele>1446</ele>
        <time>2014-07-31T09:58:49.090Z</time>
      </trkpt>
      <trkpt lat="44.9364" lon="6.80194">
        <ele>1445.5</ele>
        <time>2014-07-31T09:58:50.090Z</time>
      </trkpt>
      <trkpt lat="44.93643" lon="6.8019">
        <ele>1444</ele>
        <time>2014-07-31T09:58:51.110Z</time>
      </trkpt>
      <trkpt lat="44.93646" lon="6.80188">
        <ele>1442.3</ele>
        <time>2014-07-31T09:58:52.280Z</time>
      </trkpt>
      <trkpt lat="44.9365" lon="6.8018">
        <ele>1441</ele>
        <time>2014-07-31T09:58:54.090Z</time>
      </trkpt>
      <trkpt lat="44.93652" lon="6.80176">
        <ele>1440</ele>
        <time>2014-07-31T09:58:55.090Z</time>
      </trkpt>
      <trkpt lat="44.93653" lon="6.80172">
        <ele>1438.4</ele>
        <time>2014-07-31T09:58:56.150Z</time>
      </trkpt>
      <trkpt lat="44.93654" lon="6.80169">
        <ele>1437.4</ele>
        <time>2014-07-31T09:58:57.190Z</time>
      </trkpt>
      <trkpt lat="44.93656" lon="6.80167">
        <ele>1437</ele>
        <time>2014-07-31T09:58:58.190Z</time>
      </trkpt>
      <trkpt lat="44.93656" lon="6.80165">
        <ele>1435.8</ele>
        <time>2014-07-31T09:58:59.190Z</time>
      </trkpt>
      <trkpt lat="44.93657" lon="6.80164">
        <ele>1434.5</ele>
        <time>2014-07-31T09:59:00.080Z</time>
      </trkpt>
      <trkpt lat="44.93662" lon="6.80159">
        <ele>1434</ele>
        <time>2014-07-31T09:59:02.090Z</time>
      </trkpt>
      <trkpt lat="44.93664" lon="6.80159">
        <ele>1433.5</ele>
        <time>2014-07-31T09:59:03.090Z</time>
      </trkpt>
      <trkpt lat="44.93666" lon="6.8016">
        <ele>1432</ele>
        <time>2014-07-31T09:59:04.090Z</time>
      </trkpt>
      <trkpt lat="44.93669" lon="6.80161">
        <ele>1430.4</ele>
        <time>2014-07-31T09:59:05.130Z</time>
      </trkpt>
      <trkpt lat="44.93671" lon="6.80163">
        <ele>1429.5</ele>
        <time>2014-07-31T09:59:06.090Z</time>
      </trkpt>
      <trkpt lat="44.93674" lon="6.80164">
        <ele>1428.5</ele>
        <time>2014-07-31T09:59:07.090Z</time>
      </trkpt>
      <trkpt lat="44.93677" lon="6.80164">
        <ele>1427.4</ele>
        <time>2014-07-31T09:59:08.190Z</time>
      </trkpt>
      <trkpt lat="44.93679" lon="6.80162">
        <ele>1426.4</ele>
        <time>2014-07-31T09:59:09.190Z</time>
      </trkpt>
      <trkpt lat="44.93682" lon="6.8016">
        <ele>1425.4</ele>
        <time>2014-07-31T09:59:10.170Z</time>
      </trkpt>
      <trkpt lat="44.93683" lon="6.80158">
        <ele>1424.4</ele>
        <time>2014-07-31T09:59:11.190Z</time>
      </trkpt>
      <trkpt lat="44.93684" lon="6.80156">
        <ele>1423.4</ele>
        <time>2014-07-31T09:59:12.190Z</time>
      </trkpt>
      <trkpt lat="44.93686" lon="6.80153">
        <ele>1422.5</ele>
        <time>2014-07-31T09:59:14.090Z</time>
      </trkpt>
      <trkpt lat="44.93688" lon="6.80155">
        <ele>1420.4</ele>
        <time>2014-07-31T09:59:15.090Z</time>
      </trkpt>
      <trkpt lat="44.9369" lon="6.80158">
        <ele>1419</ele>
        <time>2014-07-31T09:59:16.090Z</time>
      </trkpt>
      <trkpt lat="44.93693" lon="6.80161">
        <ele>1419</ele>
        <time>2014-07-31T09:59:17.150Z</time>
      </trkpt>
      <trkpt lat="44.93696" lon="6.80165">
        <ele>1418.4</ele>
        <time>2014-07-31T09:59:18.190Z</time>
      </trkpt>
      <trkpt lat="44.93697" lon="6.80169">
        <ele>1417.4</ele>
        <time>2014-07-31T09:59:19.190Z</time>
      </trkpt>
      <trkpt lat="44.937" lon="6.80172">
        <ele>1416.4</ele>
        <time>2014-07-31T09:59:20.170Z</time>
      </trkpt>
      <trkpt lat="44.93702" lon="6.80174">
        <ele>1416</ele>
        <time>2014-07-31T09:59:21.190Z</time>
      </trkpt>
      <trkpt lat="44.93704" lon="6.80173">
        <ele>1415.4</ele>
        <time>2014-07-31T09:59:22.190Z</time>
      </trkpt>
      <trkpt lat="44.93706" lon="6.8017">
        <ele>1415</ele>
        <time>2014-07-31T09:59:23.190Z</time>
      </trkpt>
      <trkpt lat="44.93708" lon="6.80167">
        <ele>1413.8</ele>
        <time>2014-07-31T09:59:24.190Z</time>
      </trkpt>
      <trkpt lat="44.93711" lon="6.80162">
        <ele>1412.4</ele>
        <time>2014-07-31T09:59:25.190Z</time>
      </trkpt>
      <trkpt lat="44.93713" lon="6.80159">
        <ele>1412</ele>
        <time>2014-07-31T09:59:26.190Z</time>
      </trkpt>
      <trkpt lat="44.93716" lon="6.8016">
        <ele>1411.4</ele>
        <time>2014-07-31T09:59:27.190Z</time>
      </trkpt>
      <trkpt lat="44.93722" lon="6.8016">
        <ele>1409.1</ele>
        <time>2014-07-31T09:59:28.190Z</time>
      </trkpt>
      <trkpt lat="44.93727" lon="6.80161">
        <ele>1407.4</ele>
        <time>2014-07-31T09:59:29.190Z</time>
      </trkpt>
      <trkpt lat="44.9374" lon="6.80158">
        <ele>1405.4</ele>
        <time>2014-07-31T09:59:31.180Z</time>
      </trkpt>
      <trkpt lat="44.9375" lon="6.80155">
        <ele>1404.5</ele>
        <time>2014-07-31T09:59:32.090Z</time>
      </trkpt>
      <trkpt lat="44.9376" lon="6.8015">
        <ele>1403.5</ele>
        <time>2014-07-31T09:59:33.090Z</time>
      </trkpt>
      <trkpt lat="44.93768" lon="6.80146">
        <ele>1402.4</ele>
        <time>2014-07-31T09:59:34.150Z</time>
      </trkpt>
      <trkpt lat="44.93775" lon="6.80141">
        <ele>1400.8</ele>
        <time>2014-07-31T09:59:35.190Z</time>
      </trkpt>
      <trkpt lat="44.93779" lon="6.80137">
        <ele>1398.8</ele>
        <time>2014-07-31T09:59:36.190Z</time>
      </trkpt>
      <trkpt lat="44.93782" lon="6.80132">
        <ele>1397.4</ele>
        <time>2014-07-31T09:59:37.190Z</time>
      </trkpt>
      <trkpt lat="44.93787" lon="6.80126">
        <ele>1396.4</ele>
        <time>2014-07-31T09:59:38.190Z</time>
      </trkpt>
      <trkpt lat="44.93792" lon="6.80121">
        <ele>1394.8</ele>
        <time>2014-07-31T09:59:39.190Z</time>
      </trkpt>
      <trkpt lat="44.93797" lon="6.80116">
        <ele>1393.4</ele>
        <time>2014-07-31T09:59:40.190Z</time>
      </trkpt>
      <trkpt lat="44.93801" lon="6.80114">
        <ele>1392.4</ele>
        <time>2014-07-31T09:59:41.190Z</time>
      </trkpt>
      <trkpt lat="44.93812" lon="6.80109">
        <ele>1390.4</ele>
        <time>2014-07-31T09:59:43.190Z</time>
      </trkpt>
      <trkpt lat="44.93817" lon="6.80107">
        <ele>1389.4</ele>
        <time>2014-07-31T09:59:44.190Z</time>
      </trkpt>
      <trkpt lat="44.93821" lon="6.80107">
        <ele>1388.4</ele>
        <time>2014-07-31T09:59:45.190Z</time>
      </trkpt>
      <trkpt lat="44.93823" lon="6.80109">
        <ele>1388</ele>
        <time>2014-07-31T09:59:46.190Z</time>
      </trkpt>
      <trkpt lat="44.93823" lon="6.80112">
        <ele>1387.5</ele>
        <time>2014-07-31T09:59:48.090Z</time>
      </trkpt>
      <trkpt lat="44.93822" lon="6.80115">
        <ele>1387</ele>
        <time>2014-07-31T09:59:49.090Z</time>
      </trkpt>
      <trkpt lat="44.93821" lon="6.80118">
        <ele>1387</ele>
        <time>2014-07-31T09:59:50.090Z</time>
      </trkpt>
      <trkpt lat="44.9382" lon="6.80123">
        <ele>1387.6</ele>
        <time>2014-07-31T09:59:51.150Z</time>
      </trkpt>
      <trkpt lat="44.93818" lon="6.80125">
        <ele>1388</ele>
        <time>2014-07-31T09:59:52.170Z</time>
      </trkpt>
      <trkpt lat="44.93815" lon="6.80131">
        <ele>1387.5</ele>
        <time>2014-07-31T09:59:54.090Z</time>
      </trkpt>
      <trkpt lat="44.93811" lon="6.80136">
        <ele>1387</ele>
        <time>2014-07-31T09:59:55.090Z</time>
      </trkpt>
      <trkpt lat="44.93807" lon="6.80141">
        <ele>1387</ele>
        <time>2014-07-31T09:59:56.090Z</time>
      </trkpt>
      <trkpt lat="44.93804" lon="6.80144">
        <ele>1387</ele>
        <time>2014-07-31T09:59:57.090Z</time>
      </trkpt>
      <trkpt lat="44.938" lon="6.80147">
        <ele>1387</ele>
        <time>2014-07-31T09:59:58.090Z</time>
      </trkpt>
      <trkpt lat="44.93797" lon="6.80149">
        <ele>1387</ele>
        <time>2014-07-31T09:59:59.090Z</time>
      </trkpt>
      <trkpt lat="44.93794" lon="6.80151">
        <ele>1387</ele>
        <time>2014-07-31T10:00:00.080Z</time>
      </trkpt>
      <trkpt lat="44.93789" lon="6.8016">
        <ele>1387</ele>
        <time>2014-07-31T10:00:02.090Z</time>
      </trkpt>
      <trkpt lat="44.93786" lon="6.80164">
        <ele>1387</ele>
        <time>2014-07-31T10:00:03.090Z</time>
      </trkpt>
      <trkpt lat="44.93783" lon="6.80167">
        <ele>1387</ele>
        <time>2014-07-31T10:00:04.150Z</time>
      </trkpt>
      <trkpt lat="44.93779" lon="6.8017">
        <ele>1387.6</ele>
        <time>2014-07-31T10:00:05.190Z</time>
      </trkpt>
      <trkpt lat="44.93776" lon="6.80172">
        <ele>1388</ele>
        <time>2014-07-31T10:00:06.190Z</time>
      </trkpt>
      <trkpt lat="44.93773" lon="6.80175">
        <ele>1388</ele>
        <time>2014-07-31T10:00:07.190Z</time>
      </trkpt>
      <trkpt lat="44.9377" lon="6.80178">
        <ele>1388</ele>
        <time>2014-07-31T10:00:08.190Z</time>
      </trkpt>
      <trkpt lat="44.93768" lon="6.80182">
        <ele>1388</ele>
        <time>2014-07-31T10:00:09.190Z</time>
      </trkpt>
      <trkpt lat="44.93766" lon="6.80186">
        <ele>1388</ele>
        <time>2014-07-31T10:00:10.190Z</time>
      </trkpt>
      <trkpt lat="44.93763" lon="6.8019">
        <ele>1388</ele>
        <time>2014-07-31T10:00:11.190Z</time>
      </trkpt>
      <trkpt lat="44.9376" lon="6.80192">
        <ele>1388</ele>
        <time>2014-07-31T10:00:12.190Z</time>
      </trkpt>
      <trkpt lat="44.93758" lon="6.80196">
        <ele>1388</ele>
        <time>2014-07-31T10:00:13.190Z</time>
      </trkpt>
      <trkpt lat="44.93756" lon="6.802">
        <ele>1388</ele>
        <time>2014-07-31T10:00:14.190Z</time>
      </trkpt>
      <trkpt lat="44.93754" lon="6.80205">
        <ele>1388.6</ele>
        <time>2014-07-31T10:00:15.190Z</time>
      </trkpt>
      <trkpt lat="44.93752" lon="6.80209">
        <ele>1389</ele>
        <time>2014-07-31T10:00:16.190Z</time>
      </trkpt>
      <trkpt lat="44.93751" lon="6.80218">
        <ele>1389</ele>
        <time>2014-07-31T10:00:18.190Z</time>
      </trkpt>
      <trkpt lat="44.9375" lon="6.80222">
        <ele>1389</ele>
        <time>2014-07-31T10:00:19.190Z</time>
      </trkpt>
      <trkpt lat="44.93748" lon="6.80225">
        <ele>1389</ele>
        <time>2014-07-31T10:00:20.190Z</time>
      </trkpt>
      <trkpt lat="44.93744" lon="6.80232">
        <ele>1389</ele>
        <time>2014-07-31T10:00:22.090Z</time>
      </trkpt>
      <trkpt lat="44.93741" lon="6.80236">
        <ele>1389</ele>
        <time>2014-07-31T10:00:23.180Z</time>
      </trkpt>
      <trkpt lat="44.93739" lon="6.8024">
        <ele>1389</ele>
        <time>2014-07-31T10:00:24.090Z</time>
      </trkpt>
      <trkpt lat="44.93737" lon="6.80244">
        <ele>1389.5</ele>
        <time>2014-07-31T10:00:25.090Z</time>
      </trkpt>
      <trkpt lat="44.93736" lon="6.80248">
        <ele>1390</ele>
        <time>2014-07-31T10:00:26.090Z</time>
      </trkpt>
      <trkpt lat="44.93734" lon="6.80252">
        <ele>1390</ele>
        <time>2014-07-31T10:00:27.090Z</time>
      </trkpt>
      <trkpt lat="44.93732" lon="6.80257">
        <ele>1390</ele>
        <time>2014-07-31T10:00:28.090Z</time>
      </trkpt>
      <trkpt lat="44.93731" lon="6.8026">
        <ele>1390</ele>
        <time>2014-07-31T10:00:29.090Z</time>
      </trkpt>
      <trkpt lat="44.93729" lon="6.80264">
        <ele>1390</ele>
        <time>2014-07-31T10:00:30.090Z</time>
      </trkpt>
      <trkpt lat="44.93727" lon="6.80268">
        <ele>1390</ele>
        <time>2014-07-31T10:00:31.090Z</time>
      </trkpt>
      <trkpt lat="44.93726" lon="6.80271">
        <ele>1390</ele>
        <time>2014-07-31T10:00:32.090Z</time>
      </trkpt>
      <trkpt lat="44.93724" lon="6.80275">
        <ele>1390</ele>
        <time>2014-07-31T10:00:33.090Z</time>
      </trkpt>
      <trkpt lat="44.93723" lon="6.80279">
        <ele>1390</ele>
        <time>2014-07-31T10:00:33.950Z</time>
      </trkpt>
      <trkpt lat="44.93722" lon="6.80283">
        <ele>1390.6</ele>
        <time>2014-07-31T10:00:35.130Z</time>
      </trkpt>
      <trkpt lat="44.9372" lon="6.80286">
        <ele>1391</ele>
        <time>2014-07-31T10:00:36.090Z</time>
      </trkpt>
      <trkpt lat="44.93718" lon="6.8029">
        <ele>1391</ele>
        <time>2014-07-31T10:00:37.090Z</time>
      </trkpt>
      <trkpt lat="44.93717" lon="6.80293">
        <ele>1391</ele>
        <time>2014-07-31T10:00:38.150Z</time>
      </trkpt>
      <trkpt lat="44.93716" lon="6.80297">
        <ele>1391</ele>
        <time>2014-07-31T10:00:39.190Z</time>
      </trkpt>
      <trkpt lat="44.93715" lon="6.80301">
        <ele>1391</ele>
        <time>2014-07-31T10:00:40.190Z</time>
      </trkpt>
      <trkpt lat="44.93713" lon="6.80305">
        <ele>1391</ele>
        <time>2014-07-31T10:00:41.190Z</time>
      </trkpt>
      <trkpt lat="44.93712" lon="6.80309">
        <ele>1391</ele>
        <time>2014-07-31T10:00:42.190Z</time>
      </trkpt>
      <trkpt lat="44.93711" lon="6.80314">
        <ele>1391</ele>
        <time>2014-07-31T10:00:43.190Z</time>
      </trkpt>
      <trkpt lat="44.9371" lon="6.80318">
        <ele>1391</ele>
        <time>2014-07-31T10:00:44.190Z</time>
      </trkpt>
      <trkpt lat="44.93708" lon="6.80324">
        <ele>1392</ele>
        <time>2014-07-31T10:00:46.090Z</time>
      </trkpt>
      <trkpt lat="44.93707" lon="6.80328">
        <ele>1392</ele>
        <time>2014-07-31T10:00:47.090Z</time>
      </trkpt>
      <trkpt lat="44.93706" lon="6.80334">
        <ele>1392</ele>
        <time>2014-07-31T10:00:48.090Z</time>
      </trkpt>
      <trkpt lat="44.93705" lon="6.80339">
        <ele>1392</ele>
        <time>2014-07-31T10:00:49.090Z</time>
      </trkpt>
      <trkpt lat="44.93705" lon="6.80344">
        <ele>1392</ele>
        <time>2014-07-31T10:00:50.090Z</time>
      </trkpt>
      <trkpt lat="44.93703" lon="6.80349">
        <ele>1392</ele>
        <time>2014-07-31T10:00:51.150Z</time>
      </trkpt>
      <trkpt lat="44.93702" lon="6.80353">
        <ele>1392</ele>
        <time>2014-07-31T10:00:52.190Z</time>
      </trkpt>
      <trkpt lat="44.937" lon="6.80355">
        <ele>1392</ele>
        <time>2014-07-31T10:00:53.190Z</time>
      </trkpt>
      <trkpt lat="44.93698" lon="6.80357">
        <ele>1392</ele>
        <time>2014-07-31T10:00:54.190Z</time>
      </trkpt>
      <trkpt lat="44.93693" lon="6.80359">
        <ele>1395</ele>
        <time>2014-07-31T10:00:56.090Z</time>
      </trkpt>
      <trkpt lat="44.93691" lon="6.8036">
        <ele>1395</ele>
        <time>2014-07-31T10:00:57.190Z</time>
      </trkpt>
      <trkpt lat="44.9369" lon="6.8036">
        <ele>1395</ele>
        <time>2014-07-31T10:00:58.190Z</time>
      </trkpt>
      <trkpt lat="44.93689" lon="6.80361">
        <ele>1395</ele>
        <time>2014-07-31T10:00:59.190Z</time>
      </trkpt>
      <trkpt lat="44.93685" lon="6.80364">
        <ele>1398</ele>
        <time>2014-07-31T10:01:01.170Z</time>
      </trkpt>
      <trkpt lat="44.93684" lon="6.80366">
        <ele>1398</ele>
        <time>2014-07-31T10:01:02.090Z</time>
      </trkpt>
      <trkpt lat="44.93682" lon="6.8037">
        <ele>1398</ele>
        <time>2014-07-31T10:01:03.090Z</time>
      </trkpt>
      <trkpt lat="44.9368" lon="6.80374">
        <ele>1398</ele>
        <time>2014-07-31T10:01:04.090Z</time>
      </trkpt>
      <trkpt lat="44.93679" lon="6.80378">
        <ele>1398.5</ele>
        <time>2014-07-31T10:01:05.070Z</time>
      </trkpt>
      <trkpt lat="44.93677" lon="6.80381">
        <ele>1399</ele>
        <time>2014-07-31T10:01:06.090Z</time>
      </trkpt>
      <trkpt lat="44.93675" lon="6.80385">
        <ele>1399</ele>
        <time>2014-07-31T10:01:07.090Z</time>
      </trkpt>
      <trkpt lat="44.93673" lon="6.80388">
        <ele>1399</ele>
        <time>2014-07-31T10:01:08.090Z</time>
      </trkpt>
      <trkpt lat="44.93672" lon="6.80391">
        <ele>1399</ele>
        <time>2014-07-31T10:01:09.090Z</time>
      </trkpt>
      <trkpt lat="44.9367" lon="6.80395">
        <ele>1399</ele>
        <time>2014-07-31T10:01:10.090Z</time>
      </trkpt>
      <trkpt lat="44.93668" lon="6.804">
        <ele>1399</ele>
        <time>2014-07-31T10:01:11.090Z</time>
      </trkpt>
      <trkpt lat="44.93666" lon="6.80405">
        <ele>1399</ele>
        <time>2014-07-31T10:01:12.150Z</time>
      </trkpt>
      <trkpt lat="44.93664" lon="6.80409">
        <ele>1399</ele>
        <time>2014-07-31T10:01:13.190Z</time>
      </trkpt>
      <trkpt lat="44.93661" lon="6.80413">
        <ele>1399</ele>
        <time>2014-07-31T10:01:14.190Z</time>
      </trkpt>
      <trkpt lat="44.93659" lon="6.80418">
        <ele>1399</ele>
        <time>2014-07-31T10:01:15.170Z</time>
      </trkpt>
      <trkpt lat="44.93658" lon="6.80422">
        <ele>1399</ele>
        <time>2014-07-31T10:01:16.190Z</time>
      </trkpt>
      <trkpt lat="44.93654" lon="6.80432">
        <ele>1399</ele>
        <time>2014-07-31T10:01:18.090Z</time>
      </trkpt>
      <trkpt lat="44.93651" lon="6.80437">
        <ele>1399</ele>
        <time>2014-07-31T10:01:19.090Z</time>
      </trkpt>
      <trkpt lat="44.93648" lon="6.80441">
        <ele>1399</ele>
        <time>2014-07-31T10:01:20.090Z</time>
      </trkpt>
      <trkpt lat="44.93646" lon="6.80444">
        <ele>1399</ele>
        <time>2014-07-31T10:01:21.090Z</time>
      </trkpt>
      <trkpt lat="44.93644" lon="6.80448">
        <ele>1399</ele>
        <time>2014-07-31T10:01:22.090Z</time>
      </trkpt>
      <trkpt lat="44.93643" lon="6.80451">
        <ele>1399</ele>
        <time>2014-07-31T10:01:23.090Z</time>
      </trkpt>
      <trkpt lat="44.93641" lon="6.80453">
        <ele>1399</ele>
        <time>2014-07-31T10:01:24.090Z</time>
      </trkpt>
      <trkpt lat="44.9364" lon="6.80456">
        <ele>1400.2</ele>
        <time>2014-07-31T10:01:25.160Z</time>
      </trkpt>
      <trkpt lat="44.93638" lon="6.80459">
        <ele>1401</ele>
        <time>2014-07-31T10:01:26.090Z</time>
      </trkpt>
      <trkpt lat="44.93638" lon="6.80462">
        <ele>1401</ele>
        <time>2014-07-31T10:01:27.090Z</time>
      </trkpt>
      <trkpt lat="44.93637" lon="6.80466">
        <ele>1401</ele>
        <time>2014-07-31T10:01:28.090Z</time>
      </trkpt>
      <trkpt lat="44.93636" lon="6.80469">
        <ele>1401</ele>
        <time>2014-07-31T10:01:29.090Z</time>
      </trkpt>
      <trkpt lat="44.93635" lon="6.80472">
        <ele>1401</ele>
        <time>2014-07-31T10:01:30.190Z</time>
      </trkpt>
      <trkpt lat="44.93634" lon="6.80475">
        <ele>1401</ele>
        <time>2014-07-31T10:01:31.190Z</time>
      </trkpt>
      <trkpt lat="44.93633" lon="6.80478">
        <ele>1401</ele>
        <time>2014-07-31T10:01:32.190Z</time>
      </trkpt>
      <trkpt lat="44.93631" lon="6.80481">
        <ele>1401</ele>
        <time>2014-07-31T10:01:33.190Z</time>
      </trkpt>
      <trkpt lat="44.93628" lon="6.80487">
        <ele>1402</ele>
        <time>2014-07-31T10:01:35.090Z</time>
      </trkpt>
      <trkpt lat="44.93627" lon="6.80489">
        <ele>1403</ele>
        <time>2014-07-31T10:01:36.150Z</time>
      </trkpt>
      <trkpt lat="44.93626" lon="6.80491">
        <ele>1403</ele>
        <time>2014-07-31T10:01:37.090Z</time>
      </trkpt>
      <trkpt lat="44.93625" lon="6.80492">
        <ele>1403</ele>
        <time>2014-07-31T10:01:38.090Z</time>
      </trkpt>
      <trkpt lat="44.93624" lon="6.80493">
        <ele>1403</ele>
        <time>2014-07-31T10:01:39.090Z</time>
      </trkpt>
      <trkpt lat="44.93623" lon="6.80496">
        <ele>1403</ele>
        <time>2014-07-31T10:01:40.090Z</time>
      </trkpt>
      <trkpt lat="44.93622" lon="6.80499">
        <ele>1403</ele>
        <time>2014-07-31T10:01:41.090Z</time>
      </trkpt>
      <trkpt lat="44.9362" lon="6.80501">
        <ele>1403</ele>
        <time>2014-07-31T10:01:42.090Z</time>
      </trkpt>
      <trkpt lat="44.93619" lon="6.80502">
        <ele>1403</ele>
        <time>2014-07-31T10:01:43.090Z</time>
      </trkpt>
      <trkpt lat="44.93618" lon="6.80504">
        <ele>1403</ele>
        <time>2014-07-31T10:01:44.090Z</time>
      </trkpt>
      <trkpt lat="44.93617" lon="6.80504">
        <ele>1403</ele>
        <time>2014-07-31T10:01:46.150Z</time>
      </trkpt>
      <trkpt lat="44.93616" lon="6.80505">
        <ele>1403</ele>
        <time>2014-07-31T10:01:48.190Z</time>
      </trkpt>
      <trkpt lat="44.93615" lon="6.80507">
        <ele>1403</ele>
        <time>2014-07-31T10:01:49.190Z</time>
      </trkpt>
      <trkpt lat="44.93614" lon="6.80507">
        <ele>1403</ele>
        <time>2014-07-31T10:01:53.090Z</time>
      </trkpt>
      <trkpt lat="44.93613" lon="6.80508">
        <ele>1403</ele>
        <time>2014-07-31T10:01:55.090Z</time>
      </trkpt>
      <trkpt lat="44.93612" lon="6.8051">
        <ele>1403</ele>
        <time>2014-07-31T10:01:57.090Z</time>
      </trkpt>
      <trkpt lat="44.93611" lon="6.80511">
        <ele>1403</ele>
        <time>2014-07-31T10:01:58.190Z</time>
      </trkpt>
      <trkpt lat="44.93611" lon="6.80515">
        <ele>1403</ele>
        <time>2014-07-31T10:02:01.090Z</time>
      </trkpt>
      <trkpt lat="44.93611" lon="6.80517">
        <ele>1403</ele>
        <time>2014-07-31T10:02:02.090Z</time>
      </trkpt>
      <trkpt lat="44.93612" lon="6.80519">
        <ele>1403</ele>
        <time>2014-07-31T10:02:03.150Z</time>
      </trkpt>
      <trkpt lat="44.93612" lon="6.80522">
        <ele>1403</ele>
        <time>2014-07-31T10:02:04.190Z</time>
      </trkpt>
      <trkpt lat="44.93611" lon="6.80526">
        <ele>1403</ele>
        <time>2014-07-31T10:02:05.190Z</time>
      </trkpt>
      <trkpt lat="44.93611" lon="6.80531">
        <ele>1403</ele>
        <time>2014-07-31T10:02:06.190Z</time>
      </trkpt>
      <trkpt lat="44.93611" lon="6.80536">
        <ele>1403</ele>
        <time>2014-07-31T10:02:07.190Z</time>
      </trkpt>
      <trkpt lat="44.93611" lon="6.80545">
        <ele>1403</ele>
        <time>2014-07-31T10:02:09.090Z</time>
      </trkpt>
      <trkpt lat="44.93611" lon="6.80549">
        <ele>1403</ele>
        <time>2014-07-31T10:02:10.090Z</time>
      </trkpt>
      <trkpt lat="44.93611" lon="6.80554">
        <ele>1403</ele>
        <time>2014-07-31T10:02:11.090Z</time>
      </trkpt>
      <trkpt lat="44.9361" lon="6.80558">
        <ele>1403</ele>
        <time>2014-07-31T10:02:12.090Z</time>
      </trkpt>
      <trkpt lat="44.9361" lon="6.80562">
        <ele>1403</ele>
        <time>2014-07-31T10:02:13.090Z</time>
      </trkpt>
      <trkpt lat="44.9361" lon="6.80566">
        <ele>1403</ele>
        <time>2014-07-31T10:02:14.090Z</time>
      </trkpt>
      <trkpt lat="44.9361" lon="6.80573">
        <ele>1403</ele>
        <time>2014-07-31T10:02:15.090Z</time>
      </trkpt>
      <trkpt lat="44.93609" lon="6.80579">
        <ele>1403</ele>
        <time>2014-07-31T10:02:16.090Z</time>
      </trkpt>
      <trkpt lat="44.93608" lon="6.80585">
        <ele>1403</ele>
        <time>2014-07-31T10:02:17.150Z</time>
      </trkpt>
      <trkpt lat="44.93607" lon="6.80595">
        <ele>1403</ele>
        <time>2014-07-31T10:02:19.090Z</time>
      </trkpt>
      <trkpt lat="44.93606" lon="6.806">
        <ele>1403</ele>
        <time>2014-07-31T10:02:20.090Z</time>
      </trkpt>
      <trkpt lat="44.93604" lon="6.80606">
        <ele>1403</ele>
        <time>2014-07-31T10:02:21.190Z</time>
      </trkpt>
      <trkpt lat="44.93602" lon="6.80613">
        <ele>1403</ele>
        <time>2014-07-31T10:02:22.190Z</time>
      </trkpt>
      <trkpt lat="44.93601" lon="6.8062">
        <ele>1403</ele>
        <time>2014-07-31T10:02:23.190Z</time>
      </trkpt>
      <trkpt lat="44.93599" lon="6.80626">
        <ele>1403</ele>
        <time>2014-07-31T10:02:24.190Z</time>
      </trkpt>
      <trkpt lat="44.93597" lon="6.80631">
        <ele>1403.7</ele>
        <time>2014-07-31T10:02:25.280Z</time>
      </trkpt>
      <trkpt lat="44.93597" lon="6.80636">
        <ele>1404</ele>
        <time>2014-07-31T10:02:26.190Z</time>
      </trkpt>
      <trkpt lat="44.93597" lon="6.8064">
        <ele>1404</ele>
        <time>2014-07-31T10:02:27.190Z</time>
      </trkpt>
      <trkpt lat="44.93599" lon="6.80649">
        <ele>1404</ele>
        <time>2014-07-31T10:02:29.090Z</time>
      </trkpt>
      <trkpt lat="44.936" lon="6.80653">
        <ele>1404</ele>
        <time>2014-07-31T10:02:30.090Z</time>
      </trkpt>
      <trkpt lat="44.936" lon="6.80658">
        <ele>1404</ele>
        <time>2014-07-31T10:02:31.090Z</time>
      </trkpt>
      <trkpt lat="44.936" lon="6.80663">
        <ele>1404</ele>
        <time>2014-07-31T10:02:32.090Z</time>
      </trkpt>
      <trkpt lat="44.93599" lon="6.80668">
        <ele>1404</ele>
        <time>2014-07-31T10:02:33.190Z</time>
      </trkpt>
      <trkpt lat="44.93597" lon="6.80676">
        <ele>1405.6</ele>
        <time>2014-07-31T10:02:35.090Z</time>
      </trkpt>
      <trkpt lat="44.93594" lon="6.80679">
        <ele>1407</ele>
        <time>2014-07-31T10:02:36.090Z</time>
      </trkpt>
      <trkpt lat="44.93593" lon="6.80683">
        <ele>1407</ele>
        <time>2014-07-31T10:02:37.150Z</time>
      </trkpt>
      <trkpt lat="44.93591" lon="6.80687">
        <ele>1407</ele>
        <time>2014-07-31T10:02:38.190Z</time>
      </trkpt>
      <trkpt lat="44.93588" lon="6.80695">
        <ele>1407</ele>
        <time>2014-07-31T10:02:40.190Z</time>
      </trkpt>
      <trkpt lat="44.93587" lon="6.80699">
        <ele>1407</ele>
        <time>2014-07-31T10:02:41.190Z</time>
      </trkpt>
      <trkpt lat="44.93585" lon="6.80702">
        <ele>1407</ele>
        <time>2014-07-31T10:02:42.190Z</time>
      </trkpt>
      <trkpt lat="44.93583" lon="6.80706">
        <ele>1407</ele>
        <time>2014-07-31T10:02:43.190Z</time>
      </trkpt>
      <trkpt lat="44.93581" lon="6.8071">
        <ele>1407</ele>
        <time>2014-07-31T10:02:44.190Z</time>
      </trkpt>
      <trkpt lat="44.93579" lon="6.80713">
        <ele>1407</ele>
        <time>2014-07-31T10:02:45.190Z</time>
      </trkpt>
      <trkpt lat="44.93577" lon="6.80717">
        <ele>1407</ele>
        <time>2014-07-31T10:02:46.190Z</time>
      </trkpt>
      <trkpt lat="44.93575" lon="6.8072">
        <ele>1407</ele>
        <time>2014-07-31T10:02:47.190Z</time>
      </trkpt>
      <trkpt lat="44.93573" lon="6.80723">
        <ele>1407</ele>
        <time>2014-07-31T10:02:48.190Z</time>
      </trkpt>
      <trkpt lat="44.93571" lon="6.80726">
        <ele>1407</ele>
        <time>2014-07-31T10:02:49.190Z</time>
      </trkpt>
      <trkpt lat="44.93569" lon="6.80729">
        <ele>1407</ele>
        <time>2014-07-31T10:02:50.280Z</time>
      </trkpt>
      <trkpt lat="44.93564" lon="6.80736">
        <ele>1407</ele>
        <time>2014-07-31T10:02:52.090Z</time>
      </trkpt>
      <trkpt lat="44.93563" lon="6.80741">
        <ele>1407</ele>
        <time>2014-07-31T10:02:53.090Z</time>
      </trkpt>
      <trkpt lat="44.93561" lon="6.80746">
        <ele>1407</ele>
        <time>2014-07-31T10:02:54.150Z</time>
      </trkpt>
      <trkpt lat="44.93561" lon="6.8075">
        <ele>1407.6</ele>
        <time>2014-07-31T10:02:55.190Z</time>
      </trkpt>
      <trkpt lat="44.93561" lon="6.80755">
        <ele>1408</ele>
        <time>2014-07-31T10:02:56.190Z</time>
      </trkpt>
      <trkpt lat="44.9356" lon="6.80759">
        <ele>1408</ele>
        <time>2014-07-31T10:02:57.190Z</time>
      </trkpt>
      <trkpt lat="44.93559" lon="6.80767">
        <ele>1408</ele>
        <time>2014-07-31T10:02:59.090Z</time>
      </trkpt>
      <trkpt lat="44.93558" lon="6.8077">
        <ele>1408</ele>
        <time>2014-07-31T10:03:00.150Z</time>
      </trkpt>
      <trkpt lat="44.93556" lon="6.80778">
        <ele>1408</ele>
        <time>2014-07-31T10:03:02.190Z</time>
      </trkpt>
      <trkpt lat="44.93555" lon="6.80783">
        <ele>1408</ele>
        <time>2014-07-31T10:03:03.190Z</time>
      </trkpt>
      <trkpt lat="44.93554" lon="6.80788">
        <ele>1408</ele>
        <time>2014-07-31T10:03:04.190Z</time>
      </trkpt>
      <trkpt lat="44.93553" lon="6.80792">
        <ele>1408.6</ele>
        <time>2014-07-31T10:03:05.190Z</time>
      </trkpt>
      <trkpt lat="44.93552" lon="6.80796">
        <ele>1409</ele>
        <time>2014-07-31T10:03:06.190Z</time>
      </trkpt>
      <trkpt lat="44.93551" lon="6.808">
        <ele>1409</ele>
        <time>2014-07-31T10:03:07.190Z</time>
      </trkpt>
      <trkpt lat="44.93549" lon="6.80803">
        <ele>1409</ele>
        <time>2014-07-31T10:03:08.190Z</time>
      </trkpt>
      <trkpt lat="44.93547" lon="6.80806">
        <ele>1409</ele>
        <time>2014-07-31T10:03:09.190Z</time>
      </trkpt>
      <trkpt lat="44.93545" lon="6.8081">
        <ele>1409</ele>
        <time>2014-07-31T10:03:10.170Z</time>
      </trkpt>
      <trkpt lat="44.93542" lon="6.80819">
        <ele>1409</ele>
        <time>2014-07-31T10:03:12.090Z</time>
      </trkpt>
      <trkpt lat="44.9354" lon="6.80824">
        <ele>1409</ele>
        <time>2014-07-31T10:03:13.090Z</time>
      </trkpt>
      <trkpt lat="44.93538" lon="6.80828">
        <ele>1409</ele>
        <time>2014-07-31T10:03:14.090Z</time>
      </trkpt>
      <trkpt lat="44.93536" lon="6.80834">
        <ele>1409.5</ele>
        <time>2014-07-31T10:03:15.090Z</time>
      </trkpt>
      <trkpt lat="44.93534" lon="6.80839">
        <ele>1410</ele>
        <time>2014-07-31T10:03:16.090Z</time>
      </trkpt>
      <trkpt lat="44.93533" lon="6.80844">
        <ele>1410</ele>
        <time>2014-07-31T10:03:17.130Z</time>
      </trkpt>
      <trkpt lat="44.93531" lon="6.80848">
        <ele>1410</ele>
        <time>2014-07-31T10:03:18.190Z</time>
      </trkpt>
      <trkpt lat="44.93529" lon="6.80852">
        <ele>1410</ele>
        <time>2014-07-31T10:03:19.190Z</time>
      </trkpt>
      <trkpt lat="44.93528" lon="6.80855">
        <ele>1410</ele>
        <time>2014-07-31T10:03:20.190Z</time>
      </trkpt>
      <trkpt lat="44.93526" lon="6.80865">
        <ele>1410</ele>
        <time>2014-07-31T10:03:22.190Z</time>
      </trkpt>
      <trkpt lat="44.93523" lon="6.80876">
        <ele>1410</ele>
        <time>2014-07-31T10:03:24.090Z</time>
      </trkpt>
      <trkpt lat="44.93522" lon="6.80882">
        <ele>1411</ele>
        <time>2014-07-31T10:03:25.090Z</time>
      </trkpt>
      <trkpt lat="44.93522" lon="6.80887">
        <ele>1412</ele>
        <time>2014-07-31T10:03:26.090Z</time>
      </trkpt>
      <trkpt lat="44.93521" lon="6.80893">
        <ele>1412</ele>
        <time>2014-07-31T10:03:27.140Z</time>
      </trkpt>
      <trkpt lat="44.93519" lon="6.809">
        <ele>1412</ele>
        <time>2014-07-31T10:03:28.150Z</time>
      </trkpt>
      <trkpt lat="44.93518" lon="6.80906">
        <ele>1412</ele>
        <time>2014-07-31T10:03:29.190Z</time>
      </trkpt>
      <trkpt lat="44.93517" lon="6.80912">
        <ele>1412</ele>
        <time>2014-07-31T10:03:30.190Z</time>
      </trkpt>
      <trkpt lat="44.93515" lon="6.80919">
        <ele>1412</ele>
        <time>2014-07-31T10:03:31.190Z</time>
      </trkpt>
      <trkpt lat="44.93515" lon="6.80927">
        <ele>1412</ele>
        <time>2014-07-31T10:03:32.170Z</time>
      </trkpt>
      <trkpt lat="44.93514" lon="6.80935">
        <ele>1412</ele>
        <time>2014-07-31T10:03:33.190Z</time>
      </trkpt>
      <trkpt lat="44.93512" lon="6.80951">
        <ele>1412</ele>
        <time>2014-07-31T10:03:35.090Z</time>
      </trkpt>
      <trkpt lat="44.93511" lon="6.80959">
        <ele>1412</ele>
        <time>2014-07-31T10:03:36.090Z</time>
      </trkpt>
      <trkpt lat="44.93509" lon="6.80967">
        <ele>1412</ele>
        <time>2014-07-31T10:03:37.090Z</time>
      </trkpt>
      <trkpt lat="44.93508" lon="6.80975">
        <ele>1412</ele>
        <time>2014-07-31T10:03:38.090Z</time>
      </trkpt>
      <trkpt lat="44.93507" lon="6.80983">
        <ele>1412</ele>
        <time>2014-07-31T10:03:39.090Z</time>
      </trkpt>
      <trkpt lat="44.93505" lon="6.8099">
        <ele>1412</ele>
        <time>2014-07-31T10:03:40.090Z</time>
      </trkpt>
      <trkpt lat="44.93504" lon="6.80997">
        <ele>1412</ele>
        <time>2014-07-31T10:03:41.090Z</time>
      </trkpt>
      <trkpt lat="44.93502" lon="6.81004">
        <ele>1412</ele>
        <time>2014-07-31T10:03:42.090Z</time>
      </trkpt>
      <trkpt lat="44.93501" lon="6.81011">
        <ele>1412</ele>
        <time>2014-07-31T10:03:43.170Z</time>
      </trkpt>
      <trkpt lat="44.935" lon="6.81018">
        <ele>1412</ele>
        <time>2014-07-31T10:03:44.190Z</time>
      </trkpt>
      <trkpt lat="44.93497" lon="6.81032">
        <ele>1412</ele>
        <time>2014-07-31T10:03:46.090Z</time>
      </trkpt>
      <trkpt lat="44.93496" lon="6.81038">
        <ele>1412</ele>
        <time>2014-07-31T10:03:47.090Z</time>
      </trkpt>
      <trkpt lat="44.93495" lon="6.81045">
        <ele>1412</ele>
        <time>2014-07-31T10:03:48.190Z</time>
      </trkpt>
      <trkpt lat="44.93494" lon="6.81051">
        <ele>1412</ele>
        <time>2014-07-31T10:03:49.190Z</time>
      </trkpt>
      <trkpt lat="44.93493" lon="6.81058">
        <ele>1412</ele>
        <time>2014-07-31T10:03:50.190Z</time>
      </trkpt>
      <trkpt lat="44.93489" lon="6.81071">
        <ele>1412</ele>
        <time>2014-07-31T10:03:52.090Z</time>
      </trkpt>
      <trkpt lat="44.93487" lon="6.81077">
        <ele>1412</ele>
        <time>2014-07-31T10:03:53.180Z</time>
      </trkpt>
      <trkpt lat="44.93485" lon="6.81083">
        <ele>1412</ele>
        <time>2014-07-31T10:03:54.090Z</time>
      </trkpt>
      <trkpt lat="44.93482" lon="6.81095">
        <ele>1413</ele>
        <time>2014-07-31T10:03:56.090Z</time>
      </trkpt>
      <trkpt lat="44.9348" lon="6.81101">
        <ele>1413</ele>
        <time>2014-07-31T10:03:57.090Z</time>
      </trkpt>
      <trkpt lat="44.93479" lon="6.81106">
        <ele>1413</ele>
        <time>2014-07-31T10:03:58.090Z</time>
      </trkpt>
      <trkpt lat="44.93477" lon="6.81111">
        <ele>1413</ele>
        <time>2014-07-31T10:03:59.090Z</time>
      </trkpt>
      <trkpt lat="44.93476" lon="6.81116">
        <ele>1413</ele>
        <time>2014-07-31T10:04:00.150Z</time>
      </trkpt>
      <trkpt lat="44.93475" lon="6.81121">
        <ele>1413</ele>
        <time>2014-07-31T10:04:01.190Z</time>
      </trkpt>
      <trkpt lat="44.93472" lon="6.81129">
        <ele>1413</ele>
        <time>2014-07-31T10:04:03.190Z</time>
      </trkpt>
      <trkpt lat="44.93471" lon="6.81133">
        <ele>1413</ele>
        <time>2014-07-31T10:04:04.190Z</time>
      </trkpt>
      <trkpt lat="44.9347" lon="6.81137">
        <ele>1414.4</ele>
        <time>2014-07-31T10:04:05.280Z</time>
      </trkpt>
      <trkpt lat="44.9347" lon="6.81142">
        <ele>1415</ele>
        <time>2014-07-31T10:04:06.190Z</time>
      </trkpt>
      <trkpt lat="44.9347" lon="6.81147">
        <ele>1415</ele>
        <time>2014-07-31T10:04:07.190Z</time>
      </trkpt>
      <trkpt lat="44.9347" lon="6.81151">
        <ele>1415</ele>
        <time>2014-07-31T10:04:08.190Z</time>
      </trkpt>
      <trkpt lat="44.93471" lon="6.81156">
        <ele>1415</ele>
        <time>2014-07-31T10:04:09.190Z</time>
      </trkpt>
      <trkpt lat="44.93471" lon="6.81161">
        <ele>1415</ele>
        <time>2014-07-31T10:04:10.190Z</time>
      </trkpt>
      <trkpt lat="44.93472" lon="6.81166">
        <ele>1415</ele>
        <time>2014-07-31T10:04:11.190Z</time>
      </trkpt>
      <trkpt lat="44.93472" lon="6.8117">
        <ele>1415</ele>
        <time>2014-07-31T10:04:12.190Z</time>
      </trkpt>
      <trkpt lat="44.93471" lon="6.8118">
        <ele>1415</ele>
        <time>2014-07-31T10:04:14.090Z</time>
      </trkpt>
      <trkpt lat="44.93471" lon="6.81185">
        <ele>1415</ele>
        <time>2014-07-31T10:04:15.090Z</time>
      </trkpt>
      <trkpt lat="44.93471" lon="6.8119">
        <ele>1415</ele>
        <time>2014-07-31T10:04:16.090Z</time>
      </trkpt>
      <trkpt lat="44.9347" lon="6.81195">
        <ele>1415</ele>
        <time>2014-07-31T10:04:17.010Z</time>
      </trkpt>
      <trkpt lat="44.9347" lon="6.81201">
        <ele>1415</ele>
        <time>2014-07-31T10:04:18.090Z</time>
      </trkpt>
      <trkpt lat="44.9347" lon="6.81206">
        <ele>1415</ele>
        <time>2014-07-31T10:04:19.090Z</time>
      </trkpt>
      <trkpt lat="44.93471" lon="6.81211">
        <ele>1415</ele>
        <time>2014-07-31T10:04:20.190Z</time>
      </trkpt>
      <trkpt lat="44.93471" lon="6.81216">
        <ele>1415</ele>
        <time>2014-07-31T10:04:21.190Z</time>
      </trkpt>
      <trkpt lat="44.9347" lon="6.81221">
        <ele>1415</ele>
        <time>2014-07-31T10:04:22.190Z</time>
      </trkpt>
      <trkpt lat="44.9347" lon="6.81227">
        <ele>1415</ele>
        <time>2014-07-31T10:04:23.190Z</time>
      </trkpt>
      <trkpt lat="44.93469" lon="6.81233">
        <ele>1415</ele>
        <time>2014-07-31T10:04:24.190Z</time>
      </trkpt>
      <trkpt lat="44.93468" lon="6.81238">
        <ele>1415.6</ele>
        <time>2014-07-31T10:04:25.190Z</time>
      </trkpt>
      <trkpt lat="44.93467" lon="6.81242">
        <ele>1416</ele>
        <time>2014-07-31T10:04:26.190Z</time>
      </trkpt>
      <trkpt lat="44.93467" lon="6.81246">
        <ele>1416</ele>
        <time>2014-07-31T10:04:27.190Z</time>
      </trkpt>
      <trkpt lat="44.93466" lon="6.81254">
        <ele>1416</ele>
        <time>2014-07-31T10:04:29.090Z</time>
      </trkpt>
      <trkpt lat="44.93465" lon="6.81257">
        <ele>1416</ele>
        <time>2014-07-31T10:04:30.090Z</time>
      </trkpt>
      <trkpt lat="44.93464" lon="6.81261">
        <ele>1416</ele>
        <time>2014-07-31T10:04:31.090Z</time>
      </trkpt>
      <trkpt lat="44.93462" lon="6.81266">
        <ele>1416</ele>
        <time>2014-07-31T10:04:32.090Z</time>
      </trkpt>
      <trkpt lat="44.93461" lon="6.81274">
        <ele>1416</ele>
        <time>2014-07-31T10:04:33.090Z</time>
      </trkpt>
      <trkpt lat="44.9346" lon="6.81282">
        <ele>1416</ele>
        <time>2014-07-31T10:04:34.150Z</time>
      </trkpt>
      <trkpt lat="44.9346" lon="6.8129">
        <ele>1416.6</ele>
        <time>2014-07-31T10:04:35.190Z</time>
      </trkpt>
      <trkpt lat="44.93457" lon="6.81304">
        <ele>1417</ele>
        <time>2014-07-31T10:04:37.090Z</time>
      </trkpt>
      <trkpt lat="44.93456" lon="6.8131">
        <ele>1417</ele>
        <time>2014-07-31T10:04:38.190Z</time>
      </trkpt>
      <trkpt lat="44.93454" lon="6.81316">
        <ele>1417</ele>
        <time>2014-07-31T10:04:39.190Z</time>
      </trkpt>
      <trkpt lat="44.93451" lon="6.81328">
        <ele>1417</ele>
        <time>2014-07-31T10:04:41.190Z</time>
      </trkpt>
      <trkpt lat="44.9345" lon="6.81334">
        <ele>1417</ele>
        <time>2014-07-31T10:04:42.190Z</time>
      </trkpt>
      <trkpt lat="44.93449" lon="6.8134">
        <ele>1417</ele>
        <time>2014-07-31T10:04:43.190Z</time>
      </trkpt>
      <trkpt lat="44.93449" lon="6.81346">
        <ele>1417</ele>
        <time>2014-07-31T10:04:44.190Z</time>
      </trkpt>
      <trkpt lat="44.93449" lon="6.81352">
        <ele>1417.6</ele>
        <time>2014-07-31T10:04:45.190Z</time>
      </trkpt>
      <trkpt lat="44.93449" lon="6.81358">
        <ele>1418</ele>
        <time>2014-07-31T10:04:46.190Z</time>
      </trkpt>
      <trkpt lat="44.9345" lon="6.81363">
        <ele>1418</ele>
        <time>2014-07-31T10:04:47.190Z</time>
      </trkpt>
      <trkpt lat="44.9345" lon="6.81368">
        <ele>1418</ele>
        <time>2014-07-31T10:04:48.190Z</time>
      </trkpt>
      <trkpt lat="44.93449" lon="6.81374">
        <ele>1418</ele>
        <time>2014-07-31T10:04:49.190Z</time>
      </trkpt>
      <trkpt lat="44.93449" lon="6.81378">
        <ele>1418</ele>
        <time>2014-07-31T10:04:50.190Z</time>
      </trkpt>
      <trkpt lat="44.93447" lon="6.81387">
        <ele>1418</ele>
        <time>2014-07-31T10:04:52.090Z</time>
      </trkpt>
      <trkpt lat="44.93447" lon="6.81391">
        <ele>1418</ele>
        <time>2014-07-31T10:04:53.150Z</time>
      </trkpt>
      <trkpt lat="44.93447" lon="6.81395">
        <ele>1418</ele>
        <time>2014-07-31T10:04:54.190Z</time>
      </trkpt>
      <trkpt lat="44.93446" lon="6.81399">
        <ele>1418</ele>
        <time>2014-07-31T10:04:55.190Z</time>
      </trkpt>
      <trkpt lat="44.93445" lon="6.81403">
        <ele>1418</ele>
        <time>2014-07-31T10:04:56.190Z</time>
      </trkpt>
      <trkpt lat="44.93443" lon="6.81406">
        <ele>1418</ele>
        <time>2014-07-31T10:04:57.190Z</time>
      </trkpt>
      <trkpt lat="44.93441" lon="6.8141">
        <ele>1418</ele>
        <time>2014-07-31T10:04:58.190Z</time>
      </trkpt>
      <trkpt lat="44.93439" lon="6.81414">
        <ele>1418</ele>
        <time>2014-07-31T10:04:59.190Z</time>
      </trkpt>
      <trkpt lat="44.93439" lon="6.81423">
        <ele>1418</ele>
        <time>2014-07-31T10:05:01.090Z</time>
      </trkpt>
      <trkpt lat="44.93438" lon="6.81432">
        <ele>1418</ele>
        <time>2014-07-31T10:05:03.190Z</time>
      </trkpt>
      <trkpt lat="44.93436" lon="6.81437">
        <ele>1418</ele>
        <time>2014-07-31T10:05:04.190Z</time>
      </trkpt>
      <trkpt lat="44.93434" lon="6.81441">
        <ele>1418</ele>
        <time>2014-07-31T10:05:05.190Z</time>
      </trkpt>
      <trkpt lat="44.93433" lon="6.81445">
        <ele>1418</ele>
        <time>2014-07-31T10:05:06.190Z</time>
      </trkpt>
      <trkpt lat="44.93431" lon="6.81449">
        <ele>1418</ele>
        <time>2014-07-31T10:05:07.190Z</time>
      </trkpt>
      <trkpt lat="44.9343" lon="6.81454">
        <ele>1418</ele>
        <time>2014-07-31T10:05:08.190Z</time>
      </trkpt>
      <trkpt lat="44.93429" lon="6.81458">
        <ele>1418</ele>
        <time>2014-07-31T10:05:09.190Z</time>
      </trkpt>
      <trkpt lat="44.93427" lon="6.81465">
        <ele>1418</ele>
        <time>2014-07-31T10:05:11.090Z</time>
      </trkpt>
      <trkpt lat="44.93426" lon="6.81468">
        <ele>1418</ele>
        <time>2014-07-31T10:05:12.070Z</time>
      </trkpt>
      <trkpt lat="44.93424" lon="6.81471">
        <ele>1418</ele>
        <time>2014-07-31T10:05:13.090Z</time>
      </trkpt>
      <trkpt lat="44.93424" lon="6.81475">
        <ele>1418</ele>
        <time>2014-07-31T10:05:14.090Z</time>
      </trkpt>
      <trkpt lat="44.93423" lon="6.8148">
        <ele>1418.5</ele>
        <time>2014-07-31T10:05:15.090Z</time>
      </trkpt>
      <trkpt lat="44.93422" lon="6.81485">
        <ele>1419</ele>
        <time>2014-07-31T10:05:16.090Z</time>
      </trkpt>
      <trkpt lat="44.9342" lon="6.81489">
        <ele>1419</ele>
        <time>2014-07-31T10:05:16.990Z</time>
      </trkpt>
      <trkpt lat="44.93419" lon="6.81493">
        <ele>1419</ele>
        <time>2014-07-31T10:05:18.090Z</time>
      </trkpt>
      <trkpt lat="44.93417" lon="6.81496">
        <ele>1419</ele>
        <time>2014-07-31T10:05:19.090Z</time>
      </trkpt>
      <trkpt lat="44.93415" lon="6.815">
        <ele>1419</ele>
        <time>2014-07-31T10:05:20.090Z</time>
      </trkpt>
      <trkpt lat="44.93413" lon="6.81504">
        <ele>1419</ele>
        <time>2014-07-31T10:05:21.180Z</time>
      </trkpt>
      <trkpt lat="44.93412" lon="6.81509">
        <ele>1419</ele>
        <time>2014-07-31T10:05:22.090Z</time>
      </trkpt>
      <trkpt lat="44.9341" lon="6.81514">
        <ele>1419</ele>
        <time>2014-07-31T10:05:23.170Z</time>
      </trkpt>
      <trkpt lat="44.93409" lon="6.81518">
        <ele>1419</ele>
        <time>2014-07-31T10:05:24.190Z</time>
      </trkpt>
      <trkpt lat="44.93408" lon="6.81523">
        <ele>1419</ele>
        <time>2014-07-31T10:05:25.190Z</time>
      </trkpt>
      <trkpt lat="44.93406" lon="6.81527">
        <ele>1419</ele>
        <time>2014-07-31T10:05:26.190Z</time>
      </trkpt>
      <trkpt lat="44.93403" lon="6.81535">
        <ele>1419</ele>
        <time>2014-07-31T10:05:28.090Z</time>
      </trkpt>
      <trkpt lat="44.93402" lon="6.81539">
        <ele>1419</ele>
        <time>2014-07-31T10:05:29.090Z</time>
      </trkpt>
      <trkpt lat="44.934" lon="6.81543">
        <ele>1419</ele>
        <time>2014-07-31T10:05:30.090Z</time>
      </trkpt>
      <trkpt lat="44.93398" lon="6.81546">
        <ele>1419</ele>
        <time>2014-07-31T10:05:31.090Z</time>
      </trkpt>
      <trkpt lat="44.93396" lon="6.8155">
        <ele>1419</ele>
        <time>2014-07-31T10:05:32.090Z</time>
      </trkpt>
      <trkpt lat="44.93394" lon="6.81553">
        <ele>1419</ele>
        <time>2014-07-31T10:05:33.090Z</time>
      </trkpt>
      <trkpt lat="44.93392" lon="6.81557">
        <ele>1419</ele>
        <time>2014-07-31T10:05:34.050Z</time>
      </trkpt>
      <trkpt lat="44.93391" lon="6.81561">
        <ele>1419.5</ele>
        <time>2014-07-31T10:05:35.090Z</time>
      </trkpt>
      <trkpt lat="44.93391" lon="6.81564">
        <ele>1420</ele>
        <time>2014-07-31T10:05:36.090Z</time>
      </trkpt>
      <trkpt lat="44.93391" lon="6.81568">
        <ele>1420</ele>
        <time>2014-07-31T10:05:37.090Z</time>
      </trkpt>
      <trkpt lat="44.9339" lon="6.81573">
        <ele>1420</ele>
        <time>2014-07-31T10:05:38.090Z</time>
      </trkpt>
      <trkpt lat="44.93389" lon="6.81578">
        <ele>1420</ele>
        <time>2014-07-31T10:05:39.090Z</time>
      </trkpt>
      <trkpt lat="44.93387" lon="6.81582">
        <ele>1420</ele>
        <time>2014-07-31T10:05:40.090Z</time>
      </trkpt>
      <trkpt lat="44.93386" lon="6.81587">
        <ele>1420</ele>
        <time>2014-07-31T10:05:41.090Z</time>
      </trkpt>
      <trkpt lat="44.93384" lon="6.81591">
        <ele>1420</ele>
        <time>2014-07-31T10:05:42.090Z</time>
      </trkpt>
      <trkpt lat="44.93383" lon="6.81595">
        <ele>1420</ele>
        <time>2014-07-31T10:05:43.090Z</time>
      </trkpt>
      <trkpt lat="44.93382" lon="6.81599">
        <ele>1420</ele>
        <time>2014-07-31T10:05:44.150Z</time>
      </trkpt>
      <trkpt lat="44.93381" lon="6.81602">
        <ele>1420.6</ele>
        <time>2014-07-31T10:05:45.190Z</time>
      </trkpt>
      <trkpt lat="44.9338" lon="6.81605">
        <ele>1421</ele>
        <time>2014-07-31T10:05:46.190Z</time>
      </trkpt>
      <trkpt lat="44.93379" lon="6.8161">
        <ele>1421</ele>
        <time>2014-07-31T10:05:47.170Z</time>
      </trkpt>
      <trkpt lat="44.93378" lon="6.81614">
        <ele>1421</ele>
        <time>2014-07-31T10:05:48.280Z</time>
      </trkpt>
      <trkpt lat="44.93377" lon="6.81618">
        <ele>1421</ele>
        <time>2014-07-31T10:05:49.190Z</time>
      </trkpt>
      <trkpt lat="44.93377" lon="6.81622">
        <ele>1421</ele>
        <time>2014-07-31T10:05:50.190Z</time>
      </trkpt>
      <trkpt lat="44.93378" lon="6.8163">
        <ele>1421</ele>
        <time>2014-07-31T10:05:52.090Z</time>
      </trkpt>
      <trkpt lat="44.93379" lon="6.81634">
        <ele>1421</ele>
        <time>2014-07-31T10:05:53.090Z</time>
      </trkpt>
      <trkpt lat="44.9338" lon="6.81637">
        <ele>1421</ele>
        <time>2014-07-31T10:05:54.090Z</time>
      </trkpt>
      <trkpt lat="44.9338" lon="6.81641">
        <ele>1421.5</ele>
        <time>2014-07-31T10:05:55.090Z</time>
      </trkpt>
      <trkpt lat="44.9338" lon="6.81645">
        <ele>1422</ele>
        <time>2014-07-31T10:05:56.090Z</time>
      </trkpt>
      <trkpt lat="44.93381" lon="6.81649">
        <ele>1422</ele>
        <time>2014-07-31T10:05:57.090Z</time>
      </trkpt>
      <trkpt lat="44.93381" lon="6.81653">
        <ele>1422</ele>
        <time>2014-07-31T10:05:58.170Z</time>
      </trkpt>
      <trkpt lat="44.93383" lon="6.81661">
        <ele>1422</ele>
        <time>2014-07-31T10:06:00.050Z</time>
      </trkpt>
      <trkpt lat="44.93383" lon="6.81664">
        <ele>1422</ele>
        <time>2014-07-31T10:06:01.150Z</time>
      </trkpt>
      <trkpt lat="44.93383" lon="6.81667">
        <ele>1422</ele>
        <time>2014-07-31T10:06:02.190Z</time>
      </trkpt>
      <trkpt lat="44.93384" lon="6.8167">
        <ele>1422</ele>
        <time>2014-07-31T10:06:03.190Z</time>
      </trkpt>
      <trkpt lat="44.93385" lon="6.81674">
        <ele>1422</ele>
        <time>2014-07-31T10:06:04.190Z</time>
      </trkpt>
      <trkpt lat="44.93386" lon="6.81678">
        <ele>1422.6</ele>
        <time>2014-07-31T10:06:05.190Z</time>
      </trkpt>
      <trkpt lat="44.93386" lon="6.81682">
        <ele>1423</ele>
        <time>2014-07-31T10:06:06.190Z</time>
      </trkpt>
      <trkpt lat="44.93387" lon="6.81685">
        <ele>1423</ele>
        <time>2014-07-31T10:06:07.190Z</time>
      </trkpt>
      <trkpt lat="44.93388" lon="6.81692">
        <ele>1423</ele>
        <time>2014-07-31T10:06:09.090Z</time>
      </trkpt>
      <trkpt lat="44.93388" lon="6.81696">
        <ele>1423</ele>
        <time>2014-07-31T10:06:10.090Z</time>
      </trkpt>
      <trkpt lat="44.93388" lon="6.817">
        <ele>1423</ele>
        <time>2014-07-31T10:06:11.090Z</time>
      </trkpt>
      <trkpt lat="44.93389" lon="6.81704">
        <ele>1423</ele>
        <time>2014-07-31T10:06:12.090Z</time>
      </trkpt>
      <trkpt lat="44.93389" lon="6.81708">
        <ele>1423</ele>
        <time>2014-07-31T10:06:13.090Z</time>
      </trkpt>
      <trkpt lat="44.93389" lon="6.81712">
        <ele>1423</ele>
        <time>2014-07-31T10:06:14.090Z</time>
      </trkpt>
      <trkpt lat="44.9339" lon="6.81716">
        <ele>1423.6</ele>
        <time>2014-07-31T10:06:15.180Z</time>
      </trkpt>
      <trkpt lat="44.9339" lon="6.8172">
        <ele>1424</ele>
        <time>2014-07-31T10:06:16.090Z</time>
      </trkpt>
      <trkpt lat="44.93391" lon="6.81724">
        <ele>1424</ele>
        <time>2014-07-31T10:06:17.090Z</time>
      </trkpt>
      <trkpt lat="44.93392" lon="6.81731">
        <ele>1424</ele>
        <time>2014-07-31T10:06:19.170Z</time>
      </trkpt>
      <trkpt lat="44.93392" lon="6.81735">
        <ele>1424</ele>
        <time>2014-07-31T10:06:20.190Z</time>
      </trkpt>
      <trkpt lat="44.93393" lon="6.81739">
        <ele>1424</ele>
        <time>2014-07-31T10:06:21.190Z</time>
      </trkpt>
      <trkpt lat="44.93393" lon="6.81743">
        <ele>1424</ele>
        <time>2014-07-31T10:06:22.190Z</time>
      </trkpt>
      <trkpt lat="44.93393" lon="6.81746">
        <ele>1424</ele>
        <time>2014-07-31T10:06:23.190Z</time>
      </trkpt>
      <trkpt lat="44.93393" lon="6.8175">
        <ele>1424</ele>
        <time>2014-07-31T10:06:24.190Z</time>
      </trkpt>
      <trkpt lat="44.93394" lon="6.81754">
        <ele>1424</ele>
        <time>2014-07-31T10:06:25.190Z</time>
      </trkpt>
      <trkpt lat="44.93395" lon="6.81758">
        <ele>1424</ele>
        <time>2014-07-31T10:06:26.190Z</time>
      </trkpt>
      <trkpt lat="44.93395" lon="6.81761">
        <ele>1424</ele>
        <time>2014-07-31T10:06:27.190Z</time>
      </trkpt>
      <trkpt lat="44.93395" lon="6.81765">
        <ele>1424</ele>
        <time>2014-07-31T10:06:28.190Z</time>
      </trkpt>
      <trkpt lat="44.93395" lon="6.81769">
        <ele>1424</ele>
        <time>2014-07-31T10:06:29.190Z</time>
      </trkpt>
      <trkpt lat="44.93394" lon="6.81773">
        <ele>1424</ele>
        <time>2014-07-31T10:06:30.170Z</time>
      </trkpt>
      <trkpt lat="44.93394" lon="6.81777">
        <ele>1424</ele>
        <time>2014-07-31T10:06:31.190Z</time>
      </trkpt>
      <trkpt lat="44.93394" lon="6.81781">
        <ele>1424</ele>
        <time>2014-07-31T10:06:32.190Z</time>
      </trkpt>
      <trkpt lat="44.93393" lon="6.81784">
        <ele>1424</ele>
        <time>2014-07-31T10:06:33.190Z</time>
      </trkpt>
      <trkpt lat="44.93393" lon="6.81791">
        <ele>1424.6</ele>
        <time>2014-07-31T10:06:35.150Z</time>
      </trkpt>
      <trkpt lat="44.93392" lon="6.81794">
        <ele>1425</ele>
        <time>2014-07-31T10:06:36.190Z</time>
      </trkpt>
      <trkpt lat="44.93392" lon="6.81797">
        <ele>1425</ele>
        <time>2014-07-31T10:06:37.190Z</time>
      </trkpt>
      <trkpt lat="44.93392" lon="6.818">
        <ele>1425</ele>
        <time>2014-07-31T10:06:38.190Z</time>
      </trkpt>
      <trkpt lat="44.93392" lon="6.81802">
        <ele>1425</ele>
        <time>2014-07-31T10:06:39.190Z</time>
      </trkpt>
      <trkpt lat="44.93392" lon="6.81804">
        <ele>1425</ele>
        <time>2014-07-31T10:06:40.190Z</time>
      </trkpt>
      <trkpt lat="44.93392" lon="6.81805">
        <ele>1425</ele>
        <time>2014-07-31T10:06:41.190Z</time>
      </trkpt>
      <trkpt lat="44.93393" lon="6.81807">
        <ele>1425</ele>
        <time>2014-07-31T10:06:42.190Z</time>
      </trkpt>
      <trkpt lat="44.93394" lon="6.8181">
        <ele>1425</ele>
        <time>2014-07-31T10:06:44.090Z</time>
      </trkpt>
      <trkpt lat="44.93394" lon="6.81811">
        <ele>1426</ele>
        <time>2014-07-31T10:06:45.090Z</time>
      </trkpt>
      <trkpt lat="44.93396" lon="6.81811">
        <ele>1427</ele>
        <time>2014-07-31T10:06:46.090Z</time>
      </trkpt>
      <trkpt lat="44.93396" lon="6.81812">
        <ele>1427</ele>
        <time>2014-07-31T10:06:47.090Z</time>
      </trkpt>
      <trkpt lat="44.93397" lon="6.81813">
        <ele>1427</ele>
        <time>2014-07-31T10:06:48.090Z</time>
      </trkpt>
      <trkpt lat="44.93397" lon="6.81814">
        <ele>1427</ele>
        <time>2014-07-31T10:06:49.090Z</time>
      </trkpt>
      <trkpt lat="44.93398" lon="6.81815">
        <ele>1427</ele>
        <time>2014-07-31T10:06:51.150Z</time>
      </trkpt>
      <trkpt lat="44.93399" lon="6.81812">
        <ele>1427</ele>
        <time>2014-07-31T10:06:53.090Z</time>
      </trkpt>
      <trkpt lat="44.93397" lon="6.81811">
        <ele>1427</ele>
        <time>2014-07-31T10:06:54.090Z</time>
      </trkpt>
      <trkpt lat="44.93396" lon="6.81811">
        <ele>1427</ele>
        <time>2014-07-31T10:06:55.110Z</time>
      </trkpt>
      <trkpt lat="44.93395" lon="6.81812">
        <ele>1427</ele>
        <time>2014-07-31T10:06:56.190Z</time>
      </trkpt>
      <trkpt lat="44.93394" lon="6.81814">
        <ele>1427</ele>
        <time>2014-07-31T10:06:57.190Z</time>
      </trkpt>
      <trkpt lat="44.93394" lon="6.81816">
        <ele>1427</ele>
        <time>2014-07-31T10:06:59.090Z</time>
      </trkpt>
      <trkpt lat="44.93394" lon="6.81817">
        <ele>1427</ele>
        <time>2014-07-31T10:07:00.050Z</time>
      </trkpt>
      <trkpt lat="44.93395" lon="6.81818">
        <ele>1427</ele>
        <time>2014-07-31T10:07:01.090Z</time>
      </trkpt>
      <trkpt lat="44.93394" lon="6.8182">
        <ele>1427</ele>
        <time>2014-07-31T10:07:02.090Z</time>
      </trkpt>
      <trkpt lat="44.93393" lon="6.81821">
        <ele>1427</ele>
        <time>2014-07-31T10:07:03.090Z</time>
      </trkpt>
      <trkpt lat="44.93392" lon="6.81822">
        <ele>1427</ele>
        <time>2014-07-31T10:07:04.090Z</time>
      </trkpt>
      <trkpt lat="44.93392" lon="6.81825">
        <ele>1427</ele>
        <time>2014-07-31T10:07:06.090Z</time>
      </trkpt>
      <trkpt lat="44.93392" lon="6.81827">
        <ele>1427</ele>
        <time>2014-07-31T10:07:07.090Z</time>
      </trkpt>
      <trkpt lat="44.93391" lon="6.81829">
        <ele>1427</ele>
        <time>2014-07-31T10:07:08.090Z</time>
      </trkpt>
      <trkpt lat="44.93391" lon="6.8183">
        <ele>1427</ele>
        <time>2014-07-31T10:07:09.150Z</time>
      </trkpt>
      <trkpt lat="44.93391" lon="6.81832">
        <ele>1427</ele>
        <time>2014-07-31T10:07:11.280Z</time>
      </trkpt>
      <trkpt lat="44.93391" lon="6.81834">
        <ele>1427</ele>
        <time>2014-07-31T10:07:13.190Z</time>
      </trkpt>
      <trkpt lat="44.93391" lon="6.81835">
        <ele>1427</ele>
        <time>2014-07-31T10:07:14.190Z</time>
      </trkpt>
      <trkpt lat="44.93392" lon="6.81837">
        <ele>1428</ele>
        <time>2014-07-31T10:07:16.190Z</time>
      </trkpt>
      <trkpt lat="44.93392" lon="6.81842">
        <ele>1428</ele>
        <time>2014-07-31T10:07:18.090Z</time>
      </trkpt>
      <trkpt lat="44.93391" lon="6.81843">
        <ele>1428</ele>
        <time>2014-07-31T10:07:19.090Z</time>
      </trkpt>
      <trkpt lat="44.93391" lon="6.81845">
        <ele>1428</ele>
        <time>2014-07-31T10:07:20.090Z</time>
      </trkpt>
      <trkpt lat="44.93391" lon="6.81846">
        <ele>1428</ele>
        <time>2014-07-31T10:07:21.090Z</time>
      </trkpt>
      <trkpt lat="44.9339" lon="6.81847">
        <ele>1428</ele>
        <time>2014-07-31T10:07:22.090Z</time>
      </trkpt>
      <trkpt lat="44.9339" lon="6.8185">
        <ele>1428</ele>
        <time>2014-07-31T10:07:24.090Z</time>
      </trkpt>
      <trkpt lat="44.9339" lon="6.81851">
        <ele>1428.5</ele>
        <time>2014-07-31T10:07:25.090Z</time>
      </trkpt>
      <trkpt lat="44.9339" lon="6.81853">
        <ele>1429</ele>
        <time>2014-07-31T10:07:27.090Z</time>
      </trkpt>
      <trkpt lat="44.93391" lon="6.81854">
        <ele>1429</ele>
        <time>2014-07-31T10:07:28.170Z</time>
      </trkpt>
      <trkpt lat="44.93391" lon="6.81856">
        <ele>1429</ele>
        <time>2014-07-31T10:07:29.190Z</time>
      </trkpt>
      <trkpt lat="44.93393" lon="6.81856">
        <ele>1429</ele>
        <time>2014-07-31T10:07:30.190Z</time>
      </trkpt>
      <trkpt lat="44.93394" lon="6.81855">
        <ele>1429</ele>
        <time>2014-07-31T10:07:31.190Z</time>
      </trkpt>
      <trkpt lat="44.93394" lon="6.81851">
        <ele>1429</ele>
        <time>2014-07-31T10:07:32.190Z</time>
      </trkpt>
      <trkpt lat="44.93395" lon="6.81846">
        <ele>1429</ele>
        <time>2014-07-31T10:07:33.190Z</time>
      </trkpt>
      <trkpt lat="44.93395" lon="6.81835">
        <ele>1428.5</ele>
        <time>2014-07-31T10:07:35.090Z</time>
      </trkpt>
      <trkpt lat="44.93396" lon="6.81829">
        <ele>1428</ele>
        <time>2014-07-31T10:07:36.090Z</time>
      </trkpt>
      <trkpt lat="44.93396" lon="6.81822">
        <ele>1428</ele>
        <time>2014-07-31T10:07:37.090Z</time>
      </trkpt>
      <trkpt lat="44.93397" lon="6.81815">
        <ele>1428</ele>
        <time>2014-07-31T10:07:38.090Z</time>
      </trkpt>
      <trkpt lat="44.93397" lon="6.81808">
        <ele>1428</ele>
        <time>2014-07-31T10:07:39.090Z</time>
      </trkpt>
      <trkpt lat="44.93399" lon="6.81802">
        <ele>1428</ele>
        <time>2014-07-31T10:07:40.090Z</time>
      </trkpt>
      <trkpt lat="44.93401" lon="6.81796">
        <ele>1428</ele>
        <time>2014-07-31T10:07:41.090Z</time>
      </trkpt>
      <trkpt lat="44.93405" lon="6.81791">
        <ele>1428</ele>
        <time>2014-07-31T10:07:42.280Z</time>
      </trkpt>
      <trkpt lat="44.93411" lon="6.81782">
        <ele>1428</ele>
        <time>2014-07-31T10:07:44.090Z</time>
      </trkpt>
      <trkpt lat="44.93415" lon="6.81778">
        <ele>1427.5</ele>
        <time>2014-07-31T10:07:45.090Z</time>
      </trkpt>
      <trkpt lat="44.93418" lon="6.81774">
        <ele>1427</ele>
        <time>2014-07-31T10:07:46.090Z</time>
      </trkpt>
      <trkpt lat="44.93421" lon="6.81771">
        <ele>1427</ele>
        <time>2014-07-31T10:07:47.090Z</time>
      </trkpt>
      <trkpt lat="44.93424" lon="6.81768">
        <ele>1427</ele>
        <time>2014-07-31T10:07:48.090Z</time>
      </trkpt>
      <trkpt lat="44.93426" lon="6.81764">
        <ele>1427</ele>
        <time>2014-07-31T10:07:49.090Z</time>
      </trkpt>
      <trkpt lat="44.93429" lon="6.8176">
        <ele>1427</ele>
        <time>2014-07-31T10:07:50.090Z</time>
      </trkpt>
      <trkpt lat="44.93431" lon="6.81756">
        <ele>1427</ele>
        <time>2014-07-31T10:07:51.150Z</time>
      </trkpt>
      <trkpt lat="44.93432" lon="6.81751">
        <ele>1427</ele>
        <time>2014-07-31T10:07:52.190Z</time>
      </trkpt>
      <trkpt lat="44.93435" lon="6.81742">
        <ele>1427</ele>
        <time>2014-07-31T10:07:54.090Z</time>
      </trkpt>
      <trkpt lat="44.93438" lon="6.81738">
        <ele>1426.5</ele>
        <time>2014-07-31T10:07:55.090Z</time>
      </trkpt>
      <trkpt lat="44.93441" lon="6.81734">
        <ele>1426</ele>
        <time>2014-07-31T10:07:56.090Z</time>
      </trkpt>
      <trkpt lat="44.93445" lon="6.81731">
        <ele>1426</ele>
        <time>2014-07-31T10:07:57.090Z</time>
      </trkpt>
      <trkpt lat="44.9345" lon="6.81727">
        <ele>1426</ele>
        <time>2014-07-31T10:07:58.090Z</time>
      </trkpt>
      <trkpt lat="44.93454" lon="6.81722">
        <ele>1426</ele>
        <time>2014-07-31T10:07:59.090Z</time>
      </trkpt>
      <trkpt lat="44.93458" lon="6.81717">
        <ele>1426</ele>
        <time>2014-07-31T10:08:00.070Z</time>
      </trkpt>
      <trkpt lat="44.93461" lon="6.81711">
        <ele>1426</ele>
        <time>2014-07-31T10:08:01.090Z</time>
      </trkpt>
      <trkpt lat="44.93464" lon="6.81704">
        <ele>1426</ele>
        <time>2014-07-31T10:08:02.070Z</time>
      </trkpt>
      <trkpt lat="44.93466" lon="6.81699">
        <ele>1426</ele>
        <time>2014-07-31T10:08:03.190Z</time>
      </trkpt>
      <trkpt lat="44.93468" lon="6.81697">
        <ele>1426</ele>
        <time>2014-07-31T10:08:04.190Z</time>
      </trkpt>
      <trkpt lat="44.9347" lon="6.81697">
        <ele>1424.8</ele>
        <time>2014-07-31T10:08:05.190Z</time>
      </trkpt>
      <trkpt lat="44.93471" lon="6.81696">
        <ele>1424</ele>
        <time>2014-07-31T10:08:06.190Z</time>
      </trkpt>
      <trkpt lat="44.93472" lon="6.81696">
        <ele>1424</ele>
        <time>2014-07-31T10:08:07.190Z</time>
      </trkpt>
      <trkpt lat="44.93474" lon="6.81697">
        <ele>1424</ele>
        <time>2014-07-31T10:08:09.190Z</time>
      </trkpt>
      <trkpt lat="44.93475" lon="6.81698">
        <ele>1424</ele>
        <time>2014-07-31T10:08:11.190Z</time>
      </trkpt>
      <trkpt lat="44.93476" lon="6.81698">
        <ele>1424</ele>
        <time>2014-07-31T10:08:12.190Z</time>
      </trkpt>
      <trkpt lat="44.93477" lon="6.81698">
        <ele>1424</ele>
        <time>2014-07-31T10:08:13.190Z</time>
      </trkpt>
      <trkpt lat="44.93479" lon="6.81698">
        <ele>1424</ele>
        <time>2014-07-31T10:08:14.190Z</time>
      </trkpt>
      <trkpt lat="44.9348" lon="6.81699">
        <ele>1424</ele>
        <time>2014-07-31T10:08:15.190Z</time>
      </trkpt>
      <trkpt lat="44.93482" lon="6.81699">
        <ele>1424</ele>
        <time>2014-07-31T10:08:16.190Z</time>
      </trkpt>
      <trkpt lat="44.93486" lon="6.81699">
        <ele>1424</ele>
        <time>2014-07-31T10:08:18.190Z</time>
      </trkpt>
      <trkpt lat="44.93488" lon="6.81699">
        <ele>1424</ele>
        <time>2014-07-31T10:08:19.190Z</time>
      </trkpt>
      <trkpt lat="44.9349" lon="6.817">
        <ele>1424</ele>
        <time>2014-07-31T10:08:20.190Z</time>
      </trkpt>
      <trkpt lat="44.93492" lon="6.81701">
        <ele>1424</ele>
        <time>2014-07-31T10:08:21.190Z</time>
      </trkpt>
      <trkpt lat="44.93493" lon="6.81701">
        <ele>1424</ele>
        <time>2014-07-31T10:08:22.190Z</time>
      </trkpt>
      <trkpt lat="44.93495" lon="6.81702">
        <ele>1424</ele>
        <time>2014-07-31T10:08:23.190Z</time>
      </trkpt>
      <trkpt lat="44.93496" lon="6.81704">
        <ele>1424</ele>
        <time>2014-07-31T10:08:24.190Z</time>
      </trkpt>
      <trkpt lat="44.93497" lon="6.81706">
        <ele>1425.2</ele>
        <time>2014-07-31T10:08:25.170Z</time>
      </trkpt>
      <trkpt lat="44.93499" lon="6.81707">
        <ele>1426</ele>
        <time>2014-07-31T10:08:26.190Z</time>
      </trkpt>
      <trkpt lat="44.935" lon="6.81707">
        <ele>1426</ele>
        <time>2014-07-31T10:08:27.190Z</time>
      </trkpt>
      <trkpt lat="44.93501" lon="6.81708">
        <ele>1426</ele>
        <time>2014-07-31T10:08:28.190Z</time>
      </trkpt>
      <trkpt lat="44.93502" lon="6.81709">
        <ele>1426</ele>
        <time>2014-07-31T10:08:29.190Z</time>
      </trkpt>
      <trkpt lat="44.93503" lon="6.8171">
        <ele>1426</ele>
        <time>2014-07-31T10:08:31.190Z</time>
      </trkpt>
      <trkpt lat="44.93504" lon="6.8171">
        <ele>1426</ele>
        <time>2014-07-31T10:08:33.190Z</time>
      </trkpt>
      <trkpt lat="44.93506" lon="6.81709">
        <ele>1427.6</ele>
        <time>2014-07-31T10:08:35.090Z</time>
      </trkpt>
      <trkpt lat="44.93505" lon="6.81708">
        <ele>1429</ele>
        <time>2014-07-31T10:08:37.090Z</time>
      </trkpt>
      <trkpt lat="44.93504" lon="6.81707">
        <ele>1429</ele>
        <time>2014-07-31T10:08:38.090Z</time>
      </trkpt>
      <trkpt lat="44.93504" lon="6.81706">
        <ele>1429</ele>
        <time>2014-07-31T10:08:39.090Z</time>
      </trkpt>
      <trkpt lat="44.93504" lon="6.81704">
        <ele>1429</ele>
        <time>2014-07-31T10:08:40.090Z</time>
      </trkpt>
      <trkpt lat="44.93505" lon="6.81702">
        <ele>1429</ele>
        <time>2014-07-31T10:08:42.090Z</time>
      </trkpt>
      <trkpt lat="44.93505" lon="6.81699">
        <ele>1429</ele>
        <time>2014-07-31T10:08:43.280Z</time>
      </trkpt>
      <trkpt lat="44.93505" lon="6.81696">
        <ele>1429</ele>
        <time>2014-07-31T10:08:44.190Z</time>
      </trkpt>
      <trkpt lat="44.93505" lon="6.81694">
        <ele>1428.4</ele>
        <time>2014-07-31T10:08:45.190Z</time>
      </trkpt>
      <trkpt lat="44.93505" lon="6.81692">
        <ele>1428</ele>
        <time>2014-07-31T10:08:46.190Z</time>
      </trkpt>
      <trkpt lat="44.93503" lon="6.81689">
        <ele>1428</ele>
        <time>2014-07-31T10:08:48.090Z</time>
      </trkpt>
      <trkpt lat="44.93502" lon="6.81688">
        <ele>1428</ele>
        <time>2014-07-31T10:08:49.090Z</time>
      </trkpt>
      <trkpt lat="44.935" lon="6.81687">
        <ele>1428</ele>
        <time>2014-07-31T10:08:50.090Z</time>
      </trkpt>
      <trkpt lat="44.93497" lon="6.81687">
        <ele>1428</ele>
        <time>2014-07-31T10:08:51.010Z</time>
      </trkpt>
      <trkpt lat="44.93495" lon="6.81687">
        <ele>1428</ele>
        <time>2014-07-31T10:08:52.090Z</time>
      </trkpt>
      <trkpt lat="44.9349" lon="6.81687">
        <ele>1428</ele>
        <time>2014-07-31T10:08:53.090Z</time>
      </trkpt>
      <trkpt lat="44.93485" lon="6.81686">
        <ele>1428</ele>
        <time>2014-07-31T10:08:54.090Z</time>
      </trkpt>
      <trkpt lat="44.93481" lon="6.81685">
        <ele>1425.9</ele>
        <time>2014-07-31T10:08:55.090Z</time>
      </trkpt>
      <trkpt lat="44.93477" lon="6.81682">
        <ele>1424</ele>
        <time>2014-07-31T10:08:56.090Z</time>
      </trkpt>
      <trkpt lat="44.93476" lon="6.81677">
        <ele>1424</ele>
        <time>2014-07-31T10:08:57.180Z</time>
      </trkpt>
      <trkpt lat="44.93478" lon="6.81665">
        <ele>1424</ele>
        <time>2014-07-31T10:08:59.090Z</time>
      </trkpt>
      <trkpt lat="44.9348" lon="6.81661">
        <ele>1422.8</ele>
        <time>2014-07-31T10:09:00.150Z</time>
      </trkpt>
      <trkpt lat="44.9348" lon="6.81657">
        <ele>1422</ele>
        <time>2014-07-31T10:09:01.190Z</time>
      </trkpt>
      <trkpt lat="44.9348" lon="6.81654">
        <ele>1422</ele>
        <time>2014-07-31T10:09:02.190Z</time>
      </trkpt>
      <trkpt lat="44.93481" lon="6.8165">
        <ele>1422</ele>
        <time>2014-07-31T10:09:03.190Z</time>
      </trkpt>
      <trkpt lat="44.93482" lon="6.81647">
        <ele>1422</ele>
        <time>2014-07-31T10:09:04.190Z</time>
      </trkpt>
      <trkpt lat="44.93482" lon="6.81644">
        <ele>1422</ele>
        <time>2014-07-31T10:09:05.190Z</time>
      </trkpt>
      <trkpt lat="44.93482" lon="6.81641">
        <ele>1422</ele>
        <time>2014-07-31T10:09:06.190Z</time>
      </trkpt>
      <trkpt lat="44.93483" lon="6.81638">
        <ele>1422</ele>
        <time>2014-07-31T10:09:07.190Z</time>
      </trkpt>
      <trkpt lat="44.93483" lon="6.81634">
        <ele>1422</ele>
        <time>2014-07-31T10:09:09.090Z</time>
      </trkpt>
      <trkpt lat="44.93482" lon="6.81632">
        <ele>1422</ele>
        <time>2014-07-31T10:09:10.090Z</time>
      </trkpt>
      <trkpt lat="44.93482" lon="6.81631">
        <ele>1422</ele>
        <time>2014-07-31T10:09:11.090Z</time>
      </trkpt>
      <trkpt lat="44.93482" lon="6.81629">
        <ele>1422</ele>
        <time>2014-07-31T10:09:12.090Z</time>
      </trkpt>
      <trkpt lat="44.93482" lon="6.81627">
        <ele>1422</ele>
        <time>2014-07-31T10:09:13.090Z</time>
      </trkpt>
      <trkpt lat="44.93483" lon="6.81625">
        <ele>1422</ele>
        <time>2014-07-31T10:09:14.090Z</time>
      </trkpt>
      <trkpt lat="44.93483" lon="6.81623">
        <ele>1422</ele>
        <time>2014-07-31T10:09:15.090Z</time>
      </trkpt>
      <trkpt lat="44.93483" lon="6.8162">
        <ele>1422</ele>
        <time>2014-07-31T10:09:16.090Z</time>
      </trkpt>
      <trkpt lat="44.93483" lon="6.81618">
        <ele>1422</ele>
        <time>2014-07-31T10:09:17.150Z</time>
      </trkpt>
      <trkpt lat="44.93484" lon="6.81617">
        <ele>1422</ele>
        <time>2014-07-31T10:09:18.190Z</time>
      </trkpt>
      <trkpt lat="44.93484" lon="6.81615">
        <ele>1422</ele>
        <time>2014-07-31T10:09:19.170Z</time>
      </trkpt>
      <trkpt lat="44.93483" lon="6.81614">
        <ele>1422</ele>
        <time>2014-07-31T10:09:20.190Z</time>
      </trkpt>
      <trkpt lat="44.93482" lon="6.81613">
        <ele>1422</ele>
        <time>2014-07-31T10:09:22.190Z</time>
      </trkpt>
      <trkpt lat="44.93481" lon="6.81612">
        <ele>1421</ele>
        <time>2014-07-31T10:09:37.090Z</time>
      </trkpt>
      <trkpt lat="44.9348" lon="6.81612">
        <ele>1421</ele>
        <time>2014-07-31T10:09:42.150Z</time>
      </trkpt>
      <trkpt lat="44.93481" lon="6.81612">
        <ele>1422</ele>
        <time>2014-07-31T10:09:46.190Z</time>
      </trkpt>
      <trkpt lat="44.93482" lon="6.81614">
        <ele>1422</ele>
        <time>2014-07-31T10:09:49.090Z</time>
      </trkpt>
      <trkpt lat="44.93482" lon="6.81616">
        <ele>1422</ele>
        <time>2014-07-31T10:09:51.090Z</time>
      </trkpt>
      <trkpt lat="44.93483" lon="6.81617">
        <ele>1422</ele>
        <time>2014-07-31T10:09:52.190Z</time>
      </trkpt>
      <trkpt lat="44.93484" lon="6.81617">
        <ele>1422</ele>
        <time>2014-07-31T10:09:54.090Z</time>
      </trkpt>
      <trkpt lat="44.93485" lon="6.81618">
        <ele>1423</ele>
        <time>2014-07-31T10:09:58.090Z</time>
      </trkpt>
      <trkpt lat="44.93486" lon="6.81619">
        <ele>1423</ele>
        <time>2014-07-31T10:10:01.090Z</time>
      </trkpt>
      <trkpt lat="44.93486" lon="6.8162">
        <ele>1423</ele>
        <time>2014-07-31T10:10:03.090Z</time>
      </trkpt>
      <trkpt lat="44.93487" lon="6.81621">
        <ele>1423</ele>
        <time>2014-07-31T10:10:07.090Z</time>
      </trkpt>
      <trkpt lat="44.93489" lon="6.81621">
        <ele>1423</ele>
        <time>2014-07-31T10:10:10.090Z</time>
      </trkpt>
      <trkpt lat="44.9349" lon="6.81622">
        <ele>1423</ele>
        <time>2014-07-31T10:10:12.090Z</time>
      </trkpt>
      <trkpt lat="44.93491" lon="6.81623">
        <ele>1423</ele>
        <time>2014-07-31T10:10:14.190Z</time>
      </trkpt>
      <trkpt lat="44.93492" lon="6.81624">
        <ele>1422.4</ele>
        <time>2014-07-31T10:10:15.190Z</time>
      </trkpt>
      <trkpt lat="44.93492" lon="6.81623">
        <ele>1422</ele>
        <time>2014-07-31T10:10:17.150Z</time>
      </trkpt>
      <trkpt lat="44.93494" lon="6.81622">
        <ele>1422</ele>
        <time>2014-07-31T10:10:19.090Z</time>
      </trkpt>
      <trkpt lat="44.93495" lon="6.81623">
        <ele>1422</ele>
        <time>2014-07-31T10:10:23.090Z</time>
      </trkpt>
      <trkpt lat="44.93496" lon="6.81623">
        <ele>1421.5</ele>
        <time>2014-07-31T10:10:25.070Z</time>
      </trkpt>
      <trkpt lat="44.93497" lon="6.81624">
        <ele>1421</ele>
        <time>2014-07-31T10:10:27.090Z</time>
      </trkpt>
      <trkpt lat="44.93496" lon="6.81623">
        <ele>1421</ele>
        <time>2014-07-31T10:10:35.090Z</time>
      </trkpt>
      <trkpt lat="44.93496" lon="6.81622">
        <ele>1421</ele>
        <time>2014-07-31T10:10:37.090Z</time>
      </trkpt>
      <trkpt lat="44.93497" lon="6.81622">
        <ele>1421</ele>
        <time>2014-07-31T10:10:42.190Z</time>
      </trkpt>
      <trkpt lat="44.93498" lon="6.81622">
        <ele>1421</ele>
        <time>2014-07-31T10:10:54.090Z</time>
      </trkpt>
      <trkpt lat="44.935" lon="6.81622">
        <ele>1421</ele>
        <time>2014-07-31T10:10:56.090Z</time>
      </trkpt>
      <trkpt lat="44.935" lon="6.81622">
        <ele>1421</ele>
        <time>2014-07-31T10:11:00.150Z</time>
      </trkpt>
      <trkpt lat="44.93498" lon="6.81622">
        <ele>1421</ele>
        <time>2014-07-31T10:11:04.190Z</time>
      </trkpt>
      <trkpt lat="44.93499" lon="6.81623">
        <ele>1422</ele>
        <time>2014-07-31T10:11:27.090Z</time>
      </trkpt>
      <trkpt lat="44.93497" lon="6.81623">
        <ele>1421</ele>
        <time>2014-07-31T10:11:50.090Z</time>
      </trkpt>
      <trkpt lat="44.93496" lon="6.81623">
        <ele>1421</ele>
        <time>2014-07-31T10:11:52.090Z</time>
      </trkpt>
      <trkpt lat="44.93496" lon="6.81623">
        <ele>1421</ele>
        <time>2014-07-31T10:12:01.090Z</time>
      </trkpt>
      <trkpt lat="44.93497" lon="6.81624">
        <ele>1421</ele>
        <time>2014-07-31T10:12:28.190Z</time>
      </trkpt>
      <trkpt lat="44.93499" lon="6.81624">
        <ele>1421</ele>
        <time>2014-07-31T10:12:29.190Z</time>
      </trkpt>
      <trkpt lat="44.93498" lon="6.81623">
        <ele>1421</ele>
        <time>2014-07-31T10:12:36.190Z</time>
      </trkpt>
      <trkpt lat="44.93498" lon="6.81622">
        <ele>1421</ele>
        <time>2014-07-31T10:13:01.090Z</time>
      </trkpt>
      <trkpt lat="44.93498" lon="6.81622">
        <ele>1421</ele>
        <time>2014-07-31T10:13:36.190Z</time>
      </trkpt>
      <trkpt lat="44.93497" lon="6.81621">
        <ele>1421</ele>
        <time>2014-07-31T10:13:38.190Z</time>
      </trkpt>
      <trkpt lat="44.93497" lon="6.81621">
        <ele>1422</ele>
        <time>2014-07-31T10:14:00.150Z</time>
      </trkpt>
      <trkpt lat="44.93498" lon="6.81621">
        <ele>1422</ele>
        <time>2014-07-31T10:14:06.190Z</time>
      </trkpt>
      <trkpt lat="44.93499" lon="6.81622">
        <ele>1422</ele>
        <time>2014-07-31T10:14:07.190Z</time>
      </trkpt>
      <trkpt lat="44.93498" lon="6.81621">
        <ele>1422</ele>
        <time>2014-07-31T10:14:11.190Z</time>
      </trkpt>
      <trkpt lat="44.93497" lon="6.8162">
        <ele>1421</ele>
        <time>2014-07-31T10:14:20.190Z</time>
      </trkpt>
      <trkpt lat="44.93496" lon="6.81621">
        <ele>1422</ele>
        <time>2014-07-31T10:14:41.190Z</time>
      </trkpt>
      <trkpt lat="44.93498" lon="6.81621">
        <ele>1422</ele>
        <time>2014-07-31T10:14:59.070Z</time>
      </trkpt>
      <trkpt lat="44.93498" lon="6.81621">
        <ele>1422</ele>
        <time>2014-07-31T10:15:00.150Z</time>
      </trkpt>
      <trkpt lat="44.93499" lon="6.81623">
        <ele>1422</ele>
        <time>2014-07-31T10:15:13.190Z</time>
      </trkpt>
      <trkpt lat="44.935" lon="6.81623">
        <ele>1421.4</ele>
        <time>2014-07-31T10:15:15.190Z</time>
      </trkpt>
      <trkpt lat="44.93501" lon="6.81624">
        <ele>1421</ele>
        <time>2014-07-31T10:15:29.090Z</time>
      </trkpt>
      <trkpt lat="44.935" lon="6.81624">
        <ele>1421</ele>
        <time>2014-07-31T10:15:40.070Z</time>
      </trkpt>
      <trkpt lat="44.93499" lon="6.81624">
        <ele>1421</ele>
        <time>2014-07-31T10:15:43.090Z</time>
      </trkpt>
      <trkpt lat="44.93499" lon="6.81624">
        <ele>1422</ele>
        <time>2014-07-31T10:16:00.150Z</time>
      </trkpt>
      <trkpt lat="44.93499" lon="6.81624">
        <ele>1422</ele>
        <time>2014-07-31T10:17:00.150Z</time>
      </trkpt>
      <trkpt lat="44.93498" lon="6.81624">
        <ele>1421</ele>
        <time>2014-07-31T10:17:06.090Z</time>
      </trkpt>
      <trkpt lat="44.93497" lon="6.81623">
        <ele>1421</ele>
        <time>2014-07-31T10:17:09.090Z</time>
      </trkpt>
      <trkpt lat="44.93496" lon="6.81623">
        <ele>1421</ele>
        <time>2014-07-31T10:17:13.090Z</time>
      </trkpt>
      <trkpt lat="44.93497" lon="6.81623">
        <ele>1422</ele>
        <time>2014-07-31T10:17:28.090Z</time>
      </trkpt>
      <trkpt lat="44.93498" lon="6.81623">
        <ele>1422</ele>
        <time>2014-07-31T10:17:32.090Z</time>
      </trkpt>
      <trkpt lat="44.93499" lon="6.81624">
        <ele>1422</ele>
        <time>2014-07-31T10:17:34.150Z</time>
      </trkpt>
      <trkpt lat="44.93498" lon="6.81623">
        <ele>1421</ele>
        <time>2014-07-31T10:17:36.190Z</time>
      </trkpt>
      <trkpt lat="44.93496" lon="6.81622">
        <ele>1421</ele>
        <time>2014-07-31T10:17:38.050Z</time>
      </trkpt>
      <trkpt lat="44.93495" lon="6.81624">
        <ele>1421</ele>
        <time>2014-07-31T10:17:40.090Z</time>
      </trkpt>
      <trkpt lat="44.93495" lon="6.81625">
        <ele>1421</ele>
        <time>2014-07-31T10:17:41.090Z</time>
      </trkpt>
      <trkpt lat="44.93496" lon="6.81626">
        <ele>1421</ele>
        <time>2014-07-31T10:17:42.090Z</time>
      </trkpt>
      <trkpt lat="44.93496" lon="6.81628">
        <ele>1421</ele>
        <time>2014-07-31T10:17:43.090Z</time>
      </trkpt>
      <trkpt lat="44.93495" lon="6.81629">
        <ele>1421</ele>
        <time>2014-07-31T10:17:44.090Z</time>
      </trkpt>
      <trkpt lat="44.93495" lon="6.81629">
        <ele>1422</ele>
        <time>2014-07-31T10:17:46.090Z</time>
      </trkpt>
      <trkpt lat="44.93493" lon="6.81629">
        <ele>1422</ele>
        <time>2014-07-31T10:17:54.090Z</time>
      </trkpt>
      <trkpt lat="44.93492" lon="6.81629">
        <ele>1422.6</ele>
        <time>2014-07-31T10:17:55.150Z</time>
      </trkpt>
      <trkpt lat="44.9349" lon="6.81629">
        <ele>1423</ele>
        <time>2014-07-31T10:17:56.190Z</time>
      </trkpt>
      <trkpt lat="44.93489" lon="6.81629">
        <ele>1423</ele>
        <time>2014-07-31T10:17:57.190Z</time>
      </trkpt>
      <trkpt lat="44.93488" lon="6.81628">
        <ele>1423</ele>
        <time>2014-07-31T10:17:58.190Z</time>
      </trkpt>
      <trkpt lat="44.93487" lon="6.81628">
        <ele>1423</ele>
        <time>2014-07-31T10:17:59.190Z</time>
      </trkpt>
      <trkpt lat="44.93485" lon="6.81627">
        <ele>1423</ele>
        <time>2014-07-31T10:18:01.090Z</time>
      </trkpt>
      <trkpt lat="44.93482" lon="6.81624">
        <ele>1423</ele>
        <time>2014-07-31T10:18:03.090Z</time>
      </trkpt>
      <trkpt lat="44.93481" lon="6.81623">
        <ele>1423</ele>
        <time>2014-07-31T10:18:04.090Z</time>
      </trkpt>
      <trkpt lat="44.9348" lon="6.81622">
        <ele>1423</ele>
        <time>2014-07-31T10:18:06.090Z</time>
      </trkpt>
      <trkpt lat="44.93481" lon="6.81621">
        <ele>1423</ele>
        <time>2014-07-31T10:18:10.090Z</time>
      </trkpt>
      <trkpt lat="44.93482" lon="6.8162">
        <ele>1423</ele>
        <time>2014-07-31T10:18:11.090Z</time>
      </trkpt>
      <trkpt lat="44.93484" lon="6.8162">
        <ele>1423</ele>
        <time>2014-07-31T10:18:13.190Z</time>
      </trkpt>
      <trkpt lat="44.93485" lon="6.81621">
        <ele>1422.5</ele>
        <time>2014-07-31T10:18:15.090Z</time>
      </trkpt>
      <trkpt lat="44.93486" lon="6.81621">
        <ele>1422</ele>
        <time>2014-07-31T10:18:19.090Z</time>
      </trkpt>
      <trkpt lat="44.93487" lon="6.81621">
        <ele>1422</ele>
        <time>2014-07-31T10:18:50.190Z</time>
      </trkpt>
      <trkpt lat="44.93488" lon="6.81622">
        <ele>1422</ele>
        <time>2014-07-31T10:18:55.090Z</time>
      </trkpt>
      <trkpt lat="44.93488" lon="6.81622">
        <ele>1422</ele>
        <time>2014-07-31T10:19:00.150Z</time>
      </trkpt>
      <trkpt lat="44.93489" lon="6.81622">
        <ele>1421</ele>
        <time>2014-07-31T10:19:41.190Z</time>
      </trkpt>
      <trkpt lat="44.93488" lon="6.81621">
        <ele>1421.6</ele>
        <time>2014-07-31T10:19:45.190Z</time>
      </trkpt>
      <trkpt lat="44.93489" lon="6.81621">
        <ele>1422</ele>
        <time>2014-07-31T10:19:58.090Z</time>
      </trkpt>
      <trkpt lat="44.93489" lon="6.81621">
        <ele>1422</ele>
        <time>2014-07-31T10:20:01.190Z</time>
      </trkpt>
      <trkpt lat="44.93491" lon="6.81621">
        <ele>1422</ele>
        <time>2014-07-31T10:20:04.190Z</time>
      </trkpt>
      <trkpt lat="44.93491" lon="6.8162">
        <ele>1421</ele>
        <time>2014-07-31T10:20:14.090Z</time>
      </trkpt>
      <trkpt lat="44.93493" lon="6.8162">
        <ele>1421</ele>
        <time>2014-07-31T10:20:19.090Z</time>
      </trkpt>
      <trkpt lat="44.93495" lon="6.8162">
        <ele>1421</ele>
        <time>2014-07-31T10:20:21.090Z</time>
      </trkpt>
      <trkpt lat="44.93496" lon="6.81619">
        <ele>1421</ele>
        <time>2014-07-31T10:20:23.190Z</time>
      </trkpt>
      <trkpt lat="44.93497" lon="6.81619">
        <ele>1421</ele>
        <time>2014-07-31T10:20:25.190Z</time>
      </trkpt>
      <trkpt lat="44.93499" lon="6.81619">
        <ele>1421</ele>
        <time>2014-07-31T10:20:29.090Z</time>
      </trkpt>
      <trkpt lat="44.935" lon="6.81619">
        <ele>1421</ele>
        <time>2014-07-31T10:20:48.090Z</time>
      </trkpt>
      <trkpt lat="44.935" lon="6.81619">
        <ele>1422</ele>
        <time>2014-07-31T10:21:00.150Z</time>
      </trkpt>
      <trkpt lat="44.935" lon="6.81621">
        <ele>1422</ele>
        <time>2014-07-31T10:21:23.290Z</time>
      </trkpt>
      <trkpt lat="44.93499" lon="6.8162">
        <ele>1421</ele>
        <time>2014-07-31T10:21:39.190Z</time>
      </trkpt>
      <trkpt lat="44.93498" lon="6.81621">
        <ele>1422</ele>
        <time>2014-07-31T10:22:01.190Z</time>
      </trkpt>
      <trkpt lat="44.93497" lon="6.81621">
        <ele>1421</ele>
        <time>2014-07-31T10:22:09.290Z</time>
      </trkpt>
      <trkpt lat="44.93496" lon="6.81622">
        <ele>1422</ele>
        <time>2014-07-31T10:22:19.290Z</time>
      </trkpt>
      <trkpt lat="44.93495" lon="6.81622">
        <ele>1421</ele>
        <time>2014-07-31T10:22:50.290Z</time>
      </trkpt>
      <trkpt lat="44.93496" lon="6.81622">
        <ele>1422</ele>
        <time>2014-07-31T10:23:00.250Z</time>
      </trkpt>
      <trkpt lat="44.93497" lon="6.81623">
        <ele>1422</ele>
        <time>2014-07-31T10:23:03.190Z</time>
      </trkpt>
      <trkpt lat="44.93496" lon="6.81623">
        <ele>1422</ele>
        <time>2014-07-31T10:23:14.290Z</time>
      </trkpt>
      <trkpt lat="44.93495" lon="6.81622">
        <ele>1422</ele>
        <time>2014-07-31T10:23:25.290Z</time>
      </trkpt>
      <trkpt lat="44.93496" lon="6.81622">
        <ele>1422</ele>
        <time>2014-07-31T10:23:28.190Z</time>
      </trkpt>
      <trkpt lat="44.93498" lon="6.81623">
        <ele>1421</ele>
        <time>2014-07-31T10:23:38.190Z</time>
      </trkpt>
      <trkpt lat="44.93498" lon="6.81624">
        <ele>1422</ele>
        <time>2014-07-31T10:23:58.190Z</time>
      </trkpt>
      <trkpt lat="44.93498" lon="6.81624">
        <ele>1422</ele>
        <time>2014-07-31T10:24:00.250Z</time>
      </trkpt>
      <trkpt lat="44.93499" lon="6.81624">
        <ele>1422</ele>
        <time>2014-07-31T10:24:04.190Z</time>
      </trkpt>
      <trkpt lat="44.935" lon="6.81624">
        <ele>1422</ele>
        <time>2014-07-31T10:24:06.190Z</time>
      </trkpt>
      <trkpt lat="44.93501" lon="6.81625">
        <ele>1422</ele>
        <time>2014-07-31T10:24:10.290Z</time>
      </trkpt>
      <trkpt lat="44.93501" lon="6.81624">
        <ele>1421</ele>
        <time>2014-07-31T10:24:40.190Z</time>
      </trkpt>
      <trkpt lat="44.935" lon="6.81624">
        <ele>1421</ele>
        <time>2014-07-31T10:25:00.270Z</time>
      </trkpt>
      <trkpt lat="44.93501" lon="6.81624">
        <ele>1421</ele>
        <time>2014-07-31T10:25:04.190Z</time>
      </trkpt>
      <trkpt lat="44.935" lon="6.81623">
        <ele>1421</ele>
        <time>2014-07-31T10:25:06.190Z</time>
      </trkpt>
      <trkpt lat="44.93498" lon="6.81621">
        <ele>1421</ele>
        <time>2014-07-31T10:25:12.190Z</time>
      </trkpt>
      <trkpt lat="44.93498" lon="6.81621">
        <ele>1421</ele>
        <time>2014-07-31T10:25:19.190Z</time>
      </trkpt>
      <trkpt lat="44.93497" lon="6.8162">
        <ele>1421</ele>
        <time>2014-07-31T10:25:21.190Z</time>
      </trkpt>
      <trkpt lat="44.93497" lon="6.81622">
        <ele>1422</ele>
        <time>2014-07-31T10:25:32.290Z</time>
      </trkpt>
      <trkpt lat="44.93496" lon="6.81622">
        <ele>1422</ele>
        <time>2014-07-31T10:25:36.290Z</time>
      </trkpt>
      <trkpt lat="44.93495" lon="6.81622">
        <ele>1422</ele>
        <time>2014-07-31T10:25:57.290Z</time>
      </trkpt>
      <trkpt lat="44.93495" lon="6.81622">
        <ele>1422</ele>
        <time>2014-07-31T10:26:01.170Z</time>
      </trkpt>
      <trkpt lat="44.93494" lon="6.81621">
        <ele>1422</ele>
        <time>2014-07-31T10:26:14.190Z</time>
      </trkpt>
      <trkpt lat="44.93495" lon="6.81622">
        <ele>1422</ele>
        <time>2014-07-31T10:26:17.250Z</time>
      </trkpt>
      <trkpt lat="44.93495" lon="6.81624">
        <ele>1422</ele>
        <time>2014-07-31T10:26:18.290Z</time>
      </trkpt>
      <trkpt lat="44.93495" lon="6.81625">
        <ele>1422</ele>
        <time>2014-07-31T10:26:20.290Z</time>
      </trkpt>
      <trkpt lat="44.93496" lon="6.81627">
        <ele>1423</ele>
        <time>2014-07-31T10:26:28.290Z</time>
      </trkpt>
      <trkpt lat="44.93497" lon="6.81628">
        <ele>1423</ele>
        <time>2014-07-31T10:26:32.290Z</time>
      </trkpt>
      <trkpt lat="44.93496" lon="6.81629">
        <ele>1423</ele>
        <time>2014-07-31T10:26:37.190Z</time>
      </trkpt>
      <trkpt lat="44.93494" lon="6.81629">
        <ele>1423</ele>
        <time>2014-07-31T10:26:40.280Z</time>
      </trkpt>
      <trkpt lat="44.93494" lon="6.81628">
        <ele>1422</ele>
        <time>2014-07-31T10:26:46.190Z</time>
      </trkpt>
      <trkpt lat="44.93494" lon="6.81629">
        <ele>1422</ele>
        <time>2014-07-31T10:26:49.190Z</time>
      </trkpt>
      <trkpt lat="44.93496" lon="6.81629">
        <ele>1422</ele>
        <time>2014-07-31T10:27:00.250Z</time>
      </trkpt>
      <trkpt lat="44.93497" lon="6.8163">
        <ele>1422</ele>
        <time>2014-07-31T10:27:09.170Z</time>
      </trkpt>
      <trkpt lat="44.93498" lon="6.81631">
        <ele>1422</ele>
        <time>2014-07-31T10:27:11.190Z</time>
      </trkpt>
      <trkpt lat="44.93499" lon="6.81629">
        <ele>1422</ele>
        <time>2014-07-31T10:27:14.190Z</time>
      </trkpt>
      <trkpt lat="44.935" lon="6.81627">
        <ele>1422</ele>
        <time>2014-07-31T10:27:18.280Z</time>
      </trkpt>
      <trkpt lat="44.93499" lon="6.81627">
        <ele>1422</ele>
        <time>2014-07-31T10:27:28.190Z</time>
      </trkpt>
      <trkpt lat="44.93498" lon="6.81627">
        <ele>1422</ele>
        <time>2014-07-31T10:27:29.190Z</time>
      </trkpt>
      <trkpt lat="44.93497" lon="6.81627">
        <ele>1422</ele>
        <time>2014-07-31T10:27:30.190Z</time>
      </trkpt>
      <trkpt lat="44.93496" lon="6.81629">
        <ele>1422</ele>
        <time>2014-07-31T10:27:32.190Z</time>
      </trkpt>
      <trkpt lat="44.93494" lon="6.81628">
        <ele>1422</ele>
        <time>2014-07-31T10:27:37.380Z</time>
      </trkpt>
      <trkpt lat="44.93493" lon="6.81627">
        <ele>1422</ele>
        <time>2014-07-31T10:27:50.250Z</time>
      </trkpt>
      <trkpt lat="44.93491" lon="6.81626">
        <ele>1422</ele>
        <time>2014-07-31T10:27:52.190Z</time>
      </trkpt>
      <trkpt lat="44.9349" lon="6.81626">
        <ele>1422</ele>
        <time>2014-07-31T10:27:54.290Z</time>
      </trkpt>
      <trkpt lat="44.93488" lon="6.81625">
        <ele>1422</ele>
        <time>2014-07-31T10:27:55.290Z</time>
      </trkpt>
      <trkpt lat="44.93486" lon="6.81625">
        <ele>1422</ele>
        <time>2014-07-31T10:27:56.290Z</time>
      </trkpt>
      <trkpt lat="44.93485" lon="6.81623">
        <ele>1422</ele>
        <time>2014-07-31T10:27:57.290Z</time>
      </trkpt>
      <trkpt lat="44.93483" lon="6.81622">
        <ele>1422</ele>
        <time>2014-07-31T10:27:58.290Z</time>
      </trkpt>
      <trkpt lat="44.93482" lon="6.81621">
        <ele>1422</ele>
        <time>2014-07-31T10:28:00.250Z</time>
      </trkpt>
      <trkpt lat="44.93481" lon="6.81621">
        <ele>1422</ele>
        <time>2014-07-31T10:28:02.290Z</time>
      </trkpt>
      <trkpt lat="44.93481" lon="6.81619">
        <ele>1422</ele>
        <time>2014-07-31T10:28:04.190Z</time>
      </trkpt>
      <trkpt lat="44.93482" lon="6.81618">
        <ele>1422</ele>
        <time>2014-07-31T10:28:08.290Z</time>
      </trkpt>
      <trkpt lat="44.93484" lon="6.81618">
        <ele>1422</ele>
        <time>2014-07-31T10:28:10.190Z</time>
      </trkpt>
      <trkpt lat="44.93485" lon="6.81618">
        <ele>1422</ele>
        <time>2014-07-31T10:28:17.250Z</time>
      </trkpt>
      <trkpt lat="44.93486" lon="6.8162">
        <ele>1422</ele>
        <time>2014-07-31T10:28:23.190Z</time>
      </trkpt>
      <trkpt lat="44.93486" lon="6.81619">
        <ele>1422</ele>
        <time>2014-07-31T10:28:26.190Z</time>
      </trkpt>
      <trkpt lat="44.93487" lon="6.81619">
        <ele>1422</ele>
        <time>2014-07-31T10:28:32.190Z</time>
      </trkpt>
      <trkpt lat="44.93489" lon="6.8162">
        <ele>1422</ele>
        <time>2014-07-31T10:28:35.290Z</time>
      </trkpt>
      <trkpt lat="44.9349" lon="6.8162">
        <ele>1422</ele>
        <time>2014-07-31T10:28:38.290Z</time>
      </trkpt>
      <trkpt lat="44.93492" lon="6.8162">
        <ele>1422</ele>
        <time>2014-07-31T10:28:40.290Z</time>
      </trkpt>
      <trkpt lat="44.93493" lon="6.81621">
        <ele>1422</ele>
        <time>2014-07-31T10:28:42.190Z</time>
      </trkpt>
      <trkpt lat="44.93494" lon="6.81621">
        <ele>1422</ele>
        <time>2014-07-31T10:28:44.190Z</time>
      </trkpt>
      <trkpt lat="44.93495" lon="6.81622">
        <ele>1423</ele>
        <time>2014-07-31T10:28:46.190Z</time>
      </trkpt>
      <trkpt lat="44.93498" lon="6.81622">
        <ele>1423</ele>
        <time>2014-07-31T10:28:49.190Z</time>
      </trkpt>
      <trkpt lat="44.935" lon="6.81623">
        <ele>1423</ele>
        <time>2014-07-31T10:28:51.250Z</time>
      </trkpt>
      <trkpt lat="44.93501" lon="6.81623">
        <ele>1423</ele>
        <time>2014-07-31T10:28:53.290Z</time>
      </trkpt>
      <trkpt lat="44.93502" lon="6.81623">
        <ele>1423</ele>
        <time>2014-07-31T10:28:56.290Z</time>
      </trkpt>
      <trkpt lat="44.93503" lon="6.81623">
        <ele>1423</ele>
        <time>2014-07-31T10:29:00.050Z</time>
      </trkpt>
      <trkpt lat="44.93502" lon="6.81623">
        <ele>1423</ele>
        <time>2014-07-31T10:29:03.190Z</time>
      </trkpt>
      <trkpt lat="44.93503" lon="6.81624">
        <ele>1422</ele>
        <time>2014-07-31T10:29:16.290Z</time>
      </trkpt>
      <trkpt lat="44.93502" lon="6.81623">
        <ele>1422</ele>
        <time>2014-07-31T10:29:24.190Z</time>
      </trkpt>
      <trkpt lat="44.93503" lon="6.81624">
        <ele>1422</ele>
        <time>2014-07-31T10:29:27.190Z</time>
      </trkpt>
      <trkpt lat="44.93504" lon="6.81624">
        <ele>1422</ele>
        <time>2014-07-31T10:29:31.290Z</time>
      </trkpt>
      <trkpt lat="44.93505" lon="6.81624">
        <ele>1422</ele>
        <time>2014-07-31T10:29:35.190Z</time>
      </trkpt>
      <trkpt lat="44.93506" lon="6.81625">
        <ele>1422</ele>
        <time>2014-07-31T10:29:39.290Z</time>
      </trkpt>
      <trkpt lat="44.93508" lon="6.81625">
        <ele>1422</ele>
        <time>2014-07-31T10:29:41.270Z</time>
      </trkpt>
      <trkpt lat="44.93509" lon="6.81626">
        <ele>1421</ele>
        <time>2014-07-31T10:29:46.290Z</time>
      </trkpt>
      <trkpt lat="44.93507" lon="6.81626">
        <ele>1421</ele>
        <time>2014-07-31T10:29:49.250Z</time>
      </trkpt>
      <trkpt lat="44.93506" lon="6.81626">
        <ele>1421</ele>
        <time>2014-07-31T10:29:54.190Z</time>
      </trkpt>
      <trkpt lat="44.93505" lon="6.81626">
        <ele>1421.6</ele>
        <time>2014-07-31T10:29:55.170Z</time>
      </trkpt>
      <trkpt lat="44.93504" lon="6.81625">
        <ele>1422</ele>
        <time>2014-07-31T10:30:00.250Z</time>
      </trkpt>
      <trkpt lat="44.93503" lon="6.81625">
        <ele>1422</ele>
        <time>2014-07-31T10:30:04.190Z</time>
      </trkpt>
      <trkpt lat="44.93501" lon="6.81624">
        <ele>1422</ele>
        <time>2014-07-31T10:30:06.250Z</time>
      </trkpt>
      <trkpt lat="44.935" lon="6.81624">
        <ele>1422</ele>
        <time>2014-07-31T10:30:11.190Z</time>
      </trkpt>
      <trkpt lat="44.93499" lon="6.81623">
        <ele>1422</ele>
        <time>2014-07-31T10:30:13.190Z</time>
      </trkpt>
      <trkpt lat="44.93499" lon="6.81622">
        <ele>1422</ele>
        <time>2014-07-31T10:30:16.190Z</time>
      </trkpt>
      <trkpt lat="44.935" lon="6.81622">
        <ele>1422</ele>
        <time>2014-07-31T10:30:24.290Z</time>
      </trkpt>
      <trkpt lat="44.93498" lon="6.81622">
        <ele>1422</ele>
        <time>2014-07-31T10:30:35.190Z</time>
      </trkpt>
      <trkpt lat="44.93499" lon="6.81623">
        <ele>1422</ele>
        <time>2014-07-31T10:30:41.290Z</time>
      </trkpt>
      <trkpt lat="44.93497" lon="6.81623">
        <ele>1422</ele>
        <time>2014-07-31T10:30:45.290Z</time>
      </trkpt>
      <trkpt lat="44.93497" lon="6.81623">
        <ele>1422</ele>
        <time>2014-07-31T10:30:47.290Z</time>
      </trkpt>
      <trkpt lat="44.93496" lon="6.81623">
        <ele>1422</ele>
        <time>2014-07-31T10:30:59.190Z</time>
      </trkpt>
      <trkpt lat="44.93496" lon="6.81623">
        <ele>1422</ele>
        <time>2014-07-31T10:31:00.250Z</time>
      </trkpt>
      <trkpt lat="44.93497" lon="6.81623">
        <ele>1422</ele>
        <time>2014-07-31T10:31:02.290Z</time>
      </trkpt>
      <trkpt lat="44.93498" lon="6.81623">
        <ele>1422</ele>
        <time>2014-07-31T10:31:04.170Z</time>
      </trkpt>
      <trkpt lat="44.93499" lon="6.81622">
        <ele>1422</ele>
        <time>2014-07-31T10:31:06.190Z</time>
      </trkpt>
      <trkpt lat="44.935" lon="6.81623">
        <ele>1422</ele>
        <time>2014-07-31T10:31:08.190Z</time>
      </trkpt>
      <trkpt lat="44.93501" lon="6.81623">
        <ele>1422</ele>
        <time>2014-07-31T10:31:10.190Z</time>
      </trkpt>
      <trkpt lat="44.93502" lon="6.81623">
        <ele>1422</ele>
        <time>2014-07-31T10:31:16.290Z</time>
      </trkpt>
      <trkpt lat="44.93503" lon="6.81623">
        <ele>1422</ele>
        <time>2014-07-31T10:31:22.190Z</time>
      </trkpt>
      <trkpt lat="44.93505" lon="6.81624">
        <ele>1422</ele>
        <time>2014-07-31T10:31:32.190Z</time>
      </trkpt>
      <trkpt lat="44.93506" lon="6.81625">
        <ele>1422</ele>
        <time>2014-07-31T10:31:35.290Z</time>
      </trkpt>
      <trkpt lat="44.93507" lon="6.81625">
        <ele>1422</ele>
        <time>2014-07-31T10:31:46.290Z</time>
      </trkpt>
      <trkpt lat="44.93508" lon="6.81626">
        <ele>1422</ele>
        <time>2014-07-31T10:31:50.190Z</time>
      </trkpt>
      <trkpt lat="44.93509" lon="6.81626">
        <ele>1422</ele>
        <time>2014-07-31T10:31:53.290Z</time>
      </trkpt>
      <trkpt lat="44.93509" lon="6.81626">
        <ele>1422</ele>
        <time>2014-07-31T10:32:01.190Z</time>
      </trkpt>
      <trkpt lat="44.93508" lon="6.81625">
        <ele>1422</ele>
        <time>2014-07-31T10:32:03.290Z</time>
      </trkpt>
      <trkpt lat="44.93509" lon="6.81626">
        <ele>1421</ele>
        <time>2014-07-31T10:32:06.190Z</time>
      </trkpt>
      <trkpt lat="44.9351" lon="6.81627">
        <ele>1421</ele>
        <time>2014-07-31T10:32:18.190Z</time>
      </trkpt>
      <trkpt lat="44.9351" lon="6.81629">
        <ele>1421</ele>
        <time>2014-07-31T10:32:23.290Z</time>
      </trkpt>
      <trkpt lat="44.9351" lon="6.81631">
        <ele>1421</ele>
        <time>2014-07-31T10:32:26.290Z</time>
      </trkpt>
      <trkpt lat="44.93509" lon="6.81631">
        <ele>1421</ele>
        <time>2014-07-31T10:32:28.290Z</time>
      </trkpt>
      <trkpt lat="44.93509" lon="6.81633">
        <ele>1421</ele>
        <time>2014-07-31T10:32:30.190Z</time>
      </trkpt>
      <trkpt lat="44.93508" lon="6.81634">
        <ele>1421</ele>
        <time>2014-07-31T10:32:32.190Z</time>
      </trkpt>
      <trkpt lat="44.93507" lon="6.81633">
        <ele>1421</ele>
        <time>2014-07-31T10:32:33.290Z</time>
      </trkpt>
      <trkpt lat="44.93505" lon="6.81632">
        <ele>1421</ele>
        <time>2014-07-31T10:32:35.190Z</time>
      </trkpt>
      <trkpt lat="44.93505" lon="6.81632">
        <ele>1421</ele>
        <time>2014-07-31T10:32:41.190Z</time>
      </trkpt>
      <trkpt lat="44.93505" lon="6.81633">
        <ele>1421</ele>
        <time>2014-07-31T10:32:44.290Z</time>
      </trkpt>
      <trkpt lat="44.93504" lon="6.81633">
        <ele>1422</ele>
        <time>2014-07-31T10:32:50.290Z</time>
      </trkpt>
      <trkpt lat="44.93502" lon="6.81633">
        <ele>1422</ele>
        <time>2014-07-31T10:32:52.190Z</time>
      </trkpt>
      <trkpt lat="44.93501" lon="6.81633">
        <ele>1422</ele>
        <time>2014-07-31T10:32:54.190Z</time>
      </trkpt>
      <trkpt lat="44.935" lon="6.81631">
        <ele>1422</ele>
        <time>2014-07-31T10:32:56.250Z</time>
      </trkpt>
      <trkpt lat="44.935" lon="6.8163">
        <ele>1422</ele>
        <time>2014-07-31T10:33:00.220Z</time>
      </trkpt>
      <trkpt lat="44.93499" lon="6.8163">
        <ele>1422</ele>
        <time>2014-07-31T10:33:13.250Z</time>
      </trkpt>
      <trkpt lat="44.93499" lon="6.81632">
        <ele>1423</ele>
        <time>2014-07-31T10:33:18.190Z</time>
      </trkpt>
      <trkpt lat="44.93499" lon="6.81633">
        <ele>1423</ele>
        <time>2014-07-31T10:33:22.190Z</time>
      </trkpt>
      <trkpt lat="44.93499" lon="6.81635">
        <ele>1423</ele>
        <time>2014-07-31T10:33:23.270Z</time>
      </trkpt>
      <trkpt lat="44.935" lon="6.81638">
        <ele>1423</ele>
        <time>2014-07-31T10:33:24.290Z</time>
      </trkpt>
      <trkpt lat="44.93502" lon="6.8164">
        <ele>1423</ele>
        <time>2014-07-31T10:33:26.190Z</time>
      </trkpt>
      <trkpt lat="44.93504" lon="6.81641">
        <ele>1423</ele>
        <time>2014-07-31T10:33:27.190Z</time>
      </trkpt>
      <trkpt lat="44.93506" lon="6.81642">
        <ele>1423</ele>
        <time>2014-07-31T10:33:28.190Z</time>
      </trkpt>
      <trkpt lat="44.93505" lon="6.81643">
        <ele>1423</ele>
        <time>2014-07-31T10:33:29.190Z</time>
      </trkpt>
      <trkpt lat="44.93505" lon="6.81644">
        <ele>1423</ele>
        <time>2014-07-31T10:33:30.250Z</time>
      </trkpt>
      <trkpt lat="44.93504" lon="6.81645">
        <ele>1423</ele>
        <time>2014-07-31T10:33:31.290Z</time>
      </trkpt>
      <trkpt lat="44.93503" lon="6.81646">
        <ele>1423</ele>
        <time>2014-07-31T10:33:33.290Z</time>
      </trkpt>
      <trkpt lat="44.93501" lon="6.81645">
        <ele>1423</ele>
        <time>2014-07-31T10:33:35.190Z</time>
      </trkpt>
      <trkpt lat="44.935" lon="6.81643">
        <ele>1423</ele>
        <time>2014-07-31T10:33:37.380Z</time>
      </trkpt>
      <trkpt lat="44.935" lon="6.8164">
        <ele>1423</ele>
        <time>2014-07-31T10:33:39.290Z</time>
      </trkpt>
      <trkpt lat="44.93499" lon="6.81638">
        <ele>1423</ele>
        <time>2014-07-31T10:33:40.290Z</time>
      </trkpt>
      <trkpt lat="44.93499" lon="6.81636">
        <ele>1423</ele>
        <time>2014-07-31T10:33:42.190Z</time>
      </trkpt>
      <trkpt lat="44.93498" lon="6.81634">
        <ele>1423</ele>
        <time>2014-07-31T10:33:44.190Z</time>
      </trkpt>
      <trkpt lat="44.93497" lon="6.81634">
        <ele>1423</ele>
        <time>2014-07-31T10:33:46.190Z</time>
      </trkpt>
      <trkpt lat="44.93496" lon="6.81633">
        <ele>1423</ele>
        <time>2014-07-31T10:33:50.290Z</time>
      </trkpt>
      <trkpt lat="44.93493" lon="6.81631">
        <ele>1423</ele>
        <time>2014-07-31T10:33:52.190Z</time>
      </trkpt>
      <trkpt lat="44.93491" lon="6.81629">
        <ele>1423</ele>
        <time>2014-07-31T10:33:53.190Z</time>
      </trkpt>
      <trkpt lat="44.93489" lon="6.81627">
        <ele>1423</ele>
        <time>2014-07-31T10:33:54.190Z</time>
      </trkpt>
      <trkpt lat="44.93486" lon="6.81626">
        <ele>1422.4</ele>
        <time>2014-07-31T10:33:55.190Z</time>
      </trkpt>
      <trkpt lat="44.93485" lon="6.81625">
        <ele>1422</ele>
        <time>2014-07-31T10:33:56.260Z</time>
      </trkpt>
      <trkpt lat="44.93483" lon="6.81624">
        <ele>1422</ele>
        <time>2014-07-31T10:33:57.190Z</time>
      </trkpt>
      <trkpt lat="44.93482" lon="6.81623">
        <ele>1422</ele>
        <time>2014-07-31T10:33:58.190Z</time>
      </trkpt>
      <trkpt lat="44.93482" lon="6.81622">
        <ele>1422</ele>
        <time>2014-07-31T10:34:00.250Z</time>
      </trkpt>
      <trkpt lat="44.93481" lon="6.81622">
        <ele>1422</ele>
        <time>2014-07-31T10:34:09.090Z</time>
      </trkpt>
      <trkpt lat="44.93481" lon="6.81625">
        <ele>1422</ele>
        <time>2014-07-31T10:34:11.290Z</time>
      </trkpt>
      <trkpt lat="44.9348" lon="6.81627">
        <ele>1422</ele>
        <time>2014-07-31T10:34:12.270Z</time>
      </trkpt>
      <trkpt lat="44.9348" lon="6.81628">
        <ele>1422</ele>
        <time>2014-07-31T10:34:14.290Z</time>
      </trkpt>
      <trkpt lat="44.93479" lon="6.81629">
        <ele>1422</ele>
        <time>2014-07-31T10:34:16.290Z</time>
      </trkpt>
      <trkpt lat="44.9348" lon="6.8163">
        <ele>1422</ele>
        <time>2014-07-31T10:34:24.290Z</time>
      </trkpt>
      <trkpt lat="44.93482" lon="6.81633">
        <ele>1422</ele>
        <time>2014-07-31T10:34:26.290Z</time>
      </trkpt>
      <trkpt lat="44.93483" lon="6.81634">
        <ele>1422</ele>
        <time>2014-07-31T10:34:27.290Z</time>
      </trkpt>
      <trkpt lat="44.93483" lon="6.81635">
        <ele>1422</ele>
        <time>2014-07-31T10:34:28.290Z</time>
      </trkpt>
      <trkpt lat="44.93484" lon="6.81637">
        <ele>1422</ele>
        <time>2014-07-31T10:34:30.290Z</time>
      </trkpt>
      <trkpt lat="44.93486" lon="6.81637">
        <ele>1422</ele>
        <time>2014-07-31T10:34:32.290Z</time>
      </trkpt>
      <trkpt lat="44.93485" lon="6.81639">
        <ele>1422</ele>
        <time>2014-07-31T10:34:36.190Z</time>
      </trkpt>
      <trkpt lat="44.93486" lon="6.81641">
        <ele>1422</ele>
        <time>2014-07-31T10:34:38.150Z</time>
      </trkpt>
      <trkpt lat="44.93485" lon="6.81642">
        <ele>1422</ele>
        <time>2014-07-31T10:34:39.190Z</time>
      </trkpt>
      <trkpt lat="44.93484" lon="6.81643">
        <ele>1422</ele>
        <time>2014-07-31T10:34:41.190Z</time>
      </trkpt>
      <trkpt lat="44.93483" lon="6.81641">
        <ele>1422</ele>
        <time>2014-07-31T10:34:46.190Z</time>
      </trkpt>
      <trkpt lat="44.93482" lon="6.81641">
        <ele>1422</ele>
        <time>2014-07-31T10:34:47.190Z</time>
      </trkpt>
      <trkpt lat="44.93481" lon="6.81641">
        <ele>1422</ele>
        <time>2014-07-31T10:34:48.190Z</time>
      </trkpt>
      <trkpt lat="44.9348" lon="6.81639">
        <ele>1422</ele>
        <time>2014-07-31T10:34:49.190Z</time>
      </trkpt>
      <trkpt lat="44.93479" lon="6.81637">
        <ele>1422</ele>
        <time>2014-07-31T10:34:51.150Z</time>
      </trkpt>
      <trkpt lat="44.93476" lon="6.81636">
        <ele>1422</ele>
        <time>2014-07-31T10:34:52.190Z</time>
      </trkpt>
      <trkpt lat="44.93474" lon="6.81634">
        <ele>1422</ele>
        <time>2014-07-31T10:34:53.190Z</time>
      </trkpt>
      <trkpt lat="44.93473" lon="6.81634">
        <ele>1422</ele>
        <time>2014-07-31T10:34:54.190Z</time>
      </trkpt>
      <trkpt lat="44.93472" lon="6.81633">
        <ele>1422</ele>
        <time>2014-07-31T10:34:56.090Z</time>
      </trkpt>
      <trkpt lat="44.93473" lon="6.81632">
        <ele>1422</ele>
        <time>2014-07-31T10:34:58.090Z</time>
      </trkpt>
      <trkpt lat="44.93474" lon="6.8163">
        <ele>1422</ele>
        <time>2014-07-31T10:35:02.070Z</time>
      </trkpt>
      <trkpt lat="44.93472" lon="6.8163">
        <ele>1422</ele>
        <time>2014-07-31T10:35:04.190Z</time>
      </trkpt>
      <trkpt lat="44.93471" lon="6.81629">
        <ele>1422</ele>
        <time>2014-07-31T10:35:05.190Z</time>
      </trkpt>
      <trkpt lat="44.9347" lon="6.81628">
        <ele>1422</ele>
        <time>2014-07-31T10:35:06.190Z</time>
      </trkpt>
      <trkpt lat="44.93471" lon="6.81626">
        <ele>1422</ele>
        <time>2014-07-31T10:35:10.190Z</time>
      </trkpt>
      <trkpt lat="44.93471" lon="6.81624">
        <ele>1422</ele>
        <time>2014-07-31T10:35:11.190Z</time>
      </trkpt>
      <trkpt lat="44.93471" lon="6.81622">
        <ele>1422</ele>
        <time>2014-07-31T10:35:14.070Z</time>
      </trkpt>
      <trkpt lat="44.93471" lon="6.8162">
        <ele>1422</ele>
        <time>2014-07-31T10:35:16.090Z</time>
      </trkpt>
      <trkpt lat="44.93469" lon="6.81619">
        <ele>1422</ele>
        <time>2014-07-31T10:35:18.190Z</time>
      </trkpt>
      <trkpt lat="44.93468" lon="6.81618">
        <ele>1422</ele>
        <time>2014-07-31T10:35:19.190Z</time>
      </trkpt>
      <trkpt lat="44.93467" lon="6.81617">
        <ele>1422</ele>
        <time>2014-07-31T10:35:20.190Z</time>
      </trkpt>
      <trkpt lat="44.93467" lon="6.81615">
        <ele>1422</ele>
        <time>2014-07-31T10:35:22.190Z</time>
      </trkpt>
      <trkpt lat="44.93468" lon="6.81614">
        <ele>1422</ele>
        <time>2014-07-31T10:35:24.190Z</time>
      </trkpt>
      <trkpt lat="44.93469" lon="6.81615">
        <ele>1422</ele>
        <time>2014-07-31T10:35:28.090Z</time>
      </trkpt>
      <trkpt lat="44.93472" lon="6.81618">
        <ele>1422</ele>
        <time>2014-07-31T10:35:36.090Z</time>
      </trkpt>
      <trkpt lat="44.93474" lon="6.8162">
        <ele>1422</ele>
        <time>2014-07-31T10:35:37.280Z</time>
      </trkpt>
      <trkpt lat="44.93475" lon="6.81621">
        <ele>1422</ele>
        <time>2014-07-31T10:35:38.190Z</time>
      </trkpt>
      <trkpt lat="44.93476" lon="6.81622">
        <ele>1422</ele>
        <time>2014-07-31T10:35:41.190Z</time>
      </trkpt>
      <trkpt lat="44.93477" lon="6.81624">
        <ele>1422</ele>
        <time>2014-07-31T10:35:44.190Z</time>
      </trkpt>
      <trkpt lat="44.93477" lon="6.81619">
        <ele>1422</ele>
        <time>2014-07-31T10:35:47.090Z</time>
      </trkpt>
      <trkpt lat="44.93476" lon="6.81618">
        <ele>1422</ele>
        <time>2014-07-31T10:35:49.090Z</time>
      </trkpt>
      <trkpt lat="44.93477" lon="6.81619">
        <ele>1422</ele>
        <time>2014-07-31T10:35:53.290Z</time>
      </trkpt>
      <trkpt lat="44.93478" lon="6.8162">
        <ele>1422</ele>
        <time>2014-07-31T10:35:58.290Z</time>
      </trkpt>
      <trkpt lat="44.93479" lon="6.81621">
        <ele>1422</ele>
        <time>2014-07-31T10:35:59.290Z</time>
      </trkpt>
      <trkpt lat="44.93479" lon="6.81623">
        <ele>1422</ele>
        <time>2014-07-31T10:36:01.180Z</time>
      </trkpt>
      <trkpt lat="44.93479" lon="6.81625">
        <ele>1422</ele>
        <time>2014-07-31T10:36:03.250Z</time>
      </trkpt>
      <trkpt lat="44.93478" lon="6.81627">
        <ele>1422</ele>
        <time>2014-07-31T10:36:05.290Z</time>
      </trkpt>
      <trkpt lat="44.93478" lon="6.81628">
        <ele>1422</ele>
        <time>2014-07-31T10:36:07.290Z</time>
      </trkpt>
      <trkpt lat="44.93479" lon="6.81627">
        <ele>1422</ele>
        <time>2014-07-31T10:36:10.290Z</time>
      </trkpt>
      <trkpt lat="44.93481" lon="6.81625">
        <ele>1422</ele>
        <time>2014-07-31T10:36:12.190Z</time>
      </trkpt>
      <trkpt lat="44.93482" lon="6.81624">
        <ele>1422</ele>
        <time>2014-07-31T10:36:14.190Z</time>
      </trkpt>
      <trkpt lat="44.93483" lon="6.81625">
        <ele>1422</ele>
        <time>2014-07-31T10:36:16.190Z</time>
      </trkpt>
      <trkpt lat="44.93485" lon="6.81626">
        <ele>1422</ele>
        <time>2014-07-31T10:36:21.290Z</time>
      </trkpt>
      <trkpt lat="44.93485" lon="6.81625">
        <ele>1422</ele>
        <time>2014-07-31T10:36:25.290Z</time>
      </trkpt>
      <trkpt lat="44.93483" lon="6.81625">
        <ele>1422</ele>
        <time>2014-07-31T10:36:37.250Z</time>
      </trkpt>
      <trkpt lat="44.93482" lon="6.81626">
        <ele>1422</ele>
        <time>2014-07-31T10:36:40.290Z</time>
      </trkpt>
      <trkpt lat="44.93484" lon="6.81628">
        <ele>1422</ele>
        <time>2014-07-31T10:36:45.290Z</time>
      </trkpt>
      <trkpt lat="44.93485" lon="6.81627">
        <ele>1422</ele>
        <time>2014-07-31T10:36:49.290Z</time>
      </trkpt>
      <trkpt lat="44.93484" lon="6.81628">
        <ele>1421.4</ele>
        <time>2014-07-31T10:36:55.190Z</time>
      </trkpt>
      <trkpt lat="44.93483" lon="6.81627">
        <ele>1421</ele>
        <time>2014-07-31T10:36:57.190Z</time>
      </trkpt>
      <trkpt lat="44.93483" lon="6.81627">
        <ele>1421</ele>
        <time>2014-07-31T10:37:00.240Z</time>
      </trkpt>
      <trkpt lat="44.93484" lon="6.81628">
        <ele>1421</ele>
        <time>2014-07-31T10:37:06.290Z</time>
      </trkpt>
      <trkpt lat="44.93483" lon="6.81629">
        <ele>1421</ele>
        <time>2014-07-31T10:37:11.250Z</time>
      </trkpt>
      <trkpt lat="44.93484" lon="6.81629">
        <ele>1422</ele>
        <time>2014-07-31T10:37:22.290Z</time>
      </trkpt>
      <trkpt lat="44.93483" lon="6.81628">
        <ele>1422</ele>
        <time>2014-07-31T10:37:29.190Z</time>
      </trkpt>
      <trkpt lat="44.93485" lon="6.81629">
        <ele>1422</ele>
        <time>2014-07-31T10:37:34.250Z</time>
      </trkpt>
      <trkpt lat="44.93483" lon="6.81628">
        <ele>1421</ele>
        <time>2014-07-31T10:37:45.190Z</time>
      </trkpt>
      <trkpt lat="44.93483" lon="6.81627">
        <ele>1421</ele>
        <time>2014-07-31T10:37:52.190Z</time>
      </trkpt>
      <trkpt lat="44.93484" lon="6.81627">
        <ele>1422</ele>
        <time>2014-07-31T10:37:57.290Z</time>
      </trkpt>
      <trkpt lat="44.93485" lon="6.81626">
        <ele>1422</ele>
        <time>2014-07-31T10:37:59.280Z</time>
      </trkpt>
      <trkpt lat="44.93485" lon="6.81625">
        <ele>1422</ele>
        <time>2014-07-31T10:38:00.240Z</time>
      </trkpt>
      <trkpt lat="44.93486" lon="6.81624">
        <ele>1422</ele>
        <time>2014-07-31T10:38:03.290Z</time>
      </trkpt>
      <trkpt lat="44.93487" lon="6.81623">
        <ele>1422</ele>
        <time>2014-07-31T10:38:05.290Z</time>
      </trkpt>
      <trkpt lat="44.93488" lon="6.81623">
        <ele>1422</ele>
        <time>2014-07-31T10:38:09.190Z</time>
      </trkpt>
      <trkpt lat="44.93489" lon="6.81622">
        <ele>1422</ele>
        <time>2014-07-31T10:38:14.290Z</time>
      </trkpt>
      <trkpt lat="44.93488" lon="6.81621">
        <ele>1422</ele>
        <time>2014-07-31T10:38:18.190Z</time>
      </trkpt>
      <trkpt lat="44.93488" lon="6.81621">
        <ele>1422</ele>
        <time>2014-07-31T10:38:20.290Z</time>
      </trkpt>
      <trkpt lat="44.93489" lon="6.81621">
        <ele>1421</ele>
        <time>2014-07-31T10:38:32.190Z</time>
      </trkpt>
      <trkpt lat="44.9349" lon="6.81622">
        <ele>1421</ele>
        <time>2014-07-31T10:38:34.250Z</time>
      </trkpt>
      <trkpt lat="44.93491" lon="6.81622">
        <ele>1421</ele>
        <time>2014-07-31T10:38:38.190Z</time>
      </trkpt>
      <trkpt lat="44.9349" lon="6.81622">
        <ele>1420</ele>
        <time>2014-07-31T10:38:54.290Z</time>
      </trkpt>
      <trkpt lat="44.93491" lon="6.81623">
        <ele>1422</ele>
        <time>2014-07-31T10:39:00.240Z</time>
      </trkpt>
      <trkpt lat="44.93492" lon="6.81623">
        <ele>1422</ele>
        <time>2014-07-31T10:39:09.190Z</time>
      </trkpt>
      <trkpt lat="44.93493" lon="6.81623">
        <ele>1422</ele>
        <time>2014-07-31T10:39:12.290Z</time>
      </trkpt>
      <trkpt lat="44.93493" lon="6.81624">
        <ele>1422</ele>
        <time>2014-07-31T10:39:14.290Z</time>
      </trkpt>
      <trkpt lat="44.93494" lon="6.81624">
        <ele>1422</ele>
        <time>2014-07-31T10:39:16.290Z</time>
      </trkpt>
      <trkpt lat="44.93496" lon="6.81625">
        <ele>1422</ele>
        <time>2014-07-31T10:39:18.190Z</time>
      </trkpt>
      <trkpt lat="44.93497" lon="6.81625">
        <ele>1422</ele>
        <time>2014-07-31T10:39:20.190Z</time>
      </trkpt>
      <trkpt lat="44.93498" lon="6.81625">
        <ele>1422</ele>
        <time>2014-07-31T10:39:23.190Z</time>
      </trkpt>
      <trkpt lat="44.93497" lon="6.81624">
        <ele>1421</ele>
        <time>2014-07-31T10:39:29.290Z</time>
      </trkpt>
      <trkpt lat="44.93496" lon="6.81624">
        <ele>1421</ele>
        <time>2014-07-31T10:39:31.290Z</time>
      </trkpt>
      <trkpt lat="44.93494" lon="6.81623">
        <ele>1421</ele>
        <time>2014-07-31T10:39:33.290Z</time>
      </trkpt>
      <trkpt lat="44.93493" lon="6.81623">
        <ele>1421</ele>
        <time>2014-07-31T10:39:45.190Z</time>
      </trkpt>
      <trkpt lat="44.93494" lon="6.81623">
        <ele>1421</ele>
        <time>2014-07-31T10:39:47.190Z</time>
      </trkpt>
      <trkpt lat="44.93495" lon="6.81624">
        <ele>1421</ele>
        <time>2014-07-31T10:39:48.190Z</time>
      </trkpt>
      <trkpt lat="44.93497" lon="6.81624">
        <ele>1421</ele>
        <time>2014-07-31T10:39:49.190Z</time>
      </trkpt>
      <trkpt lat="44.93498" lon="6.81624">
        <ele>1421</ele>
        <time>2014-07-31T10:39:51.250Z</time>
      </trkpt>
      <trkpt lat="44.93499" lon="6.81624">
        <ele>1421</ele>
        <time>2014-07-31T10:39:55.290Z</time>
      </trkpt>
      <trkpt lat="44.93501" lon="6.81625">
        <ele>1421</ele>
        <time>2014-07-31T10:39:59.290Z</time>
      </trkpt>
      <trkpt lat="44.93501" lon="6.81625">
        <ele>1421</ele>
        <time>2014-07-31T10:40:01.250Z</time>
      </trkpt>
      <trkpt lat="44.93503" lon="6.81625">
        <ele>1422</ele>
        <time>2014-07-31T10:40:13.190Z</time>
      </trkpt>
      <trkpt lat="44.93504" lon="6.81625">
        <ele>1422</ele>
        <time>2014-07-31T10:40:16.190Z</time>
      </trkpt>
      <trkpt lat="44.93503" lon="6.81625">
        <ele>1421</ele>
        <time>2014-07-31T10:40:39.290Z</time>
      </trkpt>
      <trkpt lat="44.93502" lon="6.81625">
        <ele>1421</ele>
        <time>2014-07-31T10:40:44.190Z</time>
      </trkpt>
      <trkpt lat="44.935" lon="6.81624">
        <ele>1421</ele>
        <time>2014-07-31T10:40:47.190Z</time>
      </trkpt>
      <trkpt lat="44.93499" lon="6.81624">
        <ele>1421</ele>
        <time>2014-07-31T10:40:50.190Z</time>
      </trkpt>
      <trkpt lat="44.93498" lon="6.81624">
        <ele>1422</ele>
        <time>2014-07-31T10:40:56.190Z</time>
      </trkpt>
      <trkpt lat="44.93499" lon="6.81624">
        <ele>1422</ele>
        <time>2014-07-31T10:41:00.240Z</time>
      </trkpt>
      <trkpt lat="44.935" lon="6.81624">
        <ele>1422</ele>
        <time>2014-07-31T10:41:04.190Z</time>
      </trkpt>
      <trkpt lat="44.93501" lon="6.81625">
        <ele>1422</ele>
        <time>2014-07-31T10:41:08.190Z</time>
      </trkpt>
      <trkpt lat="44.93502" lon="6.81625">
        <ele>1422</ele>
        <time>2014-07-31T10:41:15.190Z</time>
      </trkpt>
      <trkpt lat="44.93504" lon="6.81626">
        <ele>1422</ele>
        <time>2014-07-31T10:41:17.250Z</time>
      </trkpt>
      <trkpt lat="44.93505" lon="6.81627">
        <ele>1422</ele>
        <time>2014-07-31T10:41:19.190Z</time>
      </trkpt>
      <trkpt lat="44.93504" lon="6.81627">
        <ele>1421</ele>
        <time>2014-07-31T10:41:44.290Z</time>
      </trkpt>
      <trkpt lat="44.93503" lon="6.81627">
        <ele>1422</ele>
        <time>2014-07-31T10:41:47.290Z</time>
      </trkpt>
      <trkpt lat="44.93502" lon="6.81626">
        <ele>1422</ele>
        <time>2014-07-31T10:41:48.290Z</time>
      </trkpt>
      <trkpt lat="44.93503" lon="6.81626">
        <ele>1422</ele>
        <time>2014-07-31T10:41:55.290Z</time>
      </trkpt>
      <trkpt lat="44.93502" lon="6.81625">
        <ele>1422</ele>
        <time>2014-07-31T10:41:59.190Z</time>
      </trkpt>
      <trkpt lat="44.93502" lon="6.81625">
        <ele>1422</ele>
        <time>2014-07-31T10:42:00.170Z</time>
      </trkpt>
      <trkpt lat="44.93501" lon="6.81624">
        <ele>1422</ele>
        <time>2014-07-31T10:42:02.190Z</time>
      </trkpt>
      <trkpt lat="44.935" lon="6.81624">
        <ele>1422</ele>
        <time>2014-07-31T10:42:04.190Z</time>
      </trkpt>
      <trkpt lat="44.93501" lon="6.81624">
        <ele>1422</ele>
        <time>2014-07-31T10:42:17.110Z</time>
      </trkpt>
      <trkpt lat="44.93502" lon="6.81624">
        <ele>1422</ele>
        <time>2014-07-31T10:42:18.190Z</time>
      </trkpt>
      <trkpt lat="44.93503" lon="6.81624">
        <ele>1422</ele>
        <time>2014-07-31T10:42:20.290Z</time>
      </trkpt>
      <trkpt lat="44.93505" lon="6.81625">
        <ele>1422</ele>
        <time>2014-07-31T10:42:22.290Z</time>
      </trkpt>
      <trkpt lat="44.93506" lon="6.81625">
        <ele>1422</ele>
        <time>2014-07-31T10:42:23.280Z</time>
      </trkpt>
      <trkpt lat="44.93508" lon="6.81626">
        <ele>1422</ele>
        <time>2014-07-31T10:42:26.290Z</time>
      </trkpt>
      <trkpt lat="44.93507" lon="6.81626">
        <ele>1422</ele>
        <time>2014-07-31T10:42:30.290Z</time>
      </trkpt>
      <trkpt lat="44.93506" lon="6.81626">
        <ele>1423</ele>
        <time>2014-07-31T10:42:46.190Z</time>
      </trkpt>
      <trkpt lat="44.93505" lon="6.81625">
        <ele>1423</ele>
        <time>2014-07-31T10:42:48.270Z</time>
      </trkpt>
      <trkpt lat="44.93504" lon="6.81624">
        <ele>1423</ele>
        <time>2014-07-31T10:42:49.290Z</time>
      </trkpt>
      <trkpt lat="44.93503" lon="6.81623">
        <ele>1423</ele>
        <time>2014-07-31T10:42:52.190Z</time>
      </trkpt>
      <trkpt lat="44.93504" lon="6.81622">
        <ele>1422</ele>
        <time>2014-07-31T10:43:00.240Z</time>
      </trkpt>
      <trkpt lat="44.93505" lon="6.81623">
        <ele>1422</ele>
        <time>2014-07-31T10:43:05.290Z</time>
      </trkpt>
      <trkpt lat="44.93507" lon="6.81625">
        <ele>1422</ele>
        <time>2014-07-31T10:43:09.190Z</time>
      </trkpt>
      <trkpt lat="44.93508" lon="6.81625">
        <ele>1422</ele>
        <time>2014-07-31T10:43:11.180Z</time>
      </trkpt>
      <trkpt lat="44.93507" lon="6.81624">
        <ele>1423</ele>
        <time>2014-07-31T10:43:26.290Z</time>
      </trkpt>
      <trkpt lat="44.93506" lon="6.81625">
        <ele>1423</ele>
        <time>2014-07-31T10:43:29.190Z</time>
      </trkpt>
      <trkpt lat="44.93504" lon="6.81624">
        <ele>1423</ele>
        <time>2014-07-31T10:43:31.190Z</time>
      </trkpt>
      <trkpt lat="44.93503" lon="6.81624">
        <ele>1423</ele>
        <time>2014-07-31T10:43:33.190Z</time>
      </trkpt>
      <trkpt lat="44.93502" lon="6.81623">
        <ele>1423</ele>
        <time>2014-07-31T10:43:35.280Z</time>
      </trkpt>
      <trkpt lat="44.93501" lon="6.81624">
        <ele>1423</ele>
        <time>2014-07-31T10:43:40.300Z</time>
      </trkpt>
      <trkpt lat="44.93498" lon="6.81623">
        <ele>1423</ele>
        <time>2014-07-31T10:43:43.210Z</time>
      </trkpt>
      <trkpt lat="44.935" lon="6.81623">
        <ele>1422.3</ele>
        <time>2014-07-31T10:43:55.280Z</time>
      </trkpt>
      <trkpt lat="44.93501" lon="6.81624">
        <ele>1422</ele>
        <time>2014-07-31T10:43:57.290Z</time>
      </trkpt>
      <trkpt lat="44.93502" lon="6.81623">
        <ele>1422</ele>
        <time>2014-07-31T10:44:00.240Z</time>
      </trkpt>
      <trkpt lat="44.93503" lon="6.81622">
        <ele>1422</ele>
        <time>2014-07-31T10:44:05.280Z</time>
      </trkpt>
      <trkpt lat="44.93504" lon="6.81623">
        <ele>1422</ele>
        <time>2014-07-31T10:44:11.170Z</time>
      </trkpt>
      <trkpt lat="44.93505" lon="6.81624">
        <ele>1422</ele>
        <time>2014-07-31T10:44:13.180Z</time>
      </trkpt>
      <trkpt lat="44.93506" lon="6.81625">
        <ele>1422.6</ele>
        <time>2014-07-31T10:44:15.180Z</time>
      </trkpt>
      <trkpt lat="44.93508" lon="6.81626">
        <ele>1423</ele>
        <time>2014-07-31T10:44:18.190Z</time>
      </trkpt>
      <trkpt lat="44.93509" lon="6.81626">
        <ele>1423</ele>
        <time>2014-07-31T10:44:20.180Z</time>
      </trkpt>
      <trkpt lat="44.93508" lon="6.81626">
        <ele>1423</ele>
        <time>2014-07-31T10:44:24.180Z</time>
      </trkpt>
      <trkpt lat="44.93507" lon="6.81626">
        <ele>1423</ele>
        <time>2014-07-31T10:44:26.190Z</time>
      </trkpt>
      <trkpt lat="44.93508" lon="6.81626">
        <ele>1423</ele>
        <time>2014-07-31T10:44:30.190Z</time>
      </trkpt>
      <trkpt lat="44.9351" lon="6.81627">
        <ele>1422</ele>
        <time>2014-07-31T10:44:36.180Z</time>
      </trkpt>
      <trkpt lat="44.93511" lon="6.81627">
        <ele>1422</ele>
        <time>2014-07-31T10:44:38.190Z</time>
      </trkpt>
      <trkpt lat="44.93512" lon="6.81627">
        <ele>1422</ele>
        <time>2014-07-31T10:44:44.190Z</time>
      </trkpt>
      <trkpt lat="44.93513" lon="6.81627">
        <ele>1422</ele>
        <time>2014-07-31T10:44:49.180Z</time>
      </trkpt>
      <trkpt lat="44.93514" lon="6.81627">
        <ele>1422</ele>
        <time>2014-07-31T10:44:56.280Z</time>
      </trkpt>
      <trkpt lat="44.93516" lon="6.81628">
        <ele>1422</ele>
        <time>2014-07-31T10:44:59.280Z</time>
      </trkpt>
      <trkpt lat="44.93517" lon="6.81628">
        <ele>1422</ele>
        <time>2014-07-31T10:45:01.180Z</time>
      </trkpt>
      <trkpt lat="44.93518" lon="6.81628">
        <ele>1422</ele>
        <time>2014-07-31T10:45:04.180Z</time>
      </trkpt>
      <trkpt lat="44.9352" lon="6.81629">
        <ele>1422</ele>
        <time>2014-07-31T10:45:08.280Z</time>
      </trkpt>
      <trkpt lat="44.93521" lon="6.81629">
        <ele>1422</ele>
        <time>2014-07-31T10:45:10.180Z</time>
      </trkpt>
      <trkpt lat="44.9352" lon="6.81628">
        <ele>1422</ele>
        <time>2014-07-31T10:45:13.180Z</time>
      </trkpt>
      <trkpt lat="44.93519" lon="6.81628">
        <ele>1422.6</ele>
        <time>2014-07-31T10:45:15.180Z</time>
      </trkpt>
      <trkpt lat="44.93518" lon="6.81627">
        <ele>1423</ele>
        <time>2014-07-31T10:45:17.250Z</time>
      </trkpt>
      <trkpt lat="44.93517" lon="6.81628">
        <ele>1423</ele>
        <time>2014-07-31T10:45:19.180Z</time>
      </trkpt>
      <trkpt lat="44.93517" lon="6.81629">
        <ele>1423</ele>
        <time>2014-07-31T10:45:23.180Z</time>
      </trkpt>
      <trkpt lat="44.93519" lon="6.81629">
        <ele>1423</ele>
        <time>2014-07-31T10:45:25.280Z</time>
      </trkpt>
      <trkpt lat="44.9352" lon="6.81629">
        <ele>1423</ele>
        <time>2014-07-31T10:45:28.280Z</time>
      </trkpt>
      <trkpt lat="44.9352" lon="6.8163">
        <ele>1422.4</ele>
        <time>2014-07-31T10:45:35.180Z</time>
      </trkpt>
      <trkpt lat="44.93519" lon="6.8163">
        <ele>1422</ele>
        <time>2014-07-31T10:45:43.280Z</time>
      </trkpt>
      <trkpt lat="44.93517" lon="6.8163">
        <ele>1422</ele>
        <time>2014-07-31T10:46:01.180Z</time>
      </trkpt>
      <trkpt lat="44.93516" lon="6.81629">
        <ele>1422</ele>
        <time>2014-07-31T10:46:03.280Z</time>
      </trkpt>
      <trkpt lat="44.93515" lon="6.81629">
        <ele>1423</ele>
        <time>2014-07-31T10:46:07.280Z</time>
      </trkpt>
      <trkpt lat="44.93513" lon="6.81628">
        <ele>1423</ele>
        <time>2014-07-31T10:46:12.180Z</time>
      </trkpt>
      <trkpt lat="44.93512" lon="6.81628">
        <ele>1423</ele>
        <time>2014-07-31T10:46:13.180Z</time>
      </trkpt>
      <trkpt lat="44.93511" lon="6.81628">
        <ele>1423</ele>
        <time>2014-07-31T10:46:15.250Z</time>
      </trkpt>
      <trkpt lat="44.9351" lon="6.81627">
        <ele>1423</ele>
        <time>2014-07-31T10:46:19.280Z</time>
      </trkpt>
      <trkpt lat="44.93509" lon="6.81627">
        <ele>1423</ele>
        <time>2014-07-31T10:46:24.280Z</time>
      </trkpt>
      <trkpt lat="44.93508" lon="6.81627">
        <ele>1422</ele>
        <time>2014-07-31T10:46:29.280Z</time>
      </trkpt>
      <trkpt lat="44.93507" lon="6.81626">
        <ele>1422</ele>
        <time>2014-07-31T10:46:44.280Z</time>
      </trkpt>
      <trkpt lat="44.93506" lon="6.81626">
        <ele>1421</ele>
        <time>2014-07-31T10:46:48.280Z</time>
      </trkpt>
      <trkpt lat="44.93507" lon="6.81627">
        <ele>1421</ele>
        <time>2014-07-31T10:46:59.170Z</time>
      </trkpt>
      <trkpt lat="44.93508" lon="6.81627">
        <ele>1421</ele>
        <time>2014-07-31T10:47:00.240Z</time>
      </trkpt>
      <trkpt lat="44.93507" lon="6.81626">
        <ele>1421</ele>
        <time>2014-07-31T10:47:05.280Z</time>
      </trkpt>
      <trkpt lat="44.93506" lon="6.81627">
        <ele>1421</ele>
        <time>2014-07-31T10:47:08.280Z</time>
      </trkpt>
      <trkpt lat="44.93505" lon="6.81627">
        <ele>1421</ele>
        <time>2014-07-31T10:47:12.280Z</time>
      </trkpt>
      <trkpt lat="44.93504" lon="6.81626">
        <ele>1422</ele>
        <time>2014-07-31T10:47:19.180Z</time>
      </trkpt>
      <trkpt lat="44.93503" lon="6.81625">
        <ele>1422</ele>
        <time>2014-07-31T10:47:21.180Z</time>
      </trkpt>
      <trkpt lat="44.93502" lon="6.81625">
        <ele>1422.7</ele>
        <time>2014-07-31T10:47:25.280Z</time>
      </trkpt>
      <trkpt lat="44.93501" lon="6.81624">
        <ele>1423</ele>
        <time>2014-07-31T10:47:28.280Z</time>
      </trkpt>
      <trkpt lat="44.935" lon="6.81623">
        <ele>1423</ele>
        <time>2014-07-31T10:47:33.180Z</time>
      </trkpt>
      <trkpt lat="44.93501" lon="6.81623">
        <ele>1423</ele>
        <time>2014-07-31T10:47:35.280Z</time>
      </trkpt>
      <trkpt lat="44.93502" lon="6.81624">
        <ele>1423</ele>
        <time>2014-07-31T10:47:39.280Z</time>
      </trkpt>
      <trkpt lat="44.93501" lon="6.81624">
        <ele>1423</ele>
        <time>2014-07-31T10:47:44.280Z</time>
      </trkpt>
      <trkpt lat="44.935" lon="6.81623">
        <ele>1423</ele>
        <time>2014-07-31T10:47:50.280Z</time>
      </trkpt>
      <trkpt lat="44.93502" lon="6.81624">
        <ele>1423</ele>
        <time>2014-07-31T10:47:56.210Z</time>
      </trkpt>
      <trkpt lat="44.93503" lon="6.81624">
        <ele>1423</ele>
        <time>2014-07-31T10:47:59.180Z</time>
      </trkpt>
      <trkpt lat="44.93503" lon="6.81625">
        <ele>1423</ele>
        <time>2014-07-31T10:48:00.080Z</time>
      </trkpt>
      <trkpt lat="44.93504" lon="6.81625">
        <ele>1423</ele>
        <time>2014-07-31T10:48:02.180Z</time>
      </trkpt>
      <trkpt lat="44.93505" lon="6.81626">
        <ele>1423</ele>
        <time>2014-07-31T10:48:05.180Z</time>
      </trkpt>
      <trkpt lat="44.93506" lon="6.81626">
        <ele>1423</ele>
        <time>2014-07-31T10:48:08.280Z</time>
      </trkpt>
      <trkpt lat="44.93507" lon="6.81627">
        <ele>1423</ele>
        <time>2014-07-31T10:48:12.280Z</time>
      </trkpt>
      <trkpt lat="44.93508" lon="6.81627">
        <ele>1423</ele>
        <time>2014-07-31T10:48:21.180Z</time>
      </trkpt>
      <trkpt lat="44.93507" lon="6.81627">
        <ele>1422</ele>
        <time>2014-07-31T10:48:29.280Z</time>
      </trkpt>
      <trkpt lat="44.93506" lon="6.81627">
        <ele>1422</ele>
        <time>2014-07-31T10:48:32.180Z</time>
      </trkpt>
      <trkpt lat="44.93507" lon="6.81627">
        <ele>1423</ele>
        <time>2014-07-31T10:48:37.270Z</time>
      </trkpt>
      <trkpt lat="44.93508" lon="6.81627">
        <ele>1423</ele>
        <time>2014-07-31T10:48:43.280Z</time>
      </trkpt>
      <trkpt lat="44.93507" lon="6.81627">
        <ele>1423</ele>
        <time>2014-07-31T10:48:49.180Z</time>
      </trkpt>
      <trkpt lat="44.93506" lon="6.81626">
        <ele>1423</ele>
        <time>2014-07-31T10:48:51.210Z</time>
      </trkpt>
      <trkpt lat="44.93505" lon="6.81625">
        <ele>1423</ele>
        <time>2014-07-31T10:48:54.280Z</time>
      </trkpt>
      <trkpt lat="44.93504" lon="6.81625">
        <ele>1423</ele>
        <time>2014-07-31T10:48:56.280Z</time>
      </trkpt>
      <trkpt lat="44.93503" lon="6.81625">
        <ele>1423</ele>
        <time>2014-07-31T10:48:58.280Z</time>
      </trkpt>
      <trkpt lat="44.93502" lon="6.81624">
        <ele>1423</ele>
        <time>2014-07-31T10:49:00.220Z</time>
      </trkpt>
      <trkpt lat="44.93501" lon="6.81624">
        <ele>1423</ele>
        <time>2014-07-31T10:49:03.280Z</time>
      </trkpt>
      <trkpt lat="44.93499" lon="6.81623">
        <ele>1423</ele>
        <time>2014-07-31T10:49:06.180Z</time>
      </trkpt>
      <trkpt lat="44.93498" lon="6.81623">
        <ele>1423</ele>
        <time>2014-07-31T10:49:08.180Z</time>
      </trkpt>
      <trkpt lat="44.93496" lon="6.81623">
        <ele>1423</ele>
        <time>2014-07-31T10:49:10.180Z</time>
      </trkpt>
      <trkpt lat="44.93495" lon="6.81622">
        <ele>1423</ele>
        <time>2014-07-31T10:49:11.180Z</time>
      </trkpt>
      <trkpt lat="44.93494" lon="6.81622">
        <ele>1423</ele>
        <time>2014-07-31T10:49:13.180Z</time>
      </trkpt>
      <trkpt lat="44.93493" lon="6.81622">
        <ele>1423</ele>
        <time>2014-07-31T10:49:14.180Z</time>
      </trkpt>
      <trkpt lat="44.93494" lon="6.81623">
        <ele>1423</ele>
        <time>2014-07-31T10:49:21.180Z</time>
      </trkpt>
      <trkpt lat="44.93493" lon="6.81622">
        <ele>1423</ele>
        <time>2014-07-31T10:49:25.280Z</time>
      </trkpt>
      <trkpt lat="44.93494" lon="6.8162">
        <ele>1423</ele>
        <time>2014-07-31T10:49:32.280Z</time>
      </trkpt>
      <trkpt lat="44.93495" lon="6.8162">
        <ele>1422</ele>
        <time>2014-07-31T10:49:37.180Z</time>
      </trkpt>
      <trkpt lat="44.93496" lon="6.8162">
        <ele>1422</ele>
        <time>2014-07-31T10:49:43.280Z</time>
      </trkpt>
      <trkpt lat="44.93497" lon="6.8162">
        <ele>1422</ele>
        <time>2014-07-31T10:49:44.280Z</time>
      </trkpt>
      <trkpt lat="44.93497" lon="6.81623">
        <ele>1422</ele>
        <time>2014-07-31T10:49:46.180Z</time>
      </trkpt>
      <trkpt lat="44.93496" lon="6.81624">
        <ele>1422</ele>
        <time>2014-07-31T10:49:47.180Z</time>
      </trkpt>
      <trkpt lat="44.93495" lon="6.81625">
        <ele>1422</ele>
        <time>2014-07-31T10:49:48.180Z</time>
      </trkpt>
      <trkpt lat="44.93494" lon="6.81625">
        <ele>1422</ele>
        <time>2014-07-31T10:49:51.250Z</time>
      </trkpt>
      <trkpt lat="44.93494" lon="6.81627">
        <ele>1422</ele>
        <time>2014-07-31T10:49:53.280Z</time>
      </trkpt>
      <trkpt lat="44.93492" lon="6.81628">
        <ele>1422</ele>
        <time>2014-07-31T10:49:55.180Z</time>
      </trkpt>
      <trkpt lat="44.93492" lon="6.81628">
        <ele>1422</ele>
        <time>2014-07-31T10:50:00.240Z</time>
      </trkpt>
      <trkpt lat="44.93493" lon="6.81628">
        <ele>1422</ele>
        <time>2014-07-31T10:50:01.280Z</time>
      </trkpt>
      <trkpt lat="44.93494" lon="6.81627">
        <ele>1422</ele>
        <time>2014-07-31T10:50:02.280Z</time>
      </trkpt>
      <trkpt lat="44.93495" lon="6.81627">
        <ele>1422</ele>
        <time>2014-07-31T10:50:03.280Z</time>
      </trkpt>
      <trkpt lat="44.93496" lon="6.81627">
        <ele>1422</ele>
        <time>2014-07-31T10:50:04.280Z</time>
      </trkpt>
      <trkpt lat="44.93497" lon="6.81627">
        <ele>1422</ele>
        <time>2014-07-31T10:50:06.280Z</time>
      </trkpt>
      <trkpt lat="44.93496" lon="6.81627">
        <ele>1422</ele>
        <time>2014-07-31T10:50:11.280Z</time>
      </trkpt>
      <trkpt lat="44.93495" lon="6.81628">
        <ele>1422</ele>
        <time>2014-07-31T10:50:13.250Z</time>
      </trkpt>
      <trkpt lat="44.93494" lon="6.81628">
        <ele>1422</ele>
        <time>2014-07-31T10:50:15.280Z</time>
      </trkpt>
      <trkpt lat="44.93492" lon="6.81628">
        <ele>1422</ele>
        <time>2014-07-31T10:50:18.180Z</time>
      </trkpt>
      <trkpt lat="44.93491" lon="6.81628">
        <ele>1422</ele>
        <time>2014-07-31T10:50:20.180Z</time>
      </trkpt>
      <trkpt lat="44.93491" lon="6.81631">
        <ele>1422</ele>
        <time>2014-07-31T10:50:22.170Z</time>
      </trkpt>
      <trkpt lat="44.9349" lon="6.81632">
        <ele>1422</ele>
        <time>2014-07-31T10:50:24.180Z</time>
      </trkpt>
      <trkpt lat="44.93489" lon="6.81632">
        <ele>1422</ele>
        <time>2014-07-31T10:50:26.180Z</time>
      </trkpt>
      <trkpt lat="44.93489" lon="6.8163">
        <ele>1422</ele>
        <time>2014-07-31T10:50:28.180Z</time>
      </trkpt>
      <trkpt lat="44.93488" lon="6.8163">
        <ele>1422</ele>
        <time>2014-07-31T10:50:31.280Z</time>
      </trkpt>
      <trkpt lat="44.93487" lon="6.81629">
        <ele>1422</ele>
        <time>2014-07-31T10:50:35.180Z</time>
      </trkpt>
      <trkpt lat="44.93488" lon="6.81631">
        <ele>1422</ele>
        <time>2014-07-31T10:50:38.180Z</time>
      </trkpt>
      <trkpt lat="44.93467" lon="6.81622">
        <ele>1422</ele>
        <time>2014-07-31T10:51:19.180Z</time>
      </trkpt>
      <trkpt lat="44.93467" lon="6.81623">
        <ele>1422</ele>
        <time>2014-07-31T10:51:20.170Z</time>
      </trkpt>
      <trkpt lat="44.93468" lon="6.81624">
        <ele>1422</ele>
        <time>2014-07-31T10:51:21.250Z</time>
      </trkpt>
      <trkpt lat="44.93469" lon="6.81626">
        <ele>1422</ele>
        <time>2014-07-31T10:51:23.180Z</time>
      </trkpt>
      <trkpt lat="44.9347" lon="6.81626">
        <ele>1422</ele>
        <time>2014-07-31T10:51:25.180Z</time>
      </trkpt>
      <trkpt lat="44.93472" lon="6.81627">
        <ele>1422</ele>
        <time>2014-07-31T10:51:27.180Z</time>
      </trkpt>
      <trkpt lat="44.93473" lon="6.81627">
        <ele>1422</ele>
        <time>2014-07-31T10:51:28.180Z</time>
      </trkpt>
      <trkpt lat="44.93475" lon="6.81626">
        <ele>1422</ele>
        <time>2014-07-31T10:51:30.280Z</time>
      </trkpt>
      <trkpt lat="44.93476" lon="6.81625">
        <ele>1422</ele>
        <time>2014-07-31T10:51:31.180Z</time>
      </trkpt>
      <trkpt lat="44.93479" lon="6.81623">
        <ele>1423</ele>
        <time>2014-07-31T10:51:38.150Z</time>
      </trkpt>
      <trkpt lat="44.93478" lon="6.81623">
        <ele>1423</ele>
        <time>2014-07-31T10:51:40.180Z</time>
      </trkpt>
      <trkpt lat="44.93477" lon="6.81621">
        <ele>1423</ele>
        <time>2014-07-31T10:51:42.180Z</time>
      </trkpt>
      <trkpt lat="44.93476" lon="6.8162">
        <ele>1423</ele>
        <time>2014-07-31T10:51:44.180Z</time>
      </trkpt>
      <trkpt lat="44.93475" lon="6.8162">
        <ele>1423</ele>
        <time>2014-07-31T10:51:48.180Z</time>
      </trkpt>
      <trkpt lat="44.93474" lon="6.81619">
        <ele>1423</ele>
        <time>2014-07-31T10:51:51.180Z</time>
      </trkpt>
      <trkpt lat="44.93473" lon="6.81619">
        <ele>1423</ele>
        <time>2014-07-31T10:51:56.180Z</time>
      </trkpt>
      <trkpt lat="44.93473" lon="6.81619">
        <ele>1423</ele>
        <time>2014-07-31T10:52:00.210Z</time>
      </trkpt>
      <trkpt lat="44.93475" lon="6.8162">
        <ele>1423</ele>
        <time>2014-07-31T10:52:06.180Z</time>
      </trkpt>
      <trkpt lat="44.93476" lon="6.81619">
        <ele>1423</ele>
        <time>2014-07-31T10:52:09.280Z</time>
      </trkpt>
      <trkpt lat="44.93478" lon="6.81619">
        <ele>1423</ele>
        <time>2014-07-31T10:52:13.180Z</time>
      </trkpt>
      <trkpt lat="44.93479" lon="6.8162">
        <ele>1423</ele>
        <time>2014-07-31T10:52:16.180Z</time>
      </trkpt>
      <trkpt lat="44.93481" lon="6.81621">
        <ele>1423</ele>
        <time>2014-07-31T10:52:18.280Z</time>
      </trkpt>
      <trkpt lat="44.93482" lon="6.81621">
        <ele>1423</ele>
        <time>2014-07-31T10:52:20.280Z</time>
      </trkpt>
      <trkpt lat="44.93481" lon="6.8162">
        <ele>1423</ele>
        <time>2014-07-31T10:52:23.180Z</time>
      </trkpt>
      <trkpt lat="44.93477" lon="6.8162">
        <ele>1422</ele>
        <time>2014-07-31T10:52:51.150Z</time>
      </trkpt>
      <trkpt lat="44.93481" lon="6.8162">
        <ele>1422</ele>
        <time>2014-07-31T10:52:52.180Z</time>
      </trkpt>
      <trkpt lat="44.93482" lon="6.81619">
        <ele>1422</ele>
        <time>2014-07-31T10:52:54.180Z</time>
      </trkpt>
      <trkpt lat="44.93482" lon="6.81618">
        <ele>1422</ele>
        <time>2014-07-31T10:52:56.280Z</time>
      </trkpt>
      <trkpt lat="44.93482" lon="6.81616">
        <ele>1422</ele>
        <time>2014-07-31T10:52:58.280Z</time>
      </trkpt>
      <trkpt lat="44.93481" lon="6.81616">
        <ele>1422</ele>
        <time>2014-07-31T10:53:01.180Z</time>
      </trkpt>
      <trkpt lat="44.93476" lon="6.81614">
        <ele>1422</ele>
        <time>2014-07-31T10:53:12.280Z</time>
      </trkpt>
      <trkpt lat="44.93476" lon="6.81616">
        <ele>1422</ele>
        <time>2014-07-31T10:53:13.280Z</time>
      </trkpt>
      <trkpt lat="44.93474" lon="6.81616">
        <ele>1422</ele>
        <time>2014-07-31T10:53:14.280Z</time>
      </trkpt>
      <trkpt lat="44.93474" lon="6.81617">
        <ele>1422.7</ele>
        <time>2014-07-31T10:53:15.280Z</time>
      </trkpt>
      <trkpt lat="44.93473" lon="6.81619">
        <ele>1423</ele>
        <time>2014-07-31T10:53:16.280Z</time>
      </trkpt>
      <trkpt lat="44.93467" lon="6.81618">
        <ele>1423</ele>
        <time>2014-07-31T10:53:18.180Z</time>
      </trkpt>
      <trkpt lat="44.93462" lon="6.81617">
        <ele>1423</ele>
        <time>2014-07-31T10:53:19.180Z</time>
      </trkpt>
      <trkpt lat="44.93461" lon="6.81615">
        <ele>1423</ele>
        <time>2014-07-31T10:53:20.250Z</time>
      </trkpt>
      <trkpt lat="44.93459" lon="6.81615">
        <ele>1423</ele>
        <time>2014-07-31T10:53:21.280Z</time>
      </trkpt>
      <trkpt lat="44.93459" lon="6.81616">
        <ele>1423</ele>
        <time>2014-07-31T10:53:22.280Z</time>
      </trkpt>
      <trkpt lat="44.93462" lon="6.81615">
        <ele>1423</ele>
        <time>2014-07-31T10:53:24.280Z</time>
      </trkpt>
      <trkpt lat="44.93465" lon="6.81615">
        <ele>1423</ele>
        <time>2014-07-31T10:53:25.280Z</time>
      </trkpt>
      <trkpt lat="44.93468" lon="6.81615">
        <ele>1423</ele>
        <time>2014-07-31T10:53:26.280Z</time>
      </trkpt>
      <trkpt lat="44.93471" lon="6.81616">
        <ele>1423</ele>
        <time>2014-07-31T10:53:27.280Z</time>
      </trkpt>
      <trkpt lat="44.93474" lon="6.81617">
        <ele>1423</ele>
        <time>2014-07-31T10:53:28.280Z</time>
      </trkpt>
      <trkpt lat="44.93476" lon="6.81617">
        <ele>1423</ele>
        <time>2014-07-31T10:53:29.280Z</time>
      </trkpt>
      <trkpt lat="44.93481" lon="6.81618">
        <ele>1423</ele>
        <time>2014-07-31T10:53:31.180Z</time>
      </trkpt>
      <trkpt lat="44.93482" lon="6.81619">
        <ele>1423</ele>
        <time>2014-07-31T10:53:32.180Z</time>
      </trkpt>
      <trkpt lat="44.93484" lon="6.81619">
        <ele>1423</ele>
        <time>2014-07-31T10:53:33.280Z</time>
      </trkpt>
      <trkpt lat="44.93485" lon="6.81621">
        <ele>1422</ele>
        <time>2014-07-31T10:53:37.190Z</time>
      </trkpt>
      <trkpt lat="44.93485" lon="6.81622">
        <ele>1422</ele>
        <time>2014-07-31T10:53:39.180Z</time>
      </trkpt>
      <trkpt lat="44.93486" lon="6.81624">
        <ele>1422</ele>
        <time>2014-07-31T10:53:42.180Z</time>
      </trkpt>
      <trkpt lat="44.93487" lon="6.81623">
        <ele>1422</ele>
        <time>2014-07-31T10:53:45.280Z</time>
      </trkpt>
      <trkpt lat="44.93488" lon="6.81623">
        <ele>1422</ele>
        <time>2014-07-31T10:53:49.180Z</time>
      </trkpt>
      <trkpt lat="44.93489" lon="6.81624">
        <ele>1422</ele>
        <time>2014-07-31T10:53:51.150Z</time>
      </trkpt>
      <trkpt lat="44.9349" lon="6.81625">
        <ele>1422</ele>
        <time>2014-07-31T10:53:54.250Z</time>
      </trkpt>
      <trkpt lat="44.93491" lon="6.81625">
        <ele>1422.7</ele>
        <time>2014-07-31T10:53:55.280Z</time>
      </trkpt>
      <trkpt lat="44.93493" lon="6.81625">
        <ele>1423</ele>
        <time>2014-07-31T10:53:57.180Z</time>
      </trkpt>
      <trkpt lat="44.93494" lon="6.81625">
        <ele>1423</ele>
        <time>2014-07-31T10:54:00.240Z</time>
      </trkpt>
      <trkpt lat="44.93495" lon="6.81625">
        <ele>1423</ele>
        <time>2014-07-31T10:54:03.280Z</time>
      </trkpt>
      <trkpt lat="44.93494" lon="6.81625">
        <ele>1423</ele>
        <time>2014-07-31T10:54:12.180Z</time>
      </trkpt>
      <trkpt lat="44.93493" lon="6.81625">
        <ele>1423</ele>
        <time>2014-07-31T10:54:13.180Z</time>
      </trkpt>
      <trkpt lat="44.93492" lon="6.81625">
        <ele>1423</ele>
        <time>2014-07-31T10:54:17.250Z</time>
      </trkpt>
      <trkpt lat="44.93491" lon="6.81623">
        <ele>1423</ele>
        <time>2014-07-31T10:54:19.280Z</time>
      </trkpt>
      <trkpt lat="44.93491" lon="6.81625">
        <ele>1423</ele>
        <time>2014-07-31T10:54:24.180Z</time>
      </trkpt>
      <trkpt lat="44.93492" lon="6.81624">
        <ele>1423</ele>
        <time>2014-07-31T10:54:39.180Z</time>
      </trkpt>
      <trkpt lat="44.93493" lon="6.81624">
        <ele>1423</ele>
        <time>2014-07-31T10:54:41.180Z</time>
      </trkpt>
      <trkpt lat="44.93494" lon="6.81624">
        <ele>1423</ele>
        <time>2014-07-31T10:54:48.280Z</time>
      </trkpt>
      <trkpt lat="44.93495" lon="6.81624">
        <ele>1423</ele>
        <time>2014-07-31T10:54:54.180Z</time>
      </trkpt>
      <trkpt lat="44.93495" lon="6.81623">
        <ele>1423</ele>
        <time>2014-07-31T10:55:00.240Z</time>
      </trkpt>
      <trkpt lat="44.93494" lon="6.81623">
        <ele>1423</ele>
        <time>2014-07-31T10:55:08.180Z</time>
      </trkpt>
      <trkpt lat="44.93493" lon="6.81622">
        <ele>1423</ele>
        <time>2014-07-31T10:55:17.250Z</time>
      </trkpt>
      <trkpt lat="44.93492" lon="6.81622">
        <ele>1423</ele>
        <time>2014-07-31T10:55:23.280Z</time>
      </trkpt>
      <trkpt lat="44.93491" lon="6.81622">
        <ele>1423</ele>
        <time>2014-07-31T10:55:29.180Z</time>
      </trkpt>
      <trkpt lat="44.93492" lon="6.81622">
        <ele>1423</ele>
        <time>2014-07-31T10:55:38.280Z</time>
      </trkpt>
      <trkpt lat="44.93493" lon="6.81622">
        <ele>1424</ele>
        <time>2014-07-31T10:55:58.180Z</time>
      </trkpt>
      <trkpt lat="44.93493" lon="6.81622">
        <ele>1424</ele>
        <time>2014-07-31T10:56:00.240Z</time>
      </trkpt>
      <trkpt lat="44.93492" lon="6.81621">
        <ele>1423</ele>
        <time>2014-07-31T10:56:14.180Z</time>
      </trkpt>
      <trkpt lat="44.93491" lon="6.81621">
        <ele>1423</ele>
        <time>2014-07-31T10:56:44.250Z</time>
      </trkpt>
      <trkpt lat="44.93492" lon="6.81621">
        <ele>1423</ele>
        <time>2014-07-31T10:56:57.180Z</time>
      </trkpt>
      <trkpt lat="44.93492" lon="6.81621">
        <ele>1423</ele>
        <time>2014-07-31T10:57:00.240Z</time>
      </trkpt>
      <trkpt lat="44.93493" lon="6.81622">
        <ele>1423</ele>
        <time>2014-07-31T10:57:24.180Z</time>
      </trkpt>
      <trkpt lat="44.93494" lon="6.81623">
        <ele>1423</ele>
        <time>2014-07-31T10:57:27.180Z</time>
      </trkpt>
      <trkpt lat="44.93495" lon="6.81623">
        <ele>1423</ele>
        <time>2014-07-31T10:57:29.280Z</time>
      </trkpt>
      <trkpt lat="44.93496" lon="6.81624">
        <ele>1423</ele>
        <time>2014-07-31T10:57:32.280Z</time>
      </trkpt>
      <trkpt lat="44.93497" lon="6.81625">
        <ele>1423</ele>
        <time>2014-07-31T10:57:39.280Z</time>
      </trkpt>
      <trkpt lat="44.93496" lon="6.81626">
        <ele>1423</ele>
        <time>2014-07-31T10:57:46.280Z</time>
      </trkpt>
      <trkpt lat="44.93497" lon="6.81627">
        <ele>1423</ele>
        <time>2014-07-31T10:57:53.280Z</time>
      </trkpt>
      <trkpt lat="44.93498" lon="6.81627">
        <ele>1423</ele>
        <time>2014-07-31T10:57:55.280Z</time>
      </trkpt>
      <trkpt lat="44.93499" lon="6.81626">
        <ele>1423</ele>
        <time>2014-07-31T10:58:01.180Z</time>
      </trkpt>
      <trkpt lat="44.93497" lon="6.81626">
        <ele>1423</ele>
        <time>2014-07-31T10:58:04.180Z</time>
      </trkpt>
      <trkpt lat="44.93496" lon="6.81625">
        <ele>1423</ele>
        <time>2014-07-31T10:58:05.180Z</time>
      </trkpt>
      <trkpt lat="44.93498" lon="6.81625">
        <ele>1423</ele>
        <time>2014-07-31T10:58:19.180Z</time>
      </trkpt>
      <trkpt lat="44.93499" lon="6.81626">
        <ele>1423</ele>
        <time>2014-07-31T10:58:24.180Z</time>
      </trkpt>
      <trkpt lat="44.93499" lon="6.81625">
        <ele>1424</ele>
        <time>2014-07-31T10:58:51.250Z</time>
      </trkpt>
      <trkpt lat="44.93498" lon="6.81624">
        <ele>1424</ele>
        <time>2014-07-31T10:58:57.280Z</time>
      </trkpt>
      <trkpt lat="44.93496" lon="6.81623">
        <ele>1424</ele>
        <time>2014-07-31T10:59:01.180Z</time>
      </trkpt>
      <trkpt lat="44.93495" lon="6.81623">
        <ele>1424</ele>
        <time>2014-07-31T10:59:12.280Z</time>
      </trkpt>
      <trkpt lat="44.93494" lon="6.81623">
        <ele>1424</ele>
        <time>2014-07-31T10:59:13.280Z</time>
      </trkpt>
      <trkpt lat="44.93492" lon="6.81621">
        <ele>1424</ele>
        <time>2014-07-31T10:59:15.180Z</time>
      </trkpt>
      <trkpt lat="44.93491" lon="6.81621">
        <ele>1424</ele>
        <time>2014-07-31T10:59:17.170Z</time>
      </trkpt>
      <trkpt lat="44.93491" lon="6.81622">
        <ele>1424</ele>
        <time>2014-07-31T10:59:26.180Z</time>
      </trkpt>
      <trkpt lat="44.93493" lon="6.81622">
        <ele>1422</ele>
        <time>2014-07-31T11:00:00.210Z</time>
      </trkpt>
      <trkpt lat="44.93494" lon="6.81622">
        <ele>1424</ele>
        <time>2014-07-31T11:00:20.180Z</time>
      </trkpt>
      <trkpt lat="44.93495" lon="6.81623">
        <ele>1424</ele>
        <time>2014-07-31T11:00:23.180Z</time>
      </trkpt>
      <trkpt lat="44.93494" lon="6.81623">
        <ele>1424</ele>
        <time>2014-07-31T11:00:35.180Z</time>
      </trkpt>
      <trkpt lat="44.93493" lon="6.81622">
        <ele>1424</ele>
        <time>2014-07-31T11:00:47.180Z</time>
      </trkpt>
      <trkpt lat="44.93493" lon="6.81621">
        <ele>1424</ele>
        <time>2014-07-31T11:01:00.240Z</time>
      </trkpt>
      <trkpt lat="44.93493" lon="6.81621">
        <ele>1424</ele>
        <time>2014-07-31T11:02:00.240Z</time>
      </trkpt>
      <trkpt lat="44.93493" lon="6.81622">
        <ele>1424</ele>
        <time>2014-07-31T11:02:06.180Z</time>
      </trkpt>
      <trkpt lat="44.93493" lon="6.81622">
        <ele>1424</ele>
        <time>2014-07-31T11:02:10.180Z</time>
      </trkpt>
      <trkpt lat="44.93492" lon="6.81622">
        <ele>1424</ele>
        <time>2014-07-31T11:02:15.280Z</time>
      </trkpt>
      <trkpt lat="44.93492" lon="6.81623">
        <ele>1424</ele>
        <time>2014-07-31T11:02:21.180Z</time>
      </trkpt>
      <trkpt lat="44.93491" lon="6.81622">
        <ele>1424</ele>
        <time>2014-07-31T11:02:24.250Z</time>
      </trkpt>
      <trkpt lat="44.93491" lon="6.81621">
        <ele>1424</ele>
        <time>2014-07-31T11:02:32.180Z</time>
      </trkpt>
      <trkpt lat="44.93492" lon="6.8162">
        <ele>1424</ele>
        <time>2014-07-31T11:02:34.250Z</time>
      </trkpt>
      <trkpt lat="44.93493" lon="6.81621">
        <ele>1424</ele>
        <time>2014-07-31T11:02:36.180Z</time>
      </trkpt>
      <trkpt lat="44.93492" lon="6.8162">
        <ele>1423</ele>
        <time>2014-07-31T11:02:46.180Z</time>
      </trkpt>
      <trkpt lat="44.93491" lon="6.8162">
        <ele>1424</ele>
        <time>2014-07-31T11:03:00.240Z</time>
      </trkpt>
      <trkpt lat="44.93493" lon="6.81621">
        <ele>1424</ele>
        <time>2014-07-31T11:03:16.180Z</time>
      </trkpt>
      <trkpt lat="44.93491" lon="6.81621">
        <ele>1424</ele>
        <time>2014-07-31T11:03:18.280Z</time>
      </trkpt>
      <trkpt lat="44.93492" lon="6.81621">
        <ele>1424</ele>
        <time>2014-07-31T11:03:29.280Z</time>
      </trkpt>
      <trkpt lat="44.93494" lon="6.81622">
        <ele>1424</ele>
        <time>2014-07-31T11:04:01.180Z</time>
      </trkpt>
      <trkpt lat="44.93495" lon="6.81622">
        <ele>1424</ele>
        <time>2014-07-31T11:04:02.180Z</time>
      </trkpt>
      <trkpt lat="44.93496" lon="6.81622">
        <ele>1424</ele>
        <time>2014-07-31T11:04:04.280Z</time>
      </trkpt>
      <trkpt lat="44.93495" lon="6.81622">
        <ele>1424</ele>
        <time>2014-07-31T11:04:28.280Z</time>
      </trkpt>
      <trkpt lat="44.93494" lon="6.81622">
        <ele>1424</ele>
        <time>2014-07-31T11:05:01.180Z</time>
      </trkpt>
      <trkpt lat="44.93496" lon="6.81622">
        <ele>1424</ele>
        <time>2014-07-31T11:05:26.280Z</time>
      </trkpt>
      <trkpt lat="44.93497" lon="6.81623">
        <ele>1424</ele>
        <time>2014-07-31T11:05:27.280Z</time>
      </trkpt>
      <trkpt lat="44.93495" lon="6.81626">
        <ele>1424</ele>
        <time>2014-07-31T11:05:32.180Z</time>
      </trkpt>
      <trkpt lat="44.93494" lon="6.81626">
        <ele>1424</ele>
        <time>2014-07-31T11:05:35.180Z</time>
      </trkpt>
      <trkpt lat="44.93493" lon="6.81626">
        <ele>1424</ele>
        <time>2014-07-31T11:05:54.270Z</time>
      </trkpt>
      <trkpt lat="44.93492" lon="6.81626">
        <ele>1424</ele>
        <time>2014-07-31T11:06:01.180Z</time>
      </trkpt>
      <trkpt lat="44.93491" lon="6.81627">
        <ele>1424</ele>
        <time>2014-07-31T11:06:04.180Z</time>
      </trkpt>
      <trkpt lat="44.93489" lon="6.81627">
        <ele>1424</ele>
        <time>2014-07-31T11:06:06.280Z</time>
      </trkpt>
      <trkpt lat="44.93487" lon="6.81627">
        <ele>1424</ele>
        <time>2014-07-31T11:06:08.280Z</time>
      </trkpt>
      <trkpt lat="44.93486" lon="6.81627">
        <ele>1424</ele>
        <time>2014-07-31T11:06:09.280Z</time>
      </trkpt>
      <trkpt lat="44.93485" lon="6.81626">
        <ele>1424</ele>
        <time>2014-07-31T11:06:11.280Z</time>
      </trkpt>
      <trkpt lat="44.93486" lon="6.81625">
        <ele>1424</ele>
        <time>2014-07-31T11:06:18.180Z</time>
      </trkpt>
      <trkpt lat="44.93486" lon="6.81624">
        <ele>1424</ele>
        <time>2014-07-31T11:06:22.190Z</time>
      </trkpt>
      <trkpt lat="44.93485" lon="6.81623">
        <ele>1423</ele>
        <time>2014-07-31T11:06:26.280Z</time>
      </trkpt>
      <trkpt lat="44.93484" lon="6.81622">
        <ele>1423</ele>
        <time>2014-07-31T11:06:31.280Z</time>
      </trkpt>
      <trkpt lat="44.93485" lon="6.81622">
        <ele>1423.7</ele>
        <time>2014-07-31T11:06:35.270Z</time>
      </trkpt>
      <trkpt lat="44.93486" lon="6.81621">
        <ele>1424</ele>
        <time>2014-07-31T11:06:41.180Z</time>
      </trkpt>
      <trkpt lat="44.93486" lon="6.81621">
        <ele>1424</ele>
        <time>2014-07-31T11:07:00.150Z</time>
      </trkpt>
      <trkpt lat="44.93487" lon="6.81621">
        <ele>1424</ele>
        <time>2014-07-31T11:07:34.210Z</time>
      </trkpt>
      <trkpt lat="44.93489" lon="6.81621">
        <ele>1424</ele>
        <time>2014-07-31T11:07:37.280Z</time>
      </trkpt>
      <trkpt lat="44.9349" lon="6.81621">
        <ele>1424</ele>
        <time>2014-07-31T11:07:38.280Z</time>
      </trkpt>
      <trkpt lat="44.93492" lon="6.81621">
        <ele>1424</ele>
        <time>2014-07-31T11:07:41.280Z</time>
      </trkpt>
      <trkpt lat="44.93493" lon="6.81622">
        <ele>1424</ele>
        <time>2014-07-31T11:07:49.180Z</time>
      </trkpt>
      <trkpt lat="44.93494" lon="6.81623">
        <ele>1424</ele>
        <time>2014-07-31T11:07:50.180Z</time>
      </trkpt>
      <trkpt lat="44.93495" lon="6.81622">
        <ele>1424</ele>
        <time>2014-07-31T11:07:51.240Z</time>
      </trkpt>
      <trkpt lat="44.93495" lon="6.81622">
        <ele>1424</ele>
        <time>2014-07-31T11:08:01.180Z</time>
      </trkpt>
      <trkpt lat="44.93496" lon="6.81623">
        <ele>1424</ele>
        <time>2014-07-31T11:08:14.180Z</time>
      </trkpt>
      <trkpt lat="44.93498" lon="6.81623">
        <ele>1424</ele>
        <time>2014-07-31T11:08:16.180Z</time>
      </trkpt>
      <trkpt lat="44.93499" lon="6.81623">
        <ele>1424</ele>
        <time>2014-07-31T11:08:22.180Z</time>
      </trkpt>
      <trkpt lat="44.93501" lon="6.81623">
        <ele>1424</ele>
        <time>2014-07-31T11:08:23.180Z</time>
      </trkpt>
      <trkpt lat="44.93503" lon="6.81624">
        <ele>1424</ele>
        <time>2014-07-31T11:08:24.180Z</time>
      </trkpt>
      <trkpt lat="44.93505" lon="6.81624">
        <ele>1424</ele>
        <time>2014-07-31T11:08:25.180Z</time>
      </trkpt>
      <trkpt lat="44.93503" lon="6.81623">
        <ele>1424</ele>
        <time>2014-07-31T11:08:29.280Z</time>
      </trkpt>
      <trkpt lat="44.93502" lon="6.81623">
        <ele>1424</ele>
        <time>2014-07-31T11:08:31.280Z</time>
      </trkpt>
      <trkpt lat="44.93501" lon="6.81623">
        <ele>1424</ele>
        <time>2014-07-31T11:08:32.280Z</time>
      </trkpt>
      <trkpt lat="44.93499" lon="6.81623">
        <ele>1424</ele>
        <time>2014-07-31T11:08:35.180Z</time>
      </trkpt>
      <trkpt lat="44.93501" lon="6.81623">
        <ele>1424</ele>
        <time>2014-07-31T11:08:36.180Z</time>
      </trkpt>
      <trkpt lat="44.93503" lon="6.81624">
        <ele>1424</ele>
        <time>2014-07-31T11:08:37.180Z</time>
      </trkpt>
      <trkpt lat="44.93504" lon="6.81624">
        <ele>1424</ele>
        <time>2014-07-31T11:08:39.280Z</time>
      </trkpt>
      <trkpt lat="44.93502" lon="6.81623">
        <ele>1422.8</ele>
        <time>2014-07-31T11:08:45.180Z</time>
      </trkpt>
      <trkpt lat="44.93501" lon="6.81622">
        <ele>1422</ele>
        <time>2014-07-31T11:08:47.180Z</time>
      </trkpt>
      <trkpt lat="44.935" lon="6.81622">
        <ele>1422</ele>
        <time>2014-07-31T11:08:49.180Z</time>
      </trkpt>
      <trkpt lat="44.93501" lon="6.81622">
        <ele>1422</ele>
        <time>2014-07-31T11:08:51.240Z</time>
      </trkpt>
      <trkpt lat="44.93502" lon="6.81622">
        <ele>1422</ele>
        <time>2014-07-31T11:08:53.280Z</time>
      </trkpt>
      <trkpt lat="44.93501" lon="6.81623">
        <ele>1423</ele>
        <time>2014-07-31T11:09:01.180Z</time>
      </trkpt>
      <trkpt lat="44.93499" lon="6.81623">
        <ele>1423</ele>
        <time>2014-07-31T11:09:02.180Z</time>
      </trkpt>
      <trkpt lat="44.93501" lon="6.81624">
        <ele>1423</ele>
        <time>2014-07-31T11:09:04.180Z</time>
      </trkpt>
      <trkpt lat="44.93499" lon="6.81623">
        <ele>1424</ele>
        <time>2014-07-31T11:09:35.280Z</time>
      </trkpt>
      <trkpt lat="44.93499" lon="6.81623">
        <ele>1424</ele>
        <time>2014-07-31T11:10:00.240Z</time>
      </trkpt>
      <trkpt lat="44.93498" lon="6.81622">
        <ele>1424</ele>
        <time>2014-07-31T11:10:04.280Z</time>
      </trkpt>
      <trkpt lat="44.93499" lon="6.81622">
        <ele>1424</ele>
        <time>2014-07-31T11:10:14.180Z</time>
      </trkpt>
      <trkpt lat="44.93498" lon="6.81623">
        <ele>1423</ele>
        <time>2014-07-31T11:10:17.240Z</time>
      </trkpt>
      <trkpt lat="44.93499" lon="6.81625">
        <ele>1423</ele>
        <time>2014-07-31T11:10:19.280Z</time>
      </trkpt>
      <trkpt lat="44.935" lon="6.81626">
        <ele>1423</ele>
        <time>2014-07-31T11:10:21.180Z</time>
      </trkpt>
      <trkpt lat="44.93499" lon="6.81626">
        <ele>1423</ele>
        <time>2014-07-31T11:10:22.180Z</time>
      </trkpt>
      <trkpt lat="44.93499" lon="6.81628">
        <ele>1423</ele>
        <time>2014-07-31T11:10:24.180Z</time>
      </trkpt>
      <trkpt lat="44.93499" lon="6.81629">
        <ele>1424</ele>
        <time>2014-07-31T11:10:26.180Z</time>
      </trkpt>
      <trkpt lat="44.93496" lon="6.81629">
        <ele>1424</ele>
        <time>2014-07-31T11:10:30.180Z</time>
      </trkpt>
      <trkpt lat="44.93495" lon="6.81629">
        <ele>1424</ele>
        <time>2014-07-31T11:10:32.180Z</time>
      </trkpt>
      <trkpt lat="44.93494" lon="6.81627">
        <ele>1424</ele>
        <time>2014-07-31T11:10:38.180Z</time>
      </trkpt>
      <trkpt lat="44.93493" lon="6.81627">
        <ele>1424</ele>
        <time>2014-07-31T11:10:39.180Z</time>
      </trkpt>
      <trkpt lat="44.93492" lon="6.81627">
        <ele>1424</ele>
        <time>2014-07-31T11:10:41.180Z</time>
      </trkpt>
      <trkpt lat="44.93491" lon="6.81628">
        <ele>1424</ele>
        <time>2014-07-31T11:10:44.180Z</time>
      </trkpt>
      <trkpt lat="44.9349" lon="6.81627">
        <ele>1424</ele>
        <time>2014-07-31T11:10:46.180Z</time>
      </trkpt>
      <trkpt lat="44.93489" lon="6.81627">
        <ele>1425</ele>
        <time>2014-07-31T11:11:00.180Z</time>
      </trkpt>
      <trkpt lat="44.93489" lon="6.81627">
        <ele>1425</ele>
        <time>2014-07-31T11:11:05.180Z</time>
      </trkpt>
      <trkpt lat="44.93487" lon="6.81626">
        <ele>1425</ele>
        <time>2014-07-31T11:11:12.180Z</time>
      </trkpt>
      <trkpt lat="44.93486" lon="6.81626">
        <ele>1425</ele>
        <time>2014-07-31T11:11:14.280Z</time>
      </trkpt>
      <trkpt lat="44.93486" lon="6.81624">
        <ele>1425</ele>
        <time>2014-07-31T11:11:17.230Z</time>
      </trkpt>
      <trkpt lat="44.93485" lon="6.81622">
        <ele>1425</ele>
        <time>2014-07-31T11:11:20.280Z</time>
      </trkpt>
      <trkpt lat="44.93485" lon="6.81621">
        <ele>1425</ele>
        <time>2014-07-31T11:11:22.280Z</time>
      </trkpt>
      <trkpt lat="44.93483" lon="6.8162">
        <ele>1425</ele>
        <time>2014-07-31T11:11:24.180Z</time>
      </trkpt>
      <trkpt lat="44.93482" lon="6.81619">
        <ele>1425</ele>
        <time>2014-07-31T11:11:26.180Z</time>
      </trkpt>
      <trkpt lat="44.93481" lon="6.81619">
        <ele>1425</ele>
        <time>2014-07-31T11:11:27.270Z</time>
      </trkpt>
      <trkpt lat="44.9348" lon="6.8162">
        <ele>1425</ele>
        <time>2014-07-31T11:11:28.250Z</time>
      </trkpt>
      <trkpt lat="44.93479" lon="6.81621">
        <ele>1425</ele>
        <time>2014-07-31T11:11:29.280Z</time>
      </trkpt>
      <trkpt lat="44.93481" lon="6.81621">
        <ele>1425</ele>
        <time>2014-07-31T11:11:32.280Z</time>
      </trkpt>
      <trkpt lat="44.93482" lon="6.81621">
        <ele>1424</ele>
        <time>2014-07-31T11:11:38.280Z</time>
      </trkpt>
      <trkpt lat="44.93483" lon="6.81621">
        <ele>1424</ele>
        <time>2014-07-31T11:11:42.180Z</time>
      </trkpt>
      <trkpt lat="44.93484" lon="6.81621">
        <ele>1424</ele>
        <time>2014-07-31T11:11:44.180Z</time>
      </trkpt>
      <trkpt lat="44.93486" lon="6.81619">
        <ele>1424</ele>
        <time>2014-07-31T11:11:46.280Z</time>
      </trkpt>
      <trkpt lat="44.93487" lon="6.8162">
        <ele>1424</ele>
        <time>2014-07-31T11:11:48.180Z</time>
      </trkpt>
      <trkpt lat="44.93486" lon="6.8162">
        <ele>1424</ele>
        <time>2014-07-31T11:11:54.280Z</time>
      </trkpt>
      <trkpt lat="44.93487" lon="6.81621">
        <ele>1425</ele>
        <time>2014-07-31T11:11:56.280Z</time>
      </trkpt>
      <trkpt lat="44.93485" lon="6.81622">
        <ele>1425</ele>
        <time>2014-07-31T11:11:58.280Z</time>
      </trkpt>
      <trkpt lat="44.93485" lon="6.81622">
        <ele>1425</ele>
        <time>2014-07-31T11:12:00.180Z</time>
      </trkpt>
      <trkpt lat="44.93484" lon="6.81622">
        <ele>1425</ele>
        <time>2014-07-31T11:12:05.280Z</time>
      </trkpt>
      <trkpt lat="44.93485" lon="6.81623">
        <ele>1425</ele>
        <time>2014-07-31T11:12:13.280Z</time>
      </trkpt>
      <trkpt lat="44.93487" lon="6.8162">
        <ele>1425</ele>
        <time>2014-07-31T11:12:21.280Z</time>
      </trkpt>
      <trkpt lat="44.93486" lon="6.81617">
        <ele>1425</ele>
        <time>2014-07-31T11:12:24.180Z</time>
      </trkpt>
      <trkpt lat="44.93485" lon="6.81617">
        <ele>1425</ele>
        <time>2014-07-31T11:12:27.180Z</time>
      </trkpt>
      <trkpt lat="44.93486" lon="6.81616">
        <ele>1425</ele>
        <time>2014-07-31T11:12:32.280Z</time>
      </trkpt>
      <trkpt lat="44.93485" lon="6.81615">
        <ele>1425</ele>
        <time>2014-07-31T11:12:34.240Z</time>
      </trkpt>
      <trkpt lat="44.93484" lon="6.81617">
        <ele>1424</ele>
        <time>2014-07-31T11:12:37.180Z</time>
      </trkpt>
      <trkpt lat="44.93484" lon="6.81619">
        <ele>1424</ele>
        <time>2014-07-31T11:12:39.180Z</time>
      </trkpt>
      <trkpt lat="44.93484" lon="6.81619">
        <ele>1424</ele>
        <time>2014-07-31T11:13:01.180Z</time>
      </trkpt>
      <trkpt lat="44.93483" lon="6.8162">
        <ele>1424</ele>
        <time>2014-07-31T11:13:18.280Z</time>
      </trkpt>
      <trkpt lat="44.93483" lon="6.81622">
        <ele>1424</ele>
        <time>2014-07-31T11:13:38.280Z</time>
      </trkpt>
      <trkpt lat="44.93482" lon="6.81624">
        <ele>1424</ele>
        <time>2014-07-31T11:13:39.280Z</time>
      </trkpt>
      <trkpt lat="44.93483" lon="6.81625">
        <ele>1424</ele>
        <time>2014-07-31T11:13:41.280Z</time>
      </trkpt>
      <trkpt lat="44.93485" lon="6.81625">
        <ele>1424</ele>
        <time>2014-07-31T11:13:43.280Z</time>
      </trkpt>
      <trkpt lat="44.93485" lon="6.81622">
        <ele>1424</ele>
        <time>2014-07-31T11:13:45.180Z</time>
      </trkpt>
      <trkpt lat="44.93485" lon="6.8162">
        <ele>1424</ele>
        <time>2014-07-31T11:13:47.270Z</time>
      </trkpt>
      <trkpt lat="44.93484" lon="6.81619">
        <ele>1424</ele>
        <time>2014-07-31T11:13:49.280Z</time>
      </trkpt>
      <trkpt lat="44.93484" lon="6.81619">
        <ele>1425</ele>
        <time>2014-07-31T11:14:01.270Z</time>
      </trkpt>
      <trkpt lat="44.93484" lon="6.81619">
        <ele>1425</ele>
        <time>2014-07-31T11:15:01.180Z</time>
      </trkpt>
      <trkpt lat="44.93484" lon="6.81619">
        <ele>1425</ele>
        <time>2014-07-31T11:16:01.180Z</time>
      </trkpt>
      <trkpt lat="44.93484" lon="6.81619">
        <ele>1424</ele>
        <time>2014-07-31T11:17:00.240Z</time>
      </trkpt>
      <trkpt lat="44.93483" lon="6.81619">
        <ele>1424</ele>
        <time>2014-07-31T11:18:01.280Z</time>
      </trkpt>
      <trkpt lat="44.93483" lon="6.8162">
        <ele>1424</ele>
        <time>2014-07-31T11:18:04.280Z</time>
      </trkpt>
      <trkpt lat="44.93482" lon="6.81622">
        <ele>1425</ele>
        <time>2014-07-31T11:18:24.180Z</time>
      </trkpt>
      <trkpt lat="44.93482" lon="6.81624">
        <ele>1424</ele>
        <time>2014-07-31T11:18:37.280Z</time>
      </trkpt>
      <trkpt lat="44.93482" lon="6.81627">
        <ele>1424</ele>
        <time>2014-07-31T11:18:39.280Z</time>
      </trkpt>
      <trkpt lat="44.93483" lon="6.81628">
        <ele>1424</ele>
        <time>2014-07-31T11:18:40.280Z</time>
      </trkpt>
      <trkpt lat="44.93483" lon="6.8163">
        <ele>1424</ele>
        <time>2014-07-31T11:18:41.280Z</time>
      </trkpt>
      <trkpt lat="44.93482" lon="6.81632">
        <ele>1424</ele>
        <time>2014-07-31T11:18:42.280Z</time>
      </trkpt>
      <trkpt lat="44.93482" lon="6.81634">
        <ele>1424</ele>
        <time>2014-07-31T11:18:43.280Z</time>
      </trkpt>
      <trkpt lat="44.93483" lon="6.81636">
        <ele>1424</ele>
        <time>2014-07-31T11:18:44.280Z</time>
      </trkpt>
      <trkpt lat="44.93483" lon="6.81642">
        <ele>1424</ele>
        <time>2014-07-31T11:18:46.270Z</time>
      </trkpt>
      <trkpt lat="44.93482" lon="6.81645">
        <ele>1424</ele>
        <time>2014-07-31T11:18:47.280Z</time>
      </trkpt>
      <trkpt lat="44.93481" lon="6.81652">
        <ele>1424</ele>
        <time>2014-07-31T11:18:49.180Z</time>
      </trkpt>
      <trkpt lat="44.9348" lon="6.81656">
        <ele>1424</ele>
        <time>2014-07-31T11:18:50.250Z</time>
      </trkpt>
      <trkpt lat="44.93479" lon="6.81663">
        <ele>1424</ele>
        <time>2014-07-31T11:18:52.180Z</time>
      </trkpt>
      <trkpt lat="44.93478" lon="6.81667">
        <ele>1424</ele>
        <time>2014-07-31T11:18:53.180Z</time>
      </trkpt>
      <trkpt lat="44.93476" lon="6.81672">
        <ele>1424</ele>
        <time>2014-07-31T11:18:54.180Z</time>
      </trkpt>
      <trkpt lat="44.93475" lon="6.81675">
        <ele>1424</ele>
        <time>2014-07-31T11:18:55.180Z</time>
      </trkpt>
      <trkpt lat="44.93474" lon="6.81679">
        <ele>1424</ele>
        <time>2014-07-31T11:18:56.180Z</time>
      </trkpt>
      <trkpt lat="44.93473" lon="6.81683">
        <ele>1424</ele>
        <time>2014-07-31T11:18:57.180Z</time>
      </trkpt>
      <trkpt lat="44.93471" lon="6.81686">
        <ele>1424</ele>
        <time>2014-07-31T11:18:58.180Z</time>
      </trkpt>
      <trkpt lat="44.93469" lon="6.81688">
        <ele>1424</ele>
        <time>2014-07-31T11:18:59.180Z</time>
      </trkpt>
      <trkpt lat="44.93468" lon="6.81692">
        <ele>1424</ele>
        <time>2014-07-31T11:19:00.240Z</time>
      </trkpt>
      <trkpt lat="44.93466" lon="6.81696">
        <ele>1424</ele>
        <time>2014-07-31T11:19:01.280Z</time>
      </trkpt>
      <trkpt lat="44.93465" lon="6.817">
        <ele>1424</ele>
        <time>2014-07-31T11:19:02.280Z</time>
      </trkpt>
      <trkpt lat="44.93464" lon="6.81703">
        <ele>1424</ele>
        <time>2014-07-31T11:19:03.280Z</time>
      </trkpt>
      <trkpt lat="44.93462" lon="6.81707">
        <ele>1424</ele>
        <time>2014-07-31T11:19:04.280Z</time>
      </trkpt>
      <trkpt lat="44.93461" lon="6.81711">
        <ele>1425.4</ele>
        <time>2014-07-31T11:19:05.280Z</time>
      </trkpt>
      <trkpt lat="44.9346" lon="6.81714">
        <ele>1426</ele>
        <time>2014-07-31T11:19:06.280Z</time>
      </trkpt>
      <trkpt lat="44.93457" lon="6.8172">
        <ele>1426</ele>
        <time>2014-07-31T11:19:08.280Z</time>
      </trkpt>
      <trkpt lat="44.93455" lon="6.81723">
        <ele>1426</ele>
        <time>2014-07-31T11:19:09.280Z</time>
      </trkpt>
      <trkpt lat="44.93452" lon="6.81728">
        <ele>1426</ele>
        <time>2014-07-31T11:19:11.180Z</time>
      </trkpt>
      <trkpt lat="44.9345" lon="6.8173">
        <ele>1426</ele>
        <time>2014-07-31T11:19:12.180Z</time>
      </trkpt>
      <trkpt lat="44.93448" lon="6.81732">
        <ele>1426</ele>
        <time>2014-07-31T11:19:13.280Z</time>
      </trkpt>
      <trkpt lat="44.93447" lon="6.81735">
        <ele>1427.4</ele>
        <time>2014-07-31T11:19:15.280Z</time>
      </trkpt>
      <trkpt lat="44.93446" lon="6.81737">
        <ele>1428</ele>
        <time>2014-07-31T11:19:16.180Z</time>
      </trkpt>
      <trkpt lat="44.93444" lon="6.81738">
        <ele>1428</ele>
        <time>2014-07-31T11:19:17.240Z</time>
      </trkpt>
      <trkpt lat="44.93442" lon="6.81739">
        <ele>1428</ele>
        <time>2014-07-31T11:19:18.270Z</time>
      </trkpt>
      <trkpt lat="44.93439" lon="6.8174">
        <ele>1428</ele>
        <time>2014-07-31T11:19:19.280Z</time>
      </trkpt>
      <trkpt lat="44.93438" lon="6.81742">
        <ele>1428</ele>
        <time>2014-07-31T11:19:20.280Z</time>
      </trkpt>
      <trkpt lat="44.93434" lon="6.81748">
        <ele>1428</ele>
        <time>2014-07-31T11:19:22.180Z</time>
      </trkpt>
      <trkpt lat="44.93432" lon="6.81751">
        <ele>1428</ele>
        <time>2014-07-31T11:19:23.280Z</time>
      </trkpt>
      <trkpt lat="44.93428" lon="6.81758">
        <ele>1428.6</ele>
        <time>2014-07-31T11:19:25.180Z</time>
      </trkpt>
      <trkpt lat="44.93426" lon="6.81762">
        <ele>1429</ele>
        <time>2014-07-31T11:19:26.180Z</time>
      </trkpt>
      <trkpt lat="44.93424" lon="6.81766">
        <ele>1429</ele>
        <time>2014-07-31T11:19:27.180Z</time>
      </trkpt>
      <trkpt lat="44.93421" lon="6.81769">
        <ele>1429</ele>
        <time>2014-07-31T11:19:28.280Z</time>
      </trkpt>
      <trkpt lat="44.93416" lon="6.81775">
        <ele>1429</ele>
        <time>2014-07-31T11:19:30.180Z</time>
      </trkpt>
      <trkpt lat="44.93414" lon="6.81778">
        <ele>1429</ele>
        <time>2014-07-31T11:19:31.180Z</time>
      </trkpt>
      <trkpt lat="44.93411" lon="6.81781">
        <ele>1429</ele>
        <time>2014-07-31T11:19:32.180Z</time>
      </trkpt>
      <trkpt lat="44.93408" lon="6.81784">
        <ele>1429</ele>
        <time>2014-07-31T11:19:33.280Z</time>
      </trkpt>
      <trkpt lat="44.93403" lon="6.8179">
        <ele>1429</ele>
        <time>2014-07-31T11:19:35.180Z</time>
      </trkpt>
      <trkpt lat="44.93401" lon="6.81794">
        <ele>1429</ele>
        <time>2014-07-31T11:19:36.180Z</time>
      </trkpt>
      <trkpt lat="44.93399" lon="6.81798">
        <ele>1429</ele>
        <time>2014-07-31T11:19:37.180Z</time>
      </trkpt>
      <trkpt lat="44.93397" lon="6.81803">
        <ele>1429</ele>
        <time>2014-07-31T11:19:38.280Z</time>
      </trkpt>
      <trkpt lat="44.93397" lon="6.81807">
        <ele>1429</ele>
        <time>2014-07-31T11:19:39.280Z</time>
      </trkpt>
      <trkpt lat="44.93395" lon="6.81816">
        <ele>1429</ele>
        <time>2014-07-31T11:19:41.210Z</time>
      </trkpt>
      <trkpt lat="44.93394" lon="6.81825">
        <ele>1429</ele>
        <time>2014-07-31T11:19:43.180Z</time>
      </trkpt>
      <trkpt lat="44.93394" lon="6.8183">
        <ele>1429</ele>
        <time>2014-07-31T11:19:44.240Z</time>
      </trkpt>
      <trkpt lat="44.93393" lon="6.81835">
        <ele>1429.6</ele>
        <time>2014-07-31T11:19:45.180Z</time>
      </trkpt>
      <trkpt lat="44.93393" lon="6.8184">
        <ele>1430</ele>
        <time>2014-07-31T11:19:46.180Z</time>
      </trkpt>
      <trkpt lat="44.93393" lon="6.81844">
        <ele>1430</ele>
        <time>2014-07-31T11:19:47.180Z</time>
      </trkpt>
      <trkpt lat="44.93393" lon="6.81849">
        <ele>1430</ele>
        <time>2014-07-31T11:19:48.180Z</time>
      </trkpt>
      <trkpt lat="44.93393" lon="6.81854">
        <ele>1430</ele>
        <time>2014-07-31T11:19:49.180Z</time>
      </trkpt>
      <trkpt lat="44.93393" lon="6.81859">
        <ele>1430</ele>
        <time>2014-07-31T11:19:50.180Z</time>
      </trkpt>
      <trkpt lat="44.93392" lon="6.81864">
        <ele>1430</ele>
        <time>2014-07-31T11:19:51.240Z</time>
      </trkpt>
      <trkpt lat="44.93392" lon="6.81869">
        <ele>1430</ele>
        <time>2014-07-31T11:19:52.270Z</time>
      </trkpt>
      <trkpt lat="44.93391" lon="6.81878">
        <ele>1430</ele>
        <time>2014-07-31T11:19:54.180Z</time>
      </trkpt>
      <trkpt lat="44.93391" lon="6.81883">
        <ele>1431.2</ele>
        <time>2014-07-31T11:19:55.180Z</time>
      </trkpt>
      <trkpt lat="44.9339" lon="6.81888">
        <ele>1432</ele>
        <time>2014-07-31T11:19:56.180Z</time>
      </trkpt>
      <trkpt lat="44.9339" lon="6.81892">
        <ele>1432</ele>
        <time>2014-07-31T11:19:57.180Z</time>
      </trkpt>
      <trkpt lat="44.93389" lon="6.81897">
        <ele>1432</ele>
        <time>2014-07-31T11:19:58.250Z</time>
      </trkpt>
      <trkpt lat="44.93389" lon="6.81902">
        <ele>1432</ele>
        <time>2014-07-31T11:19:59.280Z</time>
      </trkpt>
      <trkpt lat="44.93388" lon="6.81911">
        <ele>1432</ele>
        <time>2014-07-31T11:20:01.180Z</time>
      </trkpt>
      <trkpt lat="44.93388" lon="6.81915">
        <ele>1432</ele>
        <time>2014-07-31T11:20:02.270Z</time>
      </trkpt>
      <trkpt lat="44.93388" lon="6.8192">
        <ele>1432</ele>
        <time>2014-07-31T11:20:03.280Z</time>
      </trkpt>
      <trkpt lat="44.93387" lon="6.81925">
        <ele>1432</ele>
        <time>2014-07-31T11:20:04.280Z</time>
      </trkpt>
      <trkpt lat="44.93386" lon="6.81929">
        <ele>1432.7</ele>
        <time>2014-07-31T11:20:05.280Z</time>
      </trkpt>
      <trkpt lat="44.93385" lon="6.81934">
        <ele>1433</ele>
        <time>2014-07-31T11:20:06.280Z</time>
      </trkpt>
      <trkpt lat="44.93383" lon="6.81938">
        <ele>1433</ele>
        <time>2014-07-31T11:20:07.280Z</time>
      </trkpt>
      <trkpt lat="44.93382" lon="6.81943">
        <ele>1433</ele>
        <time>2014-07-31T11:20:08.280Z</time>
      </trkpt>
      <trkpt lat="44.9338" lon="6.81947">
        <ele>1433</ele>
        <time>2014-07-31T11:20:09.280Z</time>
      </trkpt>
      <trkpt lat="44.93378" lon="6.81951">
        <ele>1433</ele>
        <time>2014-07-31T11:20:10.280Z</time>
      </trkpt>
      <trkpt lat="44.93377" lon="6.81955">
        <ele>1433</ele>
        <time>2014-07-31T11:20:11.280Z</time>
      </trkpt>
      <trkpt lat="44.93375" lon="6.8196">
        <ele>1433</ele>
        <time>2014-07-31T11:20:12.280Z</time>
      </trkpt>
      <trkpt lat="44.93373" lon="6.81964">
        <ele>1433</ele>
        <time>2014-07-31T11:20:13.280Z</time>
      </trkpt>
      <trkpt lat="44.9337" lon="6.81968">
        <ele>1433</ele>
        <time>2014-07-31T11:20:14.280Z</time>
      </trkpt>
      <trkpt lat="44.93363" lon="6.81975">
        <ele>1434</ele>
        <time>2014-07-31T11:20:16.180Z</time>
      </trkpt>
      <trkpt lat="44.9336" lon="6.81978">
        <ele>1434</ele>
        <time>2014-07-31T11:20:17.180Z</time>
      </trkpt>
      <trkpt lat="44.93354" lon="6.81984">
        <ele>1434</ele>
        <time>2014-07-31T11:20:19.180Z</time>
      </trkpt>
      <trkpt lat="44.93351" lon="6.81987">
        <ele>1434</ele>
        <time>2014-07-31T11:20:20.180Z</time>
      </trkpt>
      <trkpt lat="44.93348" lon="6.8199">
        <ele>1434</ele>
        <time>2014-07-31T11:20:21.180Z</time>
      </trkpt>
      <trkpt lat="44.93345" lon="6.81993">
        <ele>1434</ele>
        <time>2014-07-31T11:20:22.180Z</time>
      </trkpt>
      <trkpt lat="44.93342" lon="6.81995">
        <ele>1434</ele>
        <time>2014-07-31T11:20:23.180Z</time>
      </trkpt>
      <trkpt lat="44.93339" lon="6.81998">
        <ele>1434</ele>
        <time>2014-07-31T11:20:24.270Z</time>
      </trkpt>
      <trkpt lat="44.93337" lon="6.82001">
        <ele>1434.7</ele>
        <time>2014-07-31T11:20:25.280Z</time>
      </trkpt>
      <trkpt lat="44.93335" lon="6.82005">
        <ele>1435</ele>
        <time>2014-07-31T11:20:26.280Z</time>
      </trkpt>
      <trkpt lat="44.93332" lon="6.82008">
        <ele>1435</ele>
        <time>2014-07-31T11:20:27.280Z</time>
      </trkpt>
      <trkpt lat="44.93328" lon="6.82015">
        <ele>1435</ele>
        <time>2014-07-31T11:20:29.180Z</time>
      </trkpt>
      <trkpt lat="44.93326" lon="6.82019">
        <ele>1435</ele>
        <time>2014-07-31T11:20:30.180Z</time>
      </trkpt>
      <trkpt lat="44.93324" lon="6.82023">
        <ele>1435</ele>
        <time>2014-07-31T11:20:31.180Z</time>
      </trkpt>
      <trkpt lat="44.93323" lon="6.82027">
        <ele>1435</ele>
        <time>2014-07-31T11:20:32.250Z</time>
      </trkpt>
      <trkpt lat="44.93321" lon="6.82031">
        <ele>1435</ele>
        <time>2014-07-31T11:20:33.280Z</time>
      </trkpt>
      <trkpt lat="44.93319" lon="6.82038">
        <ele>1435.6</ele>
        <time>2014-07-31T11:20:35.180Z</time>
      </trkpt>
      <trkpt lat="44.93319" lon="6.82047">
        <ele>1436</ele>
        <time>2014-07-31T11:20:37.180Z</time>
      </trkpt>
      <trkpt lat="44.93319" lon="6.82052">
        <ele>1436</ele>
        <time>2014-07-31T11:20:38.280Z</time>
      </trkpt>
      <trkpt lat="44.93319" lon="6.82057">
        <ele>1436</ele>
        <time>2014-07-31T11:20:39.280Z</time>
      </trkpt>
      <trkpt lat="44.93319" lon="6.82062">
        <ele>1436</ele>
        <time>2014-07-31T11:20:40.280Z</time>
      </trkpt>
      <trkpt lat="44.93319" lon="6.82067">
        <ele>1436</ele>
        <time>2014-07-31T11:20:41.280Z</time>
      </trkpt>
      <trkpt lat="44.9332" lon="6.82072">
        <ele>1436</ele>
        <time>2014-07-31T11:20:42.280Z</time>
      </trkpt>
      <trkpt lat="44.9332" lon="6.82082">
        <ele>1436</ele>
        <time>2014-07-31T11:20:44.180Z</time>
      </trkpt>
      <trkpt lat="44.9332" lon="6.82088">
        <ele>1436</ele>
        <time>2014-07-31T11:20:45.180Z</time>
      </trkpt>
      <trkpt lat="44.9332" lon="6.82094">
        <ele>1436</ele>
        <time>2014-07-31T11:20:46.180Z</time>
      </trkpt>
      <trkpt lat="44.9332" lon="6.821">
        <ele>1436</ele>
        <time>2014-07-31T11:20:47.270Z</time>
      </trkpt>
      <trkpt lat="44.93319" lon="6.82114">
        <ele>1436</ele>
        <time>2014-07-31T11:20:49.250Z</time>
      </trkpt>
      <trkpt lat="44.9332" lon="6.82121">
        <ele>1436</ele>
        <time>2014-07-31T11:20:50.280Z</time>
      </trkpt>
      <trkpt lat="44.93321" lon="6.82136">
        <ele>1436</ele>
        <time>2014-07-31T11:20:52.180Z</time>
      </trkpt>
      <trkpt lat="44.93321" lon="6.82144">
        <ele>1436</ele>
        <time>2014-07-31T11:20:53.280Z</time>
      </trkpt>
      <trkpt lat="44.93322" lon="6.82152">
        <ele>1436</ele>
        <time>2014-07-31T11:20:54.280Z</time>
      </trkpt>
      <trkpt lat="44.93322" lon="6.82159">
        <ele>1436</ele>
        <time>2014-07-31T11:20:55.280Z</time>
      </trkpt>
      <trkpt lat="44.93322" lon="6.82167">
        <ele>1436</ele>
        <time>2014-07-31T11:20:56.280Z</time>
      </trkpt>
      <trkpt lat="44.93322" lon="6.82174">
        <ele>1436</ele>
        <time>2014-07-31T11:20:57.280Z</time>
      </trkpt>
      <trkpt lat="44.93323" lon="6.82187">
        <ele>1436</ele>
        <time>2014-07-31T11:20:59.180Z</time>
      </trkpt>
      <trkpt lat="44.93323" lon="6.82192">
        <ele>1436</ele>
        <time>2014-07-31T11:21:00.240Z</time>
      </trkpt>
      <trkpt lat="44.93323" lon="6.82199">
        <ele>1436</ele>
        <time>2014-07-31T11:21:01.280Z</time>
      </trkpt>
      <trkpt lat="44.93323" lon="6.82205">
        <ele>1436</ele>
        <time>2014-07-31T11:21:02.280Z</time>
      </trkpt>
      <trkpt lat="44.93323" lon="6.82217">
        <ele>1436</ele>
        <time>2014-07-31T11:21:04.180Z</time>
      </trkpt>
      <trkpt lat="44.93323" lon="6.82224">
        <ele>1435.4</ele>
        <time>2014-07-31T11:21:05.180Z</time>
      </trkpt>
      <trkpt lat="44.93323" lon="6.8223">
        <ele>1435</ele>
        <time>2014-07-31T11:21:06.090Z</time>
      </trkpt>
      <trkpt lat="44.93324" lon="6.82235">
        <ele>1435</ele>
        <time>2014-07-31T11:21:07.180Z</time>
      </trkpt>
      <trkpt lat="44.93324" lon="6.82241">
        <ele>1435</ele>
        <time>2014-07-31T11:21:08.280Z</time>
      </trkpt>
      <trkpt lat="44.93323" lon="6.82247">
        <ele>1435</ele>
        <time>2014-07-31T11:21:09.280Z</time>
      </trkpt>
      <trkpt lat="44.93323" lon="6.82253">
        <ele>1435</ele>
        <time>2014-07-31T11:21:10.280Z</time>
      </trkpt>
      <trkpt lat="44.93323" lon="6.82258">
        <ele>1435</ele>
        <time>2014-07-31T11:21:11.280Z</time>
      </trkpt>
      <trkpt lat="44.93323" lon="6.82264">
        <ele>1435</ele>
        <time>2014-07-31T11:21:12.280Z</time>
      </trkpt>
      <trkpt lat="44.93323" lon="6.8227">
        <ele>1435</ele>
        <time>2014-07-31T11:21:13.280Z</time>
      </trkpt>
      <trkpt lat="44.93323" lon="6.82275">
        <ele>1435</ele>
        <time>2014-07-31T11:21:14.280Z</time>
      </trkpt>
      <trkpt lat="44.93323" lon="6.82281">
        <ele>1436.4</ele>
        <time>2014-07-31T11:21:15.280Z</time>
      </trkpt>
      <trkpt lat="44.93323" lon="6.82286">
        <ele>1437</ele>
        <time>2014-07-31T11:21:16.280Z</time>
      </trkpt>
      <trkpt lat="44.93323" lon="6.82297">
        <ele>1437</ele>
        <time>2014-07-31T11:21:18.280Z</time>
      </trkpt>
      <trkpt lat="44.93323" lon="6.82302">
        <ele>1437</ele>
        <time>2014-07-31T11:21:19.280Z</time>
      </trkpt>
      <trkpt lat="44.93323" lon="6.82312">
        <ele>1437</ele>
        <time>2014-07-31T11:21:21.280Z</time>
      </trkpt>
      <trkpt lat="44.93324" lon="6.82318">
        <ele>1437</ele>
        <time>2014-07-31T11:21:22.280Z</time>
      </trkpt>
      <trkpt lat="44.93324" lon="6.82328">
        <ele>1437</ele>
        <time>2014-07-31T11:21:24.180Z</time>
      </trkpt>
      <trkpt lat="44.93324" lon="6.82334">
        <ele>1438.2</ele>
        <time>2014-07-31T11:21:25.180Z</time>
      </trkpt>
      <trkpt lat="44.93324" lon="6.82339">
        <ele>1439</ele>
        <time>2014-07-31T11:21:26.180Z</time>
      </trkpt>
      <trkpt lat="44.93323" lon="6.82345">
        <ele>1439</ele>
        <time>2014-07-31T11:21:27.180Z</time>
      </trkpt>
      <trkpt lat="44.93321" lon="6.8235">
        <ele>1439</ele>
        <time>2014-07-31T11:21:28.280Z</time>
      </trkpt>
      <trkpt lat="44.9332" lon="6.82354">
        <ele>1439</ele>
        <time>2014-07-31T11:21:29.280Z</time>
      </trkpt>
      <trkpt lat="44.93319" lon="6.82359">
        <ele>1439</ele>
        <time>2014-07-31T11:21:30.280Z</time>
      </trkpt>
      <trkpt lat="44.93316" lon="6.82367">
        <ele>1439</ele>
        <time>2014-07-31T11:21:32.180Z</time>
      </trkpt>
      <trkpt lat="44.93316" lon="6.82371">
        <ele>1439</ele>
        <time>2014-07-31T11:21:33.280Z</time>
      </trkpt>
      <trkpt lat="44.93314" lon="6.82379">
        <ele>1439.6</ele>
        <time>2014-07-31T11:21:35.180Z</time>
      </trkpt>
      <trkpt lat="44.93313" lon="6.82382">
        <ele>1440</ele>
        <time>2014-07-31T11:21:36.180Z</time>
      </trkpt>
      <trkpt lat="44.93312" lon="6.82385">
        <ele>1440</ele>
        <time>2014-07-31T11:21:37.250Z</time>
      </trkpt>
      <trkpt lat="44.93311" lon="6.82388">
        <ele>1440</ele>
        <time>2014-07-31T11:21:38.280Z</time>
      </trkpt>
      <trkpt lat="44.9331" lon="6.82394">
        <ele>1440</ele>
        <time>2014-07-31T11:21:40.250Z</time>
      </trkpt>
      <trkpt lat="44.93309" lon="6.82397">
        <ele>1440</ele>
        <time>2014-07-31T11:21:41.280Z</time>
      </trkpt>
      <trkpt lat="44.93308" lon="6.824">
        <ele>1440</ele>
        <time>2014-07-31T11:21:42.280Z</time>
      </trkpt>
      <trkpt lat="44.93307" lon="6.82403">
        <ele>1440</ele>
        <time>2014-07-31T11:21:43.270Z</time>
      </trkpt>
      <trkpt lat="44.93307" lon="6.82405">
        <ele>1440</ele>
        <time>2014-07-31T11:21:44.280Z</time>
      </trkpt>
      <trkpt lat="44.93306" lon="6.82408">
        <ele>1441.4</ele>
        <time>2014-07-31T11:21:45.280Z</time>
      </trkpt>
      <trkpt lat="44.93304" lon="6.82413">
        <ele>1442</ele>
        <time>2014-07-31T11:21:47.180Z</time>
      </trkpt>
      <trkpt lat="44.93304" lon="6.82416">
        <ele>1442</ele>
        <time>2014-07-31T11:21:48.280Z</time>
      </trkpt>
      <trkpt lat="44.93303" lon="6.82418">
        <ele>1442</ele>
        <time>2014-07-31T11:21:49.280Z</time>
      </trkpt>
      <trkpt lat="44.93302" lon="6.82423">
        <ele>1442</ele>
        <time>2014-07-31T11:21:51.240Z</time>
      </trkpt>
      <trkpt lat="44.93302" lon="6.82426">
        <ele>1442</ele>
        <time>2014-07-31T11:21:52.280Z</time>
      </trkpt>
      <trkpt lat="44.93301" lon="6.82432">
        <ele>1442</ele>
        <time>2014-07-31T11:21:54.180Z</time>
      </trkpt>
      <trkpt lat="44.93301" lon="6.82435">
        <ele>1442.7</ele>
        <time>2014-07-31T11:21:55.270Z</time>
      </trkpt>
      <trkpt lat="44.933" lon="6.82437">
        <ele>1443</ele>
        <time>2014-07-31T11:21:56.280Z</time>
      </trkpt>
      <trkpt lat="44.93299" lon="6.82442">
        <ele>1443</ele>
        <time>2014-07-31T11:21:58.280Z</time>
      </trkpt>
      <trkpt lat="44.93299" lon="6.82445">
        <ele>1443</ele>
        <time>2014-07-31T11:21:59.280Z</time>
      </trkpt>
      <trkpt lat="44.93299" lon="6.82448">
        <ele>1443</ele>
        <time>2014-07-31T11:22:00.180Z</time>
      </trkpt>
      <trkpt lat="44.93299" lon="6.82451">
        <ele>1443</ele>
        <time>2014-07-31T11:22:01.280Z</time>
      </trkpt>
      <trkpt lat="44.93299" lon="6.82454">
        <ele>1443</ele>
        <time>2014-07-31T11:22:02.280Z</time>
      </trkpt>
      <trkpt lat="44.933" lon="6.8246">
        <ele>1443</ele>
        <time>2014-07-31T11:22:04.180Z</time>
      </trkpt>
      <trkpt lat="44.933" lon="6.82462">
        <ele>1444.2</ele>
        <time>2014-07-31T11:22:05.180Z</time>
      </trkpt>
      <trkpt lat="44.93299" lon="6.82466">
        <ele>1445</ele>
        <time>2014-07-31T11:22:07.180Z</time>
      </trkpt>
      <trkpt lat="44.93299" lon="6.82468">
        <ele>1445</ele>
        <time>2014-07-31T11:22:08.280Z</time>
      </trkpt>
      <trkpt lat="44.93298" lon="6.8247">
        <ele>1445</ele>
        <time>2014-07-31T11:22:09.280Z</time>
      </trkpt>
      <trkpt lat="44.93298" lon="6.82472">
        <ele>1445</ele>
        <time>2014-07-31T11:22:10.280Z</time>
      </trkpt>
      <trkpt lat="44.93299" lon="6.82474">
        <ele>1445</ele>
        <time>2014-07-31T11:22:11.280Z</time>
      </trkpt>
      <trkpt lat="44.93299" lon="6.8248">
        <ele>1445</ele>
        <time>2014-07-31T11:22:13.180Z</time>
      </trkpt>
      <trkpt lat="44.933" lon="6.82483">
        <ele>1445</ele>
        <time>2014-07-31T11:22:14.250Z</time>
      </trkpt>
      <trkpt lat="44.93301" lon="6.82487">
        <ele>1447.1</ele>
        <time>2014-07-31T11:22:15.280Z</time>
      </trkpt>
      <trkpt lat="44.93301" lon="6.8249">
        <ele>1448</ele>
        <time>2014-07-31T11:22:16.270Z</time>
      </trkpt>
      <trkpt lat="44.93301" lon="6.82496">
        <ele>1448</ele>
        <time>2014-07-31T11:22:18.180Z</time>
      </trkpt>
      <trkpt lat="44.93302" lon="6.82499">
        <ele>1448</ele>
        <time>2014-07-31T11:22:19.180Z</time>
      </trkpt>
      <trkpt lat="44.93302" lon="6.82502">
        <ele>1448.6</ele>
        <time>2014-07-31T11:22:20.180Z</time>
      </trkpt>
      <trkpt lat="44.93303" lon="6.82505">
        <ele>1449</ele>
        <time>2014-07-31T11:22:21.180Z</time>
      </trkpt>
      <trkpt lat="44.93304" lon="6.82507">
        <ele>1449</ele>
        <time>2014-07-31T11:22:22.180Z</time>
      </trkpt>
      <trkpt lat="44.93304" lon="6.8251">
        <ele>1449</ele>
        <time>2014-07-31T11:22:23.180Z</time>
      </trkpt>
      <trkpt lat="44.93305" lon="6.82513">
        <ele>1449</ele>
        <time>2014-07-31T11:22:24.180Z</time>
      </trkpt>
      <trkpt lat="44.93305" lon="6.82515">
        <ele>1449.6</ele>
        <time>2014-07-31T11:22:25.180Z</time>
      </trkpt>
      <trkpt lat="44.93306" lon="6.82518">
        <ele>1450</ele>
        <time>2014-07-31T11:22:26.180Z</time>
      </trkpt>
      <trkpt lat="44.93306" lon="6.82521">
        <ele>1450</ele>
        <time>2014-07-31T11:22:27.270Z</time>
      </trkpt>
      <trkpt lat="44.93307" lon="6.82524">
        <ele>1450</ele>
        <time>2014-07-31T11:22:28.280Z</time>
      </trkpt>
      <trkpt lat="44.93308" lon="6.82526">
        <ele>1450</ele>
        <time>2014-07-31T11:22:29.280Z</time>
      </trkpt>
      <trkpt lat="44.93308" lon="6.82529">
        <ele>1450</ele>
        <time>2014-07-31T11:22:30.280Z</time>
      </trkpt>
      <trkpt lat="44.93309" lon="6.82534">
        <ele>1450</ele>
        <time>2014-07-31T11:22:32.180Z</time>
      </trkpt>
      <trkpt lat="44.9331" lon="6.82537">
        <ele>1450</ele>
        <time>2014-07-31T11:22:33.280Z</time>
      </trkpt>
      <trkpt lat="44.93311" lon="6.82541">
        <ele>1450</ele>
        <time>2014-07-31T11:22:35.180Z</time>
      </trkpt>
      <trkpt lat="44.93311" lon="6.82542">
        <ele>1450</ele>
        <time>2014-07-31T11:22:36.180Z</time>
      </trkpt>
      <trkpt lat="44.93312" lon="6.82544">
        <ele>1450</ele>
        <time>2014-07-31T11:22:37.180Z</time>
      </trkpt>
      <trkpt lat="44.93312" lon="6.82547">
        <ele>1450</ele>
        <time>2014-07-31T11:22:38.180Z</time>
      </trkpt>
      <trkpt lat="44.93312" lon="6.82553">
        <ele>1450</ele>
        <time>2014-07-31T11:22:40.180Z</time>
      </trkpt>
      <trkpt lat="44.93312" lon="6.82555">
        <ele>1450</ele>
        <time>2014-07-31T11:22:41.180Z</time>
      </trkpt>
      <trkpt lat="44.93312" lon="6.82558">
        <ele>1450</ele>
        <time>2014-07-31T11:22:42.180Z</time>
      </trkpt>
      <trkpt lat="44.93312" lon="6.82561">
        <ele>1450</ele>
        <time>2014-07-31T11:22:43.180Z</time>
      </trkpt>
      <trkpt lat="44.93312" lon="6.82564">
        <ele>1450</ele>
        <time>2014-07-31T11:22:44.180Z</time>
      </trkpt>
      <trkpt lat="44.93311" lon="6.82567">
        <ele>1451.2</ele>
        <time>2014-07-31T11:22:45.180Z</time>
      </trkpt>
      <trkpt lat="44.93311" lon="6.8257">
        <ele>1452</ele>
        <time>2014-07-31T11:22:46.180Z</time>
      </trkpt>
      <trkpt lat="44.93311" lon="6.82573">
        <ele>1452</ele>
        <time>2014-07-31T11:22:47.180Z</time>
      </trkpt>
      <trkpt lat="44.9331" lon="6.82576">
        <ele>1452</ele>
        <time>2014-07-31T11:22:48.250Z</time>
      </trkpt>
      <trkpt lat="44.9331" lon="6.82581">
        <ele>1452</ele>
        <time>2014-07-31T11:22:50.280Z</time>
      </trkpt>
      <trkpt lat="44.9331" lon="6.82586">
        <ele>1452</ele>
        <time>2014-07-31T11:22:52.180Z</time>
      </trkpt>
      <trkpt lat="44.9331" lon="6.82589">
        <ele>1452</ele>
        <time>2014-07-31T11:22:53.180Z</time>
      </trkpt>
      <trkpt lat="44.93311" lon="6.82591">
        <ele>1452</ele>
        <time>2014-07-31T11:22:54.180Z</time>
      </trkpt>
      <trkpt lat="44.93312" lon="6.82594">
        <ele>1453.2</ele>
        <time>2014-07-31T11:22:55.180Z</time>
      </trkpt>
      <trkpt lat="44.93313" lon="6.82596">
        <ele>1454</ele>
        <time>2014-07-31T11:22:56.180Z</time>
      </trkpt>
      <trkpt lat="44.93313" lon="6.82599">
        <ele>1454</ele>
        <time>2014-07-31T11:22:57.180Z</time>
      </trkpt>
      <trkpt lat="44.93313" lon="6.82603">
        <ele>1454</ele>
        <time>2014-07-31T11:22:58.180Z</time>
      </trkpt>
      <trkpt lat="44.93313" lon="6.82605">
        <ele>1454</ele>
        <time>2014-07-31T11:22:59.180Z</time>
      </trkpt>
      <trkpt lat="44.93313" lon="6.82608">
        <ele>1454</ele>
        <time>2014-07-31T11:23:00.080Z</time>
      </trkpt>
      <trkpt lat="44.93314" lon="6.82611">
        <ele>1454</ele>
        <time>2014-07-31T11:23:01.180Z</time>
      </trkpt>
      <trkpt lat="44.93315" lon="6.82613">
        <ele>1454</ele>
        <time>2014-07-31T11:23:02.180Z</time>
      </trkpt>
      <trkpt lat="44.93315" lon="6.82616">
        <ele>1454</ele>
        <time>2014-07-31T11:23:03.180Z</time>
      </trkpt>
      <trkpt lat="44.93315" lon="6.82619">
        <ele>1454</ele>
        <time>2014-07-31T11:23:04.180Z</time>
      </trkpt>
      <trkpt lat="44.93316" lon="6.82622">
        <ele>1455.4</ele>
        <time>2014-07-31T11:23:05.250Z</time>
      </trkpt>
      <trkpt lat="44.93316" lon="6.82625">
        <ele>1456</ele>
        <time>2014-07-31T11:23:06.280Z</time>
      </trkpt>
      <trkpt lat="44.93317" lon="6.82627">
        <ele>1456</ele>
        <time>2014-07-31T11:23:07.280Z</time>
      </trkpt>
      <trkpt lat="44.93317" lon="6.8263">
        <ele>1456</ele>
        <time>2014-07-31T11:23:08.280Z</time>
      </trkpt>
      <trkpt lat="44.93319" lon="6.82633">
        <ele>1456</ele>
        <time>2014-07-31T11:23:09.270Z</time>
      </trkpt>
      <trkpt lat="44.9332" lon="6.82635">
        <ele>1456</ele>
        <time>2014-07-31T11:23:10.280Z</time>
      </trkpt>
      <trkpt lat="44.93321" lon="6.82637">
        <ele>1456</ele>
        <time>2014-07-31T11:23:11.280Z</time>
      </trkpt>
      <trkpt lat="44.93324" lon="6.82641">
        <ele>1456</ele>
        <time>2014-07-31T11:23:13.260Z</time>
      </trkpt>
      <trkpt lat="44.93325" lon="6.82643">
        <ele>1456</ele>
        <time>2014-07-31T11:23:14.180Z</time>
      </trkpt>
      <trkpt lat="44.93325" lon="6.82645">
        <ele>1457.2</ele>
        <time>2014-07-31T11:23:15.180Z</time>
      </trkpt>
      <trkpt lat="44.93326" lon="6.82647">
        <ele>1458</ele>
        <time>2014-07-31T11:23:16.180Z</time>
      </trkpt>
      <trkpt lat="44.93327" lon="6.8265">
        <ele>1458</ele>
        <time>2014-07-31T11:23:17.240Z</time>
      </trkpt>
      <trkpt lat="44.93328" lon="6.82653">
        <ele>1458</ele>
        <time>2014-07-31T11:23:18.280Z</time>
      </trkpt>
      <trkpt lat="44.9333" lon="6.82658">
        <ele>1458</ele>
        <time>2014-07-31T11:23:20.180Z</time>
      </trkpt>
      <trkpt lat="44.9333" lon="6.82662">
        <ele>1458</ele>
        <time>2014-07-31T11:23:21.180Z</time>
      </trkpt>
      <trkpt lat="44.9333" lon="6.82665">
        <ele>1458</ele>
        <time>2014-07-31T11:23:22.250Z</time>
      </trkpt>
      <trkpt lat="44.93331" lon="6.8267">
        <ele>1458</ele>
        <time>2014-07-31T11:23:24.180Z</time>
      </trkpt>
      <trkpt lat="44.93332" lon="6.82673">
        <ele>1459.2</ele>
        <time>2014-07-31T11:23:25.180Z</time>
      </trkpt>
      <trkpt lat="44.93333" lon="6.82676">
        <ele>1460</ele>
        <time>2014-07-31T11:23:26.180Z</time>
      </trkpt>
      <trkpt lat="44.93333" lon="6.82678">
        <ele>1460</ele>
        <time>2014-07-31T11:23:27.280Z</time>
      </trkpt>
      <trkpt lat="44.93333" lon="6.8268">
        <ele>1460</ele>
        <time>2014-07-31T11:23:28.180Z</time>
      </trkpt>
      <trkpt lat="44.93334" lon="6.82683">
        <ele>1460</ele>
        <time>2014-07-31T11:23:29.180Z</time>
      </trkpt>
      <trkpt lat="44.93333" lon="6.82685">
        <ele>1460</ele>
        <time>2014-07-31T11:23:30.280Z</time>
      </trkpt>
      <trkpt lat="44.93333" lon="6.82687">
        <ele>1460</ele>
        <time>2014-07-31T11:23:31.280Z</time>
      </trkpt>
      <trkpt lat="44.93334" lon="6.8269">
        <ele>1460</ele>
        <time>2014-07-31T11:23:32.280Z</time>
      </trkpt>
      <trkpt lat="44.93334" lon="6.82694">
        <ele>1460</ele>
        <time>2014-07-31T11:23:34.240Z</time>
      </trkpt>
      <trkpt lat="44.93334" lon="6.82696">
        <ele>1461.4</ele>
        <time>2014-07-31T11:23:35.280Z</time>
      </trkpt>
      <trkpt lat="44.93334" lon="6.82699">
        <ele>1462</ele>
        <time>2014-07-31T11:23:36.280Z</time>
      </trkpt>
      <trkpt lat="44.93334" lon="6.82702">
        <ele>1462</ele>
        <time>2014-07-31T11:23:37.280Z</time>
      </trkpt>
      <trkpt lat="44.93335" lon="6.82705">
        <ele>1462</ele>
        <time>2014-07-31T11:23:38.280Z</time>
      </trkpt>
      <trkpt lat="44.93335" lon="6.82711">
        <ele>1462</ele>
        <time>2014-07-31T11:23:40.180Z</time>
      </trkpt>
      <trkpt lat="44.93335" lon="6.82715">
        <ele>1462</ele>
        <time>2014-07-31T11:23:41.180Z</time>
      </trkpt>
      <trkpt lat="44.93335" lon="6.82717">
        <ele>1462</ele>
        <time>2014-07-31T11:23:42.180Z</time>
      </trkpt>
      <trkpt lat="44.93336" lon="6.8272">
        <ele>1462</ele>
        <time>2014-07-31T11:23:43.180Z</time>
      </trkpt>
      <trkpt lat="44.93335" lon="6.82723">
        <ele>1462</ele>
        <time>2014-07-31T11:23:44.180Z</time>
      </trkpt>
      <trkpt lat="44.93336" lon="6.82726">
        <ele>1462.6</ele>
        <time>2014-07-31T11:23:45.180Z</time>
      </trkpt>
      <trkpt lat="44.93336" lon="6.82729">
        <ele>1463</ele>
        <time>2014-07-31T11:23:46.180Z</time>
      </trkpt>
      <trkpt lat="44.93338" lon="6.82732">
        <ele>1463</ele>
        <time>2014-07-31T11:23:47.180Z</time>
      </trkpt>
      <trkpt lat="44.93339" lon="6.82734">
        <ele>1463</ele>
        <time>2014-07-31T11:23:48.180Z</time>
      </trkpt>
      <trkpt lat="44.9334" lon="6.82736">
        <ele>1463</ele>
        <time>2014-07-31T11:23:49.180Z</time>
      </trkpt>
      <trkpt lat="44.93341" lon="6.82739">
        <ele>1463</ele>
        <time>2014-07-31T11:23:50.180Z</time>
      </trkpt>
      <trkpt lat="44.93341" lon="6.82742">
        <ele>1463</ele>
        <time>2014-07-31T11:23:51.040Z</time>
      </trkpt>
      <trkpt lat="44.93343" lon="6.82747">
        <ele>1463</ele>
        <time>2014-07-31T11:23:53.180Z</time>
      </trkpt>
      <trkpt lat="44.93343" lon="6.8275">
        <ele>1463</ele>
        <time>2014-07-31T11:23:54.180Z</time>
      </trkpt>
      <trkpt lat="44.93344" lon="6.82753">
        <ele>1464.2</ele>
        <time>2014-07-31T11:23:55.180Z</time>
      </trkpt>
      <trkpt lat="44.93344" lon="6.82756">
        <ele>1465</ele>
        <time>2014-07-31T11:23:56.230Z</time>
      </trkpt>
      <trkpt lat="44.93344" lon="6.82759">
        <ele>1465</ele>
        <time>2014-07-31T11:23:57.280Z</time>
      </trkpt>
      <trkpt lat="44.93344" lon="6.82765">
        <ele>1465</ele>
        <time>2014-07-31T11:23:59.180Z</time>
      </trkpt>
      <trkpt lat="44.93345" lon="6.82768">
        <ele>1465</ele>
        <time>2014-07-31T11:24:00.240Z</time>
      </trkpt>
      <trkpt lat="44.93346" lon="6.82774">
        <ele>1465</ele>
        <time>2014-07-31T11:24:02.280Z</time>
      </trkpt>
      <trkpt lat="44.93347" lon="6.82776">
        <ele>1465</ele>
        <time>2014-07-31T11:24:03.280Z</time>
      </trkpt>
      <trkpt lat="44.93347" lon="6.82779">
        <ele>1465</ele>
        <time>2014-07-31T11:24:04.280Z</time>
      </trkpt>
      <trkpt lat="44.93348" lon="6.82782">
        <ele>1466.4</ele>
        <time>2014-07-31T11:24:05.280Z</time>
      </trkpt>
      <trkpt lat="44.93348" lon="6.82787">
        <ele>1467</ele>
        <time>2014-07-31T11:24:07.180Z</time>
      </trkpt>
      <trkpt lat="44.93349" lon="6.8279">
        <ele>1467</ele>
        <time>2014-07-31T11:24:08.180Z</time>
      </trkpt>
      <trkpt lat="44.93349" lon="6.82792">
        <ele>1467</ele>
        <time>2014-07-31T11:24:09.180Z</time>
      </trkpt>
      <trkpt lat="44.9335" lon="6.82795">
        <ele>1467</ele>
        <time>2014-07-31T11:24:10.180Z</time>
      </trkpt>
      <trkpt lat="44.9335" lon="6.82798">
        <ele>1467</ele>
        <time>2014-07-31T11:24:11.270Z</time>
      </trkpt>
      <trkpt lat="44.9335" lon="6.82801">
        <ele>1467</ele>
        <time>2014-07-31T11:24:12.280Z</time>
      </trkpt>
      <trkpt lat="44.9335" lon="6.82806">
        <ele>1467</ele>
        <time>2014-07-31T11:24:14.180Z</time>
      </trkpt>
      <trkpt lat="44.9335" lon="6.82809">
        <ele>1468.2</ele>
        <time>2014-07-31T11:24:15.180Z</time>
      </trkpt>
      <trkpt lat="44.9335" lon="6.82812">
        <ele>1469</ele>
        <time>2014-07-31T11:24:16.180Z</time>
      </trkpt>
      <trkpt lat="44.9335" lon="6.82815">
        <ele>1469</ele>
        <time>2014-07-31T11:24:17.240Z</time>
      </trkpt>
      <trkpt lat="44.9335" lon="6.82818">
        <ele>1469</ele>
        <time>2014-07-31T11:24:18.280Z</time>
      </trkpt>
      <trkpt lat="44.9335" lon="6.8282">
        <ele>1469</ele>
        <time>2014-07-31T11:24:19.280Z</time>
      </trkpt>
      <trkpt lat="44.93351" lon="6.82825">
        <ele>1469</ele>
        <time>2014-07-31T11:24:21.180Z</time>
      </trkpt>
      <trkpt lat="44.93352" lon="6.8283">
        <ele>1469</ele>
        <time>2014-07-31T11:24:23.180Z</time>
      </trkpt>
      <trkpt lat="44.93352" lon="6.82833">
        <ele>1469</ele>
        <time>2014-07-31T11:24:24.180Z</time>
      </trkpt>
      <trkpt lat="44.93353" lon="6.82836">
        <ele>1469.6</ele>
        <time>2014-07-31T11:24:25.180Z</time>
      </trkpt>
      <trkpt lat="44.93353" lon="6.82838">
        <ele>1470</ele>
        <time>2014-07-31T11:24:26.180Z</time>
      </trkpt>
      <trkpt lat="44.93353" lon="6.82841">
        <ele>1470</ele>
        <time>2014-07-31T11:24:27.180Z</time>
      </trkpt>
      <trkpt lat="44.93353" lon="6.82843">
        <ele>1470</ele>
        <time>2014-07-31T11:24:28.180Z</time>
      </trkpt>
      <trkpt lat="44.93353" lon="6.82845">
        <ele>1470</ele>
        <time>2014-07-31T11:24:29.180Z</time>
      </trkpt>
      <trkpt lat="44.93353" lon="6.82848">
        <ele>1470</ele>
        <time>2014-07-31T11:24:30.250Z</time>
      </trkpt>
      <trkpt lat="44.93354" lon="6.82855">
        <ele>1470</ele>
        <time>2014-07-31T11:24:32.260Z</time>
      </trkpt>
      <trkpt lat="44.93354" lon="6.82858">
        <ele>1470</ele>
        <time>2014-07-31T11:24:33.180Z</time>
      </trkpt>
      <trkpt lat="44.93354" lon="6.8286">
        <ele>1470</ele>
        <time>2014-07-31T11:24:34.240Z</time>
      </trkpt>
      <trkpt lat="44.93354" lon="6.82863">
        <ele>1471.4</ele>
        <time>2014-07-31T11:24:35.280Z</time>
      </trkpt>
      <trkpt lat="44.93355" lon="6.82865">
        <ele>1472</ele>
        <time>2014-07-31T11:24:36.280Z</time>
      </trkpt>
      <trkpt lat="44.93355" lon="6.82867">
        <ele>1472</ele>
        <time>2014-07-31T11:24:37.280Z</time>
      </trkpt>
      <trkpt lat="44.93355" lon="6.82869">
        <ele>1472</ele>
        <time>2014-07-31T11:24:38.280Z</time>
      </trkpt>
      <trkpt lat="44.93355" lon="6.82872">
        <ele>1472</ele>
        <time>2014-07-31T11:24:39.280Z</time>
      </trkpt>
      <trkpt lat="44.93355" lon="6.82874">
        <ele>1472</ele>
        <time>2014-07-31T11:24:40.280Z</time>
      </trkpt>
      <trkpt lat="44.93355" lon="6.82876">
        <ele>1472</ele>
        <time>2014-07-31T11:24:41.280Z</time>
      </trkpt>
      <trkpt lat="44.93355" lon="6.82878">
        <ele>1472</ele>
        <time>2014-07-31T11:24:42.280Z</time>
      </trkpt>
      <trkpt lat="44.93355" lon="6.82883">
        <ele>1472</ele>
        <time>2014-07-31T11:24:44.180Z</time>
      </trkpt>
      <trkpt lat="44.93355" lon="6.82885">
        <ele>1472.8</ele>
        <time>2014-07-31T11:24:45.380Z</time>
      </trkpt>
      <trkpt lat="44.93356" lon="6.82888">
        <ele>1473</ele>
        <time>2014-07-31T11:24:46.280Z</time>
      </trkpt>
      <trkpt lat="44.93357" lon="6.82893">
        <ele>1473</ele>
        <time>2014-07-31T11:24:48.180Z</time>
      </trkpt>
      <trkpt lat="44.93358" lon="6.82895">
        <ele>1473</ele>
        <time>2014-07-31T11:24:49.180Z</time>
      </trkpt>
      <trkpt lat="44.93357" lon="6.82899">
        <ele>1473</ele>
        <time>2014-07-31T11:24:50.180Z</time>
      </trkpt>
      <trkpt lat="44.93358" lon="6.82902">
        <ele>1473</ele>
        <time>2014-07-31T11:24:51.240Z</time>
      </trkpt>
      <trkpt lat="44.93358" lon="6.82905">
        <ele>1473</ele>
        <time>2014-07-31T11:24:52.280Z</time>
      </trkpt>
      <trkpt lat="44.93359" lon="6.82907">
        <ele>1473</ele>
        <time>2014-07-31T11:24:53.280Z</time>
      </trkpt>
      <trkpt lat="44.9336" lon="6.82914">
        <ele>1474.2</ele>
        <time>2014-07-31T11:24:55.180Z</time>
      </trkpt>
      <trkpt lat="44.9336" lon="6.82917">
        <ele>1475</ele>
        <time>2014-07-31T11:24:56.280Z</time>
      </trkpt>
      <trkpt lat="44.9336" lon="6.8292">
        <ele>1475</ele>
        <time>2014-07-31T11:24:57.280Z</time>
      </trkpt>
      <trkpt lat="44.93361" lon="6.82922">
        <ele>1475</ele>
        <time>2014-07-31T11:24:58.280Z</time>
      </trkpt>
      <trkpt lat="44.93361" lon="6.82925">
        <ele>1475</ele>
        <time>2014-07-31T11:24:59.280Z</time>
      </trkpt>
      <trkpt lat="44.93361" lon="6.82928">
        <ele>1475</ele>
        <time>2014-07-31T11:25:00.180Z</time>
      </trkpt>
      <trkpt lat="44.93361" lon="6.8293">
        <ele>1475</ele>
        <time>2014-07-31T11:25:01.280Z</time>
      </trkpt>
      <trkpt lat="44.93362" lon="6.82933">
        <ele>1475</ele>
        <time>2014-07-31T11:25:02.280Z</time>
      </trkpt>
      <trkpt lat="44.93363" lon="6.82938">
        <ele>1475</ele>
        <time>2014-07-31T11:25:04.150Z</time>
      </trkpt>
      <trkpt lat="44.93364" lon="6.82941">
        <ele>1476.2</ele>
        <time>2014-07-31T11:25:05.180Z</time>
      </trkpt>
      <trkpt lat="44.93365" lon="6.82943">
        <ele>1477</ele>
        <time>2014-07-31T11:25:06.180Z</time>
      </trkpt>
      <trkpt lat="44.93365" lon="6.82946">
        <ele>1477</ele>
        <time>2014-07-31T11:25:07.180Z</time>
      </trkpt>
      <trkpt lat="44.93367" lon="6.82948">
        <ele>1477</ele>
        <time>2014-07-31T11:25:08.180Z</time>
      </trkpt>
      <trkpt lat="44.93367" lon="6.82951">
        <ele>1477</ele>
        <time>2014-07-31T11:25:09.180Z</time>
      </trkpt>
      <trkpt lat="44.93368" lon="6.82953">
        <ele>1477</ele>
        <time>2014-07-31T11:25:10.180Z</time>
      </trkpt>
      <trkpt lat="44.93368" lon="6.82956">
        <ele>1477</ele>
        <time>2014-07-31T11:25:11.180Z</time>
      </trkpt>
      <trkpt lat="44.93368" lon="6.82959">
        <ele>1477</ele>
        <time>2014-07-31T11:25:12.180Z</time>
      </trkpt>
      <trkpt lat="44.93368" lon="6.82961">
        <ele>1477</ele>
        <time>2014-07-31T11:25:13.180Z</time>
      </trkpt>
      <trkpt lat="44.93368" lon="6.82963">
        <ele>1477</ele>
        <time>2014-07-31T11:25:14.270Z</time>
      </trkpt>
      <trkpt lat="44.93366" lon="6.82963">
        <ele>1478.4</ele>
        <time>2014-07-31T11:25:15.280Z</time>
      </trkpt>
      <trkpt lat="44.93362" lon="6.82962">
        <ele>1479</ele>
        <time>2014-07-31T11:25:17.240Z</time>
      </trkpt>
      <trkpt lat="44.9336" lon="6.8296">
        <ele>1479</ele>
        <time>2014-07-31T11:25:18.280Z</time>
      </trkpt>
      <trkpt lat="44.93358" lon="6.82958">
        <ele>1479</ele>
        <time>2014-07-31T11:25:19.280Z</time>
      </trkpt>
      <trkpt lat="44.93357" lon="6.82952">
        <ele>1479</ele>
        <time>2014-07-31T11:25:21.250Z</time>
      </trkpt>
      <trkpt lat="44.93356" lon="6.82949">
        <ele>1479</ele>
        <time>2014-07-31T11:25:22.280Z</time>
      </trkpt>
      <trkpt lat="44.93356" lon="6.82945">
        <ele>1479</ele>
        <time>2014-07-31T11:25:23.280Z</time>
      </trkpt>
      <trkpt lat="44.93354" lon="6.82939">
        <ele>1480.2</ele>
        <time>2014-07-31T11:25:25.180Z</time>
      </trkpt>
      <trkpt lat="44.93354" lon="6.82936">
        <ele>1481</ele>
        <time>2014-07-31T11:25:26.180Z</time>
      </trkpt>
      <trkpt lat="44.93353" lon="6.82933">
        <ele>1481</ele>
        <time>2014-07-31T11:25:27.180Z</time>
      </trkpt>
      <trkpt lat="44.93352" lon="6.8293">
        <ele>1481</ele>
        <time>2014-07-31T11:25:28.180Z</time>
      </trkpt>
      <trkpt lat="44.93351" lon="6.82928">
        <ele>1481</ele>
        <time>2014-07-31T11:25:29.180Z</time>
      </trkpt>
      <trkpt lat="44.9335" lon="6.82925">
        <ele>1481</ele>
        <time>2014-07-31T11:25:30.180Z</time>
      </trkpt>
      <trkpt lat="44.93349" lon="6.82922">
        <ele>1481</ele>
        <time>2014-07-31T11:25:31.280Z</time>
      </trkpt>
      <trkpt lat="44.93348" lon="6.8292">
        <ele>1481</ele>
        <time>2014-07-31T11:25:32.280Z</time>
      </trkpt>
      <trkpt lat="44.93346" lon="6.82918">
        <ele>1481</ele>
        <time>2014-07-31T11:25:33.280Z</time>
      </trkpt>
      <trkpt lat="44.93344" lon="6.82913">
        <ele>1481.6</ele>
        <time>2014-07-31T11:25:35.180Z</time>
      </trkpt>
      <trkpt lat="44.93342" lon="6.82911">
        <ele>1482</ele>
        <time>2014-07-31T11:25:36.270Z</time>
      </trkpt>
      <trkpt lat="44.93341" lon="6.82908">
        <ele>1482</ele>
        <time>2014-07-31T11:25:37.280Z</time>
      </trkpt>
      <trkpt lat="44.93338" lon="6.82903">
        <ele>1482</ele>
        <time>2014-07-31T11:25:39.180Z</time>
      </trkpt>
      <trkpt lat="44.93336" lon="6.82901">
        <ele>1482</ele>
        <time>2014-07-31T11:25:40.180Z</time>
      </trkpt>
      <trkpt lat="44.93335" lon="6.82898">
        <ele>1482</ele>
        <time>2014-07-31T11:25:41.180Z</time>
      </trkpt>
      <trkpt lat="44.93334" lon="6.82896">
        <ele>1482</ele>
        <time>2014-07-31T11:25:42.180Z</time>
      </trkpt>
      <trkpt lat="44.93332" lon="6.82894">
        <ele>1482</ele>
        <time>2014-07-31T11:25:43.180Z</time>
      </trkpt>
      <trkpt lat="44.9333" lon="6.82891">
        <ele>1482</ele>
        <time>2014-07-31T11:25:44.180Z</time>
      </trkpt>
      <trkpt lat="44.93328" lon="6.82889">
        <ele>1482.6</ele>
        <time>2014-07-31T11:25:45.180Z</time>
      </trkpt>
      <trkpt lat="44.93326" lon="6.82887">
        <ele>1483</ele>
        <time>2014-07-31T11:25:46.180Z</time>
      </trkpt>
      <trkpt lat="44.93323" lon="6.82883">
        <ele>1483</ele>
        <time>2014-07-31T11:25:48.180Z</time>
      </trkpt>
      <trkpt lat="44.93322" lon="6.82881">
        <ele>1483</ele>
        <time>2014-07-31T11:25:49.180Z</time>
      </trkpt>
      <trkpt lat="44.93321" lon="6.82878">
        <ele>1483</ele>
        <time>2014-07-31T11:25:50.180Z</time>
      </trkpt>
      <trkpt lat="44.9332" lon="6.82876">
        <ele>1483</ele>
        <time>2014-07-31T11:25:51.240Z</time>
      </trkpt>
      <trkpt lat="44.93319" lon="6.82874">
        <ele>1483</ele>
        <time>2014-07-31T11:25:52.280Z</time>
      </trkpt>
      <trkpt lat="44.93319" lon="6.82871">
        <ele>1483</ele>
        <time>2014-07-31T11:25:53.280Z</time>
      </trkpt>
      <trkpt lat="44.93318" lon="6.82869">
        <ele>1483</ele>
        <time>2014-07-31T11:25:54.280Z</time>
      </trkpt>
      <trkpt lat="44.93315" lon="6.82864">
        <ele>1485</ele>
        <time>2014-07-31T11:25:56.180Z</time>
      </trkpt>
      <trkpt lat="44.93314" lon="6.82862">
        <ele>1485</ele>
        <time>2014-07-31T11:25:57.270Z</time>
      </trkpt>
      <trkpt lat="44.93313" lon="6.82859">
        <ele>1485</ele>
        <time>2014-07-31T11:25:58.280Z</time>
      </trkpt>
      <trkpt lat="44.93312" lon="6.82857">
        <ele>1485</ele>
        <time>2014-07-31T11:25:59.280Z</time>
      </trkpt>
      <trkpt lat="44.93309" lon="6.82852">
        <ele>1485</ele>
        <time>2014-07-31T11:26:01.180Z</time>
      </trkpt>
      <trkpt lat="44.93309" lon="6.8285">
        <ele>1485</ele>
        <time>2014-07-31T11:26:02.180Z</time>
      </trkpt>
      <trkpt lat="44.93308" lon="6.82847">
        <ele>1485</ele>
        <time>2014-07-31T11:26:03.280Z</time>
      </trkpt>
      <trkpt lat="44.93307" lon="6.82844">
        <ele>1485</ele>
        <time>2014-07-31T11:26:04.280Z</time>
      </trkpt>
      <trkpt lat="44.93306" lon="6.82842">
        <ele>1486.4</ele>
        <time>2014-07-31T11:26:05.280Z</time>
      </trkpt>
      <trkpt lat="44.93304" lon="6.82836">
        <ele>1487</ele>
        <time>2014-07-31T11:26:07.280Z</time>
      </trkpt>
      <trkpt lat="44.93303" lon="6.82834">
        <ele>1487</ele>
        <time>2014-07-31T11:26:08.280Z</time>
      </trkpt>
      <trkpt lat="44.93302" lon="6.82832">
        <ele>1487</ele>
        <time>2014-07-31T11:26:09.280Z</time>
      </trkpt>
      <trkpt lat="44.93301" lon="6.82828">
        <ele>1487</ele>
        <time>2014-07-31T11:26:10.280Z</time>
      </trkpt>
      <trkpt lat="44.933" lon="6.82825">
        <ele>1487</ele>
        <time>2014-07-31T11:26:11.280Z</time>
      </trkpt>
      <trkpt lat="44.93299" lon="6.82819">
        <ele>1487</ele>
        <time>2014-07-31T11:26:13.180Z</time>
      </trkpt>
      <trkpt lat="44.93298" lon="6.82817">
        <ele>1487</ele>
        <time>2014-07-31T11:26:14.180Z</time>
      </trkpt>
      <trkpt lat="44.93297" lon="6.82814">
        <ele>1487.6</ele>
        <time>2014-07-31T11:26:15.180Z</time>
      </trkpt>
      <trkpt lat="44.93296" lon="6.82811">
        <ele>1488</ele>
        <time>2014-07-31T11:26:16.270Z</time>
      </trkpt>
      <trkpt lat="44.93295" lon="6.82805">
        <ele>1488</ele>
        <time>2014-07-31T11:26:18.180Z</time>
      </trkpt>
      <trkpt lat="44.93294" lon="6.82803">
        <ele>1488</ele>
        <time>2014-07-31T11:26:19.180Z</time>
      </trkpt>
      <trkpt lat="44.93294" lon="6.828">
        <ele>1488</ele>
        <time>2014-07-31T11:26:20.180Z</time>
      </trkpt>
      <trkpt lat="44.93293" lon="6.82797">
        <ele>1488</ele>
        <time>2014-07-31T11:26:21.180Z</time>
      </trkpt>
      <trkpt lat="44.93292" lon="6.82795">
        <ele>1488</ele>
        <time>2014-07-31T11:26:22.180Z</time>
      </trkpt>
      <trkpt lat="44.9329" lon="6.82793">
        <ele>1488</ele>
        <time>2014-07-31T11:26:23.180Z</time>
      </trkpt>
      <trkpt lat="44.9329" lon="6.8279">
        <ele>1488</ele>
        <time>2014-07-31T11:26:24.180Z</time>
      </trkpt>
      <trkpt lat="44.93289" lon="6.82788">
        <ele>1489.2</ele>
        <time>2014-07-31T11:26:25.180Z</time>
      </trkpt>
      <trkpt lat="44.93289" lon="6.82786">
        <ele>1490</ele>
        <time>2014-07-31T11:26:26.180Z</time>
      </trkpt>
      <trkpt lat="44.93288" lon="6.82783">
        <ele>1490</ele>
        <time>2014-07-31T11:26:27.180Z</time>
      </trkpt>
      <trkpt lat="44.93288" lon="6.82781">
        <ele>1490</ele>
        <time>2014-07-31T11:26:28.380Z</time>
      </trkpt>
      <trkpt lat="44.93286" lon="6.82776">
        <ele>1490</ele>
        <time>2014-07-31T11:26:30.180Z</time>
      </trkpt>
      <trkpt lat="44.93285" lon="6.82774">
        <ele>1490</ele>
        <time>2014-07-31T11:26:31.180Z</time>
      </trkpt>
      <trkpt lat="44.93283" lon="6.82771">
        <ele>1490</ele>
        <time>2014-07-31T11:26:32.180Z</time>
      </trkpt>
      <trkpt lat="44.93282" lon="6.82769">
        <ele>1490</ele>
        <time>2014-07-31T11:26:33.180Z</time>
      </trkpt>
      <trkpt lat="44.93282" lon="6.82767">
        <ele>1490</ele>
        <time>2014-07-31T11:26:34.240Z</time>
      </trkpt>
      <trkpt lat="44.9328" lon="6.82764">
        <ele>1490.7</ele>
        <time>2014-07-31T11:26:35.280Z</time>
      </trkpt>
      <trkpt lat="44.93279" lon="6.82762">
        <ele>1491</ele>
        <time>2014-07-31T11:26:36.280Z</time>
      </trkpt>
      <trkpt lat="44.93278" lon="6.82759">
        <ele>1491</ele>
        <time>2014-07-31T11:26:37.280Z</time>
      </trkpt>
      <trkpt lat="44.93276" lon="6.82757">
        <ele>1491</ele>
        <time>2014-07-31T11:26:38.280Z</time>
      </trkpt>
      <trkpt lat="44.93273" lon="6.82754">
        <ele>1491</ele>
        <time>2014-07-31T11:26:40.270Z</time>
      </trkpt>
      <trkpt lat="44.93272" lon="6.82752">
        <ele>1491</ele>
        <time>2014-07-31T11:26:41.280Z</time>
      </trkpt>
      <trkpt lat="44.9327" lon="6.82749">
        <ele>1491</ele>
        <time>2014-07-31T11:26:42.280Z</time>
      </trkpt>
      <trkpt lat="44.93269" lon="6.82747">
        <ele>1491</ele>
        <time>2014-07-31T11:26:43.280Z</time>
      </trkpt>
      <trkpt lat="44.93268" lon="6.82745">
        <ele>1491</ele>
        <time>2014-07-31T11:26:44.280Z</time>
      </trkpt>
      <trkpt lat="44.93267" lon="6.82743">
        <ele>1492.4</ele>
        <time>2014-07-31T11:26:45.280Z</time>
      </trkpt>
      <trkpt lat="44.93265" lon="6.82741">
        <ele>1493</ele>
        <time>2014-07-31T11:26:46.250Z</time>
      </trkpt>
      <trkpt lat="44.93264" lon="6.82739">
        <ele>1493</ele>
        <time>2014-07-31T11:26:47.280Z</time>
      </trkpt>
      <trkpt lat="44.93263" lon="6.82737">
        <ele>1493</ele>
        <time>2014-07-31T11:26:48.280Z</time>
      </trkpt>
      <trkpt lat="44.93261" lon="6.82735">
        <ele>1493</ele>
        <time>2014-07-31T11:26:49.280Z</time>
      </trkpt>
      <trkpt lat="44.93258" lon="6.82732">
        <ele>1493</ele>
        <time>2014-07-31T11:26:51.180Z</time>
      </trkpt>
      <trkpt lat="44.93257" lon="6.82731">
        <ele>1493</ele>
        <time>2014-07-31T11:26:52.280Z</time>
      </trkpt>
      <trkpt lat="44.93255" lon="6.82729">
        <ele>1493</ele>
        <time>2014-07-31T11:26:53.280Z</time>
      </trkpt>
      <trkpt lat="44.93253" lon="6.82728">
        <ele>1493</ele>
        <time>2014-07-31T11:26:54.280Z</time>
      </trkpt>
      <trkpt lat="44.93252" lon="6.82726">
        <ele>1494.4</ele>
        <time>2014-07-31T11:26:55.280Z</time>
      </trkpt>
      <trkpt lat="44.9325" lon="6.82725">
        <ele>1495</ele>
        <time>2014-07-31T11:26:56.280Z</time>
      </trkpt>
      <trkpt lat="44.93249" lon="6.82722">
        <ele>1495</ele>
        <time>2014-07-31T11:26:57.280Z</time>
      </trkpt>
      <trkpt lat="44.93247" lon="6.8272">
        <ele>1495</ele>
        <time>2014-07-31T11:26:58.280Z</time>
      </trkpt>
      <trkpt lat="44.93245" lon="6.82718">
        <ele>1495</ele>
        <time>2014-07-31T11:26:59.280Z</time>
      </trkpt>
      <trkpt lat="44.93243" lon="6.82714">
        <ele>1495</ele>
        <time>2014-07-31T11:27:01.180Z</time>
      </trkpt>
      <trkpt lat="44.93241" lon="6.82712">
        <ele>1495</ele>
        <time>2014-07-31T11:27:02.180Z</time>
      </trkpt>
      <trkpt lat="44.9324" lon="6.82711">
        <ele>1495</ele>
        <time>2014-07-31T11:27:03.150Z</time>
      </trkpt>
      <trkpt lat="44.93238" lon="6.82709">
        <ele>1495</ele>
        <time>2014-07-31T11:27:04.180Z</time>
      </trkpt>
      <trkpt lat="44.93237" lon="6.82707">
        <ele>1496.8</ele>
        <time>2014-07-31T11:27:05.180Z</time>
      </trkpt>
      <trkpt lat="44.93235" lon="6.82705">
        <ele>1498</ele>
        <time>2014-07-31T11:27:06.180Z</time>
      </trkpt>
      <trkpt lat="44.93234" lon="6.82703">
        <ele>1498</ele>
        <time>2014-07-31T11:27:07.180Z</time>
      </trkpt>
      <trkpt lat="44.93232" lon="6.82702">
        <ele>1498</ele>
        <time>2014-07-31T11:27:08.180Z</time>
      </trkpt>
      <trkpt lat="44.9323" lon="6.827">
        <ele>1498</ele>
        <time>2014-07-31T11:27:09.270Z</time>
      </trkpt>
      <trkpt lat="44.93227" lon="6.82697">
        <ele>1499</ele>
        <time>2014-07-31T11:27:11.180Z</time>
      </trkpt>
      <trkpt lat="44.93225" lon="6.82696">
        <ele>1499</ele>
        <time>2014-07-31T11:27:12.180Z</time>
      </trkpt>
      <trkpt lat="44.93224" lon="6.82694">
        <ele>1499</ele>
        <time>2014-07-31T11:27:13.180Z</time>
      </trkpt>
      <trkpt lat="44.93222" lon="6.82693">
        <ele>1499</ele>
        <time>2014-07-31T11:27:14.180Z</time>
      </trkpt>
      <trkpt lat="44.93221" lon="6.82691">
        <ele>1499.6</ele>
        <time>2014-07-31T11:27:15.180Z</time>
      </trkpt>
      <trkpt lat="44.93219" lon="6.8269">
        <ele>1500</ele>
        <time>2014-07-31T11:27:16.180Z</time>
      </trkpt>
      <trkpt lat="44.93218" lon="6.82688">
        <ele>1500</ele>
        <time>2014-07-31T11:27:17.240Z</time>
      </trkpt>
      <trkpt lat="44.93216" lon="6.82687">
        <ele>1500</ele>
        <time>2014-07-31T11:27:18.280Z</time>
      </trkpt>
      <trkpt lat="44.93213" lon="6.82685">
        <ele>1500</ele>
        <time>2014-07-31T11:27:20.250Z</time>
      </trkpt>
      <trkpt lat="44.93211" lon="6.82684">
        <ele>1500</ele>
        <time>2014-07-31T11:27:21.280Z</time>
      </trkpt>
      <trkpt lat="44.93209" lon="6.82683">
        <ele>1500</ele>
        <time>2014-07-31T11:27:22.280Z</time>
      </trkpt>
      <trkpt lat="44.93208" lon="6.82681">
        <ele>1500</ele>
        <time>2014-07-31T11:27:23.280Z</time>
      </trkpt>
      <trkpt lat="44.93206" lon="6.8268">
        <ele>1500</ele>
        <time>2014-07-31T11:27:24.280Z</time>
      </trkpt>
      <trkpt lat="44.93205" lon="6.82679">
        <ele>1501.4</ele>
        <time>2014-07-31T11:27:25.280Z</time>
      </trkpt>
      <trkpt lat="44.93203" lon="6.82678">
        <ele>1502</ele>
        <time>2014-07-31T11:27:26.280Z</time>
      </trkpt>
      <trkpt lat="44.93201" lon="6.82676">
        <ele>1502</ele>
        <time>2014-07-31T11:27:27.280Z</time>
      </trkpt>
      <trkpt lat="44.932" lon="6.82674">
        <ele>1502</ele>
        <time>2014-07-31T11:27:28.280Z</time>
      </trkpt>
      <trkpt lat="44.93198" lon="6.82673">
        <ele>1502</ele>
        <time>2014-07-31T11:27:29.280Z</time>
      </trkpt>
      <trkpt lat="44.93197" lon="6.82671">
        <ele>1502</ele>
        <time>2014-07-31T11:27:30.280Z</time>
      </trkpt>
      <trkpt lat="44.93196" lon="6.82669">
        <ele>1502</ele>
        <time>2014-07-31T11:27:31.380Z</time>
      </trkpt>
      <trkpt lat="44.93192" lon="6.82667">
        <ele>1502</ele>
        <time>2014-07-31T11:27:33.180Z</time>
      </trkpt>
      <trkpt lat="44.9319" lon="6.82665">
        <ele>1502</ele>
        <time>2014-07-31T11:27:34.240Z</time>
      </trkpt>
      <trkpt lat="44.93189" lon="6.82663">
        <ele>1502.7</ele>
        <time>2014-07-31T11:27:35.280Z</time>
      </trkpt>
      <trkpt lat="44.93188" lon="6.82662">
        <ele>1503</ele>
        <time>2014-07-31T11:27:36.280Z</time>
      </trkpt>
      <trkpt lat="44.93185" lon="6.82658">
        <ele>1503</ele>
        <time>2014-07-31T11:27:38.280Z</time>
      </trkpt>
      <trkpt lat="44.93183" lon="6.82656">
        <ele>1503</ele>
        <time>2014-07-31T11:27:39.280Z</time>
      </trkpt>
      <trkpt lat="44.93182" lon="6.82655">
        <ele>1503</ele>
        <time>2014-07-31T11:27:40.280Z</time>
      </trkpt>
      <trkpt lat="44.9318" lon="6.82653">
        <ele>1503</ele>
        <time>2014-07-31T11:27:41.280Z</time>
      </trkpt>
      <trkpt lat="44.93179" lon="6.82651">
        <ele>1503</ele>
        <time>2014-07-31T11:27:42.280Z</time>
      </trkpt>
      <trkpt lat="44.93176" lon="6.82649">
        <ele>1503</ele>
        <time>2014-07-31T11:27:44.180Z</time>
      </trkpt>
      <trkpt lat="44.93174" lon="6.82647">
        <ele>1504.2</ele>
        <time>2014-07-31T11:27:45.180Z</time>
      </trkpt>
      <trkpt lat="44.93172" lon="6.82646">
        <ele>1505</ele>
        <time>2014-07-31T11:27:46.180Z</time>
      </trkpt>
      <trkpt lat="44.93171" lon="6.82644">
        <ele>1505</ele>
        <time>2014-07-31T11:27:47.180Z</time>
      </trkpt>
      <trkpt lat="44.93169" lon="6.82642">
        <ele>1505</ele>
        <time>2014-07-31T11:27:48.280Z</time>
      </trkpt>
      <trkpt lat="44.93167" lon="6.8264">
        <ele>1505</ele>
        <time>2014-07-31T11:27:49.280Z</time>
      </trkpt>
      <trkpt lat="44.93166" lon="6.82639">
        <ele>1505</ele>
        <time>2014-07-31T11:27:50.280Z</time>
      </trkpt>
      <trkpt lat="44.93162" lon="6.82635">
        <ele>1505</ele>
        <time>2014-07-31T11:27:52.180Z</time>
      </trkpt>
      <trkpt lat="44.9316" lon="6.82634">
        <ele>1505</ele>
        <time>2014-07-31T11:27:53.280Z</time>
      </trkpt>
      <trkpt lat="44.93158" lon="6.8263">
        <ele>1506.2</ele>
        <time>2014-07-31T11:27:55.180Z</time>
      </trkpt>
      <trkpt lat="44.93157" lon="6.82629">
        <ele>1507</ele>
        <time>2014-07-31T11:27:56.180Z</time>
      </trkpt>
      <trkpt lat="44.93155" lon="6.82627">
        <ele>1507</ele>
        <time>2014-07-31T11:27:57.180Z</time>
      </trkpt>
      <trkpt lat="44.93153" lon="6.82626">
        <ele>1507</ele>
        <time>2014-07-31T11:27:58.280Z</time>
      </trkpt>
      <trkpt lat="44.93152" lon="6.82625">
        <ele>1507</ele>
        <time>2014-07-31T11:27:59.280Z</time>
      </trkpt>
      <trkpt lat="44.9315" lon="6.82622">
        <ele>1507</ele>
        <time>2014-07-31T11:28:01.180Z</time>
      </trkpt>
      <trkpt lat="44.93149" lon="6.8262">
        <ele>1507</ele>
        <time>2014-07-31T11:28:02.180Z</time>
      </trkpt>
      <trkpt lat="44.93147" lon="6.82619">
        <ele>1507</ele>
        <time>2014-07-31T11:28:03.280Z</time>
      </trkpt>
      <trkpt lat="44.93144" lon="6.82617">
        <ele>1508.4</ele>
        <time>2014-07-31T11:28:05.280Z</time>
      </trkpt>
      <trkpt lat="44.93142" lon="6.82616">
        <ele>1509</ele>
        <time>2014-07-31T11:28:06.280Z</time>
      </trkpt>
      <trkpt lat="44.9314" lon="6.82614">
        <ele>1509</ele>
        <time>2014-07-31T11:28:07.280Z</time>
      </trkpt>
      <trkpt lat="44.93137" lon="6.82612">
        <ele>1509</ele>
        <time>2014-07-31T11:28:09.180Z</time>
      </trkpt>
      <trkpt lat="44.93135" lon="6.82611">
        <ele>1509</ele>
        <time>2014-07-31T11:28:10.180Z</time>
      </trkpt>
      <trkpt lat="44.93134" lon="6.8261">
        <ele>1509</ele>
        <time>2014-07-31T11:28:11.250Z</time>
      </trkpt>
      <trkpt lat="44.93132" lon="6.82609">
        <ele>1509</ele>
        <time>2014-07-31T11:28:12.280Z</time>
      </trkpt>
      <trkpt lat="44.93128" lon="6.82607">
        <ele>1509</ele>
        <time>2014-07-31T11:28:14.180Z</time>
      </trkpt>
      <trkpt lat="44.93126" lon="6.82607">
        <ele>1509.7</ele>
        <time>2014-07-31T11:28:15.270Z</time>
      </trkpt>
      <trkpt lat="44.93124" lon="6.82605">
        <ele>1510</ele>
        <time>2014-07-31T11:28:16.280Z</time>
      </trkpt>
      <trkpt lat="44.93121" lon="6.82603">
        <ele>1510</ele>
        <time>2014-07-31T11:28:18.180Z</time>
      </trkpt>
      <trkpt lat="44.93119" lon="6.82603">
        <ele>1510</ele>
        <time>2014-07-31T11:28:19.180Z</time>
      </trkpt>
      <trkpt lat="44.93117" lon="6.82601">
        <ele>1510</ele>
        <time>2014-07-31T11:28:20.180Z</time>
      </trkpt>
      <trkpt lat="44.93115" lon="6.826">
        <ele>1510</ele>
        <time>2014-07-31T11:28:21.180Z</time>
      </trkpt>
      <trkpt lat="44.93114" lon="6.82598">
        <ele>1510</ele>
        <time>2014-07-31T11:28:22.280Z</time>
      </trkpt>
      <trkpt lat="44.93112" lon="6.82597">
        <ele>1510</ele>
        <time>2014-07-31T11:28:23.180Z</time>
      </trkpt>
      <trkpt lat="44.93111" lon="6.82595">
        <ele>1510</ele>
        <time>2014-07-31T11:28:24.180Z</time>
      </trkpt>
      <trkpt lat="44.93109" lon="6.82593">
        <ele>1511.2</ele>
        <time>2014-07-31T11:28:25.180Z</time>
      </trkpt>
      <trkpt lat="44.93106" lon="6.82591">
        <ele>1512</ele>
        <time>2014-07-31T11:28:27.180Z</time>
      </trkpt>
      <trkpt lat="44.93104" lon="6.82589">
        <ele>1512</ele>
        <time>2014-07-31T11:28:28.250Z</time>
      </trkpt>
      <trkpt lat="44.93102" lon="6.82587">
        <ele>1512</ele>
        <time>2014-07-31T11:28:29.280Z</time>
      </trkpt>
      <trkpt lat="44.931" lon="6.82585">
        <ele>1512</ele>
        <time>2014-07-31T11:28:30.280Z</time>
      </trkpt>
      <trkpt lat="44.93099" lon="6.82583">
        <ele>1512</ele>
        <time>2014-07-31T11:28:31.280Z</time>
      </trkpt>
      <trkpt lat="44.93098" lon="6.82581">
        <ele>1512</ele>
        <time>2014-07-31T11:28:32.280Z</time>
      </trkpt>
      <trkpt lat="44.93097" lon="6.82578">
        <ele>1512</ele>
        <time>2014-07-31T11:28:33.280Z</time>
      </trkpt>
      <trkpt lat="44.93094" lon="6.82574">
        <ele>1513.2</ele>
        <time>2014-07-31T11:28:35.180Z</time>
      </trkpt>
      <trkpt lat="44.93093" lon="6.82571">
        <ele>1514</ele>
        <time>2014-07-31T11:28:36.250Z</time>
      </trkpt>
      <trkpt lat="44.93092" lon="6.82569">
        <ele>1514</ele>
        <time>2014-07-31T11:28:37.280Z</time>
      </trkpt>
      <trkpt lat="44.93089" lon="6.82563">
        <ele>1514</ele>
        <time>2014-07-31T11:28:39.180Z</time>
      </trkpt>
      <trkpt lat="44.93089" lon="6.82561">
        <ele>1514</ele>
        <time>2014-07-31T11:28:40.180Z</time>
      </trkpt>
      <trkpt lat="44.93087" lon="6.82559">
        <ele>1514</ele>
        <time>2014-07-31T11:28:41.180Z</time>
      </trkpt>
      <trkpt lat="44.93086" lon="6.82556">
        <ele>1514</ele>
        <time>2014-07-31T11:28:42.180Z</time>
      </trkpt>
      <trkpt lat="44.93085" lon="6.82554">
        <ele>1514</ele>
        <time>2014-07-31T11:28:43.280Z</time>
      </trkpt>
      <trkpt lat="44.93085" lon="6.82551">
        <ele>1514</ele>
        <time>2014-07-31T11:28:44.280Z</time>
      </trkpt>
      <trkpt lat="44.93084" lon="6.82545">
        <ele>1515</ele>
        <time>2014-07-31T11:28:46.180Z</time>
      </trkpt>
      <trkpt lat="44.93083" lon="6.82543">
        <ele>1515</ele>
        <time>2014-07-31T11:28:47.180Z</time>
      </trkpt>
      <trkpt lat="44.93082" lon="6.8254">
        <ele>1515</ele>
        <time>2014-07-31T11:28:48.280Z</time>
      </trkpt>
      <trkpt lat="44.93081" lon="6.82538">
        <ele>1515</ele>
        <time>2014-07-31T11:28:49.280Z</time>
      </trkpt>
      <trkpt lat="44.9308" lon="6.82536">
        <ele>1515</ele>
        <time>2014-07-31T11:28:50.280Z</time>
      </trkpt>
      <trkpt lat="44.93079" lon="6.82531">
        <ele>1515</ele>
        <time>2014-07-31T11:28:52.180Z</time>
      </trkpt>
      <trkpt lat="44.93078" lon="6.82529">
        <ele>1515</ele>
        <time>2014-07-31T11:28:53.280Z</time>
      </trkpt>
      <trkpt lat="44.93077" lon="6.82526">
        <ele>1515</ele>
        <time>2014-07-31T11:28:54.280Z</time>
      </trkpt>
      <trkpt lat="44.93075" lon="6.82524">
        <ele>1516.4</ele>
        <time>2014-07-31T11:28:55.280Z</time>
      </trkpt>
      <trkpt lat="44.93074" lon="6.82522">
        <ele>1517</ele>
        <time>2014-07-31T11:28:56.280Z</time>
      </trkpt>
      <trkpt lat="44.93072" lon="6.82517">
        <ele>1517</ele>
        <time>2014-07-31T11:28:58.280Z</time>
      </trkpt>
      <trkpt lat="44.93071" lon="6.82515">
        <ele>1517</ele>
        <time>2014-07-31T11:28:59.290Z</time>
      </trkpt>
      <trkpt lat="44.93069" lon="6.8251">
        <ele>1517</ele>
        <time>2014-07-31T11:29:01.180Z</time>
      </trkpt>
      <trkpt lat="44.93068" lon="6.82508">
        <ele>1517</ele>
        <time>2014-07-31T11:29:02.250Z</time>
      </trkpt>
      <trkpt lat="44.93064" lon="6.82503">
        <ele>1517</ele>
        <time>2014-07-31T11:29:04.180Z</time>
      </trkpt>
      <trkpt lat="44.93063" lon="6.82501">
        <ele>1518.4</ele>
        <time>2014-07-31T11:29:05.280Z</time>
      </trkpt>
      <trkpt lat="44.93062" lon="6.82499">
        <ele>1519</ele>
        <time>2014-07-31T11:29:06.280Z</time>
      </trkpt>
      <trkpt lat="44.93062" lon="6.82497">
        <ele>1519</ele>
        <time>2014-07-31T11:29:07.280Z</time>
      </trkpt>
      <trkpt lat="44.9306" lon="6.82493">
        <ele>1519</ele>
        <time>2014-07-31T11:29:09.270Z</time>
      </trkpt>
      <trkpt lat="44.93059" lon="6.82491">
        <ele>1519</ele>
        <time>2014-07-31T11:29:10.280Z</time>
      </trkpt>
      <trkpt lat="44.93058" lon="6.82489">
        <ele>1519</ele>
        <time>2014-07-31T11:29:11.280Z</time>
      </trkpt>
      <trkpt lat="44.93055" lon="6.82485">
        <ele>1519</ele>
        <time>2014-07-31T11:29:13.280Z</time>
      </trkpt>
      <trkpt lat="44.93054" lon="6.82484">
        <ele>1519</ele>
        <time>2014-07-31T11:29:14.280Z</time>
      </trkpt>
      <trkpt lat="44.93052" lon="6.82482">
        <ele>1519.7</ele>
        <time>2014-07-31T11:29:15.280Z</time>
      </trkpt>
      <trkpt lat="44.93051" lon="6.82481">
        <ele>1520</ele>
        <time>2014-07-31T11:29:16.280Z</time>
      </trkpt>
      <trkpt lat="44.93048" lon="6.82478">
        <ele>1520</ele>
        <time>2014-07-31T11:29:18.180Z</time>
      </trkpt>
      <trkpt lat="44.93046" lon="6.82477">
        <ele>1520</ele>
        <time>2014-07-31T11:29:19.250Z</time>
      </trkpt>
      <trkpt lat="44.93044" lon="6.82472">
        <ele>1520</ele>
        <time>2014-07-31T11:29:21.280Z</time>
      </trkpt>
      <trkpt lat="44.93045" lon="6.82471">
        <ele>1520</ele>
        <time>2014-07-31T11:29:22.280Z</time>
      </trkpt>
      <trkpt lat="44.93046" lon="6.82471">
        <ele>1520</ele>
        <time>2014-07-31T11:29:24.280Z</time>
      </trkpt>
      <trkpt lat="44.93047" lon="6.82469">
        <ele>1520.8</ele>
        <time>2014-07-31T11:29:25.380Z</time>
      </trkpt>
      <trkpt lat="44.93048" lon="6.82468">
        <ele>1521</ele>
        <time>2014-07-31T11:29:27.280Z</time>
      </trkpt>
      <trkpt lat="44.93048" lon="6.82466">
        <ele>1521</ele>
        <time>2014-07-31T11:29:28.280Z</time>
      </trkpt>
      <trkpt lat="44.93048" lon="6.82464">
        <ele>1521</ele>
        <time>2014-07-31T11:29:30.280Z</time>
      </trkpt>
      <trkpt lat="44.93046" lon="6.82462">
        <ele>1521</ele>
        <time>2014-07-31T11:29:32.180Z</time>
      </trkpt>
      <trkpt lat="44.93044" lon="6.82461">
        <ele>1521</ele>
        <time>2014-07-31T11:29:33.180Z</time>
      </trkpt>
      <trkpt lat="44.93043" lon="6.82458">
        <ele>1521</ele>
        <time>2014-07-31T11:29:34.180Z</time>
      </trkpt>
      <trkpt lat="44.93039" lon="6.82455">
        <ele>1523</ele>
        <time>2014-07-31T11:29:36.250Z</time>
      </trkpt>
      <trkpt lat="44.93037" lon="6.82453">
        <ele>1523</ele>
        <time>2014-07-31T11:29:37.280Z</time>
      </trkpt>
      <trkpt lat="44.93034" lon="6.8245">
        <ele>1523</ele>
        <time>2014-07-31T11:29:39.180Z</time>
      </trkpt>
      <trkpt lat="44.93032" lon="6.82449">
        <ele>1523</ele>
        <time>2014-07-31T11:29:40.180Z</time>
      </trkpt>
      <trkpt lat="44.93031" lon="6.82447">
        <ele>1523</ele>
        <time>2014-07-31T11:29:41.180Z</time>
      </trkpt>
      <trkpt lat="44.9303" lon="6.82444">
        <ele>1523</ele>
        <time>2014-07-31T11:29:42.270Z</time>
      </trkpt>
      <trkpt lat="44.9303" lon="6.82442">
        <ele>1523</ele>
        <time>2014-07-31T11:29:43.280Z</time>
      </trkpt>
      <trkpt lat="44.93029" lon="6.8244">
        <ele>1523</ele>
        <time>2014-07-31T11:29:44.280Z</time>
      </trkpt>
      <trkpt lat="44.93028" lon="6.82437">
        <ele>1524.4</ele>
        <time>2014-07-31T11:29:45.280Z</time>
      </trkpt>
      <trkpt lat="44.93026" lon="6.82432">
        <ele>1525</ele>
        <time>2014-07-31T11:29:47.180Z</time>
      </trkpt>
      <trkpt lat="44.93025" lon="6.82431">
        <ele>1525</ele>
        <time>2014-07-31T11:29:48.280Z</time>
      </trkpt>
      <trkpt lat="44.93024" lon="6.82429">
        <ele>1525</ele>
        <time>2014-07-31T11:29:49.280Z</time>
      </trkpt>
      <trkpt lat="44.9302" lon="6.82427">
        <ele>1525</ele>
        <time>2014-07-31T11:29:51.240Z</time>
      </trkpt>
      <trkpt lat="44.93015" lon="6.82426">
        <ele>1525</ele>
        <time>2014-07-31T11:29:53.150Z</time>
      </trkpt>
      <trkpt lat="44.93013" lon="6.82426">
        <ele>1525</ele>
        <time>2014-07-31T11:29:54.180Z</time>
      </trkpt>
      <trkpt lat="44.93012" lon="6.82424">
        <ele>1525.6</ele>
        <time>2014-07-31T11:29:55.180Z</time>
      </trkpt>
      <trkpt lat="44.93011" lon="6.82423">
        <ele>1526</ele>
        <time>2014-07-31T11:29:56.180Z</time>
      </trkpt>
      <trkpt lat="44.9301" lon="6.82421">
        <ele>1526</ele>
        <time>2014-07-31T11:29:57.180Z</time>
      </trkpt>
      <trkpt lat="44.9301" lon="6.82419">
        <ele>1526</ele>
        <time>2014-07-31T11:29:58.280Z</time>
      </trkpt>
      <trkpt lat="44.93009" lon="6.82416">
        <ele>1526</ele>
        <time>2014-07-31T11:29:59.280Z</time>
      </trkpt>
      <trkpt lat="44.93007" lon="6.82411">
        <ele>1526</ele>
        <time>2014-07-31T11:30:01.180Z</time>
      </trkpt>
      <trkpt lat="44.93006" lon="6.82409">
        <ele>1526</ele>
        <time>2014-07-31T11:30:02.180Z</time>
      </trkpt>
      <trkpt lat="44.93005" lon="6.82407">
        <ele>1526</ele>
        <time>2014-07-31T11:30:03.280Z</time>
      </trkpt>
      <trkpt lat="44.93005" lon="6.82402">
        <ele>1527.2</ele>
        <time>2014-07-31T11:30:05.180Z</time>
      </trkpt>
      <trkpt lat="44.93004" lon="6.824">
        <ele>1528</ele>
        <time>2014-07-31T11:30:06.180Z</time>
      </trkpt>
      <trkpt lat="44.93003" lon="6.82398">
        <ele>1528</ele>
        <time>2014-07-31T11:30:07.180Z</time>
      </trkpt>
      <trkpt lat="44.93002" lon="6.82397">
        <ele>1528</ele>
        <time>2014-07-31T11:30:08.180Z</time>
      </trkpt>
      <trkpt lat="44.93001" lon="6.82395">
        <ele>1528</ele>
        <time>2014-07-31T11:30:09.180Z</time>
      </trkpt>
      <trkpt lat="44.93" lon="6.82393">
        <ele>1528</ele>
        <time>2014-07-31T11:30:10.250Z</time>
      </trkpt>
      <trkpt lat="44.93" lon="6.82392">
        <ele>1528</ele>
        <time>2014-07-31T11:30:11.280Z</time>
      </trkpt>
      <trkpt lat="44.92998" lon="6.82391">
        <ele>1528</ele>
        <time>2014-07-31T11:30:12.280Z</time>
      </trkpt>
      <trkpt lat="44.92995" lon="6.82391">
        <ele>1528</ele>
        <time>2014-07-31T11:30:14.180Z</time>
      </trkpt>
      <trkpt lat="44.92993" lon="6.82391">
        <ele>1529.4</ele>
        <time>2014-07-31T11:30:15.280Z</time>
      </trkpt>
      <trkpt lat="44.92992" lon="6.82391">
        <ele>1530</ele>
        <time>2014-07-31T11:30:16.280Z</time>
      </trkpt>
      <trkpt lat="44.92989" lon="6.8239">
        <ele>1530</ele>
        <time>2014-07-31T11:30:18.280Z</time>
      </trkpt>
      <trkpt lat="44.92986" lon="6.82388">
        <ele>1530</ele>
        <time>2014-07-31T11:30:20.180Z</time>
      </trkpt>
      <trkpt lat="44.92984" lon="6.82388">
        <ele>1530</ele>
        <time>2014-07-31T11:30:21.180Z</time>
      </trkpt>
      <trkpt lat="44.92982" lon="6.82388">
        <ele>1530</ele>
        <time>2014-07-31T11:30:22.180Z</time>
      </trkpt>
      <trkpt lat="44.92979" lon="6.82388">
        <ele>1530</ele>
        <time>2014-07-31T11:30:23.180Z</time>
      </trkpt>
      <trkpt lat="44.92977" lon="6.82389">
        <ele>1530</ele>
        <time>2014-07-31T11:30:24.270Z</time>
      </trkpt>
      <trkpt lat="44.92976" lon="6.82388">
        <ele>1530.7</ele>
        <time>2014-07-31T11:30:25.280Z</time>
      </trkpt>
      <trkpt lat="44.92973" lon="6.82387">
        <ele>1531</ele>
        <time>2014-07-31T11:30:27.190Z</time>
      </trkpt>
      <trkpt lat="44.92971" lon="6.82387">
        <ele>1531</ele>
        <time>2014-07-31T11:30:28.280Z</time>
      </trkpt>
      <trkpt lat="44.9297" lon="6.82387">
        <ele>1531</ele>
        <time>2014-07-31T11:30:29.280Z</time>
      </trkpt>
      <trkpt lat="44.92966" lon="6.82387">
        <ele>1531</ele>
        <time>2014-07-31T11:30:31.180Z</time>
      </trkpt>
      <trkpt lat="44.92964" lon="6.82386">
        <ele>1531</ele>
        <time>2014-07-31T11:30:32.180Z</time>
      </trkpt>
      <trkpt lat="44.92962" lon="6.82387">
        <ele>1531</ele>
        <time>2014-07-31T11:30:33.180Z</time>
      </trkpt>
      <trkpt lat="44.9296" lon="6.82388">
        <ele>1531</ele>
        <time>2014-07-31T11:30:34.240Z</time>
      </trkpt>
      <trkpt lat="44.92957" lon="6.82388">
        <ele>1532</ele>
        <time>2014-07-31T11:30:36.280Z</time>
      </trkpt>
      <trkpt lat="44.92956" lon="6.82388">
        <ele>1532</ele>
        <time>2014-07-31T11:30:37.280Z</time>
      </trkpt>
      <trkpt lat="44.92953" lon="6.82388">
        <ele>1532</ele>
        <time>2014-07-31T11:30:39.180Z</time>
      </trkpt>
      <trkpt lat="44.92951" lon="6.82388">
        <ele>1532</ele>
        <time>2014-07-31T11:30:40.180Z</time>
      </trkpt>
      <trkpt lat="44.92949" lon="6.82388">
        <ele>1532</ele>
        <time>2014-07-31T11:30:41.180Z</time>
      </trkpt>
      <trkpt lat="44.92948" lon="6.82388">
        <ele>1532</ele>
        <time>2014-07-31T11:30:42.180Z</time>
      </trkpt>
      <trkpt lat="44.92946" lon="6.82388">
        <ele>1532</ele>
        <time>2014-07-31T11:30:43.280Z</time>
      </trkpt>
      <trkpt lat="44.92942" lon="6.82387">
        <ele>1533.3</ele>
        <time>2014-07-31T11:30:45.200Z</time>
      </trkpt>
      <trkpt lat="44.92938" lon="6.82386">
        <ele>1534</ele>
        <time>2014-07-31T11:30:47.280Z</time>
      </trkpt>
      <trkpt lat="44.92935" lon="6.82385">
        <ele>1534</ele>
        <time>2014-07-31T11:30:49.180Z</time>
      </trkpt>
      <trkpt lat="44.92934" lon="6.82384">
        <ele>1534</ele>
        <time>2014-07-31T11:30:50.180Z</time>
      </trkpt>
      <trkpt lat="44.92932" lon="6.82383">
        <ele>1534</ele>
        <time>2014-07-31T11:30:51.240Z</time>
      </trkpt>
      <trkpt lat="44.92931" lon="6.82382">
        <ele>1534</ele>
        <time>2014-07-31T11:30:52.280Z</time>
      </trkpt>
      <trkpt lat="44.92928" lon="6.82378">
        <ele>1534</ele>
        <time>2014-07-31T11:30:54.280Z</time>
      </trkpt>
      <trkpt lat="44.92926" lon="6.82376">
        <ele>1534.6</ele>
        <time>2014-07-31T11:30:55.180Z</time>
      </trkpt>
      <trkpt lat="44.92924" lon="6.82375">
        <ele>1535</ele>
        <time>2014-07-31T11:30:56.200Z</time>
      </trkpt>
      <trkpt lat="44.92922" lon="6.82373">
        <ele>1535</ele>
        <time>2014-07-31T11:30:57.280Z</time>
      </trkpt>
      <trkpt lat="44.9292" lon="6.8237">
        <ele>1535</ele>
        <time>2014-07-31T11:30:59.180Z</time>
      </trkpt>
      <trkpt lat="44.92918" lon="6.82368">
        <ele>1535</ele>
        <time>2014-07-31T11:31:00.140Z</time>
      </trkpt>
      <trkpt lat="44.92917" lon="6.82366">
        <ele>1535</ele>
        <time>2014-07-31T11:31:01.250Z</time>
      </trkpt>
      <trkpt lat="44.92915" lon="6.82365">
        <ele>1535</ele>
        <time>2014-07-31T11:31:02.280Z</time>
      </trkpt>
      <trkpt lat="44.92913" lon="6.8236">
        <ele>1535</ele>
        <time>2014-07-31T11:31:04.180Z</time>
      </trkpt>
      <trkpt lat="44.92912" lon="6.82358">
        <ele>1536.2</ele>
        <time>2014-07-31T11:31:05.180Z</time>
      </trkpt>
      <trkpt lat="44.9291" lon="6.82355">
        <ele>1537</ele>
        <time>2014-07-31T11:31:06.180Z</time>
      </trkpt>
      <trkpt lat="44.92909" lon="6.82353">
        <ele>1537</ele>
        <time>2014-07-31T11:31:07.180Z</time>
      </trkpt>
      <trkpt lat="44.92907" lon="6.82351">
        <ele>1537</ele>
        <time>2014-07-31T11:31:08.280Z</time>
      </trkpt>
      <trkpt lat="44.92906" lon="6.82349">
        <ele>1537</ele>
        <time>2014-07-31T11:31:09.280Z</time>
      </trkpt>
      <trkpt lat="44.92904" lon="6.82347">
        <ele>1537</ele>
        <time>2014-07-31T11:31:10.280Z</time>
      </trkpt>
      <trkpt lat="44.92903" lon="6.82345">
        <ele>1537</ele>
        <time>2014-07-31T11:31:11.280Z</time>
      </trkpt>
      <trkpt lat="44.92902" lon="6.82343">
        <ele>1537</ele>
        <time>2014-07-31T11:31:12.280Z</time>
      </trkpt>
      <trkpt lat="44.92899" lon="6.8234">
        <ele>1537</ele>
        <time>2014-07-31T11:31:14.180Z</time>
      </trkpt>
      <trkpt lat="44.92898" lon="6.82338">
        <ele>1538.2</ele>
        <time>2014-07-31T11:31:15.180Z</time>
      </trkpt>
      <trkpt lat="44.92896" lon="6.82337">
        <ele>1539</ele>
        <time>2014-07-31T11:31:16.180Z</time>
      </trkpt>
      <trkpt lat="44.92895" lon="6.82336">
        <ele>1539</ele>
        <time>2014-07-31T11:31:17.200Z</time>
      </trkpt>
      <trkpt lat="44.92892" lon="6.82334">
        <ele>1539</ele>
        <time>2014-07-31T11:31:19.180Z</time>
      </trkpt>
      <trkpt lat="44.92891" lon="6.82332">
        <ele>1539</ele>
        <time>2014-07-31T11:31:20.180Z</time>
      </trkpt>
      <trkpt lat="44.9289" lon="6.82331">
        <ele>1539</ele>
        <time>2014-07-31T11:31:21.180Z</time>
      </trkpt>
      <trkpt lat="44.92889" lon="6.8233">
        <ele>1539</ele>
        <time>2014-07-31T11:31:22.180Z</time>
      </trkpt>
      <trkpt lat="44.92888" lon="6.82329">
        <ele>1539</ele>
        <time>2014-07-31T11:31:23.280Z</time>
      </trkpt>
      <trkpt lat="44.92887" lon="6.82329">
        <ele>1539</ele>
        <time>2014-07-31T11:31:24.280Z</time>
      </trkpt>
      <trkpt lat="44.92885" lon="6.82328">
        <ele>1540.4</ele>
        <time>2014-07-31T11:31:25.280Z</time>
      </trkpt>
      <trkpt lat="44.92884" lon="6.82326">
        <ele>1541</ele>
        <time>2014-07-31T11:31:26.280Z</time>
      </trkpt>
      <trkpt lat="44.92883" lon="6.82323">
        <ele>1541</ele>
        <time>2014-07-31T11:31:28.280Z</time>
      </trkpt>
      <trkpt lat="44.92881" lon="6.82322">
        <ele>1541</ele>
        <time>2014-07-31T11:31:29.280Z</time>
      </trkpt>
      <trkpt lat="44.9288" lon="6.8232">
        <ele>1541</ele>
        <time>2014-07-31T11:31:30.280Z</time>
      </trkpt>
      <trkpt lat="44.9288" lon="6.8232">
        <ele>1541</ele>
        <time>2014-07-31T11:31:31.280Z</time>
      </trkpt>
      <trkpt lat="44.92878" lon="6.82318">
        <ele>1541</ele>
        <time>2014-07-31T11:31:33.280Z</time>
      </trkpt>
      <trkpt lat="44.92876" lon="6.82317">
        <ele>1542.3</ele>
        <time>2014-07-31T11:31:35.250Z</time>
      </trkpt>
      <trkpt lat="44.92875" lon="6.82317">
        <ele>1543</ele>
        <time>2014-07-31T11:31:37.280Z</time>
      </trkpt>
      <trkpt lat="44.92874" lon="6.8232">
        <ele>1543</ele>
        <time>2014-07-31T11:31:39.270Z</time>
      </trkpt>
      <trkpt lat="44.92875" lon="6.82321">
        <ele>1543</ele>
        <time>2014-07-31T11:31:40.280Z</time>
      </trkpt>
      <trkpt lat="44.92876" lon="6.82323">
        <ele>1543</ele>
        <time>2014-07-31T11:31:42.280Z</time>
      </trkpt>
      <trkpt lat="44.92878" lon="6.82325">
        <ele>1543</ele>
        <time>2014-07-31T11:31:44.180Z</time>
      </trkpt>
      <trkpt lat="44.92879" lon="6.82327">
        <ele>1544</ele>
        <time>2014-07-31T11:31:46.180Z</time>
      </trkpt>
      <trkpt lat="44.92879" lon="6.82329">
        <ele>1544</ele>
        <time>2014-07-31T11:31:47.180Z</time>
      </trkpt>
      <trkpt lat="44.9288" lon="6.8233">
        <ele>1544</ele>
        <time>2014-07-31T11:31:48.180Z</time>
      </trkpt>
      <trkpt lat="44.9288" lon="6.82332">
        <ele>1544</ele>
        <time>2014-07-31T11:31:49.180Z</time>
      </trkpt>
      <trkpt lat="44.92881" lon="6.82333">
        <ele>1544</ele>
        <time>2014-07-31T11:31:50.270Z</time>
      </trkpt>
      <trkpt lat="44.92881" lon="6.82336">
        <ele>1544</ele>
        <time>2014-07-31T11:31:53.280Z</time>
      </trkpt>
      <trkpt lat="44.92882" lon="6.82338">
        <ele>1544</ele>
        <time>2014-07-31T11:31:54.280Z</time>
      </trkpt>
      <trkpt lat="44.92881" lon="6.82341">
        <ele>1546</ele>
        <time>2014-07-31T11:31:56.280Z</time>
      </trkpt>
      <trkpt lat="44.92881" lon="6.82342">
        <ele>1546</ele>
        <time>2014-07-31T11:31:57.280Z</time>
      </trkpt>
      <trkpt lat="44.92882" lon="6.82345">
        <ele>1546</ele>
        <time>2014-07-31T11:31:59.280Z</time>
      </trkpt>
      <trkpt lat="44.92882" lon="6.82347">
        <ele>1546</ele>
        <time>2014-07-31T11:32:00.240Z</time>
      </trkpt>
      <trkpt lat="44.92883" lon="6.8235">
        <ele>1546</ele>
        <time>2014-07-31T11:32:02.280Z</time>
      </trkpt>
      <trkpt lat="44.92884" lon="6.82353">
        <ele>1546</ele>
        <time>2014-07-31T11:32:04.180Z</time>
      </trkpt>
      <trkpt lat="44.92885" lon="6.82357">
        <ele>1547.8</ele>
        <time>2014-07-31T11:32:05.180Z</time>
      </trkpt>
      <trkpt lat="44.92886" lon="6.8236">
        <ele>1549</ele>
        <time>2014-07-31T11:32:06.180Z</time>
      </trkpt>
      <trkpt lat="44.92887" lon="6.82362">
        <ele>1549</ele>
        <time>2014-07-31T11:32:07.180Z</time>
      </trkpt>
      <trkpt lat="44.92888" lon="6.82364">
        <ele>1549</ele>
        <time>2014-07-31T11:32:08.280Z</time>
      </trkpt>
      <trkpt lat="44.92891" lon="6.82369">
        <ele>1549.6</ele>
        <time>2014-07-31T11:32:10.180Z</time>
      </trkpt>
      <trkpt lat="44.92892" lon="6.8237">
        <ele>1550</ele>
        <time>2014-07-31T11:32:11.280Z</time>
      </trkpt>
      <trkpt lat="44.92892" lon="6.82372">
        <ele>1550</ele>
        <time>2014-07-31T11:32:12.280Z</time>
      </trkpt>
      <trkpt lat="44.92891" lon="6.82375">
        <ele>1550</ele>
        <time>2014-07-31T11:32:14.180Z</time>
      </trkpt>
      <trkpt lat="44.92891" lon="6.82378">
        <ele>1552</ele>
        <time>2014-07-31T11:32:16.180Z</time>
      </trkpt>
      <trkpt lat="44.9289" lon="6.8238">
        <ele>1552</ele>
        <time>2014-07-31T11:32:17.240Z</time>
      </trkpt>
      <trkpt lat="44.92892" lon="6.82382">
        <ele>1554</ele>
        <time>2014-07-31T11:32:21.180Z</time>
      </trkpt>
      <trkpt lat="44.92893" lon="6.82382">
        <ele>1554</ele>
        <time>2014-07-31T11:32:25.280Z</time>
      </trkpt>
      <trkpt lat="44.92893" lon="6.82384">
        <ele>1554</ele>
        <time>2014-07-31T11:32:28.280Z</time>
      </trkpt>
      <trkpt lat="44.92894" lon="6.82386">
        <ele>1554</ele>
        <time>2014-07-31T11:32:30.280Z</time>
      </trkpt>
      <trkpt lat="44.92894" lon="6.82387">
        <ele>1554</ele>
        <time>2014-07-31T11:32:31.280Z</time>
      </trkpt>
      <trkpt lat="44.92893" lon="6.82389">
        <ele>1554</ele>
        <time>2014-07-31T11:32:32.280Z</time>
      </trkpt>
      <trkpt lat="44.92894" lon="6.82392">
        <ele>1554</ele>
        <time>2014-07-31T11:32:34.240Z</time>
      </trkpt>
      <trkpt lat="44.92895" lon="6.82394">
        <ele>1556</ele>
        <time>2014-07-31T11:32:36.280Z</time>
      </trkpt>
      <trkpt lat="44.92896" lon="6.82395">
        <ele>1556</ele>
        <time>2014-07-31T11:32:37.280Z</time>
      </trkpt>
      <trkpt lat="44.92897" lon="6.82397">
        <ele>1556</ele>
        <time>2014-07-31T11:32:38.280Z</time>
      </trkpt>
      <trkpt lat="44.92897" lon="6.82398">
        <ele>1556</ele>
        <time>2014-07-31T11:32:39.280Z</time>
      </trkpt>
      <trkpt lat="44.92898" lon="6.82399">
        <ele>1556</ele>
        <time>2014-07-31T11:32:40.280Z</time>
      </trkpt>
      <trkpt lat="44.92898" lon="6.82401">
        <ele>1556</ele>
        <time>2014-07-31T11:32:41.280Z</time>
      </trkpt>
      <trkpt lat="44.92898" lon="6.82404">
        <ele>1556</ele>
        <time>2014-07-31T11:32:44.180Z</time>
      </trkpt>
      <trkpt lat="44.92899" lon="6.82406">
        <ele>1558</ele>
        <time>2014-07-31T11:32:46.180Z</time>
      </trkpt>
      <trkpt lat="44.929" lon="6.82408">
        <ele>1558</ele>
        <time>2014-07-31T11:32:50.280Z</time>
      </trkpt>
      <trkpt lat="44.929" lon="6.8241">
        <ele>1558</ele>
        <time>2014-07-31T11:32:52.180Z</time>
      </trkpt>
      <trkpt lat="44.92901" lon="6.82412">
        <ele>1558</ele>
        <time>2014-07-31T11:32:54.280Z</time>
      </trkpt>
      <trkpt lat="44.92901" lon="6.82413">
        <ele>1558.7</ele>
        <time>2014-07-31T11:32:55.280Z</time>
      </trkpt>
      <trkpt lat="44.92902" lon="6.82415">
        <ele>1559</ele>
        <time>2014-07-31T11:32:56.280Z</time>
      </trkpt>
      <trkpt lat="44.92902" lon="6.82416">
        <ele>1559</ele>
        <time>2014-07-31T11:32:57.310Z</time>
      </trkpt>
      <trkpt lat="44.92903" lon="6.82418">
        <ele>1559</ele>
        <time>2014-07-31T11:32:58.280Z</time>
      </trkpt>
      <trkpt lat="44.92904" lon="6.82419">
        <ele>1559</ele>
        <time>2014-07-31T11:32:59.280Z</time>
      </trkpt>
      <trkpt lat="44.92905" lon="6.82421">
        <ele>1559</ele>
        <time>2014-07-31T11:33:00.260Z</time>
      </trkpt>
      <trkpt lat="44.92906" lon="6.82422">
        <ele>1559</ele>
        <time>2014-07-31T11:33:01.280Z</time>
      </trkpt>
      <trkpt lat="44.92907" lon="6.82424">
        <ele>1559</ele>
        <time>2014-07-31T11:33:02.280Z</time>
      </trkpt>
      <trkpt lat="44.92907" lon="6.82426">
        <ele>1559</ele>
        <time>2014-07-31T11:33:04.280Z</time>
      </trkpt>
      <trkpt lat="44.92908" lon="6.82428">
        <ele>1560.4</ele>
        <time>2014-07-31T11:33:05.280Z</time>
      </trkpt>
      <trkpt lat="44.92908" lon="6.8243">
        <ele>1561</ele>
        <time>2014-07-31T11:33:06.280Z</time>
      </trkpt>
      <trkpt lat="44.92909" lon="6.82432">
        <ele>1561</ele>
        <time>2014-07-31T11:33:08.280Z</time>
      </trkpt>
      <trkpt lat="44.92909" lon="6.82434">
        <ele>1561</ele>
        <time>2014-07-31T11:33:09.280Z</time>
      </trkpt>
      <trkpt lat="44.9291" lon="6.82436">
        <ele>1561</ele>
        <time>2014-07-31T11:33:10.280Z</time>
      </trkpt>
      <trkpt lat="44.92912" lon="6.82437">
        <ele>1561</ele>
        <time>2014-07-31T11:33:11.280Z</time>
      </trkpt>
      <trkpt lat="44.92912" lon="6.82439">
        <ele>1561</ele>
        <time>2014-07-31T11:33:12.280Z</time>
      </trkpt>
      <trkpt lat="44.92914" lon="6.82441">
        <ele>1561</ele>
        <time>2014-07-31T11:33:14.180Z</time>
      </trkpt>
      <trkpt lat="44.92914" lon="6.82442">
        <ele>1562.8</ele>
        <time>2014-07-31T11:33:15.180Z</time>
      </trkpt>
      <trkpt lat="44.92915" lon="6.82444">
        <ele>1564</ele>
        <time>2014-07-31T11:33:16.180Z</time>
      </trkpt>
      <trkpt lat="44.92915" lon="6.82446">
        <ele>1564</ele>
        <time>2014-07-31T11:33:17.100Z</time>
      </trkpt>
      <trkpt lat="44.92916" lon="6.82447">
        <ele>1564</ele>
        <time>2014-07-31T11:33:18.280Z</time>
      </trkpt>
      <trkpt lat="44.92917" lon="6.82448">
        <ele>1564</ele>
        <time>2014-07-31T11:33:19.280Z</time>
      </trkpt>
      <trkpt lat="44.92918" lon="6.82449">
        <ele>1565.4</ele>
        <time>2014-07-31T11:33:20.280Z</time>
      </trkpt>
      <trkpt lat="44.92919" lon="6.8245">
        <ele>1566</ele>
        <time>2014-07-31T11:33:21.380Z</time>
      </trkpt>
      <trkpt lat="44.9292" lon="6.82451">
        <ele>1566</ele>
        <time>2014-07-31T11:33:22.280Z</time>
      </trkpt>
      <trkpt lat="44.9292" lon="6.82452">
        <ele>1566</ele>
        <time>2014-07-31T11:33:23.280Z</time>
      </trkpt>
      <trkpt lat="44.92921" lon="6.82455">
        <ele>1566</ele>
        <time>2014-07-31T11:33:25.280Z</time>
      </trkpt>
      <trkpt lat="44.92921" lon="6.82457">
        <ele>1566</ele>
        <time>2014-07-31T11:33:26.280Z</time>
      </trkpt>
      <trkpt lat="44.92922" lon="6.82458">
        <ele>1566</ele>
        <time>2014-07-31T11:33:27.280Z</time>
      </trkpt>
      <trkpt lat="44.92922" lon="6.8246">
        <ele>1566</ele>
        <time>2014-07-31T11:33:29.180Z</time>
      </trkpt>
      <trkpt lat="44.92923" lon="6.82461">
        <ele>1566</ele>
        <time>2014-07-31T11:33:30.180Z</time>
      </trkpt>
      <trkpt lat="44.92924" lon="6.82463">
        <ele>1566</ele>
        <time>2014-07-31T11:33:31.180Z</time>
      </trkpt>
      <trkpt lat="44.92925" lon="6.82464">
        <ele>1566</ele>
        <time>2014-07-31T11:33:32.180Z</time>
      </trkpt>
      <trkpt lat="44.92926" lon="6.82466">
        <ele>1566</ele>
        <time>2014-07-31T11:33:33.180Z</time>
      </trkpt>
      <trkpt lat="44.92928" lon="6.82467">
        <ele>1566</ele>
        <time>2014-07-31T11:33:34.260Z</time>
      </trkpt>
      <trkpt lat="44.9293" lon="6.8247">
        <ele>1567.4</ele>
        <time>2014-07-31T11:33:35.280Z</time>
      </trkpt>
      <trkpt lat="44.92931" lon="6.82471">
        <ele>1568</ele>
        <time>2014-07-31T11:33:36.280Z</time>
      </trkpt>
      <trkpt lat="44.92931" lon="6.82473">
        <ele>1568</ele>
        <time>2014-07-31T11:33:37.280Z</time>
      </trkpt>
      <trkpt lat="44.92932" lon="6.82476">
        <ele>1568</ele>
        <time>2014-07-31T11:33:39.180Z</time>
      </trkpt>
      <trkpt lat="44.92932" lon="6.82477">
        <ele>1568</ele>
        <time>2014-07-31T11:33:40.280Z</time>
      </trkpt>
      <trkpt lat="44.92933" lon="6.82479">
        <ele>1568</ele>
        <time>2014-07-31T11:33:41.280Z</time>
      </trkpt>
      <trkpt lat="44.92934" lon="6.82481">
        <ele>1568</ele>
        <time>2014-07-31T11:33:42.280Z</time>
      </trkpt>
      <trkpt lat="44.92936" lon="6.82485">
        <ele>1568</ele>
        <time>2014-07-31T11:33:44.280Z</time>
      </trkpt>
      <trkpt lat="44.92935" lon="6.82486">
        <ele>1569.2</ele>
        <time>2014-07-31T11:33:45.180Z</time>
      </trkpt>
      <trkpt lat="44.92935" lon="6.82488">
        <ele>1570</ele>
        <time>2014-07-31T11:33:46.180Z</time>
      </trkpt>
      <trkpt lat="44.92934" lon="6.82491">
        <ele>1570</ele>
        <time>2014-07-31T11:33:47.180Z</time>
      </trkpt>
      <trkpt lat="44.92934" lon="6.82494">
        <ele>1570</ele>
        <time>2014-07-31T11:33:48.280Z</time>
      </trkpt>
      <trkpt lat="44.92936" lon="6.82498">
        <ele>1570</ele>
        <time>2014-07-31T11:33:50.280Z</time>
      </trkpt>
      <trkpt lat="44.92937" lon="6.825">
        <ele>1570</ele>
        <time>2014-07-31T11:33:51.260Z</time>
      </trkpt>
      <trkpt lat="44.92937" lon="6.82502">
        <ele>1570</ele>
        <time>2014-07-31T11:33:52.280Z</time>
      </trkpt>
      <trkpt lat="44.92937" lon="6.82505">
        <ele>1570</ele>
        <time>2014-07-31T11:33:54.180Z</time>
      </trkpt>
      <trkpt lat="44.92938" lon="6.82506">
        <ele>1570.7</ele>
        <time>2014-07-31T11:33:55.280Z</time>
      </trkpt>
      <trkpt lat="44.92938" lon="6.82507">
        <ele>1571</ele>
        <time>2014-07-31T11:33:56.280Z</time>
      </trkpt>
      <trkpt lat="44.92937" lon="6.82509">
        <ele>1571</ele>
        <time>2014-07-31T11:33:57.280Z</time>
      </trkpt>
      <trkpt lat="44.92937" lon="6.82512">
        <ele>1571</ele>
        <time>2014-07-31T11:33:59.270Z</time>
      </trkpt>
      <trkpt lat="44.92937" lon="6.82516">
        <ele>1571</ele>
        <time>2014-07-31T11:34:01.180Z</time>
      </trkpt>
      <trkpt lat="44.92938" lon="6.82518">
        <ele>1571</ele>
        <time>2014-07-31T11:34:02.180Z</time>
      </trkpt>
      <trkpt lat="44.92938" lon="6.82519">
        <ele>1571</ele>
        <time>2014-07-31T11:34:03.280Z</time>
      </trkpt>
      <trkpt lat="44.92939" lon="6.8252">
        <ele>1571</ele>
        <time>2014-07-31T11:34:04.280Z</time>
      </trkpt>
      <trkpt lat="44.92939" lon="6.82522">
        <ele>1572.4</ele>
        <time>2014-07-31T11:34:05.280Z</time>
      </trkpt>
      <trkpt lat="44.92939" lon="6.82523">
        <ele>1573</ele>
        <time>2014-07-31T11:34:06.280Z</time>
      </trkpt>
      <trkpt lat="44.92939" lon="6.82525">
        <ele>1573</ele>
        <time>2014-07-31T11:34:07.280Z</time>
      </trkpt>
      <trkpt lat="44.9294" lon="6.82529">
        <ele>1573</ele>
        <time>2014-07-31T11:34:09.180Z</time>
      </trkpt>
      <trkpt lat="44.92941" lon="6.82531">
        <ele>1573</ele>
        <time>2014-07-31T11:34:10.180Z</time>
      </trkpt>
      <trkpt lat="44.92941" lon="6.82532">
        <ele>1573</ele>
        <time>2014-07-31T11:34:11.180Z</time>
      </trkpt>
      <trkpt lat="44.92941" lon="6.82534">
        <ele>1573</ele>
        <time>2014-07-31T11:34:12.180Z</time>
      </trkpt>
      <trkpt lat="44.92941" lon="6.82535">
        <ele>1573</ele>
        <time>2014-07-31T11:34:13.180Z</time>
      </trkpt>
      <trkpt lat="44.92941" lon="6.82537">
        <ele>1573</ele>
        <time>2014-07-31T11:34:14.180Z</time>
      </trkpt>
      <trkpt lat="44.92942" lon="6.82538">
        <ele>1574.8</ele>
        <time>2014-07-31T11:34:15.180Z</time>
      </trkpt>
      <trkpt lat="44.92943" lon="6.8254">
        <ele>1576</ele>
        <time>2014-07-31T11:34:16.180Z</time>
      </trkpt>
      <trkpt lat="44.92943" lon="6.82542">
        <ele>1576</ele>
        <time>2014-07-31T11:34:17.180Z</time>
      </trkpt>
      <trkpt lat="44.92943" lon="6.82544">
        <ele>1576</ele>
        <time>2014-07-31T11:34:18.280Z</time>
      </trkpt>
      <trkpt lat="44.92943" lon="6.82545">
        <ele>1576</ele>
        <time>2014-07-31T11:34:19.280Z</time>
      </trkpt>
      <trkpt lat="44.92944" lon="6.82546">
        <ele>1578.1</ele>
        <time>2014-07-31T11:34:20.280Z</time>
      </trkpt>
      <trkpt lat="44.92944" lon="6.82548">
        <ele>1579</ele>
        <time>2014-07-31T11:34:21.280Z</time>
      </trkpt>
      <trkpt lat="44.92944" lon="6.82549">
        <ele>1579</ele>
        <time>2014-07-31T11:34:22.280Z</time>
      </trkpt>
      <trkpt lat="44.92944" lon="6.8255">
        <ele>1579</ele>
        <time>2014-07-31T11:34:23.280Z</time>
      </trkpt>
      <trkpt lat="44.92944" lon="6.82552">
        <ele>1579</ele>
        <time>2014-07-31T11:34:24.280Z</time>
      </trkpt>
      <trkpt lat="44.92944" lon="6.82555">
        <ele>1580</ele>
        <time>2014-07-31T11:34:26.180Z</time>
      </trkpt>
      <trkpt lat="44.92944" lon="6.82556">
        <ele>1580</ele>
        <time>2014-07-31T11:34:27.280Z</time>
      </trkpt>
      <trkpt lat="44.92945" lon="6.82559">
        <ele>1580</ele>
        <time>2014-07-31T11:34:29.180Z</time>
      </trkpt>
      <trkpt lat="44.92946" lon="6.8256">
        <ele>1580.6</ele>
        <time>2014-07-31T11:34:30.180Z</time>
      </trkpt>
      <trkpt lat="44.92945" lon="6.82562">
        <ele>1581</ele>
        <time>2014-07-31T11:34:31.180Z</time>
      </trkpt>
      <trkpt lat="44.92945" lon="6.82564">
        <ele>1581</ele>
        <time>2014-07-31T11:34:32.180Z</time>
      </trkpt>
      <trkpt lat="44.92945" lon="6.82566">
        <ele>1581</ele>
        <time>2014-07-31T11:34:33.280Z</time>
      </trkpt>
      <trkpt lat="44.92946" lon="6.82568">
        <ele>1582.4</ele>
        <time>2014-07-31T11:34:35.280Z</time>
      </trkpt>
      <trkpt lat="44.92945" lon="6.82571">
        <ele>1583</ele>
        <time>2014-07-31T11:34:36.280Z</time>
      </trkpt>
      <trkpt lat="44.92946" lon="6.82572">
        <ele>1583</ele>
        <time>2014-07-31T11:34:37.280Z</time>
      </trkpt>
      <trkpt lat="44.92947" lon="6.82575">
        <ele>1583</ele>
        <time>2014-07-31T11:34:39.280Z</time>
      </trkpt>
      <trkpt lat="44.92947" lon="6.82579">
        <ele>1583</ele>
        <time>2014-07-31T11:34:41.280Z</time>
      </trkpt>
      <trkpt lat="44.92948" lon="6.82583">
        <ele>1583</ele>
        <time>2014-07-31T11:34:43.280Z</time>
      </trkpt>
      <trkpt lat="44.9295" lon="6.82584">
        <ele>1583</ele>
        <time>2014-07-31T11:34:44.280Z</time>
      </trkpt>
      <trkpt lat="44.92951" lon="6.82586">
        <ele>1583.7</ele>
        <time>2014-07-31T11:34:45.280Z</time>
      </trkpt>
      <trkpt lat="44.92952" lon="6.82588">
        <ele>1584</ele>
        <time>2014-07-31T11:34:46.280Z</time>
      </trkpt>
      <trkpt lat="44.92953" lon="6.82591">
        <ele>1584</ele>
        <time>2014-07-31T11:34:47.280Z</time>
      </trkpt>
      <trkpt lat="44.92952" lon="6.82596">
        <ele>1584</ele>
        <time>2014-07-31T11:34:49.180Z</time>
      </trkpt>
      <trkpt lat="44.92953" lon="6.82599">
        <ele>1584</ele>
        <time>2014-07-31T11:34:50.180Z</time>
      </trkpt>
      <trkpt lat="44.92953" lon="6.82601">
        <ele>1584</ele>
        <time>2014-07-31T11:34:51.230Z</time>
      </trkpt>
      <trkpt lat="44.92954" lon="6.82604">
        <ele>1584</ele>
        <time>2014-07-31T11:34:52.280Z</time>
      </trkpt>
      <trkpt lat="44.92955" lon="6.82607">
        <ele>1584</ele>
        <time>2014-07-31T11:34:54.180Z</time>
      </trkpt>
      <trkpt lat="44.92955" lon="6.82609">
        <ele>1584</ele>
        <time>2014-07-31T11:34:55.180Z</time>
      </trkpt>
      <trkpt lat="44.92956" lon="6.82612">
        <ele>1584</ele>
        <time>2014-07-31T11:34:56.180Z</time>
      </trkpt>
      <trkpt lat="44.92957" lon="6.82615">
        <ele>1584</ele>
        <time>2014-07-31T11:34:57.180Z</time>
      </trkpt>
      <trkpt lat="44.92958" lon="6.82618">
        <ele>1584</ele>
        <time>2014-07-31T11:34:58.280Z</time>
      </trkpt>
      <trkpt lat="44.9296" lon="6.82623">
        <ele>1584</ele>
        <time>2014-07-31T11:35:00.140Z</time>
      </trkpt>
      <trkpt lat="44.92963" lon="6.8263">
        <ele>1584</ele>
        <time>2014-07-31T11:35:02.180Z</time>
      </trkpt>
      <trkpt lat="44.92966" lon="6.82632">
        <ele>1584</ele>
        <time>2014-07-31T11:35:03.280Z</time>
      </trkpt>
      <trkpt lat="44.92966" lon="6.82635">
        <ele>1584</ele>
        <time>2014-07-31T11:35:04.280Z</time>
      </trkpt>
      <trkpt lat="44.92968" lon="6.82637">
        <ele>1584</ele>
        <time>2014-07-31T11:35:05.280Z</time>
      </trkpt>
      <trkpt lat="44.9297" lon="6.8264">
        <ele>1584</ele>
        <time>2014-07-31T11:35:06.280Z</time>
      </trkpt>
      <trkpt lat="44.92971" lon="6.82642">
        <ele>1584</ele>
        <time>2014-07-31T11:35:07.280Z</time>
      </trkpt>
      <trkpt lat="44.92974" lon="6.82647">
        <ele>1584</ele>
        <time>2014-07-31T11:35:09.180Z</time>
      </trkpt>
      <trkpt lat="44.92975" lon="6.8265">
        <ele>1584</ele>
        <time>2014-07-31T11:35:10.180Z</time>
      </trkpt>
      <trkpt lat="44.92976" lon="6.82653">
        <ele>1584</ele>
        <time>2014-07-31T11:35:11.280Z</time>
      </trkpt>
      <trkpt lat="44.92978" lon="6.82655">
        <ele>1584</ele>
        <time>2014-07-31T11:35:12.280Z</time>
      </trkpt>
      <trkpt lat="44.92979" lon="6.82659">
        <ele>1584</ele>
        <time>2014-07-31T11:35:14.180Z</time>
      </trkpt>
      <trkpt lat="44.9298" lon="6.82661">
        <ele>1584.7</ele>
        <time>2014-07-31T11:35:15.280Z</time>
      </trkpt>
      <trkpt lat="44.92983" lon="6.82665">
        <ele>1585</ele>
        <time>2014-07-31T11:35:17.240Z</time>
      </trkpt>
      <trkpt lat="44.92984" lon="6.82668">
        <ele>1585</ele>
        <time>2014-07-31T11:35:18.280Z</time>
      </trkpt>
      <trkpt lat="44.92985" lon="6.82671">
        <ele>1585</ele>
        <time>2014-07-31T11:35:19.280Z</time>
      </trkpt>
      <trkpt lat="44.92985" lon="6.82674">
        <ele>1585</ele>
        <time>2014-07-31T11:35:20.280Z</time>
      </trkpt>
      <trkpt lat="44.92987" lon="6.82681">
        <ele>1585</ele>
        <time>2014-07-31T11:35:22.180Z</time>
      </trkpt>
      <trkpt lat="44.92987" lon="6.82684">
        <ele>1585</ele>
        <time>2014-07-31T11:35:23.180Z</time>
      </trkpt>
      <trkpt lat="44.92987" lon="6.82687">
        <ele>1585</ele>
        <time>2014-07-31T11:35:24.180Z</time>
      </trkpt>
      <trkpt lat="44.92988" lon="6.82691">
        <ele>1585</ele>
        <time>2014-07-31T11:35:25.180Z</time>
      </trkpt>
      <trkpt lat="44.92989" lon="6.82695">
        <ele>1585</ele>
        <time>2014-07-31T11:35:26.280Z</time>
      </trkpt>
      <trkpt lat="44.9299" lon="6.82699">
        <ele>1585</ele>
        <time>2014-07-31T11:35:27.280Z</time>
      </trkpt>
      <trkpt lat="44.92991" lon="6.82702">
        <ele>1585</ele>
        <time>2014-07-31T11:35:28.280Z</time>
      </trkpt>
      <trkpt lat="44.92992" lon="6.82706">
        <ele>1585</ele>
        <time>2014-07-31T11:35:29.280Z</time>
      </trkpt>
      <trkpt lat="44.92992" lon="6.8271">
        <ele>1585</ele>
        <time>2014-07-31T11:35:30.280Z</time>
      </trkpt>
      <trkpt lat="44.92994" lon="6.82717">
        <ele>1585</ele>
        <time>2014-07-31T11:35:32.180Z</time>
      </trkpt>
      <trkpt lat="44.92995" lon="6.82721">
        <ele>1585</ele>
        <time>2014-07-31T11:35:33.150Z</time>
      </trkpt>
      <trkpt lat="44.92995" lon="6.82725">
        <ele>1585</ele>
        <time>2014-07-31T11:35:34.240Z</time>
      </trkpt>
      <trkpt lat="44.92997" lon="6.82728">
        <ele>1585</ele>
        <time>2014-07-31T11:35:35.280Z</time>
      </trkpt>
      <trkpt lat="44.93" lon="6.82733">
        <ele>1585</ele>
        <time>2014-07-31T11:35:36.280Z</time>
      </trkpt>
      <trkpt lat="44.93002" lon="6.82736">
        <ele>1585</ele>
        <time>2014-07-31T11:35:37.280Z</time>
      </trkpt>
      <trkpt lat="44.93003" lon="6.8274">
        <ele>1585</ele>
        <time>2014-07-31T11:35:38.280Z</time>
      </trkpt>
      <trkpt lat="44.93004" lon="6.82743">
        <ele>1585</ele>
        <time>2014-07-31T11:35:39.310Z</time>
      </trkpt>
      <trkpt lat="44.93005" lon="6.82746">
        <ele>1585</ele>
        <time>2014-07-31T11:35:40.280Z</time>
      </trkpt>
      <trkpt lat="44.93008" lon="6.82753">
        <ele>1585</ele>
        <time>2014-07-31T11:35:42.270Z</time>
      </trkpt>
      <trkpt lat="44.93009" lon="6.82763">
        <ele>1585</ele>
        <time>2014-07-31T11:35:44.180Z</time>
      </trkpt>
      <trkpt lat="44.9301" lon="6.82767">
        <ele>1585.6</ele>
        <time>2014-07-31T11:35:45.180Z</time>
      </trkpt>
      <trkpt lat="44.93009" lon="6.82771">
        <ele>1586</ele>
        <time>2014-07-31T11:35:46.180Z</time>
      </trkpt>
      <trkpt lat="44.93009" lon="6.82776">
        <ele>1586</ele>
        <time>2014-07-31T11:35:47.180Z</time>
      </trkpt>
      <trkpt lat="44.9301" lon="6.8278">
        <ele>1586</ele>
        <time>2014-07-31T11:35:48.180Z</time>
      </trkpt>
      <trkpt lat="44.9301" lon="6.82784">
        <ele>1586</ele>
        <time>2014-07-31T11:35:49.180Z</time>
      </trkpt>
      <trkpt lat="44.93011" lon="6.82788">
        <ele>1586</ele>
        <time>2014-07-31T11:35:50.240Z</time>
      </trkpt>
      <trkpt lat="44.93012" lon="6.82792">
        <ele>1586</ele>
        <time>2014-07-31T11:35:51.240Z</time>
      </trkpt>
      <trkpt lat="44.93014" lon="6.82796">
        <ele>1586</ele>
        <time>2014-07-31T11:35:52.320Z</time>
      </trkpt>
      <trkpt lat="44.93015" lon="6.828">
        <ele>1586</ele>
        <time>2014-07-31T11:35:53.280Z</time>
      </trkpt>
      <trkpt lat="44.93015" lon="6.82804">
        <ele>1586</ele>
        <time>2014-07-31T11:35:54.280Z</time>
      </trkpt>
      <trkpt lat="44.93015" lon="6.82808">
        <ele>1586.7</ele>
        <time>2014-07-31T11:35:55.280Z</time>
      </trkpt>
      <trkpt lat="44.93016" lon="6.82812">
        <ele>1587</ele>
        <time>2014-07-31T11:35:56.280Z</time>
      </trkpt>
      <trkpt lat="44.93018" lon="6.82816">
        <ele>1587</ele>
        <time>2014-07-31T11:35:57.280Z</time>
      </trkpt>
      <trkpt lat="44.93019" lon="6.8282">
        <ele>1587</ele>
        <time>2014-07-31T11:35:58.280Z</time>
      </trkpt>
      <trkpt lat="44.93022" lon="6.82824">
        <ele>1587</ele>
        <time>2014-07-31T11:35:59.280Z</time>
      </trkpt>
      <trkpt lat="44.93024" lon="6.82829">
        <ele>1587</ele>
        <time>2014-07-31T11:36:00.180Z</time>
      </trkpt>
      <trkpt lat="44.93026" lon="6.82833">
        <ele>1587</ele>
        <time>2014-07-31T11:36:01.280Z</time>
      </trkpt>
      <trkpt lat="44.93029" lon="6.82844">
        <ele>1587</ele>
        <time>2014-07-31T11:36:03.280Z</time>
      </trkpt>
      <trkpt lat="44.93031" lon="6.82849">
        <ele>1587</ele>
        <time>2014-07-31T11:36:04.280Z</time>
      </trkpt>
      <trkpt lat="44.93033" lon="6.82855">
        <ele>1587</ele>
        <time>2014-07-31T11:36:05.280Z</time>
      </trkpt>
      <trkpt lat="44.93035" lon="6.82859">
        <ele>1587</ele>
        <time>2014-07-31T11:36:06.280Z</time>
      </trkpt>
      <trkpt lat="44.93039" lon="6.82867">
        <ele>1587</ele>
        <time>2014-07-31T11:36:08.280Z</time>
      </trkpt>
      <trkpt lat="44.93039" lon="6.82873">
        <ele>1587</ele>
        <time>2014-07-31T11:36:09.280Z</time>
      </trkpt>
      <trkpt lat="44.9304" lon="6.82878">
        <ele>1587</ele>
        <time>2014-07-31T11:36:10.280Z</time>
      </trkpt>
      <trkpt lat="44.9304" lon="6.82883">
        <ele>1587</ele>
        <time>2014-07-31T11:36:11.280Z</time>
      </trkpt>
      <trkpt lat="44.9304" lon="6.82888">
        <ele>1587</ele>
        <time>2014-07-31T11:36:12.260Z</time>
      </trkpt>
      <trkpt lat="44.93039" lon="6.82895">
        <ele>1587</ele>
        <time>2014-07-31T11:36:13.280Z</time>
      </trkpt>
      <trkpt lat="44.93039" lon="6.82901">
        <ele>1587</ele>
        <time>2014-07-31T11:36:14.280Z</time>
      </trkpt>
      <trkpt lat="44.93039" lon="6.82907">
        <ele>1587.7</ele>
        <time>2014-07-31T11:36:15.280Z</time>
      </trkpt>
      <trkpt lat="44.93038" lon="6.82913">
        <ele>1588</ele>
        <time>2014-07-31T11:36:16.280Z</time>
      </trkpt>
      <trkpt lat="44.93039" lon="6.82926">
        <ele>1588</ele>
        <time>2014-07-31T11:36:18.180Z</time>
      </trkpt>
      <trkpt lat="44.9304" lon="6.82932">
        <ele>1588</ele>
        <time>2014-07-31T11:36:19.280Z</time>
      </trkpt>
      <trkpt lat="44.93041" lon="6.82938">
        <ele>1588</ele>
        <time>2014-07-31T11:36:20.380Z</time>
      </trkpt>
      <trkpt lat="44.93043" lon="6.82943">
        <ele>1588</ele>
        <time>2014-07-31T11:36:21.280Z</time>
      </trkpt>
      <trkpt lat="44.93045" lon="6.82952">
        <ele>1588</ele>
        <time>2014-07-31T11:36:23.180Z</time>
      </trkpt>
      <trkpt lat="44.93046" lon="6.82957">
        <ele>1588</ele>
        <time>2014-07-31T11:36:24.250Z</time>
      </trkpt>
      <trkpt lat="44.93048" lon="6.82961">
        <ele>1588</ele>
        <time>2014-07-31T11:36:25.280Z</time>
      </trkpt>
      <trkpt lat="44.93049" lon="6.82964">
        <ele>1588</ele>
        <time>2014-07-31T11:36:26.280Z</time>
      </trkpt>
      <trkpt lat="44.93051" lon="6.82968">
        <ele>1588</ele>
        <time>2014-07-31T11:36:27.280Z</time>
      </trkpt>
      <trkpt lat="44.93054" lon="6.82973">
        <ele>1588</ele>
        <time>2014-07-31T11:36:28.280Z</time>
      </trkpt>
      <trkpt lat="44.93055" lon="6.82978">
        <ele>1588</ele>
        <time>2014-07-31T11:36:29.280Z</time>
      </trkpt>
      <trkpt lat="44.93057" lon="6.82982">
        <ele>1588</ele>
        <time>2014-07-31T11:36:30.280Z</time>
      </trkpt>
      <trkpt lat="44.93058" lon="6.82987">
        <ele>1588</ele>
        <time>2014-07-31T11:36:31.280Z</time>
      </trkpt>
      <trkpt lat="44.93059" lon="6.82991">
        <ele>1588</ele>
        <time>2014-07-31T11:36:32.280Z</time>
      </trkpt>
      <trkpt lat="44.9306" lon="6.82995">
        <ele>1588</ele>
        <time>2014-07-31T11:36:33.280Z</time>
      </trkpt>
      <trkpt lat="44.93061" lon="6.83007">
        <ele>1588.6</ele>
        <time>2014-07-31T11:36:35.180Z</time>
      </trkpt>
      <trkpt lat="44.93063" lon="6.83013">
        <ele>1589</ele>
        <time>2014-07-31T11:36:36.180Z</time>
      </trkpt>
      <trkpt lat="44.93064" lon="6.83019">
        <ele>1589</ele>
        <time>2014-07-31T11:36:37.180Z</time>
      </trkpt>
      <trkpt lat="44.93066" lon="6.83023">
        <ele>1589</ele>
        <time>2014-07-31T11:36:38.180Z</time>
      </trkpt>
      <trkpt lat="44.93067" lon="6.83026">
        <ele>1589</ele>
        <time>2014-07-31T11:36:39.180Z</time>
      </trkpt>
      <trkpt lat="44.9307" lon="6.83029">
        <ele>1589</ele>
        <time>2014-07-31T11:36:40.280Z</time>
      </trkpt>
      <trkpt lat="44.93078" lon="6.83035">
        <ele>1589</ele>
        <time>2014-07-31T11:36:42.180Z</time>
      </trkpt>
      <trkpt lat="44.93083" lon="6.83039">
        <ele>1589</ele>
        <time>2014-07-31T11:36:43.180Z</time>
      </trkpt>
      <trkpt lat="44.93087" lon="6.83043">
        <ele>1589</ele>
        <time>2014-07-31T11:36:44.280Z</time>
      </trkpt>
      <trkpt lat="44.93094" lon="6.83053">
        <ele>1589</ele>
        <time>2014-07-31T11:36:46.310Z</time>
      </trkpt>
      <trkpt lat="44.93097" lon="6.83057">
        <ele>1589</ele>
        <time>2014-07-31T11:36:47.280Z</time>
      </trkpt>
      <trkpt lat="44.931" lon="6.83062">
        <ele>1589</ele>
        <time>2014-07-31T11:36:48.280Z</time>
      </trkpt>
      <trkpt lat="44.93103" lon="6.83067">
        <ele>1589</ele>
        <time>2014-07-31T11:36:49.280Z</time>
      </trkpt>
      <trkpt lat="44.93106" lon="6.83073">
        <ele>1589</ele>
        <time>2014-07-31T11:36:50.280Z</time>
      </trkpt>
      <trkpt lat="44.9311" lon="6.83084">
        <ele>1589</ele>
        <time>2014-07-31T11:36:52.180Z</time>
      </trkpt>
      <trkpt lat="44.93112" lon="6.8309">
        <ele>1589</ele>
        <time>2014-07-31T11:36:53.180Z</time>
      </trkpt>
      <trkpt lat="44.93113" lon="6.83096">
        <ele>1589</ele>
        <time>2014-07-31T11:36:54.180Z</time>
      </trkpt>
      <trkpt lat="44.93113" lon="6.83103">
        <ele>1589</ele>
        <time>2014-07-31T11:36:55.200Z</time>
      </trkpt>
      <trkpt lat="44.93114" lon="6.83108">
        <ele>1589</ele>
        <time>2014-07-31T11:36:56.280Z</time>
      </trkpt>
      <trkpt lat="44.93115" lon="6.83114">
        <ele>1589</ele>
        <time>2014-07-31T11:36:57.280Z</time>
      </trkpt>
      <trkpt lat="44.93116" lon="6.83119">
        <ele>1589</ele>
        <time>2014-07-31T11:36:58.190Z</time>
      </trkpt>
      <trkpt lat="44.93117" lon="6.83124">
        <ele>1589</ele>
        <time>2014-07-31T11:36:59.280Z</time>
      </trkpt>
      <trkpt lat="44.93118" lon="6.83129">
        <ele>1589</ele>
        <time>2014-07-31T11:37:00.240Z</time>
      </trkpt>
      <trkpt lat="44.93119" lon="6.83135">
        <ele>1589</ele>
        <time>2014-07-31T11:37:01.280Z</time>
      </trkpt>
      <trkpt lat="44.93119" lon="6.8314">
        <ele>1589</ele>
        <time>2014-07-31T11:37:02.280Z</time>
      </trkpt>
      <trkpt lat="44.93124" lon="6.83149">
        <ele>1589</ele>
        <time>2014-07-31T11:37:04.180Z</time>
      </trkpt>
      <trkpt lat="44.93125" lon="6.83154">
        <ele>1589.7</ele>
        <time>2014-07-31T11:37:05.280Z</time>
      </trkpt>
      <trkpt lat="44.93126" lon="6.83158">
        <ele>1590</ele>
        <time>2014-07-31T11:37:06.280Z</time>
      </trkpt>
      <trkpt lat="44.93127" lon="6.83162">
        <ele>1590</ele>
        <time>2014-07-31T11:37:07.280Z</time>
      </trkpt>
      <trkpt lat="44.93128" lon="6.83168">
        <ele>1590</ele>
        <time>2014-07-31T11:37:09.180Z</time>
      </trkpt>
      <trkpt lat="44.93129" lon="6.83172">
        <ele>1590</ele>
        <time>2014-07-31T11:37:10.180Z</time>
      </trkpt>
      <trkpt lat="44.93131" lon="6.83176">
        <ele>1590</ele>
        <time>2014-07-31T11:37:11.180Z</time>
      </trkpt>
      <trkpt lat="44.93133" lon="6.8318">
        <ele>1590</ele>
        <time>2014-07-31T11:37:12.180Z</time>
      </trkpt>
      <trkpt lat="44.93137" lon="6.83183">
        <ele>1590</ele>
        <time>2014-07-31T11:37:13.280Z</time>
      </trkpt>
      <trkpt lat="44.93144" lon="6.8319">
        <ele>1590.6</ele>
        <time>2014-07-31T11:37:15.140Z</time>
      </trkpt>
      <trkpt lat="44.93146" lon="6.83193">
        <ele>1591</ele>
        <time>2014-07-31T11:37:16.180Z</time>
      </trkpt>
      <trkpt lat="44.93149" lon="6.83197">
        <ele>1591</ele>
        <time>2014-07-31T11:37:17.240Z</time>
      </trkpt>
      <trkpt lat="44.93152" lon="6.83206">
        <ele>1591</ele>
        <time>2014-07-31T11:37:19.180Z</time>
      </trkpt>
      <trkpt lat="44.93154" lon="6.8321">
        <ele>1591</ele>
        <time>2014-07-31T11:37:20.180Z</time>
      </trkpt>
      <trkpt lat="44.93154" lon="6.83215">
        <ele>1591</ele>
        <time>2014-07-31T11:37:21.180Z</time>
      </trkpt>
      <trkpt lat="44.93155" lon="6.83219">
        <ele>1591</ele>
        <time>2014-07-31T11:37:22.180Z</time>
      </trkpt>
      <trkpt lat="44.93155" lon="6.83224">
        <ele>1591</ele>
        <time>2014-07-31T11:37:23.280Z</time>
      </trkpt>
      <trkpt lat="44.93157" lon="6.83228">
        <ele>1591</ele>
        <time>2014-07-31T11:37:24.280Z</time>
      </trkpt>
      <trkpt lat="44.93158" lon="6.83232">
        <ele>1591</ele>
        <time>2014-07-31T11:37:25.280Z</time>
      </trkpt>
      <trkpt lat="44.9316" lon="6.83237">
        <ele>1591</ele>
        <time>2014-07-31T11:37:26.280Z</time>
      </trkpt>
      <trkpt lat="44.93161" lon="6.83242">
        <ele>1591</ele>
        <time>2014-07-31T11:37:27.280Z</time>
      </trkpt>
      <trkpt lat="44.93164" lon="6.83251">
        <ele>1591</ele>
        <time>2014-07-31T11:37:29.180Z</time>
      </trkpt>
      <trkpt lat="44.93165" lon="6.83255">
        <ele>1591</ele>
        <time>2014-07-31T11:37:30.180Z</time>
      </trkpt>
      <trkpt lat="44.93165" lon="6.8326">
        <ele>1591</ele>
        <time>2014-07-31T11:37:31.280Z</time>
      </trkpt>
      <trkpt lat="44.93167" lon="6.83268">
        <ele>1591</ele>
        <time>2014-07-31T11:37:33.280Z</time>
      </trkpt>
      <trkpt lat="44.9317" lon="6.83276">
        <ele>1591.6</ele>
        <time>2014-07-31T11:37:35.180Z</time>
      </trkpt>
      <trkpt lat="44.93171" lon="6.83281">
        <ele>1592</ele>
        <time>2014-07-31T11:37:36.180Z</time>
      </trkpt>
      <trkpt lat="44.93172" lon="6.83291">
        <ele>1592</ele>
        <time>2014-07-31T11:37:38.280Z</time>
      </trkpt>
      <trkpt lat="44.93173" lon="6.83297">
        <ele>1592</ele>
        <time>2014-07-31T11:37:39.280Z</time>
      </trkpt>
      <trkpt lat="44.93173" lon="6.83303">
        <ele>1592</ele>
        <time>2014-07-31T11:37:40.280Z</time>
      </trkpt>
      <trkpt lat="44.93174" lon="6.8331">
        <ele>1592</ele>
        <time>2014-07-31T11:37:41.280Z</time>
      </trkpt>
      <trkpt lat="44.93175" lon="6.83315">
        <ele>1592</ele>
        <time>2014-07-31T11:37:42.280Z</time>
      </trkpt>
      <trkpt lat="44.93174" lon="6.83326">
        <ele>1592</ele>
        <time>2014-07-31T11:37:44.180Z</time>
      </trkpt>
      <trkpt lat="44.93174" lon="6.83331">
        <ele>1592.6</ele>
        <time>2014-07-31T11:37:45.180Z</time>
      </trkpt>
      <trkpt lat="44.93173" lon="6.83336">
        <ele>1593</ele>
        <time>2014-07-31T11:37:46.180Z</time>
      </trkpt>
      <trkpt lat="44.93171" lon="6.8334">
        <ele>1593</ele>
        <time>2014-07-31T11:37:47.260Z</time>
      </trkpt>
      <trkpt lat="44.93169" lon="6.83349">
        <ele>1593</ele>
        <time>2014-07-31T11:37:49.280Z</time>
      </trkpt>
      <trkpt lat="44.93168" lon="6.83353">
        <ele>1593</ele>
        <time>2014-07-31T11:37:50.280Z</time>
      </trkpt>
      <trkpt lat="44.93167" lon="6.83363">
        <ele>1593</ele>
        <time>2014-07-31T11:37:52.180Z</time>
      </trkpt>
      <trkpt lat="44.93166" lon="6.83368">
        <ele>1593</ele>
        <time>2014-07-31T11:37:53.280Z</time>
      </trkpt>
      <trkpt lat="44.93165" lon="6.83374">
        <ele>1593</ele>
        <time>2014-07-31T11:37:54.280Z</time>
      </trkpt>
      <trkpt lat="44.93162" lon="6.83379">
        <ele>1593</ele>
        <time>2014-07-31T11:37:55.280Z</time>
      </trkpt>
      <trkpt lat="44.9316" lon="6.83384">
        <ele>1593</ele>
        <time>2014-07-31T11:37:56.280Z</time>
      </trkpt>
      <trkpt lat="44.93159" lon="6.83389">
        <ele>1593</ele>
        <time>2014-07-31T11:37:57.280Z</time>
      </trkpt>
      <trkpt lat="44.93159" lon="6.83399">
        <ele>1593</ele>
        <time>2014-07-31T11:37:59.180Z</time>
      </trkpt>
      <trkpt lat="44.93162" lon="6.83403">
        <ele>1593</ele>
        <time>2014-07-31T11:38:00.240Z</time>
      </trkpt>
      <trkpt lat="44.93164" lon="6.83408">
        <ele>1593</ele>
        <time>2014-07-31T11:38:01.280Z</time>
      </trkpt>
      <trkpt lat="44.93167" lon="6.83412">
        <ele>1593</ele>
        <time>2014-07-31T11:38:02.280Z</time>
      </trkpt>
      <trkpt lat="44.93169" lon="6.83422">
        <ele>1593</ele>
        <time>2014-07-31T11:38:04.180Z</time>
      </trkpt>
      <trkpt lat="44.9317" lon="6.83426">
        <ele>1594.4</ele>
        <time>2014-07-31T11:38:05.280Z</time>
      </trkpt>
      <trkpt lat="44.93168" lon="6.83436">
        <ele>1595</ele>
        <time>2014-07-31T11:38:07.180Z</time>
      </trkpt>
      <trkpt lat="44.93167" lon="6.83441">
        <ele>1595</ele>
        <time>2014-07-31T11:38:08.280Z</time>
      </trkpt>
      <trkpt lat="44.93167" lon="6.83448">
        <ele>1595</ele>
        <time>2014-07-31T11:38:09.280Z</time>
      </trkpt>
      <trkpt lat="44.93168" lon="6.83453">
        <ele>1595</ele>
        <time>2014-07-31T11:38:10.280Z</time>
      </trkpt>
      <trkpt lat="44.9317" lon="6.83457">
        <ele>1595</ele>
        <time>2014-07-31T11:38:11.280Z</time>
      </trkpt>
      <trkpt lat="44.93173" lon="6.83459">
        <ele>1595</ele>
        <time>2014-07-31T11:38:12.280Z</time>
      </trkpt>
      <trkpt lat="44.93179" lon="6.83462">
        <ele>1595</ele>
        <time>2014-07-31T11:38:13.280Z</time>
      </trkpt>
      <trkpt lat="44.93184" lon="6.83465">
        <ele>1595</ele>
        <time>2014-07-31T11:38:14.280Z</time>
      </trkpt>
      <trkpt lat="44.93188" lon="6.83468">
        <ele>1594.3</ele>
        <time>2014-07-31T11:38:15.280Z</time>
      </trkpt>
      <trkpt lat="44.93193" lon="6.83471">
        <ele>1594</ele>
        <time>2014-07-31T11:38:16.280Z</time>
      </trkpt>
      <trkpt lat="44.93204" lon="6.83477">
        <ele>1594</ele>
        <time>2014-07-31T11:38:18.280Z</time>
      </trkpt>
      <trkpt lat="44.93208" lon="6.83481">
        <ele>1594</ele>
        <time>2014-07-31T11:38:19.280Z</time>
      </trkpt>
      <trkpt lat="44.93211" lon="6.83486">
        <ele>1594</ele>
        <time>2014-07-31T11:38:20.280Z</time>
      </trkpt>
      <trkpt lat="44.93215" lon="6.8349">
        <ele>1594</ele>
        <time>2014-07-31T11:38:21.280Z</time>
      </trkpt>
      <trkpt lat="44.93219" lon="6.83494">
        <ele>1594</ele>
        <time>2014-07-31T11:38:22.280Z</time>
      </trkpt>
      <trkpt lat="44.93224" lon="6.83497">
        <ele>1594</ele>
        <time>2014-07-31T11:38:23.240Z</time>
      </trkpt>
      <trkpt lat="44.93231" lon="6.83499">
        <ele>1594</ele>
        <time>2014-07-31T11:38:24.280Z</time>
      </trkpt>
      <trkpt lat="44.93237" lon="6.83501">
        <ele>1593.3</ele>
        <time>2014-07-31T11:38:25.280Z</time>
      </trkpt>
      <trkpt lat="44.93241" lon="6.83504">
        <ele>1593</ele>
        <time>2014-07-31T11:38:26.280Z</time>
      </trkpt>
      <trkpt lat="44.93247" lon="6.83507">
        <ele>1593</ele>
        <time>2014-07-31T11:38:27.280Z</time>
      </trkpt>
      <trkpt lat="44.93258" lon="6.83512">
        <ele>1593</ele>
        <time>2014-07-31T11:38:29.180Z</time>
      </trkpt>
      <trkpt lat="44.93263" lon="6.83514">
        <ele>1593</ele>
        <time>2014-07-31T11:38:30.280Z</time>
      </trkpt>
      <trkpt lat="44.93269" lon="6.83516">
        <ele>1593</ele>
        <time>2014-07-31T11:38:31.280Z</time>
      </trkpt>
      <trkpt lat="44.93273" lon="6.83519">
        <ele>1593</ele>
        <time>2014-07-31T11:38:32.280Z</time>
      </trkpt>
      <trkpt lat="44.93284" lon="6.83526">
        <ele>1593</ele>
        <time>2014-07-31T11:38:34.240Z</time>
      </trkpt>
      <trkpt lat="44.93287" lon="6.83531">
        <ele>1591.6</ele>
        <time>2014-07-31T11:38:35.280Z</time>
      </trkpt>
      <trkpt lat="44.9329" lon="6.83536">
        <ele>1591</ele>
        <time>2014-07-31T11:38:36.280Z</time>
      </trkpt>
      <trkpt lat="44.93291" lon="6.83541">
        <ele>1591</ele>
        <time>2014-07-31T11:38:37.280Z</time>
      </trkpt>
      <trkpt lat="44.93296" lon="6.83553">
        <ele>1591</ele>
        <time>2014-07-31T11:38:39.270Z</time>
      </trkpt>
      <trkpt lat="44.93304" lon="6.83562">
        <ele>1591</ele>
        <time>2014-07-31T11:38:41.180Z</time>
      </trkpt>
      <trkpt lat="44.93307" lon="6.83565">
        <ele>1591</ele>
        <time>2014-07-31T11:38:42.180Z</time>
      </trkpt>
      <trkpt lat="44.93311" lon="6.8357">
        <ele>1591</ele>
        <time>2014-07-31T11:38:43.280Z</time>
      </trkpt>
      <trkpt lat="44.93313" lon="6.83574">
        <ele>1591</ele>
        <time>2014-07-31T11:38:44.280Z</time>
      </trkpt>
      <trkpt lat="44.93314" lon="6.83579">
        <ele>1590.3</ele>
        <time>2014-07-31T11:38:45.280Z</time>
      </trkpt>
      <trkpt lat="44.93315" lon="6.83584">
        <ele>1590</ele>
        <time>2014-07-31T11:38:46.280Z</time>
      </trkpt>
      <trkpt lat="44.93314" lon="6.83589">
        <ele>1590</ele>
        <time>2014-07-31T11:38:47.280Z</time>
      </trkpt>
      <trkpt lat="44.93313" lon="6.83599">
        <ele>1590</ele>
        <time>2014-07-31T11:38:49.180Z</time>
      </trkpt>
      <trkpt lat="44.93313" lon="6.8361">
        <ele>1590</ele>
        <time>2014-07-31T11:38:51.260Z</time>
      </trkpt>
      <trkpt lat="44.93314" lon="6.83615">
        <ele>1590</ele>
        <time>2014-07-31T11:38:52.280Z</time>
      </trkpt>
      <trkpt lat="44.93315" lon="6.8362">
        <ele>1590</ele>
        <time>2014-07-31T11:38:53.280Z</time>
      </trkpt>
      <trkpt lat="44.93317" lon="6.83625">
        <ele>1590</ele>
        <time>2014-07-31T11:38:54.280Z</time>
      </trkpt>
      <trkpt lat="44.93317" lon="6.8363">
        <ele>1590.7</ele>
        <time>2014-07-31T11:38:55.280Z</time>
      </trkpt>
      <trkpt lat="44.93317" lon="6.83636">
        <ele>1591</ele>
        <time>2014-07-31T11:38:56.280Z</time>
      </trkpt>
      <trkpt lat="44.93318" lon="6.83647">
        <ele>1591</ele>
        <time>2014-07-31T11:38:58.280Z</time>
      </trkpt>
      <trkpt lat="44.93318" lon="6.83653">
        <ele>1591</ele>
        <time>2014-07-31T11:38:59.280Z</time>
      </trkpt>
      <trkpt lat="44.9332" lon="6.83658">
        <ele>1591</ele>
        <time>2014-07-31T11:39:00.140Z</time>
      </trkpt>
      <trkpt lat="44.93324" lon="6.83664">
        <ele>1591</ele>
        <time>2014-07-31T11:39:01.280Z</time>
      </trkpt>
      <trkpt lat="44.93325" lon="6.8367">
        <ele>1591</ele>
        <time>2014-07-31T11:39:02.280Z</time>
      </trkpt>
      <trkpt lat="44.93325" lon="6.83679">
        <ele>1591</ele>
        <time>2014-07-31T11:39:04.180Z</time>
      </trkpt>
      <trkpt lat="44.93325" lon="6.83684">
        <ele>1591</ele>
        <time>2014-07-31T11:39:05.180Z</time>
      </trkpt>
      <trkpt lat="44.93323" lon="6.83689">
        <ele>1591</ele>
        <time>2014-07-31T11:39:06.180Z</time>
      </trkpt>
      <trkpt lat="44.93321" lon="6.83693">
        <ele>1591</ele>
        <time>2014-07-31T11:39:07.180Z</time>
      </trkpt>
      <trkpt lat="44.93318" lon="6.83698">
        <ele>1591</ele>
        <time>2014-07-31T11:39:08.280Z</time>
      </trkpt>
      <trkpt lat="44.93313" lon="6.83706">
        <ele>1591</ele>
        <time>2014-07-31T11:39:10.280Z</time>
      </trkpt>
      <trkpt lat="44.93312" lon="6.8371">
        <ele>1591</ele>
        <time>2014-07-31T11:39:11.280Z</time>
      </trkpt>
      <trkpt lat="44.9331" lon="6.83715">
        <ele>1591</ele>
        <time>2014-07-31T11:39:12.280Z</time>
      </trkpt>
      <trkpt lat="44.93302" lon="6.83724">
        <ele>1591</ele>
        <time>2014-07-31T11:39:14.250Z</time>
      </trkpt>
      <trkpt lat="44.93298" lon="6.83728">
        <ele>1592.4</ele>
        <time>2014-07-31T11:39:15.280Z</time>
      </trkpt>
      <trkpt lat="44.93293" lon="6.83733">
        <ele>1593</ele>
        <time>2014-07-31T11:39:16.320Z</time>
      </trkpt>
      <trkpt lat="44.93284" lon="6.83741">
        <ele>1593</ele>
        <time>2014-07-31T11:39:18.280Z</time>
      </trkpt>
      <trkpt lat="44.93281" lon="6.83752">
        <ele>1593</ele>
        <time>2014-07-31T11:39:20.180Z</time>
      </trkpt>
      <trkpt lat="44.93281" lon="6.83755">
        <ele>1593</ele>
        <time>2014-07-31T11:39:21.180Z</time>
      </trkpt>
      <trkpt lat="44.93283" lon="6.83758">
        <ele>1593</ele>
        <time>2014-07-31T11:39:22.180Z</time>
      </trkpt>
      <trkpt lat="44.93287" lon="6.8376">
        <ele>1593</ele>
        <time>2014-07-31T11:39:23.180Z</time>
      </trkpt>
      <trkpt lat="44.9329" lon="6.83763">
        <ele>1593</ele>
        <time>2014-07-31T11:39:24.180Z</time>
      </trkpt>
      <trkpt lat="44.93294" lon="6.83765">
        <ele>1593</ele>
        <time>2014-07-31T11:39:25.180Z</time>
      </trkpt>
      <trkpt lat="44.93298" lon="6.83766">
        <ele>1593</ele>
        <time>2014-07-31T11:39:26.180Z</time>
      </trkpt>
      <trkpt lat="44.93301" lon="6.83767">
        <ele>1593</ele>
        <time>2014-07-31T11:39:27.180Z</time>
      </trkpt>
      <trkpt lat="44.93304" lon="6.83769">
        <ele>1593</ele>
        <time>2014-07-31T11:39:28.280Z</time>
      </trkpt>
      <trkpt lat="44.93306" lon="6.83772">
        <ele>1593</ele>
        <time>2014-07-31T11:39:29.380Z</time>
      </trkpt>
      <trkpt lat="44.93309" lon="6.83779">
        <ele>1593</ele>
        <time>2014-07-31T11:39:31.150Z</time>
      </trkpt>
      <trkpt lat="44.9331" lon="6.83783">
        <ele>1593</ele>
        <time>2014-07-31T11:39:32.180Z</time>
      </trkpt>
      <trkpt lat="44.93311" lon="6.83787">
        <ele>1593</ele>
        <time>2014-07-31T11:39:33.280Z</time>
      </trkpt>
      <trkpt lat="44.93313" lon="6.83797">
        <ele>1594.2</ele>
        <time>2014-07-31T11:39:35.180Z</time>
      </trkpt>
      <trkpt lat="44.93314" lon="6.83802">
        <ele>1595</ele>
        <time>2014-07-31T11:39:36.180Z</time>
      </trkpt>
      <trkpt lat="44.93315" lon="6.83807">
        <ele>1595</ele>
        <time>2014-07-31T11:39:37.180Z</time>
      </trkpt>
      <trkpt lat="44.93315" lon="6.83812">
        <ele>1595</ele>
        <time>2014-07-31T11:39:38.180Z</time>
      </trkpt>
      <trkpt lat="44.93316" lon="6.83816">
        <ele>1595</ele>
        <time>2014-07-31T11:39:39.180Z</time>
      </trkpt>
      <trkpt lat="44.93316" lon="6.83821">
        <ele>1595</ele>
        <time>2014-07-31T11:39:40.180Z</time>
      </trkpt>
      <trkpt lat="44.93314" lon="6.83826">
        <ele>1595</ele>
        <time>2014-07-31T11:39:41.380Z</time>
      </trkpt>
      <trkpt lat="44.93314" lon="6.83832">
        <ele>1595</ele>
        <time>2014-07-31T11:39:42.280Z</time>
      </trkpt>
      <trkpt lat="44.93312" lon="6.83837">
        <ele>1595</ele>
        <time>2014-07-31T11:39:43.280Z</time>
      </trkpt>
      <trkpt lat="44.9331" lon="6.83841">
        <ele>1595</ele>
        <time>2014-07-31T11:39:44.280Z</time>
      </trkpt>
      <trkpt lat="44.93308" lon="6.83844">
        <ele>1595</ele>
        <time>2014-07-31T11:39:45.280Z</time>
      </trkpt>
      <trkpt lat="44.93305" lon="6.83846">
        <ele>1595</ele>
        <time>2014-07-31T11:39:46.280Z</time>
      </trkpt>
      <trkpt lat="44.93302" lon="6.83849">
        <ele>1595</ele>
        <time>2014-07-31T11:39:47.280Z</time>
      </trkpt>
      <trkpt lat="44.933" lon="6.83852">
        <ele>1595</ele>
        <time>2014-07-31T11:39:48.250Z</time>
      </trkpt>
      <trkpt lat="44.93298" lon="6.83854">
        <ele>1595</ele>
        <time>2014-07-31T11:39:49.280Z</time>
      </trkpt>
      <trkpt lat="44.93297" lon="6.83856">
        <ele>1595</ele>
        <time>2014-07-31T11:39:50.280Z</time>
      </trkpt>
      <trkpt lat="44.93296" lon="6.83857">
        <ele>1595</ele>
        <time>2014-07-31T11:39:51.080Z</time>
      </trkpt>
      <trkpt lat="44.93295" lon="6.83859">
        <ele>1595</ele>
        <time>2014-07-31T11:39:52.280Z</time>
      </trkpt>
      <trkpt lat="44.93292" lon="6.8386">
        <ele>1595</ele>
        <time>2014-07-31T11:39:53.380Z</time>
      </trkpt>
      <trkpt lat="44.93292" lon="6.83861">
        <ele>1595.7</ele>
        <time>2014-07-31T11:39:55.280Z</time>
      </trkpt>
      <trkpt lat="44.93292" lon="6.83863">
        <ele>1596</ele>
        <time>2014-07-31T11:39:56.280Z</time>
      </trkpt>
      <trkpt lat="44.93291" lon="6.83863">
        <ele>1596</ele>
        <time>2014-07-31T11:39:59.280Z</time>
      </trkpt>
      <trkpt lat="44.93289" lon="6.83864">
        <ele>1596</ele>
        <time>2014-07-31T11:40:01.180Z</time>
      </trkpt>
      <trkpt lat="44.93287" lon="6.83864">
        <ele>1596</ele>
        <time>2014-07-31T11:40:03.280Z</time>
      </trkpt>
      <trkpt lat="44.93286" lon="6.83865">
        <ele>1596</ele>
        <time>2014-07-31T11:40:04.280Z</time>
      </trkpt>
      <trkpt lat="44.93285" lon="6.83866">
        <ele>1598</ele>
        <time>2014-07-31T11:40:06.180Z</time>
      </trkpt>
      <trkpt lat="44.93285" lon="6.83867">
        <ele>1598</ele>
        <time>2014-07-31T11:40:10.180Z</time>
      </trkpt>
      <trkpt lat="44.93284" lon="6.83869">
        <ele>1598</ele>
        <time>2014-07-31T11:40:12.180Z</time>
      </trkpt>
      <trkpt lat="44.93282" lon="6.8387">
        <ele>1598</ele>
        <time>2014-07-31T11:40:14.180Z</time>
      </trkpt>
      <trkpt lat="44.93283" lon="6.83871">
        <ele>1599</ele>
        <time>2014-07-31T11:40:16.180Z</time>
      </trkpt>
      <trkpt lat="44.93285" lon="6.83871">
        <ele>1599</ele>
        <time>2014-07-31T11:40:18.280Z</time>
      </trkpt>
      <trkpt lat="44.93284" lon="6.83872">
        <ele>1599</ele>
        <time>2014-07-31T11:40:20.280Z</time>
      </trkpt>
      <trkpt lat="44.93281" lon="6.83873">
        <ele>1599</ele>
        <time>2014-07-31T11:40:23.180Z</time>
      </trkpt>
      <trkpt lat="44.93281" lon="6.83874">
        <ele>1599</ele>
        <time>2014-07-31T11:40:24.180Z</time>
      </trkpt>
      <trkpt lat="44.93279" lon="6.83875">
        <ele>1600.4</ele>
        <time>2014-07-31T11:40:25.270Z</time>
      </trkpt>
      <trkpt lat="44.93279" lon="6.83875">
        <ele>1601</ele>
        <time>2014-07-31T11:40:26.280Z</time>
      </trkpt>
      <trkpt lat="44.93278" lon="6.83877">
        <ele>1601</ele>
        <time>2014-07-31T11:40:27.280Z</time>
      </trkpt>
      <trkpt lat="44.93277" lon="6.83877">
        <ele>1601</ele>
        <time>2014-07-31T11:40:28.380Z</time>
      </trkpt>
      <trkpt lat="44.93277" lon="6.83879">
        <ele>1601</ele>
        <time>2014-07-31T11:40:29.280Z</time>
      </trkpt>
      <trkpt lat="44.93277" lon="6.83881">
        <ele>1601</ele>
        <time>2014-07-31T11:40:31.280Z</time>
      </trkpt>
      <trkpt lat="44.93277" lon="6.83883">
        <ele>1601</ele>
        <time>2014-07-31T11:40:32.280Z</time>
      </trkpt>
      <trkpt lat="44.93277" lon="6.83884">
        <ele>1601</ele>
        <time>2014-07-31T11:40:33.280Z</time>
      </trkpt>
      <trkpt lat="44.93276" lon="6.83886">
        <ele>1602.4</ele>
        <time>2014-07-31T11:40:35.260Z</time>
      </trkpt>
      <trkpt lat="44.93275" lon="6.83886">
        <ele>1603</ele>
        <time>2014-07-31T11:40:36.280Z</time>
      </trkpt>
      <trkpt lat="44.93274" lon="6.83885">
        <ele>1603</ele>
        <time>2014-07-31T11:40:39.290Z</time>
      </trkpt>
      <trkpt lat="44.93275" lon="6.83884">
        <ele>1603</ele>
        <time>2014-07-31T11:40:41.280Z</time>
      </trkpt>
      <trkpt lat="44.93275" lon="6.83882">
        <ele>1603</ele>
        <time>2014-07-31T11:40:42.280Z</time>
      </trkpt>
      <trkpt lat="44.93276" lon="6.83879">
        <ele>1603</ele>
        <time>2014-07-31T11:40:44.180Z</time>
      </trkpt>
      <trkpt lat="44.93274" lon="6.83877">
        <ele>1603.6</ele>
        <time>2014-07-31T11:40:45.180Z</time>
      </trkpt>
      <trkpt lat="44.93273" lon="6.83876">
        <ele>1604</ele>
        <time>2014-07-31T11:40:46.180Z</time>
      </trkpt>
      <trkpt lat="44.9327" lon="6.83874">
        <ele>1604</ele>
        <time>2014-07-31T11:40:48.280Z</time>
      </trkpt>
      <trkpt lat="44.93269" lon="6.83873">
        <ele>1604</ele>
        <time>2014-07-31T11:40:49.280Z</time>
      </trkpt>
      <trkpt lat="44.93268" lon="6.83873">
        <ele>1604</ele>
        <time>2014-07-31T11:40:50.280Z</time>
      </trkpt>
      <trkpt lat="44.93267" lon="6.83871">
        <ele>1604</ele>
        <time>2014-07-31T11:40:52.280Z</time>
      </trkpt>
      <trkpt lat="44.93266" lon="6.83871">
        <ele>1604</ele>
        <time>2014-07-31T11:40:54.280Z</time>
      </trkpt>
      <trkpt lat="44.93264" lon="6.8387">
        <ele>1605</ele>
        <time>2014-07-31T11:40:57.180Z</time>
      </trkpt>
      <trkpt lat="44.93263" lon="6.83868">
        <ele>1605</ele>
        <time>2014-07-31T11:40:59.280Z</time>
      </trkpt>
      <trkpt lat="44.93262" lon="6.83866">
        <ele>1605</ele>
        <time>2014-07-31T11:41:01.180Z</time>
      </trkpt>
      <trkpt lat="44.93261" lon="6.83864">
        <ele>1605</ele>
        <time>2014-07-31T11:41:03.330Z</time>
      </trkpt>
      <trkpt lat="44.9326" lon="6.83863">
        <ele>1605</ele>
        <time>2014-07-31T11:41:04.280Z</time>
      </trkpt>
      <trkpt lat="44.93259" lon="6.83862">
        <ele>1606.4</ele>
        <time>2014-07-31T11:41:05.280Z</time>
      </trkpt>
      <trkpt lat="44.93257" lon="6.83861">
        <ele>1607</ele>
        <time>2014-07-31T11:41:07.180Z</time>
      </trkpt>
      <trkpt lat="44.93256" lon="6.8386">
        <ele>1607</ele>
        <time>2014-07-31T11:41:08.280Z</time>
      </trkpt>
      <trkpt lat="44.93255" lon="6.83858">
        <ele>1607</ele>
        <time>2014-07-31T11:41:09.280Z</time>
      </trkpt>
      <trkpt lat="44.93254" lon="6.83857">
        <ele>1607</ele>
        <time>2014-07-31T11:41:10.280Z</time>
      </trkpt>
      <trkpt lat="44.93255" lon="6.83856">
        <ele>1607</ele>
        <time>2014-07-31T11:41:11.280Z</time>
      </trkpt>
      <trkpt lat="44.93254" lon="6.83858">
        <ele>1608.7</ele>
        <time>2014-07-31T11:41:15.180Z</time>
      </trkpt>
      <trkpt lat="44.93253" lon="6.83859">
        <ele>1610</ele>
        <time>2014-07-31T11:41:17.240Z</time>
      </trkpt>
      <trkpt lat="44.93253" lon="6.83861">
        <ele>1610</ele>
        <time>2014-07-31T11:41:19.200Z</time>
      </trkpt>
      <trkpt lat="44.93252" lon="6.83863">
        <ele>1612</ele>
        <time>2014-07-31T11:41:21.280Z</time>
      </trkpt>
      <trkpt lat="44.93251" lon="6.83866">
        <ele>1612</ele>
        <time>2014-07-31T11:41:24.180Z</time>
      </trkpt>
      <trkpt lat="44.93251" lon="6.83868">
        <ele>1612</ele>
        <time>2014-07-31T11:41:26.180Z</time>
      </trkpt>
      <trkpt lat="44.9325" lon="6.8387">
        <ele>1612</ele>
        <time>2014-07-31T11:41:27.180Z</time>
      </trkpt>
      <trkpt lat="44.93249" lon="6.83871">
        <ele>1612</ele>
        <time>2014-07-31T11:41:28.380Z</time>
      </trkpt>
      <trkpt lat="44.93248" lon="6.83873">
        <ele>1612</ele>
        <time>2014-07-31T11:41:29.280Z</time>
      </trkpt>
      <trkpt lat="44.93248" lon="6.83875">
        <ele>1612</ele>
        <time>2014-07-31T11:41:31.180Z</time>
      </trkpt>
      <trkpt lat="44.93248" lon="6.83877">
        <ele>1612</ele>
        <time>2014-07-31T11:41:32.280Z</time>
      </trkpt>
      <trkpt lat="44.93248" lon="6.83878">
        <ele>1612</ele>
        <time>2014-07-31T11:41:34.240Z</time>
      </trkpt>
      <trkpt lat="44.93247" lon="6.83881">
        <ele>1614</ele>
        <time>2014-07-31T11:41:36.280Z</time>
      </trkpt>
      <trkpt lat="44.93247" lon="6.83882">
        <ele>1614</ele>
        <time>2014-07-31T11:41:37.280Z</time>
      </trkpt>
      <trkpt lat="44.93245" lon="6.83884">
        <ele>1614</ele>
        <time>2014-07-31T11:41:39.180Z</time>
      </trkpt>
      <trkpt lat="44.93244" lon="6.83885">
        <ele>1614</ele>
        <time>2014-07-31T11:41:40.280Z</time>
      </trkpt>
      <trkpt lat="44.93243" lon="6.83887">
        <ele>1614</ele>
        <time>2014-07-31T11:41:43.280Z</time>
      </trkpt>
      <trkpt lat="44.93243" lon="6.83888">
        <ele>1614</ele>
        <time>2014-07-31T11:41:44.280Z</time>
      </trkpt>
      <trkpt lat="44.93242" lon="6.8389">
        <ele>1616</ele>
        <time>2014-07-31T11:41:46.280Z</time>
      </trkpt>
      <trkpt lat="44.9324" lon="6.83891">
        <ele>1616</ele>
        <time>2014-07-31T11:41:48.280Z</time>
      </trkpt>
      <trkpt lat="44.93239" lon="6.83893">
        <ele>1616</ele>
        <time>2014-07-31T11:41:49.280Z</time>
      </trkpt>
      <trkpt lat="44.93239" lon="6.83895">
        <ele>1616</ele>
        <time>2014-07-31T11:41:50.280Z</time>
      </trkpt>
      <trkpt lat="44.93238" lon="6.83897">
        <ele>1616</ele>
        <time>2014-07-31T11:41:52.180Z</time>
      </trkpt>
      <trkpt lat="44.93238" lon="6.839">
        <ele>1616</ele>
        <time>2014-07-31T11:41:54.280Z</time>
      </trkpt>
      <trkpt lat="44.93238" lon="6.83901">
        <ele>1616.7</ele>
        <time>2014-07-31T11:41:55.280Z</time>
      </trkpt>
      <trkpt lat="44.93238" lon="6.83903">
        <ele>1617</ele>
        <time>2014-07-31T11:41:56.280Z</time>
      </trkpt>
      <trkpt lat="44.9324" lon="6.83904">
        <ele>1617</ele>
        <time>2014-07-31T11:41:57.280Z</time>
      </trkpt>
      <trkpt lat="44.93241" lon="6.83905">
        <ele>1617</ele>
        <time>2014-07-31T11:41:59.180Z</time>
      </trkpt>
      <trkpt lat="44.93241" lon="6.83906">
        <ele>1617</ele>
        <time>2014-07-31T11:42:00.140Z</time>
      </trkpt>
      <trkpt lat="44.93241" lon="6.83908">
        <ele>1617</ele>
        <time>2014-07-31T11:42:02.180Z</time>
      </trkpt>
      <trkpt lat="44.93242" lon="6.8391">
        <ele>1618.2</ele>
        <time>2014-07-31T11:42:05.180Z</time>
      </trkpt>
      <trkpt lat="44.93241" lon="6.83911">
        <ele>1619</ele>
        <time>2014-07-31T11:42:06.180Z</time>
      </trkpt>
      <trkpt lat="44.9324" lon="6.83913">
        <ele>1619</ele>
        <time>2014-07-31T11:42:08.280Z</time>
      </trkpt>
      <trkpt lat="44.93239" lon="6.83913">
        <ele>1619</ele>
        <time>2014-07-31T11:42:10.280Z</time>
      </trkpt>
      <trkpt lat="44.93237" lon="6.83913">
        <ele>1619</ele>
        <time>2014-07-31T11:42:12.280Z</time>
      </trkpt>
      <trkpt lat="44.93234" lon="6.83914">
        <ele>1620</ele>
        <time>2014-07-31T11:42:16.280Z</time>
      </trkpt>
      <trkpt lat="44.93232" lon="6.83913">
        <ele>1620</ele>
        <time>2014-07-31T11:42:19.180Z</time>
      </trkpt>
      <trkpt lat="44.93232" lon="6.8391">
        <ele>1620</ele>
        <time>2014-07-31T11:42:21.240Z</time>
      </trkpt>
      <trkpt lat="44.9323" lon="6.8391">
        <ele>1620</ele>
        <time>2014-07-31T11:42:24.180Z</time>
      </trkpt>
      <trkpt lat="44.93232" lon="6.83909">
        <ele>1620</ele>
        <time>2014-07-31T11:42:27.180Z</time>
      </trkpt>
      <trkpt lat="44.93231" lon="6.83907">
        <ele>1620</ele>
        <time>2014-07-31T11:42:34.180Z</time>
      </trkpt>
      <trkpt lat="44.93232" lon="6.83909">
        <ele>1619</ele>
        <time>2014-07-31T11:42:37.280Z</time>
      </trkpt>
      <trkpt lat="44.93234" lon="6.83911">
        <ele>1619</ele>
        <time>2014-07-31T11:42:38.240Z</time>
      </trkpt>
      <trkpt lat="44.93236" lon="6.83912">
        <ele>1619</ele>
        <time>2014-07-31T11:42:39.280Z</time>
      </trkpt>
      <trkpt lat="44.9324" lon="6.83913">
        <ele>1619</ele>
        <time>2014-07-31T11:42:41.280Z</time>
      </trkpt>
      <trkpt lat="44.93241" lon="6.83913">
        <ele>1619</ele>
        <time>2014-07-31T11:42:42.280Z</time>
      </trkpt>
      <trkpt lat="44.93244" lon="6.83912">
        <ele>1619</ele>
        <time>2014-07-31T11:42:44.180Z</time>
      </trkpt>
      <trkpt lat="44.93243" lon="6.83913">
        <ele>1619</ele>
        <time>2014-07-31T11:42:47.180Z</time>
      </trkpt>
      <trkpt lat="44.93242" lon="6.83912">
        <ele>1619</ele>
        <time>2014-07-31T11:42:48.280Z</time>
      </trkpt>
      <trkpt lat="44.93243" lon="6.83912">
        <ele>1619</ele>
        <time>2014-07-31T11:42:49.280Z</time>
      </trkpt>
      <trkpt lat="44.93244" lon="6.83912">
        <ele>1619</ele>
        <time>2014-07-31T11:42:53.280Z</time>
      </trkpt>
      <trkpt lat="44.93243" lon="6.83912">
        <ele>1619</ele>
        <time>2014-07-31T11:42:55.140Z</time>
      </trkpt>
      <trkpt lat="44.93243" lon="6.83912">
        <ele>1619</ele>
        <time>2014-07-31T11:42:56.180Z</time>
      </trkpt>
      <trkpt lat="44.93241" lon="6.83914">
        <ele>1619</ele>
        <time>2014-07-31T11:42:58.280Z</time>
      </trkpt>
      <trkpt lat="44.93239" lon="6.83914">
        <ele>1619</ele>
        <time>2014-07-31T11:42:59.280Z</time>
      </trkpt>
      <trkpt lat="44.93237" lon="6.83913">
        <ele>1619</ele>
        <time>2014-07-31T11:43:01.180Z</time>
      </trkpt>
      <trkpt lat="44.93236" lon="6.83912">
        <ele>1619</ele>
        <time>2014-07-31T11:43:09.180Z</time>
      </trkpt>
      <trkpt lat="44.93235" lon="6.83911">
        <ele>1619</ele>
        <time>2014-07-31T11:43:10.180Z</time>
      </trkpt>
      <trkpt lat="44.93234" lon="6.8391">
        <ele>1619</ele>
        <time>2014-07-31T11:43:11.180Z</time>
      </trkpt>
      <trkpt lat="44.93233" lon="6.83909">
        <ele>1619</ele>
        <time>2014-07-31T11:43:12.240Z</time>
      </trkpt>
      <trkpt lat="44.93234" lon="6.8391">
        <ele>1619</ele>
        <time>2014-07-31T11:43:16.270Z</time>
      </trkpt>
      <trkpt lat="44.93232" lon="6.8391">
        <ele>1619</ele>
        <time>2014-07-31T11:43:19.280Z</time>
      </trkpt>
      <trkpt lat="44.9323" lon="6.83909">
        <ele>1619</ele>
        <time>2014-07-31T11:43:20.280Z</time>
      </trkpt>
      <trkpt lat="44.93232" lon="6.8391">
        <ele>1619</ele>
        <time>2014-07-31T11:43:22.280Z</time>
      </trkpt>
      <trkpt lat="44.93233" lon="6.8391">
        <ele>1619</ele>
        <time>2014-07-31T11:43:26.280Z</time>
      </trkpt>
      <trkpt lat="44.9323" lon="6.83909">
        <ele>1619</ele>
        <time>2014-07-31T11:43:29.050Z</time>
      </trkpt>
      <trkpt lat="44.93229" lon="6.83908">
        <ele>1619</ele>
        <time>2014-07-31T11:43:31.180Z</time>
      </trkpt>
      <trkpt lat="44.93231" lon="6.83909">
        <ele>1619</ele>
        <time>2014-07-31T11:43:35.280Z</time>
      </trkpt>
      <trkpt lat="44.93232" lon="6.8391">
        <ele>1619</ele>
        <time>2014-07-31T11:43:36.280Z</time>
      </trkpt>
      <trkpt lat="44.93234" lon="6.83911">
        <ele>1619</ele>
        <time>2014-07-31T11:43:37.280Z</time>
      </trkpt>
      <trkpt lat="44.93236" lon="6.83912">
        <ele>1619</ele>
        <time>2014-07-31T11:43:39.180Z</time>
      </trkpt>
      <trkpt lat="44.93237" lon="6.83913">
        <ele>1619</ele>
        <time>2014-07-31T11:43:42.280Z</time>
      </trkpt>
      <trkpt lat="44.93238" lon="6.83913">
        <ele>1619</ele>
        <time>2014-07-31T11:43:44.180Z</time>
      </trkpt>
      <trkpt lat="44.9324" lon="6.83914">
        <ele>1619</ele>
        <time>2014-07-31T11:43:46.240Z</time>
      </trkpt>
      <trkpt lat="44.93242" lon="6.83914">
        <ele>1619</ele>
        <time>2014-07-31T11:43:47.280Z</time>
      </trkpt>
      <trkpt lat="44.93244" lon="6.83915">
        <ele>1619</ele>
        <time>2014-07-31T11:43:49.180Z</time>
      </trkpt>
      <trkpt lat="44.93245" lon="6.83915">
        <ele>1619</ele>
        <time>2014-07-31T11:43:50.180Z</time>
      </trkpt>
      <trkpt lat="44.93247" lon="6.83916">
        <ele>1619</ele>
        <time>2014-07-31T11:43:51.240Z</time>
      </trkpt>
      <trkpt lat="44.93248" lon="6.83916">
        <ele>1619</ele>
        <time>2014-07-31T11:43:55.280Z</time>
      </trkpt>
      <trkpt lat="44.93249" lon="6.83916">
        <ele>1619</ele>
        <time>2014-07-31T11:43:57.280Z</time>
      </trkpt>
      <trkpt lat="44.93251" lon="6.83915">
        <ele>1619</ele>
        <time>2014-07-31T11:43:59.180Z</time>
      </trkpt>
      <trkpt lat="44.93251" lon="6.83915">
        <ele>1619</ele>
        <time>2014-07-31T11:44:00.240Z</time>
      </trkpt>
      <trkpt lat="44.93252" lon="6.83916">
        <ele>1619</ele>
        <time>2014-07-31T11:44:01.280Z</time>
      </trkpt>
      <trkpt lat="44.9325" lon="6.83916">
        <ele>1619</ele>
        <time>2014-07-31T11:44:02.280Z</time>
      </trkpt>
      <trkpt lat="44.93249" lon="6.83915">
        <ele>1619</ele>
        <time>2014-07-31T11:44:04.270Z</time>
      </trkpt>
      <trkpt lat="44.93248" lon="6.83914">
        <ele>1619</ele>
        <time>2014-07-31T11:44:05.280Z</time>
      </trkpt>
      <trkpt lat="44.93249" lon="6.83915">
        <ele>1619</ele>
        <time>2014-07-31T11:44:11.180Z</time>
      </trkpt>
      <trkpt lat="44.93251" lon="6.83915">
        <ele>1619</ele>
        <time>2014-07-31T11:44:13.280Z</time>
      </trkpt>
      <trkpt lat="44.93253" lon="6.83915">
        <ele>1619</ele>
        <time>2014-07-31T11:44:15.280Z</time>
      </trkpt>
      <trkpt lat="44.93254" lon="6.83916">
        <ele>1619</ele>
        <time>2014-07-31T11:44:16.280Z</time>
      </trkpt>
      <trkpt lat="44.93255" lon="6.83916">
        <ele>1619</ele>
        <time>2014-07-31T11:44:17.240Z</time>
      </trkpt>
      <trkpt lat="44.93257" lon="6.83917">
        <ele>1619</ele>
        <time>2014-07-31T11:44:19.180Z</time>
      </trkpt>
      <trkpt lat="44.93258" lon="6.83916">
        <ele>1619</ele>
        <time>2014-07-31T11:44:20.180Z</time>
      </trkpt>
      <trkpt lat="44.93258" lon="6.83918">
        <ele>1619.6</ele>
        <time>2014-07-31T11:44:25.180Z</time>
      </trkpt>
      <trkpt lat="44.93257" lon="6.83919">
        <ele>1620</ele>
        <time>2014-07-31T11:44:30.180Z</time>
      </trkpt>
      <trkpt lat="44.93259" lon="6.8392">
        <ele>1620</ele>
        <time>2014-07-31T11:44:34.240Z</time>
      </trkpt>
      <trkpt lat="44.93263" lon="6.83922">
        <ele>1619</ele>
        <time>2014-07-31T11:44:38.280Z</time>
      </trkpt>
      <trkpt lat="44.93265" lon="6.83923">
        <ele>1619</ele>
        <time>2014-07-31T11:44:39.280Z</time>
      </trkpt>
      <trkpt lat="44.93267" lon="6.83923">
        <ele>1619</ele>
        <time>2014-07-31T11:44:41.280Z</time>
      </trkpt>
      <trkpt lat="44.93266" lon="6.83924">
        <ele>1619</ele>
        <time>2014-07-31T11:44:44.180Z</time>
      </trkpt>
      <trkpt lat="44.93263" lon="6.83922">
        <ele>1618</ele>
        <time>2014-07-31T11:44:49.180Z</time>
      </trkpt>
      <trkpt lat="44.93261" lon="6.8392">
        <ele>1618</ele>
        <time>2014-07-31T11:44:50.280Z</time>
      </trkpt>
      <trkpt lat="44.93259" lon="6.83918">
        <ele>1618</ele>
        <time>2014-07-31T11:44:52.180Z</time>
      </trkpt>
      <trkpt lat="44.93258" lon="6.83917">
        <ele>1618</ele>
        <time>2014-07-31T11:44:53.280Z</time>
      </trkpt>
      <trkpt lat="44.93258" lon="6.83916">
        <ele>1618</ele>
        <time>2014-07-31T11:44:54.240Z</time>
      </trkpt>
      <trkpt lat="44.93258" lon="6.83914">
        <ele>1618</ele>
        <time>2014-07-31T11:44:56.180Z</time>
      </trkpt>
      <trkpt lat="44.93257" lon="6.83913">
        <ele>1618</ele>
        <time>2014-07-31T11:45:01.180Z</time>
      </trkpt>
      <trkpt lat="44.93258" lon="6.83913">
        <ele>1618</ele>
        <time>2014-07-31T11:45:04.280Z</time>
      </trkpt>
      <trkpt lat="44.9326" lon="6.83915">
        <ele>1619</ele>
        <time>2014-07-31T11:45:07.280Z</time>
      </trkpt>
      <trkpt lat="44.93261" lon="6.83914">
        <ele>1619</ele>
        <time>2014-07-31T11:45:10.180Z</time>
      </trkpt>
      <trkpt lat="44.93262" lon="6.83915">
        <ele>1619</ele>
        <time>2014-07-31T11:45:11.250Z</time>
      </trkpt>
      <trkpt lat="44.93263" lon="6.83915">
        <ele>1619</ele>
        <time>2014-07-31T11:45:12.280Z</time>
      </trkpt>
      <trkpt lat="44.93264" lon="6.83915">
        <ele>1619</ele>
        <time>2014-07-31T11:45:13.280Z</time>
      </trkpt>
      <trkpt lat="44.93266" lon="6.83916">
        <ele>1619</ele>
        <time>2014-07-31T11:45:15.280Z</time>
      </trkpt>
      <trkpt lat="44.93267" lon="6.83916">
        <ele>1619</ele>
        <time>2014-07-31T11:45:16.280Z</time>
      </trkpt>
      <trkpt lat="44.93268" lon="6.83917">
        <ele>1619</ele>
        <time>2014-07-31T11:45:18.280Z</time>
      </trkpt>
      <trkpt lat="44.93269" lon="6.83917">
        <ele>1619</ele>
        <time>2014-07-31T11:45:20.180Z</time>
      </trkpt>
      <trkpt lat="44.93271" lon="6.83917">
        <ele>1619</ele>
        <time>2014-07-31T11:45:22.280Z</time>
      </trkpt>
      <trkpt lat="44.93272" lon="6.83918">
        <ele>1619</ele>
        <time>2014-07-31T11:45:24.180Z</time>
      </trkpt>
      <trkpt lat="44.93273" lon="6.83918">
        <ele>1619</ele>
        <time>2014-07-31T11:45:25.180Z</time>
      </trkpt>
      <trkpt lat="44.93274" lon="6.83919">
        <ele>1619</ele>
        <time>2014-07-31T11:45:26.180Z</time>
      </trkpt>
      <trkpt lat="44.93275" lon="6.83919">
        <ele>1619</ele>
        <time>2014-07-31T11:45:27.180Z</time>
      </trkpt>
      <trkpt lat="44.93274" lon="6.83918">
        <ele>1619</ele>
        <time>2014-07-31T11:45:29.280Z</time>
      </trkpt>
      <trkpt lat="44.93272" lon="6.83917">
        <ele>1619</ele>
        <time>2014-07-31T11:45:32.180Z</time>
      </trkpt>
      <trkpt lat="44.9327" lon="6.83916">
        <ele>1619</ele>
        <time>2014-07-31T11:45:33.280Z</time>
      </trkpt>
      <trkpt lat="44.93272" lon="6.83917">
        <ele>1619</ele>
        <time>2014-07-31T11:45:36.180Z</time>
      </trkpt>
      <trkpt lat="44.93274" lon="6.83918">
        <ele>1619</ele>
        <time>2014-07-31T11:45:38.280Z</time>
      </trkpt>
      <trkpt lat="44.93276" lon="6.83918">
        <ele>1619</ele>
        <time>2014-07-31T11:45:39.280Z</time>
      </trkpt>
      <trkpt lat="44.93277" lon="6.83918">
        <ele>1619</ele>
        <time>2014-07-31T11:45:40.280Z</time>
      </trkpt>
      <trkpt lat="44.9328" lon="6.83919">
        <ele>1619</ele>
        <time>2014-07-31T11:45:43.260Z</time>
      </trkpt>
      <trkpt lat="44.93281" lon="6.83918">
        <ele>1619</ele>
        <time>2014-07-31T11:45:44.280Z</time>
      </trkpt>
      <trkpt lat="44.93283" lon="6.83919">
        <ele>1619</ele>
        <time>2014-07-31T11:45:46.180Z</time>
      </trkpt>
      <trkpt lat="44.93284" lon="6.83919">
        <ele>1619</ele>
        <time>2014-07-31T11:45:50.280Z</time>
      </trkpt>
      <trkpt lat="44.93283" lon="6.8392">
        <ele>1619</ele>
        <time>2014-07-31T11:45:54.180Z</time>
      </trkpt>
      <trkpt lat="44.93283" lon="6.83921">
        <ele>1618</ele>
        <time>2014-07-31T11:46:01.180Z</time>
      </trkpt>
      <trkpt lat="44.93281" lon="6.83921">
        <ele>1618.7</ele>
        <time>2014-07-31T11:46:05.280Z</time>
      </trkpt>
      <trkpt lat="44.9328" lon="6.83921">
        <ele>1619</ele>
        <time>2014-07-31T11:46:08.280Z</time>
      </trkpt>
      <trkpt lat="44.93279" lon="6.8392">
        <ele>1619</ele>
        <time>2014-07-31T11:46:12.280Z</time>
      </trkpt>
      <trkpt lat="44.93278" lon="6.83918">
        <ele>1619</ele>
        <time>2014-07-31T11:46:15.280Z</time>
      </trkpt>
      <trkpt lat="44.93277" lon="6.83916">
        <ele>1619</ele>
        <time>2014-07-31T11:46:19.240Z</time>
      </trkpt>
      <trkpt lat="44.93276" lon="6.83914">
        <ele>1619</ele>
        <time>2014-07-31T11:46:25.280Z</time>
      </trkpt>
      <trkpt lat="44.93278" lon="6.83916">
        <ele>1619</ele>
        <time>2014-07-31T11:46:29.180Z</time>
      </trkpt>
      <trkpt lat="44.93279" lon="6.83915">
        <ele>1619</ele>
        <time>2014-07-31T11:46:31.180Z</time>
      </trkpt>
      <trkpt lat="44.93279" lon="6.83916">
        <ele>1619</ele>
        <time>2014-07-31T11:46:35.260Z</time>
      </trkpt>
      <trkpt lat="44.93277" lon="6.83916">
        <ele>1619</ele>
        <time>2014-07-31T11:46:38.280Z</time>
      </trkpt>
      <trkpt lat="44.93276" lon="6.83915">
        <ele>1619</ele>
        <time>2014-07-31T11:46:40.280Z</time>
      </trkpt>
      <trkpt lat="44.93278" lon="6.83916">
        <ele>1619</ele>
        <time>2014-07-31T11:46:45.180Z</time>
      </trkpt>
      <trkpt lat="44.9328" lon="6.83917">
        <ele>1619</ele>
        <time>2014-07-31T11:46:46.180Z</time>
      </trkpt>
      <trkpt lat="44.93282" lon="6.83917">
        <ele>1619</ele>
        <time>2014-07-31T11:46:48.180Z</time>
      </trkpt>
      <trkpt lat="44.9328" lon="6.83916">
        <ele>1619</ele>
        <time>2014-07-31T11:46:54.180Z</time>
      </trkpt>
      <trkpt lat="44.93279" lon="6.83916">
        <ele>1618</ele>
        <time>2014-07-31T11:46:56.180Z</time>
      </trkpt>
      <trkpt lat="44.93278" lon="6.83915">
        <ele>1618</ele>
        <time>2014-07-31T11:47:01.180Z</time>
      </trkpt>
      <trkpt lat="44.93275" lon="6.83914">
        <ele>1618</ele>
        <time>2014-07-31T11:47:03.280Z</time>
      </trkpt>
      <trkpt lat="44.93274" lon="6.83913">
        <ele>1618.7</ele>
        <time>2014-07-31T11:47:05.280Z</time>
      </trkpt>
      <trkpt lat="44.9327" lon="6.83912">
        <ele>1619</ele>
        <time>2014-07-31T11:47:07.280Z</time>
      </trkpt>
      <trkpt lat="44.93268" lon="6.83911">
        <ele>1619</ele>
        <time>2014-07-31T11:47:09.180Z</time>
      </trkpt>
      <trkpt lat="44.93266" lon="6.8391">
        <ele>1619</ele>
        <time>2014-07-31T11:47:10.250Z</time>
      </trkpt>
      <trkpt lat="44.93269" lon="6.83911">
        <ele>1619</ele>
        <time>2014-07-31T11:47:14.180Z</time>
      </trkpt>
      <trkpt lat="44.9327" lon="6.83912">
        <ele>1619</ele>
        <time>2014-07-31T11:47:15.180Z</time>
      </trkpt>
      <trkpt lat="44.93271" lon="6.83913">
        <ele>1619</ele>
        <time>2014-07-31T11:47:16.180Z</time>
      </trkpt>
      <trkpt lat="44.93272" lon="6.83913">
        <ele>1619</ele>
        <time>2014-07-31T11:47:17.080Z</time>
      </trkpt>
      <trkpt lat="44.93276" lon="6.83914">
        <ele>1619</ele>
        <time>2014-07-31T11:47:18.280Z</time>
      </trkpt>
      <trkpt lat="44.93278" lon="6.83915">
        <ele>1619</ele>
        <time>2014-07-31T11:47:19.280Z</time>
      </trkpt>
      <trkpt lat="44.9328" lon="6.83916">
        <ele>1619</ele>
        <time>2014-07-31T11:47:21.180Z</time>
      </trkpt>
      <trkpt lat="44.93281" lon="6.83918">
        <ele>1619</ele>
        <time>2014-07-31T11:47:23.280Z</time>
      </trkpt>
      <trkpt lat="44.93283" lon="6.83917">
        <ele>1619</ele>
        <time>2014-07-31T11:47:25.180Z</time>
      </trkpt>
      <trkpt lat="44.93284" lon="6.83918">
        <ele>1619</ele>
        <time>2014-07-31T11:47:26.180Z</time>
      </trkpt>
      <trkpt lat="44.93287" lon="6.83918">
        <ele>1619</ele>
        <time>2014-07-31T11:47:27.250Z</time>
      </trkpt>
      <trkpt lat="44.93287" lon="6.83921">
        <ele>1619</ele>
        <time>2014-07-31T11:47:29.180Z</time>
      </trkpt>
      <trkpt lat="44.93288" lon="6.83923">
        <ele>1619</ele>
        <time>2014-07-31T11:47:30.180Z</time>
      </trkpt>
      <trkpt lat="44.9329" lon="6.83925">
        <ele>1619</ele>
        <time>2014-07-31T11:47:31.180Z</time>
      </trkpt>
      <trkpt lat="44.93291" lon="6.83926">
        <ele>1619</ele>
        <time>2014-07-31T11:47:32.180Z</time>
      </trkpt>
      <trkpt lat="44.93292" lon="6.83928">
        <ele>1619</ele>
        <time>2014-07-31T11:47:33.180Z</time>
      </trkpt>
      <trkpt lat="44.93291" lon="6.8393">
        <ele>1619</ele>
        <time>2014-07-31T11:47:34.240Z</time>
      </trkpt>
      <trkpt lat="44.9329" lon="6.83932">
        <ele>1619</ele>
        <time>2014-07-31T11:47:35.280Z</time>
      </trkpt>
      <trkpt lat="44.9329" lon="6.83937">
        <ele>1619</ele>
        <time>2014-07-31T11:47:37.180Z</time>
      </trkpt>
      <trkpt lat="44.93291" lon="6.8394">
        <ele>1619</ele>
        <time>2014-07-31T11:47:38.280Z</time>
      </trkpt>
      <trkpt lat="44.93292" lon="6.83944">
        <ele>1619</ele>
        <time>2014-07-31T11:47:39.280Z</time>
      </trkpt>
      <trkpt lat="44.93293" lon="6.83949">
        <ele>1619</ele>
        <time>2014-07-31T11:47:40.280Z</time>
      </trkpt>
      <trkpt lat="44.93292" lon="6.83954">
        <ele>1619</ele>
        <time>2014-07-31T11:47:41.280Z</time>
      </trkpt>
      <trkpt lat="44.93291" lon="6.8396">
        <ele>1619</ele>
        <time>2014-07-31T11:47:42.280Z</time>
      </trkpt>
      <trkpt lat="44.9329" lon="6.8397">
        <ele>1619</ele>
        <time>2014-07-31T11:47:44.240Z</time>
      </trkpt>
      <trkpt lat="44.93289" lon="6.83975">
        <ele>1618.3</ele>
        <time>2014-07-31T11:47:45.280Z</time>
      </trkpt>
      <trkpt lat="44.93288" lon="6.83978">
        <ele>1618</ele>
        <time>2014-07-31T11:47:46.280Z</time>
      </trkpt>
      <trkpt lat="44.93288" lon="6.83984">
        <ele>1618</ele>
        <time>2014-07-31T11:47:48.180Z</time>
      </trkpt>
      <trkpt lat="44.93288" lon="6.83987">
        <ele>1618</ele>
        <time>2014-07-31T11:47:49.180Z</time>
      </trkpt>
      <trkpt lat="44.9329" lon="6.8399">
        <ele>1618</ele>
        <time>2014-07-31T11:47:50.180Z</time>
      </trkpt>
      <trkpt lat="44.93292" lon="6.83994">
        <ele>1618</ele>
        <time>2014-07-31T11:47:51.140Z</time>
      </trkpt>
      <trkpt lat="44.93296" lon="6.83998">
        <ele>1618</ele>
        <time>2014-07-31T11:47:52.180Z</time>
      </trkpt>
      <trkpt lat="44.93301" lon="6.84002">
        <ele>1618</ele>
        <time>2014-07-31T11:47:53.280Z</time>
      </trkpt>
      <trkpt lat="44.93305" lon="6.84007">
        <ele>1618</ele>
        <time>2014-07-31T11:47:54.280Z</time>
      </trkpt>
      <trkpt lat="44.93309" lon="6.84012">
        <ele>1617.3</ele>
        <time>2014-07-31T11:47:55.280Z</time>
      </trkpt>
      <trkpt lat="44.93312" lon="6.84018">
        <ele>1617</ele>
        <time>2014-07-31T11:47:56.350Z</time>
      </trkpt>
      <trkpt lat="44.93316" lon="6.84026">
        <ele>1617</ele>
        <time>2014-07-31T11:47:57.280Z</time>
      </trkpt>
      <trkpt lat="44.93324" lon="6.84039">
        <ele>1617</ele>
        <time>2014-07-31T11:47:59.180Z</time>
      </trkpt>
      <trkpt lat="44.93327" lon="6.84045">
        <ele>1617</ele>
        <time>2014-07-31T11:48:00.240Z</time>
      </trkpt>
      <trkpt lat="44.93333" lon="6.84058">
        <ele>1617</ele>
        <time>2014-07-31T11:48:02.180Z</time>
      </trkpt>
      <trkpt lat="44.93336" lon="6.84064">
        <ele>1617</ele>
        <time>2014-07-31T11:48:03.280Z</time>
      </trkpt>
      <trkpt lat="44.93339" lon="6.84071">
        <ele>1617</ele>
        <time>2014-07-31T11:48:04.280Z</time>
      </trkpt>
      <trkpt lat="44.93341" lon="6.8408">
        <ele>1614.2</ele>
        <time>2014-07-31T11:48:05.280Z</time>
      </trkpt>
      <trkpt lat="44.93345" lon="6.84089">
        <ele>1613</ele>
        <time>2014-07-31T11:48:06.280Z</time>
      </trkpt>
      <trkpt lat="44.93352" lon="6.84108">
        <ele>1613</ele>
        <time>2014-07-31T11:48:08.280Z</time>
      </trkpt>
      <trkpt lat="44.93356" lon="6.84118">
        <ele>1613</ele>
        <time>2014-07-31T11:48:09.280Z</time>
      </trkpt>
      <trkpt lat="44.9336" lon="6.84127">
        <ele>1610.9</ele>
        <time>2014-07-31T11:48:10.280Z</time>
      </trkpt>
      <trkpt lat="44.93364" lon="6.84136">
        <ele>1610</ele>
        <time>2014-07-31T11:48:11.280Z</time>
      </trkpt>
      <trkpt lat="44.93367" lon="6.84144">
        <ele>1610</ele>
        <time>2014-07-31T11:48:12.280Z</time>
      </trkpt>
      <trkpt lat="44.93371" lon="6.84152">
        <ele>1610</ele>
        <time>2014-07-31T11:48:13.280Z</time>
      </trkpt>
      <trkpt lat="44.93375" lon="6.8416">
        <ele>1610</ele>
        <time>2014-07-31T11:48:14.280Z</time>
      </trkpt>
      <trkpt lat="44.93378" lon="6.84169">
        <ele>1608.6</ele>
        <time>2014-07-31T11:48:15.280Z</time>
      </trkpt>
      <trkpt lat="44.93381" lon="6.84178">
        <ele>1608</ele>
        <time>2014-07-31T11:48:16.280Z</time>
      </trkpt>
      <trkpt lat="44.93384" lon="6.84186">
        <ele>1608</ele>
        <time>2014-07-31T11:48:17.140Z</time>
      </trkpt>
      <trkpt lat="44.93394" lon="6.84204">
        <ele>1608</ele>
        <time>2014-07-31T11:48:19.180Z</time>
      </trkpt>
      <trkpt lat="44.93399" lon="6.84213">
        <ele>1605.9</ele>
        <time>2014-07-31T11:48:20.280Z</time>
      </trkpt>
      <trkpt lat="44.93404" lon="6.84222">
        <ele>1605</ele>
        <time>2014-07-31T11:48:21.280Z</time>
      </trkpt>
      <trkpt lat="44.93409" lon="6.84231">
        <ele>1605</ele>
        <time>2014-07-31T11:48:22.280Z</time>
      </trkpt>
      <trkpt lat="44.93418" lon="6.84245">
        <ele>1605</ele>
        <time>2014-07-31T11:48:24.180Z</time>
      </trkpt>
      <trkpt lat="44.9342" lon="6.8425">
        <ele>1603.8</ele>
        <time>2014-07-31T11:48:25.180Z</time>
      </trkpt>
      <trkpt lat="44.93421" lon="6.84254">
        <ele>1603</ele>
        <time>2014-07-31T11:48:26.180Z</time>
      </trkpt>
      <trkpt lat="44.93422" lon="6.84258">
        <ele>1603</ele>
        <time>2014-07-31T11:48:27.180Z</time>
      </trkpt>
      <trkpt lat="44.93421" lon="6.84261">
        <ele>1603</ele>
        <time>2014-07-31T11:48:28.280Z</time>
      </trkpt>
      <trkpt lat="44.9342" lon="6.84267">
        <ele>1603</ele>
        <time>2014-07-31T11:48:30.180Z</time>
      </trkpt>
      <trkpt lat="44.93421" lon="6.8427">
        <ele>1603</ele>
        <time>2014-07-31T11:48:31.180Z</time>
      </trkpt>
      <trkpt lat="44.93422" lon="6.84273">
        <ele>1603</ele>
        <time>2014-07-31T11:48:32.180Z</time>
      </trkpt>
      <trkpt lat="44.93423" lon="6.84276">
        <ele>1603</ele>
        <time>2014-07-31T11:48:33.280Z</time>
      </trkpt>
      <trkpt lat="44.93426" lon="6.84281">
        <ele>1603</ele>
        <time>2014-07-31T11:48:35.240Z</time>
      </trkpt>
      <trkpt lat="44.93427" lon="6.84284">
        <ele>1603</ele>
        <time>2014-07-31T11:48:36.280Z</time>
      </trkpt>
      <trkpt lat="44.93428" lon="6.84287">
        <ele>1603</ele>
        <time>2014-07-31T11:48:37.280Z</time>
      </trkpt>
      <trkpt lat="44.93431" lon="6.84291">
        <ele>1603</ele>
        <time>2014-07-31T11:48:39.180Z</time>
      </trkpt>
      <trkpt lat="44.93433" lon="6.84294">
        <ele>1603</ele>
        <time>2014-07-31T11:48:40.260Z</time>
      </trkpt>
      <trkpt lat="44.93434" lon="6.84295">
        <ele>1603</ele>
        <time>2014-07-31T11:48:41.280Z</time>
      </trkpt>
      <trkpt lat="44.93437" lon="6.84299">
        <ele>1603</ele>
        <time>2014-07-31T11:48:43.280Z</time>
      </trkpt>
      <trkpt lat="44.93438" lon="6.84297">
        <ele>1602</ele>
        <time>2014-07-31T11:48:46.280Z</time>
      </trkpt>
      <trkpt lat="44.93436" lon="6.84295">
        <ele>1602</ele>
        <time>2014-07-31T11:48:52.250Z</time>
      </trkpt>
      <trkpt lat="44.93435" lon="6.84295">
        <ele>1602</ele>
        <time>2014-07-31T11:48:54.280Z</time>
      </trkpt>
      <trkpt lat="44.93434" lon="6.84294">
        <ele>1602</ele>
        <time>2014-07-31T11:48:57.280Z</time>
      </trkpt>
      <trkpt lat="44.93432" lon="6.84292">
        <ele>1602</ele>
        <time>2014-07-31T11:48:59.180Z</time>
      </trkpt>
      <trkpt lat="44.93432" lon="6.84292">
        <ele>1602</ele>
        <time>2014-07-31T11:49:00.140Z</time>
      </trkpt>
      <trkpt lat="44.93431" lon="6.84291">
        <ele>1602</ele>
        <time>2014-07-31T11:49:02.180Z</time>
      </trkpt>
      <trkpt lat="44.9343" lon="6.84291">
        <ele>1602</ele>
        <time>2014-07-31T11:49:09.240Z</time>
      </trkpt>
      <trkpt lat="44.9343" lon="6.8429">
        <ele>1602</ele>
        <time>2014-07-31T11:49:19.180Z</time>
      </trkpt>
      <trkpt lat="44.93431" lon="6.8429">
        <ele>1602</ele>
        <time>2014-07-31T11:49:22.280Z</time>
      </trkpt>
      <trkpt lat="44.93431" lon="6.84291">
        <ele>1602</ele>
        <time>2014-07-31T11:49:26.240Z</time>
      </trkpt>
      <trkpt lat="44.9343" lon="6.84293">
        <ele>1602</ele>
        <time>2014-07-31T11:49:29.180Z</time>
      </trkpt>
      <trkpt lat="44.93433" lon="6.84295">
        <ele>1602</ele>
        <time>2014-07-31T11:49:36.180Z</time>
      </trkpt>
      <trkpt lat="44.93433" lon="6.84297">
        <ele>1602</ele>
        <time>2014-07-31T11:49:38.280Z</time>
      </trkpt>
      <trkpt lat="44.93434" lon="6.84298">
        <ele>1602</ele>
        <time>2014-07-31T11:49:39.280Z</time>
      </trkpt>
      <trkpt lat="44.93435" lon="6.84299">
        <ele>1602</ele>
        <time>2014-07-31T11:49:40.280Z</time>
      </trkpt>
      <trkpt lat="44.93437" lon="6.84301">
        <ele>1602</ele>
        <time>2014-07-31T11:49:41.280Z</time>
      </trkpt>
      <trkpt lat="44.93438" lon="6.84302">
        <ele>1602</ele>
        <time>2014-07-31T11:49:42.280Z</time>
      </trkpt>
      <trkpt lat="44.93441" lon="6.84305">
        <ele>1602</ele>
        <time>2014-07-31T11:49:44.260Z</time>
      </trkpt>
      <trkpt lat="44.93442" lon="6.84306">
        <ele>1602.7</ele>
        <time>2014-07-31T11:49:45.280Z</time>
      </trkpt>
      <trkpt lat="44.93444" lon="6.84308">
        <ele>1603</ele>
        <time>2014-07-31T11:49:46.280Z</time>
      </trkpt>
      <trkpt lat="44.93444" lon="6.8431">
        <ele>1603</ele>
        <time>2014-07-31T11:49:47.280Z</time>
      </trkpt>
      <trkpt lat="44.93446" lon="6.84313">
        <ele>1603</ele>
        <time>2014-07-31T11:49:49.180Z</time>
      </trkpt>
      <trkpt lat="44.93447" lon="6.84315">
        <ele>1603</ele>
        <time>2014-07-31T11:49:50.180Z</time>
      </trkpt>
      <trkpt lat="44.93448" lon="6.84316">
        <ele>1603</ele>
        <time>2014-07-31T11:49:51.140Z</time>
      </trkpt>
      <trkpt lat="44.93449" lon="6.84318">
        <ele>1603</ele>
        <time>2014-07-31T11:49:54.280Z</time>
      </trkpt>
      <trkpt lat="44.93449" lon="6.84321">
        <ele>1603</ele>
        <time>2014-07-31T11:49:56.180Z</time>
      </trkpt>
      <trkpt lat="44.93448" lon="6.84324">
        <ele>1603</ele>
        <time>2014-07-31T11:50:00.160Z</time>
      </trkpt>
      <trkpt lat="44.93447" lon="6.84325">
        <ele>1603</ele>
        <time>2014-07-31T11:50:03.280Z</time>
      </trkpt>
      <trkpt lat="44.93447" lon="6.84326">
        <ele>1603</ele>
        <time>2014-07-31T11:50:04.280Z</time>
      </trkpt>
      <trkpt lat="44.93447" lon="6.84328">
        <ele>1605</ele>
        <time>2014-07-31T11:50:06.280Z</time>
      </trkpt>
      <trkpt lat="44.93448" lon="6.8433">
        <ele>1605</ele>
        <time>2014-07-31T11:50:08.260Z</time>
      </trkpt>
      <trkpt lat="44.93448" lon="6.84332">
        <ele>1605</ele>
        <time>2014-07-31T11:50:09.280Z</time>
      </trkpt>
      <trkpt lat="44.93448" lon="6.84333">
        <ele>1605</ele>
        <time>2014-07-31T11:50:10.280Z</time>
      </trkpt>
      <trkpt lat="44.93448" lon="6.84335">
        <ele>1605</ele>
        <time>2014-07-31T11:50:11.380Z</time>
      </trkpt>
      <trkpt lat="44.93449" lon="6.8434">
        <ele>1605</ele>
        <time>2014-07-31T11:50:14.180Z</time>
      </trkpt>
      <trkpt lat="44.93449" lon="6.84342">
        <ele>1606.2</ele>
        <time>2014-07-31T11:50:15.180Z</time>
      </trkpt>
      <trkpt lat="44.93449" lon="6.84343">
        <ele>1607</ele>
        <time>2014-07-31T11:50:16.280Z</time>
      </trkpt>
      <trkpt lat="44.93445" lon="6.84346">
        <ele>1607</ele>
        <time>2014-07-31T11:50:18.280Z</time>
      </trkpt>
      <trkpt lat="44.93442" lon="6.8435">
        <ele>1607</ele>
        <time>2014-07-31T11:50:20.280Z</time>
      </trkpt>
      <trkpt lat="44.93443" lon="6.84352">
        <ele>1607</ele>
        <time>2014-07-31T11:50:22.280Z</time>
      </trkpt>
      <trkpt lat="44.93442" lon="6.84354">
        <ele>1607</ele>
        <time>2014-07-31T11:50:24.180Z</time>
      </trkpt>
      <trkpt lat="44.93442" lon="6.84356">
        <ele>1608.4</ele>
        <time>2014-07-31T11:50:25.280Z</time>
      </trkpt>
      <trkpt lat="44.93442" lon="6.84358">
        <ele>1609</ele>
        <time>2014-07-31T11:50:26.280Z</time>
      </trkpt>
      <trkpt lat="44.93441" lon="6.84359">
        <ele>1609</ele>
        <time>2014-07-31T11:50:27.280Z</time>
      </trkpt>
      <trkpt lat="44.9344" lon="6.84362">
        <ele>1609</ele>
        <time>2014-07-31T11:50:29.180Z</time>
      </trkpt>
      <trkpt lat="44.9344" lon="6.84364">
        <ele>1609</ele>
        <time>2014-07-31T11:50:30.260Z</time>
      </trkpt>
      <trkpt lat="44.9344" lon="6.84365">
        <ele>1609</ele>
        <time>2014-07-31T11:50:31.280Z</time>
      </trkpt>
      <trkpt lat="44.93441" lon="6.84367">
        <ele>1609</ele>
        <time>2014-07-31T11:50:32.280Z</time>
      </trkpt>
      <trkpt lat="44.93441" lon="6.84369">
        <ele>1609</ele>
        <time>2014-07-31T11:50:34.260Z</time>
      </trkpt>
      <trkpt lat="44.93442" lon="6.84371">
        <ele>1609.7</ele>
        <time>2014-07-31T11:50:35.280Z</time>
      </trkpt>
      <trkpt lat="44.93442" lon="6.84373">
        <ele>1610</ele>
        <time>2014-07-31T11:50:36.280Z</time>
      </trkpt>
      <trkpt lat="44.93442" lon="6.84375">
        <ele>1610</ele>
        <time>2014-07-31T11:50:37.280Z</time>
      </trkpt>
      <trkpt lat="44.93443" lon="6.84378">
        <ele>1610</ele>
        <time>2014-07-31T11:50:39.280Z</time>
      </trkpt>
      <trkpt lat="44.93444" lon="6.84379">
        <ele>1610</ele>
        <time>2014-07-31T11:50:40.160Z</time>
      </trkpt>
      <trkpt lat="44.93444" lon="6.84381">
        <ele>1610</ele>
        <time>2014-07-31T11:50:42.180Z</time>
      </trkpt>
      <trkpt lat="44.93444" lon="6.84383">
        <ele>1610</ele>
        <time>2014-07-31T11:50:43.280Z</time>
      </trkpt>
      <trkpt lat="44.93444" lon="6.84384">
        <ele>1610.7</ele>
        <time>2014-07-31T11:50:45.280Z</time>
      </trkpt>
      <trkpt lat="44.93443" lon="6.84386">
        <ele>1611</ele>
        <time>2014-07-31T11:50:47.280Z</time>
      </trkpt>
      <trkpt lat="44.93442" lon="6.84388">
        <ele>1611</ele>
        <time>2014-07-31T11:50:48.280Z</time>
      </trkpt>
      <trkpt lat="44.93441" lon="6.84389">
        <ele>1611</ele>
        <time>2014-07-31T11:50:49.280Z</time>
      </trkpt>
      <trkpt lat="44.9344" lon="6.84393">
        <ele>1611</ele>
        <time>2014-07-31T11:50:53.280Z</time>
      </trkpt>
      <trkpt lat="44.9344" lon="6.84395">
        <ele>1611</ele>
        <time>2014-07-31T11:50:54.280Z</time>
      </trkpt>
      <trkpt lat="44.93441" lon="6.84398">
        <ele>1613</ele>
        <time>2014-07-31T11:50:56.280Z</time>
      </trkpt>
      <trkpt lat="44.93441" lon="6.844">
        <ele>1613</ele>
        <time>2014-07-31T11:50:57.280Z</time>
      </trkpt>
      <trkpt lat="44.93443" lon="6.84404">
        <ele>1613</ele>
        <time>2014-07-31T11:50:59.180Z</time>
      </trkpt>
      <trkpt lat="44.93443" lon="6.84406">
        <ele>1613</ele>
        <time>2014-07-31T11:51:00.240Z</time>
      </trkpt>
      <trkpt lat="44.93443" lon="6.84408">
        <ele>1613</ele>
        <time>2014-07-31T11:51:01.280Z</time>
      </trkpt>
      <trkpt lat="44.93444" lon="6.84409">
        <ele>1613</ele>
        <time>2014-07-31T11:51:02.280Z</time>
      </trkpt>
      <trkpt lat="44.93444" lon="6.84412">
        <ele>1613</ele>
        <time>2014-07-31T11:51:04.180Z</time>
      </trkpt>
      <trkpt lat="44.93445" lon="6.84414">
        <ele>1613.6</ele>
        <time>2014-07-31T11:51:05.180Z</time>
      </trkpt>
      <trkpt lat="44.93447" lon="6.84416">
        <ele>1614</ele>
        <time>2014-07-31T11:51:06.180Z</time>
      </trkpt>
      <trkpt lat="44.93448" lon="6.84418">
        <ele>1614</ele>
        <time>2014-07-31T11:51:07.180Z</time>
      </trkpt>
      <trkpt lat="44.93448" lon="6.8442">
        <ele>1614</ele>
        <time>2014-07-31T11:51:08.240Z</time>
      </trkpt>
      <trkpt lat="44.93448" lon="6.84423">
        <ele>1614</ele>
        <time>2014-07-31T11:51:09.280Z</time>
      </trkpt>
      <trkpt lat="44.9345" lon="6.84425">
        <ele>1614</ele>
        <time>2014-07-31T11:51:10.280Z</time>
      </trkpt>
      <trkpt lat="44.9345" lon="6.84425">
        <ele>1614</ele>
        <time>2014-07-31T11:51:11.280Z</time>
      </trkpt>
      <trkpt lat="44.93451" lon="6.84427">
        <ele>1614</ele>
        <time>2014-07-31T11:51:12.280Z</time>
      </trkpt>
      <trkpt lat="44.93453" lon="6.84431">
        <ele>1614</ele>
        <time>2014-07-31T11:51:14.180Z</time>
      </trkpt>
      <trkpt lat="44.93455" lon="6.84433">
        <ele>1614.6</ele>
        <time>2014-07-31T11:51:15.180Z</time>
      </trkpt>
      <trkpt lat="44.93456" lon="6.84435">
        <ele>1615</ele>
        <time>2014-07-31T11:51:16.180Z</time>
      </trkpt>
      <trkpt lat="44.93457" lon="6.84437">
        <ele>1615</ele>
        <time>2014-07-31T11:51:17.240Z</time>
      </trkpt>
      <trkpt lat="44.93458" lon="6.84439">
        <ele>1615</ele>
        <time>2014-07-31T11:51:19.180Z</time>
      </trkpt>
      <trkpt lat="44.93457" lon="6.8444">
        <ele>1615</ele>
        <time>2014-07-31T11:51:21.180Z</time>
      </trkpt>
      <trkpt lat="44.93457" lon="6.84442">
        <ele>1615</ele>
        <time>2014-07-31T11:51:22.180Z</time>
      </trkpt>
      <trkpt lat="44.93457" lon="6.84445">
        <ele>1615</ele>
        <time>2014-07-31T11:51:23.280Z</time>
      </trkpt>
      <trkpt lat="44.93459" lon="6.84448">
        <ele>1616.1</ele>
        <time>2014-07-31T11:51:25.140Z</time>
      </trkpt>
      <trkpt lat="44.9346" lon="6.84448">
        <ele>1617</ele>
        <time>2014-07-31T11:51:26.280Z</time>
      </trkpt>
      <trkpt lat="44.93461" lon="6.84449">
        <ele>1617</ele>
        <time>2014-07-31T11:51:27.280Z</time>
      </trkpt>
      <trkpt lat="44.93462" lon="6.84452">
        <ele>1617</ele>
        <time>2014-07-31T11:51:29.180Z</time>
      </trkpt>
      <trkpt lat="44.93463" lon="6.84454">
        <ele>1617</ele>
        <time>2014-07-31T11:51:30.280Z</time>
      </trkpt>
      <trkpt lat="44.93464" lon="6.84455">
        <ele>1617</ele>
        <time>2014-07-31T11:51:31.280Z</time>
      </trkpt>
      <trkpt lat="44.93464" lon="6.84457">
        <ele>1617</ele>
        <time>2014-07-31T11:51:32.280Z</time>
      </trkpt>
      <trkpt lat="44.93465" lon="6.84459">
        <ele>1617</ele>
        <time>2014-07-31T11:51:34.240Z</time>
      </trkpt>
      <trkpt lat="44.93466" lon="6.84463">
        <ele>1619</ele>
        <time>2014-07-31T11:51:36.280Z</time>
      </trkpt>
      <trkpt lat="44.93467" lon="6.84465">
        <ele>1619</ele>
        <time>2014-07-31T11:51:37.280Z</time>
      </trkpt>
      <trkpt lat="44.93468" lon="6.84469">
        <ele>1619</ele>
        <time>2014-07-31T11:51:39.180Z</time>
      </trkpt>
      <trkpt lat="44.93468" lon="6.84471">
        <ele>1619</ele>
        <time>2014-07-31T11:51:40.180Z</time>
      </trkpt>
      <trkpt lat="44.93469" lon="6.84474">
        <ele>1619</ele>
        <time>2014-07-31T11:51:41.180Z</time>
      </trkpt>
      <trkpt lat="44.93469" lon="6.84477">
        <ele>1619</ele>
        <time>2014-07-31T11:51:43.180Z</time>
      </trkpt>
      <trkpt lat="44.93469" lon="6.84479">
        <ele>1619</ele>
        <time>2014-07-31T11:51:44.180Z</time>
      </trkpt>
      <trkpt lat="44.93469" lon="6.8448">
        <ele>1620.2</ele>
        <time>2014-07-31T11:51:45.160Z</time>
      </trkpt>
      <trkpt lat="44.9347" lon="6.84482">
        <ele>1621</ele>
        <time>2014-07-31T11:51:46.180Z</time>
      </trkpt>
      <trkpt lat="44.93471" lon="6.84483">
        <ele>1621</ele>
        <time>2014-07-31T11:51:47.180Z</time>
      </trkpt>
      <trkpt lat="44.93472" lon="6.84485">
        <ele>1621</ele>
        <time>2014-07-31T11:51:48.180Z</time>
      </trkpt>
      <trkpt lat="44.93473" lon="6.84488">
        <ele>1621</ele>
        <time>2014-07-31T11:51:49.180Z</time>
      </trkpt>
      <trkpt lat="44.93473" lon="6.8449">
        <ele>1621</ele>
        <time>2014-07-31T11:51:50.180Z</time>
      </trkpt>
      <trkpt lat="44.93472" lon="6.84493">
        <ele>1621</ele>
        <time>2014-07-31T11:51:51.080Z</time>
      </trkpt>
      <trkpt lat="44.93473" lon="6.84495">
        <ele>1621</ele>
        <time>2014-07-31T11:51:52.180Z</time>
      </trkpt>
      <trkpt lat="44.93472" lon="6.84497">
        <ele>1621</ele>
        <time>2014-07-31T11:51:53.280Z</time>
      </trkpt>
      <trkpt lat="44.93472" lon="6.84499">
        <ele>1621</ele>
        <time>2014-07-31T11:51:54.370Z</time>
      </trkpt>
      <trkpt lat="44.93472" lon="6.84501">
        <ele>1621</ele>
        <time>2014-07-31T11:51:55.260Z</time>
      </trkpt>
      <trkpt lat="44.93473" lon="6.84504">
        <ele>1621</ele>
        <time>2014-07-31T11:51:56.280Z</time>
      </trkpt>
      <trkpt lat="44.93473" lon="6.84506">
        <ele>1621</ele>
        <time>2014-07-31T11:51:57.280Z</time>
      </trkpt>
      <trkpt lat="44.93474" lon="6.84508">
        <ele>1621</ele>
        <time>2014-07-31T11:51:58.280Z</time>
      </trkpt>
      <trkpt lat="44.93475" lon="6.84511">
        <ele>1621</ele>
        <time>2014-07-31T11:52:00.240Z</time>
      </trkpt>
      <trkpt lat="44.93476" lon="6.84515">
        <ele>1621</ele>
        <time>2014-07-31T11:52:01.280Z</time>
      </trkpt>
      <trkpt lat="44.93476" lon="6.84517">
        <ele>1621</ele>
        <time>2014-07-31T11:52:02.280Z</time>
      </trkpt>
      <trkpt lat="44.93476" lon="6.84521">
        <ele>1621</ele>
        <time>2014-07-31T11:52:04.180Z</time>
      </trkpt>
      <trkpt lat="44.93476" lon="6.84523">
        <ele>1622.2</ele>
        <time>2014-07-31T11:52:05.180Z</time>
      </trkpt>
      <trkpt lat="44.93476" lon="6.84524">
        <ele>1623</ele>
        <time>2014-07-31T11:52:06.280Z</time>
      </trkpt>
      <trkpt lat="44.93476" lon="6.84527">
        <ele>1623</ele>
        <time>2014-07-31T11:52:07.280Z</time>
      </trkpt>
      <trkpt lat="44.93476" lon="6.84531">
        <ele>1623</ele>
        <time>2014-07-31T11:52:09.180Z</time>
      </trkpt>
      <trkpt lat="44.93477" lon="6.84533">
        <ele>1623</ele>
        <time>2014-07-31T11:52:10.180Z</time>
      </trkpt>
      <trkpt lat="44.93478" lon="6.84534">
        <ele>1623</ele>
        <time>2014-07-31T11:52:11.180Z</time>
      </trkpt>
      <trkpt lat="44.93479" lon="6.84535">
        <ele>1623</ele>
        <time>2014-07-31T11:52:12.180Z</time>
      </trkpt>
      <trkpt lat="44.9348" lon="6.84535">
        <ele>1623</ele>
        <time>2014-07-31T11:52:13.180Z</time>
      </trkpt>
      <trkpt lat="44.93482" lon="6.84536">
        <ele>1623</ele>
        <time>2014-07-31T11:52:14.180Z</time>
      </trkpt>
      <trkpt lat="44.93483" lon="6.84538">
        <ele>1623.6</ele>
        <time>2014-07-31T11:52:15.180Z</time>
      </trkpt>
      <trkpt lat="44.93485" lon="6.84541">
        <ele>1624</ele>
        <time>2014-07-31T11:52:17.240Z</time>
      </trkpt>
      <trkpt lat="44.93485" lon="6.84543">
        <ele>1624</ele>
        <time>2014-07-31T11:52:19.180Z</time>
      </trkpt>
      <trkpt lat="44.93486" lon="6.84545">
        <ele>1624</ele>
        <time>2014-07-31T11:52:20.280Z</time>
      </trkpt>
      <trkpt lat="44.93487" lon="6.84546">
        <ele>1624</ele>
        <time>2014-07-31T11:52:21.280Z</time>
      </trkpt>
      <trkpt lat="44.93487" lon="6.84548">
        <ele>1624</ele>
        <time>2014-07-31T11:52:24.180Z</time>
      </trkpt>
      <trkpt lat="44.93488" lon="6.84549">
        <ele>1625</ele>
        <time>2014-07-31T11:52:26.280Z</time>
      </trkpt>
      <trkpt lat="44.93488" lon="6.84552">
        <ele>1625</ele>
        <time>2014-07-31T11:52:28.280Z</time>
      </trkpt>
      <trkpt lat="44.93489" lon="6.84553">
        <ele>1625</ele>
        <time>2014-07-31T11:52:30.280Z</time>
      </trkpt>
      <trkpt lat="44.9349" lon="6.84554">
        <ele>1625</ele>
        <time>2014-07-31T11:52:31.280Z</time>
      </trkpt>
      <trkpt lat="44.93492" lon="6.84555">
        <ele>1625</ele>
        <time>2014-07-31T11:52:32.280Z</time>
      </trkpt>
      <trkpt lat="44.93493" lon="6.84556">
        <ele>1625</ele>
        <time>2014-07-31T11:52:33.240Z</time>
      </trkpt>
      <trkpt lat="44.93495" lon="6.84555">
        <ele>1625.6</ele>
        <time>2014-07-31T11:52:35.180Z</time>
      </trkpt>
      <trkpt lat="44.93496" lon="6.84555">
        <ele>1626</ele>
        <time>2014-07-31T11:52:36.180Z</time>
      </trkpt>
      <trkpt lat="44.93497" lon="6.84558">
        <ele>1626</ele>
        <time>2014-07-31T11:52:39.260Z</time>
      </trkpt>
      <trkpt lat="44.93496" lon="6.8456">
        <ele>1626</ele>
        <time>2014-07-31T11:52:40.280Z</time>
      </trkpt>
      <trkpt lat="44.93496" lon="6.84562">
        <ele>1626</ele>
        <time>2014-07-31T11:52:41.280Z</time>
      </trkpt>
      <trkpt lat="44.93496" lon="6.84564">
        <ele>1626</ele>
        <time>2014-07-31T11:52:42.280Z</time>
      </trkpt>
      <trkpt lat="44.93495" lon="6.84567">
        <ele>1626</ele>
        <time>2014-07-31T11:52:44.180Z</time>
      </trkpt>
      <trkpt lat="44.93494" lon="6.8457">
        <ele>1628</ele>
        <time>2014-07-31T11:52:46.280Z</time>
      </trkpt>
      <trkpt lat="44.93494" lon="6.84572">
        <ele>1628</ele>
        <time>2014-07-31T11:52:47.280Z</time>
      </trkpt>
      <trkpt lat="44.93494" lon="6.84577">
        <ele>1628</ele>
        <time>2014-07-31T11:52:49.180Z</time>
      </trkpt>
      <trkpt lat="44.93494" lon="6.84579">
        <ele>1628</ele>
        <time>2014-07-31T11:52:50.180Z</time>
      </trkpt>
      <trkpt lat="44.93494" lon="6.84583">
        <ele>1628</ele>
        <time>2014-07-31T11:52:52.280Z</time>
      </trkpt>
      <trkpt lat="44.93495" lon="6.84586">
        <ele>1628</ele>
        <time>2014-07-31T11:52:54.180Z</time>
      </trkpt>
      <trkpt lat="44.93494" lon="6.84589">
        <ele>1628.6</ele>
        <time>2014-07-31T11:52:55.180Z</time>
      </trkpt>
      <trkpt lat="44.93494" lon="6.8459">
        <ele>1629</ele>
        <time>2014-07-31T11:52:56.280Z</time>
      </trkpt>
      <trkpt lat="44.93493" lon="6.84592">
        <ele>1629</ele>
        <time>2014-07-31T11:52:57.280Z</time>
      </trkpt>
      <trkpt lat="44.93493" lon="6.84596">
        <ele>1629</ele>
        <time>2014-07-31T11:52:59.180Z</time>
      </trkpt>
      <trkpt lat="44.93494" lon="6.84598">
        <ele>1629</ele>
        <time>2014-07-31T11:53:00.140Z</time>
      </trkpt>
      <trkpt lat="44.93494" lon="6.84603">
        <ele>1629</ele>
        <time>2014-07-31T11:53:02.180Z</time>
      </trkpt>
      <trkpt lat="44.93494" lon="6.84605">
        <ele>1629</ele>
        <time>2014-07-31T11:53:04.280Z</time>
      </trkpt>
      <trkpt lat="44.93494" lon="6.84606">
        <ele>1629.7</ele>
        <time>2014-07-31T11:53:05.280Z</time>
      </trkpt>
      <trkpt lat="44.93494" lon="6.84608">
        <ele>1630</ele>
        <time>2014-07-31T11:53:06.280Z</time>
      </trkpt>
      <trkpt lat="44.93492" lon="6.84612">
        <ele>1630</ele>
        <time>2014-07-31T11:53:08.280Z</time>
      </trkpt>
      <trkpt lat="44.9349" lon="6.84614">
        <ele>1630</ele>
        <time>2014-07-31T11:53:09.280Z</time>
      </trkpt>
      <trkpt lat="44.9349" lon="6.84616">
        <ele>1630</ele>
        <time>2014-07-31T11:53:10.390Z</time>
      </trkpt>
      <trkpt lat="44.93488" lon="6.8462">
        <ele>1630</ele>
        <time>2014-07-31T11:53:12.280Z</time>
      </trkpt>
      <trkpt lat="44.93485" lon="6.84625">
        <ele>1630</ele>
        <time>2014-07-31T11:53:14.180Z</time>
      </trkpt>
      <trkpt lat="44.93483" lon="6.84627">
        <ele>1630.7</ele>
        <time>2014-07-31T11:53:15.280Z</time>
      </trkpt>
      <trkpt lat="44.93482" lon="6.84629">
        <ele>1631</ele>
        <time>2014-07-31T11:53:16.280Z</time>
      </trkpt>
      <trkpt lat="44.93482" lon="6.84632">
        <ele>1631</ele>
        <time>2014-07-31T11:53:18.280Z</time>
      </trkpt>
      <trkpt lat="44.93481" lon="6.84634">
        <ele>1631</ele>
        <time>2014-07-31T11:53:19.280Z</time>
      </trkpt>
      <trkpt lat="44.93481" lon="6.84636">
        <ele>1631</ele>
        <time>2014-07-31T11:53:20.280Z</time>
      </trkpt>
      <trkpt lat="44.93481" lon="6.84638">
        <ele>1631</ele>
        <time>2014-07-31T11:53:21.280Z</time>
      </trkpt>
      <trkpt lat="44.93481" lon="6.84642">
        <ele>1631</ele>
        <time>2014-07-31T11:53:23.280Z</time>
      </trkpt>
      <trkpt lat="44.9348" lon="6.84645">
        <ele>1632.2</ele>
        <time>2014-07-31T11:53:25.180Z</time>
      </trkpt>
      <trkpt lat="44.9348" lon="6.84647">
        <ele>1633</ele>
        <time>2014-07-31T11:53:26.180Z</time>
      </trkpt>
      <trkpt lat="44.93481" lon="6.84649">
        <ele>1633</ele>
        <time>2014-07-31T11:53:27.280Z</time>
      </trkpt>
      <trkpt lat="44.9348" lon="6.84653">
        <ele>1633</ele>
        <time>2014-07-31T11:53:29.180Z</time>
      </trkpt>
      <trkpt lat="44.93481" lon="6.84655">
        <ele>1633</ele>
        <time>2014-07-31T11:53:30.180Z</time>
      </trkpt>
      <trkpt lat="44.93482" lon="6.84657">
        <ele>1633</ele>
        <time>2014-07-31T11:53:31.280Z</time>
      </trkpt>
      <trkpt lat="44.93482" lon="6.84659">
        <ele>1633</ele>
        <time>2014-07-31T11:53:32.280Z</time>
      </trkpt>
      <trkpt lat="44.93484" lon="6.84663">
        <ele>1633</ele>
        <time>2014-07-31T11:53:34.240Z</time>
      </trkpt>
      <trkpt lat="44.93485" lon="6.84665">
        <ele>1635.1</ele>
        <time>2014-07-31T11:53:35.280Z</time>
      </trkpt>
      <trkpt lat="44.93485" lon="6.84667">
        <ele>1636</ele>
        <time>2014-07-31T11:53:36.280Z</time>
      </trkpt>
      <trkpt lat="44.93485" lon="6.84669">
        <ele>1636</ele>
        <time>2014-07-31T11:53:37.280Z</time>
      </trkpt>
      <trkpt lat="44.93485" lon="6.84671">
        <ele>1636</ele>
        <time>2014-07-31T11:53:38.280Z</time>
      </trkpt>
      <trkpt lat="44.93484" lon="6.84673">
        <ele>1636</ele>
        <time>2014-07-31T11:53:39.280Z</time>
      </trkpt>
      <trkpt lat="44.93484" lon="6.84675">
        <ele>1636.7</ele>
        <time>2014-07-31T11:53:40.280Z</time>
      </trkpt>
      <trkpt lat="44.93484" lon="6.84679">
        <ele>1637</ele>
        <time>2014-07-31T11:53:42.180Z</time>
      </trkpt>
      <trkpt lat="44.93484" lon="6.84681">
        <ele>1637</ele>
        <time>2014-07-31T11:53:43.280Z</time>
      </trkpt>
      <trkpt lat="44.93484" lon="6.84684">
        <ele>1637.6</ele>
        <time>2014-07-31T11:53:45.180Z</time>
      </trkpt>
      <trkpt lat="44.93483" lon="6.84687">
        <ele>1638</ele>
        <time>2014-07-31T11:53:46.180Z</time>
      </trkpt>
      <trkpt lat="44.93483" lon="6.84688">
        <ele>1638</ele>
        <time>2014-07-31T11:53:47.180Z</time>
      </trkpt>
      <trkpt lat="44.93483" lon="6.8469">
        <ele>1638</ele>
        <time>2014-07-31T11:53:48.280Z</time>
      </trkpt>
      <trkpt lat="44.93483" lon="6.84691">
        <ele>1638</ele>
        <time>2014-07-31T11:53:49.280Z</time>
      </trkpt>
      <trkpt lat="44.93483" lon="6.84693">
        <ele>1638</ele>
        <time>2014-07-31T11:53:50.280Z</time>
      </trkpt>
      <trkpt lat="44.93483" lon="6.84697">
        <ele>1638</ele>
        <time>2014-07-31T11:53:52.180Z</time>
      </trkpt>
      <trkpt lat="44.93483" lon="6.84699">
        <ele>1638</ele>
        <time>2014-07-31T11:53:53.180Z</time>
      </trkpt>
      <trkpt lat="44.93483" lon="6.84701">
        <ele>1638</ele>
        <time>2014-07-31T11:53:54.260Z</time>
      </trkpt>
      <trkpt lat="44.93483" lon="6.84703">
        <ele>1639.4</ele>
        <time>2014-07-31T11:53:55.280Z</time>
      </trkpt>
      <trkpt lat="44.93483" lon="6.84705">
        <ele>1640</ele>
        <time>2014-07-31T11:53:56.280Z</time>
      </trkpt>
      <trkpt lat="44.93483" lon="6.84706">
        <ele>1640</ele>
        <time>2014-07-31T11:53:57.280Z</time>
      </trkpt>
      <trkpt lat="44.93482" lon="6.8471">
        <ele>1640</ele>
        <time>2014-07-31T11:53:59.180Z</time>
      </trkpt>
      <trkpt lat="44.93482" lon="6.84711">
        <ele>1640</ele>
        <time>2014-07-31T11:54:00.240Z</time>
      </trkpt>
      <trkpt lat="44.93483" lon="6.84713">
        <ele>1640</ele>
        <time>2014-07-31T11:54:01.280Z</time>
      </trkpt>
      <trkpt lat="44.93483" lon="6.84715">
        <ele>1640</ele>
        <time>2014-07-31T11:54:02.280Z</time>
      </trkpt>
      <trkpt lat="44.93482" lon="6.84718">
        <ele>1640</ele>
        <time>2014-07-31T11:54:04.280Z</time>
      </trkpt>
      <trkpt lat="44.93482" lon="6.8472">
        <ele>1640.7</ele>
        <time>2014-07-31T11:54:05.280Z</time>
      </trkpt>
      <trkpt lat="44.93481" lon="6.84723">
        <ele>1641</ele>
        <time>2014-07-31T11:54:06.280Z</time>
      </trkpt>
      <trkpt lat="44.93481" lon="6.84726">
        <ele>1641</ele>
        <time>2014-07-31T11:54:07.280Z</time>
      </trkpt>
      <trkpt lat="44.93481" lon="6.8473">
        <ele>1641</ele>
        <time>2014-07-31T11:54:09.180Z</time>
      </trkpt>
      <trkpt lat="44.93481" lon="6.84731">
        <ele>1641</ele>
        <time>2014-07-31T11:54:10.180Z</time>
      </trkpt>
      <trkpt lat="44.93481" lon="6.84733">
        <ele>1641</ele>
        <time>2014-07-31T11:54:11.280Z</time>
      </trkpt>
      <trkpt lat="44.9348" lon="6.84735">
        <ele>1641</ele>
        <time>2014-07-31T11:54:12.280Z</time>
      </trkpt>
      <trkpt lat="44.9348" lon="6.84739">
        <ele>1641</ele>
        <time>2014-07-31T11:54:14.180Z</time>
      </trkpt>
      <trkpt lat="44.9348" lon="6.84741">
        <ele>1642.3</ele>
        <time>2014-07-31T11:54:15.240Z</time>
      </trkpt>
      <trkpt lat="44.9348" lon="6.84743">
        <ele>1643</ele>
        <time>2014-07-31T11:54:16.280Z</time>
      </trkpt>
      <trkpt lat="44.93478" lon="6.84747">
        <ele>1643</ele>
        <time>2014-07-31T11:54:18.280Z</time>
      </trkpt>
      <trkpt lat="44.93478" lon="6.84749">
        <ele>1643</ele>
        <time>2014-07-31T11:54:19.280Z</time>
      </trkpt>
      <trkpt lat="44.93478" lon="6.84751">
        <ele>1643</ele>
        <time>2014-07-31T11:54:20.280Z</time>
      </trkpt>
      <trkpt lat="44.93477" lon="6.84752">
        <ele>1643</ele>
        <time>2014-07-31T11:54:21.280Z</time>
      </trkpt>
      <trkpt lat="44.93477" lon="6.84754">
        <ele>1643</ele>
        <time>2014-07-31T11:54:22.280Z</time>
      </trkpt>
      <trkpt lat="44.93477" lon="6.84757">
        <ele>1643</ele>
        <time>2014-07-31T11:54:24.260Z</time>
      </trkpt>
      <trkpt lat="44.93478" lon="6.84759">
        <ele>1644.4</ele>
        <time>2014-07-31T11:54:25.280Z</time>
      </trkpt>
      <trkpt lat="44.93478" lon="6.8476">
        <ele>1645</ele>
        <time>2014-07-31T11:54:26.280Z</time>
      </trkpt>
      <trkpt lat="44.93478" lon="6.84762">
        <ele>1645</ele>
        <time>2014-07-31T11:54:27.280Z</time>
      </trkpt>
      <trkpt lat="44.93478" lon="6.84765">
        <ele>1645</ele>
        <time>2014-07-31T11:54:29.280Z</time>
      </trkpt>
      <trkpt lat="44.93479" lon="6.84767">
        <ele>1645</ele>
        <time>2014-07-31T11:54:30.280Z</time>
      </trkpt>
      <trkpt lat="44.93479" lon="6.84769">
        <ele>1645</ele>
        <time>2014-07-31T11:54:31.280Z</time>
      </trkpt>
      <trkpt lat="44.93478" lon="6.84772">
        <ele>1645</ele>
        <time>2014-07-31T11:54:33.280Z</time>
      </trkpt>
      <trkpt lat="44.93477" lon="6.84775">
        <ele>1646.2</ele>
        <time>2014-07-31T11:54:35.180Z</time>
      </trkpt>
      <trkpt lat="44.93477" lon="6.84777">
        <ele>1647</ele>
        <time>2014-07-31T11:54:36.180Z</time>
      </trkpt>
      <trkpt lat="44.93475" lon="6.84778">
        <ele>1647</ele>
        <time>2014-07-31T11:54:37.180Z</time>
      </trkpt>
      <trkpt lat="44.93474" lon="6.84779">
        <ele>1647</ele>
        <time>2014-07-31T11:54:38.280Z</time>
      </trkpt>
      <trkpt lat="44.93474" lon="6.84779">
        <ele>1647</ele>
        <time>2014-07-31T11:54:39.280Z</time>
      </trkpt>
      <trkpt lat="44.93473" lon="6.84778">
        <ele>1647</ele>
        <time>2014-07-31T11:54:40.280Z</time>
      </trkpt>
      <trkpt lat="44.93473" lon="6.84777">
        <ele>1647</ele>
        <time>2014-07-31T11:54:42.280Z</time>
      </trkpt>
      <trkpt lat="44.93474" lon="6.84776">
        <ele>1647</ele>
        <time>2014-07-31T11:54:44.180Z</time>
      </trkpt>
      <trkpt lat="44.93475" lon="6.84774">
        <ele>1648</ele>
        <time>2014-07-31T11:54:46.180Z</time>
      </trkpt>
      <trkpt lat="44.93475" lon="6.84773">
        <ele>1648</ele>
        <time>2014-07-31T11:54:48.280Z</time>
      </trkpt>
      <trkpt lat="44.93474" lon="6.84771">
        <ele>1648</ele>
        <time>2014-07-31T11:54:51.240Z</time>
      </trkpt>
      <trkpt lat="44.93475" lon="6.84769">
        <ele>1648</ele>
        <time>2014-07-31T11:54:54.180Z</time>
      </trkpt>
      <trkpt lat="44.93474" lon="6.84767">
        <ele>1648.6</ele>
        <time>2014-07-31T11:54:55.180Z</time>
      </trkpt>
      <trkpt lat="44.93472" lon="6.84765">
        <ele>1649</ele>
        <time>2014-07-31T11:54:56.180Z</time>
      </trkpt>
      <trkpt lat="44.93472" lon="6.84763">
        <ele>1649</ele>
        <time>2014-07-31T11:54:57.180Z</time>
      </trkpt>
      <trkpt lat="44.9347" lon="6.84761">
        <ele>1649</ele>
        <time>2014-07-31T11:54:58.280Z</time>
      </trkpt>
      <trkpt lat="44.9347" lon="6.84759">
        <ele>1649</ele>
        <time>2014-07-31T11:54:59.280Z</time>
      </trkpt>
      <trkpt lat="44.93468" lon="6.84754">
        <ele>1649</ele>
        <time>2014-07-31T11:55:01.180Z</time>
      </trkpt>
      <trkpt lat="44.93469" lon="6.84752">
        <ele>1649</ele>
        <time>2014-07-31T11:55:02.180Z</time>
      </trkpt>
      <trkpt lat="44.93468" lon="6.8475">
        <ele>1649</ele>
        <time>2014-07-31T11:55:03.280Z</time>
      </trkpt>
      <trkpt lat="44.93468" lon="6.84746">
        <ele>1649.6</ele>
        <time>2014-07-31T11:55:05.180Z</time>
      </trkpt>
      <trkpt lat="44.93468" lon="6.84745">
        <ele>1650</ele>
        <time>2014-07-31T11:55:06.240Z</time>
      </trkpt>
      <trkpt lat="44.93468" lon="6.84743">
        <ele>1650</ele>
        <time>2014-07-31T11:55:07.280Z</time>
      </trkpt>
      <trkpt lat="44.93467" lon="6.84738">
        <ele>1650</ele>
        <time>2014-07-31T11:55:09.280Z</time>
      </trkpt>
      <trkpt lat="44.93467" lon="6.84736">
        <ele>1650</ele>
        <time>2014-07-31T11:55:10.280Z</time>
      </trkpt>
      <trkpt lat="44.93467" lon="6.84733">
        <ele>1650</ele>
        <time>2014-07-31T11:55:11.280Z</time>
      </trkpt>
      <trkpt lat="44.93466" lon="6.84731">
        <ele>1650</ele>
        <time>2014-07-31T11:55:12.280Z</time>
      </trkpt>
      <trkpt lat="44.93465" lon="6.84727">
        <ele>1650</ele>
        <time>2014-07-31T11:55:14.180Z</time>
      </trkpt>
      <trkpt lat="44.93464" lon="6.84724">
        <ele>1650.6</ele>
        <time>2014-07-31T11:55:15.180Z</time>
      </trkpt>
      <trkpt lat="44.93465" lon="6.84722">
        <ele>1651</ele>
        <time>2014-07-31T11:55:16.280Z</time>
      </trkpt>
      <trkpt lat="44.93463" lon="6.84717">
        <ele>1651</ele>
        <time>2014-07-31T11:55:18.260Z</time>
      </trkpt>
      <trkpt lat="44.93462" lon="6.84715">
        <ele>1651</ele>
        <time>2014-07-31T11:55:19.280Z</time>
      </trkpt>
      <trkpt lat="44.93462" lon="6.84713">
        <ele>1651</ele>
        <time>2014-07-31T11:55:20.280Z</time>
      </trkpt>
      <trkpt lat="44.93462" lon="6.84711">
        <ele>1651</ele>
        <time>2014-07-31T11:55:21.280Z</time>
      </trkpt>
      <trkpt lat="44.93461" lon="6.84708">
        <ele>1651</ele>
        <time>2014-07-31T11:55:22.280Z</time>
      </trkpt>
      <trkpt lat="44.93461" lon="6.84706">
        <ele>1651</ele>
        <time>2014-07-31T11:55:23.240Z</time>
      </trkpt>
      <trkpt lat="44.93461" lon="6.84704">
        <ele>1651</ele>
        <time>2014-07-31T11:55:24.280Z</time>
      </trkpt>
      <trkpt lat="44.93462" lon="6.84702">
        <ele>1652.4</ele>
        <time>2014-07-31T11:55:25.280Z</time>
      </trkpt>
      <trkpt lat="44.93462" lon="6.84697">
        <ele>1653</ele>
        <time>2014-07-31T11:55:27.180Z</time>
      </trkpt>
      <trkpt lat="44.93462" lon="6.84694">
        <ele>1653</ele>
        <time>2014-07-31T11:55:28.280Z</time>
      </trkpt>
      <trkpt lat="44.93463" lon="6.8469">
        <ele>1653</ele>
        <time>2014-07-31T11:55:30.180Z</time>
      </trkpt>
      <trkpt lat="44.93464" lon="6.84688">
        <ele>1653</ele>
        <time>2014-07-31T11:55:31.180Z</time>
      </trkpt>
      <trkpt lat="44.93464" lon="6.84686">
        <ele>1653</ele>
        <time>2014-07-31T11:55:32.180Z</time>
      </trkpt>
      <trkpt lat="44.93464" lon="6.84684">
        <ele>1653</ele>
        <time>2014-07-31T11:55:33.280Z</time>
      </trkpt>
      <trkpt lat="44.93464" lon="6.84682">
        <ele>1653</ele>
        <time>2014-07-31T11:55:34.240Z</time>
      </trkpt>
      <trkpt lat="44.93464" lon="6.84681">
        <ele>1653.7</ele>
        <time>2014-07-31T11:55:35.280Z</time>
      </trkpt>
      <trkpt lat="44.93465" lon="6.84679">
        <ele>1654</ele>
        <time>2014-07-31T11:55:36.280Z</time>
      </trkpt>
      <trkpt lat="44.93465" lon="6.84677">
        <ele>1654</ele>
        <time>2014-07-31T11:55:37.280Z</time>
      </trkpt>
      <trkpt lat="44.93465" lon="6.84673">
        <ele>1654</ele>
        <time>2014-07-31T11:55:39.260Z</time>
      </trkpt>
      <trkpt lat="44.93464" lon="6.8467">
        <ele>1654</ele>
        <time>2014-07-31T11:55:41.280Z</time>
      </trkpt>
      <trkpt lat="44.93462" lon="6.84669">
        <ele>1654</ele>
        <time>2014-07-31T11:55:42.280Z</time>
      </trkpt>
      <trkpt lat="44.93461" lon="6.84666">
        <ele>1654</ele>
        <time>2014-07-31T11:55:44.180Z</time>
      </trkpt>
      <trkpt lat="44.9346" lon="6.84664">
        <ele>1654.7</ele>
        <time>2014-07-31T11:55:45.280Z</time>
      </trkpt>
      <trkpt lat="44.93459" lon="6.84662">
        <ele>1655</ele>
        <time>2014-07-31T11:55:46.280Z</time>
      </trkpt>
      <trkpt lat="44.93458" lon="6.84661">
        <ele>1655</ele>
        <time>2014-07-31T11:55:47.280Z</time>
      </trkpt>
      <trkpt lat="44.93458" lon="6.8466">
        <ele>1655</ele>
        <time>2014-07-31T11:55:48.280Z</time>
      </trkpt>
      <trkpt lat="44.93457" lon="6.84658">
        <ele>1655</ele>
        <time>2014-07-31T11:55:49.280Z</time>
      </trkpt>
      <trkpt lat="44.93455" lon="6.84654">
        <ele>1655</ele>
        <time>2014-07-31T11:55:51.140Z</time>
      </trkpt>
      <trkpt lat="44.93454" lon="6.84653">
        <ele>1655</ele>
        <time>2014-07-31T11:55:52.180Z</time>
      </trkpt>
      <trkpt lat="44.93453" lon="6.84651">
        <ele>1655</ele>
        <time>2014-07-31T11:55:53.180Z</time>
      </trkpt>
      <trkpt lat="44.93452" lon="6.84649">
        <ele>1655</ele>
        <time>2014-07-31T11:55:54.180Z</time>
      </trkpt>
      <trkpt lat="44.93452" lon="6.84647">
        <ele>1655.6</ele>
        <time>2014-07-31T11:55:55.180Z</time>
      </trkpt>
      <trkpt lat="44.93451" lon="6.84645">
        <ele>1656</ele>
        <time>2014-07-31T11:55:56.280Z</time>
      </trkpt>
      <trkpt lat="44.93449" lon="6.84641">
        <ele>1656</ele>
        <time>2014-07-31T11:55:58.180Z</time>
      </trkpt>
      <trkpt lat="44.93446" lon="6.84641">
        <ele>1656</ele>
        <time>2014-07-31T11:55:59.180Z</time>
      </trkpt>
      <trkpt lat="44.93444" lon="6.84639">
        <ele>1656</ele>
        <time>2014-07-31T11:56:00.140Z</time>
      </trkpt>
      <trkpt lat="44.93441" lon="6.84636">
        <ele>1656</ele>
        <time>2014-07-31T11:56:02.280Z</time>
      </trkpt>
      <trkpt lat="44.93439" lon="6.84635">
        <ele>1656</ele>
        <time>2014-07-31T11:56:03.280Z</time>
      </trkpt>
      <trkpt lat="44.93437" lon="6.84633">
        <ele>1656</ele>
        <time>2014-07-31T11:56:04.280Z</time>
      </trkpt>
      <trkpt lat="44.93436" lon="6.84632">
        <ele>1656.7</ele>
        <time>2014-07-31T11:56:05.280Z</time>
      </trkpt>
      <trkpt lat="44.93434" lon="6.84631">
        <ele>1657</ele>
        <time>2014-07-31T11:56:06.280Z</time>
      </trkpt>
      <trkpt lat="44.93432" lon="6.8463">
        <ele>1657</ele>
        <time>2014-07-31T11:56:07.280Z</time>
      </trkpt>
      <trkpt lat="44.9343" lon="6.84629">
        <ele>1657</ele>
        <time>2014-07-31T11:56:08.280Z</time>
      </trkpt>
      <trkpt lat="44.93429" lon="6.84627">
        <ele>1657</ele>
        <time>2014-07-31T11:56:09.280Z</time>
      </trkpt>
      <trkpt lat="44.93427" lon="6.84625">
        <ele>1657</ele>
        <time>2014-07-31T11:56:11.180Z</time>
      </trkpt>
      <trkpt lat="44.93425" lon="6.84624">
        <ele>1657</ele>
        <time>2014-07-31T11:56:13.180Z</time>
      </trkpt>
      <trkpt lat="44.93424" lon="6.84624">
        <ele>1657</ele>
        <time>2014-07-31T11:56:14.240Z</time>
      </trkpt>
      <trkpt lat="44.93422" lon="6.84624">
        <ele>1657.7</ele>
        <time>2014-07-31T11:56:15.280Z</time>
      </trkpt>
      <trkpt lat="44.93421" lon="6.84623">
        <ele>1658</ele>
        <time>2014-07-31T11:56:16.280Z</time>
      </trkpt>
      <trkpt lat="44.93419" lon="6.84621">
        <ele>1658</ele>
        <time>2014-07-31T11:56:18.280Z</time>
      </trkpt>
      <trkpt lat="44.93417" lon="6.8462">
        <ele>1658</ele>
        <time>2014-07-31T11:56:19.280Z</time>
      </trkpt>
      <trkpt lat="44.93416" lon="6.84619">
        <ele>1658</ele>
        <time>2014-07-31T11:56:20.280Z</time>
      </trkpt>
      <trkpt lat="44.93413" lon="6.84616">
        <ele>1658</ele>
        <time>2014-07-31T11:56:22.180Z</time>
      </trkpt>
      <trkpt lat="44.93412" lon="6.84614">
        <ele>1658</ele>
        <time>2014-07-31T11:56:23.180Z</time>
      </trkpt>
      <trkpt lat="44.93411" lon="6.84613">
        <ele>1658</ele>
        <time>2014-07-31T11:56:24.180Z</time>
      </trkpt>
      <trkpt lat="44.9341" lon="6.84612">
        <ele>1658.7</ele>
        <time>2014-07-31T11:56:25.280Z</time>
      </trkpt>
      <trkpt lat="44.93409" lon="6.8461">
        <ele>1659</ele>
        <time>2014-07-31T11:56:26.280Z</time>
      </trkpt>
      <trkpt lat="44.93408" lon="6.84609">
        <ele>1659</ele>
        <time>2014-07-31T11:56:27.280Z</time>
      </trkpt>
      <trkpt lat="44.93405" lon="6.84606">
        <ele>1659</ele>
        <time>2014-07-31T11:56:30.180Z</time>
      </trkpt>
      <trkpt lat="44.93405" lon="6.84604">
        <ele>1659</ele>
        <time>2014-07-31T11:56:31.180Z</time>
      </trkpt>
      <trkpt lat="44.93403" lon="6.84599">
        <ele>1659</ele>
        <time>2014-07-31T11:56:33.180Z</time>
      </trkpt>
      <trkpt lat="44.93402" lon="6.84596">
        <ele>1659</ele>
        <time>2014-07-31T11:56:34.240Z</time>
      </trkpt>
      <trkpt lat="44.93401" lon="6.84595">
        <ele>1659</ele>
        <time>2014-07-31T11:56:35.280Z</time>
      </trkpt>
      <trkpt lat="44.93401" lon="6.84592">
        <ele>1659</ele>
        <time>2014-07-31T11:56:36.280Z</time>
      </trkpt>
      <trkpt lat="44.934" lon="6.8459">
        <ele>1659</ele>
        <time>2014-07-31T11:56:37.280Z</time>
      </trkpt>
      <trkpt lat="44.93399" lon="6.84588">
        <ele>1659</ele>
        <time>2014-07-31T11:56:38.280Z</time>
      </trkpt>
      <trkpt lat="44.93398" lon="6.84586">
        <ele>1659</ele>
        <time>2014-07-31T11:56:39.280Z</time>
      </trkpt>
      <trkpt lat="44.93398" lon="6.84581">
        <ele>1659</ele>
        <time>2014-07-31T11:56:41.190Z</time>
      </trkpt>
      <trkpt lat="44.93396" lon="6.84578">
        <ele>1659</ele>
        <time>2014-07-31T11:56:42.260Z</time>
      </trkpt>
      <trkpt lat="44.93396" lon="6.84577">
        <ele>1659</ele>
        <time>2014-07-31T11:56:43.280Z</time>
      </trkpt>
      <trkpt lat="44.93396" lon="6.84575">
        <ele>1659</ele>
        <time>2014-07-31T11:56:44.280Z</time>
      </trkpt>
      <trkpt lat="44.93395" lon="6.84573">
        <ele>1660.4</ele>
        <time>2014-07-31T11:56:45.280Z</time>
      </trkpt>
      <trkpt lat="44.93395" lon="6.84571">
        <ele>1661</ele>
        <time>2014-07-31T11:56:46.280Z</time>
      </trkpt>
      <trkpt lat="44.93394" lon="6.84566">
        <ele>1661</ele>
        <time>2014-07-31T11:56:48.240Z</time>
      </trkpt>
      <trkpt lat="44.93393" lon="6.84564">
        <ele>1661</ele>
        <time>2014-07-31T11:56:49.280Z</time>
      </trkpt>
      <trkpt lat="44.93393" lon="6.84562">
        <ele>1661</ele>
        <time>2014-07-31T11:56:50.280Z</time>
      </trkpt>
      <trkpt lat="44.93391" lon="6.84557">
        <ele>1661</ele>
        <time>2014-07-31T11:56:52.180Z</time>
      </trkpt>
      <trkpt lat="44.9339" lon="6.84554">
        <ele>1661</ele>
        <time>2014-07-31T11:56:53.280Z</time>
      </trkpt>
      <trkpt lat="44.93387" lon="6.84549">
        <ele>1661.7</ele>
        <time>2014-07-31T11:56:55.280Z</time>
      </trkpt>
      <trkpt lat="44.93386" lon="6.84547">
        <ele>1662</ele>
        <time>2014-07-31T11:56:56.280Z</time>
      </trkpt>
      <trkpt lat="44.93386" lon="6.84544">
        <ele>1662</ele>
        <time>2014-07-31T11:56:57.280Z</time>
      </trkpt>
      <trkpt lat="44.93384" lon="6.8454">
        <ele>1662</ele>
        <time>2014-07-31T11:56:59.280Z</time>
      </trkpt>
      <trkpt lat="44.93381" lon="6.84535">
        <ele>1662</ele>
        <time>2014-07-31T11:57:01.180Z</time>
      </trkpt>
      <trkpt lat="44.93379" lon="6.84533">
        <ele>1662</ele>
        <time>2014-07-31T11:57:02.180Z</time>
      </trkpt>
      <trkpt lat="44.93376" lon="6.84532">
        <ele>1662</ele>
        <time>2014-07-31T11:57:03.280Z</time>
      </trkpt>
      <trkpt lat="44.93367" lon="6.8453">
        <ele>1662.6</ele>
        <time>2014-07-31T11:57:05.140Z</time>
      </trkpt>
      <trkpt lat="44.93362" lon="6.84529">
        <ele>1663</ele>
        <time>2014-07-31T11:57:06.180Z</time>
      </trkpt>
      <trkpt lat="44.93358" lon="6.84529">
        <ele>1663</ele>
        <time>2014-07-31T11:57:07.280Z</time>
      </trkpt>
      <trkpt lat="44.93353" lon="6.84532">
        <ele>1663</ele>
        <time>2014-07-31T11:57:09.180Z</time>
      </trkpt>
      <trkpt lat="44.93352" lon="6.84533">
        <ele>1663</ele>
        <time>2014-07-31T11:57:10.180Z</time>
      </trkpt>
      <trkpt lat="44.93351" lon="6.84536">
        <ele>1663</ele>
        <time>2014-07-31T11:57:11.280Z</time>
      </trkpt>
      <trkpt lat="44.93351" lon="6.84538">
        <ele>1663</ele>
        <time>2014-07-31T11:57:12.280Z</time>
      </trkpt>
      <trkpt lat="44.93352" lon="6.84543">
        <ele>1663</ele>
        <time>2014-07-31T11:57:14.260Z</time>
      </trkpt>
      <trkpt lat="44.93353" lon="6.84546">
        <ele>1663.7</ele>
        <time>2014-07-31T11:57:15.280Z</time>
      </trkpt>
      <trkpt lat="44.93353" lon="6.84548">
        <ele>1664</ele>
        <time>2014-07-31T11:57:16.280Z</time>
      </trkpt>
      <trkpt lat="44.93355" lon="6.84554">
        <ele>1664</ele>
        <time>2014-07-31T11:57:18.280Z</time>
      </trkpt>
      <trkpt lat="44.93356" lon="6.84558">
        <ele>1664</ele>
        <time>2014-07-31T11:57:19.280Z</time>
      </trkpt>
      <trkpt lat="44.93358" lon="6.84561">
        <ele>1664</ele>
        <time>2014-07-31T11:57:20.280Z</time>
      </trkpt>
      <trkpt lat="44.93359" lon="6.84564">
        <ele>1664</ele>
        <time>2014-07-31T11:57:21.280Z</time>
      </trkpt>
      <trkpt lat="44.93361" lon="6.8457">
        <ele>1664</ele>
        <time>2014-07-31T11:57:23.280Z</time>
      </trkpt>
      <trkpt lat="44.93362" lon="6.84572">
        <ele>1664</ele>
        <time>2014-07-31T11:57:24.280Z</time>
      </trkpt>
      <trkpt lat="44.93365" lon="6.8458">
        <ele>1664</ele>
        <time>2014-07-31T11:57:26.180Z</time>
      </trkpt>
      <trkpt lat="44.93367" lon="6.84584">
        <ele>1664</ele>
        <time>2014-07-31T11:57:27.180Z</time>
      </trkpt>
      <trkpt lat="44.93368" lon="6.84588">
        <ele>1664</ele>
        <time>2014-07-31T11:57:28.280Z</time>
      </trkpt>
      <trkpt lat="44.93368" lon="6.84593">
        <ele>1664</ele>
        <time>2014-07-31T11:57:29.280Z</time>
      </trkpt>
      <trkpt lat="44.93369" lon="6.84597">
        <ele>1664</ele>
        <time>2014-07-31T11:57:30.280Z</time>
      </trkpt>
      <trkpt lat="44.9337" lon="6.846">
        <ele>1664</ele>
        <time>2014-07-31T11:57:31.280Z</time>
      </trkpt>
      <trkpt lat="44.93372" lon="6.84607">
        <ele>1664</ele>
        <time>2014-07-31T11:57:33.280Z</time>
      </trkpt>
      <trkpt lat="44.93378" lon="6.84613">
        <ele>1664</ele>
        <time>2014-07-31T11:57:35.180Z</time>
      </trkpt>
      <trkpt lat="44.9338" lon="6.84617">
        <ele>1664</ele>
        <time>2014-07-31T11:57:36.180Z</time>
      </trkpt>
      <trkpt lat="44.93383" lon="6.84619">
        <ele>1664</ele>
        <time>2014-07-31T11:57:37.180Z</time>
      </trkpt>
      <trkpt lat="44.93386" lon="6.84622">
        <ele>1664</ele>
        <time>2014-07-31T11:57:38.280Z</time>
      </trkpt>
      <trkpt lat="44.9339" lon="6.84626">
        <ele>1664</ele>
        <time>2014-07-31T11:57:40.180Z</time>
      </trkpt>
      <trkpt lat="44.93394" lon="6.84629">
        <ele>1664</ele>
        <time>2014-07-31T11:57:41.180Z</time>
      </trkpt>
      <trkpt lat="44.93396" lon="6.84632">
        <ele>1664</ele>
        <time>2014-07-31T11:57:42.180Z</time>
      </trkpt>
      <trkpt lat="44.93398" lon="6.84634">
        <ele>1664</ele>
        <time>2014-07-31T11:57:43.280Z</time>
      </trkpt>
      <trkpt lat="44.934" lon="6.84636">
        <ele>1664</ele>
        <time>2014-07-31T11:57:44.280Z</time>
      </trkpt>
      <trkpt lat="44.93402" lon="6.84638">
        <ele>1664</ele>
        <time>2014-07-31T11:57:45.280Z</time>
      </trkpt>
      <trkpt lat="44.93405" lon="6.84641">
        <ele>1664</ele>
        <time>2014-07-31T11:57:46.280Z</time>
      </trkpt>
      <trkpt lat="44.9341" lon="6.84644">
        <ele>1664</ele>
        <time>2014-07-31T11:57:48.280Z</time>
      </trkpt>
      <trkpt lat="44.93412" lon="6.84646">
        <ele>1664</ele>
        <time>2014-07-31T11:57:49.280Z</time>
      </trkpt>
      <trkpt lat="44.93413" lon="6.84649">
        <ele>1664</ele>
        <time>2014-07-31T11:57:50.280Z</time>
      </trkpt>
      <trkpt lat="44.93414" lon="6.84651">
        <ele>1664</ele>
        <time>2014-07-31T11:57:51.240Z</time>
      </trkpt>
      <trkpt lat="44.93416" lon="6.84654">
        <ele>1664</ele>
        <time>2014-07-31T11:57:52.280Z</time>
      </trkpt>
      <trkpt lat="44.93417" lon="6.84659">
        <ele>1664</ele>
        <time>2014-07-31T11:57:54.180Z</time>
      </trkpt>
      <trkpt lat="44.93418" lon="6.84661">
        <ele>1665.4</ele>
        <time>2014-07-31T11:57:55.280Z</time>
      </trkpt>
      <trkpt lat="44.93418" lon="6.84664">
        <ele>1666</ele>
        <time>2014-07-31T11:57:57.180Z</time>
      </trkpt>
      <trkpt lat="44.93418" lon="6.84665">
        <ele>1666</ele>
        <time>2014-07-31T11:57:58.260Z</time>
      </trkpt>
      <trkpt lat="44.93418" lon="6.84667">
        <ele>1666</ele>
        <time>2014-07-31T11:57:59.280Z</time>
      </trkpt>
      <trkpt lat="44.93418" lon="6.84672">
        <ele>1666</ele>
        <time>2014-07-31T11:58:01.180Z</time>
      </trkpt>
      <trkpt lat="44.93418" lon="6.84674">
        <ele>1666</ele>
        <time>2014-07-31T11:58:02.280Z</time>
      </trkpt>
      <trkpt lat="44.93419" lon="6.84676">
        <ele>1666</ele>
        <time>2014-07-31T11:58:03.280Z</time>
      </trkpt>
      <trkpt lat="44.93421" lon="6.84678">
        <ele>1666</ele>
        <time>2014-07-31T11:58:04.280Z</time>
      </trkpt>
      <trkpt lat="44.93423" lon="6.84681">
        <ele>1667.4</ele>
        <time>2014-07-31T11:58:05.280Z</time>
      </trkpt>
      <trkpt lat="44.93427" lon="6.84684">
        <ele>1668</ele>
        <time>2014-07-31T11:58:06.280Z</time>
      </trkpt>
      <trkpt lat="44.93429" lon="6.8469">
        <ele>1668</ele>
        <time>2014-07-31T11:58:08.280Z</time>
      </trkpt>
      <trkpt lat="44.9343" lon="6.84695">
        <ele>1668</ele>
        <time>2014-07-31T11:58:10.180Z</time>
      </trkpt>
      <trkpt lat="44.9343" lon="6.84698">
        <ele>1668</ele>
        <time>2014-07-31T11:58:11.180Z</time>
      </trkpt>
      <trkpt lat="44.93431" lon="6.847">
        <ele>1668</ele>
        <time>2014-07-31T11:58:12.180Z</time>
      </trkpt>
      <trkpt lat="44.93432" lon="6.84703">
        <ele>1668</ele>
        <time>2014-07-31T11:58:13.140Z</time>
      </trkpt>
      <trkpt lat="44.93432" lon="6.84705">
        <ele>1668</ele>
        <time>2014-07-31T11:58:14.180Z</time>
      </trkpt>
      <trkpt lat="44.93432" lon="6.84708">
        <ele>1669.2</ele>
        <time>2014-07-31T11:58:15.180Z</time>
      </trkpt>
      <trkpt lat="44.93432" lon="6.8471">
        <ele>1670</ele>
        <time>2014-07-31T11:58:16.180Z</time>
      </trkpt>
      <trkpt lat="44.93433" lon="6.84712">
        <ele>1670</ele>
        <time>2014-07-31T11:58:17.040Z</time>
      </trkpt>
      <trkpt lat="44.93434" lon="6.84714">
        <ele>1670</ele>
        <time>2014-07-31T11:58:18.280Z</time>
      </trkpt>
      <trkpt lat="44.93434" lon="6.84717">
        <ele>1670</ele>
        <time>2014-07-31T11:58:19.280Z</time>
      </trkpt>
      <trkpt lat="44.93434" lon="6.84719">
        <ele>1670</ele>
        <time>2014-07-31T11:58:20.280Z</time>
      </trkpt>
      <trkpt lat="44.93435" lon="6.84722">
        <ele>1670</ele>
        <time>2014-07-31T11:58:21.280Z</time>
      </trkpt>
      <trkpt lat="44.93435" lon="6.84725">
        <ele>1670</ele>
        <time>2014-07-31T11:58:22.280Z</time>
      </trkpt>
      <trkpt lat="44.93435" lon="6.8473">
        <ele>1670</ele>
        <time>2014-07-31T11:58:24.180Z</time>
      </trkpt>
      <trkpt lat="44.93435" lon="6.84732">
        <ele>1671.2</ele>
        <time>2014-07-31T11:58:25.180Z</time>
      </trkpt>
      <trkpt lat="44.93435" lon="6.84734">
        <ele>1672</ele>
        <time>2014-07-31T11:58:26.180Z</time>
      </trkpt>
      <trkpt lat="44.93434" lon="6.84737">
        <ele>1672</ele>
        <time>2014-07-31T11:58:27.280Z</time>
      </trkpt>
      <trkpt lat="44.93434" lon="6.84741">
        <ele>1672</ele>
        <time>2014-07-31T11:58:29.260Z</time>
      </trkpt>
      <trkpt lat="44.93433" lon="6.84746">
        <ele>1672</ele>
        <time>2014-07-31T11:58:31.280Z</time>
      </trkpt>
      <trkpt lat="44.93433" lon="6.84749">
        <ele>1672</ele>
        <time>2014-07-31T11:58:32.280Z</time>
      </trkpt>
      <trkpt lat="44.93433" lon="6.84755">
        <ele>1672</ele>
        <time>2014-07-31T11:58:34.240Z</time>
      </trkpt>
      <trkpt lat="44.93432" lon="6.84757">
        <ele>1673.4</ele>
        <time>2014-07-31T11:58:35.280Z</time>
      </trkpt>
      <trkpt lat="44.93432" lon="6.84759">
        <ele>1674</ele>
        <time>2014-07-31T11:58:36.280Z</time>
      </trkpt>
      <trkpt lat="44.93432" lon="6.84762">
        <ele>1674</ele>
        <time>2014-07-31T11:58:37.280Z</time>
      </trkpt>
      <trkpt lat="44.93432" lon="6.84767">
        <ele>1674</ele>
        <time>2014-07-31T11:58:39.280Z</time>
      </trkpt>
      <trkpt lat="44.93431" lon="6.84771">
        <ele>1674</ele>
        <time>2014-07-31T11:58:41.200Z</time>
      </trkpt>
      <trkpt lat="44.93431" lon="6.84775">
        <ele>1674</ele>
        <time>2014-07-31T11:58:42.180Z</time>
      </trkpt>
      <trkpt lat="44.9343" lon="6.84777">
        <ele>1674</ele>
        <time>2014-07-31T11:58:43.180Z</time>
      </trkpt>
      <trkpt lat="44.9343" lon="6.8478">
        <ele>1674</ele>
        <time>2014-07-31T11:58:44.180Z</time>
      </trkpt>
      <trkpt lat="44.93429" lon="6.84783">
        <ele>1675.2</ele>
        <time>2014-07-31T11:58:45.180Z</time>
      </trkpt>
      <trkpt lat="44.93428" lon="6.84785">
        <ele>1676</ele>
        <time>2014-07-31T11:58:46.280Z</time>
      </trkpt>
      <trkpt lat="44.93427" lon="6.8479">
        <ele>1676</ele>
        <time>2014-07-31T11:58:48.180Z</time>
      </trkpt>
      <trkpt lat="44.93426" lon="6.84792">
        <ele>1676</ele>
        <time>2014-07-31T11:58:49.180Z</time>
      </trkpt>
      <trkpt lat="44.93425" lon="6.84795">
        <ele>1676</ele>
        <time>2014-07-31T11:58:50.280Z</time>
      </trkpt>
      <trkpt lat="44.93425" lon="6.848">
        <ele>1676</ele>
        <time>2014-07-31T11:58:52.180Z</time>
      </trkpt>
      <trkpt lat="44.93424" lon="6.84802">
        <ele>1676</ele>
        <time>2014-07-31T11:58:53.180Z</time>
      </trkpt>
      <trkpt lat="44.93424" lon="6.84804">
        <ele>1676</ele>
        <time>2014-07-31T11:58:54.280Z</time>
      </trkpt>
      <trkpt lat="44.93424" lon="6.84807">
        <ele>1677.4</ele>
        <time>2014-07-31T11:58:55.280Z</time>
      </trkpt>
      <trkpt lat="44.93424" lon="6.84811">
        <ele>1678</ele>
        <time>2014-07-31T11:58:57.280Z</time>
      </trkpt>
      <trkpt lat="44.93423" lon="6.84814">
        <ele>1678</ele>
        <time>2014-07-31T11:58:58.280Z</time>
      </trkpt>
      <trkpt lat="44.93423" lon="6.84816">
        <ele>1678</ele>
        <time>2014-07-31T11:58:59.280Z</time>
      </trkpt>
      <trkpt lat="44.93422" lon="6.8482">
        <ele>1678</ele>
        <time>2014-07-31T11:59:01.180Z</time>
      </trkpt>
      <trkpt lat="44.93422" lon="6.84822">
        <ele>1678</ele>
        <time>2014-07-31T11:59:02.280Z</time>
      </trkpt>
      <trkpt lat="44.93421" lon="6.84827">
        <ele>1678</ele>
        <time>2014-07-31T11:59:04.140Z</time>
      </trkpt>
      <trkpt lat="44.9342" lon="6.84829">
        <ele>1678</ele>
        <time>2014-07-31T11:59:05.280Z</time>
      </trkpt>
      <trkpt lat="44.9342" lon="6.84831">
        <ele>1678</ele>
        <time>2014-07-31T11:59:06.280Z</time>
      </trkpt>
      <trkpt lat="44.9342" lon="6.84835">
        <ele>1678</ele>
        <time>2014-07-31T11:59:08.280Z</time>
      </trkpt>
      <trkpt lat="44.93418" lon="6.84839">
        <ele>1678</ele>
        <time>2014-07-31T11:59:10.180Z</time>
      </trkpt>
      <trkpt lat="44.93416" lon="6.84844">
        <ele>1678</ele>
        <time>2014-07-31T11:59:12.180Z</time>
      </trkpt>
      <trkpt lat="44.93414" lon="6.84846">
        <ele>1678</ele>
        <time>2014-07-31T11:59:13.280Z</time>
      </trkpt>
      <trkpt lat="44.93413" lon="6.84848">
        <ele>1678</ele>
        <time>2014-07-31T11:59:14.280Z</time>
      </trkpt>
      <trkpt lat="44.93412" lon="6.84851">
        <ele>1679.4</ele>
        <time>2014-07-31T11:59:15.280Z</time>
      </trkpt>
      <trkpt lat="44.9341" lon="6.84855">
        <ele>1680</ele>
        <time>2014-07-31T11:59:17.180Z</time>
      </trkpt>
      <trkpt lat="44.93408" lon="6.8486">
        <ele>1680</ele>
        <time>2014-07-31T11:59:19.180Z</time>
      </trkpt>
      <trkpt lat="44.93407" lon="6.84862">
        <ele>1680</ele>
        <time>2014-07-31T11:59:20.180Z</time>
      </trkpt>
      <trkpt lat="44.93406" lon="6.84863">
        <ele>1680</ele>
        <time>2014-07-31T11:59:21.240Z</time>
      </trkpt>
      <trkpt lat="44.93405" lon="6.84867">
        <ele>1680</ele>
        <time>2014-07-31T11:59:23.180Z</time>
      </trkpt>
      <trkpt lat="44.93404" lon="6.8487">
        <ele>1680</ele>
        <time>2014-07-31T11:59:24.180Z</time>
      </trkpt>
      <trkpt lat="44.93403" lon="6.84871">
        <ele>1680.7</ele>
        <time>2014-07-31T11:59:25.280Z</time>
      </trkpt>
      <trkpt lat="44.93402" lon="6.84876">
        <ele>1681</ele>
        <time>2014-07-31T11:59:27.280Z</time>
      </trkpt>
      <trkpt lat="44.93401" lon="6.84881">
        <ele>1681</ele>
        <time>2014-07-31T11:59:29.180Z</time>
      </trkpt>
      <trkpt lat="44.93401" lon="6.84882">
        <ele>1681</ele>
        <time>2014-07-31T11:59:30.180Z</time>
      </trkpt>
      <trkpt lat="44.934" lon="6.84884">
        <ele>1681</ele>
        <time>2014-07-31T11:59:31.200Z</time>
      </trkpt>
      <trkpt lat="44.934" lon="6.84886">
        <ele>1681</ele>
        <time>2014-07-31T11:59:32.260Z</time>
      </trkpt>
      <trkpt lat="44.934" lon="6.84891">
        <ele>1681</ele>
        <time>2014-07-31T11:59:34.240Z</time>
      </trkpt>
      <trkpt lat="44.93399" lon="6.84896">
        <ele>1683</ele>
        <time>2014-07-31T11:59:36.280Z</time>
      </trkpt>
      <trkpt lat="44.93399" lon="6.849">
        <ele>1683</ele>
        <time>2014-07-31T11:59:38.140Z</time>
      </trkpt>
      <trkpt lat="44.93398" lon="6.84902">
        <ele>1683</ele>
        <time>2014-07-31T11:59:39.180Z</time>
      </trkpt>
      <trkpt lat="44.93397" lon="6.84903">
        <ele>1683</ele>
        <time>2014-07-31T11:59:40.180Z</time>
      </trkpt>
      <trkpt lat="44.93396" lon="6.84905">
        <ele>1683</ele>
        <time>2014-07-31T11:59:41.280Z</time>
      </trkpt>
      <trkpt lat="44.93395" lon="6.84908">
        <ele>1683</ele>
        <time>2014-07-31T11:59:43.180Z</time>
      </trkpt>
      <trkpt lat="44.93395" lon="6.8491">
        <ele>1683</ele>
        <time>2014-07-31T11:59:44.280Z</time>
      </trkpt>
      <trkpt lat="44.93394" lon="6.84912">
        <ele>1683.7</ele>
        <time>2014-07-31T11:59:45.280Z</time>
      </trkpt>
      <trkpt lat="44.93393" lon="6.84915">
        <ele>1684</ele>
        <time>2014-07-31T11:59:47.280Z</time>
      </trkpt>
      <trkpt lat="44.9339" lon="6.84918">
        <ele>1684</ele>
        <time>2014-07-31T11:59:49.180Z</time>
      </trkpt>
      <trkpt lat="44.93389" lon="6.8492">
        <ele>1684</ele>
        <time>2014-07-31T11:59:50.180Z</time>
      </trkpt>
      <trkpt lat="44.93388" lon="6.84921">
        <ele>1684</ele>
        <time>2014-07-31T11:59:51.240Z</time>
      </trkpt>
      <trkpt lat="44.93386" lon="6.84924">
        <ele>1684</ele>
        <time>2014-07-31T11:59:53.180Z</time>
      </trkpt>
      <trkpt lat="44.93385" lon="6.84926">
        <ele>1684</ele>
        <time>2014-07-31T11:59:54.180Z</time>
      </trkpt>
      <trkpt lat="44.93384" lon="6.84927">
        <ele>1685.3</ele>
        <time>2014-07-31T11:59:55.240Z</time>
      </trkpt>
      <trkpt lat="44.93383" lon="6.8493">
        <ele>1686</ele>
        <time>2014-07-31T11:59:57.180Z</time>
      </trkpt>
      <trkpt lat="44.93383" lon="6.84932">
        <ele>1686</ele>
        <time>2014-07-31T11:59:58.180Z</time>
      </trkpt>
      <trkpt lat="44.93383" lon="6.84934">
        <ele>1686</ele>
        <time>2014-07-31T11:59:59.280Z</time>
      </trkpt>
      <trkpt lat="44.93381" lon="6.84939">
        <ele>1686</ele>
        <time>2014-07-31T12:00:01.180Z</time>
      </trkpt>
      <trkpt lat="44.9338" lon="6.8494">
        <ele>1686</ele>
        <time>2014-07-31T12:00:02.180Z</time>
      </trkpt>
      <trkpt lat="44.93379" lon="6.84942">
        <ele>1686</ele>
        <time>2014-07-31T12:00:03.280Z</time>
      </trkpt>
      <trkpt lat="44.93379" lon="6.84946">
        <ele>1687.8</ele>
        <time>2014-07-31T12:00:05.170Z</time>
      </trkpt>
      <trkpt lat="44.93378" lon="6.8495">
        <ele>1689</ele>
        <time>2014-07-31T12:00:07.280Z</time>
      </trkpt>
      <trkpt lat="44.93378" lon="6.84955">
        <ele>1689</ele>
        <time>2014-07-31T12:00:09.280Z</time>
      </trkpt>
      <trkpt lat="44.93379" lon="6.84959">
        <ele>1691</ele>
        <time>2014-07-31T12:00:11.180Z</time>
      </trkpt>
      <trkpt lat="44.93378" lon="6.84961">
        <ele>1691</ele>
        <time>2014-07-31T12:00:12.240Z</time>
      </trkpt>
      <trkpt lat="44.93377" lon="6.84966">
        <ele>1691</ele>
        <time>2014-07-31T12:00:14.180Z</time>
      </trkpt>
      <trkpt lat="44.93376" lon="6.8497">
        <ele>1692</ele>
        <time>2014-07-31T12:00:16.180Z</time>
      </trkpt>
      <trkpt lat="44.93376" lon="6.84972">
        <ele>1692</ele>
        <time>2014-07-31T12:00:17.200Z</time>
      </trkpt>
      <trkpt lat="44.93377" lon="6.84976">
        <ele>1692</ele>
        <time>2014-07-31T12:00:19.280Z</time>
      </trkpt>
      <trkpt lat="44.93379" lon="6.84981">
        <ele>1692</ele>
        <time>2014-07-31T12:00:21.280Z</time>
      </trkpt>
      <trkpt lat="44.93378" lon="6.84985">
        <ele>1692</ele>
        <time>2014-07-31T12:00:23.180Z</time>
      </trkpt>
      <trkpt lat="44.93379" lon="6.84988">
        <ele>1692.6</ele>
        <time>2014-07-31T12:00:25.180Z</time>
      </trkpt>
      <trkpt lat="44.93378" lon="6.8499">
        <ele>1693</ele>
        <time>2014-07-31T12:00:26.180Z</time>
      </trkpt>
      <trkpt lat="44.93378" lon="6.84992">
        <ele>1693</ele>
        <time>2014-07-31T12:00:27.280Z</time>
      </trkpt>
      <trkpt lat="44.93377" lon="6.84997">
        <ele>1693</ele>
        <time>2014-07-31T12:00:29.210Z</time>
      </trkpt>
      <trkpt lat="44.93376" lon="6.85">
        <ele>1693</ele>
        <time>2014-07-31T12:00:31.180Z</time>
      </trkpt>
      <trkpt lat="44.93375" lon="6.85002">
        <ele>1693</ele>
        <time>2014-07-31T12:00:32.180Z</time>
      </trkpt>
      <trkpt lat="44.93375" lon="6.85004">
        <ele>1693</ele>
        <time>2014-07-31T12:00:33.280Z</time>
      </trkpt>
      <trkpt lat="44.93374" lon="6.85008">
        <ele>1693.7</ele>
        <time>2014-07-31T12:00:35.280Z</time>
      </trkpt>
      <trkpt lat="44.93372" lon="6.85012">
        <ele>1694</ele>
        <time>2014-07-31T12:00:37.280Z</time>
      </trkpt>
      <trkpt lat="44.93372" lon="6.85015">
        <ele>1694</ele>
        <time>2014-07-31T12:00:39.180Z</time>
      </trkpt>
      <trkpt lat="44.93371" lon="6.85019">
        <ele>1694</ele>
        <time>2014-07-31T12:00:41.180Z</time>
      </trkpt>
      <trkpt lat="44.9337" lon="6.85023">
        <ele>1694</ele>
        <time>2014-07-31T12:00:43.280Z</time>
      </trkpt>
      <trkpt lat="44.9337" lon="6.85028">
        <ele>1695.4</ele>
        <time>2014-07-31T12:00:45.280Z</time>
      </trkpt>
      <trkpt lat="44.93369" lon="6.85032">
        <ele>1696</ele>
        <time>2014-07-31T12:00:47.180Z</time>
      </trkpt>
      <trkpt lat="44.9337" lon="6.85034">
        <ele>1696</ele>
        <time>2014-07-31T12:00:48.280Z</time>
      </trkpt>
      <trkpt lat="44.93371" lon="6.85038">
        <ele>1696</ele>
        <time>2014-07-31T12:00:50.280Z</time>
      </trkpt>
      <trkpt lat="44.93373" lon="6.85041">
        <ele>1696</ele>
        <time>2014-07-31T12:00:52.200Z</time>
      </trkpt>
      <trkpt lat="44.93376" lon="6.85043">
        <ele>1696</ele>
        <time>2014-07-31T12:00:54.280Z</time>
      </trkpt>
      <trkpt lat="44.93379" lon="6.85046">
        <ele>1697</ele>
        <time>2014-07-31T12:00:56.180Z</time>
      </trkpt>
      <trkpt lat="44.93382" lon="6.85049">
        <ele>1697</ele>
        <time>2014-07-31T12:00:58.180Z</time>
      </trkpt>
      <trkpt lat="44.93385" lon="6.85051">
        <ele>1697</ele>
        <time>2014-07-31T12:01:00.240Z</time>
      </trkpt>
      <trkpt lat="44.93387" lon="6.85052">
        <ele>1697</ele>
        <time>2014-07-31T12:01:01.280Z</time>
      </trkpt>
      <trkpt lat="44.9339" lon="6.85054">
        <ele>1697</ele>
        <time>2014-07-31T12:01:03.240Z</time>
      </trkpt>
      <trkpt lat="44.93392" lon="6.85057">
        <ele>1697.6</ele>
        <time>2014-07-31T12:01:05.180Z</time>
      </trkpt>
      <trkpt lat="44.93392" lon="6.85058">
        <ele>1698</ele>
        <time>2014-07-31T12:01:06.180Z</time>
      </trkpt>
      <trkpt lat="44.93392" lon="6.85063">
        <ele>1698</ele>
        <time>2014-07-31T12:01:08.180Z</time>
      </trkpt>
      <trkpt lat="44.93394" lon="6.85065">
        <ele>1698</ele>
        <time>2014-07-31T12:01:09.280Z</time>
      </trkpt>
      <trkpt lat="44.93396" lon="6.85069">
        <ele>1698</ele>
        <time>2014-07-31T12:01:11.280Z</time>
      </trkpt>
      <trkpt lat="44.93397" lon="6.85073">
        <ele>1698</ele>
        <time>2014-07-31T12:01:13.100Z</time>
      </trkpt>
      <trkpt lat="44.93398" lon="6.85074">
        <ele>1698.6</ele>
        <time>2014-07-31T12:01:15.180Z</time>
      </trkpt>
      <trkpt lat="44.93397" lon="6.85077">
        <ele>1699</ele>
        <time>2014-07-31T12:01:17.240Z</time>
      </trkpt>
      <trkpt lat="44.934" lon="6.85083">
        <ele>1699</ele>
        <time>2014-07-31T12:01:19.280Z</time>
      </trkpt>
      <trkpt lat="44.93401" lon="6.85087">
        <ele>1699</ele>
        <time>2014-07-31T12:01:21.180Z</time>
      </trkpt>
      <trkpt lat="44.93401" lon="6.8509">
        <ele>1699</ele>
        <time>2014-07-31T12:01:22.180Z</time>
      </trkpt>
      <trkpt lat="44.93399" lon="6.85095">
        <ele>1699</ele>
        <time>2014-07-31T12:01:24.180Z</time>
      </trkpt>
      <trkpt lat="44.93398" lon="6.85097">
        <ele>1700.4</ele>
        <time>2014-07-31T12:01:25.260Z</time>
      </trkpt>
      <trkpt lat="44.93397" lon="6.85104">
        <ele>1701</ele>
        <time>2014-07-31T12:01:27.280Z</time>
      </trkpt>
      <trkpt lat="44.93397" lon="6.85109">
        <ele>1701</ele>
        <time>2014-07-31T12:01:29.180Z</time>
      </trkpt>
      <trkpt lat="44.93397" lon="6.85111">
        <ele>1701</ele>
        <time>2014-07-31T12:01:30.280Z</time>
      </trkpt>
      <trkpt lat="44.93397" lon="6.85117">
        <ele>1701</ele>
        <time>2014-07-31T12:01:32.280Z</time>
      </trkpt>
      <trkpt lat="44.93396" lon="6.85121">
        <ele>1701</ele>
        <time>2014-07-31T12:01:34.240Z</time>
      </trkpt>
      <trkpt lat="44.93394" lon="6.85125">
        <ele>1703</ele>
        <time>2014-07-31T12:01:36.280Z</time>
      </trkpt>
      <trkpt lat="44.93393" lon="6.85129">
        <ele>1703</ele>
        <time>2014-07-31T12:01:38.280Z</time>
      </trkpt>
      <trkpt lat="44.93392" lon="6.85133">
        <ele>1703</ele>
        <time>2014-07-31T12:01:40.280Z</time>
      </trkpt>
      <trkpt lat="44.93392" lon="6.85139">
        <ele>1703</ele>
        <time>2014-07-31T12:01:42.280Z</time>
      </trkpt>
      <trkpt lat="44.93392" lon="6.85143">
        <ele>1703</ele>
        <time>2014-07-31T12:01:44.280Z</time>
      </trkpt>
      <trkpt lat="44.93392" lon="6.85148">
        <ele>1705</ele>
        <time>2014-07-31T12:01:46.280Z</time>
      </trkpt>
      <trkpt lat="44.93391" lon="6.85152">
        <ele>1705</ele>
        <time>2014-07-31T12:01:48.280Z</time>
      </trkpt>
      <trkpt lat="44.93392" lon="6.85156">
        <ele>1705</ele>
        <time>2014-07-31T12:01:50.280Z</time>
      </trkpt>
      <trkpt lat="44.93393" lon="6.85159">
        <ele>1705</ele>
        <time>2014-07-31T12:01:52.280Z</time>
      </trkpt>
      <trkpt lat="44.93395" lon="6.85162">
        <ele>1705</ele>
        <time>2014-07-31T12:01:54.240Z</time>
      </trkpt>
      <trkpt lat="44.93395" lon="6.85165">
        <ele>1707</ele>
        <time>2014-07-31T12:01:56.180Z</time>
      </trkpt>
      <trkpt lat="44.93397" lon="6.85169">
        <ele>1707</ele>
        <time>2014-07-31T12:01:58.280Z</time>
      </trkpt>
      <trkpt lat="44.93395" lon="6.85172">
        <ele>1707</ele>
        <time>2014-07-31T12:02:00.200Z</time>
      </trkpt>
      <trkpt lat="44.93395" lon="6.85174">
        <ele>1707</ele>
        <time>2014-07-31T12:02:01.280Z</time>
      </trkpt>
      <trkpt lat="44.93395" lon="6.85177">
        <ele>1707</ele>
        <time>2014-07-31T12:02:03.180Z</time>
      </trkpt>
      <trkpt lat="44.93394" lon="6.8518">
        <ele>1707.6</ele>
        <time>2014-07-31T12:02:05.180Z</time>
      </trkpt>
      <trkpt lat="44.93395" lon="6.85184">
        <ele>1708</ele>
        <time>2014-07-31T12:02:07.180Z</time>
      </trkpt>
      <trkpt lat="44.93396" lon="6.85185">
        <ele>1708</ele>
        <time>2014-07-31T12:02:08.280Z</time>
      </trkpt>
      <trkpt lat="44.934" lon="6.85188">
        <ele>1708</ele>
        <time>2014-07-31T12:02:10.280Z</time>
      </trkpt>
      <trkpt lat="44.93402" lon="6.85191">
        <ele>1708</ele>
        <time>2014-07-31T12:02:12.280Z</time>
      </trkpt>
      <trkpt lat="44.93403" lon="6.85194">
        <ele>1708</ele>
        <time>2014-07-31T12:02:14.180Z</time>
      </trkpt>
      <trkpt lat="44.93404" lon="6.85199">
        <ele>1708</ele>
        <time>2014-07-31T12:02:16.180Z</time>
      </trkpt>
      <trkpt lat="44.93404" lon="6.85203">
        <ele>1708</ele>
        <time>2014-07-31T12:02:18.280Z</time>
      </trkpt>
      <trkpt lat="44.93406" lon="6.85209">
        <ele>1708</ele>
        <time>2014-07-31T12:02:20.280Z</time>
      </trkpt>
      <trkpt lat="44.93406" lon="6.85213">
        <ele>1708</ele>
        <time>2014-07-31T12:02:22.180Z</time>
      </trkpt>
      <trkpt lat="44.93407" lon="6.85215">
        <ele>1708</ele>
        <time>2014-07-31T12:02:23.260Z</time>
      </trkpt>
      <trkpt lat="44.93408" lon="6.85216">
        <ele>1708</ele>
        <time>2014-07-31T12:02:24.280Z</time>
      </trkpt>
      <trkpt lat="44.93409" lon="6.8522">
        <ele>1710</ele>
        <time>2014-07-31T12:02:26.280Z</time>
      </trkpt>
      <trkpt lat="44.93409" lon="6.85224">
        <ele>1710</ele>
        <time>2014-07-31T12:02:28.140Z</time>
      </trkpt>
      <trkpt lat="44.93409" lon="6.85225">
        <ele>1710</ele>
        <time>2014-07-31T12:02:29.280Z</time>
      </trkpt>
      <trkpt lat="44.93408" lon="6.8523">
        <ele>1710</ele>
        <time>2014-07-31T12:02:31.280Z</time>
      </trkpt>
      <trkpt lat="44.93407" lon="6.85234">
        <ele>1710</ele>
        <time>2014-07-31T12:02:33.180Z</time>
      </trkpt>
      <trkpt lat="44.93405" lon="6.85237">
        <ele>1711.3</ele>
        <time>2014-07-31T12:02:35.200Z</time>
      </trkpt>
      <trkpt lat="44.93404" lon="6.85239">
        <ele>1712</ele>
        <time>2014-07-31T12:02:36.180Z</time>
      </trkpt>
      <trkpt lat="44.93403" lon="6.85244">
        <ele>1712</ele>
        <time>2014-07-31T12:02:38.280Z</time>
      </trkpt>
      <trkpt lat="44.93402" lon="6.85248">
        <ele>1712</ele>
        <time>2014-07-31T12:02:40.280Z</time>
      </trkpt>
      <trkpt lat="44.93402" lon="6.85253">
        <ele>1712</ele>
        <time>2014-07-31T12:02:42.280Z</time>
      </trkpt>
      <trkpt lat="44.93403" lon="6.85258">
        <ele>1712</ele>
        <time>2014-07-31T12:02:44.280Z</time>
      </trkpt>
      <trkpt lat="44.93401" lon="6.85262">
        <ele>1713</ele>
        <time>2014-07-31T12:02:46.180Z</time>
      </trkpt>
      <trkpt lat="44.93401" lon="6.85268">
        <ele>1713</ele>
        <time>2014-07-31T12:02:48.280Z</time>
      </trkpt>
      <trkpt lat="44.93401" lon="6.8527">
        <ele>1713</ele>
        <time>2014-07-31T12:02:49.280Z</time>
      </trkpt>
      <trkpt lat="44.93403" lon="6.85272">
        <ele>1713</ele>
        <time>2014-07-31T12:02:50.280Z</time>
      </trkpt>
      <trkpt lat="44.93406" lon="6.85275">
        <ele>1713</ele>
        <time>2014-07-31T12:02:52.180Z</time>
      </trkpt>
      <trkpt lat="44.93407" lon="6.85278">
        <ele>1713</ele>
        <time>2014-07-31T12:02:53.280Z</time>
      </trkpt>
      <trkpt lat="44.93408" lon="6.85283">
        <ele>1714.4</ele>
        <time>2014-07-31T12:02:55.280Z</time>
      </trkpt>
      <trkpt lat="44.93409" lon="6.85287">
        <ele>1715</ele>
        <time>2014-07-31T12:02:57.280Z</time>
      </trkpt>
      <trkpt lat="44.93411" lon="6.85289">
        <ele>1715</ele>
        <time>2014-07-31T12:02:59.180Z</time>
      </trkpt>
      <trkpt lat="44.93411" lon="6.85291">
        <ele>1715</ele>
        <time>2014-07-31T12:03:00.240Z</time>
      </trkpt>
      <trkpt lat="44.93411" lon="6.85293">
        <ele>1715</ele>
        <time>2014-07-31T12:03:01.280Z</time>
      </trkpt>
      <trkpt lat="44.93416" lon="6.85298">
        <ele>1715</ele>
        <time>2014-07-31T12:03:03.280Z</time>
      </trkpt>
      <trkpt lat="44.9342" lon="6.85303">
        <ele>1715.7</ele>
        <time>2014-07-31T12:03:05.280Z</time>
      </trkpt>
      <trkpt lat="44.93424" lon="6.85308">
        <ele>1716</ele>
        <time>2014-07-31T12:03:07.160Z</time>
      </trkpt>
      <trkpt lat="44.93425" lon="6.8531">
        <ele>1716</ele>
        <time>2014-07-31T12:03:08.280Z</time>
      </trkpt>
      <trkpt lat="44.93427" lon="6.85315">
        <ele>1716</ele>
        <time>2014-07-31T12:03:10.280Z</time>
      </trkpt>
      <trkpt lat="44.93428" lon="6.8532">
        <ele>1716</ele>
        <time>2014-07-31T12:03:12.280Z</time>
      </trkpt>
      <trkpt lat="44.93428" lon="6.85324">
        <ele>1716</ele>
        <time>2014-07-31T12:03:14.180Z</time>
      </trkpt>
      <trkpt lat="44.93429" lon="6.85328">
        <ele>1717</ele>
        <time>2014-07-31T12:03:16.180Z</time>
      </trkpt>
      <trkpt lat="44.93429" lon="6.8533">
        <ele>1717</ele>
        <time>2014-07-31T12:03:17.240Z</time>
      </trkpt>
      <trkpt lat="44.9343" lon="6.85334">
        <ele>1717</ele>
        <time>2014-07-31T12:03:19.210Z</time>
      </trkpt>
      <trkpt lat="44.9343" lon="6.85338">
        <ele>1717</ele>
        <time>2014-07-31T12:03:21.280Z</time>
      </trkpt>
      <trkpt lat="44.93434" lon="6.85343">
        <ele>1717</ele>
        <time>2014-07-31T12:03:23.180Z</time>
      </trkpt>
      <trkpt lat="44.93436" lon="6.85347">
        <ele>1717.6</ele>
        <time>2014-07-31T12:03:25.180Z</time>
      </trkpt>
      <trkpt lat="44.93438" lon="6.8535">
        <ele>1718</ele>
        <time>2014-07-31T12:03:27.180Z</time>
      </trkpt>
      <trkpt lat="44.9344" lon="6.85352">
        <ele>1718</ele>
        <time>2014-07-31T12:03:28.280Z</time>
      </trkpt>
      <trkpt lat="44.93445" lon="6.85356">
        <ele>1718</ele>
        <time>2014-07-31T12:03:30.160Z</time>
      </trkpt>
      <trkpt lat="44.93448" lon="6.85361">
        <ele>1718</ele>
        <time>2014-07-31T12:03:32.180Z</time>
      </trkpt>
      <trkpt lat="44.9345" lon="6.85363">
        <ele>1718</ele>
        <time>2014-07-31T12:03:33.280Z</time>
      </trkpt>
      <trkpt lat="44.93452" lon="6.85367">
        <ele>1719.2</ele>
        <time>2014-07-31T12:03:35.180Z</time>
      </trkpt>
      <trkpt lat="44.93453" lon="6.85369">
        <ele>1720</ele>
        <time>2014-07-31T12:03:36.180Z</time>
      </trkpt>
      <trkpt lat="44.93454" lon="6.85374">
        <ele>1720</ele>
        <time>2014-07-31T12:03:38.180Z</time>
      </trkpt>
      <trkpt lat="44.93455" lon="6.85377">
        <ele>1720</ele>
        <time>2014-07-31T12:03:40.180Z</time>
      </trkpt>
      <trkpt lat="44.93456" lon="6.85381">
        <ele>1720</ele>
        <time>2014-07-31T12:03:42.260Z</time>
      </trkpt>
      <trkpt lat="44.93455" lon="6.85386">
        <ele>1720</ele>
        <time>2014-07-31T12:03:44.180Z</time>
      </trkpt>
      <trkpt lat="44.93455" lon="6.85391">
        <ele>1723</ele>
        <time>2014-07-31T12:03:46.180Z</time>
      </trkpt>
      <trkpt lat="44.93456" lon="6.85395">
        <ele>1723</ele>
        <time>2014-07-31T12:03:48.280Z</time>
      </trkpt>
      <trkpt lat="44.93456" lon="6.85398">
        <ele>1723.7</ele>
        <time>2014-07-31T12:03:50.280Z</time>
      </trkpt>
      <trkpt lat="44.93457" lon="6.85403">
        <ele>1724</ele>
        <time>2014-07-31T12:03:52.180Z</time>
      </trkpt>
      <trkpt lat="44.93457" lon="6.85406">
        <ele>1724</ele>
        <time>2014-07-31T12:03:53.240Z</time>
      </trkpt>
      <trkpt lat="44.93457" lon="6.8541">
        <ele>1724.7</ele>
        <time>2014-07-31T12:03:55.280Z</time>
      </trkpt>
      <trkpt lat="44.93457" lon="6.85416">
        <ele>1725</ele>
        <time>2014-07-31T12:03:57.280Z</time>
      </trkpt>
      <trkpt lat="44.93454" lon="6.85421">
        <ele>1725</ele>
        <time>2014-07-31T12:03:59.180Z</time>
      </trkpt>
      <trkpt lat="44.93452" lon="6.85424">
        <ele>1725</ele>
        <time>2014-07-31T12:04:00.240Z</time>
      </trkpt>
      <trkpt lat="44.93451" lon="6.85426">
        <ele>1725</ele>
        <time>2014-07-31T12:04:01.280Z</time>
      </trkpt>
      <trkpt lat="44.93452" lon="6.85429">
        <ele>1725</ele>
        <time>2014-07-31T12:04:03.180Z</time>
      </trkpt>
      <trkpt lat="44.93451" lon="6.85434">
        <ele>1725.6</ele>
        <time>2014-07-31T12:04:05.180Z</time>
      </trkpt>
      <trkpt lat="44.93451" lon="6.85439">
        <ele>1726</ele>
        <time>2014-07-31T12:04:07.180Z</time>
      </trkpt>
      <trkpt lat="44.9345" lon="6.85441">
        <ele>1726</ele>
        <time>2014-07-31T12:04:08.280Z</time>
      </trkpt>
      <trkpt lat="44.93448" lon="6.85446">
        <ele>1726</ele>
        <time>2014-07-31T12:04:10.140Z</time>
      </trkpt>
      <trkpt lat="44.93447" lon="6.8545">
        <ele>1726</ele>
        <time>2014-07-31T12:04:12.180Z</time>
      </trkpt>
      <trkpt lat="44.93446" lon="6.85452">
        <ele>1726</ele>
        <time>2014-07-31T12:04:13.280Z</time>
      </trkpt>
      <trkpt lat="44.93445" lon="6.85457">
        <ele>1726.7</ele>
        <time>2014-07-31T12:04:15.280Z</time>
      </trkpt>
      <trkpt lat="44.93445" lon="6.85462">
        <ele>1727</ele>
        <time>2014-07-31T12:04:17.240Z</time>
      </trkpt>
      <trkpt lat="44.93445" lon="6.85467">
        <ele>1727</ele>
        <time>2014-07-31T12:04:19.180Z</time>
      </trkpt>
      <trkpt lat="44.93443" lon="6.8547">
        <ele>1727</ele>
        <time>2014-07-31T12:04:21.180Z</time>
      </trkpt>
      <trkpt lat="44.93444" lon="6.85472">
        <ele>1727</ele>
        <time>2014-07-31T12:04:23.280Z</time>
      </trkpt>
      <trkpt lat="44.93443" lon="6.85474">
        <ele>1728.4</ele>
        <time>2014-07-31T12:04:25.280Z</time>
      </trkpt>
      <trkpt lat="44.93443" lon="6.85475">
        <ele>1729</ele>
        <time>2014-07-31T12:04:27.140Z</time>
      </trkpt>
      <trkpt lat="44.93441" lon="6.85477">
        <ele>1729</ele>
        <time>2014-07-31T12:04:28.260Z</time>
      </trkpt>
      <trkpt lat="44.9344" lon="6.8548">
        <ele>1729</ele>
        <time>2014-07-31T12:04:29.280Z</time>
      </trkpt>
      <trkpt lat="44.9344" lon="6.85485">
        <ele>1729</ele>
        <time>2014-07-31T12:04:31.280Z</time>
      </trkpt>
      <trkpt lat="44.93439" lon="6.85491">
        <ele>1729</ele>
        <time>2014-07-31T12:04:33.180Z</time>
      </trkpt>
      <trkpt lat="44.93438" lon="6.85493">
        <ele>1729</ele>
        <time>2014-07-31T12:04:34.180Z</time>
      </trkpt>
      <trkpt lat="44.93437" lon="6.85498">
        <ele>1730</ele>
        <time>2014-07-31T12:04:36.280Z</time>
      </trkpt>
      <trkpt lat="44.93436" lon="6.85502">
        <ele>1730</ele>
        <time>2014-07-31T12:04:38.180Z</time>
      </trkpt>
      <trkpt lat="44.93436" lon="6.85504">
        <ele>1730</ele>
        <time>2014-07-31T12:04:39.200Z</time>
      </trkpt>
      <trkpt lat="44.93434" lon="6.85509">
        <ele>1730</ele>
        <time>2014-07-31T12:04:41.280Z</time>
      </trkpt>
      <trkpt lat="44.93434" lon="6.85511">
        <ele>1730</ele>
        <time>2014-07-31T12:04:42.280Z</time>
      </trkpt>
      <trkpt lat="44.93432" lon="6.85516">
        <ele>1730</ele>
        <time>2014-07-31T12:04:44.140Z</time>
      </trkpt>
      <trkpt lat="44.9343" lon="6.85521">
        <ele>1731</ele>
        <time>2014-07-31T12:04:46.180Z</time>
      </trkpt>
      <trkpt lat="44.9343" lon="6.85523">
        <ele>1731</ele>
        <time>2014-07-31T12:04:47.280Z</time>
      </trkpt>
      <trkpt lat="44.93429" lon="6.85527">
        <ele>1731</ele>
        <time>2014-07-31T12:04:49.180Z</time>
      </trkpt>
      <trkpt lat="44.93427" lon="6.85531">
        <ele>1731</ele>
        <time>2014-07-31T12:04:51.200Z</time>
      </trkpt>
      <trkpt lat="44.93427" lon="6.85535">
        <ele>1731</ele>
        <time>2014-07-31T12:04:53.180Z</time>
      </trkpt>
      <trkpt lat="44.93428" lon="6.85538">
        <ele>1731</ele>
        <time>2014-07-31T12:04:54.180Z</time>
      </trkpt>
      <trkpt lat="44.93428" lon="6.8554">
        <ele>1732.4</ele>
        <time>2014-07-31T12:04:55.280Z</time>
      </trkpt>
      <trkpt lat="44.93428" lon="6.85544">
        <ele>1733</ele>
        <time>2014-07-31T12:04:57.280Z</time>
      </trkpt>
      <trkpt lat="44.93428" lon="6.85549">
        <ele>1733</ele>
        <time>2014-07-31T12:04:59.180Z</time>
      </trkpt>
      <trkpt lat="44.93429" lon="6.85552">
        <ele>1733</ele>
        <time>2014-07-31T12:05:01.240Z</time>
      </trkpt>
      <trkpt lat="44.93429" lon="6.85555">
        <ele>1733</ele>
        <time>2014-07-31T12:05:03.180Z</time>
      </trkpt>
      <trkpt lat="44.9343" lon="6.85556">
        <ele>1733</ele>
        <time>2014-07-31T12:05:04.280Z</time>
      </trkpt>
      <trkpt lat="44.93432" lon="6.8556">
        <ele>1735</ele>
        <time>2014-07-31T12:05:06.280Z</time>
      </trkpt>
      <trkpt lat="44.93432" lon="6.85564">
        <ele>1735</ele>
        <time>2014-07-31T12:05:08.280Z</time>
      </trkpt>
      <trkpt lat="44.93433" lon="6.85568">
        <ele>1735</ele>
        <time>2014-07-31T12:05:10.280Z</time>
      </trkpt>
      <trkpt lat="44.93433" lon="6.85572">
        <ele>1735</ele>
        <time>2014-07-31T12:05:12.100Z</time>
      </trkpt>
      <trkpt lat="44.93433" lon="6.85575">
        <ele>1735</ele>
        <time>2014-07-31T12:05:13.280Z</time>
      </trkpt>
      <trkpt lat="44.93433" lon="6.85579">
        <ele>1735.7</ele>
        <time>2014-07-31T12:05:15.280Z</time>
      </trkpt>
      <trkpt lat="44.93433" lon="6.85583">
        <ele>1736</ele>
        <time>2014-07-31T12:05:17.140Z</time>
      </trkpt>
      <trkpt lat="44.93434" lon="6.85586">
        <ele>1736</ele>
        <time>2014-07-31T12:05:18.240Z</time>
      </trkpt>
      <trkpt lat="44.93434" lon="6.85588">
        <ele>1736</ele>
        <time>2014-07-31T12:05:19.280Z</time>
      </trkpt>
      <trkpt lat="44.93434" lon="6.85591">
        <ele>1736</ele>
        <time>2014-07-31T12:05:21.280Z</time>
      </trkpt>
      <trkpt lat="44.93435" lon="6.85596">
        <ele>1736</ele>
        <time>2014-07-31T12:05:23.160Z</time>
      </trkpt>
      <trkpt lat="44.93436" lon="6.85599">
        <ele>1736</ele>
        <time>2014-07-31T12:05:24.280Z</time>
      </trkpt>
      <trkpt lat="44.93436" lon="6.85604">
        <ele>1738</ele>
        <time>2014-07-31T12:05:26.280Z</time>
      </trkpt>
      <trkpt lat="44.93437" lon="6.85609">
        <ele>1738</ele>
        <time>2014-07-31T12:05:28.180Z</time>
      </trkpt>
      <trkpt lat="44.93436" lon="6.85614">
        <ele>1738</ele>
        <time>2014-07-31T12:05:30.220Z</time>
      </trkpt>
      <trkpt lat="44.93436" lon="6.85616">
        <ele>1738</ele>
        <time>2014-07-31T12:05:31.180Z</time>
      </trkpt>
      <trkpt lat="44.93437" lon="6.85619">
        <ele>1738</ele>
        <time>2014-07-31T12:05:32.280Z</time>
      </trkpt>
      <trkpt lat="44.93437" lon="6.85624">
        <ele>1738</ele>
        <time>2014-07-31T12:05:34.040Z</time>
      </trkpt>
      <trkpt lat="44.93437" lon="6.85626">
        <ele>1738.7</ele>
        <time>2014-07-31T12:05:35.240Z</time>
      </trkpt>
      <trkpt lat="44.93437" lon="6.85631">
        <ele>1739</ele>
        <time>2014-07-31T12:05:37.280Z</time>
      </trkpt>
      <trkpt lat="44.93437" lon="6.85636">
        <ele>1739</ele>
        <time>2014-07-31T12:05:39.180Z</time>
      </trkpt>
      <trkpt lat="44.93437" lon="6.85638">
        <ele>1739</ele>
        <time>2014-07-31T12:05:40.280Z</time>
      </trkpt>
      <trkpt lat="44.93438" lon="6.85644">
        <ele>1739</ele>
        <time>2014-07-31T12:05:42.280Z</time>
      </trkpt>
      <trkpt lat="44.93438" lon="6.85648">
        <ele>1739</ele>
        <time>2014-07-31T12:05:44.280Z</time>
      </trkpt>
      <trkpt lat="44.93438" lon="6.85652">
        <ele>1741</ele>
        <time>2014-07-31T12:05:46.160Z</time>
      </trkpt>
      <trkpt lat="44.93437" lon="6.85656">
        <ele>1741</ele>
        <time>2014-07-31T12:05:48.280Z</time>
      </trkpt>
      <trkpt lat="44.93435" lon="6.85661">
        <ele>1741</ele>
        <time>2014-07-31T12:05:50.280Z</time>
      </trkpt>
      <trkpt lat="44.93435" lon="6.85665">
        <ele>1741</ele>
        <time>2014-07-31T12:05:52.240Z</time>
      </trkpt>
      <trkpt lat="44.93432" lon="6.85668">
        <ele>1741</ele>
        <time>2014-07-31T12:05:54.280Z</time>
      </trkpt>
      <trkpt lat="44.93431" lon="6.85671">
        <ele>1742.4</ele>
        <time>2014-07-31T12:05:55.280Z</time>
      </trkpt>
      <trkpt lat="44.9343" lon="6.85674">
        <ele>1743</ele>
        <time>2014-07-31T12:05:57.180Z</time>
      </trkpt>
      <trkpt lat="44.9343" lon="6.85676">
        <ele>1743</ele>
        <time>2014-07-31T12:05:58.280Z</time>
      </trkpt>
      <trkpt lat="44.93429" lon="6.8568">
        <ele>1743</ele>
        <time>2014-07-31T12:06:00.140Z</time>
      </trkpt>
      <trkpt lat="44.93428" lon="6.85682">
        <ele>1743</ele>
        <time>2014-07-31T12:06:01.280Z</time>
      </trkpt>
      <trkpt lat="44.93427" lon="6.85686">
        <ele>1743</ele>
        <time>2014-07-31T12:06:03.180Z</time>
      </trkpt>
      <trkpt lat="44.93426" lon="6.85689">
        <ele>1743.7</ele>
        <time>2014-07-31T12:06:05.280Z</time>
      </trkpt>
      <trkpt lat="44.93424" lon="6.85693">
        <ele>1744</ele>
        <time>2014-07-31T12:06:07.360Z</time>
      </trkpt>
      <trkpt lat="44.93422" lon="6.85697">
        <ele>1744</ele>
        <time>2014-07-31T12:06:09.240Z</time>
      </trkpt>
      <trkpt lat="44.93422" lon="6.857">
        <ele>1744</ele>
        <time>2014-07-31T12:06:11.280Z</time>
      </trkpt>
      <trkpt lat="44.9342" lon="6.85702">
        <ele>1744</ele>
        <time>2014-07-31T12:06:13.180Z</time>
      </trkpt>
      <trkpt lat="44.93419" lon="6.85704">
        <ele>1744</ele>
        <time>2014-07-31T12:06:14.280Z</time>
      </trkpt>
      <trkpt lat="44.93417" lon="6.85707">
        <ele>1745</ele>
        <time>2014-07-31T12:06:16.280Z</time>
      </trkpt>
      <trkpt lat="44.93416" lon="6.85711">
        <ele>1745</ele>
        <time>2014-07-31T12:06:18.280Z</time>
      </trkpt>
      <trkpt lat="44.93415" lon="6.85716">
        <ele>1745</ele>
        <time>2014-07-31T12:06:20.280Z</time>
      </trkpt>
      <trkpt lat="44.93413" lon="6.85719">
        <ele>1745</ele>
        <time>2014-07-31T12:06:22.180Z</time>
      </trkpt>
      <trkpt lat="44.93413" lon="6.85721">
        <ele>1745</ele>
        <time>2014-07-31T12:06:23.280Z</time>
      </trkpt>
      <trkpt lat="44.93411" lon="6.85726">
        <ele>1746.4</ele>
        <time>2014-07-31T12:06:25.280Z</time>
      </trkpt>
      <trkpt lat="44.9341" lon="6.8573">
        <ele>1747</ele>
        <time>2014-07-31T12:06:27.280Z</time>
      </trkpt>
      <trkpt lat="44.93409" lon="6.85733">
        <ele>1747</ele>
        <time>2014-07-31T12:06:29.180Z</time>
      </trkpt>
      <trkpt lat="44.93408" lon="6.85736">
        <ele>1747</ele>
        <time>2014-07-31T12:06:31.280Z</time>
      </trkpt>
      <trkpt lat="44.93407" lon="6.85739">
        <ele>1747</ele>
        <time>2014-07-31T12:06:32.280Z</time>
      </trkpt>
      <trkpt lat="44.93405" lon="6.85744">
        <ele>1747</ele>
        <time>2014-07-31T12:06:34.240Z</time>
      </trkpt>
      <trkpt lat="44.93403" lon="6.85747">
        <ele>1749</ele>
        <time>2014-07-31T12:06:36.280Z</time>
      </trkpt>
      <trkpt lat="44.93401" lon="6.85751">
        <ele>1749</ele>
        <time>2014-07-31T12:06:38.180Z</time>
      </trkpt>
      <trkpt lat="44.93401" lon="6.85754">
        <ele>1749</ele>
        <time>2014-07-31T12:06:39.280Z</time>
      </trkpt>
      <trkpt lat="44.934" lon="6.85758">
        <ele>1749</ele>
        <time>2014-07-31T12:06:41.280Z</time>
      </trkpt>
      <trkpt lat="44.93399" lon="6.85762">
        <ele>1749</ele>
        <time>2014-07-31T12:06:43.140Z</time>
      </trkpt>
      <trkpt lat="44.93399" lon="6.85765">
        <ele>1749</ele>
        <time>2014-07-31T12:06:44.280Z</time>
      </trkpt>
      <trkpt lat="44.93399" lon="6.85769">
        <ele>1750</ele>
        <time>2014-07-31T12:06:46.280Z</time>
      </trkpt>
      <trkpt lat="44.934" lon="6.85773">
        <ele>1750</ele>
        <time>2014-07-31T12:06:48.280Z</time>
      </trkpt>
      <trkpt lat="44.93399" lon="6.85778">
        <ele>1750</ele>
        <time>2014-07-31T12:06:50.280Z</time>
      </trkpt>
      <trkpt lat="44.934" lon="6.85782">
        <ele>1750</ele>
        <time>2014-07-31T12:06:52.280Z</time>
      </trkpt>
      <trkpt lat="44.934" lon="6.85786">
        <ele>1750</ele>
        <time>2014-07-31T12:06:54.180Z</time>
      </trkpt>
      <trkpt lat="44.934" lon="6.85788">
        <ele>1751.4</ele>
        <time>2014-07-31T12:06:55.260Z</time>
      </trkpt>
      <trkpt lat="44.93399" lon="6.85793">
        <ele>1752</ele>
        <time>2014-07-31T12:06:57.280Z</time>
      </trkpt>
      <trkpt lat="44.93399" lon="6.85797">
        <ele>1752</ele>
        <time>2014-07-31T12:06:59.180Z</time>
      </trkpt>
      <trkpt lat="44.93399" lon="6.85799">
        <ele>1752</ele>
        <time>2014-07-31T12:07:00.260Z</time>
      </trkpt>
      <trkpt lat="44.93399" lon="6.85801">
        <ele>1752</ele>
        <time>2014-07-31T12:07:01.280Z</time>
      </trkpt>
      <trkpt lat="44.934" lon="6.85805">
        <ele>1752</ele>
        <time>2014-07-31T12:07:03.180Z</time>
      </trkpt>
      <trkpt lat="44.934" lon="6.85807">
        <ele>1752</ele>
        <time>2014-07-31T12:07:04.280Z</time>
      </trkpt>
      <trkpt lat="44.934" lon="6.85811">
        <ele>1753</ele>
        <time>2014-07-31T12:07:06.280Z</time>
      </trkpt>
      <trkpt lat="44.934" lon="6.85814">
        <ele>1753</ele>
        <time>2014-07-31T12:07:08.280Z</time>
      </trkpt>
      <trkpt lat="44.934" lon="6.85818">
        <ele>1753</ele>
        <time>2014-07-31T12:07:10.280Z</time>
      </trkpt>
      <trkpt lat="44.934" lon="6.85822">
        <ele>1753</ele>
        <time>2014-07-31T12:07:12.180Z</time>
      </trkpt>
      <trkpt lat="44.93401" lon="6.85824">
        <ele>1753</ele>
        <time>2014-07-31T12:07:13.280Z</time>
      </trkpt>
      <trkpt lat="44.93401" lon="6.85829">
        <ele>1753.7</ele>
        <time>2014-07-31T12:07:15.280Z</time>
      </trkpt>
      <trkpt lat="44.93402" lon="6.85834">
        <ele>1754</ele>
        <time>2014-07-31T12:07:17.160Z</time>
      </trkpt>
      <trkpt lat="44.93402" lon="6.85836">
        <ele>1754</ele>
        <time>2014-07-31T12:07:18.280Z</time>
      </trkpt>
      <trkpt lat="44.93401" lon="6.85841">
        <ele>1754</ele>
        <time>2014-07-31T12:07:20.180Z</time>
      </trkpt>
      <trkpt lat="44.934" lon="6.85846">
        <ele>1754</ele>
        <time>2014-07-31T12:07:22.180Z</time>
      </trkpt>
      <trkpt lat="44.934" lon="6.85848">
        <ele>1754</ele>
        <time>2014-07-31T12:07:23.280Z</time>
      </trkpt>
      <trkpt lat="44.934" lon="6.85852">
        <ele>1755.4</ele>
        <time>2014-07-31T12:07:25.280Z</time>
      </trkpt>
      <trkpt lat="44.93399" lon="6.85857">
        <ele>1756</ele>
        <time>2014-07-31T12:07:27.280Z</time>
      </trkpt>
      <trkpt lat="44.93397" lon="6.85861">
        <ele>1756</ele>
        <time>2014-07-31T12:07:29.280Z</time>
      </trkpt>
      <trkpt lat="44.93395" lon="6.85867">
        <ele>1756</ele>
        <time>2014-07-31T12:07:31.280Z</time>
      </trkpt>
      <trkpt lat="44.93393" lon="6.8587">
        <ele>1756</ele>
        <time>2014-07-31T12:07:33.180Z</time>
      </trkpt>
      <trkpt lat="44.93392" lon="6.85872">
        <ele>1756</ele>
        <time>2014-07-31T12:07:34.260Z</time>
      </trkpt>
      <trkpt lat="44.9339" lon="6.85876">
        <ele>1757</ele>
        <time>2014-07-31T12:07:36.280Z</time>
      </trkpt>
      <trkpt lat="44.93389" lon="6.8588">
        <ele>1757</ele>
        <time>2014-07-31T12:07:38.280Z</time>
      </trkpt>
      <trkpt lat="44.93387" lon="6.85885">
        <ele>1757</ele>
        <time>2014-07-31T12:07:40.180Z</time>
      </trkpt>
      <trkpt lat="44.9339" lon="6.85888">
        <ele>1757</ele>
        <time>2014-07-31T12:07:41.280Z</time>
      </trkpt>
      <trkpt lat="44.9339" lon="6.85892">
        <ele>1757</ele>
        <time>2014-07-31T12:07:43.280Z</time>
      </trkpt>
      <trkpt lat="44.93389" lon="6.85895">
        <ele>1757.6</ele>
        <time>2014-07-31T12:07:45.180Z</time>
      </trkpt>
      <trkpt lat="44.93388" lon="6.85899">
        <ele>1758</ele>
        <time>2014-07-31T12:07:47.180Z</time>
      </trkpt>
      <trkpt lat="44.93387" lon="6.85903">
        <ele>1758</ele>
        <time>2014-07-31T12:07:49.280Z</time>
      </trkpt>
      <trkpt lat="44.93385" lon="6.85908">
        <ele>1758</ele>
        <time>2014-07-31T12:07:51.120Z</time>
      </trkpt>
      <trkpt lat="44.93383" lon="6.85911">
        <ele>1758</ele>
        <time>2014-07-31T12:07:53.280Z</time>
      </trkpt>
      <trkpt lat="44.93381" lon="6.85914">
        <ele>1759.4</ele>
        <time>2014-07-31T12:07:55.280Z</time>
      </trkpt>
      <trkpt lat="44.93378" lon="6.85917">
        <ele>1760</ele>
        <time>2014-07-31T12:07:57.280Z</time>
      </trkpt>
      <trkpt lat="44.93374" lon="6.85919">
        <ele>1760</ele>
        <time>2014-07-31T12:07:59.380Z</time>
      </trkpt>
      <trkpt lat="44.93371" lon="6.85922">
        <ele>1760</ele>
        <time>2014-07-31T12:08:01.180Z</time>
      </trkpt>
      <trkpt lat="44.9337" lon="6.85923">
        <ele>1760</ele>
        <time>2014-07-31T12:08:02.280Z</time>
      </trkpt>
      <trkpt lat="44.93368" lon="6.85927">
        <ele>1760</ele>
        <time>2014-07-31T12:08:04.180Z</time>
      </trkpt>
      <trkpt lat="44.93366" lon="6.8593">
        <ele>1762</ele>
        <time>2014-07-31T12:08:06.280Z</time>
      </trkpt>
      <trkpt lat="44.93364" lon="6.85933">
        <ele>1762</ele>
        <time>2014-07-31T12:08:08.120Z</time>
      </trkpt>
      <trkpt lat="44.93362" lon="6.85937">
        <ele>1762</ele>
        <time>2014-07-31T12:08:10.180Z</time>
      </trkpt>
      <trkpt lat="44.93362" lon="6.85939">
        <ele>1762</ele>
        <time>2014-07-31T12:08:11.280Z</time>
      </trkpt>
      <trkpt lat="44.9336" lon="6.85942">
        <ele>1762</ele>
        <time>2014-07-31T12:08:13.280Z</time>
      </trkpt>
      <trkpt lat="44.93358" lon="6.85944">
        <ele>1763.2</ele>
        <time>2014-07-31T12:08:15.180Z</time>
      </trkpt>
      <trkpt lat="44.93357" lon="6.85948">
        <ele>1764</ele>
        <time>2014-07-31T12:08:17.240Z</time>
      </trkpt>
      <trkpt lat="44.93356" lon="6.85951">
        <ele>1764</ele>
        <time>2014-07-31T12:08:19.280Z</time>
      </trkpt>
      <trkpt lat="44.93355" lon="6.85955">
        <ele>1764</ele>
        <time>2014-07-31T12:08:21.280Z</time>
      </trkpt>
      <trkpt lat="44.93354" lon="6.85959">
        <ele>1764</ele>
        <time>2014-07-31T12:08:23.230Z</time>
      </trkpt>
      <trkpt lat="44.93353" lon="6.85961">
        <ele>1764</ele>
        <time>2014-07-31T12:08:24.260Z</time>
      </trkpt>
      <trkpt lat="44.93352" lon="6.85965">
        <ele>1766</ele>
        <time>2014-07-31T12:08:26.180Z</time>
      </trkpt>
      <trkpt lat="44.93351" lon="6.85967">
        <ele>1766</ele>
        <time>2014-07-31T12:08:27.280Z</time>
      </trkpt>
      <trkpt lat="44.9335" lon="6.85971">
        <ele>1766</ele>
        <time>2014-07-31T12:08:29.280Z</time>
      </trkpt>
      <trkpt lat="44.93349" lon="6.85975">
        <ele>1766</ele>
        <time>2014-07-31T12:08:31.280Z</time>
      </trkpt>
      <trkpt lat="44.93347" lon="6.85979">
        <ele>1766</ele>
        <time>2014-07-31T12:08:33.280Z</time>
      </trkpt>
      <trkpt lat="44.93345" lon="6.85983">
        <ele>1766.6</ele>
        <time>2014-07-31T12:08:35.180Z</time>
      </trkpt>
      <trkpt lat="44.93345" lon="6.85984">
        <ele>1767</ele>
        <time>2014-07-31T12:08:36.200Z</time>
      </trkpt>
      <trkpt lat="44.93344" lon="6.85988">
        <ele>1767</ele>
        <time>2014-07-31T12:08:38.280Z</time>
      </trkpt>
      <trkpt lat="44.93342" lon="6.85991">
        <ele>1767</ele>
        <time>2014-07-31T12:08:40.180Z</time>
      </trkpt>
      <trkpt lat="44.9334" lon="6.85995">
        <ele>1767</ele>
        <time>2014-07-31T12:08:42.240Z</time>
      </trkpt>
      <trkpt lat="44.93337" lon="6.85999">
        <ele>1767</ele>
        <time>2014-07-31T12:08:44.280Z</time>
      </trkpt>
      <trkpt lat="44.93335" lon="6.86003">
        <ele>1769</ele>
        <time>2014-07-31T12:08:46.280Z</time>
      </trkpt>
      <trkpt lat="44.93333" lon="6.86005">
        <ele>1769</ele>
        <time>2014-07-31T12:08:48.160Z</time>
      </trkpt>
      <trkpt lat="44.93332" lon="6.86009">
        <ele>1769</ele>
        <time>2014-07-31T12:08:50.180Z</time>
      </trkpt>
      <trkpt lat="44.93332" lon="6.86011">
        <ele>1769</ele>
        <time>2014-07-31T12:08:51.240Z</time>
      </trkpt>
      <trkpt lat="44.93331" lon="6.86015">
        <ele>1769</ele>
        <time>2014-07-31T12:08:53.180Z</time>
      </trkpt>
      <trkpt lat="44.9333" lon="6.86019">
        <ele>1769.6</ele>
        <time>2014-07-31T12:08:55.180Z</time>
      </trkpt>
      <trkpt lat="44.93328" lon="6.86024">
        <ele>1770</ele>
        <time>2014-07-31T12:08:57.280Z</time>
      </trkpt>
      <trkpt lat="44.93328" lon="6.86029">
        <ele>1770</ele>
        <time>2014-07-31T12:08:59.240Z</time>
      </trkpt>
      <trkpt lat="44.93327" lon="6.86035">
        <ele>1770</ele>
        <time>2014-07-31T12:09:01.280Z</time>
      </trkpt>
      <trkpt lat="44.93327" lon="6.86037">
        <ele>1770</ele>
        <time>2014-07-31T12:09:02.280Z</time>
      </trkpt>
      <trkpt lat="44.93327" lon="6.86042">
        <ele>1770</ele>
        <time>2014-07-31T12:09:04.180Z</time>
      </trkpt>
      <trkpt lat="44.93327" lon="6.86044">
        <ele>1770.7</ele>
        <time>2014-07-31T12:09:05.280Z</time>
      </trkpt>
      <trkpt lat="44.93326" lon="6.86048">
        <ele>1771</ele>
        <time>2014-07-31T12:09:07.280Z</time>
      </trkpt>
      <trkpt lat="44.93325" lon="6.86053">
        <ele>1771</ele>
        <time>2014-07-31T12:09:09.180Z</time>
      </trkpt>
      <trkpt lat="44.93325" lon="6.86054">
        <ele>1771</ele>
        <time>2014-07-31T12:09:10.280Z</time>
      </trkpt>
      <trkpt lat="44.93324" lon="6.86058">
        <ele>1771</ele>
        <time>2014-07-31T12:09:12.180Z</time>
      </trkpt>
      <trkpt lat="44.93322" lon="6.86061">
        <ele>1771</ele>
        <time>2014-07-31T12:09:14.180Z</time>
      </trkpt>
      <trkpt lat="44.93321" lon="6.86065">
        <ele>1773</ele>
        <time>2014-07-31T12:09:16.180Z</time>
      </trkpt>
      <trkpt lat="44.9332" lon="6.86069">
        <ele>1773</ele>
        <time>2014-07-31T12:09:18.280Z</time>
      </trkpt>
      <trkpt lat="44.93319" lon="6.86073">
        <ele>1773</ele>
        <time>2014-07-31T12:09:20.280Z</time>
      </trkpt>
      <trkpt lat="44.93318" lon="6.86078">
        <ele>1773</ele>
        <time>2014-07-31T12:09:22.180Z</time>
      </trkpt>
      <trkpt lat="44.93318" lon="6.8608">
        <ele>1773</ele>
        <time>2014-07-31T12:09:23.260Z</time>
      </trkpt>
      <trkpt lat="44.93317" lon="6.86085">
        <ele>1774.4</ele>
        <time>2014-07-31T12:09:25.280Z</time>
      </trkpt>
      <trkpt lat="44.93317" lon="6.86089">
        <ele>1775</ele>
        <time>2014-07-31T12:09:27.280Z</time>
      </trkpt>
      <trkpt lat="44.93315" lon="6.86093">
        <ele>1775</ele>
        <time>2014-07-31T12:09:29.280Z</time>
      </trkpt>
      <trkpt lat="44.93315" lon="6.86097">
        <ele>1775</ele>
        <time>2014-07-31T12:09:31.180Z</time>
      </trkpt>
      <trkpt lat="44.93314" lon="6.86102">
        <ele>1775</ele>
        <time>2014-07-31T12:09:33.240Z</time>
      </trkpt>
      <trkpt lat="44.93314" lon="6.86106">
        <ele>1775.6</ele>
        <time>2014-07-31T12:09:35.180Z</time>
      </trkpt>
      <trkpt lat="44.93314" lon="6.86111">
        <ele>1776</ele>
        <time>2014-07-31T12:09:37.180Z</time>
      </trkpt>
      <trkpt lat="44.93313" lon="6.86115">
        <ele>1776</ele>
        <time>2014-07-31T12:09:39.280Z</time>
      </trkpt>
      <trkpt lat="44.93312" lon="6.8612">
        <ele>1776</ele>
        <time>2014-07-31T12:09:41.280Z</time>
      </trkpt>
      <trkpt lat="44.93312" lon="6.86124">
        <ele>1776</ele>
        <time>2014-07-31T12:09:43.280Z</time>
      </trkpt>
      <trkpt lat="44.93311" lon="6.86128">
        <ele>1776.7</ele>
        <time>2014-07-31T12:09:45.280Z</time>
      </trkpt>
      <trkpt lat="44.93309" lon="6.86132">
        <ele>1777</ele>
        <time>2014-07-31T12:09:47.180Z</time>
      </trkpt>
      <trkpt lat="44.93309" lon="6.86135">
        <ele>1777</ele>
        <time>2014-07-31T12:09:48.280Z</time>
      </trkpt>
      <trkpt lat="44.93309" lon="6.86137">
        <ele>1777</ele>
        <time>2014-07-31T12:09:49.280Z</time>
      </trkpt>
      <trkpt lat="44.93309" lon="6.86142">
        <ele>1777</ele>
        <time>2014-07-31T12:09:51.240Z</time>
      </trkpt>
      <trkpt lat="44.93308" lon="6.86146">
        <ele>1777</ele>
        <time>2014-07-31T12:09:53.280Z</time>
      </trkpt>
      <trkpt lat="44.93308" lon="6.8615">
        <ele>1777.7</ele>
        <time>2014-07-31T12:09:55.280Z</time>
      </trkpt>
      <trkpt lat="44.93309" lon="6.86154">
        <ele>1778</ele>
        <time>2014-07-31T12:09:57.180Z</time>
      </trkpt>
      <trkpt lat="44.93309" lon="6.86156">
        <ele>1778</ele>
        <time>2014-07-31T12:09:58.260Z</time>
      </trkpt>
      <trkpt lat="44.93311" lon="6.8616">
        <ele>1778</ele>
        <time>2014-07-31T12:10:00.200Z</time>
      </trkpt>
      <trkpt lat="44.93312" lon="6.86162">
        <ele>1778</ele>
        <time>2014-07-31T12:10:01.180Z</time>
      </trkpt>
      <trkpt lat="44.93313" lon="6.86165">
        <ele>1778</ele>
        <time>2014-07-31T12:10:03.180Z</time>
      </trkpt>
      <trkpt lat="44.93314" lon="6.86167">
        <ele>1778</ele>
        <time>2014-07-31T12:10:04.280Z</time>
      </trkpt>
      <trkpt lat="44.93315" lon="6.86171">
        <ele>1780</ele>
        <time>2014-07-31T12:10:06.280Z</time>
      </trkpt>
      <trkpt lat="44.93316" lon="6.86174">
        <ele>1780</ele>
        <time>2014-07-31T12:10:08.180Z</time>
      </trkpt>
      <trkpt lat="44.93318" lon="6.86177">
        <ele>1780</ele>
        <time>2014-07-31T12:10:10.180Z</time>
      </trkpt>
      <trkpt lat="44.9332" lon="6.86181">
        <ele>1780</ele>
        <time>2014-07-31T12:10:12.180Z</time>
      </trkpt>
      <trkpt lat="44.93321" lon="6.86183">
        <ele>1780</ele>
        <time>2014-07-31T12:10:13.380Z</time>
      </trkpt>
      <trkpt lat="44.93324" lon="6.86188">
        <ele>1782.1</ele>
        <time>2014-07-31T12:10:15.280Z</time>
      </trkpt>
      <trkpt lat="44.93324" lon="6.86194">
        <ele>1783</ele>
        <time>2014-07-31T12:10:17.140Z</time>
      </trkpt>
      <trkpt lat="44.93325" lon="6.86196">
        <ele>1783</ele>
        <time>2014-07-31T12:10:18.280Z</time>
      </trkpt>
      <trkpt lat="44.93325" lon="6.86201">
        <ele>1783.7</ele>
        <time>2014-07-31T12:10:20.280Z</time>
      </trkpt>
      <trkpt lat="44.93324" lon="6.86204">
        <ele>1784</ele>
        <time>2014-07-31T12:10:22.280Z</time>
      </trkpt>
      <trkpt lat="44.93322" lon="6.86206">
        <ele>1784</ele>
        <time>2014-07-31T12:10:24.240Z</time>
      </trkpt>
      <trkpt lat="44.9332" lon="6.86209">
        <ele>1784</ele>
        <time>2014-07-31T12:10:26.180Z</time>
      </trkpt>
      <trkpt lat="44.93317" lon="6.86211">
        <ele>1784</ele>
        <time>2014-07-31T12:10:28.280Z</time>
      </trkpt>
      <trkpt lat="44.93314" lon="6.86213">
        <ele>1784</ele>
        <time>2014-07-31T12:10:30.180Z</time>
      </trkpt>
      <trkpt lat="44.93312" lon="6.86216">
        <ele>1784</ele>
        <time>2014-07-31T12:10:32.180Z</time>
      </trkpt>
      <trkpt lat="44.9331" lon="6.86217">
        <ele>1784</ele>
        <time>2014-07-31T12:10:33.280Z</time>
      </trkpt>
      <trkpt lat="44.93307" lon="6.8622">
        <ele>1785.4</ele>
        <time>2014-07-31T12:10:35.280Z</time>
      </trkpt>
      <trkpt lat="44.93305" lon="6.86222">
        <ele>1786</ele>
        <time>2014-07-31T12:10:37.280Z</time>
      </trkpt>
      <trkpt lat="44.93303" lon="6.86225">
        <ele>1786</ele>
        <time>2014-07-31T12:10:39.180Z</time>
      </trkpt>
      <trkpt lat="44.933" lon="6.86228">
        <ele>1786</ele>
        <time>2014-07-31T12:10:41.240Z</time>
      </trkpt>
      <trkpt lat="44.93298" lon="6.86229">
        <ele>1786</ele>
        <time>2014-07-31T12:10:43.180Z</time>
      </trkpt>
      <trkpt lat="44.93296" lon="6.86231">
        <ele>1787.2</ele>
        <time>2014-07-31T12:10:45.180Z</time>
      </trkpt>
      <trkpt lat="44.93293" lon="6.86234">
        <ele>1788</ele>
        <time>2014-07-31T12:10:47.280Z</time>
      </trkpt>
      <trkpt lat="44.93292" lon="6.86237">
        <ele>1788</ele>
        <time>2014-07-31T12:10:49.280Z</time>
      </trkpt>
      <trkpt lat="44.93291" lon="6.86238">
        <ele>1788</ele>
        <time>2014-07-31T12:10:50.280Z</time>
      </trkpt>
      <trkpt lat="44.93288" lon="6.86241">
        <ele>1788</ele>
        <time>2014-07-31T12:10:52.180Z</time>
      </trkpt>
      <trkpt lat="44.93284" lon="6.86244">
        <ele>1788</ele>
        <time>2014-07-31T12:10:54.260Z</time>
      </trkpt>
      <trkpt lat="44.9328" lon="6.86246">
        <ele>1790</ele>
        <time>2014-07-31T12:10:56.180Z</time>
      </trkpt>
      <trkpt lat="44.93277" lon="6.86248">
        <ele>1790</ele>
        <time>2014-07-31T12:10:58.240Z</time>
      </trkpt>
      <trkpt lat="44.93274" lon="6.8625">
        <ele>1790</ele>
        <time>2014-07-31T12:11:00.180Z</time>
      </trkpt>
      <trkpt lat="44.93272" lon="6.8625">
        <ele>1790</ele>
        <time>2014-07-31T12:11:01.280Z</time>
      </trkpt>
      <trkpt lat="44.9327" lon="6.86251">
        <ele>1790</ele>
        <time>2014-07-31T12:11:02.280Z</time>
      </trkpt>
      <trkpt lat="44.93267" lon="6.86254">
        <ele>1790</ele>
        <time>2014-07-31T12:11:04.180Z</time>
      </trkpt>
      <trkpt lat="44.93264" lon="6.86256">
        <ele>1791</ele>
        <time>2014-07-31T12:11:06.180Z</time>
      </trkpt>
      <trkpt lat="44.93261" lon="6.86257">
        <ele>1791</ele>
        <time>2014-07-31T12:11:08.280Z</time>
      </trkpt>
      <trkpt lat="44.93256" lon="6.86259">
        <ele>1791</ele>
        <time>2014-07-31T12:11:10.280Z</time>
      </trkpt>
      <trkpt lat="44.93252" lon="6.86258">
        <ele>1791</ele>
        <time>2014-07-31T12:11:12.280Z</time>
      </trkpt>
      <trkpt lat="44.93247" lon="6.86258">
        <ele>1791</ele>
        <time>2014-07-31T12:11:14.380Z</time>
      </trkpt>
      <trkpt lat="44.93244" lon="6.86258">
        <ele>1793</ele>
        <time>2014-07-31T12:11:16.260Z</time>
      </trkpt>
      <trkpt lat="44.93241" lon="6.86258">
        <ele>1793</ele>
        <time>2014-07-31T12:11:18.180Z</time>
      </trkpt>
      <trkpt lat="44.93237" lon="6.8626">
        <ele>1793</ele>
        <time>2014-07-31T12:11:20.180Z</time>
      </trkpt>
      <trkpt lat="44.93235" lon="6.86262">
        <ele>1793</ele>
        <time>2014-07-31T12:11:21.280Z</time>
      </trkpt>
      <trkpt lat="44.93231" lon="6.86265">
        <ele>1793</ele>
        <time>2014-07-31T12:11:23.180Z</time>
      </trkpt>
      <trkpt lat="44.93229" lon="6.86268">
        <ele>1794.2</ele>
        <time>2014-07-31T12:11:25.180Z</time>
      </trkpt>
      <trkpt lat="44.93228" lon="6.86269">
        <ele>1795</ele>
        <time>2014-07-31T12:11:26.280Z</time>
      </trkpt>
      <trkpt lat="44.93226" lon="6.86272">
        <ele>1795</ele>
        <time>2014-07-31T12:11:28.260Z</time>
      </trkpt>
      <trkpt lat="44.93225" lon="6.86275">
        <ele>1795</ele>
        <time>2014-07-31T12:11:30.280Z</time>
      </trkpt>
      <trkpt lat="44.93222" lon="6.86279">
        <ele>1795</ele>
        <time>2014-07-31T12:11:32.140Z</time>
      </trkpt>
      <trkpt lat="44.93221" lon="6.8628">
        <ele>1795</ele>
        <time>2014-07-31T12:11:33.280Z</time>
      </trkpt>
      <trkpt lat="44.93219" lon="6.86284">
        <ele>1795</ele>
        <time>2014-07-31T12:11:35.180Z</time>
      </trkpt>
      <trkpt lat="44.93218" lon="6.86288">
        <ele>1795</ele>
        <time>2014-07-31T12:11:37.180Z</time>
      </trkpt>
      <trkpt lat="44.93217" lon="6.8629">
        <ele>1795</ele>
        <time>2014-07-31T12:11:38.280Z</time>
      </trkpt>
      <trkpt lat="44.93216" lon="6.86292">
        <ele>1795</ele>
        <time>2014-07-31T12:11:39.280Z</time>
      </trkpt>
      <trkpt lat="44.93215" lon="6.86297">
        <ele>1795</ele>
        <time>2014-07-31T12:11:41.180Z</time>
      </trkpt>
      <trkpt lat="44.93213" lon="6.863">
        <ele>1795</ele>
        <time>2014-07-31T12:11:43.180Z</time>
      </trkpt>
      <trkpt lat="44.93211" lon="6.86304">
        <ele>1796.2</ele>
        <time>2014-07-31T12:11:45.180Z</time>
      </trkpt>
      <trkpt lat="44.9321" lon="6.86306">
        <ele>1797</ele>
        <time>2014-07-31T12:11:46.280Z</time>
      </trkpt>
      <trkpt lat="44.93208" lon="6.86309">
        <ele>1797</ele>
        <time>2014-07-31T12:11:48.280Z</time>
      </trkpt>
      <trkpt lat="44.93206" lon="6.86313">
        <ele>1797</ele>
        <time>2014-07-31T12:11:50.280Z</time>
      </trkpt>
      <trkpt lat="44.93203" lon="6.86315">
        <ele>1797</ele>
        <time>2014-07-31T12:11:52.260Z</time>
      </trkpt>
      <trkpt lat="44.932" lon="6.86317">
        <ele>1797</ele>
        <time>2014-07-31T12:11:54.280Z</time>
      </trkpt>
      <trkpt lat="44.93196" lon="6.86318">
        <ele>1799</ele>
        <time>2014-07-31T12:11:56.280Z</time>
      </trkpt>
      <trkpt lat="44.93192" lon="6.8632">
        <ele>1799</ele>
        <time>2014-07-31T12:11:58.280Z</time>
      </trkpt>
      <trkpt lat="44.93188" lon="6.86321">
        <ele>1799</ele>
        <time>2014-07-31T12:12:00.170Z</time>
      </trkpt>
      <trkpt lat="44.93186" lon="6.86321">
        <ele>1799</ele>
        <time>2014-07-31T12:12:01.280Z</time>
      </trkpt>
      <trkpt lat="44.93185" lon="6.86321">
        <ele>1799</ele>
        <time>2014-07-31T12:12:02.380Z</time>
      </trkpt>
      <trkpt lat="44.93182" lon="6.86322">
        <ele>1799</ele>
        <time>2014-07-31T12:12:04.280Z</time>
      </trkpt>
      <trkpt lat="44.93178" lon="6.86323">
        <ele>1800</ele>
        <time>2014-07-31T12:12:06.140Z</time>
      </trkpt>
      <trkpt lat="44.93174" lon="6.86324">
        <ele>1800</ele>
        <time>2014-07-31T12:12:08.280Z</time>
      </trkpt>
      <trkpt lat="44.93171" lon="6.86326">
        <ele>1800</ele>
        <time>2014-07-31T12:12:10.280Z</time>
      </trkpt>
      <trkpt lat="44.93169" lon="6.86329">
        <ele>1800</ele>
        <time>2014-07-31T12:12:12.280Z</time>
      </trkpt>
      <trkpt lat="44.93166" lon="6.86332">
        <ele>1800</ele>
        <time>2014-07-31T12:12:14.180Z</time>
      </trkpt>
      <trkpt lat="44.93165" lon="6.86333">
        <ele>1801.4</ele>
        <time>2014-07-31T12:12:15.280Z</time>
      </trkpt>
      <trkpt lat="44.93162" lon="6.86336">
        <ele>1802</ele>
        <time>2014-07-31T12:12:17.140Z</time>
      </trkpt>
      <trkpt lat="44.9316" lon="6.86337">
        <ele>1802</ele>
        <time>2014-07-31T12:12:18.280Z</time>
      </trkpt>
      <trkpt lat="44.93157" lon="6.86339">
        <ele>1802</ele>
        <time>2014-07-31T12:12:20.280Z</time>
      </trkpt>
      <trkpt lat="44.93153" lon="6.86341">
        <ele>1802</ele>
        <time>2014-07-31T12:12:22.280Z</time>
      </trkpt>
      <trkpt lat="44.9315" lon="6.86341">
        <ele>1802</ele>
        <time>2014-07-31T12:12:24.280Z</time>
      </trkpt>
      <trkpt lat="44.93146" lon="6.8634">
        <ele>1804</ele>
        <time>2014-07-31T12:12:26.280Z</time>
      </trkpt>
      <trkpt lat="44.93142" lon="6.86341">
        <ele>1804</ele>
        <time>2014-07-31T12:12:28.160Z</time>
      </trkpt>
      <trkpt lat="44.93138" lon="6.8634">
        <ele>1804</ele>
        <time>2014-07-31T12:12:30.180Z</time>
      </trkpt>
      <trkpt lat="44.93136" lon="6.8634">
        <ele>1804</ele>
        <time>2014-07-31T12:12:31.280Z</time>
      </trkpt>
      <trkpt lat="44.93133" lon="6.86341">
        <ele>1804</ele>
        <time>2014-07-31T12:12:33.180Z</time>
      </trkpt>
      <trkpt lat="44.93131" lon="6.86341">
        <ele>1804</ele>
        <time>2014-07-31T12:12:34.240Z</time>
      </trkpt>
      <trkpt lat="44.93128" lon="6.86342">
        <ele>1805</ele>
        <time>2014-07-31T12:12:36.180Z</time>
      </trkpt>
      <trkpt lat="44.93125" lon="6.86344">
        <ele>1805</ele>
        <time>2014-07-31T12:12:38.280Z</time>
      </trkpt>
      <trkpt lat="44.93122" lon="6.86345">
        <ele>1805</ele>
        <time>2014-07-31T12:12:40.110Z</time>
      </trkpt>
      <trkpt lat="44.93119" lon="6.86347">
        <ele>1805</ele>
        <time>2014-07-31T12:12:42.180Z</time>
      </trkpt>
      <trkpt lat="44.93117" lon="6.86348">
        <ele>1805</ele>
        <time>2014-07-31T12:12:43.280Z</time>
      </trkpt>
      <trkpt lat="44.93114" lon="6.8635">
        <ele>1805.7</ele>
        <time>2014-07-31T12:12:45.280Z</time>
      </trkpt>
      <trkpt lat="44.93111" lon="6.86353">
        <ele>1806</ele>
        <time>2014-07-31T12:12:47.280Z</time>
      </trkpt>
      <trkpt lat="44.93107" lon="6.86354">
        <ele>1806</ele>
        <time>2014-07-31T12:12:49.280Z</time>
      </trkpt>
      <trkpt lat="44.93103" lon="6.86356">
        <ele>1806</ele>
        <time>2014-07-31T12:12:51.210Z</time>
      </trkpt>
      <trkpt lat="44.93102" lon="6.86357">
        <ele>1806</ele>
        <time>2014-07-31T12:12:52.200Z</time>
      </trkpt>
      <trkpt lat="44.93099" lon="6.86359">
        <ele>1806</ele>
        <time>2014-07-31T12:12:54.180Z</time>
      </trkpt>
      <trkpt lat="44.93096" lon="6.86361">
        <ele>1808</ele>
        <time>2014-07-31T12:12:56.280Z</time>
      </trkpt>
      <trkpt lat="44.93093" lon="6.86364">
        <ele>1808</ele>
        <time>2014-07-31T12:12:58.280Z</time>
      </trkpt>
      <trkpt lat="44.9309" lon="6.86368">
        <ele>1808</ele>
        <time>2014-07-31T12:13:00.140Z</time>
      </trkpt>
      <trkpt lat="44.93089" lon="6.86369">
        <ele>1808</ele>
        <time>2014-07-31T12:13:01.280Z</time>
      </trkpt>
      <trkpt lat="44.93086" lon="6.86372">
        <ele>1808</ele>
        <time>2014-07-31T12:13:03.180Z</time>
      </trkpt>
      <trkpt lat="44.93085" lon="6.86373">
        <ele>1808</ele>
        <time>2014-07-31T12:13:04.280Z</time>
      </trkpt>
      <trkpt lat="44.93081" lon="6.86375">
        <ele>1811</ele>
        <time>2014-07-31T12:13:06.280Z</time>
      </trkpt>
      <trkpt lat="44.93079" lon="6.86377">
        <ele>1811</ele>
        <time>2014-07-31T12:13:08.180Z</time>
      </trkpt>
      <trkpt lat="44.93078" lon="6.86378">
        <ele>1811</ele>
        <time>2014-07-31T12:13:09.280Z</time>
      </trkpt>
      <trkpt lat="44.93076" lon="6.8638">
        <ele>1811</ele>
        <time>2014-07-31T12:13:11.280Z</time>
      </trkpt>
      <trkpt lat="44.93072" lon="6.86382">
        <ele>1811</ele>
        <time>2014-07-31T12:13:13.180Z</time>
      </trkpt>
      <trkpt lat="44.93071" lon="6.86383">
        <ele>1811</ele>
        <time>2014-07-31T12:13:14.240Z</time>
      </trkpt>
      <trkpt lat="44.93068" lon="6.86385">
        <ele>1812</ele>
        <time>2014-07-31T12:13:16.280Z</time>
      </trkpt>
      <trkpt lat="44.93066" lon="6.86388">
        <ele>1812</ele>
        <time>2014-07-31T12:13:18.280Z</time>
      </trkpt>
      <trkpt lat="44.93064" lon="6.8639">
        <ele>1812</ele>
        <time>2014-07-31T12:13:20.280Z</time>
      </trkpt>
      <trkpt lat="44.93061" lon="6.86394">
        <ele>1812</ele>
        <time>2014-07-31T12:13:22.280Z</time>
      </trkpt>
      <trkpt lat="44.93059" lon="6.86396">
        <ele>1812</ele>
        <time>2014-07-31T12:13:24.180Z</time>
      </trkpt>
      <trkpt lat="44.93057" lon="6.86399">
        <ele>1814</ele>
        <time>2014-07-31T12:13:26.280Z</time>
      </trkpt>
      <trkpt lat="44.93055" lon="6.86402">
        <ele>1814</ele>
        <time>2014-07-31T12:13:28.280Z</time>
      </trkpt>
      <trkpt lat="44.93053" lon="6.86405">
        <ele>1814</ele>
        <time>2014-07-31T12:13:30.280Z</time>
      </trkpt>
      <trkpt lat="44.93051" lon="6.86408">
        <ele>1814</ele>
        <time>2014-07-31T12:13:32.180Z</time>
      </trkpt>
      <trkpt lat="44.93049" lon="6.8641">
        <ele>1814</ele>
        <time>2014-07-31T12:13:33.280Z</time>
      </trkpt>
      <trkpt lat="44.93048" lon="6.86413">
        <ele>1814.7</ele>
        <time>2014-07-31T12:13:35.280Z</time>
      </trkpt>
      <trkpt lat="44.93045" lon="6.86416">
        <ele>1815</ele>
        <time>2014-07-31T12:13:37.280Z</time>
      </trkpt>
      <trkpt lat="44.93043" lon="6.8642">
        <ele>1815</ele>
        <time>2014-07-31T12:13:39.260Z</time>
      </trkpt>
      <trkpt lat="44.93042" lon="6.86424">
        <ele>1815</ele>
        <time>2014-07-31T12:13:41.280Z</time>
      </trkpt>
      <trkpt lat="44.93041" lon="6.86429">
        <ele>1815</ele>
        <time>2014-07-31T12:13:43.280Z</time>
      </trkpt>
      <trkpt lat="44.93039" lon="6.86433">
        <ele>1816.4</ele>
        <time>2014-07-31T12:13:45.280Z</time>
      </trkpt>
      <trkpt lat="44.93036" lon="6.86437">
        <ele>1817</ele>
        <time>2014-07-31T12:13:47.180Z</time>
      </trkpt>
      <trkpt lat="44.93034" lon="6.86438">
        <ele>1817</ele>
        <time>2014-07-31T12:13:48.240Z</time>
      </trkpt>
      <trkpt lat="44.93032" lon="6.86441">
        <ele>1817</ele>
        <time>2014-07-31T12:13:50.280Z</time>
      </trkpt>
      <trkpt lat="44.93029" lon="6.86442">
        <ele>1817</ele>
        <time>2014-07-31T12:13:52.180Z</time>
      </trkpt>
      <trkpt lat="44.93028" lon="6.86443">
        <ele>1817</ele>
        <time>2014-07-31T12:13:53.280Z</time>
      </trkpt>
      <trkpt lat="44.93025" lon="6.86444">
        <ele>1818.4</ele>
        <time>2014-07-31T12:13:55.280Z</time>
      </trkpt>
      <trkpt lat="44.93023" lon="6.86446">
        <ele>1819</ele>
        <time>2014-07-31T12:13:57.280Z</time>
      </trkpt>
      <trkpt lat="44.93021" lon="6.8645">
        <ele>1819</ele>
        <time>2014-07-31T12:13:59.180Z</time>
      </trkpt>
      <trkpt lat="44.9302" lon="6.86452">
        <ele>1819</ele>
        <time>2014-07-31T12:14:00.240Z</time>
      </trkpt>
      <trkpt lat="44.93019" lon="6.86455">
        <ele>1819</ele>
        <time>2014-07-31T12:14:02.280Z</time>
      </trkpt>
      <trkpt lat="44.93017" lon="6.86459">
        <ele>1819</ele>
        <time>2014-07-31T12:14:04.180Z</time>
      </trkpt>
      <trkpt lat="44.93016" lon="6.8646">
        <ele>1820.3</ele>
        <time>2014-07-31T12:14:05.240Z</time>
      </trkpt>
      <trkpt lat="44.93014" lon="6.86463">
        <ele>1821</ele>
        <time>2014-07-31T12:14:07.280Z</time>
      </trkpt>
      <trkpt lat="44.93013" lon="6.86467">
        <ele>1821</ele>
        <time>2014-07-31T12:14:09.280Z</time>
      </trkpt>
      <trkpt lat="44.93011" lon="6.86469">
        <ele>1821</ele>
        <time>2014-07-31T12:14:11.280Z</time>
      </trkpt>
      <trkpt lat="44.93009" lon="6.86472">
        <ele>1821</ele>
        <time>2014-07-31T12:14:13.280Z</time>
      </trkpt>
      <trkpt lat="44.93006" lon="6.86475">
        <ele>1821.8</ele>
        <time>2014-07-31T12:14:15.380Z</time>
      </trkpt>
      <trkpt lat="44.93004" lon="6.86478">
        <ele>1822</ele>
        <time>2014-07-31T12:14:17.240Z</time>
      </trkpt>
      <trkpt lat="44.93001" lon="6.86481">
        <ele>1822</ele>
        <time>2014-07-31T12:14:19.180Z</time>
      </trkpt>
      <trkpt lat="44.92999" lon="6.86483">
        <ele>1822</ele>
        <time>2014-07-31T12:14:21.280Z</time>
      </trkpt>
      <trkpt lat="44.92996" lon="6.86485">
        <ele>1822</ele>
        <time>2014-07-31T12:14:23.280Z</time>
      </trkpt>
      <trkpt lat="44.92993" lon="6.86486">
        <ele>1823.2</ele>
        <time>2014-07-31T12:14:25.160Z</time>
      </trkpt>
      <trkpt lat="44.9299" lon="6.86488">
        <ele>1824</ele>
        <time>2014-07-31T12:14:27.280Z</time>
      </trkpt>
      <trkpt lat="44.92989" lon="6.86489">
        <ele>1824</ele>
        <time>2014-07-31T12:14:28.280Z</time>
      </trkpt>
      <trkpt lat="44.92988" lon="6.86492">
        <ele>1824</ele>
        <time>2014-07-31T12:14:30.280Z</time>
      </trkpt>
      <trkpt lat="44.92986" lon="6.86493">
        <ele>1824</ele>
        <time>2014-07-31T12:14:32.280Z</time>
      </trkpt>
      <trkpt lat="44.92983" lon="6.86494">
        <ele>1824</ele>
        <time>2014-07-31T12:14:34.240Z</time>
      </trkpt>
      <trkpt lat="44.9298" lon="6.86495">
        <ele>1825</ele>
        <time>2014-07-31T12:14:36.280Z</time>
      </trkpt>
      <trkpt lat="44.92977" lon="6.86496">
        <ele>1825</ele>
        <time>2014-07-31T12:14:38.280Z</time>
      </trkpt>
      <trkpt lat="44.92973" lon="6.86498">
        <ele>1825</ele>
        <time>2014-07-31T12:14:40.180Z</time>
      </trkpt>
      <trkpt lat="44.9297" lon="6.865">
        <ele>1825</ele>
        <time>2014-07-31T12:14:42.180Z</time>
      </trkpt>
      <trkpt lat="44.92969" lon="6.86502">
        <ele>1825</ele>
        <time>2014-07-31T12:14:43.280Z</time>
      </trkpt>
      <trkpt lat="44.92967" lon="6.86504">
        <ele>1825.7</ele>
        <time>2014-07-31T12:14:45.280Z</time>
      </trkpt>
      <trkpt lat="44.92964" lon="6.86507">
        <ele>1826</ele>
        <time>2014-07-31T12:14:47.280Z</time>
      </trkpt>
      <trkpt lat="44.92961" lon="6.86509">
        <ele>1826</ele>
        <time>2014-07-31T12:14:49.280Z</time>
      </trkpt>
      <trkpt lat="44.92958" lon="6.8651">
        <ele>1826</ele>
        <time>2014-07-31T12:14:51.240Z</time>
      </trkpt>
      <trkpt lat="44.92957" lon="6.8651">
        <ele>1826</ele>
        <time>2014-07-31T12:14:52.280Z</time>
      </trkpt>
      <trkpt lat="44.92954" lon="6.8651">
        <ele>1826</ele>
        <time>2014-07-31T12:14:54.180Z</time>
      </trkpt>
      <trkpt lat="44.92951" lon="6.86508">
        <ele>1827</ele>
        <time>2014-07-31T12:14:56.240Z</time>
      </trkpt>
      <trkpt lat="44.92948" lon="6.86506">
        <ele>1827</ele>
        <time>2014-07-31T12:14:58.180Z</time>
      </trkpt>
      <trkpt lat="44.92945" lon="6.86504">
        <ele>1827</ele>
        <time>2014-07-31T12:15:00.240Z</time>
      </trkpt>
      <trkpt lat="44.92942" lon="6.86501">
        <ele>1827</ele>
        <time>2014-07-31T12:15:02.280Z</time>
      </trkpt>
      <trkpt lat="44.92939" lon="6.86498">
        <ele>1827</ele>
        <time>2014-07-31T12:15:04.180Z</time>
      </trkpt>
      <trkpt lat="44.92936" lon="6.86496">
        <ele>1829</ele>
        <time>2014-07-31T12:15:06.180Z</time>
      </trkpt>
      <trkpt lat="44.92933" lon="6.86495">
        <ele>1829</ele>
        <time>2014-07-31T12:15:08.280Z</time>
      </trkpt>
      <trkpt lat="44.92929" lon="6.86494">
        <ele>1829</ele>
        <time>2014-07-31T12:15:10.180Z</time>
      </trkpt>
      <trkpt lat="44.92927" lon="6.86493">
        <ele>1829</ele>
        <time>2014-07-31T12:15:12.180Z</time>
      </trkpt>
      <trkpt lat="44.92923" lon="6.86493">
        <ele>1829</ele>
        <time>2014-07-31T12:15:14.180Z</time>
      </trkpt>
      <trkpt lat="44.92921" lon="6.86494">
        <ele>1831</ele>
        <time>2014-07-31T12:15:16.280Z</time>
      </trkpt>
      <trkpt lat="44.92919" lon="6.86495">
        <ele>1831</ele>
        <time>2014-07-31T12:15:17.240Z</time>
      </trkpt>
      <trkpt lat="44.92917" lon="6.86496">
        <ele>1831</ele>
        <time>2014-07-31T12:15:19.280Z</time>
      </trkpt>
      <trkpt lat="44.92913" lon="6.86497">
        <ele>1831</ele>
        <time>2014-07-31T12:15:21.280Z</time>
      </trkpt>
      <trkpt lat="44.9291" lon="6.86499">
        <ele>1831</ele>
        <time>2014-07-31T12:15:23.280Z</time>
      </trkpt>
      <trkpt lat="44.92907" lon="6.86501">
        <ele>1831</ele>
        <time>2014-07-31T12:15:25.280Z</time>
      </trkpt>
      <trkpt lat="44.92904" lon="6.86502">
        <ele>1831</ele>
        <time>2014-07-31T12:15:27.180Z</time>
      </trkpt>
      <trkpt lat="44.92902" lon="6.86503">
        <ele>1831</ele>
        <time>2014-07-31T12:15:28.280Z</time>
      </trkpt>
      <trkpt lat="44.92899" lon="6.86506">
        <ele>1831</ele>
        <time>2014-07-31T12:15:30.140Z</time>
      </trkpt>
      <trkpt lat="44.92898" lon="6.86507">
        <ele>1831</ele>
        <time>2014-07-31T12:15:31.280Z</time>
      </trkpt>
      <trkpt lat="44.92895" lon="6.86508">
        <ele>1831</ele>
        <time>2014-07-31T12:15:33.180Z</time>
      </trkpt>
      <trkpt lat="44.92893" lon="6.86509">
        <ele>1831</ele>
        <time>2014-07-31T12:15:34.220Z</time>
      </trkpt>
      <trkpt lat="44.9289" lon="6.86511">
        <ele>1833</ele>
        <time>2014-07-31T12:15:36.280Z</time>
      </trkpt>
      <trkpt lat="44.92887" lon="6.86512">
        <ele>1833</ele>
        <time>2014-07-31T12:15:38.280Z</time>
      </trkpt>
      <trkpt lat="44.92884" lon="6.86513">
        <ele>1833</ele>
        <time>2014-07-31T12:15:40.280Z</time>
      </trkpt>
      <trkpt lat="44.92883" lon="6.86514">
        <ele>1833</ele>
        <time>2014-07-31T12:15:41.280Z</time>
      </trkpt>
      <trkpt lat="44.9288" lon="6.86516">
        <ele>1833</ele>
        <time>2014-07-31T12:15:43.180Z</time>
      </trkpt>
      <trkpt lat="44.92878" lon="6.86517">
        <ele>1833</ele>
        <time>2014-07-31T12:15:44.280Z</time>
      </trkpt>
      <trkpt lat="44.92875" lon="6.86518">
        <ele>1835</ele>
        <time>2014-07-31T12:15:46.280Z</time>
      </trkpt>
      <trkpt lat="44.92872" lon="6.8652">
        <ele>1835</ele>
        <time>2014-07-31T12:15:48.280Z</time>
      </trkpt>
      <trkpt lat="44.9287" lon="6.86522">
        <ele>1835</ele>
        <time>2014-07-31T12:15:50.180Z</time>
      </trkpt>
      <trkpt lat="44.92869" lon="6.86523">
        <ele>1835</ele>
        <time>2014-07-31T12:15:51.240Z</time>
      </trkpt>
      <trkpt lat="44.92866" lon="6.86525">
        <ele>1835</ele>
        <time>2014-07-31T12:15:53.180Z</time>
      </trkpt>
      <trkpt lat="44.92862" lon="6.86526">
        <ele>1835.6</ele>
        <time>2014-07-31T12:15:55.180Z</time>
      </trkpt>
      <trkpt lat="44.92861" lon="6.86527">
        <ele>1836</ele>
        <time>2014-07-31T12:15:56.280Z</time>
      </trkpt>
      <trkpt lat="44.92859" lon="6.86529">
        <ele>1836</ele>
        <time>2014-07-31T12:15:58.180Z</time>
      </trkpt>
      <trkpt lat="44.92856" lon="6.86532">
        <ele>1836</ele>
        <time>2014-07-31T12:16:00.240Z</time>
      </trkpt>
      <trkpt lat="44.92853" lon="6.86533">
        <ele>1836</ele>
        <time>2014-07-31T12:16:02.280Z</time>
      </trkpt>
      <trkpt lat="44.92851" lon="6.86534">
        <ele>1836</ele>
        <time>2014-07-31T12:16:04.240Z</time>
      </trkpt>
      <trkpt lat="44.9285" lon="6.86535">
        <ele>1837.4</ele>
        <time>2014-07-31T12:16:05.280Z</time>
      </trkpt>
      <trkpt lat="44.92847" lon="6.86536">
        <ele>1838</ele>
        <time>2014-07-31T12:16:07.280Z</time>
      </trkpt>
      <trkpt lat="44.92843" lon="6.86536">
        <ele>1838</ele>
        <time>2014-07-31T12:16:09.180Z</time>
      </trkpt>
      <trkpt lat="44.92842" lon="6.86536">
        <ele>1838</ele>
        <time>2014-07-31T12:16:10.260Z</time>
      </trkpt>
      <trkpt lat="44.92839" lon="6.86536">
        <ele>1838</ele>
        <time>2014-07-31T12:16:12.280Z</time>
      </trkpt>
      <trkpt lat="44.92836" lon="6.86536">
        <ele>1838</ele>
        <time>2014-07-31T12:16:14.180Z</time>
      </trkpt>
      <trkpt lat="44.92832" lon="6.86536">
        <ele>1840</ele>
        <time>2014-07-31T12:16:16.180Z</time>
      </trkpt>
      <trkpt lat="44.92831" lon="6.86535">
        <ele>1840</ele>
        <time>2014-07-31T12:16:17.240Z</time>
      </trkpt>
      <trkpt lat="44.92829" lon="6.86534">
        <ele>1840</ele>
        <time>2014-07-31T12:16:19.180Z</time>
      </trkpt>
      <trkpt lat="44.92825" lon="6.86533">
        <ele>1840</ele>
        <time>2014-07-31T12:16:21.240Z</time>
      </trkpt>
      <trkpt lat="44.92823" lon="6.86531">
        <ele>1840</ele>
        <time>2014-07-31T12:16:23.180Z</time>
      </trkpt>
      <trkpt lat="44.9282" lon="6.8653">
        <ele>1840.6</ele>
        <time>2014-07-31T12:16:25.180Z</time>
      </trkpt>
      <trkpt lat="44.92819" lon="6.86529">
        <ele>1841</ele>
        <time>2014-07-31T12:16:26.280Z</time>
      </trkpt>
      <trkpt lat="44.92816" lon="6.86527">
        <ele>1841</ele>
        <time>2014-07-31T12:16:28.180Z</time>
      </trkpt>
      <trkpt lat="44.92814" lon="6.86526">
        <ele>1841</ele>
        <time>2014-07-31T12:16:30.180Z</time>
      </trkpt>
      <trkpt lat="44.9281" lon="6.86524">
        <ele>1841</ele>
        <time>2014-07-31T12:16:32.180Z</time>
      </trkpt>
      <trkpt lat="44.92809" lon="6.86523">
        <ele>1841</ele>
        <time>2014-07-31T12:16:33.280Z</time>
      </trkpt>
      <trkpt lat="44.92807" lon="6.86521">
        <ele>1842.4</ele>
        <time>2014-07-31T12:16:35.280Z</time>
      </trkpt>
      <trkpt lat="44.92804" lon="6.8652">
        <ele>1843</ele>
        <time>2014-07-31T12:16:37.280Z</time>
      </trkpt>
      <trkpt lat="44.92801" lon="6.86519">
        <ele>1843</ele>
        <time>2014-07-31T12:16:39.180Z</time>
      </trkpt>
      <trkpt lat="44.92799" lon="6.86518">
        <ele>1843</ele>
        <time>2014-07-31T12:16:41.270Z</time>
      </trkpt>
      <trkpt lat="44.92797" lon="6.86517">
        <ele>1843</ele>
        <time>2014-07-31T12:16:42.280Z</time>
      </trkpt>
      <trkpt lat="44.92794" lon="6.86517">
        <ele>1843</ele>
        <time>2014-07-31T12:16:44.180Z</time>
      </trkpt>
      <trkpt lat="44.92791" lon="6.86516">
        <ele>1845</ele>
        <time>2014-07-31T12:16:46.260Z</time>
      </trkpt>
      <trkpt lat="44.92786" lon="6.86515">
        <ele>1845</ele>
        <time>2014-07-31T12:16:48.180Z</time>
      </trkpt>
      <trkpt lat="44.92783" lon="6.86515">
        <ele>1845</ele>
        <time>2014-07-31T12:16:50.180Z</time>
      </trkpt>
      <trkpt lat="44.92781" lon="6.86514">
        <ele>1845</ele>
        <time>2014-07-31T12:16:51.240Z</time>
      </trkpt>
      <trkpt lat="44.92778" lon="6.86514">
        <ele>1845</ele>
        <time>2014-07-31T12:16:53.180Z</time>
      </trkpt>
      <trkpt lat="44.92777" lon="6.86513">
        <ele>1845</ele>
        <time>2014-07-31T12:16:54.180Z</time>
      </trkpt>
      <trkpt lat="44.92776" lon="6.86513">
        <ele>1846.3</ele>
        <time>2014-07-31T12:16:55.240Z</time>
      </trkpt>
      <trkpt lat="44.92773" lon="6.86513">
        <ele>1847</ele>
        <time>2014-07-31T12:16:57.280Z</time>
      </trkpt>
      <trkpt lat="44.92769" lon="6.86512">
        <ele>1847</ele>
        <time>2014-07-31T12:16:59.280Z</time>
      </trkpt>
      <trkpt lat="44.92766" lon="6.86512">
        <ele>1847</ele>
        <time>2014-07-31T12:17:01.180Z</time>
      </trkpt>
      <trkpt lat="44.92764" lon="6.86512">
        <ele>1847</ele>
        <time>2014-07-31T12:17:02.180Z</time>
      </trkpt>
      <trkpt lat="44.92763" lon="6.86512">
        <ele>1847</ele>
        <time>2014-07-31T12:17:03.280Z</time>
      </trkpt>
      <trkpt lat="44.92759" lon="6.86511">
        <ele>1847.7</ele>
        <time>2014-07-31T12:17:05.280Z</time>
      </trkpt>
      <trkpt lat="44.92758" lon="6.86511">
        <ele>1848</ele>
        <time>2014-07-31T12:17:06.280Z</time>
      </trkpt>
      <trkpt lat="44.92756" lon="6.86511">
        <ele>1848</ele>
        <time>2014-07-31T12:17:08.180Z</time>
      </trkpt>
      <trkpt lat="44.92754" lon="6.86511">
        <ele>1848</ele>
        <time>2014-07-31T12:17:10.180Z</time>
      </trkpt>
      <trkpt lat="44.92753" lon="6.86511">
        <ele>1848</ele>
        <time>2014-07-31T12:17:14.280Z</time>
      </trkpt>
      <trkpt lat="44.92753" lon="6.86513">
        <ele>1849</ele>
        <time>2014-07-31T12:17:19.280Z</time>
      </trkpt>
      <trkpt lat="44.92754" lon="6.86515">
        <ele>1849</ele>
        <time>2014-07-31T12:17:21.280Z</time>
      </trkpt>
      <trkpt lat="44.92752" lon="6.86516">
        <ele>1849</ele>
        <time>2014-07-31T12:17:23.180Z</time>
      </trkpt>
      <trkpt lat="44.92751" lon="6.86518">
        <ele>1849</ele>
        <time>2014-07-31T12:17:25.180Z</time>
      </trkpt>
      <trkpt lat="44.9275" lon="6.8652">
        <ele>1849</ele>
        <time>2014-07-31T12:17:27.280Z</time>
      </trkpt>
      <trkpt lat="44.92749" lon="6.86522">
        <ele>1849</ele>
        <time>2014-07-31T12:17:29.240Z</time>
      </trkpt>
      <trkpt lat="44.9275" lon="6.86526">
        <ele>1849</ele>
        <time>2014-07-31T12:17:33.280Z</time>
      </trkpt>
      <trkpt lat="44.92749" lon="6.86529">
        <ele>1848</ele>
        <time>2014-07-31T12:17:35.080Z</time>
      </trkpt>
      <trkpt lat="44.92748" lon="6.8653">
        <ele>1847</ele>
        <time>2014-07-31T12:17:37.180Z</time>
      </trkpt>
      <trkpt lat="44.92747" lon="6.86531">
        <ele>1847</ele>
        <time>2014-07-31T12:17:41.180Z</time>
      </trkpt>
      <trkpt lat="44.92746" lon="6.86533">
        <ele>1847</ele>
        <time>2014-07-31T12:17:43.280Z</time>
      </trkpt>
      <trkpt lat="44.92745" lon="6.86533">
        <ele>1847</ele>
        <time>2014-07-31T12:17:50.180Z</time>
      </trkpt>
      <trkpt lat="44.92743" lon="6.86533">
        <ele>1847</ele>
        <time>2014-07-31T12:17:52.180Z</time>
      </trkpt>
      <trkpt lat="44.92742" lon="6.86533">
        <ele>1847</ele>
        <time>2014-07-31T12:17:54.280Z</time>
      </trkpt>
      <trkpt lat="44.92741" lon="6.86532">
        <ele>1847</ele>
        <time>2014-07-31T12:18:01.180Z</time>
      </trkpt>
      <trkpt lat="44.92739" lon="6.86531">
        <ele>1847</ele>
        <time>2014-07-31T12:18:04.080Z</time>
      </trkpt>
      <trkpt lat="44.92738" lon="6.86529">
        <ele>1846</ele>
        <time>2014-07-31T12:18:06.180Z</time>
      </trkpt>
      <trkpt lat="44.92738" lon="6.86531">
        <ele>1846</ele>
        <time>2014-07-31T12:18:08.280Z</time>
      </trkpt>
      <trkpt lat="44.92735" lon="6.86529">
        <ele>1846</ele>
        <time>2014-07-31T12:18:14.280Z</time>
      </trkpt>
      <trkpt lat="44.92736" lon="6.86527">
        <ele>1846</ele>
        <time>2014-07-31T12:18:20.240Z</time>
      </trkpt>
      <trkpt lat="44.92737" lon="6.86526">
        <ele>1846</ele>
        <time>2014-07-31T12:18:23.280Z</time>
      </trkpt>
      <trkpt lat="44.92737" lon="6.86525">
        <ele>1846</ele>
        <time>2014-07-31T12:18:25.180Z</time>
      </trkpt>
      <trkpt lat="44.92737" lon="6.86526">
        <ele>1846</ele>
        <time>2014-07-31T12:18:26.280Z</time>
      </trkpt>
      <trkpt lat="44.92738" lon="6.86529">
        <ele>1846</ele>
        <time>2014-07-31T12:18:28.180Z</time>
      </trkpt>
      <trkpt lat="44.9274" lon="6.86527">
        <ele>1846</ele>
        <time>2014-07-31T12:18:30.080Z</time>
      </trkpt>
      <trkpt lat="44.92742" lon="6.86528">
        <ele>1846</ele>
        <time>2014-07-31T12:18:32.280Z</time>
      </trkpt>
      <trkpt lat="44.92743" lon="6.86525">
        <ele>1846</ele>
        <time>2014-07-31T12:18:34.080Z</time>
      </trkpt>
      <trkpt lat="44.92744" lon="6.86523">
        <ele>1847</ele>
        <time>2014-07-31T12:18:38.280Z</time>
      </trkpt>
      <trkpt lat="44.92745" lon="6.86521">
        <ele>1847</ele>
        <time>2014-07-31T12:18:40.080Z</time>
      </trkpt>
      <trkpt lat="44.92744" lon="6.86519">
        <ele>1847</ele>
        <time>2014-07-31T12:18:42.080Z</time>
      </trkpt>
      <trkpt lat="44.92744" lon="6.86517">
        <ele>1847</ele>
        <time>2014-07-31T12:18:45.280Z</time>
      </trkpt>
      <trkpt lat="44.92745" lon="6.86516">
        <ele>1847</ele>
        <time>2014-07-31T12:18:47.280Z</time>
      </trkpt>
      <trkpt lat="44.92746" lon="6.86518">
        <ele>1847</ele>
        <time>2014-07-31T12:18:49.160Z</time>
      </trkpt>
      <trkpt lat="44.92746" lon="6.86521">
        <ele>1847</ele>
        <time>2014-07-31T12:18:51.040Z</time>
      </trkpt>
      <trkpt lat="44.92745" lon="6.86521">
        <ele>1847</ele>
        <time>2014-07-31T12:18:57.180Z</time>
      </trkpt>
      <trkpt lat="44.92744" lon="6.86521">
        <ele>1847</ele>
        <time>2014-07-31T12:19:00.240Z</time>
      </trkpt>
      <trkpt lat="44.92745" lon="6.86522">
        <ele>1847</ele>
        <time>2014-07-31T12:19:03.180Z</time>
      </trkpt>
      <trkpt lat="44.92744" lon="6.86523">
        <ele>1846.4</ele>
        <time>2014-07-31T12:19:05.180Z</time>
      </trkpt>
      <trkpt lat="44.92745" lon="6.86522">
        <ele>1846</ele>
        <time>2014-07-31T12:19:09.180Z</time>
      </trkpt>
      <trkpt lat="44.92747" lon="6.86521">
        <ele>1846</ele>
        <time>2014-07-31T12:19:11.040Z</time>
      </trkpt>
      <trkpt lat="44.92748" lon="6.86521">
        <ele>1846</ele>
        <time>2014-07-31T12:19:13.280Z</time>
      </trkpt>
      <trkpt lat="44.92749" lon="6.86521">
        <ele>1846</ele>
        <time>2014-07-31T12:19:15.180Z</time>
      </trkpt>
      <trkpt lat="44.92749" lon="6.86519">
        <ele>1846</ele>
        <time>2014-07-31T12:19:17.040Z</time>
      </trkpt>
      <trkpt lat="44.92749" lon="6.86518">
        <ele>1846</ele>
        <time>2014-07-31T12:19:19.180Z</time>
      </trkpt>
      <trkpt lat="44.92749" lon="6.86514">
        <ele>1846</ele>
        <time>2014-07-31T12:19:21.180Z</time>
      </trkpt>
      <trkpt lat="44.92748" lon="6.86514">
        <ele>1846</ele>
        <time>2014-07-31T12:19:25.280Z</time>
      </trkpt>
      <trkpt lat="44.92746" lon="6.86515">
        <ele>1846</ele>
        <time>2014-07-31T12:19:28.080Z</time>
      </trkpt>
      <trkpt lat="44.92746" lon="6.86517">
        <ele>1846</ele>
        <time>2014-07-31T12:19:30.180Z</time>
      </trkpt>
      <trkpt lat="44.92745" lon="6.86517">
        <ele>1846</ele>
        <time>2014-07-31T12:19:32.080Z</time>
      </trkpt>
      <trkpt lat="44.92743" lon="6.86517">
        <ele>1846</ele>
        <time>2014-07-31T12:19:35.180Z</time>
      </trkpt>
      <trkpt lat="44.92744" lon="6.86519">
        <ele>1846</ele>
        <time>2014-07-31T12:19:37.180Z</time>
      </trkpt>
      <trkpt lat="44.92746" lon="6.86519">
        <ele>1846</ele>
        <time>2014-07-31T12:19:38.280Z</time>
      </trkpt>
      <trkpt lat="44.92745" lon="6.8652">
        <ele>1846</ele>
        <time>2014-07-31T12:19:47.080Z</time>
      </trkpt>
      <trkpt lat="44.92744" lon="6.8652">
        <ele>1846</ele>
        <time>2014-07-31T12:19:49.180Z</time>
      </trkpt>
      <trkpt lat="44.92743" lon="6.86522">
        <ele>1846</ele>
        <time>2014-07-31T12:19:53.180Z</time>
      </trkpt>
      <trkpt lat="44.92742" lon="6.86522">
        <ele>1846</ele>
        <time>2014-07-31T12:19:57.180Z</time>
      </trkpt>
      <trkpt lat="44.92743" lon="6.86525">
        <ele>1846</ele>
        <time>2014-07-31T12:19:59.080Z</time>
      </trkpt>
      <trkpt lat="44.92743" lon="6.86525">
        <ele>1846</ele>
        <time>2014-07-31T12:20:00.140Z</time>
      </trkpt>
      <trkpt lat="44.92744" lon="6.86529">
        <ele>1846</ele>
        <time>2014-07-31T12:20:02.140Z</time>
      </trkpt>
      <trkpt lat="44.92745" lon="6.86531">
        <ele>1846</ele>
        <time>2014-07-31T12:20:04.160Z</time>
      </trkpt>
      <trkpt lat="44.92747" lon="6.8653">
        <ele>1845</ele>
        <time>2014-07-31T12:20:06.080Z</time>
      </trkpt>
      <trkpt lat="44.92747" lon="6.86529">
        <ele>1845</ele>
        <time>2014-07-31T12:20:12.080Z</time>
      </trkpt>
      <trkpt lat="44.92745" lon="6.86527">
        <ele>1845.7</ele>
        <time>2014-07-31T12:20:15.280Z</time>
      </trkpt>
      <trkpt lat="44.92746" lon="6.86527">
        <ele>1846</ele>
        <time>2014-07-31T12:20:18.980Z</time>
      </trkpt>
      <trkpt lat="44.92748" lon="6.86527">
        <ele>1846</ele>
        <time>2014-07-31T12:20:21.080Z</time>
      </trkpt>
      <trkpt lat="44.92749" lon="6.86527">
        <ele>1846</ele>
        <time>2014-07-31T12:20:25.080Z</time>
      </trkpt>
      <trkpt lat="44.92749" lon="6.86525">
        <ele>1846</ele>
        <time>2014-07-31T12:20:27.080Z</time>
      </trkpt>
      <trkpt lat="44.92749" lon="6.86522">
        <ele>1846</ele>
        <time>2014-07-31T12:20:29.180Z</time>
      </trkpt>
      <trkpt lat="44.9275" lon="6.86518">
        <ele>1846</ele>
        <time>2014-07-31T12:20:31.080Z</time>
      </trkpt>
      <trkpt lat="44.92752" lon="6.86517">
        <ele>1846</ele>
        <time>2014-07-31T12:20:35.080Z</time>
      </trkpt>
      <trkpt lat="44.92752" lon="6.86519">
        <ele>1846</ele>
        <time>2014-07-31T12:20:37.180Z</time>
      </trkpt>
      <trkpt lat="44.92749" lon="6.86521">
        <ele>1846</ele>
        <time>2014-07-31T12:20:39.080Z</time>
      </trkpt>
      <trkpt lat="44.92748" lon="6.86524">
        <ele>1846</ele>
        <time>2014-07-31T12:20:41.080Z</time>
      </trkpt>
      <trkpt lat="44.92747" lon="6.86526">
        <ele>1846</ele>
        <time>2014-07-31T12:20:43.280Z</time>
      </trkpt>
      <trkpt lat="44.92746" lon="6.86527">
        <ele>1846</ele>
        <time>2014-07-31T12:20:47.180Z</time>
      </trkpt>
      <trkpt lat="44.92745" lon="6.86528">
        <ele>1846</ele>
        <time>2014-07-31T12:20:52.080Z</time>
      </trkpt>
      <trkpt lat="44.92745" lon="6.86527">
        <ele>1846</ele>
        <time>2014-07-31T12:20:55.080Z</time>
      </trkpt>
      <trkpt lat="44.92745" lon="6.86528">
        <ele>1846</ele>
        <time>2014-07-31T12:20:58.160Z</time>
      </trkpt>
      <trkpt lat="44.92745" lon="6.86529">
        <ele>1846</ele>
        <time>2014-07-31T12:21:00.140Z</time>
      </trkpt>
      <trkpt lat="44.92745" lon="6.86531">
        <ele>1846</ele>
        <time>2014-07-31T12:21:02.180Z</time>
      </trkpt>
      <trkpt lat="44.92746" lon="6.86529">
        <ele>1846.6</ele>
        <time>2014-07-31T12:21:05.180Z</time>
      </trkpt>
      <trkpt lat="44.92745" lon="6.86526">
        <ele>1847</ele>
        <time>2014-07-31T12:21:07.180Z</time>
      </trkpt>
      <trkpt lat="44.92745" lon="6.86522">
        <ele>1847</ele>
        <time>2014-07-31T12:21:09.180Z</time>
      </trkpt>
      <trkpt lat="44.92747" lon="6.86519">
        <ele>1847</ele>
        <time>2014-07-31T12:21:11.080Z</time>
      </trkpt>
      <trkpt lat="44.92749" lon="6.86515">
        <ele>1847</ele>
        <time>2014-07-31T12:21:13.180Z</time>
      </trkpt>
      <trkpt lat="44.92751" lon="6.86514">
        <ele>1847.6</ele>
        <time>2014-07-31T12:21:15.180Z</time>
      </trkpt>
      <trkpt lat="44.92751" lon="6.86512">
        <ele>1848</ele>
        <time>2014-07-31T12:21:17.040Z</time>
      </trkpt>
      <trkpt lat="44.92751" lon="6.86511">
        <ele>1848</ele>
        <time>2014-07-31T12:21:19.180Z</time>
      </trkpt>
      <trkpt lat="44.9275" lon="6.86511">
        <ele>1848.6</ele>
        <time>2014-07-31T12:21:25.180Z</time>
      </trkpt>
      <trkpt lat="44.92749" lon="6.86513">
        <ele>1849</ele>
        <time>2014-07-31T12:21:27.140Z</time>
      </trkpt>
      <trkpt lat="44.92749" lon="6.86514">
        <ele>1849</ele>
        <time>2014-07-31T12:21:29.080Z</time>
      </trkpt>
      <trkpt lat="44.92747" lon="6.86515">
        <ele>1849</ele>
        <time>2014-07-31T12:21:31.180Z</time>
      </trkpt>
      <trkpt lat="44.92746" lon="6.86514">
        <ele>1849</ele>
        <time>2014-07-31T12:21:33.080Z</time>
      </trkpt>
      <trkpt lat="44.92746" lon="6.86512">
        <ele>1849</ele>
        <time>2014-07-31T12:21:36.080Z</time>
      </trkpt>
      <trkpt lat="44.92745" lon="6.86511">
        <ele>1849</ele>
        <time>2014-07-31T12:21:38.180Z</time>
      </trkpt>
      <trkpt lat="44.92744" lon="6.8651">
        <ele>1849</ele>
        <time>2014-07-31T12:21:41.080Z</time>
      </trkpt>
      <trkpt lat="44.92743" lon="6.8651">
        <ele>1849.5</ele>
        <time>2014-07-31T12:21:45.080Z</time>
      </trkpt>
      <trkpt lat="44.92741" lon="6.86511">
        <ele>1850</ele>
        <time>2014-07-31T12:21:49.080Z</time>
      </trkpt>
      <trkpt lat="44.9274" lon="6.86512">
        <ele>1850</ele>
        <time>2014-07-31T12:21:51.140Z</time>
      </trkpt>
      <trkpt lat="44.92738" lon="6.86514">
        <ele>1850</ele>
        <time>2014-07-31T12:21:53.080Z</time>
      </trkpt>
      <trkpt lat="44.92736" lon="6.86516">
        <ele>1850</ele>
        <time>2014-07-31T12:21:55.080Z</time>
      </trkpt>
      <trkpt lat="44.92735" lon="6.86517">
        <ele>1850</ele>
        <time>2014-07-31T12:21:56.180Z</time>
      </trkpt>
      <trkpt lat="44.92733" lon="6.86518">
        <ele>1850</ele>
        <time>2014-07-31T12:21:58.080Z</time>
      </trkpt>
      <trkpt lat="44.9273" lon="6.86518">
        <ele>1850</ele>
        <time>2014-07-31T12:21:59.930Z</time>
      </trkpt>
      <trkpt lat="44.92729" lon="6.86519">
        <ele>1850</ele>
        <time>2014-07-31T12:22:01.080Z</time>
      </trkpt>
      <trkpt lat="44.92728" lon="6.8652">
        <ele>1850</ele>
        <time>2014-07-31T12:22:03.080Z</time>
      </trkpt>
      <trkpt lat="44.92727" lon="6.86521">
        <ele>1850</ele>
        <time>2014-07-31T12:22:06.180Z</time>
      </trkpt>
      <trkpt lat="44.92725" lon="6.86522">
        <ele>1850</ele>
        <time>2014-07-31T12:22:08.080Z</time>
      </trkpt>
      <trkpt lat="44.92725" lon="6.86523">
        <ele>1850</ele>
        <time>2014-07-31T12:22:09.180Z</time>
      </trkpt>
      <trkpt lat="44.92724" lon="6.86525">
        <ele>1850</ele>
        <time>2014-07-31T12:22:11.180Z</time>
      </trkpt>
      <trkpt lat="44.92723" lon="6.86526">
        <ele>1850</ele>
        <time>2014-07-31T12:22:13.180Z</time>
      </trkpt>
      <trkpt lat="44.92721" lon="6.86528">
        <ele>1850.6</ele>
        <time>2014-07-31T12:22:15.180Z</time>
      </trkpt>
      <trkpt lat="44.9272" lon="6.8653">
        <ele>1851</ele>
        <time>2014-07-31T12:22:17.040Z</time>
      </trkpt>
      <trkpt lat="44.92719" lon="6.86532">
        <ele>1851</ele>
        <time>2014-07-31T12:22:19.180Z</time>
      </trkpt>
      <trkpt lat="44.92717" lon="6.86534">
        <ele>1851</ele>
        <time>2014-07-31T12:22:21.080Z</time>
      </trkpt>
      <trkpt lat="44.92715" lon="6.86535">
        <ele>1851</ele>
        <time>2014-07-31T12:22:23.180Z</time>
      </trkpt>
      <trkpt lat="44.92712" lon="6.86539">
        <ele>1852.2</ele>
        <time>2014-07-31T12:22:25.180Z</time>
      </trkpt>
      <trkpt lat="44.92708" lon="6.86541">
        <ele>1853</ele>
        <time>2014-07-31T12:22:27.180Z</time>
      </trkpt>
      <trkpt lat="44.92705" lon="6.86542">
        <ele>1853</ele>
        <time>2014-07-31T12:22:29.080Z</time>
      </trkpt>
      <trkpt lat="44.92703" lon="6.86542">
        <ele>1853</ele>
        <time>2014-07-31T12:22:30.180Z</time>
      </trkpt>
      <trkpt lat="44.92702" lon="6.86543">
        <ele>1853</ele>
        <time>2014-07-31T12:22:32.180Z</time>
      </trkpt>
      <trkpt lat="44.92701" lon="6.86546">
        <ele>1853</ele>
        <time>2014-07-31T12:22:34.140Z</time>
      </trkpt>
      <trkpt lat="44.927" lon="6.86549">
        <ele>1855</ele>
        <time>2014-07-31T12:22:36.180Z</time>
      </trkpt>
      <trkpt lat="44.92697" lon="6.86552">
        <ele>1855</ele>
        <time>2014-07-31T12:22:38.180Z</time>
      </trkpt>
      <trkpt lat="44.92693" lon="6.86555">
        <ele>1855</ele>
        <time>2014-07-31T12:22:40.080Z</time>
      </trkpt>
      <trkpt lat="44.92691" lon="6.86558">
        <ele>1855</ele>
        <time>2014-07-31T12:22:42.080Z</time>
      </trkpt>
      <trkpt lat="44.9269" lon="6.86559">
        <ele>1855</ele>
        <time>2014-07-31T12:22:43.180Z</time>
      </trkpt>
      <trkpt lat="44.92689" lon="6.86561">
        <ele>1856.2</ele>
        <time>2014-07-31T12:22:45.180Z</time>
      </trkpt>
      <trkpt lat="44.92688" lon="6.86564">
        <ele>1857</ele>
        <time>2014-07-31T12:22:47.060Z</time>
      </trkpt>
      <trkpt lat="44.92687" lon="6.86565">
        <ele>1857</ele>
        <time>2014-07-31T12:22:49.080Z</time>
      </trkpt>
      <trkpt lat="44.92686" lon="6.86566">
        <ele>1857</ele>
        <time>2014-07-31T12:22:50.080Z</time>
      </trkpt>
      <trkpt lat="44.92684" lon="6.86567">
        <ele>1857</ele>
        <time>2014-07-31T12:22:51.140Z</time>
      </trkpt>
      <trkpt lat="44.9268" lon="6.86569">
        <ele>1857</ele>
        <time>2014-07-31T12:22:53.080Z</time>
      </trkpt>
      <trkpt lat="44.92677" lon="6.8657">
        <ele>1858</ele>
        <time>2014-07-31T12:22:55.080Z</time>
      </trkpt>
      <trkpt lat="44.92676" lon="6.86571">
        <ele>1859</ele>
        <time>2014-07-31T12:22:56.180Z</time>
      </trkpt>
      <trkpt lat="44.92673" lon="6.86572">
        <ele>1859</ele>
        <time>2014-07-31T12:22:58.180Z</time>
      </trkpt>
      <trkpt lat="44.92672" lon="6.86573">
        <ele>1859</ele>
        <time>2014-07-31T12:23:00.010Z</time>
      </trkpt>
      <trkpt lat="44.92669" lon="6.86574">
        <ele>1859</ele>
        <time>2014-07-31T12:23:02.080Z</time>
      </trkpt>
      <trkpt lat="44.92668" lon="6.86575">
        <ele>1859</ele>
        <time>2014-07-31T12:23:04.080Z</time>
      </trkpt>
      <trkpt lat="44.92666" lon="6.86575">
        <ele>1859.6</ele>
        <time>2014-07-31T12:23:05.180Z</time>
      </trkpt>
      <trkpt lat="44.92663" lon="6.86575">
        <ele>1860</ele>
        <time>2014-07-31T12:23:07.180Z</time>
      </trkpt>
      <trkpt lat="44.92659" lon="6.86575">
        <ele>1860</ele>
        <time>2014-07-31T12:23:09.140Z</time>
      </trkpt>
      <trkpt lat="44.92656" lon="6.86575">
        <ele>1860</ele>
        <time>2014-07-31T12:23:11.180Z</time>
      </trkpt>
      <trkpt lat="44.92654" lon="6.86576">
        <ele>1860</ele>
        <time>2014-07-31T12:23:13.080Z</time>
      </trkpt>
      <trkpt lat="44.92652" lon="6.86575">
        <ele>1861</ele>
        <time>2014-07-31T12:23:15.080Z</time>
      </trkpt>
      <trkpt lat="44.9265" lon="6.86576">
        <ele>1862</ele>
        <time>2014-07-31T12:23:17.140Z</time>
      </trkpt>
      <trkpt lat="44.92648" lon="6.86577">
        <ele>1862</ele>
        <time>2014-07-31T12:23:19.180Z</time>
      </trkpt>
      <trkpt lat="44.92646" lon="6.86578">
        <ele>1862</ele>
        <time>2014-07-31T12:23:21.080Z</time>
      </trkpt>
      <trkpt lat="44.92644" lon="6.86578">
        <ele>1862</ele>
        <time>2014-07-31T12:23:22.180Z</time>
      </trkpt>
      <trkpt lat="44.92643" lon="6.86577">
        <ele>1862</ele>
        <time>2014-07-31T12:23:24.080Z</time>
      </trkpt>
      <trkpt lat="44.92641" lon="6.86576">
        <ele>1864</ele>
        <time>2014-07-31T12:23:26.140Z</time>
      </trkpt>
      <trkpt lat="44.92639" lon="6.86576">
        <ele>1864</ele>
        <time>2014-07-31T12:23:28.080Z</time>
      </trkpt>
      <trkpt lat="44.92636" lon="6.86576">
        <ele>1864</ele>
        <time>2014-07-31T12:23:30.180Z</time>
      </trkpt>
      <trkpt lat="44.92635" lon="6.86576">
        <ele>1864</ele>
        <time>2014-07-31T12:23:32.060Z</time>
      </trkpt>
      <trkpt lat="44.92633" lon="6.86575">
        <ele>1864</ele>
        <time>2014-07-31T12:23:33.180Z</time>
      </trkpt>
      <trkpt lat="44.92631" lon="6.86576">
        <ele>1865</ele>
        <time>2014-07-31T12:23:35.080Z</time>
      </trkpt>
      <trkpt lat="44.92629" lon="6.86575">
        <ele>1866</ele>
        <time>2014-07-31T12:23:37.080Z</time>
      </trkpt>
      <trkpt lat="44.92626" lon="6.86573">
        <ele>1866</ele>
        <time>2014-07-31T12:23:39.180Z</time>
      </trkpt>
      <trkpt lat="44.92623" lon="6.86572">
        <ele>1866</ele>
        <time>2014-07-31T12:23:41.180Z</time>
      </trkpt>
      <trkpt lat="44.92621" lon="6.8657">
        <ele>1866</ele>
        <time>2014-07-31T12:23:43.040Z</time>
      </trkpt>
      <trkpt lat="44.92619" lon="6.86569">
        <ele>1866</ele>
        <time>2014-07-31T12:23:44.180Z</time>
      </trkpt>
      <trkpt lat="44.92616" lon="6.86567">
        <ele>1867</ele>
        <time>2014-07-31T12:23:46.180Z</time>
      </trkpt>
      <trkpt lat="44.92614" lon="6.86566">
        <ele>1867</ele>
        <time>2014-07-31T12:23:48.080Z</time>
      </trkpt>
      <trkpt lat="44.92613" lon="6.86563">
        <ele>1867</ele>
        <time>2014-07-31T12:23:50.080Z</time>
      </trkpt>
      <trkpt lat="44.92613" lon="6.86561">
        <ele>1867</ele>
        <time>2014-07-31T12:23:51.140Z</time>
      </trkpt>
      <trkpt lat="44.92613" lon="6.86558">
        <ele>1867</ele>
        <time>2014-07-31T12:23:53.080Z</time>
      </trkpt>
      <trkpt lat="44.92612" lon="6.86556">
        <ele>1867.6</ele>
        <time>2014-07-31T12:23:55.160Z</time>
      </trkpt>
      <trkpt lat="44.9261" lon="6.86555">
        <ele>1868</ele>
        <time>2014-07-31T12:23:56.180Z</time>
      </trkpt>
      <trkpt lat="44.92611" lon="6.86553">
        <ele>1868</ele>
        <time>2014-07-31T12:23:58.180Z</time>
      </trkpt>
      <trkpt lat="44.92612" lon="6.8655">
        <ele>1868</ele>
        <time>2014-07-31T12:24:00.100Z</time>
      </trkpt>
      <trkpt lat="44.92614" lon="6.86548">
        <ele>1868</ele>
        <time>2014-07-31T12:24:02.180Z</time>
      </trkpt>
      <trkpt lat="44.92615" lon="6.86547">
        <ele>1868</ele>
        <time>2014-07-31T12:24:04.180Z</time>
      </trkpt>
      <trkpt lat="44.92618" lon="6.86547">
        <ele>1870</ele>
        <time>2014-07-31T12:24:06.080Z</time>
      </trkpt>
      <trkpt lat="44.92621" lon="6.86547">
        <ele>1870</ele>
        <time>2014-07-31T12:24:09.080Z</time>
      </trkpt>
      <trkpt lat="44.92623" lon="6.86547">
        <ele>1870</ele>
        <time>2014-07-31T12:24:11.080Z</time>
      </trkpt>
      <trkpt lat="44.92626" lon="6.86547">
        <ele>1870</ele>
        <time>2014-07-31T12:24:13.180Z</time>
      </trkpt>
      <trkpt lat="44.92628" lon="6.86546">
        <ele>1870.6</ele>
        <time>2014-07-31T12:24:15.180Z</time>
      </trkpt>
      <trkpt lat="44.92631" lon="6.86546">
        <ele>1871</ele>
        <time>2014-07-31T12:24:17.060Z</time>
      </trkpt>
      <trkpt lat="44.92634" lon="6.86545">
        <ele>1871</ele>
        <time>2014-07-31T12:24:19.160Z</time>
      </trkpt>
      <trkpt lat="44.92637" lon="6.86544">
        <ele>1871</ele>
        <time>2014-07-31T12:24:21.080Z</time>
      </trkpt>
      <trkpt lat="44.9264" lon="6.86541">
        <ele>1871</ele>
        <time>2014-07-31T12:24:23.180Z</time>
      </trkpt>
      <trkpt lat="44.92643" lon="6.86539">
        <ele>1872.2</ele>
        <time>2014-07-31T12:24:25.180Z</time>
      </trkpt>
      <trkpt lat="44.92644" lon="6.86536">
        <ele>1873</ele>
        <time>2014-07-31T12:24:27.080Z</time>
      </trkpt>
      <trkpt lat="44.92646" lon="6.86535">
        <ele>1873</ele>
        <time>2014-07-31T12:24:29.180Z</time>
      </trkpt>
      <trkpt lat="44.92648" lon="6.86532">
        <ele>1873</ele>
        <time>2014-07-31T12:24:31.160Z</time>
      </trkpt>
      <trkpt lat="44.9265" lon="6.86529">
        <ele>1873</ele>
        <time>2014-07-31T12:24:33.280Z</time>
      </trkpt>
      <trkpt lat="44.92653" lon="6.86526">
        <ele>1873.5</ele>
        <time>2014-07-31T12:24:35.080Z</time>
      </trkpt>
      <trkpt lat="44.92655" lon="6.86523">
        <ele>1874</ele>
        <time>2014-07-31T12:24:37.080Z</time>
      </trkpt>
      <trkpt lat="44.92656" lon="6.86522">
        <ele>1874</ele>
        <time>2014-07-31T12:24:38.180Z</time>
      </trkpt>
      <trkpt lat="44.92659" lon="6.86519">
        <ele>1874</ele>
        <time>2014-07-31T12:24:40.080Z</time>
      </trkpt>
      <trkpt lat="44.92662" lon="6.86515">
        <ele>1874</ele>
        <time>2014-07-31T12:24:42.080Z</time>
      </trkpt>
      <trkpt lat="44.92663" lon="6.86514">
        <ele>1874</ele>
        <time>2014-07-31T12:24:43.180Z</time>
      </trkpt>
      <trkpt lat="44.92666" lon="6.8651">
        <ele>1874</ele>
        <time>2014-07-31T12:24:45.180Z</time>
      </trkpt>
      <trkpt lat="44.92669" lon="6.86507">
        <ele>1874</ele>
        <time>2014-07-31T12:24:47.180Z</time>
      </trkpt>
      <trkpt lat="44.9267" lon="6.86504">
        <ele>1874</ele>
        <time>2014-07-31T12:24:49.180Z</time>
      </trkpt>
      <trkpt lat="44.92672" lon="6.865">
        <ele>1874</ele>
        <time>2014-07-31T12:24:51.060Z</time>
      </trkpt>
      <trkpt lat="44.92673" lon="6.86499">
        <ele>1874</ele>
        <time>2014-07-31T12:24:52.180Z</time>
      </trkpt>
      <trkpt lat="44.92674" lon="6.86496">
        <ele>1874</ele>
        <time>2014-07-31T12:24:54.160Z</time>
      </trkpt>
      <trkpt lat="44.92676" lon="6.86493">
        <ele>1876</ele>
        <time>2014-07-31T12:24:56.080Z</time>
      </trkpt>
      <trkpt lat="44.92678" lon="6.8649">
        <ele>1876</ele>
        <time>2014-07-31T12:24:58.100Z</time>
      </trkpt>
      <trkpt lat="44.92679" lon="6.86488">
        <ele>1876</ele>
        <time>2014-07-31T12:24:59.080Z</time>
      </trkpt>
      <trkpt lat="44.9268" lon="6.86485">
        <ele>1876</ele>
        <time>2014-07-31T12:25:01.070Z</time>
      </trkpt>
      <trkpt lat="44.92681" lon="6.86482">
        <ele>1876</ele>
        <time>2014-07-31T12:25:03.080Z</time>
      </trkpt>
      <trkpt lat="44.92682" lon="6.86479">
        <ele>1876</ele>
        <time>2014-07-31T12:25:04.180Z</time>
      </trkpt>
      <trkpt lat="44.92684" lon="6.86474">
        <ele>1878</ele>
        <time>2014-07-31T12:25:06.180Z</time>
      </trkpt>
      <trkpt lat="44.92687" lon="6.86469">
        <ele>1878</ele>
        <time>2014-07-31T12:25:08.040Z</time>
      </trkpt>
      <trkpt lat="44.92687" lon="6.86467">
        <ele>1878</ele>
        <time>2014-07-31T12:25:09.180Z</time>
      </trkpt>
      <trkpt lat="44.92688" lon="6.86463">
        <ele>1878</ele>
        <time>2014-07-31T12:25:11.180Z</time>
      </trkpt>
      <trkpt lat="44.92689" lon="6.86462">
        <ele>1878</ele>
        <time>2014-07-31T12:25:12.180Z</time>
      </trkpt>
      <trkpt lat="44.92691" lon="6.86457">
        <ele>1878</ele>
        <time>2014-07-31T12:25:14.080Z</time>
      </trkpt>
      <trkpt lat="44.92691" lon="6.86455">
        <ele>1879.2</ele>
        <time>2014-07-31T12:25:15.160Z</time>
      </trkpt>
      <trkpt lat="44.92692" lon="6.86451">
        <ele>1880</ele>
        <time>2014-07-31T12:25:17.040Z</time>
      </trkpt>
      <trkpt lat="44.92693" lon="6.86449">
        <ele>1880</ele>
        <time>2014-07-31T12:25:18.180Z</time>
      </trkpt>
      <trkpt lat="44.92694" lon="6.86445">
        <ele>1880</ele>
        <time>2014-07-31T12:25:20.180Z</time>
      </trkpt>
      <trkpt lat="44.92694" lon="6.86441">
        <ele>1880</ele>
        <time>2014-07-31T12:25:22.080Z</time>
      </trkpt>
      <trkpt lat="44.92694" lon="6.86439">
        <ele>1880</ele>
        <time>2014-07-31T12:25:23.180Z</time>
      </trkpt>
      <trkpt lat="44.92694" lon="6.86436">
        <ele>1880.9</ele>
        <time>2014-07-31T12:25:25.040Z</time>
      </trkpt>
      <trkpt lat="44.92695" lon="6.86433">
        <ele>1882</ele>
        <time>2014-07-31T12:25:27.160Z</time>
      </trkpt>
      <trkpt lat="44.92697" lon="6.86431">
        <ele>1882</ele>
        <time>2014-07-31T12:25:29.180Z</time>
      </trkpt>
      <trkpt lat="44.92699" lon="6.86429">
        <ele>1882</ele>
        <time>2014-07-31T12:25:31.180Z</time>
      </trkpt>
      <trkpt lat="44.92702" lon="6.86427">
        <ele>1882</ele>
        <time>2014-07-31T12:25:33.080Z</time>
      </trkpt>
      <trkpt lat="44.92706" lon="6.86425">
        <ele>1882.5</ele>
        <time>2014-07-31T12:25:35.080Z</time>
      </trkpt>
      <trkpt lat="44.92709" lon="6.86423">
        <ele>1883</ele>
        <time>2014-07-31T12:25:37.080Z</time>
      </trkpt>
      <trkpt lat="44.9271" lon="6.86422">
        <ele>1883</ele>
        <time>2014-07-31T12:25:38.100Z</time>
      </trkpt>
      <trkpt lat="44.92713" lon="6.8642">
        <ele>1883</ele>
        <time>2014-07-31T12:25:40.180Z</time>
      </trkpt>
      <trkpt lat="44.92716" lon="6.86419">
        <ele>1883</ele>
        <time>2014-07-31T12:25:42.040Z</time>
      </trkpt>
      <trkpt lat="44.92718" lon="6.86419">
        <ele>1883</ele>
        <time>2014-07-31T12:25:43.180Z</time>
      </trkpt>
      <trkpt lat="44.9272" lon="6.86419">
        <ele>1884.2</ele>
        <time>2014-07-31T12:25:45.180Z</time>
      </trkpt>
      <trkpt lat="44.92723" lon="6.8642">
        <ele>1885</ele>
        <time>2014-07-31T12:25:47.080Z</time>
      </trkpt>
      <trkpt lat="44.92726" lon="6.86423">
        <ele>1885</ele>
        <time>2014-07-31T12:25:49.080Z</time>
      </trkpt>
      <trkpt lat="44.92729" lon="6.86424">
        <ele>1885</ele>
        <time>2014-07-31T12:25:51.140Z</time>
      </trkpt>
      <trkpt lat="44.92731" lon="6.86425">
        <ele>1885</ele>
        <time>2014-07-31T12:25:53.180Z</time>
      </trkpt>
      <trkpt lat="44.92734" lon="6.86426">
        <ele>1885.6</ele>
        <time>2014-07-31T12:25:55.180Z</time>
      </trkpt>
      <trkpt lat="44.92736" lon="6.86426">
        <ele>1886</ele>
        <time>2014-07-31T12:25:57.080Z</time>
      </trkpt>
      <trkpt lat="44.92739" lon="6.86427">
        <ele>1886</ele>
        <time>2014-07-31T12:25:59.080Z</time>
      </trkpt>
      <trkpt lat="44.92742" lon="6.86427">
        <ele>1886</ele>
        <time>2014-07-31T12:26:01.070Z</time>
      </trkpt>
      <trkpt lat="44.92743" lon="6.86427">
        <ele>1886</ele>
        <time>2014-07-31T12:26:02.160Z</time>
      </trkpt>
      <trkpt lat="44.92745" lon="6.86427">
        <ele>1886</ele>
        <time>2014-07-31T12:26:03.180Z</time>
      </trkpt>
      <trkpt lat="44.92749" lon="6.86426">
        <ele>1887</ele>
        <time>2014-07-31T12:26:05.080Z</time>
      </trkpt>
      <trkpt lat="44.92751" lon="6.86426">
        <ele>1888</ele>
        <time>2014-07-31T12:26:07.080Z</time>
      </trkpt>
      <trkpt lat="44.92753" lon="6.86427">
        <ele>1888</ele>
        <time>2014-07-31T12:26:08.180Z</time>
      </trkpt>
      <trkpt lat="44.92756" lon="6.86427">
        <ele>1888</ele>
        <time>2014-07-31T12:26:10.180Z</time>
      </trkpt>
      <trkpt lat="44.9276" lon="6.86426">
        <ele>1888</ele>
        <time>2014-07-31T12:26:12.180Z</time>
      </trkpt>
      <trkpt lat="44.92762" lon="6.86427">
        <ele>1888</ele>
        <time>2014-07-31T12:26:14.180Z</time>
      </trkpt>
      <trkpt lat="44.92765" lon="6.86428">
        <ele>1889</ele>
        <time>2014-07-31T12:26:16.040Z</time>
      </trkpt>
      <trkpt lat="44.92768" lon="6.86429">
        <ele>1889</ele>
        <time>2014-07-31T12:26:18.080Z</time>
      </trkpt>
      <trkpt lat="44.92772" lon="6.86429">
        <ele>1889</ele>
        <time>2014-07-31T12:26:20.080Z</time>
      </trkpt>
      <trkpt lat="44.92773" lon="6.8643">
        <ele>1889</ele>
        <time>2014-07-31T12:26:21.180Z</time>
      </trkpt>
      <trkpt lat="44.92776" lon="6.8643">
        <ele>1889</ele>
        <time>2014-07-31T12:26:23.180Z</time>
      </trkpt>
      <trkpt lat="44.9278" lon="6.8643">
        <ele>1890</ele>
        <time>2014-07-31T12:26:25.060Z</time>
      </trkpt>
      <trkpt lat="44.92783" lon="6.86431">
        <ele>1891</ele>
        <time>2014-07-31T12:26:27.100Z</time>
      </trkpt>
      <trkpt lat="44.92784" lon="6.86431">
        <ele>1891</ele>
        <time>2014-07-31T12:26:28.180Z</time>
      </trkpt>
      <trkpt lat="44.92787" lon="6.86431">
        <ele>1891</ele>
        <time>2014-07-31T12:26:30.080Z</time>
      </trkpt>
      <trkpt lat="44.9279" lon="6.86431">
        <ele>1891</ele>
        <time>2014-07-31T12:26:32.080Z</time>
      </trkpt>
      <trkpt lat="44.92792" lon="6.86431">
        <ele>1891</ele>
        <time>2014-07-31T12:26:33.140Z</time>
      </trkpt>
      <trkpt lat="44.92795" lon="6.86429">
        <ele>1892</ele>
        <time>2014-07-31T12:26:35.080Z</time>
      </trkpt>
      <trkpt lat="44.92796" lon="6.86428">
        <ele>1893</ele>
        <time>2014-07-31T12:26:36.160Z</time>
      </trkpt>
      <trkpt lat="44.92798" lon="6.86428">
        <ele>1893</ele>
        <time>2014-07-31T12:26:38.080Z</time>
      </trkpt>
      <trkpt lat="44.92802" lon="6.86428">
        <ele>1893</ele>
        <time>2014-07-31T12:26:40.180Z</time>
      </trkpt>
      <trkpt lat="44.92805" lon="6.86428">
        <ele>1893</ele>
        <time>2014-07-31T12:26:42.080Z</time>
      </trkpt>
      <trkpt lat="44.92809" lon="6.86429">
        <ele>1893</ele>
        <time>2014-07-31T12:26:44.080Z</time>
      </trkpt>
      <trkpt lat="44.92813" lon="6.86428">
        <ele>1893</ele>
        <time>2014-07-31T12:26:46.080Z</time>
      </trkpt>
      <trkpt lat="44.92815" lon="6.86428">
        <ele>1893</ele>
        <time>2014-07-31T12:26:47.180Z</time>
      </trkpt>
      <trkpt lat="44.92819" lon="6.86428">
        <ele>1893</ele>
        <time>2014-07-31T12:26:49.080Z</time>
      </trkpt>
      <trkpt lat="44.9282" lon="6.86429">
        <ele>1893</ele>
        <time>2014-07-31T12:26:50.140Z</time>
      </trkpt>
      <trkpt lat="44.92823" lon="6.8643">
        <ele>1893</ele>
        <time>2014-07-31T12:26:52.110Z</time>
      </trkpt>
      <trkpt lat="44.92825" lon="6.86429">
        <ele>1893</ele>
        <time>2014-07-31T12:26:53.180Z</time>
      </trkpt>
      <trkpt lat="44.92827" lon="6.86428">
        <ele>1894</ele>
        <time>2014-07-31T12:26:55.080Z</time>
      </trkpt>
      <trkpt lat="44.9283" lon="6.86427">
        <ele>1895</ele>
        <time>2014-07-31T12:26:57.080Z</time>
      </trkpt>
      <trkpt lat="44.92834" lon="6.86426">
        <ele>1895</ele>
        <time>2014-07-31T12:26:59.080Z</time>
      </trkpt>
      <trkpt lat="44.92836" lon="6.86426">
        <ele>1895</ele>
        <time>2014-07-31T12:27:00.100Z</time>
      </trkpt>
      <trkpt lat="44.92839" lon="6.86426">
        <ele>1895</ele>
        <time>2014-07-31T12:27:02.180Z</time>
      </trkpt>
      <trkpt lat="44.92842" lon="6.86426">
        <ele>1895</ele>
        <time>2014-07-31T12:27:04.080Z</time>
      </trkpt>
      <trkpt lat="44.92845" lon="6.86426">
        <ele>1898</ele>
        <time>2014-07-31T12:27:06.080Z</time>
      </trkpt>
      <trkpt lat="44.92847" lon="6.86426">
        <ele>1898</ele>
        <time>2014-07-31T12:27:07.140Z</time>
      </trkpt>
      <trkpt lat="44.92849" lon="6.86425">
        <ele>1898</ele>
        <time>2014-07-31T12:27:09.080Z</time>
      </trkpt>
      <trkpt lat="44.9285" lon="6.86425">
        <ele>1898</ele>
        <time>2014-07-31T12:27:10.160Z</time>
      </trkpt>
      <trkpt lat="44.92852" lon="6.86424">
        <ele>1898</ele>
        <time>2014-07-31T12:27:12.080Z</time>
      </trkpt>
      <trkpt lat="44.92854" lon="6.86422">
        <ele>1898</ele>
        <time>2014-07-31T12:27:14.080Z</time>
      </trkpt>
      <trkpt lat="44.92856" lon="6.86419">
        <ele>1899</ele>
        <time>2014-07-31T12:27:16.180Z</time>
      </trkpt>
      <trkpt lat="44.92858" lon="6.86417">
        <ele>1899</ele>
        <time>2014-07-31T12:27:18.180Z</time>
      </trkpt>
      <trkpt lat="44.92861" lon="6.86414">
        <ele>1899</ele>
        <time>2014-07-31T12:27:20.080Z</time>
      </trkpt>
      <trkpt lat="44.92863" lon="6.86412">
        <ele>1899</ele>
        <time>2014-07-31T12:27:21.180Z</time>
      </trkpt>
      <trkpt lat="44.92866" lon="6.86409">
        <ele>1899</ele>
        <time>2014-07-31T12:27:23.080Z</time>
      </trkpt>
      <trkpt lat="44.92868" lon="6.86407">
        <ele>1899</ele>
        <time>2014-07-31T12:27:24.140Z</time>
      </trkpt>
      <trkpt lat="44.9287" lon="6.86404">
        <ele>1901</ele>
        <time>2014-07-31T12:27:26.180Z</time>
      </trkpt>
      <trkpt lat="44.92872" lon="6.86402">
        <ele>1901</ele>
        <time>2014-07-31T12:27:28.080Z</time>
      </trkpt>
      <trkpt lat="44.92874" lon="6.86401">
        <ele>1901</ele>
        <time>2014-07-31T12:27:29.180Z</time>
      </trkpt>
      <trkpt lat="44.92877" lon="6.864">
        <ele>1901</ele>
        <time>2014-07-31T12:27:31.180Z</time>
      </trkpt>
      <trkpt lat="44.9288" lon="6.86397">
        <ele>1901</ele>
        <time>2014-07-31T12:27:33.080Z</time>
      </trkpt>
      <trkpt lat="44.92881" lon="6.86396">
        <ele>1901</ele>
        <time>2014-07-31T12:27:34.100Z</time>
      </trkpt>
      <trkpt lat="44.92883" lon="6.86394">
        <ele>1902</ele>
        <time>2014-07-31T12:27:36.180Z</time>
      </trkpt>
      <trkpt lat="44.92885" lon="6.86392">
        <ele>1902</ele>
        <time>2014-07-31T12:27:38.180Z</time>
      </trkpt>
      <trkpt lat="44.92887" lon="6.86391">
        <ele>1902</ele>
        <time>2014-07-31T12:27:40.180Z</time>
      </trkpt>
      <trkpt lat="44.92889" lon="6.86388">
        <ele>1902</ele>
        <time>2014-07-31T12:27:42.080Z</time>
      </trkpt>
      <trkpt lat="44.9289" lon="6.86386">
        <ele>1902</ele>
        <time>2014-07-31T12:27:43.180Z</time>
      </trkpt>
      <trkpt lat="44.92892" lon="6.86384">
        <ele>1903</ele>
        <time>2014-07-31T12:27:45.060Z</time>
      </trkpt>
      <trkpt lat="44.92893" lon="6.86382">
        <ele>1904</ele>
        <time>2014-07-31T12:27:46.180Z</time>
      </trkpt>
      <trkpt lat="44.92895" lon="6.86379">
        <ele>1904</ele>
        <time>2014-07-31T12:27:48.080Z</time>
      </trkpt>
      <trkpt lat="44.92896" lon="6.86378">
        <ele>1904</ele>
        <time>2014-07-31T12:27:49.180Z</time>
      </trkpt>
      <trkpt lat="44.92898" lon="6.86375">
        <ele>1904</ele>
        <time>2014-07-31T12:27:51.070Z</time>
      </trkpt>
      <trkpt lat="44.92899" lon="6.86373">
        <ele>1904</ele>
        <time>2014-07-31T12:27:53.080Z</time>
      </trkpt>
      <trkpt lat="44.929" lon="6.86372">
        <ele>1904</ele>
        <time>2014-07-31T12:27:54.180Z</time>
      </trkpt>
      <trkpt lat="44.92902" lon="6.86368">
        <ele>1905</ele>
        <time>2014-07-31T12:27:56.180Z</time>
      </trkpt>
      <trkpt lat="44.92904" lon="6.86365">
        <ele>1905</ele>
        <time>2014-07-31T12:27:58.140Z</time>
      </trkpt>
      <trkpt lat="44.92905" lon="6.86362">
        <ele>1905</ele>
        <time>2014-07-31T12:28:00.130Z</time>
      </trkpt>
      <trkpt lat="44.92907" lon="6.86358">
        <ele>1905</ele>
        <time>2014-07-31T12:28:02.080Z</time>
      </trkpt>
      <trkpt lat="44.92908" lon="6.86356">
        <ele>1905</ele>
        <time>2014-07-31T12:28:03.180Z</time>
      </trkpt>
      <trkpt lat="44.9291" lon="6.86353">
        <ele>1906.2</ele>
        <time>2014-07-31T12:28:05.180Z</time>
      </trkpt>
      <trkpt lat="44.92912" lon="6.86349">
        <ele>1907</ele>
        <time>2014-07-31T12:28:07.130Z</time>
      </trkpt>
      <trkpt lat="44.92913" lon="6.86348">
        <ele>1907</ele>
        <time>2014-07-31T12:28:08.180Z</time>
      </trkpt>
      <trkpt lat="44.92914" lon="6.86346">
        <ele>1907</ele>
        <time>2014-07-31T12:28:10.080Z</time>
      </trkpt>
      <trkpt lat="44.92915" lon="6.86344">
        <ele>1907</ele>
        <time>2014-07-31T12:28:12.080Z</time>
      </trkpt>
      <trkpt lat="44.92915" lon="6.86342">
        <ele>1907</ele>
        <time>2014-07-31T12:28:13.180Z</time>
      </trkpt>
      <trkpt lat="44.92917" lon="6.86338">
        <ele>1907.6</ele>
        <time>2014-07-31T12:28:15.140Z</time>
      </trkpt>
      <trkpt lat="44.9292" lon="6.86334">
        <ele>1908</ele>
        <time>2014-07-31T12:28:17.040Z</time>
      </trkpt>
      <trkpt lat="44.9292" lon="6.86332">
        <ele>1908</ele>
        <time>2014-07-31T12:28:18.180Z</time>
      </trkpt>
      <trkpt lat="44.92923" lon="6.86327">
        <ele>1908</ele>
        <time>2014-07-31T12:28:20.180Z</time>
      </trkpt>
      <trkpt lat="44.92925" lon="6.86326">
        <ele>1908</ele>
        <time>2014-07-31T12:28:21.180Z</time>
      </trkpt>
      <trkpt lat="44.92926" lon="6.86323">
        <ele>1908</ele>
        <time>2014-07-31T12:28:23.180Z</time>
      </trkpt>
      <trkpt lat="44.92927" lon="6.86319">
        <ele>1909.2</ele>
        <time>2014-07-31T12:28:25.180Z</time>
      </trkpt>
      <trkpt lat="44.92929" lon="6.86316">
        <ele>1910</ele>
        <time>2014-07-31T12:28:27.080Z</time>
      </trkpt>
      <trkpt lat="44.92931" lon="6.86314">
        <ele>1910</ele>
        <time>2014-07-31T12:28:28.180Z</time>
      </trkpt>
      <trkpt lat="44.92933" lon="6.86309">
        <ele>1910</ele>
        <time>2014-07-31T12:28:30.180Z</time>
      </trkpt>
      <trkpt lat="44.92935" lon="6.86306">
        <ele>1910</ele>
        <time>2014-07-31T12:28:32.140Z</time>
      </trkpt>
      <trkpt lat="44.92937" lon="6.86302">
        <ele>1910</ele>
        <time>2014-07-31T12:28:33.970Z</time>
      </trkpt>
      <trkpt lat="44.92938" lon="6.86301">
        <ele>1910.6</ele>
        <time>2014-07-31T12:28:35.180Z</time>
      </trkpt>
      <trkpt lat="44.9294" lon="6.86297">
        <ele>1911</ele>
        <time>2014-07-31T12:28:37.180Z</time>
      </trkpt>
      <trkpt lat="44.92941" lon="6.86294">
        <ele>1911</ele>
        <time>2014-07-31T12:28:39.080Z</time>
      </trkpt>
      <trkpt lat="44.92941" lon="6.86291">
        <ele>1911</ele>
        <time>2014-07-31T12:28:40.180Z</time>
      </trkpt>
      <trkpt lat="44.92943" lon="6.86287">
        <ele>1911</ele>
        <time>2014-07-31T12:28:42.180Z</time>
      </trkpt>
      <trkpt lat="44.92945" lon="6.86284">
        <ele>1911</ele>
        <time>2014-07-31T12:28:44.080Z</time>
      </trkpt>
      <trkpt lat="44.92947" lon="6.86281">
        <ele>1913</ele>
        <time>2014-07-31T12:28:46.080Z</time>
      </trkpt>
      <trkpt lat="44.92948" lon="6.86279">
        <ele>1913</ele>
        <time>2014-07-31T12:28:47.180Z</time>
      </trkpt>
      <trkpt lat="44.92948" lon="6.86277">
        <ele>1913</ele>
        <time>2014-07-31T12:28:49.140Z</time>
      </trkpt>
      <trkpt lat="44.9295" lon="6.86274">
        <ele>1913</ele>
        <time>2014-07-31T12:28:51.040Z</time>
      </trkpt>
      <trkpt lat="44.9295" lon="6.86273">
        <ele>1913</ele>
        <time>2014-07-31T12:28:52.180Z</time>
      </trkpt>
      <trkpt lat="44.92952" lon="6.86269">
        <ele>1913</ele>
        <time>2014-07-31T12:28:54.080Z</time>
      </trkpt>
      <trkpt lat="44.92953" lon="6.86267">
        <ele>1913.6</ele>
        <time>2014-07-31T12:28:55.180Z</time>
      </trkpt>
      <trkpt lat="44.92955" lon="6.86262">
        <ele>1914</ele>
        <time>2014-07-31T12:28:57.180Z</time>
      </trkpt>
      <trkpt lat="44.92958" lon="6.86257">
        <ele>1914</ele>
        <time>2014-07-31T12:28:59.180Z</time>
      </trkpt>
      <trkpt lat="44.92959" lon="6.86254">
        <ele>1914</ele>
        <time>2014-07-31T12:29:01.070Z</time>
      </trkpt>
      <trkpt lat="44.9296" lon="6.86251">
        <ele>1914</ele>
        <time>2014-07-31T12:29:03.180Z</time>
      </trkpt>
      <trkpt lat="44.9296" lon="6.86246">
        <ele>1915.2</ele>
        <time>2014-07-31T12:29:05.180Z</time>
      </trkpt>
      <trkpt lat="44.92963" lon="6.86243">
        <ele>1916</ele>
        <time>2014-07-31T12:29:07.080Z</time>
      </trkpt>
      <trkpt lat="44.92964" lon="6.86239">
        <ele>1916</ele>
        <time>2014-07-31T12:29:09.080Z</time>
      </trkpt>
      <trkpt lat="44.92966" lon="6.86236">
        <ele>1916</ele>
        <time>2014-07-31T12:29:11.180Z</time>
      </trkpt>
      <trkpt lat="44.92967" lon="6.86235">
        <ele>1916</ele>
        <time>2014-07-31T12:29:12.180Z</time>
      </trkpt>
      <trkpt lat="44.92968" lon="6.86232">
        <ele>1916</ele>
        <time>2014-07-31T12:29:14.080Z</time>
      </trkpt>
      <trkpt lat="44.9297" lon="6.86228">
        <ele>1918</ele>
        <time>2014-07-31T12:29:16.160Z</time>
      </trkpt>
      <trkpt lat="44.92972" lon="6.86224">
        <ele>1918</ele>
        <time>2014-07-31T12:29:18.180Z</time>
      </trkpt>
      <trkpt lat="44.92973" lon="6.8622">
        <ele>1918</ele>
        <time>2014-07-31T12:29:20.180Z</time>
      </trkpt>
      <trkpt lat="44.92975" lon="6.86218">
        <ele>1918</ele>
        <time>2014-07-31T12:29:22.080Z</time>
      </trkpt>
      <trkpt lat="44.92976" lon="6.86216">
        <ele>1918</ele>
        <time>2014-07-31T12:29:23.140Z</time>
      </trkpt>
      <trkpt lat="44.92976" lon="6.86215">
        <ele>1918</ele>
        <time>2014-07-31T12:29:24.180Z</time>
      </trkpt>
      <trkpt lat="44.92978" lon="6.8621">
        <ele>1918</ele>
        <time>2014-07-31T12:29:26.080Z</time>
      </trkpt>
      <trkpt lat="44.92981" lon="6.86207">
        <ele>1918</ele>
        <time>2014-07-31T12:29:28.160Z</time>
      </trkpt>
      <trkpt lat="44.92983" lon="6.86204">
        <ele>1918</ele>
        <time>2014-07-31T12:29:30.080Z</time>
      </trkpt>
      <trkpt lat="44.92986" lon="6.86201">
        <ele>1918</ele>
        <time>2014-07-31T12:29:32.080Z</time>
      </trkpt>
      <trkpt lat="44.92987" lon="6.862">
        <ele>1918</ele>
        <time>2014-07-31T12:29:33.180Z</time>
      </trkpt>
      <trkpt lat="44.92989" lon="6.86198">
        <ele>1919.2</ele>
        <time>2014-07-31T12:29:35.180Z</time>
      </trkpt>
      <trkpt lat="44.92991" lon="6.86196">
        <ele>1920</ele>
        <time>2014-07-31T12:29:37.080Z</time>
      </trkpt>
      <trkpt lat="44.92992" lon="6.86194">
        <ele>1920</ele>
        <time>2014-07-31T12:29:38.180Z</time>
      </trkpt>
      <trkpt lat="44.92995" lon="6.86192">
        <ele>1920</ele>
        <time>2014-07-31T12:29:40.000Z</time>
      </trkpt>
      <trkpt lat="44.92997" lon="6.86191">
        <ele>1920</ele>
        <time>2014-07-31T12:29:41.180Z</time>
      </trkpt>
      <trkpt lat="44.93001" lon="6.86189">
        <ele>1920</ele>
        <time>2014-07-31T12:29:43.080Z</time>
      </trkpt>
      <trkpt lat="44.93004" lon="6.86186">
        <ele>1920.6</ele>
        <time>2014-07-31T12:29:45.180Z</time>
      </trkpt>
      <trkpt lat="44.93007" lon="6.86183">
        <ele>1921</ele>
        <time>2014-07-31T12:29:47.180Z</time>
      </trkpt>
      <trkpt lat="44.93009" lon="6.86182">
        <ele>1921</ele>
        <time>2014-07-31T12:29:49.120Z</time>
      </trkpt>
      <trkpt lat="44.9301" lon="6.86181">
        <ele>1921</ele>
        <time>2014-07-31T12:29:50.080Z</time>
      </trkpt>
      <trkpt lat="44.93011" lon="6.8618">
        <ele>1921</ele>
        <time>2014-07-31T12:29:51.100Z</time>
      </trkpt>
      <trkpt lat="44.93013" lon="6.86179">
        <ele>1921</ele>
        <time>2014-07-31T12:29:53.080Z</time>
      </trkpt>
      <trkpt lat="44.93015" lon="6.86176">
        <ele>1922</ele>
        <time>2014-07-31T12:29:55.080Z</time>
      </trkpt>
      <trkpt lat="44.93017" lon="6.86174">
        <ele>1923</ele>
        <time>2014-07-31T12:29:57.140Z</time>
      </trkpt>
      <trkpt lat="44.93019" lon="6.86172">
        <ele>1923</ele>
        <time>2014-07-31T12:29:59.180Z</time>
      </trkpt>
      <trkpt lat="44.93022" lon="6.8617">
        <ele>1923</ele>
        <time>2014-07-31T12:30:01.070Z</time>
      </trkpt>
      <trkpt lat="44.93024" lon="6.86169">
        <ele>1923</ele>
        <time>2014-07-31T12:30:02.180Z</time>
      </trkpt>
      <trkpt lat="44.93026" lon="6.86167">
        <ele>1923</ele>
        <time>2014-07-31T12:30:04.080Z</time>
      </trkpt>
      <trkpt lat="44.93028" lon="6.86164">
        <ele>1923</ele>
        <time>2014-07-31T12:30:06.180Z</time>
      </trkpt>
      <trkpt lat="44.9303" lon="6.86161">
        <ele>1923</ele>
        <time>2014-07-31T12:30:08.080Z</time>
      </trkpt>
      <trkpt lat="44.93032" lon="6.86158">
        <ele>1923</ele>
        <time>2014-07-31T12:30:10.080Z</time>
      </trkpt>
      <trkpt lat="44.93033" lon="6.86157">
        <ele>1923</ele>
        <time>2014-07-31T12:30:11.180Z</time>
      </trkpt>
      <trkpt lat="44.93036" lon="6.86154">
        <ele>1923</ele>
        <time>2014-07-31T12:30:13.080Z</time>
      </trkpt>
      <trkpt lat="44.93037" lon="6.86153">
        <ele>1923</ele>
        <time>2014-07-31T12:30:14.140Z</time>
      </trkpt>
      <trkpt lat="44.93039" lon="6.8615">
        <ele>1925</ele>
        <time>2014-07-31T12:30:16.080Z</time>
      </trkpt>
      <trkpt lat="44.9304" lon="6.86148">
        <ele>1925</ele>
        <time>2014-07-31T12:30:17.140Z</time>
      </trkpt>
      <trkpt lat="44.93042" lon="6.86144">
        <ele>1925</ele>
        <time>2014-07-31T12:30:19.080Z</time>
      </trkpt>
      <trkpt lat="44.93044" lon="6.86142">
        <ele>1925</ele>
        <time>2014-07-31T12:30:21.080Z</time>
      </trkpt>
      <trkpt lat="44.93046" lon="6.86139">
        <ele>1925</ele>
        <time>2014-07-31T12:30:23.180Z</time>
      </trkpt>
      <trkpt lat="44.93048" lon="6.86137">
        <ele>1926.2</ele>
        <time>2014-07-31T12:30:25.180Z</time>
      </trkpt>
      <trkpt lat="44.9305" lon="6.86135">
        <ele>1927</ele>
        <time>2014-07-31T12:30:27.100Z</time>
      </trkpt>
      <trkpt lat="44.93053" lon="6.86132">
        <ele>1927</ele>
        <time>2014-07-31T12:30:29.080Z</time>
      </trkpt>
      <trkpt lat="44.93055" lon="6.86128">
        <ele>1927</ele>
        <time>2014-07-31T12:30:31.120Z</time>
      </trkpt>
      <trkpt lat="44.93058" lon="6.86124">
        <ele>1927</ele>
        <time>2014-07-31T12:30:33.080Z</time>
      </trkpt>
      <trkpt lat="44.93059" lon="6.86122">
        <ele>1927</ele>
        <time>2014-07-31T12:30:34.140Z</time>
      </trkpt>
      <trkpt lat="44.93061" lon="6.86119">
        <ele>1928</ele>
        <time>2014-07-31T12:30:36.080Z</time>
      </trkpt>
      <trkpt lat="44.93064" lon="6.86118">
        <ele>1928</ele>
        <time>2014-07-31T12:30:38.160Z</time>
      </trkpt>
      <trkpt lat="44.93066" lon="6.86114">
        <ele>1928</ele>
        <time>2014-07-31T12:30:40.180Z</time>
      </trkpt>
      <trkpt lat="44.93068" lon="6.8611">
        <ele>1928</ele>
        <time>2014-07-31T12:30:42.080Z</time>
      </trkpt>
      <trkpt lat="44.93069" lon="6.86109">
        <ele>1928</ele>
        <time>2014-07-31T12:30:43.180Z</time>
      </trkpt>
      <trkpt lat="44.93071" lon="6.86107">
        <ele>1928.5</ele>
        <time>2014-07-31T12:30:45.080Z</time>
      </trkpt>
      <trkpt lat="44.93073" lon="6.86103">
        <ele>1929</ele>
        <time>2014-07-31T12:30:47.080Z</time>
      </trkpt>
      <trkpt lat="44.93077" lon="6.86099">
        <ele>1929</ele>
        <time>2014-07-31T12:30:49.080Z</time>
      </trkpt>
      <trkpt lat="44.93078" lon="6.86097">
        <ele>1929</ele>
        <time>2014-07-31T12:30:50.160Z</time>
      </trkpt>
      <trkpt lat="44.9308" lon="6.86094">
        <ele>1929</ele>
        <time>2014-07-31T12:30:52.180Z</time>
      </trkpt>
      <trkpt lat="44.93081" lon="6.86093">
        <ele>1929</ele>
        <time>2014-07-31T12:30:53.180Z</time>
      </trkpt>
      <trkpt lat="44.93083" lon="6.86089">
        <ele>1930.2</ele>
        <time>2014-07-31T12:30:55.180Z</time>
      </trkpt>
      <trkpt lat="44.93085" lon="6.86085">
        <ele>1931</ele>
        <time>2014-07-31T12:30:57.080Z</time>
      </trkpt>
      <trkpt lat="44.93086" lon="6.86083">
        <ele>1931</ele>
        <time>2014-07-31T12:30:58.180Z</time>
      </trkpt>
      <trkpt lat="44.93088" lon="6.86082">
        <ele>1931</ele>
        <time>2014-07-31T12:31:00.030Z</time>
      </trkpt>
      <trkpt lat="44.9309" lon="6.8608">
        <ele>1931</ele>
        <time>2014-07-31T12:31:01.180Z</time>
      </trkpt>
      <trkpt lat="44.93091" lon="6.86076">
        <ele>1931</ele>
        <time>2014-07-31T12:31:03.080Z</time>
      </trkpt>
      <trkpt lat="44.93092" lon="6.86075">
        <ele>1931</ele>
        <time>2014-07-31T12:31:04.180Z</time>
      </trkpt>
      <trkpt lat="44.93094" lon="6.86072">
        <ele>1933</ele>
        <time>2014-07-31T12:31:06.080Z</time>
      </trkpt>
      <trkpt lat="44.93096" lon="6.86069">
        <ele>1933</ele>
        <time>2014-07-31T12:31:08.180Z</time>
      </trkpt>
      <trkpt lat="44.93098" lon="6.86064">
        <ele>1933</ele>
        <time>2014-07-31T12:31:10.080Z</time>
      </trkpt>
      <trkpt lat="44.93099" lon="6.86062">
        <ele>1933</ele>
        <time>2014-07-31T12:31:11.160Z</time>
      </trkpt>
      <trkpt lat="44.931" lon="6.86059">
        <ele>1933</ele>
        <time>2014-07-31T12:31:13.180Z</time>
      </trkpt>
      <trkpt lat="44.93101" lon="6.86055">
        <ele>1933.6</ele>
        <time>2014-07-31T12:31:15.180Z</time>
      </trkpt>
      <trkpt lat="44.93104" lon="6.86053">
        <ele>1934</ele>
        <time>2014-07-31T12:31:17.040Z</time>
      </trkpt>
      <trkpt lat="44.93105" lon="6.86051">
        <ele>1934</ele>
        <time>2014-07-31T12:31:18.180Z</time>
      </trkpt>
      <trkpt lat="44.93106" lon="6.86047">
        <ele>1934</ele>
        <time>2014-07-31T12:31:20.180Z</time>
      </trkpt>
      <trkpt lat="44.93108" lon="6.86043">
        <ele>1934</ele>
        <time>2014-07-31T12:31:22.140Z</time>
      </trkpt>
      <trkpt lat="44.93109" lon="6.86039">
        <ele>1934</ele>
        <time>2014-07-31T12:31:24.160Z</time>
      </trkpt>
      <trkpt lat="44.93111" lon="6.86035">
        <ele>1936</ele>
        <time>2014-07-31T12:31:26.080Z</time>
      </trkpt>
      <trkpt lat="44.93112" lon="6.8603">
        <ele>1936</ele>
        <time>2014-07-31T12:31:28.180Z</time>
      </trkpt>
      <trkpt lat="44.93113" lon="6.86027">
        <ele>1936</ele>
        <time>2014-07-31T12:31:30.180Z</time>
      </trkpt>
      <trkpt lat="44.93114" lon="6.86023">
        <ele>1936</ele>
        <time>2014-07-31T12:31:32.180Z</time>
      </trkpt>
      <trkpt lat="44.93115" lon="6.86019">
        <ele>1936</ele>
        <time>2014-07-31T12:31:33.970Z</time>
      </trkpt>
      <trkpt lat="44.93114" lon="6.86016">
        <ele>1937</ele>
        <time>2014-07-31T12:31:36.080Z</time>
      </trkpt>
      <trkpt lat="44.93112" lon="6.86013">
        <ele>1937</ele>
        <time>2014-07-31T12:31:38.180Z</time>
      </trkpt>
      <trkpt lat="44.9311" lon="6.86011">
        <ele>1937</ele>
        <time>2014-07-31T12:31:40.080Z</time>
      </trkpt>
      <trkpt lat="44.93108" lon="6.86013">
        <ele>1937</ele>
        <time>2014-07-31T12:31:42.080Z</time>
      </trkpt>
      <trkpt lat="44.93107" lon="6.86014">
        <ele>1937</ele>
        <time>2014-07-31T12:31:43.180Z</time>
      </trkpt>
      <trkpt lat="44.93105" lon="6.86018">
        <ele>1938.2</ele>
        <time>2014-07-31T12:31:45.180Z</time>
      </trkpt>
      <trkpt lat="44.93103" lon="6.86021">
        <ele>1939</ele>
        <time>2014-07-31T12:31:47.080Z</time>
      </trkpt>
      <trkpt lat="44.93102" lon="6.86024">
        <ele>1939</ele>
        <time>2014-07-31T12:31:48.180Z</time>
      </trkpt>
      <trkpt lat="44.93101" lon="6.86027">
        <ele>1939</ele>
        <time>2014-07-31T12:31:50.080Z</time>
      </trkpt>
      <trkpt lat="44.931" lon="6.86032">
        <ele>1939</ele>
        <time>2014-07-31T12:31:52.080Z</time>
      </trkpt>
      <trkpt lat="44.93098" lon="6.86034">
        <ele>1939</ele>
        <time>2014-07-31T12:31:53.180Z</time>
      </trkpt>
      <trkpt lat="44.93097" lon="6.86039">
        <ele>1939.6</ele>
        <time>2014-07-31T12:31:55.180Z</time>
      </trkpt>
      <trkpt lat="44.93097" lon="6.86041">
        <ele>1940</ele>
        <time>2014-07-31T12:31:56.140Z</time>
      </trkpt>
      <trkpt lat="44.93095" lon="6.86045">
        <ele>1940</ele>
        <time>2014-07-31T12:31:58.080Z</time>
      </trkpt>
      <trkpt lat="44.93094" lon="6.86047">
        <ele>1940</ele>
        <time>2014-07-31T12:31:59.180Z</time>
      </trkpt>
      <trkpt lat="44.93092" lon="6.8605">
        <ele>1940</ele>
        <time>2014-07-31T12:32:01.160Z</time>
      </trkpt>
      <trkpt lat="44.93088" lon="6.86054">
        <ele>1940</ele>
        <time>2014-07-31T12:32:03.080Z</time>
      </trkpt>
      <trkpt lat="44.93085" lon="6.86057">
        <ele>1940.5</ele>
        <time>2014-07-31T12:32:05.080Z</time>
      </trkpt>
      <trkpt lat="44.9308" lon="6.86059">
        <ele>1941</ele>
        <time>2014-07-31T12:32:07.080Z</time>
      </trkpt>
      <trkpt lat="44.93078" lon="6.86061">
        <ele>1941</ele>
        <time>2014-07-31T12:32:08.180Z</time>
      </trkpt>
      <trkpt lat="44.93075" lon="6.86064">
        <ele>1941</ele>
        <time>2014-07-31T12:32:10.180Z</time>
      </trkpt>
      <trkpt lat="44.93072" lon="6.86067">
        <ele>1941</ele>
        <time>2014-07-31T12:32:12.000Z</time>
      </trkpt>
      <trkpt lat="44.9307" lon="6.86068">
        <ele>1941</ele>
        <time>2014-07-31T12:32:13.140Z</time>
      </trkpt>
      <trkpt lat="44.93065" lon="6.86074">
        <ele>1942.2</ele>
        <time>2014-07-31T12:32:15.180Z</time>
      </trkpt>
      <trkpt lat="44.93061" lon="6.86077">
        <ele>1943</ele>
        <time>2014-07-31T12:32:17.140Z</time>
      </trkpt>
      <trkpt lat="44.93059" lon="6.86079">
        <ele>1943</ele>
        <time>2014-07-31T12:32:19.080Z</time>
      </trkpt>
      <trkpt lat="44.93057" lon="6.8608">
        <ele>1943</ele>
        <time>2014-07-31T12:32:20.280Z</time>
      </trkpt>
      <trkpt lat="44.93054" lon="6.86083">
        <ele>1943</ele>
        <time>2014-07-31T12:32:22.180Z</time>
      </trkpt>
      <trkpt lat="44.93052" lon="6.86086">
        <ele>1943</ele>
        <time>2014-07-31T12:32:24.160Z</time>
      </trkpt>
      <trkpt lat="44.93048" lon="6.8609">
        <ele>1946</ele>
        <time>2014-07-31T12:32:26.180Z</time>
      </trkpt>
      <trkpt lat="44.93045" lon="6.86092">
        <ele>1946</ele>
        <time>2014-07-31T12:32:28.080Z</time>
      </trkpt>
      <trkpt lat="44.93044" lon="6.86093">
        <ele>1946</ele>
        <time>2014-07-31T12:32:29.180Z</time>
      </trkpt>
      <trkpt lat="44.93042" lon="6.86097">
        <ele>1946</ele>
        <time>2014-07-31T12:32:31.080Z</time>
      </trkpt>
      <trkpt lat="44.93039" lon="6.86099">
        <ele>1946</ele>
        <time>2014-07-31T12:32:33.180Z</time>
      </trkpt>
      <trkpt lat="44.93036" lon="6.86102">
        <ele>1947</ele>
        <time>2014-07-31T12:32:35.080Z</time>
      </trkpt>
      <trkpt lat="44.93033" lon="6.86104">
        <ele>1948</ele>
        <time>2014-07-31T12:32:37.100Z</time>
      </trkpt>
      <trkpt lat="44.9303" lon="6.86106">
        <ele>1948</ele>
        <time>2014-07-31T12:32:39.080Z</time>
      </trkpt>
      <trkpt lat="44.93027" lon="6.86108">
        <ele>1948</ele>
        <time>2014-07-31T12:32:41.180Z</time>
      </trkpt>
      <trkpt lat="44.93023" lon="6.8611">
        <ele>1948</ele>
        <time>2014-07-31T12:32:43.080Z</time>
      </trkpt>
      <trkpt lat="44.93022" lon="6.86111">
        <ele>1948</ele>
        <time>2014-07-31T12:32:44.130Z</time>
      </trkpt>
      <trkpt lat="44.93021" lon="6.86113">
        <ele>1948.6</ele>
        <time>2014-07-31T12:32:45.180Z</time>
      </trkpt>
      <trkpt lat="44.93018" lon="6.86116">
        <ele>1949</ele>
        <time>2014-07-31T12:32:47.040Z</time>
      </trkpt>
      <trkpt lat="44.93017" lon="6.86117">
        <ele>1949</ele>
        <time>2014-07-31T12:32:48.180Z</time>
      </trkpt>
      <trkpt lat="44.93014" lon="6.86118">
        <ele>1949</ele>
        <time>2014-07-31T12:32:50.080Z</time>
      </trkpt>
      <trkpt lat="44.93012" lon="6.86119">
        <ele>1949</ele>
        <time>2014-07-31T12:32:51.140Z</time>
      </trkpt>
      <trkpt lat="44.93008" lon="6.86121">
        <ele>1949</ele>
        <time>2014-07-31T12:32:53.080Z</time>
      </trkpt>
      <trkpt lat="44.93005" lon="6.86123">
        <ele>1950</ele>
        <time>2014-07-31T12:32:55.080Z</time>
      </trkpt>
      <trkpt lat="44.93002" lon="6.86124">
        <ele>1951</ele>
        <time>2014-07-31T12:32:57.180Z</time>
      </trkpt>
      <trkpt lat="44.92999" lon="6.86124">
        <ele>1951</ele>
        <time>2014-07-31T12:32:59.080Z</time>
      </trkpt>
      <trkpt lat="44.92998" lon="6.86125">
        <ele>1951</ele>
        <time>2014-07-31T12:33:00.130Z</time>
      </trkpt>
      <trkpt lat="44.92995" lon="6.86127">
        <ele>1951</ele>
        <time>2014-07-31T12:33:02.080Z</time>
      </trkpt>
      <trkpt lat="44.92993" lon="6.86128">
        <ele>1951</ele>
        <time>2014-07-31T12:33:03.180Z</time>
      </trkpt>
      <trkpt lat="44.92991" lon="6.86129">
        <ele>1951.5</ele>
        <time>2014-07-31T12:33:05.080Z</time>
      </trkpt>
      <trkpt lat="44.9299" lon="6.8613">
        <ele>1952</ele>
        <time>2014-07-31T12:33:06.180Z</time>
      </trkpt>
      <trkpt lat="44.92987" lon="6.86133">
        <ele>1952</ele>
        <time>2014-07-31T12:33:08.080Z</time>
      </trkpt>
      <trkpt lat="44.92983" lon="6.86136">
        <ele>1952</ele>
        <time>2014-07-31T12:33:10.080Z</time>
      </trkpt>
      <trkpt lat="44.92982" lon="6.86137">
        <ele>1952</ele>
        <time>2014-07-31T12:33:11.160Z</time>
      </trkpt>
      <trkpt lat="44.92979" lon="6.86137">
        <ele>1952</ele>
        <time>2014-07-31T12:33:13.080Z</time>
      </trkpt>
      <trkpt lat="44.92975" lon="6.86138">
        <ele>1952.5</ele>
        <time>2014-07-31T12:33:15.080Z</time>
      </trkpt>
      <trkpt lat="44.92972" lon="6.86138">
        <ele>1953</ele>
        <time>2014-07-31T12:33:17.140Z</time>
      </trkpt>
      <trkpt lat="44.9297" lon="6.8614">
        <ele>1953</ele>
        <time>2014-07-31T12:33:19.180Z</time>
      </trkpt>
      <trkpt lat="44.92966" lon="6.86142">
        <ele>1953</ele>
        <time>2014-07-31T12:33:20.980Z</time>
      </trkpt>
      <trkpt lat="44.92964" lon="6.86143">
        <ele>1953</ele>
        <time>2014-07-31T12:33:22.180Z</time>
      </trkpt>
      <trkpt lat="44.9296" lon="6.86142">
        <ele>1953</ele>
        <time>2014-07-31T12:33:24.160Z</time>
      </trkpt>
      <trkpt lat="44.92957" lon="6.86142">
        <ele>1955</ele>
        <time>2014-07-31T12:33:26.080Z</time>
      </trkpt>
      <trkpt lat="44.92954" lon="6.86144">
        <ele>1955</ele>
        <time>2014-07-31T12:33:28.080Z</time>
      </trkpt>
      <trkpt lat="44.92952" lon="6.86146">
        <ele>1955</ele>
        <time>2014-07-31T12:33:30.080Z</time>
      </trkpt>
      <trkpt lat="44.9295" lon="6.86147">
        <ele>1955</ele>
        <time>2014-07-31T12:33:31.180Z</time>
      </trkpt>
      <trkpt lat="44.92947" lon="6.8615">
        <ele>1955</ele>
        <time>2014-07-31T12:33:33.180Z</time>
      </trkpt>
      <trkpt lat="44.92945" lon="6.86152">
        <ele>1956.2</ele>
        <time>2014-07-31T12:33:35.180Z</time>
      </trkpt>
      <trkpt lat="44.92942" lon="6.86154">
        <ele>1957</ele>
        <time>2014-07-31T12:33:37.080Z</time>
      </trkpt>
      <trkpt lat="44.9294" lon="6.86156">
        <ele>1957</ele>
        <time>2014-07-31T12:33:39.080Z</time>
      </trkpt>
      <trkpt lat="44.92938" lon="6.86159">
        <ele>1957</ele>
        <time>2014-07-31T12:33:41.080Z</time>
      </trkpt>
      <trkpt lat="44.92935" lon="6.86162">
        <ele>1957</ele>
        <time>2014-07-31T12:33:43.180Z</time>
      </trkpt>
      <trkpt lat="44.92933" lon="6.86164">
        <ele>1957</ele>
        <time>2014-07-31T12:33:45.180Z</time>
      </trkpt>
      <trkpt lat="44.9293" lon="6.86166">
        <ele>1957</ele>
        <time>2014-07-31T12:33:47.080Z</time>
      </trkpt>
      <trkpt lat="44.92928" lon="6.86168">
        <ele>1957</ele>
        <time>2014-07-31T12:33:49.160Z</time>
      </trkpt>
      <trkpt lat="44.92925" lon="6.8617">
        <ele>1957</ele>
        <time>2014-07-31T12:33:51.040Z</time>
      </trkpt>
      <trkpt lat="44.92923" lon="6.86172">
        <ele>1957</ele>
        <time>2014-07-31T12:33:53.080Z</time>
      </trkpt>
      <trkpt lat="44.92921" lon="6.86174">
        <ele>1958.1</ele>
        <time>2014-07-31T12:33:55.140Z</time>
      </trkpt>
      <trkpt lat="44.92918" lon="6.86175">
        <ele>1959</ele>
        <time>2014-07-31T12:33:57.080Z</time>
      </trkpt>
      <trkpt lat="44.92916" lon="6.86177">
        <ele>1959</ele>
        <time>2014-07-31T12:33:59.180Z</time>
      </trkpt>
      <trkpt lat="44.92915" lon="6.86177">
        <ele>1959</ele>
        <time>2014-07-31T12:34:00.130Z</time>
      </trkpt>
      <trkpt lat="44.92911" lon="6.86179">
        <ele>1959</ele>
        <time>2014-07-31T12:34:02.180Z</time>
      </trkpt>
      <trkpt lat="44.92907" lon="6.86183">
        <ele>1959</ele>
        <time>2014-07-31T12:34:04.080Z</time>
      </trkpt>
      <trkpt lat="44.92905" lon="6.86185">
        <ele>1962</ele>
        <time>2014-07-31T12:34:06.080Z</time>
      </trkpt>
      <trkpt lat="44.92902" lon="6.86187">
        <ele>1962</ele>
        <time>2014-07-31T12:34:08.180Z</time>
      </trkpt>
      <trkpt lat="44.92898" lon="6.86191">
        <ele>1962.5</ele>
        <time>2014-07-31T12:34:10.080Z</time>
      </trkpt>
      <trkpt lat="44.92897" lon="6.86192">
        <ele>1963</ele>
        <time>2014-07-31T12:34:11.130Z</time>
      </trkpt>
      <trkpt lat="44.92896" lon="6.86193">
        <ele>1963</ele>
        <time>2014-07-31T12:34:12.100Z</time>
      </trkpt>
      <trkpt lat="44.92894" lon="6.86194">
        <ele>1963</ele>
        <time>2014-07-31T12:34:14.080Z</time>
      </trkpt>
      <trkpt lat="44.9289" lon="6.86196">
        <ele>1963</ele>
        <time>2014-07-31T12:34:16.080Z</time>
      </trkpt>
      <trkpt lat="44.92889" lon="6.86197">
        <ele>1963</ele>
        <time>2014-07-31T12:34:17.070Z</time>
      </trkpt>
      <trkpt lat="44.92885" lon="6.862">
        <ele>1963</ele>
        <time>2014-07-31T12:34:19.080Z</time>
      </trkpt>
      <trkpt lat="44.92882" lon="6.86202">
        <ele>1963</ele>
        <time>2014-07-31T12:34:21.180Z</time>
      </trkpt>
      <trkpt lat="44.9288" lon="6.86205">
        <ele>1963</ele>
        <time>2014-07-31T12:34:23.080Z</time>
      </trkpt>
      <trkpt lat="44.92877" lon="6.86208">
        <ele>1964.2</ele>
        <time>2014-07-31T12:34:25.160Z</time>
      </trkpt>
      <trkpt lat="44.92875" lon="6.86211">
        <ele>1965</ele>
        <time>2014-07-31T12:34:27.180Z</time>
      </trkpt>
      <trkpt lat="44.92873" lon="6.86214">
        <ele>1965</ele>
        <time>2014-07-31T12:34:29.040Z</time>
      </trkpt>
      <trkpt lat="44.92871" lon="6.86215">
        <ele>1965</ele>
        <time>2014-07-31T12:34:30.180Z</time>
      </trkpt>
      <trkpt lat="44.92869" lon="6.86219">
        <ele>1965</ele>
        <time>2014-07-31T12:34:32.180Z</time>
      </trkpt>
      <trkpt lat="44.92866" lon="6.86221">
        <ele>1965</ele>
        <time>2014-07-31T12:34:34.040Z</time>
      </trkpt>
      <trkpt lat="44.92864" lon="6.86224">
        <ele>1967</ele>
        <time>2014-07-31T12:34:36.080Z</time>
      </trkpt>
      <trkpt lat="44.92862" lon="6.86225">
        <ele>1967</ele>
        <time>2014-07-31T12:34:37.160Z</time>
      </trkpt>
      <trkpt lat="44.9286" lon="6.86227">
        <ele>1967</ele>
        <time>2014-07-31T12:34:39.080Z</time>
      </trkpt>
      <trkpt lat="44.92858" lon="6.86229">
        <ele>1967</ele>
        <time>2014-07-31T12:34:41.080Z</time>
      </trkpt>
      <trkpt lat="44.92857" lon="6.8623">
        <ele>1967</ele>
        <time>2014-07-31T12:34:42.180Z</time>
      </trkpt>
      <trkpt lat="44.92855" lon="6.86232">
        <ele>1967</ele>
        <time>2014-07-31T12:34:44.180Z</time>
      </trkpt>
      <trkpt lat="44.92853" lon="6.86234">
        <ele>1968</ele>
        <time>2014-07-31T12:34:46.040Z</time>
      </trkpt>
      <trkpt lat="44.92852" lon="6.86235">
        <ele>1968</ele>
        <time>2014-07-31T12:34:47.180Z</time>
      </trkpt>
      <trkpt lat="44.92849" lon="6.86238">
        <ele>1968</ele>
        <time>2014-07-31T12:34:49.280Z</time>
      </trkpt>
      <trkpt lat="44.92846" lon="6.86241">
        <ele>1968</ele>
        <time>2014-07-31T12:34:51.140Z</time>
      </trkpt>
      <trkpt lat="44.92844" lon="6.86243">
        <ele>1968</ele>
        <time>2014-07-31T12:34:53.180Z</time>
      </trkpt>
      <trkpt lat="44.92842" lon="6.86245">
        <ele>1969</ele>
        <time>2014-07-31T12:34:55.080Z</time>
      </trkpt>
      <trkpt lat="44.9284" lon="6.86247">
        <ele>1970</ele>
        <time>2014-07-31T12:34:57.080Z</time>
      </trkpt>
      <trkpt lat="44.92838" lon="6.86248">
        <ele>1970</ele>
        <time>2014-07-31T12:34:58.180Z</time>
      </trkpt>
      <trkpt lat="44.92836" lon="6.86249">
        <ele>1970</ele>
        <time>2014-07-31T12:35:00.030Z</time>
      </trkpt>
      <trkpt lat="44.92835" lon="6.86249">
        <ele>1970</ele>
        <time>2014-07-31T12:35:01.150Z</time>
      </trkpt>
      <trkpt lat="44.92833" lon="6.86249">
        <ele>1970</ele>
        <time>2014-07-31T12:35:02.080Z</time>
      </trkpt>
      <trkpt lat="44.92832" lon="6.86249">
        <ele>1970</ele>
        <time>2014-07-31T12:35:03.080Z</time>
      </trkpt>
      <trkpt lat="44.92829" lon="6.8625">
        <ele>1970.6</ele>
        <time>2014-07-31T12:35:05.180Z</time>
      </trkpt>
      <trkpt lat="44.92825" lon="6.86251">
        <ele>1971</ele>
        <time>2014-07-31T12:35:07.080Z</time>
      </trkpt>
      <trkpt lat="44.92824" lon="6.86252">
        <ele>1971</ele>
        <time>2014-07-31T12:35:08.180Z</time>
      </trkpt>
      <trkpt lat="44.92822" lon="6.86252">
        <ele>1971</ele>
        <time>2014-07-31T12:35:10.180Z</time>
      </trkpt>
      <trkpt lat="44.92818" lon="6.86252">
        <ele>1971</ele>
        <time>2014-07-31T12:35:12.080Z</time>
      </trkpt>
      <trkpt lat="44.92816" lon="6.86252">
        <ele>1971</ele>
        <time>2014-07-31T12:35:13.180Z</time>
      </trkpt>
      <trkpt lat="44.92813" lon="6.86252">
        <ele>1972</ele>
        <time>2014-07-31T12:35:15.080Z</time>
      </trkpt>
      <trkpt lat="44.9281" lon="6.86251">
        <ele>1973</ele>
        <time>2014-07-31T12:35:17.140Z</time>
      </trkpt>
      <trkpt lat="44.92807" lon="6.8625">
        <ele>1973</ele>
        <time>2014-07-31T12:35:19.180Z</time>
      </trkpt>
      <trkpt lat="44.92804" lon="6.8625">
        <ele>1973</ele>
        <time>2014-07-31T12:35:21.080Z</time>
      </trkpt>
      <trkpt lat="44.92801" lon="6.8625">
        <ele>1973</ele>
        <time>2014-07-31T12:35:23.180Z</time>
      </trkpt>
      <trkpt lat="44.92798" lon="6.86249">
        <ele>1973.5</ele>
        <time>2014-07-31T12:35:25.080Z</time>
      </trkpt>
      <trkpt lat="44.92796" lon="6.86248">
        <ele>1974</ele>
        <time>2014-07-31T12:35:26.160Z</time>
      </trkpt>
      <trkpt lat="44.92794" lon="6.86247">
        <ele>1974</ele>
        <time>2014-07-31T12:35:28.180Z</time>
      </trkpt>
      <trkpt lat="44.92792" lon="6.86245">
        <ele>1974</ele>
        <time>2014-07-31T12:35:30.180Z</time>
      </trkpt>
      <trkpt lat="44.9279" lon="6.86242">
        <ele>1974</ele>
        <time>2014-07-31T12:35:32.080Z</time>
      </trkpt>
      <trkpt lat="44.92788" lon="6.86241">
        <ele>1974</ele>
        <time>2014-07-31T12:35:33.180Z</time>
      </trkpt>
      <trkpt lat="44.92786" lon="6.86237">
        <ele>1974.5</ele>
        <time>2014-07-31T12:35:35.080Z</time>
      </trkpt>
      <trkpt lat="44.92784" lon="6.86236">
        <ele>1975</ele>
        <time>2014-07-31T12:35:36.180Z</time>
      </trkpt>
      <trkpt lat="44.92781" lon="6.86233">
        <ele>1975</ele>
        <time>2014-07-31T12:35:38.080Z</time>
      </trkpt>
      <trkpt lat="44.9278" lon="6.86233">
        <ele>1975</ele>
        <time>2014-07-31T12:35:39.160Z</time>
      </trkpt>
      <trkpt lat="44.92776" lon="6.86232">
        <ele>1975</ele>
        <time>2014-07-31T12:35:41.080Z</time>
      </trkpt>
      <trkpt lat="44.92773" lon="6.86232">
        <ele>1975</ele>
        <time>2014-07-31T12:35:43.080Z</time>
      </trkpt>
      <trkpt lat="44.92772" lon="6.86232">
        <ele>1975</ele>
        <time>2014-07-31T12:35:44.180Z</time>
      </trkpt>
      <trkpt lat="44.92769" lon="6.8623">
        <ele>1977</ele>
        <time>2014-07-31T12:35:46.180Z</time>
      </trkpt>
      <trkpt lat="44.92766" lon="6.86228">
        <ele>1977</ele>
        <time>2014-07-31T12:35:48.180Z</time>
      </trkpt>
      <trkpt lat="44.92764" lon="6.86227">
        <ele>1977</ele>
        <time>2014-07-31T12:35:50.080Z</time>
      </trkpt>
      <trkpt lat="44.92763" lon="6.86227">
        <ele>1977</ele>
        <time>2014-07-31T12:35:51.100Z</time>
      </trkpt>
      <trkpt lat="44.9276" lon="6.86226">
        <ele>1977</ele>
        <time>2014-07-31T12:35:53.080Z</time>
      </trkpt>
      <trkpt lat="44.92759" lon="6.86225">
        <ele>1977</ele>
        <time>2014-07-31T12:35:54.140Z</time>
      </trkpt>
      <trkpt lat="44.92756" lon="6.86224">
        <ele>1978</ele>
        <time>2014-07-31T12:35:56.080Z</time>
      </trkpt>
      <trkpt lat="44.92753" lon="6.86221">
        <ele>1978</ele>
        <time>2014-07-31T12:35:58.080Z</time>
      </trkpt>
      <trkpt lat="44.9275" lon="6.8622">
        <ele>1978</ele>
        <time>2014-07-31T12:35:59.970Z</time>
      </trkpt>
      <trkpt lat="44.92747" lon="6.86219">
        <ele>1978</ele>
        <time>2014-07-31T12:36:02.080Z</time>
      </trkpt>
      <trkpt lat="44.92744" lon="6.86218">
        <ele>1978</ele>
        <time>2014-07-31T12:36:04.080Z</time>
      </trkpt>
      <trkpt lat="44.92743" lon="6.86218">
        <ele>1978.7</ele>
        <time>2014-07-31T12:36:05.280Z</time>
      </trkpt>
      <trkpt lat="44.9274" lon="6.86217">
        <ele>1979</ele>
        <time>2014-07-31T12:36:07.180Z</time>
      </trkpt>
      <trkpt lat="44.92737" lon="6.86216">
        <ele>1979</ele>
        <time>2014-07-31T12:36:09.080Z</time>
      </trkpt>
      <trkpt lat="44.92733" lon="6.86215">
        <ele>1979</ele>
        <time>2014-07-31T12:36:11.140Z</time>
      </trkpt>
      <trkpt lat="44.92731" lon="6.86214">
        <ele>1979</ele>
        <time>2014-07-31T12:36:13.180Z</time>
      </trkpt>
      <trkpt lat="44.92728" lon="6.86215">
        <ele>1980.2</ele>
        <time>2014-07-31T12:36:15.180Z</time>
      </trkpt>
      <trkpt lat="44.92725" lon="6.86216">
        <ele>1981</ele>
        <time>2014-07-31T12:36:17.100Z</time>
      </trkpt>
      <trkpt lat="44.92724" lon="6.86216">
        <ele>1981</ele>
        <time>2014-07-31T12:36:18.180Z</time>
      </trkpt>
      <trkpt lat="44.92721" lon="6.86217">
        <ele>1981</ele>
        <time>2014-07-31T12:36:20.180Z</time>
      </trkpt>
      <trkpt lat="44.92718" lon="6.86218">
        <ele>1981</ele>
        <time>2014-07-31T12:36:22.080Z</time>
      </trkpt>
      <trkpt lat="44.92717" lon="6.86219">
        <ele>1981</ele>
        <time>2014-07-31T12:36:23.180Z</time>
      </trkpt>
      <trkpt lat="44.92714" lon="6.86219">
        <ele>1981.6</ele>
        <time>2014-07-31T12:36:25.180Z</time>
      </trkpt>
      <trkpt lat="44.92711" lon="6.86221">
        <ele>1982</ele>
        <time>2014-07-31T12:36:27.080Z</time>
      </trkpt>
      <trkpt lat="44.92709" lon="6.86222">
        <ele>1982</ele>
        <time>2014-07-31T12:36:28.140Z</time>
      </trkpt>
      <trkpt lat="44.92706" lon="6.86222">
        <ele>1982</ele>
        <time>2014-07-31T12:36:30.080Z</time>
      </trkpt>
      <trkpt lat="44.92704" lon="6.86223">
        <ele>1982</ele>
        <time>2014-07-31T12:36:31.080Z</time>
      </trkpt>
      <trkpt lat="44.92701" lon="6.86223">
        <ele>1982</ele>
        <time>2014-07-31T12:36:33.180Z</time>
      </trkpt>
      <trkpt lat="44.92698" lon="6.86223">
        <ele>1983</ele>
        <time>2014-07-31T12:36:35.080Z</time>
      </trkpt>
      <trkpt lat="44.92694" lon="6.86223">
        <ele>1984</ele>
        <time>2014-07-31T12:36:37.080Z</time>
      </trkpt>
      <trkpt lat="44.92693" lon="6.86223">
        <ele>1984</ele>
        <time>2014-07-31T12:36:38.180Z</time>
      </trkpt>
      <trkpt lat="44.9269" lon="6.86222">
        <ele>1984</ele>
        <time>2014-07-31T12:36:40.180Z</time>
      </trkpt>
      <trkpt lat="44.92687" lon="6.86221">
        <ele>1984</ele>
        <time>2014-07-31T12:36:42.180Z</time>
      </trkpt>
      <trkpt lat="44.92684" lon="6.86221">
        <ele>1984</ele>
        <time>2014-07-31T12:36:44.080Z</time>
      </trkpt>
      <trkpt lat="44.92682" lon="6.8622">
        <ele>1985.1</ele>
        <time>2014-07-31T12:36:45.140Z</time>
      </trkpt>
      <trkpt lat="44.9268" lon="6.86219">
        <ele>1986</ele>
        <time>2014-07-31T12:36:47.080Z</time>
      </trkpt>
      <trkpt lat="44.92677" lon="6.86218">
        <ele>1986</ele>
        <time>2014-07-31T12:36:49.160Z</time>
      </trkpt>
      <trkpt lat="44.92674" lon="6.86218">
        <ele>1986</ele>
        <time>2014-07-31T12:36:51.040Z</time>
      </trkpt>
      <trkpt lat="44.92672" lon="6.86219">
        <ele>1986</ele>
        <time>2014-07-31T12:36:53.080Z</time>
      </trkpt>
      <trkpt lat="44.92669" lon="6.8622">
        <ele>1987</ele>
        <time>2014-07-31T12:36:55.070Z</time>
      </trkpt>
      <trkpt lat="44.92667" lon="6.8622">
        <ele>1988</ele>
        <time>2014-07-31T12:36:56.080Z</time>
      </trkpt>
      <trkpt lat="44.92664" lon="6.86222">
        <ele>1988</ele>
        <time>2014-07-31T12:36:58.080Z</time>
      </trkpt>
      <trkpt lat="44.9266" lon="6.86222">
        <ele>1988</ele>
        <time>2014-07-31T12:36:59.970Z</time>
      </trkpt>
      <trkpt lat="44.92657" lon="6.86221">
        <ele>1988</ele>
        <time>2014-07-31T12:37:02.140Z</time>
      </trkpt>
      <trkpt lat="44.92654" lon="6.8622">
        <ele>1988</ele>
        <time>2014-07-31T12:37:04.080Z</time>
      </trkpt>
      <trkpt lat="44.92651" lon="6.86219">
        <ele>1989</ele>
        <time>2014-07-31T12:37:06.080Z</time>
      </trkpt>
      <trkpt lat="44.92648" lon="6.86217">
        <ele>1989</ele>
        <time>2014-07-31T12:37:08.180Z</time>
      </trkpt>
      <trkpt lat="44.92646" lon="6.86215">
        <ele>1989</ele>
        <time>2014-07-31T12:37:10.180Z</time>
      </trkpt>
      <trkpt lat="44.92643" lon="6.86214">
        <ele>1989</ele>
        <time>2014-07-31T12:37:12.180Z</time>
      </trkpt>
      <trkpt lat="44.9264" lon="6.86213">
        <ele>1989</ele>
        <time>2014-07-31T12:37:14.180Z</time>
      </trkpt>
      <trkpt lat="44.92637" lon="6.86212">
        <ele>1991</ele>
        <time>2014-07-31T12:37:16.180Z</time>
      </trkpt>
      <trkpt lat="44.92634" lon="6.8621">
        <ele>1991</ele>
        <time>2014-07-31T12:37:18.080Z</time>
      </trkpt>
      <trkpt lat="44.92632" lon="6.8621">
        <ele>1991</ele>
        <time>2014-07-31T12:37:19.140Z</time>
      </trkpt>
      <trkpt lat="44.92631" lon="6.8621">
        <ele>1991</ele>
        <time>2014-07-31T12:37:20.180Z</time>
      </trkpt>
      <trkpt lat="44.92628" lon="6.86211">
        <ele>1991</ele>
        <time>2014-07-31T12:37:22.080Z</time>
      </trkpt>
      <trkpt lat="44.92626" lon="6.86211">
        <ele>1991</ele>
        <time>2014-07-31T12:37:23.180Z</time>
      </trkpt>
      <trkpt lat="44.92623" lon="6.86211">
        <ele>1992</ele>
        <time>2014-07-31T12:37:25.070Z</time>
      </trkpt>
      <trkpt lat="44.92621" lon="6.86213">
        <ele>1993</ele>
        <time>2014-07-31T12:37:27.080Z</time>
      </trkpt>
      <trkpt lat="44.92619" lon="6.86214">
        <ele>1993</ele>
        <time>2014-07-31T12:37:28.180Z</time>
      </trkpt>
      <trkpt lat="44.92617" lon="6.86215">
        <ele>1993</ele>
        <time>2014-07-31T12:37:30.080Z</time>
      </trkpt>
      <trkpt lat="44.92615" lon="6.86216">
        <ele>1993</ele>
        <time>2014-07-31T12:37:32.180Z</time>
      </trkpt>
      <trkpt lat="44.92614" lon="6.86218">
        <ele>1993</ele>
        <time>2014-07-31T12:37:33.180Z</time>
      </trkpt>
      <trkpt lat="44.92611" lon="6.8622">
        <ele>1993.5</ele>
        <time>2014-07-31T12:37:35.070Z</time>
      </trkpt>
      <trkpt lat="44.92609" lon="6.86221">
        <ele>1994</ele>
        <time>2014-07-31T12:37:36.140Z</time>
      </trkpt>
      <trkpt lat="44.92606" lon="6.86223">
        <ele>1994</ele>
        <time>2014-07-31T12:37:38.180Z</time>
      </trkpt>
      <trkpt lat="44.92604" lon="6.86225">
        <ele>1994</ele>
        <time>2014-07-31T12:37:40.180Z</time>
      </trkpt>
      <trkpt lat="44.92602" lon="6.86228">
        <ele>1994</ele>
        <time>2014-07-31T12:37:42.080Z</time>
      </trkpt>
      <trkpt lat="44.92601" lon="6.86229">
        <ele>1994</ele>
        <time>2014-07-31T12:37:43.170Z</time>
      </trkpt>
      <trkpt lat="44.92599" lon="6.86231">
        <ele>1994.5</ele>
        <time>2014-07-31T12:37:45.070Z</time>
      </trkpt>
      <trkpt lat="44.92596" lon="6.86232">
        <ele>1995</ele>
        <time>2014-07-31T12:37:47.070Z</time>
      </trkpt>
      <trkpt lat="44.92593" lon="6.86233">
        <ele>1995</ele>
        <time>2014-07-31T12:37:49.170Z</time>
      </trkpt>
      <trkpt lat="44.9259" lon="6.86234">
        <ele>1995</ele>
        <time>2014-07-31T12:37:51.040Z</time>
      </trkpt>
      <trkpt lat="44.92586" lon="6.86235">
        <ele>1995</ele>
        <time>2014-07-31T12:37:53.120Z</time>
      </trkpt>
      <trkpt lat="44.92583" lon="6.86236">
        <ele>1996</ele>
        <time>2014-07-31T12:37:55.070Z</time>
      </trkpt>
      <trkpt lat="44.92579" lon="6.86235">
        <ele>1997</ele>
        <time>2014-07-31T12:37:57.160Z</time>
      </trkpt>
      <trkpt lat="44.92578" lon="6.86235">
        <ele>1997</ele>
        <time>2014-07-31T12:37:58.180Z</time>
      </trkpt>
      <trkpt lat="44.92576" lon="6.86236">
        <ele>1997</ele>
        <time>2014-07-31T12:38:00.030Z</time>
      </trkpt>
      <trkpt lat="44.92573" lon="6.86236">
        <ele>1997</ele>
        <time>2014-07-31T12:38:02.170Z</time>
      </trkpt>
      <trkpt lat="44.92569" lon="6.86237">
        <ele>1997</ele>
        <time>2014-07-31T12:38:04.180Z</time>
      </trkpt>
      <trkpt lat="44.92567" lon="6.86238">
        <ele>1999</ele>
        <time>2014-07-31T12:38:06.180Z</time>
      </trkpt>
      <trkpt lat="44.92564" lon="6.86239">
        <ele>1999</ele>
        <time>2014-07-31T12:38:08.080Z</time>
      </trkpt>
      <trkpt lat="44.92563" lon="6.86239">
        <ele>1999</ele>
        <time>2014-07-31T12:38:09.160Z</time>
      </trkpt>
      <trkpt lat="44.9256" lon="6.8624">
        <ele>1999</ele>
        <time>2014-07-31T12:38:11.070Z</time>
      </trkpt>
      <trkpt lat="44.92558" lon="6.86241">
        <ele>1999</ele>
        <time>2014-07-31T12:38:13.070Z</time>
      </trkpt>
      <trkpt lat="44.92554" lon="6.86242">
        <ele>1999.6</ele>
        <time>2014-07-31T12:38:15.170Z</time>
      </trkpt>
      <trkpt lat="44.92551" lon="6.86243">
        <ele>2000</ele>
        <time>2014-07-31T12:38:17.040Z</time>
      </trkpt>
      <trkpt lat="44.92548" lon="6.86243">
        <ele>2000</ele>
        <time>2014-07-31T12:38:19.070Z</time>
      </trkpt>
      <trkpt lat="44.92545" lon="6.86244">
        <ele>2000</ele>
        <time>2014-07-31T12:38:21.160Z</time>
      </trkpt>
      <trkpt lat="44.92541" lon="6.86244">
        <ele>2000</ele>
        <time>2014-07-31T12:38:23.280Z</time>
      </trkpt>
      <trkpt lat="44.92538" lon="6.86244">
        <ele>2001</ele>
        <time>2014-07-31T12:38:25.070Z</time>
      </trkpt>
      <trkpt lat="44.92534" lon="6.86243">
        <ele>2002</ele>
        <time>2014-07-31T12:38:27.140Z</time>
      </trkpt>
      <trkpt lat="44.92531" lon="6.86243">
        <ele>2002</ele>
        <time>2014-07-31T12:38:29.070Z</time>
      </trkpt>
      <trkpt lat="44.92528" lon="6.86245">
        <ele>2002</ele>
        <time>2014-07-31T12:38:31.070Z</time>
      </trkpt>
      <trkpt lat="44.92526" lon="6.86245">
        <ele>2002</ele>
        <time>2014-07-31T12:38:32.160Z</time>
      </trkpt>
      <trkpt lat="44.92524" lon="6.86248">
        <ele>2002</ele>
        <time>2014-07-31T12:38:34.040Z</time>
      </trkpt>
      <trkpt lat="44.92521" lon="6.86249">
        <ele>2003</ele>
        <time>2014-07-31T12:38:36.170Z</time>
      </trkpt>
      <trkpt lat="44.92518" lon="6.86251">
        <ele>2003</ele>
        <time>2014-07-31T12:38:38.170Z</time>
      </trkpt>
      <trkpt lat="44.92516" lon="6.86251">
        <ele>2003</ele>
        <time>2014-07-31T12:38:40.170Z</time>
      </trkpt>
      <trkpt lat="44.92513" lon="6.86252">
        <ele>2003</ele>
        <time>2014-07-31T12:38:42.070Z</time>
      </trkpt>
      <trkpt lat="44.9251" lon="6.86252">
        <ele>2003</ele>
        <time>2014-07-31T12:38:44.100Z</time>
      </trkpt>
      <trkpt lat="44.92507" lon="6.86251">
        <ele>2005</ele>
        <time>2014-07-31T12:38:46.070Z</time>
      </trkpt>
      <trkpt lat="44.92504" lon="6.86249">
        <ele>2005</ele>
        <time>2014-07-31T12:38:48.070Z</time>
      </trkpt>
      <trkpt lat="44.92502" lon="6.86249">
        <ele>2005</ele>
        <time>2014-07-31T12:38:49.170Z</time>
      </trkpt>
      <trkpt lat="44.925" lon="6.86247">
        <ele>2005</ele>
        <time>2014-07-31T12:38:51.040Z</time>
      </trkpt>
      <trkpt lat="44.92498" lon="6.86245">
        <ele>2005</ele>
        <time>2014-07-31T12:38:53.070Z</time>
      </trkpt>
      <trkpt lat="44.92496" lon="6.86244">
        <ele>2005</ele>
        <time>2014-07-31T12:38:54.170Z</time>
      </trkpt>
      <trkpt lat="44.92492" lon="6.86244">
        <ele>2006</ele>
        <time>2014-07-31T12:38:56.060Z</time>
      </trkpt>
      <trkpt lat="44.9249" lon="6.86244">
        <ele>2006</ele>
        <time>2014-07-31T12:38:57.170Z</time>
      </trkpt>
      <trkpt lat="44.92487" lon="6.86244">
        <ele>2006</ele>
        <time>2014-07-31T12:38:59.070Z</time>
      </trkpt>
      <trkpt lat="44.92484" lon="6.86245">
        <ele>2006</ele>
        <time>2014-07-31T12:39:01.140Z</time>
      </trkpt>
      <trkpt lat="44.92483" lon="6.86246">
        <ele>2006</ele>
        <time>2014-07-31T12:39:02.170Z</time>
      </trkpt>
      <trkpt lat="44.9248" lon="6.86247">
        <ele>2006</ele>
        <time>2014-07-31T12:39:04.070Z</time>
      </trkpt>
      <trkpt lat="44.92478" lon="6.86247">
        <ele>2006.6</ele>
        <time>2014-07-31T12:39:05.160Z</time>
      </trkpt>
      <trkpt lat="44.92475" lon="6.86247">
        <ele>2007</ele>
        <time>2014-07-31T12:39:07.170Z</time>
      </trkpt>
      <trkpt lat="44.92472" lon="6.86247">
        <ele>2007</ele>
        <time>2014-07-31T12:39:09.170Z</time>
      </trkpt>
      <trkpt lat="44.9247" lon="6.86246">
        <ele>2007</ele>
        <time>2014-07-31T12:39:11.070Z</time>
      </trkpt>
      <trkpt lat="44.92466" lon="6.86244">
        <ele>2007</ele>
        <time>2014-07-31T12:39:13.070Z</time>
      </trkpt>
      <trkpt lat="44.92464" lon="6.86243">
        <ele>2007</ele>
        <time>2014-07-31T12:39:14.170Z</time>
      </trkpt>
      <trkpt lat="44.92462" lon="6.86243">
        <ele>2008.2</ele>
        <time>2014-07-31T12:39:15.170Z</time>
      </trkpt>
      <trkpt lat="44.92458" lon="6.86241">
        <ele>2009</ele>
        <time>2014-07-31T12:39:17.000Z</time>
      </trkpt>
      <trkpt lat="44.92455" lon="6.86239">
        <ele>2009</ele>
        <time>2014-07-31T12:39:19.070Z</time>
      </trkpt>
      <trkpt lat="44.92453" lon="6.86237">
        <ele>2009</ele>
        <time>2014-07-31T12:39:21.070Z</time>
      </trkpt>
      <trkpt lat="44.92451" lon="6.86236">
        <ele>2009</ele>
        <time>2014-07-31T12:39:22.170Z</time>
      </trkpt>
      <trkpt lat="44.92448" lon="6.86235">
        <ele>2009</ele>
        <time>2014-07-31T12:39:24.070Z</time>
      </trkpt>
      <trkpt lat="44.92445" lon="6.86233">
        <ele>2010</ele>
        <time>2014-07-31T12:39:26.070Z</time>
      </trkpt>
      <trkpt lat="44.92443" lon="6.86233">
        <ele>2010</ele>
        <time>2014-07-31T12:39:27.280Z</time>
      </trkpt>
      <trkpt lat="44.9244" lon="6.86233">
        <ele>2010</ele>
        <time>2014-07-31T12:39:29.170Z</time>
      </trkpt>
      <trkpt lat="44.92437" lon="6.86233">
        <ele>2010</ele>
        <time>2014-07-31T12:39:31.070Z</time>
      </trkpt>
      <trkpt lat="44.92436" lon="6.86233">
        <ele>2010</ele>
        <time>2014-07-31T12:39:33.070Z</time>
      </trkpt>
      <trkpt lat="44.92435" lon="6.86232">
        <ele>2010</ele>
        <time>2014-07-31T12:39:34.140Z</time>
      </trkpt>
      <trkpt lat="44.92433" lon="6.86234">
        <ele>2012</ele>
        <time>2014-07-31T12:39:36.170Z</time>
      </trkpt>
      <trkpt lat="44.92431" lon="6.86235">
        <ele>2012</ele>
        <time>2014-07-31T12:39:38.170Z</time>
      </trkpt>
      <trkpt lat="44.9243" lon="6.86236">
        <ele>2012</ele>
        <time>2014-07-31T12:39:40.070Z</time>
      </trkpt>
      <trkpt lat="44.92428" lon="6.86238">
        <ele>2012</ele>
        <time>2014-07-31T12:39:42.160Z</time>
      </trkpt>
      <trkpt lat="44.92425" lon="6.8624">
        <ele>2012</ele>
        <time>2014-07-31T12:39:44.070Z</time>
      </trkpt>
      <trkpt lat="44.92422" lon="6.86243">
        <ele>2015</ele>
        <time>2014-07-31T12:39:46.070Z</time>
      </trkpt>
      <trkpt lat="44.9242" lon="6.86244">
        <ele>2015</ele>
        <time>2014-07-31T12:39:47.170Z</time>
      </trkpt>
      <trkpt lat="44.92416" lon="6.86245">
        <ele>2015</ele>
        <time>2014-07-31T12:39:49.170Z</time>
      </trkpt>
      <trkpt lat="44.92412" lon="6.86246">
        <ele>2016</ele>
        <time>2014-07-31T12:39:51.040Z</time>
      </trkpt>
      <trkpt lat="44.92409" lon="6.86246">
        <ele>2016</ele>
        <time>2014-07-31T12:39:53.070Z</time>
      </trkpt>
      <trkpt lat="44.92405" lon="6.86248">
        <ele>2016</ele>
        <time>2014-07-31T12:39:55.070Z</time>
      </trkpt>
      <trkpt lat="44.92404" lon="6.86249">
        <ele>2016</ele>
        <time>2014-07-31T12:39:56.170Z</time>
      </trkpt>
      <trkpt lat="44.924" lon="6.8625">
        <ele>2016</ele>
        <time>2014-07-31T12:39:58.170Z</time>
      </trkpt>
      <trkpt lat="44.92397" lon="6.86251">
        <ele>2016</ele>
        <time>2014-07-31T12:40:00.030Z</time>
      </trkpt>
      <trkpt lat="44.92394" lon="6.86252">
        <ele>2016</ele>
        <time>2014-07-31T12:40:02.070Z</time>
      </trkpt>
      <trkpt lat="44.92392" lon="6.86254">
        <ele>2016</ele>
        <time>2014-07-31T12:40:04.240Z</time>
      </trkpt>
      <trkpt lat="44.9239" lon="6.86255">
        <ele>2017.2</ele>
        <time>2014-07-31T12:40:05.170Z</time>
      </trkpt>
      <trkpt lat="44.92388" lon="6.86256">
        <ele>2018</ele>
        <time>2014-07-31T12:40:07.170Z</time>
      </trkpt>
      <trkpt lat="44.92385" lon="6.86258">
        <ele>2018</ele>
        <time>2014-07-31T12:40:09.140Z</time>
      </trkpt>
      <trkpt lat="44.92382" lon="6.8626">
        <ele>2018</ele>
        <time>2014-07-31T12:40:11.170Z</time>
      </trkpt>
      <trkpt lat="44.92379" lon="6.86262">
        <ele>2018</ele>
        <time>2014-07-31T12:40:13.070Z</time>
      </trkpt>
      <trkpt lat="44.92376" lon="6.86263">
        <ele>2018.5</ele>
        <time>2014-07-31T12:40:15.070Z</time>
      </trkpt>
      <trkpt lat="44.92372" lon="6.86263">
        <ele>2019</ele>
        <time>2014-07-31T12:40:17.040Z</time>
      </trkpt>
      <trkpt lat="44.92368" lon="6.86265">
        <ele>2019</ele>
        <time>2014-07-31T12:40:19.070Z</time>
      </trkpt>
      <trkpt lat="44.92364" lon="6.86265">
        <ele>2019</ele>
        <time>2014-07-31T12:40:21.170Z</time>
      </trkpt>
      <trkpt lat="44.9236" lon="6.86265">
        <ele>2019</ele>
        <time>2014-07-31T12:40:23.170Z</time>
      </trkpt>
      <trkpt lat="44.92357" lon="6.86265">
        <ele>2019.6</ele>
        <time>2014-07-31T12:40:25.170Z</time>
      </trkpt>
      <trkpt lat="44.92354" lon="6.86265">
        <ele>2020</ele>
        <time>2014-07-31T12:40:27.170Z</time>
      </trkpt>
      <trkpt lat="44.9235" lon="6.86265">
        <ele>2020</ele>
        <time>2014-07-31T12:40:29.060Z</time>
      </trkpt>
      <trkpt lat="44.92349" lon="6.86265">
        <ele>2020</ele>
        <time>2014-07-31T12:40:30.070Z</time>
      </trkpt>
      <trkpt lat="44.92345" lon="6.86265">
        <ele>2020</ele>
        <time>2014-07-31T12:40:32.070Z</time>
      </trkpt>
      <trkpt lat="44.92342" lon="6.86265">
        <ele>2020</ele>
        <time>2014-07-31T12:40:34.140Z</time>
      </trkpt>
      <trkpt lat="44.92339" lon="6.86264">
        <ele>2022</ele>
        <time>2014-07-31T12:40:36.170Z</time>
      </trkpt>
      <trkpt lat="44.92336" lon="6.86264">
        <ele>2022</ele>
        <time>2014-07-31T12:40:38.170Z</time>
      </trkpt>
      <trkpt lat="44.92333" lon="6.86263">
        <ele>2022</ele>
        <time>2014-07-31T12:40:40.070Z</time>
      </trkpt>
      <trkpt lat="44.92331" lon="6.86263">
        <ele>2022</ele>
        <time>2014-07-31T12:40:41.160Z</time>
      </trkpt>
      <trkpt lat="44.92327" lon="6.86264">
        <ele>2022</ele>
        <time>2014-07-31T12:40:43.140Z</time>
      </trkpt>
      <trkpt lat="44.92324" lon="6.86264">
        <ele>2023.2</ele>
        <time>2014-07-31T12:40:45.170Z</time>
      </trkpt>
      <trkpt lat="44.92321" lon="6.86264">
        <ele>2024</ele>
        <time>2014-07-31T12:40:47.070Z</time>
      </trkpt>
      <trkpt lat="44.92318" lon="6.86263">
        <ele>2024</ele>
        <time>2014-07-31T12:40:49.070Z</time>
      </trkpt>
      <trkpt lat="44.92315" lon="6.86263">
        <ele>2024</ele>
        <time>2014-07-31T12:40:50.970Z</time>
      </trkpt>
      <trkpt lat="44.92313" lon="6.86263">
        <ele>2024</ele>
        <time>2014-07-31T12:40:52.170Z</time>
      </trkpt>
      <trkpt lat="44.9231" lon="6.86263">
        <ele>2024</ele>
        <time>2014-07-31T12:40:54.160Z</time>
      </trkpt>
      <trkpt lat="44.92309" lon="6.86263">
        <ele>2024.6</ele>
        <time>2014-07-31T12:40:55.170Z</time>
      </trkpt>
      <trkpt lat="44.92305" lon="6.86261">
        <ele>2025</ele>
        <time>2014-07-31T12:40:57.170Z</time>
      </trkpt>
      <trkpt lat="44.92302" lon="6.8626">
        <ele>2025</ele>
        <time>2014-07-31T12:40:59.070Z</time>
      </trkpt>
      <trkpt lat="44.923" lon="6.86257">
        <ele>2025</ele>
        <time>2014-07-31T12:41:01.070Z</time>
      </trkpt>
      <trkpt lat="44.92299" lon="6.86256">
        <ele>2025</ele>
        <time>2014-07-31T12:41:02.160Z</time>
      </trkpt>
      <trkpt lat="44.92296" lon="6.86253">
        <ele>2025</ele>
        <time>2014-07-31T12:41:04.070Z</time>
      </trkpt>
      <trkpt lat="44.92294" lon="6.8625">
        <ele>2027</ele>
        <time>2014-07-31T12:41:06.070Z</time>
      </trkpt>
      <trkpt lat="44.92291" lon="6.86246">
        <ele>2027</ele>
        <time>2014-07-31T12:41:08.170Z</time>
      </trkpt>
      <trkpt lat="44.92288" lon="6.86243">
        <ele>2027</ele>
        <time>2014-07-31T12:41:10.170Z</time>
      </trkpt>
      <trkpt lat="44.92284" lon="6.86241">
        <ele>2027</ele>
        <time>2014-07-31T12:41:12.170Z</time>
      </trkpt>
      <trkpt lat="44.92281" lon="6.8624">
        <ele>2027</ele>
        <time>2014-07-31T12:41:14.070Z</time>
      </trkpt>
      <trkpt lat="44.92279" lon="6.86239">
        <ele>2027.6</ele>
        <time>2014-07-31T12:41:15.160Z</time>
      </trkpt>
      <trkpt lat="44.92276" lon="6.86238">
        <ele>2028</ele>
        <time>2014-07-31T12:41:17.060Z</time>
      </trkpt>
      <trkpt lat="44.92275" lon="6.86237">
        <ele>2028</ele>
        <time>2014-07-31T12:41:18.170Z</time>
      </trkpt>
      <trkpt lat="44.92272" lon="6.86235">
        <ele>2028</ele>
        <time>2014-07-31T12:41:20.170Z</time>
      </trkpt>
      <trkpt lat="44.92269" lon="6.86234">
        <ele>2028</ele>
        <time>2014-07-31T12:41:22.170Z</time>
      </trkpt>
      <trkpt lat="44.92265" lon="6.86234">
        <ele>2028</ele>
        <time>2014-07-31T12:41:24.070Z</time>
      </trkpt>
      <trkpt lat="44.92262" lon="6.86234">
        <ele>2029</ele>
        <time>2014-07-31T12:41:26.070Z</time>
      </trkpt>
      <trkpt lat="44.92259" lon="6.86235">
        <ele>2029</ele>
        <time>2014-07-31T12:41:28.070Z</time>
      </trkpt>
      <trkpt lat="44.92256" lon="6.86236">
        <ele>2029</ele>
        <time>2014-07-31T12:41:30.070Z</time>
      </trkpt>
      <trkpt lat="44.92253" lon="6.86238">
        <ele>2029</ele>
        <time>2014-07-31T12:41:32.070Z</time>
      </trkpt>
      <trkpt lat="44.92251" lon="6.86239">
        <ele>2029</ele>
        <time>2014-07-31T12:41:33.170Z</time>
      </trkpt>
      <trkpt lat="44.92249" lon="6.86242">
        <ele>2029.5</ele>
        <time>2014-07-31T12:41:35.070Z</time>
      </trkpt>
      <trkpt lat="44.92245" lon="6.86245">
        <ele>2030</ele>
        <time>2014-07-31T12:41:37.070Z</time>
      </trkpt>
      <trkpt lat="44.92243" lon="6.86246">
        <ele>2030</ele>
        <time>2014-07-31T12:41:38.160Z</time>
      </trkpt>
      <trkpt lat="44.92239" lon="6.86247">
        <ele>2030</ele>
        <time>2014-07-31T12:41:40.170Z</time>
      </trkpt>
      <trkpt lat="44.92234" lon="6.86247">
        <ele>2030</ele>
        <time>2014-07-31T12:41:42.170Z</time>
      </trkpt>
      <trkpt lat="44.9223" lon="6.86246">
        <ele>2030</ele>
        <time>2014-07-31T12:41:44.170Z</time>
      </trkpt>
      <trkpt lat="44.92227" lon="6.86245">
        <ele>2031</ele>
        <time>2014-07-31T12:41:46.170Z</time>
      </trkpt>
      <trkpt lat="44.92223" lon="6.86243">
        <ele>2031</ele>
        <time>2014-07-31T12:41:48.170Z</time>
      </trkpt>
      <trkpt lat="44.92218" lon="6.86243">
        <ele>2031</ele>
        <time>2014-07-31T12:41:50.060Z</time>
      </trkpt>
      <trkpt lat="44.92213" lon="6.86244">
        <ele>2031</ele>
        <time>2014-07-31T12:41:52.070Z</time>
      </trkpt>
      <trkpt lat="44.9221" lon="6.86244">
        <ele>2031</ele>
        <time>2014-07-31T12:41:54.070Z</time>
      </trkpt>
      <trkpt lat="44.92206" lon="6.86244">
        <ele>2031</ele>
        <time>2014-07-31T12:41:56.070Z</time>
      </trkpt>
      <trkpt lat="44.92202" lon="6.86245">
        <ele>2031</ele>
        <time>2014-07-31T12:41:58.070Z</time>
      </trkpt>
      <trkpt lat="44.92198" lon="6.86246">
        <ele>2031</ele>
        <time>2014-07-31T12:42:00.030Z</time>
      </trkpt>
      <trkpt lat="44.92194" lon="6.86248">
        <ele>2031</ele>
        <time>2014-07-31T12:42:02.070Z</time>
      </trkpt>
      <trkpt lat="44.9219" lon="6.86248">
        <ele>2031</ele>
        <time>2014-07-31T12:42:04.070Z</time>
      </trkpt>
      <trkpt lat="44.92187" lon="6.8625">
        <ele>2031</ele>
        <time>2014-07-31T12:42:06.070Z</time>
      </trkpt>
      <trkpt lat="44.92184" lon="6.8625">
        <ele>2031</ele>
        <time>2014-07-31T12:42:08.140Z</time>
      </trkpt>
      <trkpt lat="44.92181" lon="6.86248">
        <ele>2031</ele>
        <time>2014-07-31T12:42:10.170Z</time>
      </trkpt>
      <trkpt lat="44.9218" lon="6.86247">
        <ele>2031</ele>
        <time>2014-07-31T12:42:11.170Z</time>
      </trkpt>
      <trkpt lat="44.92179" lon="6.86243">
        <ele>2031</ele>
        <time>2014-07-31T12:42:13.070Z</time>
      </trkpt>
      <trkpt lat="44.9218" lon="6.8624">
        <ele>2032</ele>
        <time>2014-07-31T12:42:15.070Z</time>
      </trkpt>
      <trkpt lat="44.92182" lon="6.86238">
        <ele>2033</ele>
        <time>2014-07-31T12:42:17.140Z</time>
      </trkpt>
      <trkpt lat="44.92184" lon="6.86238">
        <ele>2033</ele>
        <time>2014-07-31T12:42:19.170Z</time>
      </trkpt>
      <trkpt lat="44.92187" lon="6.86238">
        <ele>2033</ele>
        <time>2014-07-31T12:42:21.170Z</time>
      </trkpt>
      <trkpt lat="44.9219" lon="6.86237">
        <ele>2033</ele>
        <time>2014-07-31T12:42:23.170Z</time>
      </trkpt>
      <trkpt lat="44.92192" lon="6.86237">
        <ele>2033</ele>
        <time>2014-07-31T12:42:24.170Z</time>
      </trkpt>
      <trkpt lat="44.92196" lon="6.86236">
        <ele>2034</ele>
        <time>2014-07-31T12:42:26.070Z</time>
      </trkpt>
      <trkpt lat="44.92199" lon="6.86235">
        <ele>2034</ele>
        <time>2014-07-31T12:42:28.070Z</time>
      </trkpt>
      <trkpt lat="44.92202" lon="6.86233">
        <ele>2034</ele>
        <time>2014-07-31T12:42:30.070Z</time>
      </trkpt>
      <trkpt lat="44.92206" lon="6.86233">
        <ele>2034</ele>
        <time>2014-07-31T12:42:32.070Z</time>
      </trkpt>
      <trkpt lat="44.92209" lon="6.86232">
        <ele>2034</ele>
        <time>2014-07-31T12:42:33.970Z</time>
      </trkpt>
      <trkpt lat="44.92213" lon="6.86231">
        <ele>2035</ele>
        <time>2014-07-31T12:42:36.070Z</time>
      </trkpt>
      <trkpt lat="44.92216" lon="6.86231">
        <ele>2035</ele>
        <time>2014-07-31T12:42:38.170Z</time>
      </trkpt>
      <trkpt lat="44.92219" lon="6.8623">
        <ele>2035</ele>
        <time>2014-07-31T12:42:40.170Z</time>
      </trkpt>
      <trkpt lat="44.92222" lon="6.8623">
        <ele>2035</ele>
        <time>2014-07-31T12:42:42.040Z</time>
      </trkpt>
      <trkpt lat="44.92224" lon="6.8623">
        <ele>2035</ele>
        <time>2014-07-31T12:42:43.170Z</time>
      </trkpt>
      <trkpt lat="44.92227" lon="6.86229">
        <ele>2036.2</ele>
        <time>2014-07-31T12:42:45.170Z</time>
      </trkpt>
      <trkpt lat="44.9223" lon="6.86228">
        <ele>2037</ele>
        <time>2014-07-31T12:42:47.170Z</time>
      </trkpt>
      <trkpt lat="44.92233" lon="6.86227">
        <ele>2037</ele>
        <time>2014-07-31T12:42:49.070Z</time>
      </trkpt>
      <trkpt lat="44.92234" lon="6.86227">
        <ele>2037</ele>
        <time>2014-07-31T12:42:50.160Z</time>
      </trkpt>
      <trkpt lat="44.92237" lon="6.86225">
        <ele>2037</ele>
        <time>2014-07-31T12:42:52.070Z</time>
      </trkpt>
      <trkpt lat="44.92239" lon="6.86224">
        <ele>2037</ele>
        <time>2014-07-31T12:42:53.170Z</time>
      </trkpt>
      <trkpt lat="44.92241" lon="6.86222">
        <ele>2037.6</ele>
        <time>2014-07-31T12:42:55.170Z</time>
      </trkpt>
      <trkpt lat="44.92244" lon="6.8622">
        <ele>2038</ele>
        <time>2014-07-31T12:42:57.170Z</time>
      </trkpt>
      <trkpt lat="44.92245" lon="6.86219">
        <ele>2038</ele>
        <time>2014-07-31T12:42:59.140Z</time>
      </trkpt>
      <trkpt lat="44.92246" lon="6.86216">
        <ele>2038</ele>
        <time>2014-07-31T12:43:01.070Z</time>
      </trkpt>
      <trkpt lat="44.92248" lon="6.86213">
        <ele>2038</ele>
        <time>2014-07-31T12:43:02.170Z</time>
      </trkpt>
      <trkpt lat="44.9225" lon="6.86212">
        <ele>2038</ele>
        <time>2014-07-31T12:43:03.170Z</time>
      </trkpt>
      <trkpt lat="44.92254" lon="6.86208">
        <ele>2039.8</ele>
        <time>2014-07-31T12:43:05.170Z</time>
      </trkpt>
      <trkpt lat="44.92257" lon="6.86207">
        <ele>2041</ele>
        <time>2014-07-31T12:43:07.170Z</time>
      </trkpt>
      <trkpt lat="44.92258" lon="6.86206">
        <ele>2041</ele>
        <time>2014-07-31T12:43:09.070Z</time>
      </trkpt>
      <trkpt lat="44.9226" lon="6.86203">
        <ele>2042</ele>
        <time>2014-07-31T12:43:11.160Z</time>
      </trkpt>
      <trkpt lat="44.92263" lon="6.862">
        <ele>2042</ele>
        <time>2014-07-31T12:43:13.170Z</time>
      </trkpt>
      <trkpt lat="44.92267" lon="6.86197">
        <ele>2042.6</ele>
        <time>2014-07-31T12:43:15.170Z</time>
      </trkpt>
      <trkpt lat="44.92271" lon="6.86193">
        <ele>2043</ele>
        <time>2014-07-31T12:43:17.140Z</time>
      </trkpt>
      <trkpt lat="44.92275" lon="6.86188">
        <ele>2043</ele>
        <time>2014-07-31T12:43:19.070Z</time>
      </trkpt>
      <trkpt lat="44.92278" lon="6.86185">
        <ele>2043</ele>
        <time>2014-07-31T12:43:21.070Z</time>
      </trkpt>
      <trkpt lat="44.92279" lon="6.86185">
        <ele>2043</ele>
        <time>2014-07-31T12:43:22.170Z</time>
      </trkpt>
      <trkpt lat="44.92281" lon="6.86184">
        <ele>2043</ele>
        <time>2014-07-31T12:43:24.070Z</time>
      </trkpt>
      <trkpt lat="44.92282" lon="6.86183">
        <ele>2044.2</ele>
        <time>2014-07-31T12:43:25.170Z</time>
      </trkpt>
      <trkpt lat="44.92284" lon="6.86182">
        <ele>2045</ele>
        <time>2014-07-31T12:43:27.170Z</time>
      </trkpt>
      <trkpt lat="44.92285" lon="6.86182">
        <ele>2045</ele>
        <time>2014-07-31T12:43:28.170Z</time>
      </trkpt>
      <trkpt lat="44.92287" lon="6.8618">
        <ele>2045</ele>
        <time>2014-07-31T12:43:30.070Z</time>
      </trkpt>
      <trkpt lat="44.9229" lon="6.86178">
        <ele>2045</ele>
        <time>2014-07-31T12:43:32.070Z</time>
      </trkpt>
      <trkpt lat="44.92294" lon="6.86176">
        <ele>2045</ele>
        <time>2014-07-31T12:43:34.140Z</time>
      </trkpt>
      <trkpt lat="44.92297" lon="6.86175">
        <ele>2046</ele>
        <time>2014-07-31T12:43:36.170Z</time>
      </trkpt>
      <trkpt lat="44.923" lon="6.86176">
        <ele>2046</ele>
        <time>2014-07-31T12:43:38.070Z</time>
      </trkpt>
      <trkpt lat="44.92302" lon="6.86176">
        <ele>2046</ele>
        <time>2014-07-31T12:43:39.170Z</time>
      </trkpt>
      <trkpt lat="44.92304" lon="6.86176">
        <ele>2046</ele>
        <time>2014-07-31T12:43:40.070Z</time>
      </trkpt>
      <trkpt lat="44.92307" lon="6.86176">
        <ele>2046</ele>
        <time>2014-07-31T12:43:42.170Z</time>
      </trkpt>
      <trkpt lat="44.92309" lon="6.86176">
        <ele>2046</ele>
        <time>2014-07-31T12:43:44.170Z</time>
      </trkpt>
      <trkpt lat="44.92312" lon="6.86175">
        <ele>2048</ele>
        <time>2014-07-31T12:43:46.060Z</time>
      </trkpt>
      <trkpt lat="44.92315" lon="6.86174">
        <ele>2048</ele>
        <time>2014-07-31T12:43:48.070Z</time>
      </trkpt>
      <trkpt lat="44.92318" lon="6.86172">
        <ele>2048</ele>
        <time>2014-07-31T12:43:50.140Z</time>
      </trkpt>
      <trkpt lat="44.92322" lon="6.86172">
        <ele>2048</ele>
        <time>2014-07-31T12:43:52.280Z</time>
      </trkpt>
      <trkpt lat="44.92326" lon="6.8617">
        <ele>2048</ele>
        <time>2014-07-31T12:43:54.170Z</time>
      </trkpt>
      <trkpt lat="44.92329" lon="6.86168">
        <ele>2050</ele>
        <time>2014-07-31T12:43:56.070Z</time>
      </trkpt>
      <trkpt lat="44.92332" lon="6.86167">
        <ele>2050</ele>
        <time>2014-07-31T12:43:58.160Z</time>
      </trkpt>
      <trkpt lat="44.92336" lon="6.86164">
        <ele>2050</ele>
        <time>2014-07-31T12:44:00.130Z</time>
      </trkpt>
      <trkpt lat="44.92338" lon="6.86163">
        <ele>2050</ele>
        <time>2014-07-31T12:44:02.170Z</time>
      </trkpt>
      <trkpt lat="44.92342" lon="6.86161">
        <ele>2050</ele>
        <time>2014-07-31T12:44:04.280Z</time>
      </trkpt>
      <trkpt lat="44.92344" lon="6.8616">
        <ele>2052</ele>
        <time>2014-07-31T12:44:06.170Z</time>
      </trkpt>
      <trkpt lat="44.92347" lon="6.86157">
        <ele>2052</ele>
        <time>2014-07-31T12:44:08.160Z</time>
      </trkpt>
      <trkpt lat="44.9235" lon="6.86156">
        <ele>2052</ele>
        <time>2014-07-31T12:44:10.170Z</time>
      </trkpt>
      <trkpt lat="44.92353" lon="6.86154">
        <ele>2052</ele>
        <time>2014-07-31T12:44:12.170Z</time>
      </trkpt>
      <trkpt lat="44.92355" lon="6.86152">
        <ele>2052</ele>
        <time>2014-07-31T12:44:14.170Z</time>
      </trkpt>
      <trkpt lat="44.92358" lon="6.86151">
        <ele>2054</ele>
        <time>2014-07-31T12:44:16.170Z</time>
      </trkpt>
      <trkpt lat="44.9236" lon="6.8615">
        <ele>2054</ele>
        <time>2014-07-31T12:44:18.170Z</time>
      </trkpt>
      <trkpt lat="44.92363" lon="6.86148">
        <ele>2054</ele>
        <time>2014-07-31T12:44:20.060Z</time>
      </trkpt>
      <trkpt lat="44.92364" lon="6.86146">
        <ele>2054</ele>
        <time>2014-07-31T12:44:21.170Z</time>
      </trkpt>
      <trkpt lat="44.92366" lon="6.86144">
        <ele>2054</ele>
        <time>2014-07-31T12:44:23.070Z</time>
      </trkpt>
      <trkpt lat="44.92368" lon="6.86143">
        <ele>2054</ele>
        <time>2014-07-31T12:44:24.080Z</time>
      </trkpt>
      <trkpt lat="44.92371" lon="6.86141">
        <ele>2055</ele>
        <time>2014-07-31T12:44:26.070Z</time>
      </trkpt>
      <trkpt lat="44.92375" lon="6.8614">
        <ele>2055</ele>
        <time>2014-07-31T12:44:28.170Z</time>
      </trkpt>
      <trkpt lat="44.92377" lon="6.86138">
        <ele>2055</ele>
        <time>2014-07-31T12:44:29.170Z</time>
      </trkpt>
      <trkpt lat="44.9238" lon="6.86136">
        <ele>2055</ele>
        <time>2014-07-31T12:44:31.160Z</time>
      </trkpt>
      <trkpt lat="44.92382" lon="6.86133">
        <ele>2055</ele>
        <time>2014-07-31T12:44:33.070Z</time>
      </trkpt>
      <trkpt lat="44.92385" lon="6.86131">
        <ele>2055.5</ele>
        <time>2014-07-31T12:44:35.070Z</time>
      </trkpt>
      <trkpt lat="44.92389" lon="6.8613">
        <ele>2056</ele>
        <time>2014-07-31T12:44:37.070Z</time>
      </trkpt>
      <trkpt lat="44.9239" lon="6.8613">
        <ele>2056</ele>
        <time>2014-07-31T12:44:38.170Z</time>
      </trkpt>
      <trkpt lat="44.92392" lon="6.86129">
        <ele>2056</ele>
        <time>2014-07-31T12:44:40.070Z</time>
      </trkpt>
      <trkpt lat="44.92394" lon="6.86128">
        <ele>2056</ele>
        <time>2014-07-31T12:44:42.170Z</time>
      </trkpt>
      <trkpt lat="44.92397" lon="6.86127">
        <ele>2056</ele>
        <time>2014-07-31T12:44:44.170Z</time>
      </trkpt>
      <trkpt lat="44.92399" lon="6.86126">
        <ele>2058</ele>
        <time>2014-07-31T12:44:46.170Z</time>
      </trkpt>
      <trkpt lat="44.92402" lon="6.86124">
        <ele>2058</ele>
        <time>2014-07-31T12:44:48.170Z</time>
      </trkpt>
      <trkpt lat="44.92404" lon="6.86123">
        <ele>2058</ele>
        <time>2014-07-31T12:44:50.170Z</time>
      </trkpt>
      <trkpt lat="44.92407" lon="6.86121">
        <ele>2058</ele>
        <time>2014-07-31T12:44:52.170Z</time>
      </trkpt>
      <trkpt lat="44.92411" lon="6.86119">
        <ele>2058</ele>
        <time>2014-07-31T12:44:54.070Z</time>
      </trkpt>
      <trkpt lat="44.92412" lon="6.86117">
        <ele>2059.2</ele>
        <time>2014-07-31T12:44:55.160Z</time>
      </trkpt>
      <trkpt lat="44.92415" lon="6.86115">
        <ele>2060</ele>
        <time>2014-07-31T12:44:57.170Z</time>
      </trkpt>
      <trkpt lat="44.92418" lon="6.86113">
        <ele>2060</ele>
        <time>2014-07-31T12:44:59.070Z</time>
      </trkpt>
      <trkpt lat="44.9242" lon="6.8611">
        <ele>2060</ele>
        <time>2014-07-31T12:45:01.070Z</time>
      </trkpt>
      <trkpt lat="44.92423" lon="6.86108">
        <ele>2060</ele>
        <time>2014-07-31T12:45:03.170Z</time>
      </trkpt>
      <trkpt lat="44.92427" lon="6.86105">
        <ele>2060.5</ele>
        <time>2014-07-31T12:45:05.060Z</time>
      </trkpt>
      <trkpt lat="44.9243" lon="6.86103">
        <ele>2061</ele>
        <time>2014-07-31T12:45:07.070Z</time>
      </trkpt>
      <trkpt lat="44.92432" lon="6.86101">
        <ele>2061</ele>
        <time>2014-07-31T12:45:09.070Z</time>
      </trkpt>
      <trkpt lat="44.92435" lon="6.86098">
        <ele>2061</ele>
        <time>2014-07-31T12:45:11.070Z</time>
      </trkpt>
      <trkpt lat="44.92436" lon="6.86097">
        <ele>2061</ele>
        <time>2014-07-31T12:45:12.170Z</time>
      </trkpt>
      <trkpt lat="44.92439" lon="6.86096">
        <ele>2061</ele>
        <time>2014-07-31T12:45:14.070Z</time>
      </trkpt>
      <trkpt lat="44.92441" lon="6.86097">
        <ele>2062.1</ele>
        <time>2014-07-31T12:45:15.140Z</time>
      </trkpt>
      <trkpt lat="44.92443" lon="6.86096">
        <ele>2063</ele>
        <time>2014-07-31T12:45:16.190Z</time>
      </trkpt>
      <trkpt lat="44.92447" lon="6.86096">
        <ele>2063</ele>
        <time>2014-07-31T12:45:18.170Z</time>
      </trkpt>
      <trkpt lat="44.9245" lon="6.86096">
        <ele>2063</ele>
        <time>2014-07-31T12:45:20.070Z</time>
      </trkpt>
      <trkpt lat="44.92454" lon="6.86097">
        <ele>2063</ele>
        <time>2014-07-31T12:45:22.070Z</time>
      </trkpt>
      <trkpt lat="44.92456" lon="6.86097">
        <ele>2063</ele>
        <time>2014-07-31T12:45:23.170Z</time>
      </trkpt>
      <trkpt lat="44.9246" lon="6.86096">
        <ele>2063.5</ele>
        <time>2014-07-31T12:45:25.070Z</time>
      </trkpt>
      <trkpt lat="44.92462" lon="6.86096">
        <ele>2064</ele>
        <time>2014-07-31T12:45:27.070Z</time>
      </trkpt>
      <trkpt lat="44.92466" lon="6.86096">
        <ele>2064</ele>
        <time>2014-07-31T12:45:29.170Z</time>
      </trkpt>
      <trkpt lat="44.92469" lon="6.86096">
        <ele>2064</ele>
        <time>2014-07-31T12:45:31.170Z</time>
      </trkpt>
      <trkpt lat="44.92474" lon="6.86096">
        <ele>2064</ele>
        <time>2014-07-31T12:45:33.170Z</time>
      </trkpt>
      <trkpt lat="44.92476" lon="6.86097">
        <ele>2065.5</ele>
        <time>2014-07-31T12:45:35.070Z</time>
      </trkpt>
      <trkpt lat="44.9248" lon="6.86097">
        <ele>2067</ele>
        <time>2014-07-31T12:45:37.170Z</time>
      </trkpt>
      <trkpt lat="44.92484" lon="6.86096">
        <ele>2067</ele>
        <time>2014-07-31T12:45:39.070Z</time>
      </trkpt>
      <trkpt lat="44.92488" lon="6.86095">
        <ele>2067</ele>
        <time>2014-07-31T12:45:41.280Z</time>
      </trkpt>
      <trkpt lat="44.92492" lon="6.86095">
        <ele>2067</ele>
        <time>2014-07-31T12:45:43.070Z</time>
      </trkpt>
      <trkpt lat="44.92495" lon="6.86093">
        <ele>2067</ele>
        <time>2014-07-31T12:45:45.070Z</time>
      </trkpt>
      <trkpt lat="44.92496" lon="6.86092">
        <ele>2067</ele>
        <time>2014-07-31T12:45:46.170Z</time>
      </trkpt>
      <trkpt lat="44.92498" lon="6.86093">
        <ele>2067</ele>
        <time>2014-07-31T12:45:48.070Z</time>
      </trkpt>
      <trkpt lat="44.92499" lon="6.86093">
        <ele>2067</ele>
        <time>2014-07-31T12:45:49.140Z</time>
      </trkpt>
      <trkpt lat="44.92503" lon="6.86092">
        <ele>2067</ele>
        <time>2014-07-31T12:45:51.140Z</time>
      </trkpt>
      <trkpt lat="44.92506" lon="6.86092">
        <ele>2067</ele>
        <time>2014-07-31T12:45:53.060Z</time>
      </trkpt>
      <trkpt lat="44.92508" lon="6.86091">
        <ele>2067</ele>
        <time>2014-07-31T12:45:54.170Z</time>
      </trkpt>
      <trkpt lat="44.92511" lon="6.86091">
        <ele>2069</ele>
        <time>2014-07-31T12:45:56.170Z</time>
      </trkpt>
      <trkpt lat="44.92514" lon="6.8609">
        <ele>2069</ele>
        <time>2014-07-31T12:45:58.070Z</time>
      </trkpt>
      <trkpt lat="44.92518" lon="6.86089">
        <ele>2069</ele>
        <time>2014-07-31T12:46:00.130Z</time>
      </trkpt>
      <trkpt lat="44.92521" lon="6.86089">
        <ele>2069</ele>
        <time>2014-07-31T12:46:02.170Z</time>
      </trkpt>
      <trkpt lat="44.92524" lon="6.86087">
        <ele>2069</ele>
        <time>2014-07-31T12:46:04.170Z</time>
      </trkpt>
      <trkpt lat="44.92525" lon="6.86086">
        <ele>2069.6</ele>
        <time>2014-07-31T12:46:05.180Z</time>
      </trkpt>
      <trkpt lat="44.92529" lon="6.86085">
        <ele>2070</ele>
        <time>2014-07-31T12:46:07.070Z</time>
      </trkpt>
      <trkpt lat="44.9253" lon="6.86084">
        <ele>2070</ele>
        <time>2014-07-31T12:46:08.170Z</time>
      </trkpt>
      <trkpt lat="44.92533" lon="6.86083">
        <ele>2070</ele>
        <time>2014-07-31T12:46:10.170Z</time>
      </trkpt>
      <trkpt lat="44.92535" lon="6.86081">
        <ele>2070</ele>
        <time>2014-07-31T12:46:12.070Z</time>
      </trkpt>
      <trkpt lat="44.92536" lon="6.8608">
        <ele>2070</ele>
        <time>2014-07-31T12:46:13.170Z</time>
      </trkpt>
      <trkpt lat="44.92538" lon="6.86078">
        <ele>2071.5</ele>
        <time>2014-07-31T12:46:15.070Z</time>
      </trkpt>
      <trkpt lat="44.9254" lon="6.86077">
        <ele>2073</ele>
        <time>2014-07-31T12:46:17.140Z</time>
      </trkpt>
      <trkpt lat="44.92542" lon="6.86077">
        <ele>2073</ele>
        <time>2014-07-31T12:46:19.170Z</time>
      </trkpt>
      <trkpt lat="44.92544" lon="6.86075">
        <ele>2074</ele>
        <time>2014-07-31T12:46:21.170Z</time>
      </trkpt>
      <trkpt lat="44.92546" lon="6.86074">
        <ele>2074</ele>
        <time>2014-07-31T12:46:23.080Z</time>
      </trkpt>
      <trkpt lat="44.9255" lon="6.86074">
        <ele>2074.5</ele>
        <time>2014-07-31T12:46:25.070Z</time>
      </trkpt>
      <trkpt lat="44.92551" lon="6.86075">
        <ele>2075</ele>
        <time>2014-07-31T12:46:26.160Z</time>
      </trkpt>
      <trkpt lat="44.92555" lon="6.86076">
        <ele>2075</ele>
        <time>2014-07-31T12:46:28.170Z</time>
      </trkpt>
      <trkpt lat="44.92558" lon="6.86078">
        <ele>2075</ele>
        <time>2014-07-31T12:46:30.170Z</time>
      </trkpt>
      <trkpt lat="44.92559" lon="6.86078">
        <ele>2075</ele>
        <time>2014-07-31T12:46:31.170Z</time>
      </trkpt>
      <trkpt lat="44.92562" lon="6.8608">
        <ele>2075</ele>
        <time>2014-07-31T12:46:33.170Z</time>
      </trkpt>
      <trkpt lat="44.92564" lon="6.86083">
        <ele>2076</ele>
        <time>2014-07-31T12:46:35.070Z</time>
      </trkpt>
      <trkpt lat="44.92566" lon="6.86084">
        <ele>2077</ele>
        <time>2014-07-31T12:46:36.170Z</time>
      </trkpt>
      <trkpt lat="44.92568" lon="6.86085">
        <ele>2077</ele>
        <time>2014-07-31T12:46:38.170Z</time>
      </trkpt>
      <trkpt lat="44.92571" lon="6.86088">
        <ele>2077</ele>
        <time>2014-07-31T12:46:40.040Z</time>
      </trkpt>
      <trkpt lat="44.92574" lon="6.86088">
        <ele>2077</ele>
        <time>2014-07-31T12:46:42.070Z</time>
      </trkpt>
      <trkpt lat="44.92577" lon="6.86087">
        <ele>2077</ele>
        <time>2014-07-31T12:46:44.070Z</time>
      </trkpt>
      <trkpt lat="44.92578" lon="6.86086">
        <ele>2077.6</ele>
        <time>2014-07-31T12:46:45.170Z</time>
      </trkpt>
      <trkpt lat="44.92581" lon="6.86084">
        <ele>2078</ele>
        <time>2014-07-31T12:46:47.170Z</time>
      </trkpt>
      <trkpt lat="44.92584" lon="6.86082">
        <ele>2078</ele>
        <time>2014-07-31T12:46:49.100Z</time>
      </trkpt>
      <trkpt lat="44.92587" lon="6.86078">
        <ele>2078</ele>
        <time>2014-07-31T12:46:51.040Z</time>
      </trkpt>
      <trkpt lat="44.92589" lon="6.86075">
        <ele>2078</ele>
        <time>2014-07-31T12:46:53.170Z</time>
      </trkpt>
      <trkpt lat="44.92591" lon="6.86072">
        <ele>2078.6</ele>
        <time>2014-07-31T12:46:55.170Z</time>
      </trkpt>
      <trkpt lat="44.92593" lon="6.86069">
        <ele>2079</ele>
        <time>2014-07-31T12:46:57.040Z</time>
      </trkpt>
      <trkpt lat="44.92594" lon="6.86067">
        <ele>2079</ele>
        <time>2014-07-31T12:46:58.170Z</time>
      </trkpt>
      <trkpt lat="44.92597" lon="6.86063">
        <ele>2079</ele>
        <time>2014-07-31T12:47:00.030Z</time>
      </trkpt>
      <trkpt lat="44.92597" lon="6.86062">
        <ele>2079</ele>
        <time>2014-07-31T12:47:01.170Z</time>
      </trkpt>
      <trkpt lat="44.92599" lon="6.86059">
        <ele>2079</ele>
        <time>2014-07-31T12:47:03.070Z</time>
      </trkpt>
      <trkpt lat="44.92601" lon="6.86054">
        <ele>2080.2</ele>
        <time>2014-07-31T12:47:05.170Z</time>
      </trkpt>
      <trkpt lat="44.92603" lon="6.86049">
        <ele>2081</ele>
        <time>2014-07-31T12:47:07.170Z</time>
      </trkpt>
      <trkpt lat="44.92606" lon="6.86045">
        <ele>2081</ele>
        <time>2014-07-31T12:47:09.070Z</time>
      </trkpt>
      <trkpt lat="44.92608" lon="6.86041">
        <ele>2081</ele>
        <time>2014-07-31T12:47:11.070Z</time>
      </trkpt>
      <trkpt lat="44.92611" lon="6.86038">
        <ele>2081</ele>
        <time>2014-07-31T12:47:13.170Z</time>
      </trkpt>
      <trkpt lat="44.92613" lon="6.86036">
        <ele>2081.6</ele>
        <time>2014-07-31T12:47:15.170Z</time>
      </trkpt>
      <trkpt lat="44.92616" lon="6.86033">
        <ele>2082</ele>
        <time>2014-07-31T12:47:17.070Z</time>
      </trkpt>
      <trkpt lat="44.92618" lon="6.86031">
        <ele>2082</ele>
        <time>2014-07-31T12:47:19.180Z</time>
      </trkpt>
      <trkpt lat="44.92623" lon="6.86029">
        <ele>2082</ele>
        <time>2014-07-31T12:47:21.070Z</time>
      </trkpt>
      <trkpt lat="44.92624" lon="6.86028">
        <ele>2082</ele>
        <time>2014-07-31T12:47:22.160Z</time>
      </trkpt>
      <trkpt lat="44.92626" lon="6.86025">
        <ele>2082</ele>
        <time>2014-07-31T12:47:24.070Z</time>
      </trkpt>
      <trkpt lat="44.9263" lon="6.86023">
        <ele>2084</ele>
        <time>2014-07-31T12:47:26.070Z</time>
      </trkpt>
      <trkpt lat="44.92631" lon="6.86023">
        <ele>2084</ele>
        <time>2014-07-31T12:47:27.170Z</time>
      </trkpt>
      <trkpt lat="44.92634" lon="6.86022">
        <ele>2084</ele>
        <time>2014-07-31T12:47:29.070Z</time>
      </trkpt>
      <trkpt lat="44.92638" lon="6.86021">
        <ele>2084</ele>
        <time>2014-07-31T12:47:31.140Z</time>
      </trkpt>
      <trkpt lat="44.92641" lon="6.8602">
        <ele>2084</ele>
        <time>2014-07-31T12:47:33.070Z</time>
      </trkpt>
      <trkpt lat="44.92642" lon="6.8602">
        <ele>2084</ele>
        <time>2014-07-31T12:47:34.140Z</time>
      </trkpt>
      <trkpt lat="44.92646" lon="6.86018">
        <ele>2086</ele>
        <time>2014-07-31T12:47:36.070Z</time>
      </trkpt>
      <trkpt lat="44.9265" lon="6.86017">
        <ele>2086</ele>
        <time>2014-07-31T12:47:38.170Z</time>
      </trkpt>
      <trkpt lat="44.92653" lon="6.86016">
        <ele>2086</ele>
        <time>2014-07-31T12:47:40.070Z</time>
      </trkpt>
      <trkpt lat="44.92656" lon="6.86016">
        <ele>2086</ele>
        <time>2014-07-31T12:47:42.070Z</time>
      </trkpt>
      <trkpt lat="44.92658" lon="6.86014">
        <ele>2086.6</ele>
        <time>2014-07-31T12:47:45.160Z</time>
      </trkpt>
      <trkpt lat="44.9266" lon="6.86014">
        <ele>2087</ele>
        <time>2014-07-31T12:47:47.170Z</time>
      </trkpt>
      <trkpt lat="44.92663" lon="6.86013">
        <ele>2087</ele>
        <time>2014-07-31T12:47:49.170Z</time>
      </trkpt>
      <trkpt lat="44.92666" lon="6.86013">
        <ele>2087</ele>
        <time>2014-07-31T12:47:51.040Z</time>
      </trkpt>
      <trkpt lat="44.92667" lon="6.86012">
        <ele>2087</ele>
        <time>2014-07-31T12:47:52.170Z</time>
      </trkpt>
      <trkpt lat="44.92671" lon="6.86011">
        <ele>2087</ele>
        <time>2014-07-31T12:47:54.070Z</time>
      </trkpt>
      <trkpt lat="44.92675" lon="6.86011">
        <ele>2089</ele>
        <time>2014-07-31T12:47:56.070Z</time>
      </trkpt>
      <trkpt lat="44.92678" lon="6.86011">
        <ele>2089</ele>
        <time>2014-07-31T12:47:58.170Z</time>
      </trkpt>
      <trkpt lat="44.92681" lon="6.86011">
        <ele>2089</ele>
        <time>2014-07-31T12:48:00.030Z</time>
      </trkpt>
      <trkpt lat="44.92682" lon="6.8601">
        <ele>2089</ele>
        <time>2014-07-31T12:48:01.170Z</time>
      </trkpt>
      <trkpt lat="44.92685" lon="6.86008">
        <ele>2089</ele>
        <time>2014-07-31T12:48:03.070Z</time>
      </trkpt>
      <trkpt lat="44.92688" lon="6.86008">
        <ele>2090.7</ele>
        <time>2014-07-31T12:48:05.140Z</time>
      </trkpt>
      <trkpt lat="44.9269" lon="6.86006">
        <ele>2092</ele>
        <time>2014-07-31T12:48:07.170Z</time>
      </trkpt>
      <trkpt lat="44.92694" lon="6.86003">
        <ele>2092</ele>
        <time>2014-07-31T12:48:09.170Z</time>
      </trkpt>
      <trkpt lat="44.92697" lon="6.86">
        <ele>2092</ele>
        <time>2014-07-31T12:48:11.170Z</time>
      </trkpt>
      <trkpt lat="44.92699" lon="6.85998">
        <ele>2092</ele>
        <time>2014-07-31T12:48:13.070Z</time>
      </trkpt>
      <trkpt lat="44.92701" lon="6.85996">
        <ele>2092</ele>
        <time>2014-07-31T12:48:14.170Z</time>
      </trkpt>
      <trkpt lat="44.92703" lon="6.85995">
        <ele>2093</ele>
        <time>2014-07-31T12:48:16.170Z</time>
      </trkpt>
      <trkpt lat="44.92706" lon="6.85995">
        <ele>2093</ele>
        <time>2014-07-31T12:48:18.070Z</time>
      </trkpt>
      <trkpt lat="44.92708" lon="6.85995">
        <ele>2093</ele>
        <time>2014-07-31T12:48:20.070Z</time>
      </trkpt>
      <trkpt lat="44.9271" lon="6.85994">
        <ele>2093</ele>
        <time>2014-07-31T12:48:21.170Z</time>
      </trkpt>
      <trkpt lat="44.92711" lon="6.85994">
        <ele>2093</ele>
        <time>2014-07-31T12:48:23.170Z</time>
      </trkpt>
      <trkpt lat="44.92714" lon="6.85994">
        <ele>2094.2</ele>
        <time>2014-07-31T12:48:25.170Z</time>
      </trkpt>
      <trkpt lat="44.92718" lon="6.85991">
        <ele>2095</ele>
        <time>2014-07-31T12:48:27.070Z</time>
      </trkpt>
      <trkpt lat="44.9272" lon="6.85989">
        <ele>2095</ele>
        <time>2014-07-31T12:48:28.170Z</time>
      </trkpt>
      <trkpt lat="44.92725" lon="6.85987">
        <ele>2095</ele>
        <time>2014-07-31T12:48:30.070Z</time>
      </trkpt>
      <trkpt lat="44.92728" lon="6.85986">
        <ele>2095</ele>
        <time>2014-07-31T12:48:32.070Z</time>
      </trkpt>
      <trkpt lat="44.92729" lon="6.85985">
        <ele>2095</ele>
        <time>2014-07-31T12:48:33.170Z</time>
      </trkpt>
      <trkpt lat="44.92732" lon="6.85985">
        <ele>2096</ele>
        <time>2014-07-31T12:48:35.070Z</time>
      </trkpt>
      <trkpt lat="44.92734" lon="6.85983">
        <ele>2097</ele>
        <time>2014-07-31T12:48:37.070Z</time>
      </trkpt>
      <trkpt lat="44.92736" lon="6.85982">
        <ele>2097</ele>
        <time>2014-07-31T12:48:39.140Z</time>
      </trkpt>
      <trkpt lat="44.92739" lon="6.85981">
        <ele>2097</ele>
        <time>2014-07-31T12:48:41.170Z</time>
      </trkpt>
      <trkpt lat="44.92741" lon="6.8598">
        <ele>2097</ele>
        <time>2014-07-31T12:48:43.170Z</time>
      </trkpt>
      <trkpt lat="44.92744" lon="6.85979">
        <ele>2097.6</ele>
        <time>2014-07-31T12:48:45.170Z</time>
      </trkpt>
      <trkpt lat="44.92747" lon="6.85978">
        <ele>2098</ele>
        <time>2014-07-31T12:48:47.070Z</time>
      </trkpt>
      <trkpt lat="44.92749" lon="6.85977">
        <ele>2098</ele>
        <time>2014-07-31T12:48:48.170Z</time>
      </trkpt>
      <trkpt lat="44.92751" lon="6.85976">
        <ele>2098</ele>
        <time>2014-07-31T12:48:50.070Z</time>
      </trkpt>
      <trkpt lat="44.92752" lon="6.85975">
        <ele>2098</ele>
        <time>2014-07-31T12:48:51.130Z</time>
      </trkpt>
      <trkpt lat="44.92756" lon="6.85973">
        <ele>2098</ele>
        <time>2014-07-31T12:48:53.070Z</time>
      </trkpt>
      <trkpt lat="44.92757" lon="6.85972">
        <ele>2098</ele>
        <time>2014-07-31T12:48:54.170Z</time>
      </trkpt>
      <trkpt lat="44.9276" lon="6.8597">
        <ele>2099</ele>
        <time>2014-07-31T12:48:56.040Z</time>
      </trkpt>
      <trkpt lat="44.92762" lon="6.85969">
        <ele>2099</ele>
        <time>2014-07-31T12:48:57.070Z</time>
      </trkpt>
      <trkpt lat="44.92766" lon="6.85966">
        <ele>2099</ele>
        <time>2014-07-31T12:48:59.070Z</time>
      </trkpt>
      <trkpt lat="44.92769" lon="6.85964">
        <ele>2099</ele>
        <time>2014-07-31T12:49:01.070Z</time>
      </trkpt>
      <trkpt lat="44.92771" lon="6.85963">
        <ele>2099</ele>
        <time>2014-07-31T12:49:02.170Z</time>
      </trkpt>
      <trkpt lat="44.92773" lon="6.85959">
        <ele>2099</ele>
        <time>2014-07-31T12:49:04.160Z</time>
      </trkpt>
      <trkpt lat="44.92775" lon="6.85956">
        <ele>2100</ele>
        <time>2014-07-31T12:49:06.070Z</time>
      </trkpt>
      <trkpt lat="44.92775" lon="6.85955">
        <ele>2100</ele>
        <time>2014-07-31T12:49:09.180Z</time>
      </trkpt>
      <trkpt lat="44.92777" lon="6.85953">
        <ele>2100</ele>
        <time>2014-07-31T12:49:11.170Z</time>
      </trkpt>
      <trkpt lat="44.9278" lon="6.85949">
        <ele>2100</ele>
        <time>2014-07-31T12:49:13.040Z</time>
      </trkpt>
      <trkpt lat="44.92782" lon="6.85947">
        <ele>2100.5</ele>
        <time>2014-07-31T12:49:15.070Z</time>
      </trkpt>
      <trkpt lat="44.92785" lon="6.85944">
        <ele>2101</ele>
        <time>2014-07-31T12:49:17.130Z</time>
      </trkpt>
      <trkpt lat="44.92788" lon="6.8594">
        <ele>2101</ele>
        <time>2014-07-31T12:49:19.170Z</time>
      </trkpt>
      <trkpt lat="44.92792" lon="6.85936">
        <ele>2101</ele>
        <time>2014-07-31T12:49:21.070Z</time>
      </trkpt>
      <trkpt lat="44.92793" lon="6.85935">
        <ele>2101</ele>
        <time>2014-07-31T12:49:22.070Z</time>
      </trkpt>
      <trkpt lat="44.92798" lon="6.85931">
        <ele>2101</ele>
        <time>2014-07-31T12:49:24.170Z</time>
      </trkpt>
      <trkpt lat="44.92802" lon="6.85928">
        <ele>2103</ele>
        <time>2014-07-31T12:49:26.170Z</time>
      </trkpt>
      <trkpt lat="44.92807" lon="6.85925">
        <ele>2103</ele>
        <time>2014-07-31T12:49:28.060Z</time>
      </trkpt>
      <trkpt lat="44.92812" lon="6.85923">
        <ele>2103</ele>
        <time>2014-07-31T12:49:30.140Z</time>
      </trkpt>
      <trkpt lat="44.92816" lon="6.85921">
        <ele>2103</ele>
        <time>2014-07-31T12:49:32.170Z</time>
      </trkpt>
      <trkpt lat="44.9282" lon="6.85917">
        <ele>2103</ele>
        <time>2014-07-31T12:49:34.130Z</time>
      </trkpt>
      <trkpt lat="44.92824" lon="6.85912">
        <ele>2103</ele>
        <time>2014-07-31T12:49:36.170Z</time>
      </trkpt>
      <trkpt lat="44.92828" lon="6.85908">
        <ele>2103</ele>
        <time>2014-07-31T12:49:38.070Z</time>
      </trkpt>
      <trkpt lat="44.92831" lon="6.85903">
        <ele>2103</ele>
        <time>2014-07-31T12:49:40.160Z</time>
      </trkpt>
      <trkpt lat="44.92835" lon="6.85897">
        <ele>2103</ele>
        <time>2014-07-31T12:49:42.070Z</time>
      </trkpt>
      <trkpt lat="44.92837" lon="6.85892">
        <ele>2103</ele>
        <time>2014-07-31T12:49:44.070Z</time>
      </trkpt>
      <trkpt lat="44.92839" lon="6.8589">
        <ele>2103</ele>
        <time>2014-07-31T12:49:45.170Z</time>
      </trkpt>
      <trkpt lat="44.92842" lon="6.85885">
        <ele>2103</ele>
        <time>2014-07-31T12:49:47.040Z</time>
      </trkpt>
      <trkpt lat="44.92846" lon="6.85881">
        <ele>2103</ele>
        <time>2014-07-31T12:49:49.070Z</time>
      </trkpt>
      <trkpt lat="44.92847" lon="6.85879">
        <ele>2103</ele>
        <time>2014-07-31T12:49:50.170Z</time>
      </trkpt>
      <trkpt lat="44.9285" lon="6.85875">
        <ele>2103</ele>
        <time>2014-07-31T12:49:52.070Z</time>
      </trkpt>
      <trkpt lat="44.92851" lon="6.85873">
        <ele>2103</ele>
        <time>2014-07-31T12:49:53.170Z</time>
      </trkpt>
      <trkpt lat="44.92855" lon="6.8587">
        <ele>2103</ele>
        <time>2014-07-31T12:49:55.170Z</time>
      </trkpt>
      <trkpt lat="44.92859" lon="6.85865">
        <ele>2103</ele>
        <time>2014-07-31T12:49:57.170Z</time>
      </trkpt>
      <trkpt lat="44.92863" lon="6.85863">
        <ele>2103</ele>
        <time>2014-07-31T12:49:59.070Z</time>
      </trkpt>
      <trkpt lat="44.92866" lon="6.85862">
        <ele>2103</ele>
        <time>2014-07-31T12:50:01.070Z</time>
      </trkpt>
      <trkpt lat="44.92869" lon="6.85861">
        <ele>2103</ele>
        <time>2014-07-31T12:50:02.170Z</time>
      </trkpt>
      <trkpt lat="44.92872" lon="6.85859">
        <ele>2103</ele>
        <time>2014-07-31T12:50:04.040Z</time>
      </trkpt>
      <trkpt lat="44.92876" lon="6.85856">
        <ele>2103</ele>
        <time>2014-07-31T12:50:06.170Z</time>
      </trkpt>
      <trkpt lat="44.9288" lon="6.85855">
        <ele>2103</ele>
        <time>2014-07-31T12:50:08.170Z</time>
      </trkpt>
      <trkpt lat="44.92884" lon="6.85853">
        <ele>2103</ele>
        <time>2014-07-31T12:50:10.170Z</time>
      </trkpt>
      <trkpt lat="44.92886" lon="6.85849">
        <ele>2103</ele>
        <time>2014-07-31T12:50:12.070Z</time>
      </trkpt>
      <trkpt lat="44.92885" lon="6.85847">
        <ele>2103</ele>
        <time>2014-07-31T12:50:13.160Z</time>
      </trkpt>
      <trkpt lat="44.92884" lon="6.85845">
        <ele>2103.5</ele>
        <time>2014-07-31T12:50:15.070Z</time>
      </trkpt>
      <trkpt lat="44.92882" lon="6.85845">
        <ele>2104</ele>
        <time>2014-07-31T12:50:17.140Z</time>
      </trkpt>
      <trkpt lat="44.92879" lon="6.85848">
        <ele>2104</ele>
        <time>2014-07-31T12:50:19.070Z</time>
      </trkpt>
      <trkpt lat="44.92876" lon="6.8585">
        <ele>2104</ele>
        <time>2014-07-31T12:50:21.140Z</time>
      </trkpt>
      <trkpt lat="44.92874" lon="6.85851">
        <ele>2104</ele>
        <time>2014-07-31T12:50:23.170Z</time>
      </trkpt>
      <trkpt lat="44.92871" lon="6.85852">
        <ele>2105</ele>
        <time>2014-07-31T12:50:25.070Z</time>
      </trkpt>
      <trkpt lat="44.92869" lon="6.85855">
        <ele>2106</ele>
        <time>2014-07-31T12:50:27.070Z</time>
      </trkpt>
      <trkpt lat="44.92866" lon="6.85856">
        <ele>2106</ele>
        <time>2014-07-31T12:50:29.070Z</time>
      </trkpt>
      <trkpt lat="44.92863" lon="6.85856">
        <ele>2106</ele>
        <time>2014-07-31T12:50:31.070Z</time>
      </trkpt>
      <trkpt lat="44.92862" lon="6.85856">
        <ele>2106</ele>
        <time>2014-07-31T12:50:32.170Z</time>
      </trkpt>
      <trkpt lat="44.92859" lon="6.85858">
        <ele>2106</ele>
        <time>2014-07-31T12:50:34.140Z</time>
      </trkpt>
      <trkpt lat="44.92857" lon="6.8586">
        <ele>2108</ele>
        <time>2014-07-31T12:50:36.170Z</time>
      </trkpt>
      <trkpt lat="44.92854" lon="6.85861">
        <ele>2108</ele>
        <time>2014-07-31T12:50:38.140Z</time>
      </trkpt>
      <trkpt lat="44.92852" lon="6.85863">
        <ele>2108</ele>
        <time>2014-07-31T12:50:40.170Z</time>
      </trkpt>
      <trkpt lat="44.9285" lon="6.85867">
        <ele>2108</ele>
        <time>2014-07-31T12:50:42.070Z</time>
      </trkpt>
      <trkpt lat="44.92849" lon="6.85867">
        <ele>2108</ele>
        <time>2014-07-31T12:50:43.170Z</time>
      </trkpt>
      <trkpt lat="44.92846" lon="6.85869">
        <ele>2109</ele>
        <time>2014-07-31T12:50:45.070Z</time>
      </trkpt>
      <trkpt lat="44.92843" lon="6.85871">
        <ele>2110</ele>
        <time>2014-07-31T12:50:47.070Z</time>
      </trkpt>
      <trkpt lat="44.92841" lon="6.85872">
        <ele>2110</ele>
        <time>2014-07-31T12:50:49.070Z</time>
      </trkpt>
      <trkpt lat="44.9284" lon="6.85873">
        <ele>2110</ele>
        <time>2014-07-31T12:50:50.170Z</time>
      </trkpt>
      <trkpt lat="44.92837" lon="6.85875">
        <ele>2110</ele>
        <time>2014-07-31T12:50:52.070Z</time>
      </trkpt>
      <trkpt lat="44.92836" lon="6.85876">
        <ele>2110</ele>
        <time>2014-07-31T12:50:53.170Z</time>
      </trkpt>
      <trkpt lat="44.92834" lon="6.85877">
        <ele>2110.4</ele>
        <time>2014-07-31T12:50:54.980Z</time>
      </trkpt>
      <trkpt lat="44.92832" lon="6.85878">
        <ele>2111</ele>
        <time>2014-07-31T12:50:57.070Z</time>
      </trkpt>
      <trkpt lat="44.92831" lon="6.85879">
        <ele>2111</ele>
        <time>2014-07-31T12:50:58.170Z</time>
      </trkpt>
      <trkpt lat="44.92829" lon="6.85881">
        <ele>2111</ele>
        <time>2014-07-31T12:51:00.030Z</time>
      </trkpt>
      <trkpt lat="44.92826" lon="6.85883">
        <ele>2111</ele>
        <time>2014-07-31T12:51:02.170Z</time>
      </trkpt>
      <trkpt lat="44.92824" lon="6.85885">
        <ele>2111</ele>
        <time>2014-07-31T12:51:04.070Z</time>
      </trkpt>
      <trkpt lat="44.92823" lon="6.85885">
        <ele>2112.4</ele>
        <time>2014-07-31T12:51:05.280Z</time>
      </trkpt>
      <trkpt lat="44.92821" lon="6.85887">
        <ele>2113</ele>
        <time>2014-07-31T12:51:07.170Z</time>
      </trkpt>
      <trkpt lat="44.92818" lon="6.85889">
        <ele>2113</ele>
        <time>2014-07-31T12:51:09.070Z</time>
      </trkpt>
      <trkpt lat="44.92815" lon="6.85891">
        <ele>2113</ele>
        <time>2014-07-31T12:51:11.070Z</time>
      </trkpt>
      <trkpt lat="44.92813" lon="6.85891">
        <ele>2113</ele>
        <time>2014-07-31T12:51:12.140Z</time>
      </trkpt>
      <trkpt lat="44.92811" lon="6.85893">
        <ele>2113</ele>
        <time>2014-07-31T12:51:14.070Z</time>
      </trkpt>
      <trkpt lat="44.92809" lon="6.85893">
        <ele>2113.6</ele>
        <time>2014-07-31T12:51:15.160Z</time>
      </trkpt>
      <trkpt lat="44.92806" lon="6.85895">
        <ele>2114</ele>
        <time>2014-07-31T12:51:17.140Z</time>
      </trkpt>
      <trkpt lat="44.92803" lon="6.85896">
        <ele>2114</ele>
        <time>2014-07-31T12:51:19.170Z</time>
      </trkpt>
      <trkpt lat="44.928" lon="6.85897">
        <ele>2114</ele>
        <time>2014-07-31T12:51:21.070Z</time>
      </trkpt>
      <trkpt lat="44.92798" lon="6.85899">
        <ele>2114</ele>
        <time>2014-07-31T12:51:23.070Z</time>
      </trkpt>
      <trkpt lat="44.92795" lon="6.859">
        <ele>2115</ele>
        <time>2014-07-31T12:51:25.070Z</time>
      </trkpt>
      <trkpt lat="44.92793" lon="6.85902">
        <ele>2116</ele>
        <time>2014-07-31T12:51:27.070Z</time>
      </trkpt>
      <trkpt lat="44.92791" lon="6.85904">
        <ele>2116</ele>
        <time>2014-07-31T12:51:29.140Z</time>
      </trkpt>
      <trkpt lat="44.92789" lon="6.85904">
        <ele>2116</ele>
        <time>2014-07-31T12:51:31.170Z</time>
      </trkpt>
      <trkpt lat="44.92787" lon="6.85905">
        <ele>2116</ele>
        <time>2014-07-31T12:51:33.170Z</time>
      </trkpt>
      <trkpt lat="44.92783" lon="6.85908">
        <ele>2117.8</ele>
        <time>2014-07-31T12:51:35.170Z</time>
      </trkpt>
      <trkpt lat="44.92781" lon="6.85912">
        <ele>2119</ele>
        <time>2014-07-31T12:51:37.170Z</time>
      </trkpt>
      <trkpt lat="44.92779" lon="6.85913">
        <ele>2119</ele>
        <time>2014-07-31T12:51:39.170Z</time>
      </trkpt>
      <trkpt lat="44.92777" lon="6.85914">
        <ele>2119</ele>
        <time>2014-07-31T12:51:41.170Z</time>
      </trkpt>
      <trkpt lat="44.92775" lon="6.85916">
        <ele>2119</ele>
        <time>2014-07-31T12:51:43.170Z</time>
      </trkpt>
      <trkpt lat="44.92773" lon="6.85919">
        <ele>2119.5</ele>
        <time>2014-07-31T12:51:45.070Z</time>
      </trkpt>
      <trkpt lat="44.92772" lon="6.8592">
        <ele>2120</ele>
        <time>2014-07-31T12:51:46.140Z</time>
      </trkpt>
      <trkpt lat="44.9277" lon="6.85923">
        <ele>2120</ele>
        <time>2014-07-31T12:51:48.070Z</time>
      </trkpt>
      <trkpt lat="44.92768" lon="6.85925">
        <ele>2120</ele>
        <time>2014-07-31T12:51:50.160Z</time>
      </trkpt>
      <trkpt lat="44.92766" lon="6.85928">
        <ele>2120</ele>
        <time>2014-07-31T12:51:52.070Z</time>
      </trkpt>
      <trkpt lat="44.92764" lon="6.8593">
        <ele>2120</ele>
        <time>2014-07-31T12:51:54.180Z</time>
      </trkpt>
      <trkpt lat="44.92762" lon="6.85931">
        <ele>2122</ele>
        <time>2014-07-31T12:51:56.070Z</time>
      </trkpt>
      <trkpt lat="44.92761" lon="6.85932">
        <ele>2122</ele>
        <time>2014-07-31T12:51:57.170Z</time>
      </trkpt>
      <trkpt lat="44.92759" lon="6.85933">
        <ele>2122</ele>
        <time>2014-07-31T12:51:59.170Z</time>
      </trkpt>
      <trkpt lat="44.92756" lon="6.85934">
        <ele>2122</ele>
        <time>2014-07-31T12:52:01.170Z</time>
      </trkpt>
      <trkpt lat="44.92754" lon="6.85935">
        <ele>2122</ele>
        <time>2014-07-31T12:52:03.040Z</time>
      </trkpt>
      <trkpt lat="44.92751" lon="6.85936">
        <ele>2123</ele>
        <time>2014-07-31T12:52:05.070Z</time>
      </trkpt>
      <trkpt lat="44.92749" lon="6.85936">
        <ele>2124</ele>
        <time>2014-07-31T12:52:07.070Z</time>
      </trkpt>
      <trkpt lat="44.92747" lon="6.85935">
        <ele>2124</ele>
        <time>2014-07-31T12:52:09.070Z</time>
      </trkpt>
      <trkpt lat="44.92745" lon="6.85935">
        <ele>2124</ele>
        <time>2014-07-31T12:52:10.170Z</time>
      </trkpt>
      <trkpt lat="44.92742" lon="6.85936">
        <ele>2124</ele>
        <time>2014-07-31T12:52:12.060Z</time>
      </trkpt>
      <trkpt lat="44.92739" lon="6.85936">
        <ele>2124</ele>
        <time>2014-07-31T12:52:14.170Z</time>
      </trkpt>
      <trkpt lat="44.92736" lon="6.85937">
        <ele>2125</ele>
        <time>2014-07-31T12:52:16.170Z</time>
      </trkpt>
      <trkpt lat="44.92734" lon="6.85938">
        <ele>2125</ele>
        <time>2014-07-31T12:52:18.170Z</time>
      </trkpt>
      <trkpt lat="44.92732" lon="6.85938">
        <ele>2125</ele>
        <time>2014-07-31T12:52:20.140Z</time>
      </trkpt>
      <trkpt lat="44.92729" lon="6.85938">
        <ele>2125</ele>
        <time>2014-07-31T12:52:22.170Z</time>
      </trkpt>
      <trkpt lat="44.92727" lon="6.85938">
        <ele>2125</ele>
        <time>2014-07-31T12:52:24.070Z</time>
      </trkpt>
      <trkpt lat="44.92725" lon="6.85939">
        <ele>2126</ele>
        <time>2014-07-31T12:52:26.070Z</time>
      </trkpt>
      <trkpt lat="44.92723" lon="6.85939">
        <ele>2126</ele>
        <time>2014-07-31T12:52:27.170Z</time>
      </trkpt>
      <trkpt lat="44.9272" lon="6.85938">
        <ele>2126</ele>
        <time>2014-07-31T12:52:29.070Z</time>
      </trkpt>
      <trkpt lat="44.92717" lon="6.85937">
        <ele>2126</ele>
        <time>2014-07-31T12:52:31.170Z</time>
      </trkpt>
      <trkpt lat="44.92715" lon="6.85936">
        <ele>2126</ele>
        <time>2014-07-31T12:52:33.070Z</time>
      </trkpt>
      <trkpt lat="44.92714" lon="6.85936">
        <ele>2126</ele>
        <time>2014-07-31T12:52:34.140Z</time>
      </trkpt>
      <trkpt lat="44.92711" lon="6.85935">
        <ele>2127</ele>
        <time>2014-07-31T12:52:36.070Z</time>
      </trkpt>
      <trkpt lat="44.9271" lon="6.85934">
        <ele>2127</ele>
        <time>2014-07-31T12:52:37.140Z</time>
      </trkpt>
      <trkpt lat="44.92707" lon="6.85933">
        <ele>2127</ele>
        <time>2014-07-31T12:52:39.070Z</time>
      </trkpt>
      <trkpt lat="44.92705" lon="6.85932">
        <ele>2127</ele>
        <time>2014-07-31T12:52:41.070Z</time>
      </trkpt>
      <trkpt lat="44.92703" lon="6.8593">
        <ele>2127</ele>
        <time>2014-07-31T12:52:43.180Z</time>
      </trkpt>
      <trkpt lat="44.92701" lon="6.8593">
        <ele>2127</ele>
        <time>2014-07-31T12:52:44.170Z</time>
      </trkpt>
      <trkpt lat="44.92699" lon="6.8593">
        <ele>2129</ele>
        <time>2014-07-31T12:52:46.170Z</time>
      </trkpt>
      <trkpt lat="44.92698" lon="6.85928">
        <ele>2129</ele>
        <time>2014-07-31T12:52:48.070Z</time>
      </trkpt>
      <trkpt lat="44.92696" lon="6.85926">
        <ele>2129</ele>
        <time>2014-07-31T12:52:50.070Z</time>
      </trkpt>
      <trkpt lat="44.92695" lon="6.85925">
        <ele>2129</ele>
        <time>2014-07-31T12:52:51.110Z</time>
      </trkpt>
      <trkpt lat="44.92694" lon="6.85923">
        <ele>2129</ele>
        <time>2014-07-31T12:52:53.170Z</time>
      </trkpt>
      <trkpt lat="44.92691" lon="6.85922">
        <ele>2129.5</ele>
        <time>2014-07-31T12:52:55.070Z</time>
      </trkpt>
      <trkpt lat="44.92689" lon="6.85921">
        <ele>2130</ele>
        <time>2014-07-31T12:52:56.070Z</time>
      </trkpt>
      <trkpt lat="44.92688" lon="6.85921">
        <ele>2130</ele>
        <time>2014-07-31T12:52:57.170Z</time>
      </trkpt>
      <trkpt lat="44.92685" lon="6.8592">
        <ele>2130</ele>
        <time>2014-07-31T12:52:59.070Z</time>
      </trkpt>
      <trkpt lat="44.92684" lon="6.85919">
        <ele>2130</ele>
        <time>2014-07-31T12:53:00.130Z</time>
      </trkpt>
      <trkpt lat="44.92682" lon="6.85917">
        <ele>2130</ele>
        <time>2014-07-31T12:53:02.170Z</time>
      </trkpt>
      <trkpt lat="44.92679" lon="6.85916">
        <ele>2130</ele>
        <time>2014-07-31T12:53:04.170Z</time>
      </trkpt>
      <trkpt lat="44.92677" lon="6.85915">
        <ele>2131</ele>
        <time>2014-07-31T12:53:06.070Z</time>
      </trkpt>
      <trkpt lat="44.92674" lon="6.85914">
        <ele>2131</ele>
        <time>2014-07-31T12:53:08.160Z</time>
      </trkpt>
      <trkpt lat="44.92673" lon="6.85914">
        <ele>2131</ele>
        <time>2014-07-31T12:53:09.170Z</time>
      </trkpt>
      <trkpt lat="44.9267" lon="6.85913">
        <ele>2131</ele>
        <time>2014-07-31T12:53:11.040Z</time>
      </trkpt>
      <trkpt lat="44.92668" lon="6.85911">
        <ele>2131</ele>
        <time>2014-07-31T12:53:13.170Z</time>
      </trkpt>
      <trkpt lat="44.92665" lon="6.85908">
        <ele>2132.2</ele>
        <time>2014-07-31T12:53:15.170Z</time>
      </trkpt>
      <trkpt lat="44.92663" lon="6.85907">
        <ele>2133</ele>
        <time>2014-07-31T12:53:17.040Z</time>
      </trkpt>
      <trkpt lat="44.92661" lon="6.85906">
        <ele>2133</ele>
        <time>2014-07-31T12:53:18.170Z</time>
      </trkpt>
      <trkpt lat="44.92659" lon="6.85905">
        <ele>2133</ele>
        <time>2014-07-31T12:53:20.170Z</time>
      </trkpt>
      <trkpt lat="44.92657" lon="6.85903">
        <ele>2133</ele>
        <time>2014-07-31T12:53:22.070Z</time>
      </trkpt>
      <trkpt lat="44.92654" lon="6.85902">
        <ele>2133</ele>
        <time>2014-07-31T12:53:24.070Z</time>
      </trkpt>
      <trkpt lat="44.92651" lon="6.85901">
        <ele>2134</ele>
        <time>2014-07-31T12:53:26.170Z</time>
      </trkpt>
      <trkpt lat="44.92648" lon="6.859">
        <ele>2134</ele>
        <time>2014-07-31T12:53:28.040Z</time>
      </trkpt>
      <trkpt lat="44.92646" lon="6.859">
        <ele>2134</ele>
        <time>2014-07-31T12:53:30.070Z</time>
      </trkpt>
      <trkpt lat="44.92645" lon="6.859">
        <ele>2134</ele>
        <time>2014-07-31T12:53:31.170Z</time>
      </trkpt>
      <trkpt lat="44.92642" lon="6.85898">
        <ele>2134</ele>
        <time>2014-07-31T12:53:33.070Z</time>
      </trkpt>
      <trkpt lat="44.92641" lon="6.85898">
        <ele>2134</ele>
        <time>2014-07-31T12:53:34.140Z</time>
      </trkpt>
      <trkpt lat="44.92639" lon="6.85897">
        <ele>2136</ele>
        <time>2014-07-31T12:53:36.170Z</time>
      </trkpt>
      <trkpt lat="44.92636" lon="6.85897">
        <ele>2136</ele>
        <time>2014-07-31T12:53:38.070Z</time>
      </trkpt>
      <trkpt lat="44.92635" lon="6.85898">
        <ele>2136</ele>
        <time>2014-07-31T12:53:39.170Z</time>
      </trkpt>
      <trkpt lat="44.92631" lon="6.85899">
        <ele>2136</ele>
        <time>2014-07-31T12:53:41.170Z</time>
      </trkpt>
      <trkpt lat="44.92628" lon="6.859">
        <ele>2136</ele>
        <time>2014-07-31T12:53:43.070Z</time>
      </trkpt>
      <trkpt lat="44.92625" lon="6.859">
        <ele>2137.6</ele>
        <time>2014-07-31T12:53:45.100Z</time>
      </trkpt>
      <trkpt lat="44.92623" lon="6.859">
        <ele>2139</ele>
        <time>2014-07-31T12:53:46.170Z</time>
      </trkpt>
      <trkpt lat="44.9262" lon="6.859">
        <ele>2139</ele>
        <time>2014-07-31T12:53:48.170Z</time>
      </trkpt>
      <trkpt lat="44.92618" lon="6.859">
        <ele>2139</ele>
        <time>2014-07-31T12:53:50.170Z</time>
      </trkpt>
      <trkpt lat="44.92615" lon="6.85899">
        <ele>2139</ele>
        <time>2014-07-31T12:53:52.170Z</time>
      </trkpt>
      <trkpt lat="44.92613" lon="6.85899">
        <ele>2139</ele>
        <time>2014-07-31T12:53:54.070Z</time>
      </trkpt>
      <trkpt lat="44.9261" lon="6.85899">
        <ele>2140</ele>
        <time>2014-07-31T12:53:56.170Z</time>
      </trkpt>
      <trkpt lat="44.92607" lon="6.85899">
        <ele>2140</ele>
        <time>2014-07-31T12:53:58.280Z</time>
      </trkpt>
      <trkpt lat="44.92604" lon="6.85898">
        <ele>2140</ele>
        <time>2014-07-31T12:54:00.030Z</time>
      </trkpt>
      <trkpt lat="44.92601" lon="6.85897">
        <ele>2140</ele>
        <time>2014-07-31T12:54:02.140Z</time>
      </trkpt>
      <trkpt lat="44.92598" lon="6.85897">
        <ele>2140</ele>
        <time>2014-07-31T12:54:04.070Z</time>
      </trkpt>
      <trkpt lat="44.92597" lon="6.85897">
        <ele>2140.6</ele>
        <time>2014-07-31T12:54:05.170Z</time>
      </trkpt>
      <trkpt lat="44.92594" lon="6.85896">
        <ele>2141</ele>
        <time>2014-07-31T12:54:07.070Z</time>
      </trkpt>
      <trkpt lat="44.92593" lon="6.85895">
        <ele>2141</ele>
        <time>2014-07-31T12:54:08.170Z</time>
      </trkpt>
      <trkpt lat="44.9259" lon="6.85894">
        <ele>2141</ele>
        <time>2014-07-31T12:54:10.170Z</time>
      </trkpt>
      <trkpt lat="44.92588" lon="6.85894">
        <ele>2141</ele>
        <time>2014-07-31T12:54:11.170Z</time>
      </trkpt>
      <trkpt lat="44.92585" lon="6.85893">
        <ele>2141</ele>
        <time>2014-07-31T12:54:13.170Z</time>
      </trkpt>
      <trkpt lat="44.92583" lon="6.85894">
        <ele>2142.8</ele>
        <time>2014-07-31T12:54:15.170Z</time>
      </trkpt>
      <trkpt lat="44.9258" lon="6.85894">
        <ele>2144</ele>
        <time>2014-07-31T12:54:17.030Z</time>
      </trkpt>
      <trkpt lat="44.92579" lon="6.85894">
        <ele>2144</ele>
        <time>2014-07-31T12:54:18.160Z</time>
      </trkpt>
      <trkpt lat="44.92576" lon="6.85895">
        <ele>2145</ele>
        <time>2014-07-31T12:54:20.070Z</time>
      </trkpt>
      <trkpt lat="44.92575" lon="6.85895">
        <ele>2146</ele>
        <time>2014-07-31T12:54:21.170Z</time>
      </trkpt>
      <trkpt lat="44.92571" lon="6.85896">
        <ele>2146</ele>
        <time>2014-07-31T12:54:23.170Z</time>
      </trkpt>
      <trkpt lat="44.92568" lon="6.85895">
        <ele>2146</ele>
        <time>2014-07-31T12:54:25.070Z</time>
      </trkpt>
      <trkpt lat="44.92565" lon="6.85895">
        <ele>2146</ele>
        <time>2014-07-31T12:54:27.070Z</time>
      </trkpt>
      <trkpt lat="44.92562" lon="6.85894">
        <ele>2146</ele>
        <time>2014-07-31T12:54:29.170Z</time>
      </trkpt>
      <trkpt lat="44.92559" lon="6.85894">
        <ele>2146</ele>
        <time>2014-07-31T12:54:31.070Z</time>
      </trkpt>
      <trkpt lat="44.92556" lon="6.85892">
        <ele>2146</ele>
        <time>2014-07-31T12:54:33.170Z</time>
      </trkpt>
      <trkpt lat="44.92554" lon="6.8589">
        <ele>2146.5</ele>
        <time>2014-07-31T12:54:35.070Z</time>
      </trkpt>
      <trkpt lat="44.92553" lon="6.8589">
        <ele>2147</ele>
        <time>2014-07-31T12:54:36.140Z</time>
      </trkpt>
      <trkpt lat="44.9255" lon="6.85889">
        <ele>2147</ele>
        <time>2014-07-31T12:54:38.070Z</time>
      </trkpt>
      <trkpt lat="44.92548" lon="6.85887">
        <ele>2147</ele>
        <time>2014-07-31T12:54:40.070Z</time>
      </trkpt>
      <trkpt lat="44.92546" lon="6.85887">
        <ele>2147</ele>
        <time>2014-07-31T12:54:41.170Z</time>
      </trkpt>
      <trkpt lat="44.92544" lon="6.85886">
        <ele>2147</ele>
        <time>2014-07-31T12:54:43.070Z</time>
      </trkpt>
      <trkpt lat="44.92541" lon="6.85885">
        <ele>2147.6</ele>
        <time>2014-07-31T12:54:45.170Z</time>
      </trkpt>
      <trkpt lat="44.92538" lon="6.85884">
        <ele>2148</ele>
        <time>2014-07-31T12:54:47.280Z</time>
      </trkpt>
      <trkpt lat="44.92535" lon="6.85883">
        <ele>2148</ele>
        <time>2014-07-31T12:54:49.170Z</time>
      </trkpt>
      <trkpt lat="44.92533" lon="6.85882">
        <ele>2148</ele>
        <time>2014-07-31T12:54:50.970Z</time>
      </trkpt>
      <trkpt lat="44.92529" lon="6.85882">
        <ele>2148</ele>
        <time>2014-07-31T12:54:53.140Z</time>
      </trkpt>
      <trkpt lat="44.92527" lon="6.85881">
        <ele>2149</ele>
        <time>2014-07-31T12:54:55.070Z</time>
      </trkpt>
      <trkpt lat="44.92524" lon="6.85879">
        <ele>2150</ele>
        <time>2014-07-31T12:54:57.070Z</time>
      </trkpt>
      <trkpt lat="44.92523" lon="6.85879">
        <ele>2150</ele>
        <time>2014-07-31T12:54:58.170Z</time>
      </trkpt>
      <trkpt lat="44.9252" lon="6.85879">
        <ele>2150</ele>
        <time>2014-07-31T12:55:00.030Z</time>
      </trkpt>
      <trkpt lat="44.92517" lon="6.85878">
        <ele>2150</ele>
        <time>2014-07-31T12:55:02.170Z</time>
      </trkpt>
      <trkpt lat="44.92515" lon="6.85877">
        <ele>2150</ele>
        <time>2014-07-31T12:55:04.070Z</time>
      </trkpt>
      <trkpt lat="44.92512" lon="6.85877">
        <ele>2150</ele>
        <time>2014-07-31T12:55:06.170Z</time>
      </trkpt>
      <trkpt lat="44.92509" lon="6.85876">
        <ele>2150</ele>
        <time>2014-07-31T12:55:08.070Z</time>
      </trkpt>
      <trkpt lat="44.92506" lon="6.85876">
        <ele>2150</ele>
        <time>2014-07-31T12:55:10.140Z</time>
      </trkpt>
      <trkpt lat="44.92503" lon="6.85876">
        <ele>2150</ele>
        <time>2014-07-31T12:55:12.180Z</time>
      </trkpt>
      <trkpt lat="44.92502" lon="6.85876">
        <ele>2150</ele>
        <time>2014-07-31T12:55:13.170Z</time>
      </trkpt>
      <trkpt lat="44.92499" lon="6.85875">
        <ele>2151</ele>
        <time>2014-07-31T12:55:15.070Z</time>
      </trkpt>
      <trkpt lat="44.92496" lon="6.85875">
        <ele>2152</ele>
        <time>2014-07-31T12:55:17.140Z</time>
      </trkpt>
      <trkpt lat="44.92493" lon="6.85875">
        <ele>2152</ele>
        <time>2014-07-31T12:55:19.170Z</time>
      </trkpt>
      <trkpt lat="44.92489" lon="6.85877">
        <ele>2152</ele>
        <time>2014-07-31T12:55:21.170Z</time>
      </trkpt>
      <trkpt lat="44.92484" lon="6.85879">
        <ele>2152</ele>
        <time>2014-07-31T12:55:23.070Z</time>
      </trkpt>
      <trkpt lat="44.92482" lon="6.85881">
        <ele>2152</ele>
        <time>2014-07-31T12:55:24.170Z</time>
      </trkpt>
      <trkpt lat="44.92479" lon="6.85882">
        <ele>2152</ele>
        <time>2014-07-31T12:55:26.170Z</time>
      </trkpt>
      <trkpt lat="44.92476" lon="6.85883">
        <ele>2152</ele>
        <time>2014-07-31T12:55:28.100Z</time>
      </trkpt>
      <trkpt lat="44.92473" lon="6.85884">
        <ele>2152</ele>
        <time>2014-07-31T12:55:30.170Z</time>
      </trkpt>
      <trkpt lat="44.9247" lon="6.85885">
        <ele>2152</ele>
        <time>2014-07-31T12:55:32.070Z</time>
      </trkpt>
      <trkpt lat="44.92469" lon="6.85886">
        <ele>2152</ele>
        <time>2014-07-31T12:55:33.170Z</time>
      </trkpt>
      <trkpt lat="44.92466" lon="6.85886">
        <ele>2152.5</ele>
        <time>2014-07-31T12:55:35.070Z</time>
      </trkpt>
      <trkpt lat="44.92465" lon="6.85887">
        <ele>2153</ele>
        <time>2014-07-31T12:55:36.170Z</time>
      </trkpt>
      <trkpt lat="44.92462" lon="6.85888">
        <ele>2153</ele>
        <time>2014-07-31T12:55:38.070Z</time>
      </trkpt>
      <trkpt lat="44.9246" lon="6.85888">
        <ele>2153</ele>
        <time>2014-07-31T12:55:39.160Z</time>
      </trkpt>
      <trkpt lat="44.92457" lon="6.85888">
        <ele>2153</ele>
        <time>2014-07-31T12:55:41.070Z</time>
      </trkpt>
      <trkpt lat="44.92454" lon="6.85888">
        <ele>2153</ele>
        <time>2014-07-31T12:55:43.170Z</time>
      </trkpt>
      <trkpt lat="44.92452" lon="6.85888">
        <ele>2154.2</ele>
        <time>2014-07-31T12:55:45.170Z</time>
      </trkpt>
      <trkpt lat="44.92449" lon="6.85887">
        <ele>2155</ele>
        <time>2014-07-31T12:55:47.170Z</time>
      </trkpt>
      <trkpt lat="44.92447" lon="6.85886">
        <ele>2155</ele>
        <time>2014-07-31T12:55:49.170Z</time>
      </trkpt>
      <trkpt lat="44.92445" lon="6.85887">
        <ele>2155</ele>
        <time>2014-07-31T12:55:50.170Z</time>
      </trkpt>
      <trkpt lat="44.92443" lon="6.85887">
        <ele>2155</ele>
        <time>2014-07-31T12:55:52.070Z</time>
      </trkpt>
      <trkpt lat="44.92441" lon="6.85886">
        <ele>2155</ele>
        <time>2014-07-31T12:55:54.070Z</time>
      </trkpt>
      <trkpt lat="44.92438" lon="6.85887">
        <ele>2157</ele>
        <time>2014-07-31T12:55:56.070Z</time>
      </trkpt>
      <trkpt lat="44.92437" lon="6.85887">
        <ele>2157</ele>
        <time>2014-07-31T12:55:57.170Z</time>
      </trkpt>
      <trkpt lat="44.92434" lon="6.85889">
        <ele>2157</ele>
        <time>2014-07-31T12:55:59.070Z</time>
      </trkpt>
      <trkpt lat="44.92432" lon="6.85891">
        <ele>2157</ele>
        <time>2014-07-31T12:56:01.160Z</time>
      </trkpt>
      <trkpt lat="44.9243" lon="6.85893">
        <ele>2157</ele>
        <time>2014-07-31T12:56:03.170Z</time>
      </trkpt>
      <trkpt lat="44.92427" lon="6.85895">
        <ele>2157.5</ele>
        <time>2014-07-31T12:56:05.070Z</time>
      </trkpt>
      <trkpt lat="44.92424" lon="6.85898">
        <ele>2158</ele>
        <time>2014-07-31T12:56:07.070Z</time>
      </trkpt>
      <trkpt lat="44.92423" lon="6.85898">
        <ele>2158</ele>
        <time>2014-07-31T12:56:08.170Z</time>
      </trkpt>
      <trkpt lat="44.92421" lon="6.85899">
        <ele>2158</ele>
        <time>2014-07-31T12:56:10.070Z</time>
      </trkpt>
      <trkpt lat="44.92418" lon="6.859">
        <ele>2158</ele>
        <time>2014-07-31T12:56:12.070Z</time>
      </trkpt>
      <trkpt lat="44.92416" lon="6.859">
        <ele>2158</ele>
        <time>2014-07-31T12:56:13.170Z</time>
      </trkpt>
      <trkpt lat="44.92415" lon="6.85901">
        <ele>2158</ele>
        <time>2014-07-31T12:56:14.200Z</time>
      </trkpt>
      <trkpt lat="44.92413" lon="6.85902">
        <ele>2159.2</ele>
        <time>2014-07-31T12:56:15.170Z</time>
      </trkpt>
      <trkpt lat="44.92411" lon="6.85903">
        <ele>2160</ele>
        <time>2014-07-31T12:56:17.030Z</time>
      </trkpt>
      <trkpt lat="44.92409" lon="6.85903">
        <ele>2160</ele>
        <time>2014-07-31T12:56:18.140Z</time>
      </trkpt>
      <trkpt lat="44.92407" lon="6.85904">
        <ele>2160</ele>
        <time>2014-07-31T12:56:20.170Z</time>
      </trkpt>
      <trkpt lat="44.92404" lon="6.85905">
        <ele>2160</ele>
        <time>2014-07-31T12:56:22.070Z</time>
      </trkpt>
      <trkpt lat="44.92403" lon="6.85904">
        <ele>2160</ele>
        <time>2014-07-31T12:56:23.170Z</time>
      </trkpt>
      <trkpt lat="44.92401" lon="6.85903">
        <ele>2161</ele>
        <time>2014-07-31T12:56:25.060Z</time>
      </trkpt>
      <trkpt lat="44.924" lon="6.85903">
        <ele>2162</ele>
        <time>2014-07-31T12:56:26.170Z</time>
      </trkpt>
      <trkpt lat="44.92397" lon="6.85903">
        <ele>2162</ele>
        <time>2014-07-31T12:56:28.070Z</time>
      </trkpt>
      <trkpt lat="44.92396" lon="6.85904">
        <ele>2162</ele>
        <time>2014-07-31T12:56:29.170Z</time>
      </trkpt>
      <trkpt lat="44.92394" lon="6.85905">
        <ele>2162</ele>
        <time>2014-07-31T12:56:31.170Z</time>
      </trkpt>
      <trkpt lat="44.92391" lon="6.85904">
        <ele>2162</ele>
        <time>2014-07-31T12:56:33.070Z</time>
      </trkpt>
      <trkpt lat="44.9239" lon="6.85904">
        <ele>2162</ele>
        <time>2014-07-31T12:56:34.070Z</time>
      </trkpt>
      <trkpt lat="44.92387" lon="6.85904">
        <ele>2162</ele>
        <time>2014-07-31T12:56:36.070Z</time>
      </trkpt>
      <trkpt lat="44.92386" lon="6.85904">
        <ele>2162</ele>
        <time>2014-07-31T12:56:37.170Z</time>
      </trkpt>
      <trkpt lat="44.92384" lon="6.85903">
        <ele>2162</ele>
        <time>2014-07-31T12:56:39.070Z</time>
      </trkpt>
      <trkpt lat="44.92383" lon="6.85903">
        <ele>2162</ele>
        <time>2014-07-31T12:56:40.070Z</time>
      </trkpt>
      <trkpt lat="44.92381" lon="6.85903">
        <ele>2162</ele>
        <time>2014-07-31T12:56:41.170Z</time>
      </trkpt>
      <trkpt lat="44.92378" lon="6.85902">
        <ele>2162</ele>
        <time>2014-07-31T12:56:43.070Z</time>
      </trkpt>
      <trkpt lat="44.92376" lon="6.85901">
        <ele>2162</ele>
        <time>2014-07-31T12:56:45.070Z</time>
      </trkpt>
      <trkpt lat="44.92374" lon="6.85901">
        <ele>2162</ele>
        <time>2014-07-31T12:56:46.170Z</time>
      </trkpt>
      <trkpt lat="44.92372" lon="6.859">
        <ele>2162</ele>
        <time>2014-07-31T12:56:48.060Z</time>
      </trkpt>
      <trkpt lat="44.9237" lon="6.859">
        <ele>2162</ele>
        <time>2014-07-31T12:56:49.170Z</time>
      </trkpt>
      <trkpt lat="44.92368" lon="6.859">
        <ele>2162</ele>
        <time>2014-07-31T12:56:51.030Z</time>
      </trkpt>
      <trkpt lat="44.92366" lon="6.85899">
        <ele>2162</ele>
        <time>2014-07-31T12:56:52.140Z</time>
      </trkpt>
      <trkpt lat="44.92364" lon="6.85899">
        <ele>2162</ele>
        <time>2014-07-31T12:56:54.070Z</time>
      </trkpt>
      <trkpt lat="44.92362" lon="6.85899">
        <ele>2164</ele>
        <time>2014-07-31T12:56:56.070Z</time>
      </trkpt>
      <trkpt lat="44.92359" lon="6.85898">
        <ele>2164</ele>
        <time>2014-07-31T12:56:58.170Z</time>
      </trkpt>
      <trkpt lat="44.92356" lon="6.85896">
        <ele>2164</ele>
        <time>2014-07-31T12:57:00.130Z</time>
      </trkpt>
      <trkpt lat="44.92354" lon="6.85895">
        <ele>2164</ele>
        <time>2014-07-31T12:57:02.070Z</time>
      </trkpt>
      <trkpt lat="44.92353" lon="6.85895">
        <ele>2164</ele>
        <time>2014-07-31T12:57:03.170Z</time>
      </trkpt>
      <trkpt lat="44.92351" lon="6.85896">
        <ele>2164</ele>
        <time>2014-07-31T12:57:05.170Z</time>
      </trkpt>
      <trkpt lat="44.92347" lon="6.85897">
        <ele>2164</ele>
        <time>2014-07-31T12:57:07.070Z</time>
      </trkpt>
      <trkpt lat="44.92344" lon="6.85896">
        <ele>2164</ele>
        <time>2014-07-31T12:57:08.170Z</time>
      </trkpt>
      <trkpt lat="44.9234" lon="6.85894">
        <ele>2164</ele>
        <time>2014-07-31T12:57:10.070Z</time>
      </trkpt>
      <trkpt lat="44.92336" lon="6.85892">
        <ele>2164</ele>
        <time>2014-07-31T12:57:12.070Z</time>
      </trkpt>
      <trkpt lat="44.92334" lon="6.85891">
        <ele>2164</ele>
        <time>2014-07-31T12:57:13.170Z</time>
      </trkpt>
      <trkpt lat="44.92331" lon="6.85889">
        <ele>2164</ele>
        <time>2014-07-31T12:57:15.070Z</time>
      </trkpt>
      <trkpt lat="44.92328" lon="6.85888">
        <ele>2164</ele>
        <time>2014-07-31T12:57:17.130Z</time>
      </trkpt>
      <trkpt lat="44.92325" lon="6.85887">
        <ele>2164</ele>
        <time>2014-07-31T12:57:19.070Z</time>
      </trkpt>
      <trkpt lat="44.92321" lon="6.85885">
        <ele>2164</ele>
        <time>2014-07-31T12:57:21.160Z</time>
      </trkpt>
      <trkpt lat="44.92318" lon="6.85882">
        <ele>2164</ele>
        <time>2014-07-31T12:57:23.170Z</time>
      </trkpt>
      <trkpt lat="44.92314" lon="6.8588">
        <ele>2165.2</ele>
        <time>2014-07-31T12:57:25.170Z</time>
      </trkpt>
      <trkpt lat="44.92312" lon="6.85879">
        <ele>2166</ele>
        <time>2014-07-31T12:57:27.170Z</time>
      </trkpt>
      <trkpt lat="44.92308" lon="6.85878">
        <ele>2166</ele>
        <time>2014-07-31T12:57:29.070Z</time>
      </trkpt>
      <trkpt lat="44.92305" lon="6.85877">
        <ele>2166</ele>
        <time>2014-07-31T12:57:31.170Z</time>
      </trkpt>
      <trkpt lat="44.92302" lon="6.85877">
        <ele>2166</ele>
        <time>2014-07-31T12:57:33.060Z</time>
      </trkpt>
      <trkpt lat="44.923" lon="6.85876">
        <ele>2166</ele>
        <time>2014-07-31T12:57:34.130Z</time>
      </trkpt>
      <trkpt lat="44.92297" lon="6.85876">
        <ele>2167</ele>
        <time>2014-07-31T12:57:36.070Z</time>
      </trkpt>
      <trkpt lat="44.92293" lon="6.85876">
        <ele>2167</ele>
        <time>2014-07-31T12:57:38.170Z</time>
      </trkpt>
      <trkpt lat="44.9229" lon="6.85876">
        <ele>2167</ele>
        <time>2014-07-31T12:57:40.070Z</time>
      </trkpt>
      <trkpt lat="44.92287" lon="6.85877">
        <ele>2167</ele>
        <time>2014-07-31T12:57:42.070Z</time>
      </trkpt>
      <trkpt lat="44.92285" lon="6.85877">
        <ele>2167</ele>
        <time>2014-07-31T12:57:43.140Z</time>
      </trkpt>
      <trkpt lat="44.92283" lon="6.85877">
        <ele>2167</ele>
        <time>2014-07-31T12:57:44.170Z</time>
      </trkpt>
      <trkpt lat="44.92279" lon="6.85879">
        <ele>2167</ele>
        <time>2014-07-31T12:57:46.170Z</time>
      </trkpt>
      <trkpt lat="44.92276" lon="6.8588">
        <ele>2167</ele>
        <time>2014-07-31T12:57:48.170Z</time>
      </trkpt>
      <trkpt lat="44.92273" lon="6.85882">
        <ele>2167</ele>
        <time>2014-07-31T12:57:50.170Z</time>
      </trkpt>
      <trkpt lat="44.92271" lon="6.85883">
        <ele>2167</ele>
        <time>2014-07-31T12:57:52.170Z</time>
      </trkpt>
      <trkpt lat="44.92268" lon="6.85886">
        <ele>2167</ele>
        <time>2014-07-31T12:57:54.070Z</time>
      </trkpt>
      <trkpt lat="44.92266" lon="6.85888">
        <ele>2170</ele>
        <time>2014-07-31T12:57:56.070Z</time>
      </trkpt>
      <trkpt lat="44.92264" lon="6.8589">
        <ele>2170</ele>
        <time>2014-07-31T12:57:58.170Z</time>
      </trkpt>
      <trkpt lat="44.92261" lon="6.85893">
        <ele>2170</ele>
        <time>2014-07-31T12:58:00.060Z</time>
      </trkpt>
      <trkpt lat="44.92259" lon="6.85894">
        <ele>2170</ele>
        <time>2014-07-31T12:58:01.170Z</time>
      </trkpt>
      <trkpt lat="44.92256" lon="6.85897">
        <ele>2170</ele>
        <time>2014-07-31T12:58:03.070Z</time>
      </trkpt>
      <trkpt lat="44.92254" lon="6.859">
        <ele>2170</ele>
        <time>2014-07-31T12:58:05.170Z</time>
      </trkpt>
      <trkpt lat="44.92251" lon="6.85903">
        <ele>2170</ele>
        <time>2014-07-31T12:58:07.170Z</time>
      </trkpt>
      <trkpt lat="44.92249" lon="6.85906">
        <ele>2170</ele>
        <time>2014-07-31T12:58:09.210Z</time>
      </trkpt>
      <trkpt lat="44.92248" lon="6.85908">
        <ele>2170</ele>
        <time>2014-07-31T12:58:10.170Z</time>
      </trkpt>
      <trkpt lat="44.92245" lon="6.8591">
        <ele>2170</ele>
        <time>2014-07-31T12:58:12.170Z</time>
      </trkpt>
      <trkpt lat="44.92242" lon="6.85911">
        <ele>2170</ele>
        <time>2014-07-31T12:58:14.070Z</time>
      </trkpt>
      <trkpt lat="44.92238" lon="6.85913">
        <ele>2171</ele>
        <time>2014-07-31T12:58:16.070Z</time>
      </trkpt>
      <trkpt lat="44.92235" lon="6.85913">
        <ele>2171</ele>
        <time>2014-07-31T12:58:18.170Z</time>
      </trkpt>
      <trkpt lat="44.92232" lon="6.85913">
        <ele>2171</ele>
        <time>2014-07-31T12:58:20.170Z</time>
      </trkpt>
      <trkpt lat="44.92229" lon="6.85914">
        <ele>2171</ele>
        <time>2014-07-31T12:58:22.070Z</time>
      </trkpt>
      <trkpt lat="44.92227" lon="6.85914">
        <ele>2171</ele>
        <time>2014-07-31T12:58:23.170Z</time>
      </trkpt>
      <trkpt lat="44.92225" lon="6.85915">
        <ele>2171</ele>
        <time>2014-07-31T12:58:24.170Z</time>
      </trkpt>
      <trkpt lat="44.9222" lon="6.85916">
        <ele>2173</ele>
        <time>2014-07-31T12:58:26.070Z</time>
      </trkpt>
      <trkpt lat="44.92215" lon="6.85919">
        <ele>2173</ele>
        <time>2014-07-31T12:58:28.170Z</time>
      </trkpt>
      <trkpt lat="44.92213" lon="6.85919">
        <ele>2173</ele>
        <time>2014-07-31T12:58:30.170Z</time>
      </trkpt>
      <trkpt lat="44.92209" lon="6.8592">
        <ele>2173</ele>
        <time>2014-07-31T12:58:32.160Z</time>
      </trkpt>
      <trkpt lat="44.92205" lon="6.85919">
        <ele>2173</ele>
        <time>2014-07-31T12:58:34.160Z</time>
      </trkpt>
      <trkpt lat="44.92202" lon="6.85919">
        <ele>2173</ele>
        <time>2014-07-31T12:58:36.070Z</time>
      </trkpt>
      <trkpt lat="44.92199" lon="6.85918">
        <ele>2173</ele>
        <time>2014-07-31T12:58:38.170Z</time>
      </trkpt>
      <trkpt lat="44.92195" lon="6.85917">
        <ele>2173</ele>
        <time>2014-07-31T12:58:40.070Z</time>
      </trkpt>
      <trkpt lat="44.92192" lon="6.85915">
        <ele>2173</ele>
        <time>2014-07-31T12:58:42.070Z</time>
      </trkpt>
      <trkpt lat="44.92191" lon="6.85915">
        <ele>2173</ele>
        <time>2014-07-31T12:58:43.170Z</time>
      </trkpt>
      <trkpt lat="44.92188" lon="6.85915">
        <ele>2173.6</ele>
        <time>2014-07-31T12:58:45.170Z</time>
      </trkpt>
      <trkpt lat="44.92185" lon="6.85915">
        <ele>2174</ele>
        <time>2014-07-31T12:58:47.170Z</time>
      </trkpt>
      <trkpt lat="44.92181" lon="6.85915">
        <ele>2174</ele>
        <time>2014-07-31T12:58:49.230Z</time>
      </trkpt>
      <trkpt lat="44.9218" lon="6.85916">
        <ele>2174</ele>
        <time>2014-07-31T12:58:50.170Z</time>
      </trkpt>
      <trkpt lat="44.92177" lon="6.85919">
        <ele>2174</ele>
        <time>2014-07-31T12:58:52.170Z</time>
      </trkpt>
      <trkpt lat="44.92174" lon="6.85921">
        <ele>2174</ele>
        <time>2014-07-31T12:58:54.070Z</time>
      </trkpt>
      <trkpt lat="44.9217" lon="6.85924">
        <ele>2175</ele>
        <time>2014-07-31T12:58:56.160Z</time>
      </trkpt>
      <trkpt lat="44.92167" lon="6.85925">
        <ele>2175</ele>
        <time>2014-07-31T12:58:58.070Z</time>
      </trkpt>
      <trkpt lat="44.92164" lon="6.85926">
        <ele>2175</ele>
        <time>2014-07-31T12:59:00.130Z</time>
      </trkpt>
      <trkpt lat="44.9216" lon="6.85928">
        <ele>2175</ele>
        <time>2014-07-31T12:59:02.070Z</time>
      </trkpt>
      <trkpt lat="44.92157" lon="6.85929">
        <ele>2175</ele>
        <time>2014-07-31T12:59:04.070Z</time>
      </trkpt>
      <trkpt lat="44.92156" lon="6.8593">
        <ele>2176.2</ele>
        <time>2014-07-31T12:59:05.170Z</time>
      </trkpt>
      <trkpt lat="44.92153" lon="6.8593">
        <ele>2177</ele>
        <time>2014-07-31T12:59:07.070Z</time>
      </trkpt>
      <trkpt lat="44.92151" lon="6.85931">
        <ele>2177</ele>
        <time>2014-07-31T12:59:08.140Z</time>
      </trkpt>
      <trkpt lat="44.92148" lon="6.85934">
        <ele>2177</ele>
        <time>2014-07-31T12:59:10.070Z</time>
      </trkpt>
      <trkpt lat="44.92145" lon="6.85936">
        <ele>2177</ele>
        <time>2014-07-31T12:59:12.070Z</time>
      </trkpt>
      <trkpt lat="44.92143" lon="6.85937">
        <ele>2177</ele>
        <time>2014-07-31T12:59:13.170Z</time>
      </trkpt>
      <trkpt lat="44.92141" lon="6.85938">
        <ele>2177.6</ele>
        <time>2014-07-31T12:59:15.170Z</time>
      </trkpt>
      <trkpt lat="44.92138" lon="6.8594">
        <ele>2178</ele>
        <time>2014-07-31T12:59:17.070Z</time>
      </trkpt>
      <trkpt lat="44.92135" lon="6.85941">
        <ele>2178</ele>
        <time>2014-07-31T12:59:19.170Z</time>
      </trkpt>
      <trkpt lat="44.92132" lon="6.85942">
        <ele>2178</ele>
        <time>2014-07-31T12:59:21.170Z</time>
      </trkpt>
      <trkpt lat="44.92128" lon="6.85943">
        <ele>2178</ele>
        <time>2014-07-31T12:59:23.170Z</time>
      </trkpt>
      <trkpt lat="44.92124" lon="6.85942">
        <ele>2178</ele>
        <time>2014-07-31T12:59:25.040Z</time>
      </trkpt>
      <trkpt lat="44.92123" lon="6.85941">
        <ele>2178</ele>
        <time>2014-07-31T12:59:26.170Z</time>
      </trkpt>
      <trkpt lat="44.92119" lon="6.8594">
        <ele>2178</ele>
        <time>2014-07-31T12:59:28.070Z</time>
      </trkpt>
      <trkpt lat="44.92117" lon="6.8594">
        <ele>2178</ele>
        <time>2014-07-31T12:59:29.160Z</time>
      </trkpt>
      <trkpt lat="44.92113" lon="6.85941">
        <ele>2178</ele>
        <time>2014-07-31T12:59:31.070Z</time>
      </trkpt>
      <trkpt lat="44.92109" lon="6.85942">
        <ele>2178</ele>
        <time>2014-07-31T12:59:33.170Z</time>
      </trkpt>
      <trkpt lat="44.92105" lon="6.85943">
        <ele>2179</ele>
        <time>2014-07-31T12:59:35.070Z</time>
      </trkpt>
      <trkpt lat="44.92101" lon="6.85945">
        <ele>2180</ele>
        <time>2014-07-31T12:59:37.070Z</time>
      </trkpt>
      <trkpt lat="44.92099" lon="6.85947">
        <ele>2180</ele>
        <time>2014-07-31T12:59:38.170Z</time>
      </trkpt>
      <trkpt lat="44.92096" lon="6.85949">
        <ele>2180</ele>
        <time>2014-07-31T12:59:40.070Z</time>
      </trkpt>
      <trkpt lat="44.92093" lon="6.85951">
        <ele>2180</ele>
        <time>2014-07-31T12:59:42.140Z</time>
      </trkpt>
      <trkpt lat="44.9209" lon="6.85953">
        <ele>2180</ele>
        <time>2014-07-31T12:59:44.070Z</time>
      </trkpt>
      <trkpt lat="44.92086" lon="6.85956">
        <ele>2181</ele>
        <time>2014-07-31T12:59:46.070Z</time>
      </trkpt>
      <trkpt lat="44.92084" lon="6.85957">
        <ele>2181</ele>
        <time>2014-07-31T12:59:47.170Z</time>
      </trkpt>
      <trkpt lat="44.9208" lon="6.85959">
        <ele>2181</ele>
        <time>2014-07-31T12:59:49.070Z</time>
      </trkpt>
      <trkpt lat="44.92077" lon="6.8596">
        <ele>2181</ele>
        <time>2014-07-31T12:59:51.130Z</time>
      </trkpt>
      <trkpt lat="44.92074" lon="6.85961">
        <ele>2181</ele>
        <time>2014-07-31T12:59:53.070Z</time>
      </trkpt>
      <trkpt lat="44.9207" lon="6.85962">
        <ele>2181.5</ele>
        <time>2014-07-31T12:59:55.070Z</time>
      </trkpt>
      <trkpt lat="44.92065" lon="6.85963">
        <ele>2182</ele>
        <time>2014-07-31T12:59:57.070Z</time>
      </trkpt>
      <trkpt lat="44.92064" lon="6.85964">
        <ele>2182</ele>
        <time>2014-07-31T12:59:58.170Z</time>
      </trkpt>
      <trkpt lat="44.92059" lon="6.85966">
        <ele>2182</ele>
        <time>2014-07-31T13:00:00.130Z</time>
      </trkpt>
      <trkpt lat="44.92055" lon="6.85967">
        <ele>2182</ele>
        <time>2014-07-31T13:00:02.170Z</time>
      </trkpt>
      <trkpt lat="44.92051" lon="6.85968">
        <ele>2182</ele>
        <time>2014-07-31T13:00:04.160Z</time>
      </trkpt>
      <trkpt lat="44.92047" lon="6.85969">
        <ele>2183</ele>
        <time>2014-07-31T13:00:06.170Z</time>
      </trkpt>
      <trkpt lat="44.92043" lon="6.85969">
        <ele>2183</ele>
        <time>2014-07-31T13:00:08.170Z</time>
      </trkpt>
      <trkpt lat="44.92039" lon="6.85969">
        <ele>2183</ele>
        <time>2014-07-31T13:00:10.170Z</time>
      </trkpt>
      <trkpt lat="44.92035" lon="6.85968">
        <ele>2183</ele>
        <time>2014-07-31T13:00:12.070Z</time>
      </trkpt>
      <trkpt lat="44.92033" lon="6.85968">
        <ele>2183</ele>
        <time>2014-07-31T13:00:13.170Z</time>
      </trkpt>
      <trkpt lat="44.92029" lon="6.85968">
        <ele>2183.6</ele>
        <time>2014-07-31T13:00:15.170Z</time>
      </trkpt>
      <trkpt lat="44.92025" lon="6.85968">
        <ele>2184</ele>
        <time>2014-07-31T13:00:17.030Z</time>
      </trkpt>
      <trkpt lat="44.92023" lon="6.85968">
        <ele>2184</ele>
        <time>2014-07-31T13:00:18.170Z</time>
      </trkpt>
      <trkpt lat="44.92019" lon="6.85969">
        <ele>2184</ele>
        <time>2014-07-31T13:00:20.070Z</time>
      </trkpt>
      <trkpt lat="44.92015" lon="6.85971">
        <ele>2184</ele>
        <time>2014-07-31T13:00:22.070Z</time>
      </trkpt>
      <trkpt lat="44.92013" lon="6.85972">
        <ele>2184</ele>
        <time>2014-07-31T13:00:23.170Z</time>
      </trkpt>
      <trkpt lat="44.9201" lon="6.85975">
        <ele>2185</ele>
        <time>2014-07-31T13:00:25.070Z</time>
      </trkpt>
      <trkpt lat="44.92005" lon="6.85979">
        <ele>2186</ele>
        <time>2014-07-31T13:00:27.070Z</time>
      </trkpt>
      <trkpt lat="44.92003" lon="6.85981">
        <ele>2186</ele>
        <time>2014-07-31T13:00:28.090Z</time>
      </trkpt>
      <trkpt lat="44.91997" lon="6.85987">
        <ele>2186</ele>
        <time>2014-07-31T13:00:30.170Z</time>
      </trkpt>
      <trkpt lat="44.91993" lon="6.85993">
        <ele>2186</ele>
        <time>2014-07-31T13:00:32.070Z</time>
      </trkpt>
      <trkpt lat="44.91991" lon="6.85995">
        <ele>2186</ele>
        <time>2014-07-31T13:00:33.140Z</time>
      </trkpt>
      <trkpt lat="44.91989" lon="6.85998">
        <ele>2186</ele>
        <time>2014-07-31T13:00:35.070Z</time>
      </trkpt>
      <trkpt lat="44.91988" lon="6.85999">
        <ele>2186</ele>
        <time>2014-07-31T13:00:36.170Z</time>
      </trkpt>
      <trkpt lat="44.91986" lon="6.86001">
        <ele>2186</ele>
        <time>2014-07-31T13:00:38.070Z</time>
      </trkpt>
      <trkpt lat="44.91983" lon="6.85999">
        <ele>2186</ele>
        <time>2014-07-31T13:00:40.160Z</time>
      </trkpt>
      <trkpt lat="44.9198" lon="6.85996">
        <ele>2186</ele>
        <time>2014-07-31T13:00:42.170Z</time>
      </trkpt>
      <trkpt lat="44.91979" lon="6.85993">
        <ele>2186</ele>
        <time>2014-07-31T13:00:44.070Z</time>
      </trkpt>
      <trkpt lat="44.9198" lon="6.85991">
        <ele>2187.3</ele>
        <time>2014-07-31T13:00:45.240Z</time>
      </trkpt>
      <trkpt lat="44.9198" lon="6.8599">
        <ele>2188</ele>
        <time>2014-07-31T13:00:46.170Z</time>
      </trkpt>
      <trkpt lat="44.9198" lon="6.85988">
        <ele>2188</ele>
        <time>2014-07-31T13:00:48.070Z</time>
      </trkpt>
      <trkpt lat="44.91981" lon="6.85986">
        <ele>2188</ele>
        <time>2014-07-31T13:00:50.970Z</time>
      </trkpt>
      <trkpt lat="44.91983" lon="6.85984">
        <ele>2188</ele>
        <time>2014-07-31T13:00:54.070Z</time>
      </trkpt>
      <trkpt lat="44.91984" lon="6.85984">
        <ele>2188</ele>
        <time>2014-07-31T13:00:56.070Z</time>
      </trkpt>
      <trkpt lat="44.91985" lon="6.85981">
        <ele>2188</ele>
        <time>2014-07-31T13:01:01.070Z</time>
      </trkpt>
      <trkpt lat="44.91984" lon="6.85983">
        <ele>2188</ele>
        <time>2014-07-31T13:01:05.170Z</time>
      </trkpt>
      <trkpt lat="44.91984" lon="6.85984">
        <ele>2188</ele>
        <time>2014-07-31T13:01:07.040Z</time>
      </trkpt>
      <trkpt lat="44.91984" lon="6.85986">
        <ele>2188</ele>
        <time>2014-07-31T13:01:12.070Z</time>
      </trkpt>
      <trkpt lat="44.91983" lon="6.85989">
        <ele>2188</ele>
        <time>2014-07-31T13:01:14.070Z</time>
      </trkpt>
      <trkpt lat="44.91982" lon="6.85991">
        <ele>2188</ele>
        <time>2014-07-31T13:01:16.160Z</time>
      </trkpt>
      <trkpt lat="44.91982" lon="6.85992">
        <ele>2188</ele>
        <time>2014-07-31T13:01:18.070Z</time>
      </trkpt>
      <trkpt lat="44.91981" lon="6.85993">
        <ele>2188</ele>
        <time>2014-07-31T13:01:20.070Z</time>
      </trkpt>
      <trkpt lat="44.91982" lon="6.85994">
        <ele>2188</ele>
        <time>2014-07-31T13:01:24.140Z</time>
      </trkpt>
      <trkpt lat="44.91983" lon="6.85994">
        <ele>2187</ele>
        <time>2014-07-31T13:01:26.070Z</time>
      </trkpt>
      <trkpt lat="44.91983" lon="6.85992">
        <ele>2187</ele>
        <time>2014-07-31T13:01:29.170Z</time>
      </trkpt>
      <trkpt lat="44.91983" lon="6.85991">
        <ele>2187</ele>
        <time>2014-07-31T13:01:31.070Z</time>
      </trkpt>
      <trkpt lat="44.91981" lon="6.85993">
        <ele>2187.5</ele>
        <time>2014-07-31T13:01:35.070Z</time>
      </trkpt>
      <trkpt lat="44.91982" lon="6.85991">
        <ele>2188</ele>
        <time>2014-07-31T13:01:37.170Z</time>
      </trkpt>
      <trkpt lat="44.91983" lon="6.8599">
        <ele>2188</ele>
        <time>2014-07-31T13:01:39.070Z</time>
      </trkpt>
      <trkpt lat="44.91984" lon="6.85991">
        <ele>2188</ele>
        <time>2014-07-31T13:01:44.170Z</time>
      </trkpt>
      <trkpt lat="44.91983" lon="6.85993">
        <ele>2188</ele>
        <time>2014-07-31T13:01:48.170Z</time>
      </trkpt>
      <trkpt lat="44.91983" lon="6.85994">
        <ele>2188</ele>
        <time>2014-07-31T13:01:55.070Z</time>
      </trkpt>
      <trkpt lat="44.91984" lon="6.85992">
        <ele>2188</ele>
        <time>2014-07-31T13:01:59.070Z</time>
      </trkpt>
      <trkpt lat="44.91984" lon="6.85991">
        <ele>2188</ele>
        <time>2014-07-31T13:02:00.130Z</time>
      </trkpt>
      <trkpt lat="44.91983" lon="6.85991">
        <ele>2188</ele>
        <time>2014-07-31T13:02:02.070Z</time>
      </trkpt>
      <trkpt lat="44.91983" lon="6.8599">
        <ele>2188</ele>
        <time>2014-07-31T13:02:05.170Z</time>
      </trkpt>
      <trkpt lat="44.91984" lon="6.8599">
        <ele>2188</ele>
        <time>2014-07-31T13:02:07.160Z</time>
      </trkpt>
      <trkpt lat="44.91984" lon="6.85991">
        <ele>2188</ele>
        <time>2014-07-31T13:02:10.070Z</time>
      </trkpt>
      <trkpt lat="44.91983" lon="6.85991">
        <ele>2188</ele>
        <time>2014-07-31T13:02:15.140Z</time>
      </trkpt>
      <trkpt lat="44.91982" lon="6.8599">
        <ele>2188</ele>
        <time>2014-07-31T13:02:17.130Z</time>
      </trkpt>
      <trkpt lat="44.91982" lon="6.85988">
        <ele>2188</ele>
        <time>2014-07-31T13:02:21.170Z</time>
      </trkpt>
      <trkpt lat="44.91983" lon="6.85987">
        <ele>2188</ele>
        <time>2014-07-31T13:02:23.070Z</time>
      </trkpt>
      <trkpt lat="44.91984" lon="6.85985">
        <ele>2189</ele>
        <time>2014-07-31T13:02:26.170Z</time>
      </trkpt>
      <trkpt lat="44.91986" lon="6.85983">
        <ele>2189</ele>
        <time>2014-07-31T13:02:28.070Z</time>
      </trkpt>
      <trkpt lat="44.91988" lon="6.85982">
        <ele>2189</ele>
        <time>2014-07-31T13:02:30.170Z</time>
      </trkpt>
      <trkpt lat="44.91989" lon="6.85982">
        <ele>2189</ele>
        <time>2014-07-31T13:02:35.070Z</time>
      </trkpt>
      <trkpt lat="44.91991" lon="6.8598">
        <ele>2189</ele>
        <time>2014-07-31T13:02:37.070Z</time>
      </trkpt>
      <trkpt lat="44.91994" lon="6.85977">
        <ele>2189</ele>
        <time>2014-07-31T13:02:40.070Z</time>
      </trkpt>
      <trkpt lat="44.91996" lon="6.85975">
        <ele>2189</ele>
        <time>2014-07-31T13:02:42.070Z</time>
      </trkpt>
      <trkpt lat="44.91997" lon="6.85975">
        <ele>2189</ele>
        <time>2014-07-31T13:02:43.170Z</time>
      </trkpt>
      <trkpt lat="44.91999" lon="6.85972">
        <ele>2189</ele>
        <time>2014-07-31T13:02:45.060Z</time>
      </trkpt>
      <trkpt lat="44.92002" lon="6.85969">
        <ele>2189</ele>
        <time>2014-07-31T13:02:47.170Z</time>
      </trkpt>
      <trkpt lat="44.92005" lon="6.85967">
        <ele>2189</ele>
        <time>2014-07-31T13:02:49.080Z</time>
      </trkpt>
      <trkpt lat="44.92007" lon="6.85963">
        <ele>2189</ele>
        <time>2014-07-31T13:02:51.030Z</time>
      </trkpt>
      <trkpt lat="44.92008" lon="6.85962">
        <ele>2189</ele>
        <time>2014-07-31T13:02:52.170Z</time>
      </trkpt>
      <trkpt lat="44.92011" lon="6.8596">
        <ele>2189</ele>
        <time>2014-07-31T13:02:54.070Z</time>
      </trkpt>
      <trkpt lat="44.92014" lon="6.85956">
        <ele>2190</ele>
        <time>2014-07-31T13:02:56.170Z</time>
      </trkpt>
      <trkpt lat="44.92017" lon="6.85954">
        <ele>2190</ele>
        <time>2014-07-31T13:02:58.070Z</time>
      </trkpt>
      <trkpt lat="44.92021" lon="6.85951">
        <ele>2190</ele>
        <time>2014-07-31T13:03:00.130Z</time>
      </trkpt>
      <trkpt lat="44.92024" lon="6.85949">
        <ele>2190</ele>
        <time>2014-07-31T13:03:02.170Z</time>
      </trkpt>
      <trkpt lat="44.92027" lon="6.85948">
        <ele>2190</ele>
        <time>2014-07-31T13:03:04.070Z</time>
      </trkpt>
      <trkpt lat="44.92028" lon="6.85947">
        <ele>2190.6</ele>
        <time>2014-07-31T13:03:05.170Z</time>
      </trkpt>
      <trkpt lat="44.92031" lon="6.85946">
        <ele>2191</ele>
        <time>2014-07-31T13:03:07.070Z</time>
      </trkpt>
      <trkpt lat="44.92033" lon="6.85946">
        <ele>2191</ele>
        <time>2014-07-31T13:03:08.160Z</time>
      </trkpt>
      <trkpt lat="44.92035" lon="6.85945">
        <ele>2191</ele>
        <time>2014-07-31T13:03:10.170Z</time>
      </trkpt>
      <trkpt lat="44.92038" lon="6.85945">
        <ele>2191</ele>
        <time>2014-07-31T13:03:12.170Z</time>
      </trkpt>
      <trkpt lat="44.92041" lon="6.85945">
        <ele>2191</ele>
        <time>2014-07-31T13:03:14.170Z</time>
      </trkpt>
      <trkpt lat="44.92045" lon="6.85944">
        <ele>2192</ele>
        <time>2014-07-31T13:03:16.170Z</time>
      </trkpt>
      <trkpt lat="44.92048" lon="6.85943">
        <ele>2192</ele>
        <time>2014-07-31T13:03:18.170Z</time>
      </trkpt>
      <trkpt lat="44.92052" lon="6.85943">
        <ele>2192</ele>
        <time>2014-07-31T13:03:20.060Z</time>
      </trkpt>
      <trkpt lat="44.92054" lon="6.85943">
        <ele>2192</ele>
        <time>2014-07-31T13:03:21.170Z</time>
      </trkpt>
      <trkpt lat="44.92056" lon="6.85942">
        <ele>2192</ele>
        <time>2014-07-31T13:03:23.040Z</time>
      </trkpt>
      <trkpt lat="44.92059" lon="6.85941">
        <ele>2192.5</ele>
        <time>2014-07-31T13:03:25.070Z</time>
      </trkpt>
      <trkpt lat="44.92061" lon="6.8594">
        <ele>2193</ele>
        <time>2014-07-31T13:03:26.170Z</time>
      </trkpt>
      <trkpt lat="44.92064" lon="6.85939">
        <ele>2193</ele>
        <time>2014-07-31T13:03:28.070Z</time>
      </trkpt>
      <trkpt lat="44.92067" lon="6.85938">
        <ele>2193</ele>
        <time>2014-07-31T13:03:30.170Z</time>
      </trkpt>
      <trkpt lat="44.9207" lon="6.85934">
        <ele>2193</ele>
        <time>2014-07-31T13:03:32.070Z</time>
      </trkpt>
      <trkpt lat="44.92071" lon="6.85933">
        <ele>2193</ele>
        <time>2014-07-31T13:03:33.170Z</time>
      </trkpt>
      <trkpt lat="44.92074" lon="6.85932">
        <ele>2193.6</ele>
        <time>2014-07-31T13:03:35.170Z</time>
      </trkpt>
      <trkpt lat="44.92075" lon="6.85932">
        <ele>2194</ele>
        <time>2014-07-31T13:03:37.170Z</time>
      </trkpt>
      <trkpt lat="44.92076" lon="6.8593">
        <ele>2194</ele>
        <time>2014-07-31T13:03:39.070Z</time>
      </trkpt>
      <trkpt lat="44.92077" lon="6.85929">
        <ele>2194</ele>
        <time>2014-07-31T13:03:40.080Z</time>
      </trkpt>
      <trkpt lat="44.92079" lon="6.85926">
        <ele>2194</ele>
        <time>2014-07-31T13:03:42.170Z</time>
      </trkpt>
      <trkpt lat="44.92081" lon="6.85922">
        <ele>2194</ele>
        <time>2014-07-31T13:03:44.170Z</time>
      </trkpt>
      <trkpt lat="44.92084" lon="6.8592">
        <ele>2197</ele>
        <time>2014-07-31T13:03:46.070Z</time>
      </trkpt>
      <trkpt lat="44.92086" lon="6.85917">
        <ele>2197</ele>
        <time>2014-07-31T13:03:48.170Z</time>
      </trkpt>
      <trkpt lat="44.92089" lon="6.85914">
        <ele>2198.2</ele>
        <time>2014-07-31T13:03:50.170Z</time>
      </trkpt>
      <trkpt lat="44.92091" lon="6.85912">
        <ele>2199</ele>
        <time>2014-07-31T13:03:52.170Z</time>
      </trkpt>
      <trkpt lat="44.92095" lon="6.85911">
        <ele>2199</ele>
        <time>2014-07-31T13:03:54.070Z</time>
      </trkpt>
      <trkpt lat="44.92096" lon="6.8591">
        <ele>2199</ele>
        <time>2014-07-31T13:03:55.170Z</time>
      </trkpt>
      <trkpt lat="44.92099" lon="6.8591">
        <ele>2199</ele>
        <time>2014-07-31T13:03:57.040Z</time>
      </trkpt>
      <trkpt lat="44.921" lon="6.85909">
        <ele>2199</ele>
        <time>2014-07-31T13:03:58.170Z</time>
      </trkpt>
      <trkpt lat="44.92103" lon="6.85907">
        <ele>2199</ele>
        <time>2014-07-31T13:04:00.130Z</time>
      </trkpt>
      <trkpt lat="44.92105" lon="6.85906">
        <ele>2199</ele>
        <time>2014-07-31T13:04:02.170Z</time>
      </trkpt>
      <trkpt lat="44.92108" lon="6.85904">
        <ele>2199</ele>
        <time>2014-07-31T13:04:04.160Z</time>
      </trkpt>
      <trkpt lat="44.92109" lon="6.85904">
        <ele>2199</ele>
        <time>2014-07-31T13:04:06.070Z</time>
      </trkpt>
      <trkpt lat="44.9211" lon="6.85903">
        <ele>2199</ele>
        <time>2014-07-31T13:04:07.170Z</time>
      </trkpt>
      <trkpt lat="44.92112" lon="6.85903">
        <ele>2199</ele>
        <time>2014-07-31T13:04:09.070Z</time>
      </trkpt>
      <trkpt lat="44.92113" lon="6.85902">
        <ele>2199</ele>
        <time>2014-07-31T13:04:11.070Z</time>
      </trkpt>
      <trkpt lat="44.92117" lon="6.85901">
        <ele>2199</ele>
        <time>2014-07-31T13:04:14.140Z</time>
      </trkpt>
      <trkpt lat="44.92121" lon="6.85898">
        <ele>2201</ele>
        <time>2014-07-31T13:04:16.070Z</time>
      </trkpt>
      <trkpt lat="44.92122" lon="6.85897">
        <ele>2201</ele>
        <time>2014-07-31T13:04:17.130Z</time>
      </trkpt>
      <trkpt lat="44.92126" lon="6.85894">
        <ele>2201</ele>
        <time>2014-07-31T13:04:19.170Z</time>
      </trkpt>
      <trkpt lat="44.92129" lon="6.85891">
        <ele>2201</ele>
        <time>2014-07-31T13:04:21.070Z</time>
      </trkpt>
      <trkpt lat="44.92132" lon="6.8589">
        <ele>2201</ele>
        <time>2014-07-31T13:04:23.070Z</time>
      </trkpt>
      <trkpt lat="44.92135" lon="6.85888">
        <ele>2202.2</ele>
        <time>2014-07-31T13:04:25.170Z</time>
      </trkpt>
      <trkpt lat="44.92138" lon="6.85886">
        <ele>2203</ele>
        <time>2014-07-31T13:04:27.170Z</time>
      </trkpt>
      <trkpt lat="44.92139" lon="6.85885">
        <ele>2203</ele>
        <time>2014-07-31T13:04:28.270Z</time>
      </trkpt>
      <trkpt lat="44.9214" lon="6.85883">
        <ele>2203</ele>
        <time>2014-07-31T13:04:29.170Z</time>
      </trkpt>
      <trkpt lat="44.92142" lon="6.85882">
        <ele>2203</ele>
        <time>2014-07-31T13:04:31.040Z</time>
      </trkpt>
      <trkpt lat="44.92144" lon="6.85879">
        <ele>2203</ele>
        <time>2014-07-31T13:04:33.170Z</time>
      </trkpt>
      <trkpt lat="44.92146" lon="6.85877">
        <ele>2204.2</ele>
        <time>2014-07-31T13:04:35.170Z</time>
      </trkpt>
      <trkpt lat="44.92148" lon="6.85875">
        <ele>2205</ele>
        <time>2014-07-31T13:04:37.170Z</time>
      </trkpt>
      <trkpt lat="44.92151" lon="6.85872">
        <ele>2205</ele>
        <time>2014-07-31T13:04:39.170Z</time>
      </trkpt>
      <trkpt lat="44.92153" lon="6.8587">
        <ele>2205</ele>
        <time>2014-07-31T13:04:41.060Z</time>
      </trkpt>
      <trkpt lat="44.92154" lon="6.85869">
        <ele>2205</ele>
        <time>2014-07-31T13:04:42.070Z</time>
      </trkpt>
      <trkpt lat="44.92155" lon="6.85867">
        <ele>2205</ele>
        <time>2014-07-31T13:04:43.170Z</time>
      </trkpt>
      <trkpt lat="44.92157" lon="6.85865">
        <ele>2205.6</ele>
        <time>2014-07-31T13:04:45.170Z</time>
      </trkpt>
      <trkpt lat="44.92159" lon="6.85862">
        <ele>2206</ele>
        <time>2014-07-31T13:04:47.270Z</time>
      </trkpt>
      <trkpt lat="44.92162" lon="6.8586">
        <ele>2206</ele>
        <time>2014-07-31T13:04:49.170Z</time>
      </trkpt>
      <trkpt lat="44.92165" lon="6.85857">
        <ele>2206</ele>
        <time>2014-07-31T13:04:51.130Z</time>
      </trkpt>
      <trkpt lat="44.92167" lon="6.85855">
        <ele>2206</ele>
        <time>2014-07-31T13:04:53.060Z</time>
      </trkpt>
      <trkpt lat="44.92168" lon="6.85854">
        <ele>2206</ele>
        <time>2014-07-31T13:04:54.170Z</time>
      </trkpt>
      <trkpt lat="44.92169" lon="6.85852">
        <ele>2208</ele>
        <time>2014-07-31T13:04:56.170Z</time>
      </trkpt>
      <trkpt lat="44.9217" lon="6.85849">
        <ele>2208</ele>
        <time>2014-07-31T13:04:58.070Z</time>
      </trkpt>
      <trkpt lat="44.92172" lon="6.85848">
        <ele>2208</ele>
        <time>2014-07-31T13:04:59.170Z</time>
      </trkpt>
      <trkpt lat="44.92175" lon="6.85846">
        <ele>2208</ele>
        <time>2014-07-31T13:05:01.070Z</time>
      </trkpt>
      <trkpt lat="44.92176" lon="6.85845">
        <ele>2208</ele>
        <time>2014-07-31T13:05:02.160Z</time>
      </trkpt>
      <trkpt lat="44.92181" lon="6.85843">
        <ele>2208</ele>
        <time>2014-07-31T13:05:04.070Z</time>
      </trkpt>
      <trkpt lat="44.92183" lon="6.85841">
        <ele>2208</ele>
        <time>2014-07-31T13:05:05.140Z</time>
      </trkpt>
      <trkpt lat="44.92186" lon="6.85839">
        <ele>2208</ele>
        <time>2014-07-31T13:05:07.070Z</time>
      </trkpt>
      <trkpt lat="44.92187" lon="6.85837">
        <ele>2208</ele>
        <time>2014-07-31T13:05:08.170Z</time>
      </trkpt>
      <trkpt lat="44.9219" lon="6.85834">
        <ele>2208</ele>
        <time>2014-07-31T13:05:10.170Z</time>
      </trkpt>
      <trkpt lat="44.92192" lon="6.85831">
        <ele>2208</ele>
        <time>2014-07-31T13:05:12.070Z</time>
      </trkpt>
      <trkpt lat="44.92193" lon="6.8583">
        <ele>2208</ele>
        <time>2014-07-31T13:05:13.160Z</time>
      </trkpt>
      <trkpt lat="44.92195" lon="6.85828">
        <ele>2209</ele>
        <time>2014-07-31T13:05:15.070Z</time>
      </trkpt>
      <trkpt lat="44.92197" lon="6.85825">
        <ele>2210</ele>
        <time>2014-07-31T13:05:17.130Z</time>
      </trkpt>
      <trkpt lat="44.922" lon="6.85824">
        <ele>2210</ele>
        <time>2014-07-31T13:05:19.180Z</time>
      </trkpt>
      <trkpt lat="44.92202" lon="6.85824">
        <ele>2210</ele>
        <time>2014-07-31T13:05:21.070Z</time>
      </trkpt>
      <trkpt lat="44.92203" lon="6.85822">
        <ele>2210</ele>
        <time>2014-07-31T13:05:22.140Z</time>
      </trkpt>
      <trkpt lat="44.92205" lon="6.8582">
        <ele>2210</ele>
        <time>2014-07-31T13:05:24.070Z</time>
      </trkpt>
      <trkpt lat="44.92207" lon="6.85819">
        <ele>2210.6</ele>
        <time>2014-07-31T13:05:25.160Z</time>
      </trkpt>
      <trkpt lat="44.9221" lon="6.85817">
        <ele>2211</ele>
        <time>2014-07-31T13:05:27.070Z</time>
      </trkpt>
      <trkpt lat="44.92212" lon="6.85814">
        <ele>2211</ele>
        <time>2014-07-31T13:05:29.070Z</time>
      </trkpt>
      <trkpt lat="44.92214" lon="6.85812">
        <ele>2211</ele>
        <time>2014-07-31T13:05:31.070Z</time>
      </trkpt>
      <trkpt lat="44.92215" lon="6.85811">
        <ele>2211</ele>
        <time>2014-07-31T13:05:32.070Z</time>
      </trkpt>
      <trkpt lat="44.92216" lon="6.85809">
        <ele>2211</ele>
        <time>2014-07-31T13:05:33.970Z</time>
      </trkpt>
      <trkpt lat="44.92218" lon="6.85807">
        <ele>2213</ele>
        <time>2014-07-31T13:05:36.090Z</time>
      </trkpt>
      <trkpt lat="44.92221" lon="6.85806">
        <ele>2213</ele>
        <time>2014-07-31T13:05:38.170Z</time>
      </trkpt>
      <trkpt lat="44.92224" lon="6.85804">
        <ele>2213</ele>
        <time>2014-07-31T13:05:40.170Z</time>
      </trkpt>
      <trkpt lat="44.92227" lon="6.85801">
        <ele>2213</ele>
        <time>2014-07-31T13:05:42.170Z</time>
      </trkpt>
      <trkpt lat="44.92229" lon="6.858">
        <ele>2213</ele>
        <time>2014-07-31T13:05:44.170Z</time>
      </trkpt>
      <trkpt lat="44.92231" lon="6.85799">
        <ele>2214.2</ele>
        <time>2014-07-31T13:05:45.170Z</time>
      </trkpt>
      <trkpt lat="44.92233" lon="6.85797">
        <ele>2215</ele>
        <time>2014-07-31T13:05:47.170Z</time>
      </trkpt>
      <trkpt lat="44.92236" lon="6.85795">
        <ele>2215</ele>
        <time>2014-07-31T13:05:49.070Z</time>
      </trkpt>
      <trkpt lat="44.92239" lon="6.85793">
        <ele>2215</ele>
        <time>2014-07-31T13:05:51.130Z</time>
      </trkpt>
      <trkpt lat="44.92241" lon="6.85791">
        <ele>2215</ele>
        <time>2014-07-31T13:05:53.070Z</time>
      </trkpt>
      <trkpt lat="44.92243" lon="6.85791">
        <ele>2216</ele>
        <time>2014-07-31T13:05:55.070Z</time>
      </trkpt>
      <trkpt lat="44.92244" lon="6.8579">
        <ele>2217</ele>
        <time>2014-07-31T13:05:56.140Z</time>
      </trkpt>
      <trkpt lat="44.92247" lon="6.85787">
        <ele>2217</ele>
        <time>2014-07-31T13:05:58.170Z</time>
      </trkpt>
      <trkpt lat="44.92249" lon="6.85786">
        <ele>2217</ele>
        <time>2014-07-31T13:06:00.000Z</time>
      </trkpt>
      <trkpt lat="44.9225" lon="6.85785">
        <ele>2217</ele>
        <time>2014-07-31T13:06:01.170Z</time>
      </trkpt>
      <trkpt lat="44.92253" lon="6.85783">
        <ele>2217</ele>
        <time>2014-07-31T13:06:03.070Z</time>
      </trkpt>
      <trkpt lat="44.92255" lon="6.85781">
        <ele>2217.5</ele>
        <time>2014-07-31T13:06:05.070Z</time>
      </trkpt>
      <trkpt lat="44.92256" lon="6.8578">
        <ele>2218</ele>
        <time>2014-07-31T13:06:06.170Z</time>
      </trkpt>
      <trkpt lat="44.92258" lon="6.85778">
        <ele>2218</ele>
        <time>2014-07-31T13:06:08.070Z</time>
      </trkpt>
      <trkpt lat="44.92261" lon="6.85776">
        <ele>2218</ele>
        <time>2014-07-31T13:06:10.070Z</time>
      </trkpt>
      <trkpt lat="44.92264" lon="6.85773">
        <ele>2218</ele>
        <time>2014-07-31T13:06:12.070Z</time>
      </trkpt>
      <trkpt lat="44.92265" lon="6.85772">
        <ele>2218</ele>
        <time>2014-07-31T13:06:13.140Z</time>
      </trkpt>
      <trkpt lat="44.92267" lon="6.8577">
        <ele>2219</ele>
        <time>2014-07-31T13:06:15.070Z</time>
      </trkpt>
      <trkpt lat="44.92271" lon="6.85767">
        <ele>2220</ele>
        <time>2014-07-31T13:06:17.130Z</time>
      </trkpt>
      <trkpt lat="44.92273" lon="6.85765">
        <ele>2220</ele>
        <time>2014-07-31T13:06:19.070Z</time>
      </trkpt>
      <trkpt lat="44.92276" lon="6.85763">
        <ele>2220</ele>
        <time>2014-07-31T13:06:21.170Z</time>
      </trkpt>
      <trkpt lat="44.92279" lon="6.85761">
        <ele>2220</ele>
        <time>2014-07-31T13:06:23.070Z</time>
      </trkpt>
      <trkpt lat="44.92281" lon="6.85759">
        <ele>2221</ele>
        <time>2014-07-31T13:06:25.070Z</time>
      </trkpt>
      <trkpt lat="44.92283" lon="6.85757">
        <ele>2222</ele>
        <time>2014-07-31T13:06:26.270Z</time>
      </trkpt>
      <trkpt lat="44.92287" lon="6.85755">
        <ele>2222</ele>
        <time>2014-07-31T13:06:28.070Z</time>
      </trkpt>
      <trkpt lat="44.92288" lon="6.85754">
        <ele>2222</ele>
        <time>2014-07-31T13:06:29.270Z</time>
      </trkpt>
      <trkpt lat="44.92292" lon="6.85754">
        <ele>2222</ele>
        <time>2014-07-31T13:06:31.070Z</time>
      </trkpt>
      <trkpt lat="44.92295" lon="6.85753">
        <ele>2222</ele>
        <time>2014-07-31T13:06:33.170Z</time>
      </trkpt>
      <trkpt lat="44.92298" lon="6.85753">
        <ele>2222.6</ele>
        <time>2014-07-31T13:06:35.170Z</time>
      </trkpt>
      <trkpt lat="44.92303" lon="6.85753">
        <ele>2223</ele>
        <time>2014-07-31T13:06:37.170Z</time>
      </trkpt>
      <trkpt lat="44.92306" lon="6.85752">
        <ele>2223</ele>
        <time>2014-07-31T13:06:39.170Z</time>
      </trkpt>
      <trkpt lat="44.9231" lon="6.85749">
        <ele>2223</ele>
        <time>2014-07-31T13:06:41.070Z</time>
      </trkpt>
      <trkpt lat="44.92313" lon="6.85748">
        <ele>2223</ele>
        <time>2014-07-31T13:06:43.070Z</time>
      </trkpt>
      <trkpt lat="44.92315" lon="6.85748">
        <ele>2223</ele>
        <time>2014-07-31T13:06:44.170Z</time>
      </trkpt>
      <trkpt lat="44.92318" lon="6.85747">
        <ele>2224</ele>
        <time>2014-07-31T13:06:46.060Z</time>
      </trkpt>
      <trkpt lat="44.92319" lon="6.85746">
        <ele>2224</ele>
        <time>2014-07-31T13:06:47.140Z</time>
      </trkpt>
      <trkpt lat="44.92322" lon="6.85745">
        <ele>2224</ele>
        <time>2014-07-31T13:06:49.070Z</time>
      </trkpt>
      <trkpt lat="44.92325" lon="6.85745">
        <ele>2224</ele>
        <time>2014-07-31T13:06:51.130Z</time>
      </trkpt>
      <trkpt lat="44.92327" lon="6.85745">
        <ele>2224</ele>
        <time>2014-07-31T13:06:53.070Z</time>
      </trkpt>
      <trkpt lat="44.9233" lon="6.85746">
        <ele>2224.5</ele>
        <time>2014-07-31T13:06:55.070Z</time>
      </trkpt>
      <trkpt lat="44.92333" lon="6.85748">
        <ele>2225</ele>
        <time>2014-07-31T13:06:57.170Z</time>
      </trkpt>
      <trkpt lat="44.92336" lon="6.8575">
        <ele>2225</ele>
        <time>2014-07-31T13:06:59.070Z</time>
      </trkpt>
      <trkpt lat="44.9234" lon="6.8575">
        <ele>2225</ele>
        <time>2014-07-31T13:07:01.070Z</time>
      </trkpt>
      <trkpt lat="44.92343" lon="6.8575">
        <ele>2225</ele>
        <time>2014-07-31T13:07:03.170Z</time>
      </trkpt>
      <trkpt lat="44.92346" lon="6.85749">
        <ele>2226.2</ele>
        <time>2014-07-31T13:07:05.170Z</time>
      </trkpt>
      <trkpt lat="44.9235" lon="6.85746">
        <ele>2227</ele>
        <time>2014-07-31T13:07:07.170Z</time>
      </trkpt>
      <trkpt lat="44.92354" lon="6.85744">
        <ele>2227</ele>
        <time>2014-07-31T13:07:09.170Z</time>
      </trkpt>
      <trkpt lat="44.92357" lon="6.85743">
        <ele>2227</ele>
        <time>2014-07-31T13:07:11.170Z</time>
      </trkpt>
      <trkpt lat="44.92358" lon="6.85743">
        <ele>2227</ele>
        <time>2014-07-31T13:07:12.170Z</time>
      </trkpt>
      <trkpt lat="44.9236" lon="6.85743">
        <ele>2227</ele>
        <time>2014-07-31T13:07:14.070Z</time>
      </trkpt>
      <trkpt lat="44.92363" lon="6.85742">
        <ele>2229</ele>
        <time>2014-07-31T13:07:16.070Z</time>
      </trkpt>
      <trkpt lat="44.92364" lon="6.85742">
        <ele>2229</ele>
        <time>2014-07-31T13:07:17.110Z</time>
      </trkpt>
      <trkpt lat="44.92367" lon="6.85741">
        <ele>2229</ele>
        <time>2014-07-31T13:07:19.170Z</time>
      </trkpt>
      <trkpt lat="44.9237" lon="6.85739">
        <ele>2229</ele>
        <time>2014-07-31T13:07:21.240Z</time>
      </trkpt>
      <trkpt lat="44.92373" lon="6.85738">
        <ele>2229</ele>
        <time>2014-07-31T13:07:23.260Z</time>
      </trkpt>
      <trkpt lat="44.92374" lon="6.85737">
        <ele>2229</ele>
        <time>2014-07-31T13:07:24.170Z</time>
      </trkpt>
      <trkpt lat="44.92377" lon="6.85736">
        <ele>2231</ele>
        <time>2014-07-31T13:07:26.170Z</time>
      </trkpt>
      <trkpt lat="44.9238" lon="6.85733">
        <ele>2231</ele>
        <time>2014-07-31T13:07:28.170Z</time>
      </trkpt>
      <trkpt lat="44.92383" lon="6.85732">
        <ele>2231</ele>
        <time>2014-07-31T13:07:30.170Z</time>
      </trkpt>
      <trkpt lat="44.92386" lon="6.8573">
        <ele>2231</ele>
        <time>2014-07-31T13:07:32.070Z</time>
      </trkpt>
      <trkpt lat="44.92389" lon="6.85729">
        <ele>2231</ele>
        <time>2014-07-31T13:07:34.130Z</time>
      </trkpt>
      <trkpt lat="44.92392" lon="6.85728">
        <ele>2233</ele>
        <time>2014-07-31T13:07:36.180Z</time>
      </trkpt>
      <trkpt lat="44.92395" lon="6.85727">
        <ele>2233</ele>
        <time>2014-07-31T13:07:38.140Z</time>
      </trkpt>
      <trkpt lat="44.92398" lon="6.85726">
        <ele>2233</ele>
        <time>2014-07-31T13:07:40.170Z</time>
      </trkpt>
      <trkpt lat="44.92401" lon="6.85724">
        <ele>2233</ele>
        <time>2014-07-31T13:07:42.170Z</time>
      </trkpt>
      <trkpt lat="44.92404" lon="6.85723">
        <ele>2233</ele>
        <time>2014-07-31T13:07:44.070Z</time>
      </trkpt>
      <trkpt lat="44.92407" lon="6.8572">
        <ele>2235</ele>
        <time>2014-07-31T13:07:46.070Z</time>
      </trkpt>
      <trkpt lat="44.92411" lon="6.85718">
        <ele>2235</ele>
        <time>2014-07-31T13:07:48.280Z</time>
      </trkpt>
      <trkpt lat="44.92414" lon="6.85715">
        <ele>2235</ele>
        <time>2014-07-31T13:07:50.170Z</time>
      </trkpt>
      <trkpt lat="44.92417" lon="6.85712">
        <ele>2235</ele>
        <time>2014-07-31T13:07:52.070Z</time>
      </trkpt>
      <trkpt lat="44.92419" lon="6.85711">
        <ele>2235</ele>
        <time>2014-07-31T13:07:53.170Z</time>
      </trkpt>
      <trkpt lat="44.92422" lon="6.85708">
        <ele>2235</ele>
        <time>2014-07-31T13:07:54.980Z</time>
      </trkpt>
      <trkpt lat="44.92424" lon="6.85705">
        <ele>2235</ele>
        <time>2014-07-31T13:07:57.070Z</time>
      </trkpt>
      <trkpt lat="44.92426" lon="6.85705">
        <ele>2235</ele>
        <time>2014-07-31T13:07:58.170Z</time>
      </trkpt>
      <trkpt lat="44.92429" lon="6.85702">
        <ele>2235</ele>
        <time>2014-07-31T13:08:00.030Z</time>
      </trkpt>
      <trkpt lat="44.92432" lon="6.857">
        <ele>2235</ele>
        <time>2014-07-31T13:08:02.070Z</time>
      </trkpt>
      <trkpt lat="44.92434" lon="6.857">
        <ele>2235</ele>
        <time>2014-07-31T13:08:03.170Z</time>
      </trkpt>
      <trkpt lat="44.92436" lon="6.85698">
        <ele>2235.5</ele>
        <time>2014-07-31T13:08:05.070Z</time>
      </trkpt>
      <trkpt lat="44.92439" lon="6.85697">
        <ele>2236</ele>
        <time>2014-07-31T13:08:07.070Z</time>
      </trkpt>
      <trkpt lat="44.9244" lon="6.85696">
        <ele>2236</ele>
        <time>2014-07-31T13:08:08.170Z</time>
      </trkpt>
      <trkpt lat="44.92443" lon="6.85695">
        <ele>2236</ele>
        <time>2014-07-31T13:08:10.170Z</time>
      </trkpt>
      <trkpt lat="44.92446" lon="6.85694">
        <ele>2236</ele>
        <time>2014-07-31T13:08:12.240Z</time>
      </trkpt>
      <trkpt lat="44.92449" lon="6.85693">
        <ele>2236</ele>
        <time>2014-07-31T13:08:14.170Z</time>
      </trkpt>
      <trkpt lat="44.92452" lon="6.85692">
        <ele>2238</ele>
        <time>2014-07-31T13:08:16.060Z</time>
      </trkpt>
      <trkpt lat="44.92454" lon="6.85691">
        <ele>2238</ele>
        <time>2014-07-31T13:08:17.170Z</time>
      </trkpt>
      <trkpt lat="44.92458" lon="6.85689">
        <ele>2238</ele>
        <time>2014-07-31T13:08:19.170Z</time>
      </trkpt>
      <trkpt lat="44.92461" lon="6.85689">
        <ele>2238</ele>
        <time>2014-07-31T13:08:21.170Z</time>
      </trkpt>
      <trkpt lat="44.92464" lon="6.85689">
        <ele>2238</ele>
        <time>2014-07-31T13:08:23.070Z</time>
      </trkpt>
      <trkpt lat="44.92467" lon="6.85689">
        <ele>2238.5</ele>
        <time>2014-07-31T13:08:25.070Z</time>
      </trkpt>
      <trkpt lat="44.92471" lon="6.85689">
        <ele>2239</ele>
        <time>2014-07-31T13:08:27.070Z</time>
      </trkpt>
      <trkpt lat="44.92473" lon="6.8569">
        <ele>2239</ele>
        <time>2014-07-31T13:08:28.170Z</time>
      </trkpt>
      <trkpt lat="44.92476" lon="6.8569">
        <ele>2239</ele>
        <time>2014-07-31T13:08:30.070Z</time>
      </trkpt>
      <trkpt lat="44.92479" lon="6.8569">
        <ele>2239</ele>
        <time>2014-07-31T13:08:32.070Z</time>
      </trkpt>
      <trkpt lat="44.92481" lon="6.8569">
        <ele>2239</ele>
        <time>2014-07-31T13:08:33.170Z</time>
      </trkpt>
      <trkpt lat="44.92485" lon="6.85691">
        <ele>2239</ele>
        <time>2014-07-31T13:08:35.070Z</time>
      </trkpt>
      <trkpt lat="44.92488" lon="6.85691">
        <ele>2239</ele>
        <time>2014-07-31T13:08:37.070Z</time>
      </trkpt>
      <trkpt lat="44.92489" lon="6.85691">
        <ele>2239</ele>
        <time>2014-07-31T13:08:38.170Z</time>
      </trkpt>
      <trkpt lat="44.92493" lon="6.85692">
        <ele>2239</ele>
        <time>2014-07-31T13:08:40.170Z</time>
      </trkpt>
      <trkpt lat="44.92497" lon="6.85694">
        <ele>2239</ele>
        <time>2014-07-31T13:08:42.170Z</time>
      </trkpt>
      <trkpt lat="44.925" lon="6.85694">
        <ele>2239</ele>
        <time>2014-07-31T13:08:44.070Z</time>
      </trkpt>
      <trkpt lat="44.92503" lon="6.85696">
        <ele>2241</ele>
        <time>2014-07-31T13:08:46.140Z</time>
      </trkpt>
      <trkpt lat="44.92506" lon="6.85697">
        <ele>2241</ele>
        <time>2014-07-31T13:08:48.070Z</time>
      </trkpt>
      <trkpt lat="44.92509" lon="6.85698">
        <ele>2241</ele>
        <time>2014-07-31T13:08:50.070Z</time>
      </trkpt>
      <trkpt lat="44.92511" lon="6.85699">
        <ele>2241</ele>
        <time>2014-07-31T13:08:51.130Z</time>
      </trkpt>
      <trkpt lat="44.92515" lon="6.857">
        <ele>2241</ele>
        <time>2014-07-31T13:08:53.070Z</time>
      </trkpt>
      <trkpt lat="44.92518" lon="6.85701">
        <ele>2241.5</ele>
        <time>2014-07-31T13:08:55.070Z</time>
      </trkpt>
      <trkpt lat="44.92521" lon="6.85701">
        <ele>2242</ele>
        <time>2014-07-31T13:08:57.070Z</time>
      </trkpt>
      <trkpt lat="44.92522" lon="6.85702">
        <ele>2242</ele>
        <time>2014-07-31T13:08:58.170Z</time>
      </trkpt>
      <trkpt lat="44.92526" lon="6.85701">
        <ele>2242</ele>
        <time>2014-07-31T13:09:00.030Z</time>
      </trkpt>
      <trkpt lat="44.92528" lon="6.857">
        <ele>2242</ele>
        <time>2014-07-31T13:09:01.170Z</time>
      </trkpt>
      <trkpt lat="44.92529" lon="6.85699">
        <ele>2242</ele>
        <time>2014-07-31T13:09:02.170Z</time>
      </trkpt>
      <trkpt lat="44.9253" lon="6.85699">
        <ele>2242</ele>
        <time>2014-07-31T13:09:03.240Z</time>
      </trkpt>
      <trkpt lat="44.92532" lon="6.85699">
        <ele>2243</ele>
        <time>2014-07-31T13:09:05.070Z</time>
      </trkpt>
      <trkpt lat="44.92535" lon="6.85697">
        <ele>2244</ele>
        <time>2014-07-31T13:09:07.070Z</time>
      </trkpt>
      <trkpt lat="44.92536" lon="6.85697">
        <ele>2244</ele>
        <time>2014-07-31T13:09:08.170Z</time>
      </trkpt>
      <trkpt lat="44.92538" lon="6.85697">
        <ele>2244</ele>
        <time>2014-07-31T13:09:10.170Z</time>
      </trkpt>
      <trkpt lat="44.92541" lon="6.85695">
        <ele>2244</ele>
        <time>2014-07-31T13:09:12.170Z</time>
      </trkpt>
      <trkpt lat="44.92543" lon="6.85693">
        <ele>2244</ele>
        <time>2014-07-31T13:09:14.160Z</time>
      </trkpt>
      <trkpt lat="44.92546" lon="6.85692">
        <ele>2245</ele>
        <time>2014-07-31T13:09:16.170Z</time>
      </trkpt>
      <trkpt lat="44.92549" lon="6.85691">
        <ele>2245</ele>
        <time>2014-07-31T13:09:18.170Z</time>
      </trkpt>
      <trkpt lat="44.92552" lon="6.85689">
        <ele>2245</ele>
        <time>2014-07-31T13:09:20.040Z</time>
      </trkpt>
      <trkpt lat="44.92555" lon="6.85688">
        <ele>2245</ele>
        <time>2014-07-31T13:09:22.070Z</time>
      </trkpt>
      <trkpt lat="44.92557" lon="6.85687">
        <ele>2245</ele>
        <time>2014-07-31T13:09:24.070Z</time>
      </trkpt>
      <trkpt lat="44.92559" lon="6.85686">
        <ele>2248</ele>
        <time>2014-07-31T13:09:26.170Z</time>
      </trkpt>
      <trkpt lat="44.92561" lon="6.85685">
        <ele>2248</ele>
        <time>2014-07-31T13:09:27.170Z</time>
      </trkpt>
      <trkpt lat="44.92563" lon="6.85683">
        <ele>2248</ele>
        <time>2014-07-31T13:09:29.170Z</time>
      </trkpt>
      <trkpt lat="44.92566" lon="6.85681">
        <ele>2249</ele>
        <time>2014-07-31T13:09:31.170Z</time>
      </trkpt>
      <trkpt lat="44.92569" lon="6.85679">
        <ele>2249</ele>
        <time>2014-07-31T13:09:33.170Z</time>
      </trkpt>
      <trkpt lat="44.9257" lon="6.85678">
        <ele>2249</ele>
        <time>2014-07-31T13:09:34.240Z</time>
      </trkpt>
      <trkpt lat="44.92572" lon="6.85678">
        <ele>2250</ele>
        <time>2014-07-31T13:09:36.170Z</time>
      </trkpt>
      <trkpt lat="44.92575" lon="6.85675">
        <ele>2250</ele>
        <time>2014-07-31T13:09:38.070Z</time>
      </trkpt>
      <trkpt lat="44.92578" lon="6.85674">
        <ele>2250</ele>
        <time>2014-07-31T13:09:40.150Z</time>
      </trkpt>
      <trkpt lat="44.92579" lon="6.85673">
        <ele>2250</ele>
        <time>2014-07-31T13:09:41.170Z</time>
      </trkpt>
      <trkpt lat="44.92582" lon="6.85672">
        <ele>2250</ele>
        <time>2014-07-31T13:09:43.070Z</time>
      </trkpt>
      <trkpt lat="44.92584" lon="6.85671">
        <ele>2250</ele>
        <time>2014-07-31T13:09:44.170Z</time>
      </trkpt>
      <trkpt lat="44.92586" lon="6.85668">
        <ele>2250</ele>
        <time>2014-07-31T13:09:46.170Z</time>
      </trkpt>
      <trkpt lat="44.92589" lon="6.85667">
        <ele>2250</ele>
        <time>2014-07-31T13:09:48.070Z</time>
      </trkpt>
      <trkpt lat="44.92591" lon="6.85666">
        <ele>2250</ele>
        <time>2014-07-31T13:09:49.170Z</time>
      </trkpt>
      <trkpt lat="44.92594" lon="6.85664">
        <ele>2250</ele>
        <time>2014-07-31T13:09:51.130Z</time>
      </trkpt>
      <trkpt lat="44.92597" lon="6.85662">
        <ele>2250</ele>
        <time>2014-07-31T13:09:53.170Z</time>
      </trkpt>
      <trkpt lat="44.92598" lon="6.85661">
        <ele>2250</ele>
        <time>2014-07-31T13:09:54.240Z</time>
      </trkpt>
      <trkpt lat="44.92601" lon="6.8566">
        <ele>2252</ele>
        <time>2014-07-31T13:09:56.170Z</time>
      </trkpt>
      <trkpt lat="44.92604" lon="6.85659">
        <ele>2252</ele>
        <time>2014-07-31T13:09:58.270Z</time>
      </trkpt>
      <trkpt lat="44.92607" lon="6.85657">
        <ele>2252</ele>
        <time>2014-07-31T13:10:00.130Z</time>
      </trkpt>
      <trkpt lat="44.9261" lon="6.85656">
        <ele>2252</ele>
        <time>2014-07-31T13:10:02.160Z</time>
      </trkpt>
      <trkpt lat="44.92613" lon="6.85654">
        <ele>2252</ele>
        <time>2014-07-31T13:10:04.070Z</time>
      </trkpt>
      <trkpt lat="44.92615" lon="6.85654">
        <ele>2253</ele>
        <time>2014-07-31T13:10:06.070Z</time>
      </trkpt>
      <trkpt lat="44.92618" lon="6.85652">
        <ele>2253</ele>
        <time>2014-07-31T13:10:08.170Z</time>
      </trkpt>
      <trkpt lat="44.92621" lon="6.85652">
        <ele>2253</ele>
        <time>2014-07-31T13:10:10.070Z</time>
      </trkpt>
      <trkpt lat="44.92624" lon="6.85651">
        <ele>2253</ele>
        <time>2014-07-31T13:10:12.070Z</time>
      </trkpt>
      <trkpt lat="44.92625" lon="6.85651">
        <ele>2253</ele>
        <time>2014-07-31T13:10:13.170Z</time>
      </trkpt>
      <trkpt lat="44.92628" lon="6.85651">
        <ele>2254</ele>
        <time>2014-07-31T13:10:15.070Z</time>
      </trkpt>
      <trkpt lat="44.92631" lon="6.85651">
        <ele>2255</ele>
        <time>2014-07-31T13:10:17.130Z</time>
      </trkpt>
      <trkpt lat="44.92634" lon="6.85651">
        <ele>2255</ele>
        <time>2014-07-31T13:10:19.070Z</time>
      </trkpt>
      <trkpt lat="44.92637" lon="6.85652">
        <ele>2255</ele>
        <time>2014-07-31T13:10:21.070Z</time>
      </trkpt>
      <trkpt lat="44.92638" lon="6.85652">
        <ele>2255</ele>
        <time>2014-07-31T13:10:22.170Z</time>
      </trkpt>
      <trkpt lat="44.92642" lon="6.85652">
        <ele>2255</ele>
        <time>2014-07-31T13:10:24.070Z</time>
      </trkpt>
      <trkpt lat="44.92645" lon="6.85652">
        <ele>2255</ele>
        <time>2014-07-31T13:10:26.090Z</time>
      </trkpt>
      <trkpt lat="44.92648" lon="6.85652">
        <ele>2255</ele>
        <time>2014-07-31T13:10:28.040Z</time>
      </trkpt>
      <trkpt lat="44.92652" lon="6.85652">
        <ele>2255</ele>
        <time>2014-07-31T13:10:30.170Z</time>
      </trkpt>
      <trkpt lat="44.92654" lon="6.85653">
        <ele>2255</ele>
        <time>2014-07-31T13:10:32.170Z</time>
      </trkpt>
      <trkpt lat="44.92657" lon="6.85652">
        <ele>2255</ele>
        <time>2014-07-31T13:10:34.130Z</time>
      </trkpt>
      <trkpt lat="44.9266" lon="6.85652">
        <ele>2257</ele>
        <time>2014-07-31T13:10:36.070Z</time>
      </trkpt>
      <trkpt lat="44.92663" lon="6.8565">
        <ele>2257</ele>
        <time>2014-07-31T13:10:38.170Z</time>
      </trkpt>
      <trkpt lat="44.92666" lon="6.85649">
        <ele>2257</ele>
        <time>2014-07-31T13:10:40.170Z</time>
      </trkpt>
      <trkpt lat="44.92668" lon="6.85648">
        <ele>2257</ele>
        <time>2014-07-31T13:10:41.170Z</time>
      </trkpt>
      <trkpt lat="44.9267" lon="6.85646">
        <ele>2257</ele>
        <time>2014-07-31T13:10:43.070Z</time>
      </trkpt>
      <trkpt lat="44.92672" lon="6.85645">
        <ele>2257</ele>
        <time>2014-07-31T13:10:44.270Z</time>
      </trkpt>
      <trkpt lat="44.92675" lon="6.85643">
        <ele>2258</ele>
        <time>2014-07-31T13:10:46.170Z</time>
      </trkpt>
      <trkpt lat="44.92677" lon="6.85639">
        <ele>2258</ele>
        <time>2014-07-31T13:10:48.170Z</time>
      </trkpt>
      <trkpt lat="44.92678" lon="6.85635">
        <ele>2258</ele>
        <time>2014-07-31T13:10:50.170Z</time>
      </trkpt>
      <trkpt lat="44.92676" lon="6.85633">
        <ele>2258</ele>
        <time>2014-07-31T13:10:52.070Z</time>
      </trkpt>
      <trkpt lat="44.92675" lon="6.85633">
        <ele>2258</ele>
        <time>2014-07-31T13:10:53.280Z</time>
      </trkpt>
      <trkpt lat="44.92672" lon="6.85634">
        <ele>2258.6</ele>
        <time>2014-07-31T13:10:55.170Z</time>
      </trkpt>
      <trkpt lat="44.92669" lon="6.85635">
        <ele>2259</ele>
        <time>2014-07-31T13:10:57.070Z</time>
      </trkpt>
      <trkpt lat="44.92668" lon="6.85636">
        <ele>2259</ele>
        <time>2014-07-31T13:10:58.170Z</time>
      </trkpt>
      <trkpt lat="44.92664" lon="6.85638">
        <ele>2259</ele>
        <time>2014-07-31T13:11:00.030Z</time>
      </trkpt>
      <trkpt lat="44.92663" lon="6.85638">
        <ele>2259</ele>
        <time>2014-07-31T13:11:01.160Z</time>
      </trkpt>
      <trkpt lat="44.92659" lon="6.85639">
        <ele>2259</ele>
        <time>2014-07-31T13:11:03.070Z</time>
      </trkpt>
      <trkpt lat="44.92658" lon="6.85639">
        <ele>2259</ele>
        <time>2014-07-31T13:11:04.170Z</time>
      </trkpt>
      <trkpt lat="44.92655" lon="6.85639">
        <ele>2259</ele>
        <time>2014-07-31T13:11:06.070Z</time>
      </trkpt>
      <trkpt lat="44.92654" lon="6.85639">
        <ele>2259</ele>
        <time>2014-07-31T13:11:07.170Z</time>
      </trkpt>
      <trkpt lat="44.92651" lon="6.85639">
        <ele>2259</ele>
        <time>2014-07-31T13:11:09.070Z</time>
      </trkpt>
      <trkpt lat="44.92648" lon="6.85639">
        <ele>2259</ele>
        <time>2014-07-31T13:11:11.070Z</time>
      </trkpt>
      <trkpt lat="44.92646" lon="6.85639">
        <ele>2259</ele>
        <time>2014-07-31T13:11:12.170Z</time>
      </trkpt>
      <trkpt lat="44.92644" lon="6.85638">
        <ele>2259</ele>
        <time>2014-07-31T13:11:14.160Z</time>
      </trkpt>
      <trkpt lat="44.92641" lon="6.85637">
        <ele>2261</ele>
        <time>2014-07-31T13:11:16.070Z</time>
      </trkpt>
      <trkpt lat="44.9264" lon="6.85637">
        <ele>2261</ele>
        <time>2014-07-31T13:11:17.130Z</time>
      </trkpt>
      <trkpt lat="44.92637" lon="6.85636">
        <ele>2261</ele>
        <time>2014-07-31T13:11:19.140Z</time>
      </trkpt>
      <trkpt lat="44.92634" lon="6.85636">
        <ele>2261</ele>
        <time>2014-07-31T13:11:21.070Z</time>
      </trkpt>
      <trkpt lat="44.92631" lon="6.85635">
        <ele>2261</ele>
        <time>2014-07-31T13:11:23.170Z</time>
      </trkpt>
      <trkpt lat="44.92629" lon="6.85635">
        <ele>2262</ele>
        <time>2014-07-31T13:11:25.070Z</time>
      </trkpt>
      <trkpt lat="44.92628" lon="6.85634">
        <ele>2263</ele>
        <time>2014-07-31T13:11:26.160Z</time>
      </trkpt>
      <trkpt lat="44.92627" lon="6.85633">
        <ele>2263</ele>
        <time>2014-07-31T13:11:28.070Z</time>
      </trkpt>
      <trkpt lat="44.92624" lon="6.85631">
        <ele>2263</ele>
        <time>2014-07-31T13:11:30.070Z</time>
      </trkpt>
      <trkpt lat="44.92623" lon="6.85631">
        <ele>2263</ele>
        <time>2014-07-31T13:11:31.070Z</time>
      </trkpt>
      <trkpt lat="44.92621" lon="6.8563">
        <ele>2263</ele>
        <time>2014-07-31T13:11:32.170Z</time>
      </trkpt>
      <trkpt lat="44.92619" lon="6.8563">
        <ele>2263</ele>
        <time>2014-07-31T13:11:34.130Z</time>
      </trkpt>
      <trkpt lat="44.92616" lon="6.85629">
        <ele>2263</ele>
        <time>2014-07-31T13:11:36.040Z</time>
      </trkpt>
      <trkpt lat="44.92615" lon="6.85629">
        <ele>2263</ele>
        <time>2014-07-31T13:11:37.170Z</time>
      </trkpt>
      <trkpt lat="44.92612" lon="6.85628">
        <ele>2263</ele>
        <time>2014-07-31T13:11:39.070Z</time>
      </trkpt>
      <trkpt lat="44.9261" lon="6.85628">
        <ele>2263</ele>
        <time>2014-07-31T13:11:40.170Z</time>
      </trkpt>
      <trkpt lat="44.92608" lon="6.85627">
        <ele>2263</ele>
        <time>2014-07-31T13:11:42.170Z</time>
      </trkpt>
      <trkpt lat="44.92605" lon="6.85627">
        <ele>2263</ele>
        <time>2014-07-31T13:11:44.070Z</time>
      </trkpt>
      <trkpt lat="44.92603" lon="6.85627">
        <ele>2264.2</ele>
        <time>2014-07-31T13:11:45.170Z</time>
      </trkpt>
      <trkpt lat="44.926" lon="6.85627">
        <ele>2265</ele>
        <time>2014-07-31T13:11:47.170Z</time>
      </trkpt>
      <trkpt lat="44.92597" lon="6.85626">
        <ele>2265</ele>
        <time>2014-07-31T13:11:49.170Z</time>
      </trkpt>
      <trkpt lat="44.92594" lon="6.85626">
        <ele>2265</ele>
        <time>2014-07-31T13:11:50.990Z</time>
      </trkpt>
      <trkpt lat="44.92591" lon="6.85627">
        <ele>2265</ele>
        <time>2014-07-31T13:11:53.040Z</time>
      </trkpt>
      <trkpt lat="44.92588" lon="6.85628">
        <ele>2266.2</ele>
        <time>2014-07-31T13:11:55.180Z</time>
      </trkpt>
      <trkpt lat="44.92586" lon="6.85629">
        <ele>2267</ele>
        <time>2014-07-31T13:11:57.070Z</time>
      </trkpt>
      <trkpt lat="44.92583" lon="6.85629">
        <ele>2267</ele>
        <time>2014-07-31T13:11:59.070Z</time>
      </trkpt>
      <trkpt lat="44.9258" lon="6.85628">
        <ele>2267</ele>
        <time>2014-07-31T13:12:01.070Z</time>
      </trkpt>
      <trkpt lat="44.92579" lon="6.85628">
        <ele>2267</ele>
        <time>2014-07-31T13:12:02.170Z</time>
      </trkpt>
      <trkpt lat="44.92576" lon="6.85628">
        <ele>2267</ele>
        <time>2014-07-31T13:12:04.070Z</time>
      </trkpt>
      <trkpt lat="44.92573" lon="6.85627">
        <ele>2267</ele>
        <time>2014-07-31T13:12:06.170Z</time>
      </trkpt>
      <trkpt lat="44.9257" lon="6.85626">
        <ele>2267</ele>
        <time>2014-07-31T13:12:08.070Z</time>
      </trkpt>
      <trkpt lat="44.92567" lon="6.85626">
        <ele>2267</ele>
        <time>2014-07-31T13:12:10.140Z</time>
      </trkpt>
      <trkpt lat="44.92564" lon="6.85626">
        <ele>2267</ele>
        <time>2014-07-31T13:12:12.170Z</time>
      </trkpt>
      <trkpt lat="44.92561" lon="6.85626">
        <ele>2267</ele>
        <time>2014-07-31T13:12:14.170Z</time>
      </trkpt>
      <trkpt lat="44.92557" lon="6.85627">
        <ele>2268</ele>
        <time>2014-07-31T13:12:16.170Z</time>
      </trkpt>
      <trkpt lat="44.92554" lon="6.85626">
        <ele>2268</ele>
        <time>2014-07-31T13:12:18.170Z</time>
      </trkpt>
      <trkpt lat="44.92551" lon="6.85626">
        <ele>2268</ele>
        <time>2014-07-31T13:12:20.080Z</time>
      </trkpt>
      <trkpt lat="44.9255" lon="6.85626">
        <ele>2268</ele>
        <time>2014-07-31T13:12:21.070Z</time>
      </trkpt>
      <trkpt lat="44.92547" lon="6.85626">
        <ele>2268</ele>
        <time>2014-07-31T13:12:23.170Z</time>
      </trkpt>
      <trkpt lat="44.92544" lon="6.85625">
        <ele>2268.5</ele>
        <time>2014-07-31T13:12:25.070Z</time>
      </trkpt>
      <trkpt lat="44.92543" lon="6.85625">
        <ele>2269</ele>
        <time>2014-07-31T13:12:26.270Z</time>
      </trkpt>
      <trkpt lat="44.9254" lon="6.85625">
        <ele>2269</ele>
        <time>2014-07-31T13:12:28.170Z</time>
      </trkpt>
      <trkpt lat="44.92537" lon="6.85624">
        <ele>2269</ele>
        <time>2014-07-31T13:12:30.170Z</time>
      </trkpt>
      <trkpt lat="44.92535" lon="6.85625">
        <ele>2269</ele>
        <time>2014-07-31T13:12:32.070Z</time>
      </trkpt>
      <trkpt lat="44.92533" lon="6.85625">
        <ele>2269</ele>
        <time>2014-07-31T13:12:33.170Z</time>
      </trkpt>
      <trkpt lat="44.9253" lon="6.85625">
        <ele>2269.5</ele>
        <time>2014-07-31T13:12:35.070Z</time>
      </trkpt>
      <trkpt lat="44.92527" lon="6.85625">
        <ele>2270</ele>
        <time>2014-07-31T13:12:37.070Z</time>
      </trkpt>
      <trkpt lat="44.92526" lon="6.85625">
        <ele>2270</ele>
        <time>2014-07-31T13:12:38.170Z</time>
      </trkpt>
      <trkpt lat="44.92523" lon="6.85627">
        <ele>2270</ele>
        <time>2014-07-31T13:12:40.070Z</time>
      </trkpt>
      <trkpt lat="44.9252" lon="6.85628">
        <ele>2270</ele>
        <time>2014-07-31T13:12:42.070Z</time>
      </trkpt>
      <trkpt lat="44.92519" lon="6.85629">
        <ele>2270</ele>
        <time>2014-07-31T13:12:43.170Z</time>
      </trkpt>
      <trkpt lat="44.92516" lon="6.8563">
        <ele>2270.6</ele>
        <time>2014-07-31T13:12:45.170Z</time>
      </trkpt>
      <trkpt lat="44.92513" lon="6.85631">
        <ele>2271</ele>
        <time>2014-07-31T13:12:47.170Z</time>
      </trkpt>
      <trkpt lat="44.9251" lon="6.8563">
        <ele>2271</ele>
        <time>2014-07-31T13:12:49.060Z</time>
      </trkpt>
      <trkpt lat="44.92508" lon="6.85627">
        <ele>2271</ele>
        <time>2014-07-31T13:12:51.130Z</time>
      </trkpt>
      <trkpt lat="44.92508" lon="6.85623">
        <ele>2271</ele>
        <time>2014-07-31T13:12:53.170Z</time>
      </trkpt>
      <trkpt lat="44.92509" lon="6.85619">
        <ele>2272.8</ele>
        <time>2014-07-31T13:12:55.170Z</time>
      </trkpt>
      <trkpt lat="44.92512" lon="6.85617">
        <ele>2274</ele>
        <time>2014-07-31T13:12:57.070Z</time>
      </trkpt>
      <trkpt lat="44.92514" lon="6.85617">
        <ele>2274</ele>
        <time>2014-07-31T13:12:58.170Z</time>
      </trkpt>
      <trkpt lat="44.92515" lon="6.85616">
        <ele>2274</ele>
        <time>2014-07-31T13:12:59.170Z</time>
      </trkpt>
      <trkpt lat="44.92519" lon="6.85615">
        <ele>2275</ele>
        <time>2014-07-31T13:13:01.030Z</time>
      </trkpt>
      <trkpt lat="44.92522" lon="6.85615">
        <ele>2275</ele>
        <time>2014-07-31T13:13:03.070Z</time>
      </trkpt>
      <trkpt lat="44.92525" lon="6.85614">
        <ele>2275</ele>
        <time>2014-07-31T13:13:05.170Z</time>
      </trkpt>
      <trkpt lat="44.92528" lon="6.85613">
        <ele>2275</ele>
        <time>2014-07-31T13:13:07.170Z</time>
      </trkpt>
      <trkpt lat="44.92531" lon="6.85612">
        <ele>2275</ele>
        <time>2014-07-31T13:13:09.070Z</time>
      </trkpt>
      <trkpt lat="44.92533" lon="6.85612">
        <ele>2275</ele>
        <time>2014-07-31T13:13:10.170Z</time>
      </trkpt>
      <trkpt lat="44.92535" lon="6.8561">
        <ele>2275</ele>
        <time>2014-07-31T13:13:12.170Z</time>
      </trkpt>
      <trkpt lat="44.92539" lon="6.8561">
        <ele>2275</ele>
        <time>2014-07-31T13:13:14.170Z</time>
      </trkpt>
      <trkpt lat="44.92542" lon="6.85609">
        <ele>2275</ele>
        <time>2014-07-31T13:13:16.170Z</time>
      </trkpt>
      <trkpt lat="44.92544" lon="6.85608">
        <ele>2275</ele>
        <time>2014-07-31T13:13:17.230Z</time>
      </trkpt>
      <trkpt lat="44.92547" lon="6.85608">
        <ele>2275</ele>
        <time>2014-07-31T13:13:19.170Z</time>
      </trkpt>
      <trkpt lat="44.92549" lon="6.85607">
        <ele>2275</ele>
        <time>2014-07-31T13:13:21.170Z</time>
      </trkpt>
      <trkpt lat="44.92553" lon="6.85606">
        <ele>2275</ele>
        <time>2014-07-31T13:13:23.170Z</time>
      </trkpt>
      <trkpt lat="44.92556" lon="6.85605">
        <ele>2276</ele>
        <time>2014-07-31T13:13:25.070Z</time>
      </trkpt>
      <trkpt lat="44.92559" lon="6.85604">
        <ele>2277</ele>
        <time>2014-07-31T13:13:27.070Z</time>
      </trkpt>
      <trkpt lat="44.9256" lon="6.85604">
        <ele>2277</ele>
        <time>2014-07-31T13:13:28.170Z</time>
      </trkpt>
      <trkpt lat="44.92563" lon="6.85602">
        <ele>2277</ele>
        <time>2014-07-31T13:13:30.070Z</time>
      </trkpt>
      <trkpt lat="44.92565" lon="6.85602">
        <ele>2277</ele>
        <time>2014-07-31T13:13:32.070Z</time>
      </trkpt>
      <trkpt lat="44.92567" lon="6.85601">
        <ele>2277</ele>
        <time>2014-07-31T13:13:33.170Z</time>
      </trkpt>
      <trkpt lat="44.9257" lon="6.85601">
        <ele>2277.5</ele>
        <time>2014-07-31T13:13:35.040Z</time>
      </trkpt>
      <trkpt lat="44.92571" lon="6.85601">
        <ele>2278</ele>
        <time>2014-07-31T13:13:36.160Z</time>
      </trkpt>
      <trkpt lat="44.92574" lon="6.85599">
        <ele>2278</ele>
        <time>2014-07-31T13:13:38.170Z</time>
      </trkpt>
      <trkpt lat="44.92577" lon="6.85599">
        <ele>2278</ele>
        <time>2014-07-31T13:13:40.170Z</time>
      </trkpt>
      <trkpt lat="44.9258" lon="6.85598">
        <ele>2278</ele>
        <time>2014-07-31T13:13:42.070Z</time>
      </trkpt>
      <trkpt lat="44.92581" lon="6.85598">
        <ele>2278</ele>
        <time>2014-07-31T13:13:43.170Z</time>
      </trkpt>
      <trkpt lat="44.92583" lon="6.85598">
        <ele>2279.2</ele>
        <time>2014-07-31T13:13:45.170Z</time>
      </trkpt>
      <trkpt lat="44.92586" lon="6.85597">
        <ele>2280</ele>
        <time>2014-07-31T13:13:47.070Z</time>
      </trkpt>
      <trkpt lat="44.92587" lon="6.85597">
        <ele>2280</ele>
        <time>2014-07-31T13:13:48.170Z</time>
      </trkpt>
      <trkpt lat="44.9259" lon="6.85597">
        <ele>2280</ele>
        <time>2014-07-31T13:13:50.180Z</time>
      </trkpt>
      <trkpt lat="44.92591" lon="6.85597">
        <ele>2280</ele>
        <time>2014-07-31T13:13:51.130Z</time>
      </trkpt>
      <trkpt lat="44.92594" lon="6.85597">
        <ele>2280</ele>
        <time>2014-07-31T13:13:53.070Z</time>
      </trkpt>
      <trkpt lat="44.92595" lon="6.85596">
        <ele>2280</ele>
        <time>2014-07-31T13:13:54.170Z</time>
      </trkpt>
      <trkpt lat="44.92598" lon="6.85595">
        <ele>2281</ele>
        <time>2014-07-31T13:13:56.170Z</time>
      </trkpt>
      <trkpt lat="44.92601" lon="6.85594">
        <ele>2281</ele>
        <time>2014-07-31T13:13:58.170Z</time>
      </trkpt>
      <trkpt lat="44.92604" lon="6.85592">
        <ele>2281</ele>
        <time>2014-07-31T13:14:00.030Z</time>
      </trkpt>
      <trkpt lat="44.92607" lon="6.85591">
        <ele>2281</ele>
        <time>2014-07-31T13:14:02.170Z</time>
      </trkpt>
      <trkpt lat="44.9261" lon="6.8559">
        <ele>2281</ele>
        <time>2014-07-31T13:14:04.270Z</time>
      </trkpt>
      <trkpt lat="44.92612" lon="6.85589">
        <ele>2282</ele>
        <time>2014-07-31T13:14:06.070Z</time>
      </trkpt>
      <trkpt lat="44.92614" lon="6.85589">
        <ele>2282</ele>
        <time>2014-07-31T13:14:07.170Z</time>
      </trkpt>
      <trkpt lat="44.92615" lon="6.85589">
        <ele>2282</ele>
        <time>2014-07-31T13:14:08.270Z</time>
      </trkpt>
      <trkpt lat="44.92618" lon="6.85588">
        <ele>2282</ele>
        <time>2014-07-31T13:14:10.070Z</time>
      </trkpt>
      <trkpt lat="44.92621" lon="6.85588">
        <ele>2282</ele>
        <time>2014-07-31T13:14:12.070Z</time>
      </trkpt>
      <trkpt lat="44.92623" lon="6.85587">
        <ele>2282</ele>
        <time>2014-07-31T13:14:13.170Z</time>
      </trkpt>
      <trkpt lat="44.92624" lon="6.85587">
        <ele>2282</ele>
        <time>2014-07-31T13:14:14.290Z</time>
      </trkpt>
      <trkpt lat="44.92627" lon="6.85587">
        <ele>2284</ele>
        <time>2014-07-31T13:14:16.070Z</time>
      </trkpt>
      <trkpt lat="44.92628" lon="6.85586">
        <ele>2284</ele>
        <time>2014-07-31T13:14:17.130Z</time>
      </trkpt>
      <trkpt lat="44.92631" lon="6.85585">
        <ele>2284</ele>
        <time>2014-07-31T13:14:19.170Z</time>
      </trkpt>
      <trkpt lat="44.92633" lon="6.85584">
        <ele>2284</ele>
        <time>2014-07-31T13:14:21.260Z</time>
      </trkpt>
      <trkpt lat="44.92634" lon="6.85582">
        <ele>2284</ele>
        <time>2014-07-31T13:14:23.270Z</time>
      </trkpt>
      <trkpt lat="44.92634" lon="6.85579">
        <ele>2284.7</ele>
        <time>2014-07-31T13:14:25.270Z</time>
      </trkpt>
      <trkpt lat="44.92633" lon="6.85576">
        <ele>2285</ele>
        <time>2014-07-31T13:14:27.270Z</time>
      </trkpt>
      <trkpt lat="44.92631" lon="6.85575">
        <ele>2285</ele>
        <time>2014-07-31T13:14:29.170Z</time>
      </trkpt>
      <trkpt lat="44.92629" lon="6.85576">
        <ele>2285</ele>
        <time>2014-07-31T13:14:31.170Z</time>
      </trkpt>
      <trkpt lat="44.92627" lon="6.85576">
        <ele>2285</ele>
        <time>2014-07-31T13:14:33.170Z</time>
      </trkpt>
      <trkpt lat="44.92625" lon="6.85577">
        <ele>2286.4</ele>
        <time>2014-07-31T13:14:35.270Z</time>
      </trkpt>
      <trkpt lat="44.92622" lon="6.85578">
        <ele>2287</ele>
        <time>2014-07-31T13:14:37.270Z</time>
      </trkpt>
      <trkpt lat="44.92619" lon="6.85578">
        <ele>2287</ele>
        <time>2014-07-31T13:14:39.170Z</time>
      </trkpt>
      <trkpt lat="44.92617" lon="6.85578">
        <ele>2287</ele>
        <time>2014-07-31T13:14:41.070Z</time>
      </trkpt>
      <trkpt lat="44.92615" lon="6.85579">
        <ele>2287</ele>
        <time>2014-07-31T13:14:42.270Z</time>
      </trkpt>
      <trkpt lat="44.92613" lon="6.85579">
        <ele>2287</ele>
        <time>2014-07-31T13:14:44.270Z</time>
      </trkpt>
      <trkpt lat="44.9261" lon="6.85578">
        <ele>2288</ele>
        <time>2014-07-31T13:14:46.160Z</time>
      </trkpt>
      <trkpt lat="44.92608" lon="6.85578">
        <ele>2288</ele>
        <time>2014-07-31T13:14:48.070Z</time>
      </trkpt>
      <trkpt lat="44.92606" lon="6.85577">
        <ele>2288</ele>
        <time>2014-07-31T13:14:49.170Z</time>
      </trkpt>
      <trkpt lat="44.92603" lon="6.85578">
        <ele>2288</ele>
        <time>2014-07-31T13:14:51.230Z</time>
      </trkpt>
      <trkpt lat="44.92601" lon="6.85577">
        <ele>2288</ele>
        <time>2014-07-31T13:14:53.170Z</time>
      </trkpt>
      <trkpt lat="44.92598" lon="6.85578">
        <ele>2289.2</ele>
        <time>2014-07-31T13:14:55.170Z</time>
      </trkpt>
      <trkpt lat="44.92596" lon="6.85579">
        <ele>2290</ele>
        <time>2014-07-31T13:14:57.070Z</time>
      </trkpt>
      <trkpt lat="44.92595" lon="6.85579">
        <ele>2290</ele>
        <time>2014-07-31T13:14:58.170Z</time>
      </trkpt>
      <trkpt lat="44.92593" lon="6.85579">
        <ele>2290</ele>
        <time>2014-07-31T13:15:00.250Z</time>
      </trkpt>
      <trkpt lat="44.9259" lon="6.85578">
        <ele>2290</ele>
        <time>2014-07-31T13:15:02.070Z</time>
      </trkpt>
      <trkpt lat="44.92589" lon="6.85578">
        <ele>2290</ele>
        <time>2014-07-31T13:15:03.170Z</time>
      </trkpt>
      <trkpt lat="44.92586" lon="6.85577">
        <ele>2290.6</ele>
        <time>2014-07-31T13:15:05.180Z</time>
      </trkpt>
      <trkpt lat="44.92583" lon="6.85576">
        <ele>2291</ele>
        <time>2014-07-31T13:15:07.070Z</time>
      </trkpt>
      <trkpt lat="44.92582" lon="6.85576">
        <ele>2291</ele>
        <time>2014-07-31T13:15:08.170Z</time>
      </trkpt>
      <trkpt lat="44.9258" lon="6.85575">
        <ele>2291</ele>
        <time>2014-07-31T13:15:10.070Z</time>
      </trkpt>
      <trkpt lat="44.92577" lon="6.85575">
        <ele>2291</ele>
        <time>2014-07-31T13:15:12.070Z</time>
      </trkpt>
      <trkpt lat="44.92574" lon="6.85575">
        <ele>2291</ele>
        <time>2014-07-31T13:15:14.070Z</time>
      </trkpt>
      <trkpt lat="44.92572" lon="6.85575">
        <ele>2292</ele>
        <time>2014-07-31T13:15:16.070Z</time>
      </trkpt>
      <trkpt lat="44.92569" lon="6.85574">
        <ele>2292</ele>
        <time>2014-07-31T13:15:18.170Z</time>
      </trkpt>
      <trkpt lat="44.92566" lon="6.85573">
        <ele>2292</ele>
        <time>2014-07-31T13:15:20.170Z</time>
      </trkpt>
      <trkpt lat="44.92563" lon="6.85572">
        <ele>2292</ele>
        <time>2014-07-31T13:15:22.070Z</time>
      </trkpt>
      <trkpt lat="44.92561" lon="6.85572">
        <ele>2292</ele>
        <time>2014-07-31T13:15:23.170Z</time>
      </trkpt>
      <trkpt lat="44.92558" lon="6.85571">
        <ele>2293.2</ele>
        <time>2014-07-31T13:15:25.170Z</time>
      </trkpt>
      <trkpt lat="44.92554" lon="6.85571">
        <ele>2294</ele>
        <time>2014-07-31T13:15:27.070Z</time>
      </trkpt>
      <trkpt lat="44.92553" lon="6.8557">
        <ele>2294</ele>
        <time>2014-07-31T13:15:28.170Z</time>
      </trkpt>
      <trkpt lat="44.92551" lon="6.85571">
        <ele>2294</ele>
        <time>2014-07-31T13:15:30.070Z</time>
      </trkpt>
      <trkpt lat="44.92549" lon="6.8557">
        <ele>2294</ele>
        <time>2014-07-31T13:15:32.070Z</time>
      </trkpt>
      <trkpt lat="44.92548" lon="6.8557">
        <ele>2295</ele>
        <time>2014-07-31T13:15:41.070Z</time>
      </trkpt>
      <trkpt lat="44.92547" lon="6.85569">
        <ele>2295</ele>
        <time>2014-07-31T13:15:43.170Z</time>
      </trkpt>
      <trkpt lat="44.92545" lon="6.85568">
        <ele>2295</ele>
        <time>2014-07-31T13:15:45.270Z</time>
      </trkpt>
      <trkpt lat="44.92543" lon="6.85567">
        <ele>2295</ele>
        <time>2014-07-31T13:15:47.070Z</time>
      </trkpt>
      <trkpt lat="44.92542" lon="6.85567">
        <ele>2295</ele>
        <time>2014-07-31T13:15:48.170Z</time>
      </trkpt>
      <trkpt lat="44.92541" lon="6.85566">
        <ele>2295</ele>
        <time>2014-07-31T13:15:51.250Z</time>
      </trkpt>
      <trkpt lat="44.92539" lon="6.85566">
        <ele>2295</ele>
        <time>2014-07-31T13:15:53.170Z</time>
      </trkpt>
      <trkpt lat="44.92537" lon="6.85566">
        <ele>2296.2</ele>
        <time>2014-07-31T13:15:55.170Z</time>
      </trkpt>
      <trkpt lat="44.92535" lon="6.85566">
        <ele>2297</ele>
        <time>2014-07-31T13:15:57.170Z</time>
      </trkpt>
      <trkpt lat="44.92533" lon="6.85567">
        <ele>2297</ele>
        <time>2014-07-31T13:15:59.170Z</time>
      </trkpt>
      <trkpt lat="44.9253" lon="6.85568">
        <ele>2297</ele>
        <time>2014-07-31T13:16:01.070Z</time>
      </trkpt>
      <trkpt lat="44.92529" lon="6.85567">
        <ele>2297</ele>
        <time>2014-07-31T13:16:04.170Z</time>
      </trkpt>
      <trkpt lat="44.92528" lon="6.85567">
        <ele>2297</ele>
        <time>2014-07-31T13:16:05.170Z</time>
      </trkpt>
      <trkpt lat="44.92526" lon="6.85567">
        <ele>2297</ele>
        <time>2014-07-31T13:16:07.070Z</time>
      </trkpt>
      <trkpt lat="44.92525" lon="6.85567">
        <ele>2297</ele>
        <time>2014-07-31T13:16:08.140Z</time>
      </trkpt>
      <trkpt lat="44.92523" lon="6.85567">
        <ele>2297</ele>
        <time>2014-07-31T13:16:10.070Z</time>
      </trkpt>
      <trkpt lat="44.92521" lon="6.85568">
        <ele>2297</ele>
        <time>2014-07-31T13:16:12.070Z</time>
      </trkpt>
      <trkpt lat="44.9252" lon="6.85568">
        <ele>2297</ele>
        <time>2014-07-31T13:16:13.170Z</time>
      </trkpt>
      <trkpt lat="44.92518" lon="6.85568">
        <ele>2297.5</ele>
        <time>2014-07-31T13:16:15.070Z</time>
      </trkpt>
      <trkpt lat="44.92517" lon="6.85568">
        <ele>2298</ele>
        <time>2014-07-31T13:16:16.100Z</time>
      </trkpt>
      <trkpt lat="44.92515" lon="6.85567">
        <ele>2298</ele>
        <time>2014-07-31T13:16:19.070Z</time>
      </trkpt>
      <trkpt lat="44.92513" lon="6.85568">
        <ele>2299.1</ele>
        <time>2014-07-31T13:16:25.140Z</time>
      </trkpt>
      <trkpt lat="44.9251" lon="6.85568">
        <ele>2300</ele>
        <time>2014-07-31T13:16:27.170Z</time>
      </trkpt>
      <trkpt lat="44.92507" lon="6.85569">
        <ele>2300</ele>
        <time>2014-07-31T13:16:29.180Z</time>
      </trkpt>
      <trkpt lat="44.92505" lon="6.85569">
        <ele>2300</ele>
        <time>2014-07-31T13:16:31.070Z</time>
      </trkpt>
      <trkpt lat="44.92502" lon="6.8557">
        <ele>2300</ele>
        <time>2014-07-31T13:16:33.170Z</time>
      </trkpt>
      <trkpt lat="44.925" lon="6.85572">
        <ele>2300.5</ele>
        <time>2014-07-31T13:16:35.070Z</time>
      </trkpt>
      <trkpt lat="44.92499" lon="6.85572">
        <ele>2301</ele>
        <time>2014-07-31T13:16:36.270Z</time>
      </trkpt>
      <trkpt lat="44.92496" lon="6.85574">
        <ele>2301</ele>
        <time>2014-07-31T13:16:38.170Z</time>
      </trkpt>
      <trkpt lat="44.92494" lon="6.85574">
        <ele>2301</ele>
        <time>2014-07-31T13:16:40.170Z</time>
      </trkpt>
      <trkpt lat="44.92492" lon="6.85576">
        <ele>2301</ele>
        <time>2014-07-31T13:16:42.170Z</time>
      </trkpt>
      <trkpt lat="44.92489" lon="6.85577">
        <ele>2301</ele>
        <time>2014-07-31T13:16:44.170Z</time>
      </trkpt>
      <trkpt lat="44.92486" lon="6.85577">
        <ele>2303</ele>
        <time>2014-07-31T13:16:46.160Z</time>
      </trkpt>
      <trkpt lat="44.92483" lon="6.85577">
        <ele>2303</ele>
        <time>2014-07-31T13:16:48.070Z</time>
      </trkpt>
      <trkpt lat="44.92481" lon="6.85577">
        <ele>2303</ele>
        <time>2014-07-31T13:16:49.170Z</time>
      </trkpt>
      <trkpt lat="44.92479" lon="6.85576">
        <ele>2303</ele>
        <time>2014-07-31T13:16:51.030Z</time>
      </trkpt>
      <trkpt lat="44.92475" lon="6.85575">
        <ele>2303</ele>
        <time>2014-07-31T13:16:53.170Z</time>
      </trkpt>
      <trkpt lat="44.92472" lon="6.85575">
        <ele>2304</ele>
        <time>2014-07-31T13:16:55.070Z</time>
      </trkpt>
      <trkpt lat="44.92469" lon="6.85574">
        <ele>2305</ele>
        <time>2014-07-31T13:16:57.070Z</time>
      </trkpt>
      <trkpt lat="44.92468" lon="6.85573">
        <ele>2305</ele>
        <time>2014-07-31T13:16:58.170Z</time>
      </trkpt>
      <trkpt lat="44.92465" lon="6.85572">
        <ele>2305</ele>
        <time>2014-07-31T13:17:00.130Z</time>
      </trkpt>
      <trkpt lat="44.92463" lon="6.85571">
        <ele>2305</ele>
        <time>2014-07-31T13:17:02.070Z</time>
      </trkpt>
      <trkpt lat="44.92462" lon="6.85571">
        <ele>2305</ele>
        <time>2014-07-31T13:17:03.170Z</time>
      </trkpt>
      <trkpt lat="44.92459" lon="6.85569">
        <ele>2305.6</ele>
        <time>2014-07-31T13:17:05.170Z</time>
      </trkpt>
      <trkpt lat="44.92455" lon="6.85567">
        <ele>2306</ele>
        <time>2014-07-31T13:17:07.070Z</time>
      </trkpt>
      <trkpt lat="44.92454" lon="6.85566">
        <ele>2306</ele>
        <time>2014-07-31T13:17:08.170Z</time>
      </trkpt>
      <trkpt lat="44.92453" lon="6.85565">
        <ele>2306</ele>
        <time>2014-07-31T13:17:10.070Z</time>
      </trkpt>
      <trkpt lat="44.9245" lon="6.85563">
        <ele>2306</ele>
        <time>2014-07-31T13:17:12.070Z</time>
      </trkpt>
      <trkpt lat="44.92449" lon="6.85563">
        <ele>2306</ele>
        <time>2014-07-31T13:17:13.170Z</time>
      </trkpt>
      <trkpt lat="44.92448" lon="6.85562">
        <ele>2307</ele>
        <time>2014-07-31T13:17:15.070Z</time>
      </trkpt>
      <trkpt lat="44.92447" lon="6.85561">
        <ele>2308</ele>
        <time>2014-07-31T13:17:18.170Z</time>
      </trkpt>
      <trkpt lat="44.92445" lon="6.8556">
        <ele>2308</ele>
        <time>2014-07-31T13:17:20.170Z</time>
      </trkpt>
      <trkpt lat="44.92443" lon="6.85559">
        <ele>2308</ele>
        <time>2014-07-31T13:17:22.070Z</time>
      </trkpt>
      <trkpt lat="44.92442" lon="6.85558">
        <ele>2308</ele>
        <time>2014-07-31T13:17:23.170Z</time>
      </trkpt>
      <trkpt lat="44.92441" lon="6.85558">
        <ele>2308.6</ele>
        <time>2014-07-31T13:17:25.170Z</time>
      </trkpt>
      <trkpt lat="44.9244" lon="6.85557">
        <ele>2309</ele>
        <time>2014-07-31T13:17:27.270Z</time>
      </trkpt>
      <trkpt lat="44.92438" lon="6.85556">
        <ele>2309</ele>
        <time>2014-07-31T13:17:29.170Z</time>
      </trkpt>
      <trkpt lat="44.92438" lon="6.85555">
        <ele>2309</ele>
        <time>2014-07-31T13:17:30.170Z</time>
      </trkpt>
      <trkpt lat="44.92436" lon="6.85555">
        <ele>2309</ele>
        <time>2014-07-31T13:17:32.070Z</time>
      </trkpt>
      <trkpt lat="44.92435" lon="6.85554">
        <ele>2309.5</ele>
        <time>2014-07-31T13:17:35.070Z</time>
      </trkpt>
      <trkpt lat="44.92434" lon="6.85553">
        <ele>2310</ele>
        <time>2014-07-31T13:17:37.170Z</time>
      </trkpt>
      <trkpt lat="44.92432" lon="6.85553">
        <ele>2310</ele>
        <time>2014-07-31T13:17:39.070Z</time>
      </trkpt>
      <trkpt lat="44.92431" lon="6.85552">
        <ele>2310</ele>
        <time>2014-07-31T13:17:40.170Z</time>
      </trkpt>
      <trkpt lat="44.9243" lon="6.85551">
        <ele>2310</ele>
        <time>2014-07-31T13:17:42.170Z</time>
      </trkpt>
      <trkpt lat="44.92429" lon="6.85551">
        <ele>2310</ele>
        <time>2014-07-31T13:17:44.070Z</time>
      </trkpt>
      <trkpt lat="44.92427" lon="6.8555">
        <ele>2311</ele>
        <time>2014-07-31T13:17:47.070Z</time>
      </trkpt>
      <trkpt lat="44.92425" lon="6.85548">
        <ele>2311</ele>
        <time>2014-07-31T13:17:50.140Z</time>
      </trkpt>
      <trkpt lat="44.92424" lon="6.85548">
        <ele>2311</ele>
        <time>2014-07-31T13:17:52.070Z</time>
      </trkpt>
      <trkpt lat="44.92423" lon="6.85548">
        <ele>2311</ele>
        <time>2014-07-31T13:17:54.170Z</time>
      </trkpt>
      <trkpt lat="44.92421" lon="6.85547">
        <ele>2312</ele>
        <time>2014-07-31T13:17:56.170Z</time>
      </trkpt>
      <trkpt lat="44.9242" lon="6.85548">
        <ele>2312</ele>
        <time>2014-07-31T13:17:58.060Z</time>
      </trkpt>
      <trkpt lat="44.92419" lon="6.85549">
        <ele>2312</ele>
        <time>2014-07-31T13:18:00.130Z</time>
      </trkpt>
      <trkpt lat="44.92418" lon="6.85549">
        <ele>2312</ele>
        <time>2014-07-31T13:18:02.170Z</time>
      </trkpt>
      <trkpt lat="44.92416" lon="6.85549">
        <ele>2312</ele>
        <time>2014-07-31T13:18:04.070Z</time>
      </trkpt>
      <trkpt lat="44.92415" lon="6.85548">
        <ele>2312</ele>
        <time>2014-07-31T13:18:06.070Z</time>
      </trkpt>
      <trkpt lat="44.92413" lon="6.85548">
        <ele>2312</ele>
        <time>2014-07-31T13:18:08.090Z</time>
      </trkpt>
      <trkpt lat="44.92412" lon="6.85549">
        <ele>2312</ele>
        <time>2014-07-31T13:18:10.170Z</time>
      </trkpt>
      <trkpt lat="44.9241" lon="6.85549">
        <ele>2312</ele>
        <time>2014-07-31T13:18:12.070Z</time>
      </trkpt>
      <trkpt lat="44.92408" lon="6.85549">
        <ele>2312</ele>
        <time>2014-07-31T13:18:14.170Z</time>
      </trkpt>
      <trkpt lat="44.92407" lon="6.85549">
        <ele>2314</ele>
        <time>2014-07-31T13:18:16.170Z</time>
      </trkpt>
      <trkpt lat="44.92405" lon="6.85548">
        <ele>2314</ele>
        <time>2014-07-31T13:18:18.070Z</time>
      </trkpt>
      <trkpt lat="44.92403" lon="6.85549">
        <ele>2314</ele>
        <time>2014-07-31T13:18:20.160Z</time>
      </trkpt>
      <trkpt lat="44.92402" lon="6.85549">
        <ele>2314</ele>
        <time>2014-07-31T13:18:22.070Z</time>
      </trkpt>
      <trkpt lat="44.924" lon="6.85551">
        <ele>2314.5</ele>
        <time>2014-07-31T13:18:25.070Z</time>
      </trkpt>
      <trkpt lat="44.92399" lon="6.85552">
        <ele>2315</ele>
        <time>2014-07-31T13:18:27.170Z</time>
      </trkpt>
      <trkpt lat="44.92397" lon="6.85552">
        <ele>2315</ele>
        <time>2014-07-31T13:18:29.070Z</time>
      </trkpt>
      <trkpt lat="44.92395" lon="6.85553">
        <ele>2315</ele>
        <time>2014-07-31T13:18:31.170Z</time>
      </trkpt>
      <trkpt lat="44.92393" lon="6.85555">
        <ele>2315</ele>
        <time>2014-07-31T13:18:33.170Z</time>
      </trkpt>
      <trkpt lat="44.92391" lon="6.85556">
        <ele>2315.6</ele>
        <time>2014-07-31T13:18:35.170Z</time>
      </trkpt>
      <trkpt lat="44.9239" lon="6.85558">
        <ele>2316</ele>
        <time>2014-07-31T13:18:37.170Z</time>
      </trkpt>
      <trkpt lat="44.92388" lon="6.85559">
        <ele>2316</ele>
        <time>2014-07-31T13:18:39.070Z</time>
      </trkpt>
      <trkpt lat="44.92387" lon="6.8556">
        <ele>2316</ele>
        <time>2014-07-31T13:18:40.170Z</time>
      </trkpt>
      <trkpt lat="44.92384" lon="6.85562">
        <ele>2316</ele>
        <time>2014-07-31T13:18:42.070Z</time>
      </trkpt>
      <trkpt lat="44.92383" lon="6.85562">
        <ele>2316</ele>
        <time>2014-07-31T13:18:43.170Z</time>
      </trkpt>
      <trkpt lat="44.92382" lon="6.85562">
        <ele>2316.5</ele>
        <time>2014-07-31T13:18:45.060Z</time>
      </trkpt>
      <trkpt lat="44.92379" lon="6.85563">
        <ele>2317</ele>
        <time>2014-07-31T13:18:47.170Z</time>
      </trkpt>
      <trkpt lat="44.92377" lon="6.85562">
        <ele>2317</ele>
        <time>2014-07-31T13:18:49.070Z</time>
      </trkpt>
      <trkpt lat="44.92376" lon="6.85563">
        <ele>2317</ele>
        <time>2014-07-31T13:18:51.130Z</time>
      </trkpt>
      <trkpt lat="44.92374" lon="6.85563">
        <ele>2317</ele>
        <time>2014-07-31T13:18:53.170Z</time>
      </trkpt>
      <trkpt lat="44.92372" lon="6.85564">
        <ele>2317.6</ele>
        <time>2014-07-31T13:18:55.170Z</time>
      </trkpt>
      <trkpt lat="44.92369" lon="6.85565">
        <ele>2318</ele>
        <time>2014-07-31T13:18:57.070Z</time>
      </trkpt>
      <trkpt lat="44.92368" lon="6.85566">
        <ele>2318</ele>
        <time>2014-07-31T13:18:58.140Z</time>
      </trkpt>
      <trkpt lat="44.92367" lon="6.85567">
        <ele>2318</ele>
        <time>2014-07-31T13:19:00.130Z</time>
      </trkpt>
      <trkpt lat="44.92365" lon="6.85567">
        <ele>2318</ele>
        <time>2014-07-31T13:19:02.170Z</time>
      </trkpt>
      <trkpt lat="44.92363" lon="6.85567">
        <ele>2318</ele>
        <time>2014-07-31T13:19:04.070Z</time>
      </trkpt>
      <trkpt lat="44.92362" lon="6.85568">
        <ele>2318</ele>
        <time>2014-07-31T13:19:05.170Z</time>
      </trkpt>
      <trkpt lat="44.9236" lon="6.85569">
        <ele>2318</ele>
        <time>2014-07-31T13:19:07.170Z</time>
      </trkpt>
      <trkpt lat="44.92358" lon="6.8557">
        <ele>2318</ele>
        <time>2014-07-31T13:19:09.070Z</time>
      </trkpt>
      <trkpt lat="44.92357" lon="6.8557">
        <ele>2318</ele>
        <time>2014-07-31T13:19:10.270Z</time>
      </trkpt>
      <trkpt lat="44.92355" lon="6.8557">
        <ele>2318</ele>
        <time>2014-07-31T13:19:12.070Z</time>
      </trkpt>
      <trkpt lat="44.92353" lon="6.85571">
        <ele>2318</ele>
        <time>2014-07-31T13:19:14.270Z</time>
      </trkpt>
      <trkpt lat="44.92351" lon="6.85572">
        <ele>2318</ele>
        <time>2014-07-31T13:19:16.170Z</time>
      </trkpt>
      <trkpt lat="44.92349" lon="6.85572">
        <ele>2318</ele>
        <time>2014-07-31T13:19:18.170Z</time>
      </trkpt>
      <trkpt lat="44.92348" lon="6.85572">
        <ele>2318</ele>
        <time>2014-07-31T13:19:20.060Z</time>
      </trkpt>
      <trkpt lat="44.92347" lon="6.85572">
        <ele>2318</ele>
        <time>2014-07-31T13:19:21.170Z</time>
      </trkpt>
      <trkpt lat="44.92345" lon="6.85572">
        <ele>2318</ele>
        <time>2014-07-31T13:19:23.070Z</time>
      </trkpt>
      <trkpt lat="44.92343" lon="6.85573">
        <ele>2318.5</ele>
        <time>2014-07-31T13:19:25.070Z</time>
      </trkpt>
      <trkpt lat="44.92341" lon="6.85574">
        <ele>2319</ele>
        <time>2014-07-31T13:19:27.170Z</time>
      </trkpt>
      <trkpt lat="44.92339" lon="6.85574">
        <ele>2319</ele>
        <time>2014-07-31T13:19:29.070Z</time>
      </trkpt>
      <trkpt lat="44.92338" lon="6.85574">
        <ele>2319</ele>
        <time>2014-07-31T13:19:30.170Z</time>
      </trkpt>
      <trkpt lat="44.92336" lon="6.85574">
        <ele>2319</ele>
        <time>2014-07-31T13:19:32.080Z</time>
      </trkpt>
      <trkpt lat="44.92335" lon="6.85573">
        <ele>2319</ele>
        <time>2014-07-31T13:19:34.130Z</time>
      </trkpt>
      <trkpt lat="44.92333" lon="6.85573">
        <ele>2319</ele>
        <time>2014-07-31T13:19:36.170Z</time>
      </trkpt>
      <trkpt lat="44.92332" lon="6.85573">
        <ele>2319</ele>
        <time>2014-07-31T13:19:38.070Z</time>
      </trkpt>
      <trkpt lat="44.9233" lon="6.85574">
        <ele>2319</ele>
        <time>2014-07-31T13:19:40.170Z</time>
      </trkpt>
      <trkpt lat="44.92329" lon="6.85573">
        <ele>2319</ele>
        <time>2014-07-31T13:19:42.170Z</time>
      </trkpt>
      <trkpt lat="44.92326" lon="6.85575">
        <ele>2320</ele>
        <time>2014-07-31T13:19:45.070Z</time>
      </trkpt>
      <trkpt lat="44.92325" lon="6.85576">
        <ele>2321</ele>
        <time>2014-07-31T13:19:47.270Z</time>
      </trkpt>
      <trkpt lat="44.92324" lon="6.85576">
        <ele>2321</ele>
        <time>2014-07-31T13:19:49.140Z</time>
      </trkpt>
      <trkpt lat="44.92322" lon="6.85577">
        <ele>2321</ele>
        <time>2014-07-31T13:19:51.230Z</time>
      </trkpt>
      <trkpt lat="44.9232" lon="6.85577">
        <ele>2321</ele>
        <time>2014-07-31T13:19:53.270Z</time>
      </trkpt>
      <trkpt lat="44.92318" lon="6.85577">
        <ele>2321</ele>
        <time>2014-07-31T13:19:55.270Z</time>
      </trkpt>
      <trkpt lat="44.92317" lon="6.85577">
        <ele>2321</ele>
        <time>2014-07-31T13:19:57.170Z</time>
      </trkpt>
      <trkpt lat="44.92316" lon="6.85577">
        <ele>2321</ele>
        <time>2014-07-31T13:19:59.270Z</time>
      </trkpt>
      <trkpt lat="44.92314" lon="6.85578">
        <ele>2321</ele>
        <time>2014-07-31T13:20:01.170Z</time>
      </trkpt>
      <trkpt lat="44.92313" lon="6.85576">
        <ele>2321</ele>
        <time>2014-07-31T13:20:03.270Z</time>
      </trkpt>
      <trkpt lat="44.92313" lon="6.85573">
        <ele>2321</ele>
        <time>2014-07-31T13:20:05.270Z</time>
      </trkpt>
      <trkpt lat="44.92314" lon="6.85571">
        <ele>2321</ele>
        <time>2014-07-31T13:20:23.070Z</time>
      </trkpt>
      <trkpt lat="44.92315" lon="6.85571">
        <ele>2321</ele>
        <time>2014-07-31T13:20:31.170Z</time>
      </trkpt>
      <trkpt lat="44.92317" lon="6.85571">
        <ele>2321</ele>
        <time>2014-07-31T13:20:35.170Z</time>
      </trkpt>
      <trkpt lat="44.92318" lon="6.85569">
        <ele>2321</ele>
        <time>2014-07-31T13:20:39.170Z</time>
      </trkpt>
      <trkpt lat="44.92319" lon="6.85568">
        <ele>2321</ele>
        <time>2014-07-31T13:20:40.230Z</time>
      </trkpt>
      <trkpt lat="44.92322" lon="6.85567">
        <ele>2321</ele>
        <time>2014-07-31T13:20:42.380Z</time>
      </trkpt>
      <trkpt lat="44.92325" lon="6.85567">
        <ele>2321</ele>
        <time>2014-07-31T13:20:44.170Z</time>
      </trkpt>
      <trkpt lat="44.92326" lon="6.85566">
        <ele>2321.7</ele>
        <time>2014-07-31T13:20:45.270Z</time>
      </trkpt>
      <trkpt lat="44.92329" lon="6.85565">
        <ele>2322</ele>
        <time>2014-07-31T13:20:47.270Z</time>
      </trkpt>
      <trkpt lat="44.92331" lon="6.85563">
        <ele>2322</ele>
        <time>2014-07-31T13:20:49.270Z</time>
      </trkpt>
      <trkpt lat="44.92334" lon="6.85563">
        <ele>2322</ele>
        <time>2014-07-31T13:20:51.130Z</time>
      </trkpt>
      <trkpt lat="44.92336" lon="6.85562">
        <ele>2322</ele>
        <time>2014-07-31T13:20:53.160Z</time>
      </trkpt>
      <trkpt lat="44.92338" lon="6.85562">
        <ele>2323.2</ele>
        <time>2014-07-31T13:20:55.170Z</time>
      </trkpt>
      <trkpt lat="44.92341" lon="6.85561">
        <ele>2324</ele>
        <time>2014-07-31T13:20:57.140Z</time>
      </trkpt>
      <trkpt lat="44.92342" lon="6.85561">
        <ele>2324</ele>
        <time>2014-07-31T13:20:58.270Z</time>
      </trkpt>
      <trkpt lat="44.92344" lon="6.8556">
        <ele>2324</ele>
        <time>2014-07-31T13:21:00.230Z</time>
      </trkpt>
      <trkpt lat="44.92346" lon="6.8556">
        <ele>2324</ele>
        <time>2014-07-31T13:21:02.270Z</time>
      </trkpt>
      <trkpt lat="44.92348" lon="6.85559">
        <ele>2324</ele>
        <time>2014-07-31T13:21:04.170Z</time>
      </trkpt>
      <trkpt lat="44.92349" lon="6.8556">
        <ele>2326</ele>
        <time>2014-07-31T13:21:06.270Z</time>
      </trkpt>
      <trkpt lat="44.9235" lon="6.85559">
        <ele>2326</ele>
        <time>2014-07-31T13:21:09.170Z</time>
      </trkpt>
      <trkpt lat="44.92351" lon="6.85559">
        <ele>2326</ele>
        <time>2014-07-31T13:21:11.380Z</time>
      </trkpt>
      <trkpt lat="44.92352" lon="6.85558">
        <ele>2326</ele>
        <time>2014-07-31T13:21:14.070Z</time>
      </trkpt>
      <trkpt lat="44.9235" lon="6.85556">
        <ele>2327</ele>
        <time>2014-07-31T13:21:16.190Z</time>
      </trkpt>
      <trkpt lat="44.92348" lon="6.85555">
        <ele>2327</ele>
        <time>2014-07-31T13:21:18.270Z</time>
      </trkpt>
      <trkpt lat="44.92348" lon="6.85553">
        <ele>2327</ele>
        <time>2014-07-31T13:21:20.170Z</time>
      </trkpt>
      <trkpt lat="44.92349" lon="6.85551">
        <ele>2327</ele>
        <time>2014-07-31T13:21:22.170Z</time>
      </trkpt>
      <trkpt lat="44.9235" lon="6.85551">
        <ele>2327</ele>
        <time>2014-07-31T13:21:24.270Z</time>
      </trkpt>
      <trkpt lat="44.92352" lon="6.8555">
        <ele>2328</ele>
        <time>2014-07-31T13:21:27.270Z</time>
      </trkpt>
      <trkpt lat="44.92353" lon="6.85549">
        <ele>2328</ele>
        <time>2014-07-31T13:21:29.260Z</time>
      </trkpt>
      <trkpt lat="44.92353" lon="6.85547">
        <ele>2328</ele>
        <time>2014-07-31T13:21:31.130Z</time>
      </trkpt>
      <trkpt lat="44.92355" lon="6.85545">
        <ele>2328</ele>
        <time>2014-07-31T13:21:33.270Z</time>
      </trkpt>
      <trkpt lat="44.92355" lon="6.85543">
        <ele>2328.7</ele>
        <time>2014-07-31T13:21:35.270Z</time>
      </trkpt>
      <trkpt lat="44.92356" lon="6.85541">
        <ele>2329</ele>
        <time>2014-07-31T13:21:37.320Z</time>
      </trkpt>
      <trkpt lat="44.92357" lon="6.8554">
        <ele>2329</ele>
        <time>2014-07-31T13:21:41.170Z</time>
      </trkpt>
      <trkpt lat="44.92357" lon="6.85539">
        <ele>2329</ele>
        <time>2014-07-31T13:21:42.260Z</time>
      </trkpt>
      <trkpt lat="44.92358" lon="6.85536">
        <ele>2329</ele>
        <time>2014-07-31T13:21:44.170Z</time>
      </trkpt>
      <trkpt lat="44.9236" lon="6.85533">
        <ele>2329</ele>
        <time>2014-07-31T13:21:46.170Z</time>
      </trkpt>
      <trkpt lat="44.9236" lon="6.8553">
        <ele>2329</ele>
        <time>2014-07-31T13:21:48.140Z</time>
      </trkpt>
      <trkpt lat="44.92361" lon="6.85527">
        <ele>2329</ele>
        <time>2014-07-31T13:21:50.170Z</time>
      </trkpt>
      <trkpt lat="44.9236" lon="6.85525">
        <ele>2329</ele>
        <time>2014-07-31T13:21:51.230Z</time>
      </trkpt>
      <trkpt lat="44.92361" lon="6.85522">
        <ele>2329</ele>
        <time>2014-07-31T13:21:53.270Z</time>
      </trkpt>
      <trkpt lat="44.92362" lon="6.85522">
        <ele>2329</ele>
        <time>2014-07-31T13:21:55.160Z</time>
      </trkpt>
      <trkpt lat="44.92363" lon="6.85523">
        <ele>2329</ele>
        <time>2014-07-31T13:21:57.270Z</time>
      </trkpt>
      <trkpt lat="44.92363" lon="6.85522">
        <ele>2329</ele>
        <time>2014-07-31T13:22:00.230Z</time>
      </trkpt>
      <trkpt lat="44.92362" lon="6.85521">
        <ele>2329</ele>
        <time>2014-07-31T13:22:03.270Z</time>
      </trkpt>
      <trkpt lat="44.92363" lon="6.8552">
        <ele>2330</ele>
        <time>2014-07-31T13:22:07.270Z</time>
      </trkpt>
      <trkpt lat="44.92364" lon="6.85519">
        <ele>2330</ele>
        <time>2014-07-31T13:22:09.170Z</time>
      </trkpt>
      <trkpt lat="44.92365" lon="6.8552">
        <ele>2330</ele>
        <time>2014-07-31T13:22:11.270Z</time>
      </trkpt>
      <trkpt lat="44.92366" lon="6.85519">
        <ele>2330</ele>
        <time>2014-07-31T13:22:15.170Z</time>
      </trkpt>
      <trkpt lat="44.92364" lon="6.85518">
        <ele>2330</ele>
        <time>2014-07-31T13:22:19.260Z</time>
      </trkpt>
      <trkpt lat="44.92365" lon="6.8552">
        <ele>2330</ele>
        <time>2014-07-31T13:22:24.170Z</time>
      </trkpt>
      <trkpt lat="44.92364" lon="6.8552">
        <ele>2330</ele>
        <time>2014-07-31T13:22:31.170Z</time>
      </trkpt>
      <trkpt lat="44.92365" lon="6.8552">
        <ele>2330</ele>
        <time>2014-07-31T13:22:35.270Z</time>
      </trkpt>
      <trkpt lat="44.92364" lon="6.85521">
        <ele>2330</ele>
        <time>2014-07-31T13:22:40.270Z</time>
      </trkpt>
      <trkpt lat="44.92362" lon="6.85521">
        <ele>2330</ele>
        <time>2014-07-31T13:22:42.270Z</time>
      </trkpt>
      <trkpt lat="44.92362" lon="6.85522">
        <ele>2330</ele>
        <time>2014-07-31T13:22:45.170Z</time>
      </trkpt>
      <trkpt lat="44.92362" lon="6.85524">
        <ele>2330</ele>
        <time>2014-07-31T13:22:47.260Z</time>
      </trkpt>
      <trkpt lat="44.92363" lon="6.85526">
        <ele>2330</ele>
        <time>2014-07-31T13:22:49.170Z</time>
      </trkpt>
      <trkpt lat="44.92364" lon="6.85527">
        <ele>2330</ele>
        <time>2014-07-31T13:22:52.270Z</time>
      </trkpt>
      <trkpt lat="44.92364" lon="6.85526">
        <ele>2330</ele>
        <time>2014-07-31T13:22:57.170Z</time>
      </trkpt>
      <trkpt lat="44.92365" lon="6.85526">
        <ele>2330</ele>
        <time>2014-07-31T13:22:58.270Z</time>
      </trkpt>
      <trkpt lat="44.92366" lon="6.85526">
        <ele>2330</ele>
        <time>2014-07-31T13:23:00.130Z</time>
      </trkpt>
      <trkpt lat="44.92367" lon="6.85527">
        <ele>2330</ele>
        <time>2014-07-31T13:23:03.270Z</time>
      </trkpt>
      <trkpt lat="44.92367" lon="6.85529">
        <ele>2329</ele>
        <time>2014-07-31T13:23:43.270Z</time>
      </trkpt>
      <trkpt lat="44.92366" lon="6.8553">
        <ele>2329</ele>
        <time>2014-07-31T13:23:48.270Z</time>
      </trkpt>
      <trkpt lat="44.92366" lon="6.85529">
        <ele>2330</ele>
        <time>2014-07-31T13:24:00.230Z</time>
      </trkpt>
      <trkpt lat="44.92366" lon="6.85527">
        <ele>2330</ele>
        <time>2014-07-31T13:24:09.170Z</time>
      </trkpt>
      <trkpt lat="44.92365" lon="6.85524">
        <ele>2330</ele>
        <time>2014-07-31T13:24:11.260Z</time>
      </trkpt>
      <trkpt lat="44.92365" lon="6.85521">
        <ele>2330</ele>
        <time>2014-07-31T13:24:13.170Z</time>
      </trkpt>
      <trkpt lat="44.92365" lon="6.8552">
        <ele>2330.6</ele>
        <time>2014-07-31T13:24:15.170Z</time>
      </trkpt>
      <trkpt lat="44.92366" lon="6.8552">
        <ele>2331</ele>
        <time>2014-07-31T13:24:18.270Z</time>
      </trkpt>
      <trkpt lat="44.92367" lon="6.8552">
        <ele>2331</ele>
        <time>2014-07-31T13:24:20.270Z</time>
      </trkpt>
      <trkpt lat="44.92369" lon="6.8552">
        <ele>2331</ele>
        <time>2014-07-31T13:24:22.270Z</time>
      </trkpt>
      <trkpt lat="44.9237" lon="6.8552">
        <ele>2331</ele>
        <time>2014-07-31T13:24:24.170Z</time>
      </trkpt>
      <trkpt lat="44.92369" lon="6.85522">
        <ele>2331</ele>
        <time>2014-07-31T13:24:27.270Z</time>
      </trkpt>
      <trkpt lat="44.92368" lon="6.85522">
        <ele>2331</ele>
        <time>2014-07-31T13:24:30.170Z</time>
      </trkpt>
      <trkpt lat="44.92369" lon="6.85523">
        <ele>2331</ele>
        <time>2014-07-31T13:24:35.170Z</time>
      </trkpt>
      <trkpt lat="44.92368" lon="6.85523">
        <ele>2331</ele>
        <time>2014-07-31T13:24:40.270Z</time>
      </trkpt>
      <trkpt lat="44.92367" lon="6.85521">
        <ele>2330</ele>
        <time>2014-07-31T13:24:50.170Z</time>
      </trkpt>
      <trkpt lat="44.92365" lon="6.85519">
        <ele>2330</ele>
        <time>2014-07-31T13:24:53.270Z</time>
      </trkpt>
      <trkpt lat="44.92365" lon="6.85521">
        <ele>2331</ele>
        <time>2014-07-31T13:24:57.270Z</time>
      </trkpt>
      <trkpt lat="44.92365" lon="6.85524">
        <ele>2331</ele>
        <time>2014-07-31T13:24:59.170Z</time>
      </trkpt>
      <trkpt lat="44.92366" lon="6.85524">
        <ele>2331</ele>
        <time>2014-07-31T13:25:00.070Z</time>
      </trkpt>
      <trkpt lat="44.92366" lon="6.85526">
        <ele>2331</ele>
        <time>2014-07-31T13:25:01.270Z</time>
      </trkpt>
      <trkpt lat="44.92366" lon="6.85527">
        <ele>2331</ele>
        <time>2014-07-31T13:25:03.170Z</time>
      </trkpt>
      <trkpt lat="44.92366" lon="6.8553">
        <ele>2331</ele>
        <time>2014-07-31T13:25:06.170Z</time>
      </trkpt>
      <trkpt lat="44.92366" lon="6.85529">
        <ele>2331</ele>
        <time>2014-07-31T13:25:10.270Z</time>
      </trkpt>
      <trkpt lat="44.92365" lon="6.85528">
        <ele>2331</ele>
        <time>2014-07-31T13:25:15.330Z</time>
      </trkpt>
      <trkpt lat="44.92366" lon="6.85527">
        <ele>2331</ele>
        <time>2014-07-31T13:25:18.260Z</time>
      </trkpt>
      <trkpt lat="44.92368" lon="6.85527">
        <ele>2330</ele>
        <time>2014-07-31T13:25:27.270Z</time>
      </trkpt>
      <trkpt lat="44.92368" lon="6.85527">
        <ele>2330</ele>
        <time>2014-07-31T13:26:00.070Z</time>
      </trkpt>
      <trkpt lat="44.9237" lon="6.85528">
        <ele>2330</ele>
        <time>2014-07-31T13:26:24.170Z</time>
      </trkpt>
      <trkpt lat="44.9237" lon="6.85526">
        <ele>2331</ele>
        <time>2014-07-31T13:26:26.270Z</time>
      </trkpt>
      <trkpt lat="44.92372" lon="6.85523">
        <ele>2331</ele>
        <time>2014-07-31T13:26:28.170Z</time>
      </trkpt>
      <trkpt lat="44.92373" lon="6.85521">
        <ele>2331</ele>
        <time>2014-07-31T13:26:29.270Z</time>
      </trkpt>
      <trkpt lat="44.92374" lon="6.85519">
        <ele>2331</ele>
        <time>2014-07-31T13:26:31.160Z</time>
      </trkpt>
      <trkpt lat="44.92377" lon="6.85517">
        <ele>2331</ele>
        <time>2014-07-31T13:26:34.230Z</time>
      </trkpt>
      <trkpt lat="44.9238" lon="6.85516">
        <ele>2331</ele>
        <time>2014-07-31T13:26:36.270Z</time>
      </trkpt>
      <trkpt lat="44.92382" lon="6.85515">
        <ele>2331</ele>
        <time>2014-07-31T13:26:38.270Z</time>
      </trkpt>
      <trkpt lat="44.92383" lon="6.85516">
        <ele>2331</ele>
        <time>2014-07-31T13:26:40.270Z</time>
      </trkpt>
      <trkpt lat="44.92385" lon="6.85516">
        <ele>2331</ele>
        <time>2014-07-31T13:26:42.270Z</time>
      </trkpt>
      <trkpt lat="44.92386" lon="6.85516">
        <ele>2331</ele>
        <time>2014-07-31T13:26:44.260Z</time>
      </trkpt>
      <trkpt lat="44.92386" lon="6.85515">
        <ele>2331</ele>
        <time>2014-07-31T13:27:00.130Z</time>
      </trkpt>
      <trkpt lat="44.92385" lon="6.85516">
        <ele>2331</ele>
        <time>2014-07-31T13:27:16.170Z</time>
      </trkpt>
      <trkpt lat="44.92386" lon="6.85517">
        <ele>2331</ele>
        <time>2014-07-31T13:27:24.170Z</time>
      </trkpt>
      <trkpt lat="44.92386" lon="6.85515">
        <ele>2331</ele>
        <time>2014-07-31T13:27:36.270Z</time>
      </trkpt>
      <trkpt lat="44.92387" lon="6.85516">
        <ele>2331</ele>
        <time>2014-07-31T13:27:56.170Z</time>
      </trkpt>
      <trkpt lat="44.92386" lon="6.85516">
        <ele>2331</ele>
        <time>2014-07-31T13:27:59.270Z</time>
      </trkpt>
      <trkpt lat="44.92386" lon="6.85516">
        <ele>2331</ele>
        <time>2014-07-31T13:28:01.270Z</time>
      </trkpt>
      <trkpt lat="44.92387" lon="6.85516">
        <ele>2330</ele>
        <time>2014-07-31T13:28:19.230Z</time>
      </trkpt>
      <trkpt lat="44.92386" lon="6.85515">
        <ele>2331</ele>
        <time>2014-07-31T13:28:29.270Z</time>
      </trkpt>
      <trkpt lat="44.92386" lon="6.85516">
        <ele>2331</ele>
        <time>2014-07-31T13:29:01.170Z</time>
      </trkpt>
      <trkpt lat="44.92386" lon="6.85516">
        <ele>2331</ele>
        <time>2014-07-31T13:29:26.270Z</time>
      </trkpt>
      <trkpt lat="44.92387" lon="6.85517">
        <ele>2330</ele>
        <time>2014-07-31T13:29:36.170Z</time>
      </trkpt>
      <trkpt lat="44.92386" lon="6.85518">
        <ele>2330</ele>
        <time>2014-07-31T13:29:42.270Z</time>
      </trkpt>
      <trkpt lat="44.92386" lon="6.85518">
        <ele>2330</ele>
        <time>2014-07-31T13:29:51.230Z</time>
      </trkpt>
      <trkpt lat="44.92386" lon="6.85518">
        <ele>2331</ele>
        <time>2014-07-31T13:30:00.130Z</time>
      </trkpt>
      <trkpt lat="44.92386" lon="6.85517">
        <ele>2331</ele>
        <time>2014-07-31T13:30:04.260Z</time>
      </trkpt>
      <trkpt lat="44.92386" lon="6.85515">
        <ele>2331</ele>
        <time>2014-07-31T13:30:09.170Z</time>
      </trkpt>
      <trkpt lat="44.92386" lon="6.85514">
        <ele>2331</ele>
        <time>2014-07-31T13:30:41.170Z</time>
      </trkpt>
      <trkpt lat="44.92385" lon="6.85513">
        <ele>2331</ele>
        <time>2014-07-31T13:31:00.230Z</time>
      </trkpt>
      <trkpt lat="44.92385" lon="6.85512">
        <ele>2330</ele>
        <time>2014-07-31T13:31:16.270Z</time>
      </trkpt>
      <trkpt lat="44.92384" lon="6.85513">
        <ele>2331.4</ele>
        <time>2014-07-31T13:31:55.170Z</time>
      </trkpt>
      <trkpt lat="44.92383" lon="6.85514">
        <ele>2331</ele>
        <time>2014-07-31T13:31:57.170Z</time>
      </trkpt>
      <trkpt lat="44.92382" lon="6.85516">
        <ele>2331</ele>
        <time>2014-07-31T13:32:00.250Z</time>
      </trkpt>
      <trkpt lat="44.9238" lon="6.85517">
        <ele>2331</ele>
        <time>2014-07-31T13:32:02.160Z</time>
      </trkpt>
      <trkpt lat="44.92379" lon="6.85517">
        <ele>2331</ele>
        <time>2014-07-31T13:32:03.270Z</time>
      </trkpt>
      <trkpt lat="44.92377" lon="6.85517">
        <ele>2331</ele>
        <time>2014-07-31T13:32:05.270Z</time>
      </trkpt>
      <trkpt lat="44.92376" lon="6.85518">
        <ele>2331</ele>
        <time>2014-07-31T13:32:07.270Z</time>
      </trkpt>
      <trkpt lat="44.92374" lon="6.8552">
        <ele>2331</ele>
        <time>2014-07-31T13:32:09.270Z</time>
      </trkpt>
      <trkpt lat="44.92373" lon="6.85522">
        <ele>2331</ele>
        <time>2014-07-31T13:32:11.270Z</time>
      </trkpt>
      <trkpt lat="44.92372" lon="6.85523">
        <ele>2331</ele>
        <time>2014-07-31T13:32:13.170Z</time>
      </trkpt>
      <trkpt lat="44.92371" lon="6.85525">
        <ele>2331</ele>
        <time>2014-07-31T13:32:15.260Z</time>
      </trkpt>
      <trkpt lat="44.9237" lon="6.85526">
        <ele>2331</ele>
        <time>2014-07-31T13:32:17.250Z</time>
      </trkpt>
      <trkpt lat="44.92369" lon="6.85528">
        <ele>2331</ele>
        <time>2014-07-31T13:32:19.170Z</time>
      </trkpt>
      <trkpt lat="44.92368" lon="6.85529">
        <ele>2331</ele>
        <time>2014-07-31T13:32:22.270Z</time>
      </trkpt>
      <trkpt lat="44.92366" lon="6.8553">
        <ele>2331</ele>
        <time>2014-07-31T13:32:24.170Z</time>
      </trkpt>
      <trkpt lat="44.92365" lon="6.85532">
        <ele>2331</ele>
        <time>2014-07-31T13:32:26.270Z</time>
      </trkpt>
      <trkpt lat="44.92364" lon="6.85532">
        <ele>2331</ele>
        <time>2014-07-31T13:32:28.270Z</time>
      </trkpt>
      <trkpt lat="44.92363" lon="6.85533">
        <ele>2331</ele>
        <time>2014-07-31T13:32:30.170Z</time>
      </trkpt>
      <trkpt lat="44.92362" lon="6.85534">
        <ele>2331</ele>
        <time>2014-07-31T13:32:33.270Z</time>
      </trkpt>
      <trkpt lat="44.92361" lon="6.85536">
        <ele>2330.4</ele>
        <time>2014-07-31T13:32:35.170Z</time>
      </trkpt>
      <trkpt lat="44.9236" lon="6.85537">
        <ele>2330</ele>
        <time>2014-07-31T13:32:37.170Z</time>
      </trkpt>
      <trkpt lat="44.92359" lon="6.85538">
        <ele>2330</ele>
        <time>2014-07-31T13:32:51.250Z</time>
      </trkpt>
      <trkpt lat="44.92359" lon="6.85538">
        <ele>2329</ele>
        <time>2014-07-31T13:33:00.230Z</time>
      </trkpt>
      <trkpt lat="44.92359" lon="6.85537">
        <ele>2329</ele>
        <time>2014-07-31T13:33:05.270Z</time>
      </trkpt>
      <trkpt lat="44.9236" lon="6.85536">
        <ele>2330</ele>
        <time>2014-07-31T13:33:52.170Z</time>
      </trkpt>
      <trkpt lat="44.9236" lon="6.85536">
        <ele>2329</ele>
        <time>2014-07-31T13:34:00.130Z</time>
      </trkpt>
      <trkpt lat="44.9236" lon="6.85537">
        <ele>2330</ele>
        <time>2014-07-31T13:34:47.270Z</time>
      </trkpt>
      <trkpt lat="44.9236" lon="6.85537">
        <ele>2330</ele>
        <time>2014-07-31T13:35:00.230Z</time>
      </trkpt>
      <trkpt lat="44.92359" lon="6.85537">
        <ele>2329</ele>
        <time>2014-07-31T13:36:00.070Z</time>
      </trkpt>
      <trkpt lat="44.92358" lon="6.85537">
        <ele>2330</ele>
        <time>2014-07-31T13:36:14.170Z</time>
      </trkpt>
      <trkpt lat="44.92359" lon="6.85538">
        <ele>2330</ele>
        <time>2014-07-31T13:36:31.170Z</time>
      </trkpt>
      <trkpt lat="44.9236" lon="6.85539">
        <ele>2330</ele>
        <time>2014-07-31T13:37:00.210Z</time>
      </trkpt>
      <trkpt lat="44.92359" lon="6.85537">
        <ele>2330</ele>
        <time>2014-07-31T13:37:04.270Z</time>
      </trkpt>
      <trkpt lat="44.92358" lon="6.85536">
        <ele>2330</ele>
        <time>2014-07-31T13:37:11.170Z</time>
      </trkpt>
      <trkpt lat="44.92357" lon="6.85536">
        <ele>2330</ele>
        <time>2014-07-31T13:37:13.270Z</time>
      </trkpt>
      <trkpt lat="44.92356" lon="6.85536">
        <ele>2330</ele>
        <time>2014-07-31T13:37:16.170Z</time>
      </trkpt>
      <trkpt lat="44.92354" lon="6.85536">
        <ele>2330</ele>
        <time>2014-07-31T13:37:19.260Z</time>
      </trkpt>
      <trkpt lat="44.92353" lon="6.85537">
        <ele>2330</ele>
        <time>2014-07-31T13:37:21.270Z</time>
      </trkpt>
      <trkpt lat="44.92352" lon="6.85536">
        <ele>2330</ele>
        <time>2014-07-31T13:37:23.130Z</time>
      </trkpt>
      <trkpt lat="44.92352" lon="6.85536">
        <ele>2328</ele>
        <time>2014-07-31T13:38:00.070Z</time>
      </trkpt>
      <trkpt lat="44.92354" lon="6.85535">
        <ele>2328</ele>
        <time>2014-07-31T13:38:04.170Z</time>
      </trkpt>
      <trkpt lat="44.92355" lon="6.85535">
        <ele>2330</ele>
        <time>2014-07-31T13:38:06.270Z</time>
      </trkpt>
      <trkpt lat="44.92356" lon="6.85535">
        <ele>2330</ele>
        <time>2014-07-31T13:38:09.170Z</time>
      </trkpt>
      <trkpt lat="44.92357" lon="6.85536">
        <ele>2330</ele>
        <time>2014-07-31T13:38:10.270Z</time>
      </trkpt>
      <trkpt lat="44.92358" lon="6.85537">
        <ele>2330</ele>
        <time>2014-07-31T13:38:17.190Z</time>
      </trkpt>
      <trkpt lat="44.92359" lon="6.85537">
        <ele>2330</ele>
        <time>2014-07-31T13:38:20.170Z</time>
      </trkpt>
      <trkpt lat="44.9236" lon="6.85536">
        <ele>2330</ele>
        <time>2014-07-31T13:38:22.270Z</time>
      </trkpt>
      <trkpt lat="44.92361" lon="6.85535">
        <ele>2330</ele>
        <time>2014-07-31T13:38:24.170Z</time>
      </trkpt>
      <trkpt lat="44.92362" lon="6.85533">
        <ele>2331</ele>
        <time>2014-07-31T13:38:26.270Z</time>
      </trkpt>
      <trkpt lat="44.92363" lon="6.8553">
        <ele>2331</ele>
        <time>2014-07-31T13:38:28.170Z</time>
      </trkpt>
      <trkpt lat="44.92363" lon="6.85527">
        <ele>2331</ele>
        <time>2014-07-31T13:38:30.190Z</time>
      </trkpt>
      <trkpt lat="44.92363" lon="6.85524">
        <ele>2331</ele>
        <time>2014-07-31T13:38:32.170Z</time>
      </trkpt>
      <trkpt lat="44.92363" lon="6.85521">
        <ele>2331</ele>
        <time>2014-07-31T13:38:35.170Z</time>
      </trkpt>
      <trkpt lat="44.92364" lon="6.85519">
        <ele>2331</ele>
        <time>2014-07-31T13:38:37.170Z</time>
      </trkpt>
      <trkpt lat="44.92363" lon="6.85518">
        <ele>2331</ele>
        <time>2014-07-31T13:38:43.250Z</time>
      </trkpt>
      <trkpt lat="44.92363" lon="6.85519">
        <ele>2331</ele>
        <time>2014-07-31T13:38:49.170Z</time>
      </trkpt>
      <trkpt lat="44.92363" lon="6.85522">
        <ele>2331</ele>
        <time>2014-07-31T13:38:52.170Z</time>
      </trkpt>
      <trkpt lat="44.92364" lon="6.85523">
        <ele>2331</ele>
        <time>2014-07-31T13:38:54.270Z</time>
      </trkpt>
      <trkpt lat="44.92364" lon="6.85525">
        <ele>2331</ele>
        <time>2014-07-31T13:39:00.070Z</time>
      </trkpt>
      <trkpt lat="44.92363" lon="6.85527">
        <ele>2331</ele>
        <time>2014-07-31T13:39:02.170Z</time>
      </trkpt>
      <trkpt lat="44.92364" lon="6.85528">
        <ele>2331</ele>
        <time>2014-07-31T13:39:04.270Z</time>
      </trkpt>
      <trkpt lat="44.92366" lon="6.85528">
        <ele>2330</ele>
        <time>2014-07-31T13:39:06.270Z</time>
      </trkpt>
      <trkpt lat="44.92367" lon="6.85528">
        <ele>2330</ele>
        <time>2014-07-31T13:39:09.170Z</time>
      </trkpt>
      <trkpt lat="44.92366" lon="6.85528">
        <ele>2330</ele>
        <time>2014-07-31T13:39:13.270Z</time>
      </trkpt>
      <trkpt lat="44.92365" lon="6.85527">
        <ele>2331</ele>
        <time>2014-07-31T13:39:40.190Z</time>
      </trkpt>
      <trkpt lat="44.92364" lon="6.85526">
        <ele>2331</ele>
        <time>2014-07-31T13:39:56.070Z</time>
      </trkpt>
      <trkpt lat="44.92364" lon="6.85524">
        <ele>2331</ele>
        <time>2014-07-31T13:39:59.170Z</time>
      </trkpt>
      <trkpt lat="44.92364" lon="6.85523">
        <ele>2331</ele>
        <time>2014-07-31T13:40:00.230Z</time>
      </trkpt>
      <trkpt lat="44.92363" lon="6.8552">
        <ele>2331</ele>
        <time>2014-07-31T13:40:02.170Z</time>
      </trkpt>
      <trkpt lat="44.92363" lon="6.85518">
        <ele>2331</ele>
        <time>2014-07-31T13:40:04.270Z</time>
      </trkpt>
      <trkpt lat="44.92364" lon="6.85518">
        <ele>2331</ele>
        <time>2014-07-31T13:40:09.270Z</time>
      </trkpt>
      <trkpt lat="44.92363" lon="6.85518">
        <ele>2331</ele>
        <time>2014-07-31T13:40:13.230Z</time>
      </trkpt>
      <trkpt lat="44.92364" lon="6.85519">
        <ele>2330</ele>
        <time>2014-07-31T13:40:23.270Z</time>
      </trkpt>
      <trkpt lat="44.92365" lon="6.85518">
        <ele>2331</ele>
        <time>2014-07-31T13:40:38.270Z</time>
      </trkpt>
      <trkpt lat="44.92364" lon="6.8552">
        <ele>2331</ele>
        <time>2014-07-31T13:40:51.170Z</time>
      </trkpt>
      <trkpt lat="44.92365" lon="6.85523">
        <ele>2331</ele>
        <time>2014-07-31T13:40:53.170Z</time>
      </trkpt>
      <trkpt lat="44.92365" lon="6.85523">
        <ele>2330</ele>
        <time>2014-07-31T13:41:00.230Z</time>
      </trkpt>
      <trkpt lat="44.92366" lon="6.85522">
        <ele>2330</ele>
        <time>2014-07-31T13:41:18.270Z</time>
      </trkpt>
      <trkpt lat="44.92365" lon="6.85521">
        <ele>2331</ele>
        <time>2014-07-31T13:41:35.190Z</time>
      </trkpt>
      <trkpt lat="44.92364" lon="6.85521">
        <ele>2331</ele>
        <time>2014-07-31T13:41:37.270Z</time>
      </trkpt>
      <trkpt lat="44.92364" lon="6.85521">
        <ele>2331</ele>
        <time>2014-07-31T13:42:00.130Z</time>
      </trkpt>
      <trkpt lat="44.92365" lon="6.85522">
        <ele>2331</ele>
        <time>2014-07-31T13:42:07.270Z</time>
      </trkpt>
      <trkpt lat="44.92365" lon="6.85523">
        <ele>2331</ele>
        <time>2014-07-31T13:42:10.170Z</time>
      </trkpt>
      <trkpt lat="44.92365" lon="6.85525">
        <ele>2331</ele>
        <time>2014-07-31T13:42:22.170Z</time>
      </trkpt>
      <trkpt lat="44.92366" lon="6.85526">
        <ele>2331</ele>
        <time>2014-07-31T13:42:30.170Z</time>
      </trkpt>
      <trkpt lat="44.92365" lon="6.85526">
        <ele>2331</ele>
        <time>2014-07-31T13:42:35.170Z</time>
      </trkpt>
      <trkpt lat="44.92363" lon="6.85525">
        <ele>2331</ele>
        <time>2014-07-31T13:42:39.170Z</time>
      </trkpt>
      <trkpt lat="44.92364" lon="6.85526">
        <ele>2330</ele>
        <time>2014-07-31T13:42:52.170Z</time>
      </trkpt>
      <trkpt lat="44.92364" lon="6.85526">
        <ele>2330</ele>
        <time>2014-07-31T13:43:01.170Z</time>
      </trkpt>
      <trkpt lat="44.92363" lon="6.85524">
        <ele>2331</ele>
        <time>2014-07-31T13:43:10.270Z</time>
      </trkpt>
      <trkpt lat="44.92363" lon="6.85522">
        <ele>2331</ele>
        <time>2014-07-31T13:43:12.270Z</time>
      </trkpt>
      <trkpt lat="44.92363" lon="6.85521">
        <ele>2331</ele>
        <time>2014-07-31T13:43:17.230Z</time>
      </trkpt>
      <trkpt lat="44.92364" lon="6.8552">
        <ele>2331</ele>
        <time>2014-07-31T13:43:45.270Z</time>
      </trkpt>
      <trkpt lat="44.92364" lon="6.8552">
        <ele>2330</ele>
        <time>2014-07-31T13:44:01.250Z</time>
      </trkpt>
      <trkpt lat="44.92363" lon="6.85521">
        <ele>2331</ele>
        <time>2014-07-31T13:44:08.270Z</time>
      </trkpt>
      <trkpt lat="44.92363" lon="6.85522">
        <ele>2331</ele>
        <time>2014-07-31T13:44:19.270Z</time>
      </trkpt>
      <trkpt lat="44.92361" lon="6.85523">
        <ele>2332</ele>
        <time>2014-07-31T13:44:33.270Z</time>
      </trkpt>
      <trkpt lat="44.92362" lon="6.85522">
        <ele>2331</ele>
        <time>2014-07-31T13:45:01.280Z</time>
      </trkpt>
      <trkpt lat="44.92361" lon="6.85521">
        <ele>2332</ele>
        <time>2014-07-31T13:45:24.270Z</time>
      </trkpt>
      <trkpt lat="44.9236" lon="6.8552">
        <ele>2330</ele>
        <time>2014-07-31T13:45:39.170Z</time>
      </trkpt>
      <trkpt lat="44.92361" lon="6.85519">
        <ele>2330</ele>
        <time>2014-07-31T13:45:44.250Z</time>
      </trkpt>
      <trkpt lat="44.92362" lon="6.8552">
        <ele>2331</ele>
        <time>2014-07-31T13:45:48.270Z</time>
      </trkpt>
      <trkpt lat="44.92363" lon="6.85522">
        <ele>2331</ele>
        <time>2014-07-31T13:45:52.170Z</time>
      </trkpt>
      <trkpt lat="44.92364" lon="6.85523">
        <ele>2331</ele>
        <time>2014-07-31T13:45:54.270Z</time>
      </trkpt>
      <trkpt lat="44.92366" lon="6.85523">
        <ele>2331</ele>
        <time>2014-07-31T13:45:56.170Z</time>
      </trkpt>
      <trkpt lat="44.92369" lon="6.85522">
        <ele>2331</ele>
        <time>2014-07-31T13:45:59.170Z</time>
      </trkpt>
      <trkpt lat="44.9237" lon="6.85521">
        <ele>2331</ele>
        <time>2014-07-31T13:46:01.170Z</time>
      </trkpt>
      <trkpt lat="44.92372" lon="6.85521">
        <ele>2331</ele>
        <time>2014-07-31T13:46:06.170Z</time>
      </trkpt>
      <trkpt lat="44.92373" lon="6.85521">
        <ele>2331</ele>
        <time>2014-07-31T13:46:08.270Z</time>
      </trkpt>
      <trkpt lat="44.92375" lon="6.85518">
        <ele>2331</ele>
        <time>2014-07-31T13:46:10.130Z</time>
      </trkpt>
      <trkpt lat="44.92376" lon="6.85517">
        <ele>2331</ele>
        <time>2014-07-31T13:46:11.270Z</time>
      </trkpt>
      <trkpt lat="44.92377" lon="6.85513">
        <ele>2331</ele>
        <time>2014-07-31T13:46:13.170Z</time>
      </trkpt>
      <trkpt lat="44.92377" lon="6.85511">
        <ele>2331</ele>
        <time>2014-07-31T13:46:14.270Z</time>
      </trkpt>
      <trkpt lat="44.92379" lon="6.85508">
        <ele>2331</ele>
        <time>2014-07-31T13:46:16.270Z</time>
      </trkpt>
      <trkpt lat="44.92383" lon="6.85507">
        <ele>2331</ele>
        <time>2014-07-31T13:46:18.270Z</time>
      </trkpt>
      <trkpt lat="44.92387" lon="6.85508">
        <ele>2331</ele>
        <time>2014-07-31T13:46:20.270Z</time>
      </trkpt>
      <trkpt lat="44.92391" lon="6.85509">
        <ele>2331</ele>
        <time>2014-07-31T13:46:22.270Z</time>
      </trkpt>
      <trkpt lat="44.92395" lon="6.85511">
        <ele>2331</ele>
        <time>2014-07-31T13:46:24.270Z</time>
      </trkpt>
      <trkpt lat="44.92399" lon="6.85514">
        <ele>2332</ele>
        <time>2014-07-31T13:46:26.170Z</time>
      </trkpt>
      <trkpt lat="44.92403" lon="6.85516">
        <ele>2332</ele>
        <time>2014-07-31T13:46:28.270Z</time>
      </trkpt>
      <trkpt lat="44.92409" lon="6.85518">
        <ele>2332</ele>
        <time>2014-07-31T13:46:30.270Z</time>
      </trkpt>
      <trkpt lat="44.92417" lon="6.85519">
        <ele>2332</ele>
        <time>2014-07-31T13:46:32.270Z</time>
      </trkpt>
      <trkpt lat="44.92425" lon="6.85522">
        <ele>2332</ele>
        <time>2014-07-31T13:46:34.230Z</time>
      </trkpt>
      <trkpt lat="44.92432" lon="6.85524">
        <ele>2330</ele>
        <time>2014-07-31T13:46:36.250Z</time>
      </trkpt>
      <trkpt lat="44.92441" lon="6.85528">
        <ele>2330</ele>
        <time>2014-07-31T13:46:38.170Z</time>
      </trkpt>
      <trkpt lat="44.92447" lon="6.8553">
        <ele>2330</ele>
        <time>2014-07-31T13:46:39.270Z</time>
      </trkpt>
      <trkpt lat="44.92457" lon="6.85535">
        <ele>2330</ele>
        <time>2014-07-31T13:46:41.270Z</time>
      </trkpt>
      <trkpt lat="44.92468" lon="6.85543">
        <ele>2330</ele>
        <time>2014-07-31T13:46:43.170Z</time>
      </trkpt>
      <trkpt lat="44.92483" lon="6.85544">
        <ele>2326.4</ele>
        <time>2014-07-31T13:46:45.170Z</time>
      </trkpt>
      <trkpt lat="44.92495" lon="6.85539">
        <ele>2321.4</ele>
        <time>2014-07-31T13:46:47.170Z</time>
      </trkpt>
      <trkpt lat="44.92499" lon="6.85536">
        <ele>2319.4</ele>
        <time>2014-07-31T13:46:49.170Z</time>
      </trkpt>
      <trkpt lat="44.92501" lon="6.85536">
        <ele>2319</ele>
        <time>2014-07-31T13:46:51.230Z</time>
      </trkpt>
      <trkpt lat="44.9251" lon="6.85539">
        <ele>2318</ele>
        <time>2014-07-31T13:46:53.270Z</time>
      </trkpt>
      <trkpt lat="44.92524" lon="6.85545">
        <ele>2314.6</ele>
        <time>2014-07-31T13:46:55.270Z</time>
      </trkpt>
      <trkpt lat="44.92544" lon="6.85552">
        <ele>2311.4</ele>
        <time>2014-07-31T13:46:57.170Z</time>
      </trkpt>
      <trkpt lat="44.92554" lon="6.85555">
        <ele>2308.9</ele>
        <time>2014-07-31T13:46:58.270Z</time>
      </trkpt>
      <trkpt lat="44.92568" lon="6.85557">
        <ele>2307</ele>
        <time>2014-07-31T13:47:00.190Z</time>
      </trkpt>
      <trkpt lat="44.92584" lon="6.85562">
        <ele>2304.3</ele>
        <time>2014-07-31T13:47:02.270Z</time>
      </trkpt>
      <trkpt lat="44.92596" lon="6.85566">
        <ele>2299.2</ele>
        <time>2014-07-31T13:47:04.170Z</time>
      </trkpt>
      <trkpt lat="44.92601" lon="6.85568">
        <ele>2297.3</ele>
        <time>2014-07-31T13:47:05.270Z</time>
      </trkpt>
      <trkpt lat="44.9261" lon="6.85569">
        <ele>2295.3</ele>
        <time>2014-07-31T13:47:07.270Z</time>
      </trkpt>
      <trkpt lat="44.92616" lon="6.85569">
        <ele>2293.4</ele>
        <time>2014-07-31T13:47:09.170Z</time>
      </trkpt>
      <trkpt lat="44.92622" lon="6.8557">
        <ele>2291.4</ele>
        <time>2014-07-31T13:47:11.170Z</time>
      </trkpt>
      <trkpt lat="44.92624" lon="6.8557">
        <ele>2290</ele>
        <time>2014-07-31T13:47:13.270Z</time>
      </trkpt>
      <trkpt lat="44.92623" lon="6.85569">
        <ele>2290</ele>
        <time>2014-07-31T13:47:15.270Z</time>
      </trkpt>
      <trkpt lat="44.92621" lon="6.85568">
        <ele>2290</ele>
        <time>2014-07-31T13:47:20.270Z</time>
      </trkpt>
      <trkpt lat="44.92622" lon="6.85569">
        <ele>2290</ele>
        <time>2014-07-31T13:47:29.170Z</time>
      </trkpt>
      <trkpt lat="44.92623" lon="6.85569">
        <ele>2290</ele>
        <time>2014-07-31T13:47:31.270Z</time>
      </trkpt>
      <trkpt lat="44.92625" lon="6.8557">
        <ele>2290</ele>
        <time>2014-07-31T13:47:33.170Z</time>
      </trkpt>
      <trkpt lat="44.92626" lon="6.85571">
        <ele>2290</ele>
        <time>2014-07-31T13:47:37.170Z</time>
      </trkpt>
      <trkpt lat="44.92626" lon="6.85572">
        <ele>2290</ele>
        <time>2014-07-31T13:47:41.170Z</time>
      </trkpt>
      <trkpt lat="44.92626" lon="6.85573">
        <ele>2290</ele>
        <time>2014-07-31T13:47:43.270Z</time>
      </trkpt>
      <trkpt lat="44.92624" lon="6.85574">
        <ele>2290</ele>
        <time>2014-07-31T13:47:45.170Z</time>
      </trkpt>
      <trkpt lat="44.92623" lon="6.85574">
        <ele>2290</ele>
        <time>2014-07-31T13:47:47.170Z</time>
      </trkpt>
      <trkpt lat="44.92621" lon="6.85573">
        <ele>2290</ele>
        <time>2014-07-31T13:47:50.170Z</time>
      </trkpt>
      <trkpt lat="44.9262" lon="6.85572">
        <ele>2290</ele>
        <time>2014-07-31T13:47:53.260Z</time>
      </trkpt>
      <trkpt lat="44.92618" lon="6.85572">
        <ele>2290</ele>
        <time>2014-07-31T13:47:55.270Z</time>
      </trkpt>
      <trkpt lat="44.92617" lon="6.85572">
        <ele>2290</ele>
        <time>2014-07-31T13:47:57.270Z</time>
      </trkpt>
      <trkpt lat="44.92616" lon="6.85571">
        <ele>2290</ele>
        <time>2014-07-31T13:47:59.270Z</time>
      </trkpt>
      <trkpt lat="44.92614" lon="6.8557">
        <ele>2290</ele>
        <time>2014-07-31T13:48:01.170Z</time>
      </trkpt>
      <trkpt lat="44.92612" lon="6.85571">
        <ele>2290</ele>
        <time>2014-07-31T13:48:03.170Z</time>
      </trkpt>
      <trkpt lat="44.9261" lon="6.85572">
        <ele>2290</ele>
        <time>2014-07-31T13:48:04.250Z</time>
      </trkpt>
      <trkpt lat="44.92608" lon="6.85573">
        <ele>2292</ele>
        <time>2014-07-31T13:48:06.270Z</time>
      </trkpt>
      <trkpt lat="44.92607" lon="6.85572">
        <ele>2292</ele>
        <time>2014-07-31T13:48:08.170Z</time>
      </trkpt>
      <trkpt lat="44.92605" lon="6.85573">
        <ele>2292</ele>
        <time>2014-07-31T13:48:10.270Z</time>
      </trkpt>
      <trkpt lat="44.92601" lon="6.85575">
        <ele>2292</ele>
        <time>2014-07-31T13:48:12.170Z</time>
      </trkpt>
      <trkpt lat="44.926" lon="6.85574">
        <ele>2292</ele>
        <time>2014-07-31T13:48:14.270Z</time>
      </trkpt>
      <trkpt lat="44.92599" lon="6.85573">
        <ele>2294</ele>
        <time>2014-07-31T13:48:16.170Z</time>
      </trkpt>
      <trkpt lat="44.92598" lon="6.85571">
        <ele>2294</ele>
        <time>2014-07-31T13:48:18.270Z</time>
      </trkpt>
      <trkpt lat="44.92597" lon="6.85569">
        <ele>2294</ele>
        <time>2014-07-31T13:48:20.170Z</time>
      </trkpt>
      <trkpt lat="44.92596" lon="6.85568">
        <ele>2294</ele>
        <time>2014-07-31T13:48:22.170Z</time>
      </trkpt>
      <trkpt lat="44.92595" lon="6.85569">
        <ele>2294</ele>
        <time>2014-07-31T13:48:23.270Z</time>
      </trkpt>
      <trkpt lat="44.92594" lon="6.85568">
        <ele>2295.2</ele>
        <time>2014-07-31T13:48:25.170Z</time>
      </trkpt>
      <trkpt lat="44.92593" lon="6.85567">
        <ele>2296</ele>
        <time>2014-07-31T13:48:27.270Z</time>
      </trkpt>
      <trkpt lat="44.92592" lon="6.85566">
        <ele>2296</ele>
        <time>2014-07-31T13:48:29.190Z</time>
      </trkpt>
      <trkpt lat="44.92591" lon="6.85565">
        <ele>2296</ele>
        <time>2014-07-31T13:48:31.270Z</time>
      </trkpt>
      <trkpt lat="44.9259" lon="6.85565">
        <ele>2296</ele>
        <time>2014-07-31T13:48:33.170Z</time>
      </trkpt>
      <trkpt lat="44.92589" lon="6.85565">
        <ele>2296.7</ele>
        <time>2014-07-31T13:48:35.270Z</time>
      </trkpt>
      <trkpt lat="44.92587" lon="6.85563">
        <ele>2297</ele>
        <time>2014-07-31T13:48:37.270Z</time>
      </trkpt>
      <trkpt lat="44.92586" lon="6.85563">
        <ele>2297</ele>
        <time>2014-07-31T13:48:39.170Z</time>
      </trkpt>
      <trkpt lat="44.92585" lon="6.85561">
        <ele>2297</ele>
        <time>2014-07-31T13:48:41.170Z</time>
      </trkpt>
      <trkpt lat="44.92583" lon="6.8556">
        <ele>2297</ele>
        <time>2014-07-31T13:48:44.170Z</time>
      </trkpt>
      <trkpt lat="44.92582" lon="6.85559">
        <ele>2300</ele>
        <time>2014-07-31T13:48:46.170Z</time>
      </trkpt>
      <trkpt lat="44.92581" lon="6.85559">
        <ele>2300</ele>
        <time>2014-07-31T13:48:49.170Z</time>
      </trkpt>
      <trkpt lat="44.92579" lon="6.85559">
        <ele>2301</ele>
        <time>2014-07-31T13:48:51.230Z</time>
      </trkpt>
      <trkpt lat="44.92578" lon="6.85559">
        <ele>2301</ele>
        <time>2014-07-31T13:48:53.170Z</time>
      </trkpt>
      <trkpt lat="44.92577" lon="6.85558">
        <ele>2301.7</ele>
        <time>2014-07-31T13:48:55.250Z</time>
      </trkpt>
      <trkpt lat="44.92575" lon="6.85558">
        <ele>2302</ele>
        <time>2014-07-31T13:48:59.170Z</time>
      </trkpt>
      <trkpt lat="44.92575" lon="6.85558">
        <ele>2302</ele>
        <time>2014-07-31T13:49:01.270Z</time>
      </trkpt>
      <trkpt lat="44.92573" lon="6.85558">
        <ele>2302</ele>
        <time>2014-07-31T13:49:03.170Z</time>
      </trkpt>
      <trkpt lat="44.92572" lon="6.85558">
        <ele>2303.4</ele>
        <time>2014-07-31T13:49:05.270Z</time>
      </trkpt>
      <trkpt lat="44.92571" lon="6.85557">
        <ele>2304</ele>
        <time>2014-07-31T13:49:07.270Z</time>
      </trkpt>
      <trkpt lat="44.9257" lon="6.85557">
        <ele>2304</ele>
        <time>2014-07-31T13:49:09.270Z</time>
      </trkpt>
      <trkpt lat="44.92569" lon="6.85556">
        <ele>2304</ele>
        <time>2014-07-31T13:49:11.270Z</time>
      </trkpt>
      <trkpt lat="44.92567" lon="6.85556">
        <ele>2304</ele>
        <time>2014-07-31T13:49:13.170Z</time>
      </trkpt>
      <trkpt lat="44.92566" lon="6.85555">
        <ele>2305.4</ele>
        <time>2014-07-31T13:49:15.270Z</time>
      </trkpt>
      <trkpt lat="44.92563" lon="6.85555">
        <ele>2306</ele>
        <time>2014-07-31T13:49:18.270Z</time>
      </trkpt>
      <trkpt lat="44.92562" lon="6.85554">
        <ele>2306</ele>
        <time>2014-07-31T13:49:20.270Z</time>
      </trkpt>
      <trkpt lat="44.9256" lon="6.85554">
        <ele>2306</ele>
        <time>2014-07-31T13:49:22.270Z</time>
      </trkpt>
      <trkpt lat="44.92559" lon="6.85554">
        <ele>2306</ele>
        <time>2014-07-31T13:49:24.270Z</time>
      </trkpt>
      <trkpt lat="44.92557" lon="6.85553">
        <ele>2307</ele>
        <time>2014-07-31T13:49:26.270Z</time>
      </trkpt>
      <trkpt lat="44.92555" lon="6.85553">
        <ele>2307</ele>
        <time>2014-07-31T13:49:28.270Z</time>
      </trkpt>
      <trkpt lat="44.92554" lon="6.85553">
        <ele>2307</ele>
        <time>2014-07-31T13:49:30.270Z</time>
      </trkpt>
      <trkpt lat="44.92552" lon="6.85552">
        <ele>2307</ele>
        <time>2014-07-31T13:49:32.170Z</time>
      </trkpt>
      <trkpt lat="44.92551" lon="6.85552">
        <ele>2307</ele>
        <time>2014-07-31T13:49:33.270Z</time>
      </trkpt>
      <trkpt lat="44.92549" lon="6.85551">
        <ele>2307</ele>
        <time>2014-07-31T13:49:35.170Z</time>
      </trkpt>
      <trkpt lat="44.92547" lon="6.85551">
        <ele>2307</ele>
        <time>2014-07-31T13:49:37.270Z</time>
      </trkpt>
      <trkpt lat="44.92545" lon="6.8555">
        <ele>2307</ele>
        <time>2014-07-31T13:49:39.170Z</time>
      </trkpt>
      <trkpt lat="44.92544" lon="6.8555">
        <ele>2307</ele>
        <time>2014-07-31T13:49:41.380Z</time>
      </trkpt>
      <trkpt lat="44.92542" lon="6.8555">
        <ele>2307</ele>
        <time>2014-07-31T13:49:43.170Z</time>
      </trkpt>
      <trkpt lat="44.92541" lon="6.85549">
        <ele>2307.7</ele>
        <time>2014-07-31T13:49:45.270Z</time>
      </trkpt>
      <trkpt lat="44.9254" lon="6.85551">
        <ele>2308</ele>
        <time>2014-07-31T13:49:47.270Z</time>
      </trkpt>
      <trkpt lat="44.92539" lon="6.85549">
        <ele>2308</ele>
        <time>2014-07-31T13:49:49.270Z</time>
      </trkpt>
      <trkpt lat="44.92537" lon="6.85548">
        <ele>2308</ele>
        <time>2014-07-31T13:49:51.150Z</time>
      </trkpt>
      <trkpt lat="44.92536" lon="6.85547">
        <ele>2308</ele>
        <time>2014-07-31T13:49:53.270Z</time>
      </trkpt>
      <trkpt lat="44.92535" lon="6.85547">
        <ele>2309.4</ele>
        <time>2014-07-31T13:49:55.270Z</time>
      </trkpt>
      <trkpt lat="44.92533" lon="6.85545">
        <ele>2310</ele>
        <time>2014-07-31T13:49:57.150Z</time>
      </trkpt>
      <trkpt lat="44.92531" lon="6.85544">
        <ele>2310</ele>
        <time>2014-07-31T13:49:59.170Z</time>
      </trkpt>
      <trkpt lat="44.9253" lon="6.85543">
        <ele>2310</ele>
        <time>2014-07-31T13:50:01.170Z</time>
      </trkpt>
      <trkpt lat="44.92528" lon="6.85543">
        <ele>2310</ele>
        <time>2014-07-31T13:50:04.170Z</time>
      </trkpt>
      <trkpt lat="44.92526" lon="6.85543">
        <ele>2313</ele>
        <time>2014-07-31T13:50:06.170Z</time>
      </trkpt>
      <trkpt lat="44.92525" lon="6.85543">
        <ele>2313</ele>
        <time>2014-07-31T13:50:07.270Z</time>
      </trkpt>
      <trkpt lat="44.92524" lon="6.85543">
        <ele>2313</ele>
        <time>2014-07-31T13:50:09.170Z</time>
      </trkpt>
      <trkpt lat="44.92522" lon="6.85543">
        <ele>2313</ele>
        <time>2014-07-31T13:50:11.270Z</time>
      </trkpt>
      <trkpt lat="44.9252" lon="6.85544">
        <ele>2313</ele>
        <time>2014-07-31T13:50:13.170Z</time>
      </trkpt>
      <trkpt lat="44.92518" lon="6.85543">
        <ele>2314.2</ele>
        <time>2014-07-31T13:50:15.170Z</time>
      </trkpt>
      <trkpt lat="44.92517" lon="6.85543">
        <ele>2315</ele>
        <time>2014-07-31T13:50:16.270Z</time>
      </trkpt>
      <trkpt lat="44.92516" lon="6.85542">
        <ele>2315</ele>
        <time>2014-07-31T13:50:18.270Z</time>
      </trkpt>
      <trkpt lat="44.92515" lon="6.85541">
        <ele>2315</ele>
        <time>2014-07-31T13:50:20.170Z</time>
      </trkpt>
      <trkpt lat="44.92514" lon="6.8554">
        <ele>2315</ele>
        <time>2014-07-31T13:50:22.170Z</time>
      </trkpt>
      <trkpt lat="44.92512" lon="6.85538">
        <ele>2315.7</ele>
        <time>2014-07-31T13:50:25.230Z</time>
      </trkpt>
      <trkpt lat="44.92511" lon="6.85536">
        <ele>2316</ele>
        <time>2014-07-31T13:50:27.270Z</time>
      </trkpt>
      <trkpt lat="44.92509" lon="6.85535">
        <ele>2316</ele>
        <time>2014-07-31T13:50:29.270Z</time>
      </trkpt>
      <trkpt lat="44.92508" lon="6.85533">
        <ele>2316</ele>
        <time>2014-07-31T13:50:31.270Z</time>
      </trkpt>
      <trkpt lat="44.92507" lon="6.85531">
        <ele>2316</ele>
        <time>2014-07-31T13:50:33.260Z</time>
      </trkpt>
      <trkpt lat="44.92506" lon="6.8553">
        <ele>2316</ele>
        <time>2014-07-31T13:50:34.230Z</time>
      </trkpt>
      <trkpt lat="44.92504" lon="6.85527">
        <ele>2316</ele>
        <time>2014-07-31T13:50:36.270Z</time>
      </trkpt>
      <trkpt lat="44.92502" lon="6.85526">
        <ele>2316</ele>
        <time>2014-07-31T13:50:38.270Z</time>
      </trkpt>
      <trkpt lat="44.92501" lon="6.85524">
        <ele>2316</ele>
        <time>2014-07-31T13:50:40.270Z</time>
      </trkpt>
      <trkpt lat="44.92499" lon="6.85519">
        <ele>2316</ele>
        <time>2014-07-31T13:50:42.130Z</time>
      </trkpt>
      <trkpt lat="44.92497" lon="6.85516">
        <ele>2316</ele>
        <time>2014-07-31T13:50:43.270Z</time>
      </trkpt>
      <trkpt lat="44.92494" lon="6.85511">
        <ele>2316</ele>
        <time>2014-07-31T13:50:45.270Z</time>
      </trkpt>
      <trkpt lat="44.92491" lon="6.85506">
        <ele>2316</ele>
        <time>2014-07-31T13:50:47.270Z</time>
      </trkpt>
      <trkpt lat="44.92487" lon="6.855">
        <ele>2316</ele>
        <time>2014-07-31T13:50:49.170Z</time>
      </trkpt>
      <trkpt lat="44.92486" lon="6.85497">
        <ele>2316</ele>
        <time>2014-07-31T13:50:50.270Z</time>
      </trkpt>
      <trkpt lat="44.92483" lon="6.85492">
        <ele>2316</ele>
        <time>2014-07-31T13:50:52.170Z</time>
      </trkpt>
      <trkpt lat="44.92481" lon="6.85491">
        <ele>2316</ele>
        <time>2014-07-31T13:50:53.270Z</time>
      </trkpt>
      <trkpt lat="44.92479" lon="6.85486">
        <ele>2316</ele>
        <time>2014-07-31T13:50:55.170Z</time>
      </trkpt>
      <trkpt lat="44.92476" lon="6.85483">
        <ele>2316</ele>
        <time>2014-07-31T13:50:57.170Z</time>
      </trkpt>
      <trkpt lat="44.92472" lon="6.85479">
        <ele>2316</ele>
        <time>2014-07-31T13:50:59.070Z</time>
      </trkpt>
      <trkpt lat="44.9247" lon="6.85477">
        <ele>2316</ele>
        <time>2014-07-31T13:51:00.230Z</time>
      </trkpt>
      <trkpt lat="44.92468" lon="6.85474">
        <ele>2316</ele>
        <time>2014-07-31T13:51:02.170Z</time>
      </trkpt>
      <trkpt lat="44.92466" lon="6.85473">
        <ele>2316</ele>
        <time>2014-07-31T13:51:03.270Z</time>
      </trkpt>
      <trkpt lat="44.92462" lon="6.85471">
        <ele>2316</ele>
        <time>2014-07-31T13:51:05.270Z</time>
      </trkpt>
      <trkpt lat="44.92458" lon="6.85467">
        <ele>2316</ele>
        <time>2014-07-31T13:51:07.170Z</time>
      </trkpt>
      <trkpt lat="44.92457" lon="6.85464">
        <ele>2316</ele>
        <time>2014-07-31T13:51:08.270Z</time>
      </trkpt>
      <trkpt lat="44.92454" lon="6.8546">
        <ele>2316</ele>
        <time>2014-07-31T13:51:10.150Z</time>
      </trkpt>
      <trkpt lat="44.92452" lon="6.85457">
        <ele>2316</ele>
        <time>2014-07-31T13:51:12.280Z</time>
      </trkpt>
      <trkpt lat="44.92451" lon="6.85456">
        <ele>2316</ele>
        <time>2014-07-31T13:51:13.270Z</time>
      </trkpt>
      <trkpt lat="44.92448" lon="6.85454">
        <ele>2315.4</ele>
        <time>2014-07-31T13:51:15.170Z</time>
      </trkpt>
      <trkpt lat="44.92446" lon="6.85453">
        <ele>2315</ele>
        <time>2014-07-31T13:51:16.230Z</time>
      </trkpt>
      <trkpt lat="44.92444" lon="6.85451">
        <ele>2315</ele>
        <time>2014-07-31T13:51:18.270Z</time>
      </trkpt>
      <trkpt lat="44.92443" lon="6.85448">
        <ele>2315</ele>
        <time>2014-07-31T13:51:20.270Z</time>
      </trkpt>
      <trkpt lat="44.92444" lon="6.85446">
        <ele>2315</ele>
        <time>2014-07-31T13:51:22.150Z</time>
      </trkpt>
      <trkpt lat="44.92447" lon="6.85447">
        <ele>2315</ele>
        <time>2014-07-31T13:51:24.170Z</time>
      </trkpt>
      <trkpt lat="44.92449" lon="6.85448">
        <ele>2314.4</ele>
        <time>2014-07-31T13:51:25.170Z</time>
      </trkpt>
      <trkpt lat="44.92449" lon="6.8545">
        <ele>2314</ele>
        <time>2014-07-31T13:51:27.270Z</time>
      </trkpt>
      <trkpt lat="44.92449" lon="6.8545">
        <ele>2313</ele>
        <time>2014-07-31T13:51:52.380Z</time>
      </trkpt>
      <trkpt lat="44.92448" lon="6.85451">
        <ele>2313</ele>
        <time>2014-07-31T13:52:01.170Z</time>
      </trkpt>
      <trkpt lat="44.9245" lon="6.8545">
        <ele>2313</ele>
        <time>2014-07-31T13:52:05.170Z</time>
      </trkpt>
      <trkpt lat="44.92454" lon="6.85451">
        <ele>2313</ele>
        <time>2014-07-31T13:52:07.230Z</time>
      </trkpt>
      <trkpt lat="44.92461" lon="6.85449">
        <ele>2313</ele>
        <time>2014-07-31T13:52:09.170Z</time>
      </trkpt>
      <trkpt lat="44.92471" lon="6.85445">
        <ele>2313</ele>
        <time>2014-07-31T13:52:11.170Z</time>
      </trkpt>
      <trkpt lat="44.92474" lon="6.85437">
        <ele>2313</ele>
        <time>2014-07-31T13:52:13.270Z</time>
      </trkpt>
      <trkpt lat="44.92468" lon="6.85422">
        <ele>2310.2</ele>
        <time>2014-07-31T13:52:15.270Z</time>
      </trkpt>
      <trkpt lat="44.92462" lon="6.85404">
        <ele>2309</ele>
        <time>2014-07-31T13:52:17.130Z</time>
      </trkpt>
      <trkpt lat="44.92459" lon="6.85395">
        <ele>2309</ele>
        <time>2014-07-31T13:52:18.270Z</time>
      </trkpt>
      <trkpt lat="44.92451" lon="6.85374">
        <ele>2303.4</ele>
        <time>2014-07-31T13:52:20.270Z</time>
      </trkpt>
      <trkpt lat="44.92443" lon="6.85356">
        <ele>2301</ele>
        <time>2014-07-31T13:52:22.170Z</time>
      </trkpt>
      <trkpt lat="44.92439" lon="6.85349">
        <ele>2301</ele>
        <time>2014-07-31T13:52:23.270Z</time>
      </trkpt>
      <trkpt lat="44.92432" lon="6.85339">
        <ele>2296.2</ele>
        <time>2014-07-31T13:52:25.170Z</time>
      </trkpt>
      <trkpt lat="44.92432" lon="6.85336">
        <ele>2290.9</ele>
        <time>2014-07-31T13:52:26.270Z</time>
      </trkpt>
      <trkpt lat="44.92432" lon="6.85333">
        <ele>2290</ele>
        <time>2014-07-31T13:52:28.270Z</time>
      </trkpt>
      <trkpt lat="44.92431" lon="6.85332">
        <ele>2290</ele>
        <time>2014-07-31T13:52:30.170Z</time>
      </trkpt>
      <trkpt lat="44.92431" lon="6.85333">
        <ele>2290</ele>
        <time>2014-07-31T13:52:33.270Z</time>
      </trkpt>
      <trkpt lat="44.92431" lon="6.8533">
        <ele>2290</ele>
        <time>2014-07-31T13:52:42.170Z</time>
      </trkpt>
      <trkpt lat="44.92432" lon="6.85329">
        <ele>2290</ele>
        <time>2014-07-31T13:52:43.270Z</time>
      </trkpt>
      <trkpt lat="44.92434" lon="6.8533">
        <ele>2290</ele>
        <time>2014-07-31T13:52:45.170Z</time>
      </trkpt>
      <trkpt lat="44.92435" lon="6.85331">
        <ele>2290</ele>
        <time>2014-07-31T13:52:50.270Z</time>
      </trkpt>
      <trkpt lat="44.92437" lon="6.85332">
        <ele>2290</ele>
        <time>2014-07-31T13:52:52.270Z</time>
      </trkpt>
      <trkpt lat="44.9244" lon="6.85332">
        <ele>2290</ele>
        <time>2014-07-31T13:52:54.250Z</time>
      </trkpt>
      <trkpt lat="44.92448" lon="6.85329">
        <ele>2289</ele>
        <time>2014-07-31T13:52:56.270Z</time>
      </trkpt>
      <trkpt lat="44.9246" lon="6.85325">
        <ele>2289</ele>
        <time>2014-07-31T13:52:58.170Z</time>
      </trkpt>
      <trkpt lat="44.92473" lon="6.85321">
        <ele>2289</ele>
        <time>2014-07-31T13:53:00.130Z</time>
      </trkpt>
      <trkpt lat="44.92478" lon="6.85314">
        <ele>2289</ele>
        <time>2014-07-31T13:53:02.170Z</time>
      </trkpt>
      <trkpt lat="44.92474" lon="6.85308">
        <ele>2289</ele>
        <time>2014-07-31T13:53:03.270Z</time>
      </trkpt>
      <trkpt lat="44.92465" lon="6.85289">
        <ele>2283.4</ele>
        <time>2014-07-31T13:53:05.270Z</time>
      </trkpt>
      <trkpt lat="44.92456" lon="6.8527">
        <ele>2275.3</ele>
        <time>2014-07-31T13:53:07.280Z</time>
      </trkpt>
      <trkpt lat="44.92451" lon="6.85262">
        <ele>2272.9</ele>
        <time>2014-07-31T13:53:08.270Z</time>
      </trkpt>
      <trkpt lat="44.9244" lon="6.8525">
        <ele>2271</ele>
        <time>2014-07-31T13:53:10.270Z</time>
      </trkpt>
      <trkpt lat="44.92431" lon="6.85234">
        <ele>2269</ele>
        <time>2014-07-31T13:53:12.270Z</time>
      </trkpt>
      <trkpt lat="44.9242" lon="6.85216">
        <ele>2266.2</ele>
        <time>2014-07-31T13:53:14.170Z</time>
      </trkpt>
      <trkpt lat="44.92413" lon="6.85208">
        <ele>2264.3</ele>
        <time>2014-07-31T13:53:15.230Z</time>
      </trkpt>
      <trkpt lat="44.924" lon="6.8519">
        <ele>2261.9</ele>
        <time>2014-07-31T13:53:17.130Z</time>
      </trkpt>
      <trkpt lat="44.92395" lon="6.85183">
        <ele>2260.3</ele>
        <time>2014-07-31T13:53:18.250Z</time>
      </trkpt>
      <trkpt lat="44.92386" lon="6.85173">
        <ele>2257.6</ele>
        <time>2014-07-31T13:53:20.270Z</time>
      </trkpt>
      <trkpt lat="44.92388" lon="6.85166">
        <ele>2256</ele>
        <time>2014-07-31T13:53:22.270Z</time>
      </trkpt>
      <trkpt lat="44.92397" lon="6.85159">
        <ele>2254.4</ele>
        <time>2014-07-31T13:53:24.170Z</time>
      </trkpt>
      <trkpt lat="44.92404" lon="6.85153">
        <ele>2250.8</ele>
        <time>2014-07-31T13:53:26.170Z</time>
      </trkpt>
      <trkpt lat="44.92399" lon="6.85144">
        <ele>2249</ele>
        <time>2014-07-31T13:53:28.270Z</time>
      </trkpt>
      <trkpt lat="44.9239" lon="6.85133">
        <ele>2248.4</ele>
        <time>2014-07-31T13:53:30.150Z</time>
      </trkpt>
      <trkpt lat="44.92385" lon="6.85121">
        <ele>2244.3</ele>
        <time>2014-07-31T13:53:32.230Z</time>
      </trkpt>
      <trkpt lat="44.92387" lon="6.85115">
        <ele>2243.3</ele>
        <time>2014-07-31T13:53:34.230Z</time>
      </trkpt>
      <trkpt lat="44.92391" lon="6.85117">
        <ele>2242.3</ele>
        <time>2014-07-31T13:53:35.270Z</time>
      </trkpt>
      <trkpt lat="44.92402" lon="6.85114">
        <ele>2240.3</ele>
        <time>2014-07-31T13:53:37.270Z</time>
      </trkpt>
      <trkpt lat="44.92415" lon="6.85109">
        <ele>2237.8</ele>
        <time>2014-07-31T13:53:39.170Z</time>
      </trkpt>
      <trkpt lat="44.92424" lon="6.85105">
        <ele>2233.4</ele>
        <time>2014-07-31T13:53:41.170Z</time>
      </trkpt>
      <trkpt lat="44.92428" lon="6.85105">
        <ele>2233</ele>
        <time>2014-07-31T13:53:42.250Z</time>
      </trkpt>
      <trkpt lat="44.92429" lon="6.85101">
        <ele>2231.4</ele>
        <time>2014-07-31T13:53:44.170Z</time>
      </trkpt>
      <trkpt lat="44.92423" lon="6.85093">
        <ele>2231.4</ele>
        <time>2014-07-31T13:53:46.170Z</time>
      </trkpt>
      <trkpt lat="44.92416" lon="6.85077">
        <ele>2229.3</ele>
        <time>2014-07-31T13:53:48.270Z</time>
      </trkpt>
      <trkpt lat="44.92409" lon="6.85067">
        <ele>2226.4</ele>
        <time>2014-07-31T13:53:50.170Z</time>
      </trkpt>
      <trkpt lat="44.92413" lon="6.85061">
        <ele>2224.4</ele>
        <time>2014-07-31T13:53:52.170Z</time>
      </trkpt>
      <trkpt lat="44.92417" lon="6.85059">
        <ele>2223.3</ele>
        <time>2014-07-31T13:53:53.270Z</time>
      </trkpt>
      <trkpt lat="44.9243" lon="6.85061">
        <ele>2222.4</ele>
        <time>2014-07-31T13:53:55.170Z</time>
      </trkpt>
      <trkpt lat="44.92439" lon="6.85061">
        <ele>2218.4</ele>
        <time>2014-07-31T13:53:57.170Z</time>
      </trkpt>
      <trkpt lat="44.92442" lon="6.85061">
        <ele>2217.3</ele>
        <time>2014-07-31T13:53:58.270Z</time>
      </trkpt>
      <trkpt lat="44.92443" lon="6.85057">
        <ele>2216</ele>
        <time>2014-07-31T13:54:00.130Z</time>
      </trkpt>
      <trkpt lat="44.92438" lon="6.85049">
        <ele>2214.4</ele>
        <time>2014-07-31T13:54:02.170Z</time>
      </trkpt>
      <trkpt lat="44.92434" lon="6.85045">
        <ele>2211.9</ele>
        <time>2014-07-31T13:54:03.270Z</time>
      </trkpt>
      <trkpt lat="44.92428" lon="6.85038">
        <ele>2209.4</ele>
        <time>2014-07-31T13:54:05.170Z</time>
      </trkpt>
      <trkpt lat="44.92423" lon="6.85033">
        <ele>2208.3</ele>
        <time>2014-07-31T13:54:06.230Z</time>
      </trkpt>
      <trkpt lat="44.92413" lon="6.85024">
        <ele>2205.8</ele>
        <time>2014-07-31T13:54:08.170Z</time>
      </trkpt>
      <trkpt lat="44.92401" lon="6.85016">
        <ele>2203.4</ele>
        <time>2014-07-31T13:54:10.170Z</time>
      </trkpt>
      <trkpt lat="44.9239" lon="6.85003">
        <ele>2199.4</ele>
        <time>2014-07-31T13:54:12.170Z</time>
      </trkpt>
      <trkpt lat="44.92384" lon="6.85001">
        <ele>2198.3</ele>
        <time>2014-07-31T13:54:13.270Z</time>
      </trkpt>
      <trkpt lat="44.92373" lon="6.85003">
        <ele>2194.6</ele>
        <time>2014-07-31T13:54:15.270Z</time>
      </trkpt>
      <trkpt lat="44.9236" lon="6.84999">
        <ele>2190.7</ele>
        <time>2014-07-31T13:54:17.230Z</time>
      </trkpt>
      <trkpt lat="44.92345" lon="6.84994">
        <ele>2188.4</ele>
        <time>2014-07-31T13:54:19.170Z</time>
      </trkpt>
      <trkpt lat="44.92331" lon="6.8499">
        <ele>2185.4</ele>
        <time>2014-07-31T13:54:21.170Z</time>
      </trkpt>
      <trkpt lat="44.92326" lon="6.8499">
        <ele>2184.3</ele>
        <time>2014-07-31T13:54:22.270Z</time>
      </trkpt>
      <trkpt lat="44.92321" lon="6.84997">
        <ele>2183.3</ele>
        <time>2014-07-31T13:54:24.270Z</time>
      </trkpt>
      <trkpt lat="44.92312" lon="6.84999">
        <ele>2182</ele>
        <time>2014-07-31T13:54:26.170Z</time>
      </trkpt>
      <trkpt lat="44.92307" lon="6.85">
        <ele>2180.6</ele>
        <time>2014-07-31T13:54:27.250Z</time>
      </trkpt>
      <trkpt lat="44.92298" lon="6.84998">
        <ele>2178.4</ele>
        <time>2014-07-31T13:54:29.170Z</time>
      </trkpt>
      <trkpt lat="44.92285" lon="6.85001">
        <ele>2176.3</ele>
        <time>2014-07-31T13:54:31.270Z</time>
      </trkpt>
      <trkpt lat="44.92271" lon="6.85006">
        <ele>2174.6</ele>
        <time>2014-07-31T13:54:33.270Z</time>
      </trkpt>
      <trkpt lat="44.92263" lon="6.85007">
        <ele>2172.4</ele>
        <time>2014-07-31T13:54:35.170Z</time>
      </trkpt>
      <trkpt lat="44.92259" lon="6.85006">
        <ele>2171.4</ele>
        <time>2014-07-31T13:54:37.170Z</time>
      </trkpt>
      <trkpt lat="44.92258" lon="6.85004">
        <ele>2171</ele>
        <time>2014-07-31T13:54:38.380Z</time>
      </trkpt>
      <trkpt lat="44.92256" lon="6.85002">
        <ele>2170.3</ele>
        <time>2014-07-31T13:54:40.230Z</time>
      </trkpt>
      <trkpt lat="44.92256" lon="6.85">
        <ele>2170</ele>
        <time>2014-07-31T13:54:42.270Z</time>
      </trkpt>
      <trkpt lat="44.92258" lon="6.84996">
        <ele>2168</ele>
        <time>2014-07-31T13:54:44.170Z</time>
      </trkpt>
      <trkpt lat="44.92264" lon="6.84988">
        <ele>2168</ele>
        <time>2014-07-31T13:54:46.170Z</time>
      </trkpt>
      <trkpt lat="44.92269" lon="6.84977">
        <ele>2168</ele>
        <time>2014-07-31T13:54:48.270Z</time>
      </trkpt>
      <trkpt lat="44.92264" lon="6.8497">
        <ele>2166.2</ele>
        <time>2014-07-31T13:54:50.170Z</time>
      </trkpt>
      <trkpt lat="44.9226" lon="6.84968">
        <ele>2165</ele>
        <time>2014-07-31T13:54:51.170Z</time>
      </trkpt>
      <trkpt lat="44.92255" lon="6.84965">
        <ele>2165</ele>
        <time>2014-07-31T13:54:52.270Z</time>
      </trkpt>
      <trkpt lat="44.92244" lon="6.84954">
        <ele>2165</ele>
        <time>2014-07-31T13:54:54.170Z</time>
      </trkpt>
      <trkpt lat="44.92233" lon="6.84943">
        <ele>2158.2</ele>
        <time>2014-07-31T13:54:56.170Z</time>
      </trkpt>
      <trkpt lat="44.92229" lon="6.84936">
        <ele>2155.7</ele>
        <time>2014-07-31T13:54:57.230Z</time>
      </trkpt>
      <trkpt lat="44.92228" lon="6.84919">
        <ele>2152.3</ele>
        <time>2014-07-31T13:54:59.270Z</time>
      </trkpt>
      <trkpt lat="44.92227" lon="6.84903">
        <ele>2151.3</ele>
        <time>2014-07-31T13:55:01.270Z</time>
      </trkpt>
      <trkpt lat="44.92234" lon="6.84883">
        <ele>2148.6</ele>
        <time>2014-07-31T13:55:03.270Z</time>
      </trkpt>
      <trkpt lat="44.92241" lon="6.84863">
        <ele>2145.4</ele>
        <time>2014-07-31T13:55:05.170Z</time>
      </trkpt>
      <trkpt lat="44.92239" lon="6.84846">
        <ele>2141.3</ele>
        <time>2014-07-31T13:55:07.270Z</time>
      </trkpt>
      <trkpt lat="44.92226" lon="6.84839">
        <ele>2138.4</ele>
        <time>2014-07-31T13:55:09.170Z</time>
      </trkpt>
      <trkpt lat="44.92219" lon="6.84836">
        <ele>2137.3</ele>
        <time>2014-07-31T13:55:10.270Z</time>
      </trkpt>
      <trkpt lat="44.92205" lon="6.84829">
        <ele>2135.3</ele>
        <time>2014-07-31T13:55:12.270Z</time>
      </trkpt>
      <trkpt lat="44.9219" lon="6.84824">
        <ele>2132.5</ele>
        <time>2014-07-31T13:55:14.100Z</time>
      </trkpt>
      <trkpt lat="44.92183" lon="6.84823">
        <ele>2131.3</ele>
        <time>2014-07-31T13:55:15.270Z</time>
      </trkpt>
      <trkpt lat="44.9217" lon="6.84827">
        <ele>2127.3</ele>
        <time>2014-07-31T13:55:17.230Z</time>
      </trkpt>
      <trkpt lat="44.92154" lon="6.84829">
        <ele>2125.4</ele>
        <time>2014-07-31T13:55:19.170Z</time>
      </trkpt>
      <trkpt lat="44.92147" lon="6.84828">
        <ele>2125</ele>
        <time>2014-07-31T13:55:20.270Z</time>
      </trkpt>
      <trkpt lat="44.92132" lon="6.84824">
        <ele>2122.3</ele>
        <time>2014-07-31T13:55:22.270Z</time>
      </trkpt>
      <trkpt lat="44.92119" lon="6.84825">
        <ele>2120.4</ele>
        <time>2014-07-31T13:55:24.170Z</time>
      </trkpt>
      <trkpt lat="44.92114" lon="6.84828">
        <ele>2119.3</ele>
        <time>2014-07-31T13:55:25.250Z</time>
      </trkpt>
      <trkpt lat="44.92104" lon="6.84833">
        <ele>2114.6</ele>
        <time>2014-07-31T13:55:27.270Z</time>
      </trkpt>
      <trkpt lat="44.92088" lon="6.84845">
        <ele>2112.6</ele>
        <time>2014-07-31T13:55:29.270Z</time>
      </trkpt>
      <trkpt lat="44.92067" lon="6.84845">
        <ele>2109.3</ele>
        <time>2014-07-31T13:55:31.230Z</time>
      </trkpt>
      <trkpt lat="44.92055" lon="6.8484">
        <ele>2106.3</ele>
        <time>2014-07-31T13:55:33.270Z</time>
      </trkpt>
      <trkpt lat="44.92051" lon="6.84818">
        <ele>2104.3</ele>
        <time>2014-07-31T13:55:35.270Z</time>
      </trkpt>
      <trkpt lat="44.92045" lon="6.84796">
        <ele>2102.3</ele>
        <time>2014-07-31T13:55:37.250Z</time>
      </trkpt>
      <trkpt lat="44.92036" lon="6.84776">
        <ele>2098.6</ele>
        <time>2014-07-31T13:55:39.270Z</time>
      </trkpt>
      <trkpt lat="44.92027" lon="6.84758">
        <ele>2095.3</ele>
        <time>2014-07-31T13:55:41.270Z</time>
      </trkpt>
      <trkpt lat="44.92018" lon="6.84747">
        <ele>2092.6</ele>
        <time>2014-07-31T13:55:43.270Z</time>
      </trkpt>
      <trkpt lat="44.92013" lon="6.84739">
        <ele>2089.4</ele>
        <time>2014-07-31T13:55:45.170Z</time>
      </trkpt>
      <trkpt lat="44.92014" lon="6.84734">
        <ele>2089</ele>
        <time>2014-07-31T13:55:46.270Z</time>
      </trkpt>
      <trkpt lat="44.92022" lon="6.84723">
        <ele>2087.4</ele>
        <time>2014-07-31T13:55:48.170Z</time>
      </trkpt>
      <trkpt lat="44.9203" lon="6.8471">
        <ele>2087</ele>
        <time>2014-07-31T13:55:50.270Z</time>
      </trkpt>
      <trkpt lat="44.92038" lon="6.84697">
        <ele>2084.3</ele>
        <time>2014-07-31T13:55:52.270Z</time>
      </trkpt>
      <trkpt lat="44.92046" lon="6.84687">
        <ele>2083.3</ele>
        <time>2014-07-31T13:55:54.270Z</time>
      </trkpt>
      <trkpt lat="44.92058" lon="6.84678">
        <ele>2079.9</ele>
        <time>2014-07-31T13:55:56.270Z</time>
      </trkpt>
      <trkpt lat="44.92067" lon="6.84673">
        <ele>2077.3</ele>
        <time>2014-07-31T13:55:58.270Z</time>
      </trkpt>
      <trkpt lat="44.92072" lon="6.84674">
        <ele>2076.4</ele>
        <time>2014-07-31T13:56:00.130Z</time>
      </trkpt>
      <trkpt lat="44.92076" lon="6.84669">
        <ele>2075</ele>
        <time>2014-07-31T13:56:02.270Z</time>
      </trkpt>
      <trkpt lat="44.92081" lon="6.84662">
        <ele>2073.6</ele>
        <time>2014-07-31T13:56:04.270Z</time>
      </trkpt>
      <trkpt lat="44.92088" lon="6.84654">
        <ele>2072</ele>
        <time>2014-07-31T13:56:06.170Z</time>
      </trkpt>
      <trkpt lat="44.92091" lon="6.8465">
        <ele>2071.3</ele>
        <time>2014-07-31T13:56:07.270Z</time>
      </trkpt>
      <trkpt lat="44.92095" lon="6.84642">
        <ele>2071</ele>
        <time>2014-07-31T13:56:09.270Z</time>
      </trkpt>
      <trkpt lat="44.92098" lon="6.84632">
        <ele>2070</ele>
        <time>2014-07-31T13:56:11.270Z</time>
      </trkpt>
      <trkpt lat="44.92099" lon="6.84621">
        <ele>2069</ele>
        <time>2014-07-31T13:56:13.270Z</time>
      </trkpt>
      <trkpt lat="44.921" lon="6.84611">
        <ele>2069</ele>
        <time>2014-07-31T13:56:15.270Z</time>
      </trkpt>
      <trkpt lat="44.92102" lon="6.84603">
        <ele>2069</ele>
        <time>2014-07-31T13:56:17.230Z</time>
      </trkpt>
      <trkpt lat="44.92103" lon="6.84596">
        <ele>2069</ele>
        <time>2014-07-31T13:56:19.270Z</time>
      </trkpt>
      <trkpt lat="44.92106" lon="6.84589">
        <ele>2069</ele>
        <time>2014-07-31T13:56:21.270Z</time>
      </trkpt>
      <trkpt lat="44.92111" lon="6.8458">
        <ele>2069</ele>
        <time>2014-07-31T13:56:23.270Z</time>
      </trkpt>
      <trkpt lat="44.92118" lon="6.84571">
        <ele>2067.6</ele>
        <time>2014-07-31T13:56:25.270Z</time>
      </trkpt>
      <trkpt lat="44.9212" lon="6.8456">
        <ele>2067</ele>
        <time>2014-07-31T13:56:27.270Z</time>
      </trkpt>
      <trkpt lat="44.9212" lon="6.84549">
        <ele>2067</ele>
        <time>2014-07-31T13:56:29.170Z</time>
      </trkpt>
      <trkpt lat="44.9212" lon="6.84543">
        <ele>2067</ele>
        <time>2014-07-31T13:56:30.270Z</time>
      </trkpt>
      <trkpt lat="44.9212" lon="6.8453">
        <ele>2067</ele>
        <time>2014-07-31T13:56:32.170Z</time>
      </trkpt>
      <trkpt lat="44.9212" lon="6.84522">
        <ele>2067</ele>
        <time>2014-07-31T13:56:33.270Z</time>
      </trkpt>
      <trkpt lat="44.9212" lon="6.84515">
        <ele>2067</ele>
        <time>2014-07-31T13:56:34.170Z</time>
      </trkpt>
      <trkpt lat="44.92119" lon="6.84501">
        <ele>2063</ele>
        <time>2014-07-31T13:56:36.270Z</time>
      </trkpt>
      <trkpt lat="44.92124" lon="6.84486">
        <ele>2063</ele>
        <time>2014-07-31T13:56:38.170Z</time>
      </trkpt>
      <trkpt lat="44.92129" lon="6.84478">
        <ele>2063</ele>
        <time>2014-07-31T13:56:39.230Z</time>
      </trkpt>
      <trkpt lat="44.92134" lon="6.8446">
        <ele>2058</ele>
        <time>2014-07-31T13:56:41.270Z</time>
      </trkpt>
      <trkpt lat="44.92138" lon="6.84444">
        <ele>2058</ele>
        <time>2014-07-31T13:56:43.270Z</time>
      </trkpt>
      <trkpt lat="44.9214" lon="6.84428">
        <ele>2054.5</ele>
        <time>2014-07-31T13:56:45.270Z</time>
      </trkpt>
      <trkpt lat="44.92145" lon="6.84414">
        <ele>2050.4</ele>
        <time>2014-07-31T13:56:47.190Z</time>
      </trkpt>
      <trkpt lat="44.92151" lon="6.84397">
        <ele>2048.6</ele>
        <time>2014-07-31T13:56:49.270Z</time>
      </trkpt>
      <trkpt lat="44.9216" lon="6.8438">
        <ele>2045.3</ele>
        <time>2014-07-31T13:56:51.230Z</time>
      </trkpt>
      <trkpt lat="44.92174" lon="6.84366">
        <ele>2042.3</ele>
        <time>2014-07-31T13:56:53.270Z</time>
      </trkpt>
      <trkpt lat="44.92188" lon="6.8435">
        <ele>2040.3</ele>
        <time>2014-07-31T13:56:55.270Z</time>
      </trkpt>
      <trkpt lat="44.922" lon="6.84337">
        <ele>2038.2</ele>
        <time>2014-07-31T13:56:57.170Z</time>
      </trkpt>
      <trkpt lat="44.92206" lon="6.84332">
        <ele>2036.3</ele>
        <time>2014-07-31T13:56:58.270Z</time>
      </trkpt>
      <trkpt lat="44.92217" lon="6.84325">
        <ele>2033</ele>
        <time>2014-07-31T13:57:00.230Z</time>
      </trkpt>
      <trkpt lat="44.92222" lon="6.84319">
        <ele>2031.7</ele>
        <time>2014-07-31T13:57:02.270Z</time>
      </trkpt>
      <trkpt lat="44.92223" lon="6.84314">
        <ele>2030.3</ele>
        <time>2014-07-31T13:57:04.270Z</time>
      </trkpt>
      <trkpt lat="44.92226" lon="6.84308">
        <ele>2029</ele>
        <time>2014-07-31T13:57:06.270Z</time>
      </trkpt>
      <trkpt lat="44.92227" lon="6.84302">
        <ele>2026.3</ele>
        <time>2014-07-31T13:57:08.270Z</time>
      </trkpt>
      <trkpt lat="44.92228" lon="6.84294">
        <ele>2025</ele>
        <time>2014-07-31T13:57:10.170Z</time>
      </trkpt>
      <trkpt lat="44.92228" lon="6.84288">
        <ele>2024.3</ele>
        <time>2014-07-31T13:57:11.270Z</time>
      </trkpt>
      <trkpt lat="44.92231" lon="6.84275">
        <ele>2020.7</ele>
        <time>2014-07-31T13:57:13.230Z</time>
      </trkpt>
      <trkpt lat="44.92233" lon="6.8426">
        <ele>2017.6</ele>
        <time>2014-07-31T13:57:15.270Z</time>
      </trkpt>
      <trkpt lat="44.92236" lon="6.84246">
        <ele>2015.3</ele>
        <time>2014-07-31T13:57:17.230Z</time>
      </trkpt>
      <trkpt lat="44.92241" lon="6.84231">
        <ele>2011.9</ele>
        <time>2014-07-31T13:57:19.270Z</time>
      </trkpt>
      <trkpt lat="44.92244" lon="6.84214">
        <ele>2009.3</ele>
        <time>2014-07-31T13:57:21.270Z</time>
      </trkpt>
      <trkpt lat="44.92246" lon="6.842">
        <ele>2008.3</ele>
        <time>2014-07-31T13:57:23.270Z</time>
      </trkpt>
      <trkpt lat="44.92245" lon="6.8418">
        <ele>2008</ele>
        <time>2014-07-31T13:57:25.270Z</time>
      </trkpt>
      <trkpt lat="44.92244" lon="6.84164">
        <ele>2008</ele>
        <time>2014-07-31T13:57:27.170Z</time>
      </trkpt>
      <trkpt lat="44.92245" lon="6.84159">
        <ele>2007.3</ele>
        <time>2014-07-31T13:57:28.270Z</time>
      </trkpt>
      <trkpt lat="44.92247" lon="6.84147">
        <ele>2006.5</ele>
        <time>2014-07-31T13:57:30.070Z</time>
      </trkpt>
      <trkpt lat="44.92249" lon="6.84139">
        <ele>2005.3</ele>
        <time>2014-07-31T13:57:31.270Z</time>
      </trkpt>
      <trkpt lat="44.92252" lon="6.84117">
        <ele>2003.6</ele>
        <time>2014-07-31T13:57:33.270Z</time>
      </trkpt>
      <trkpt lat="44.92256" lon="6.84098">
        <ele>2000.4</ele>
        <time>2014-07-31T13:57:35.170Z</time>
      </trkpt>
      <trkpt lat="44.92257" lon="6.84089">
        <ele>1999.3</ele>
        <time>2014-07-31T13:57:36.270Z</time>
      </trkpt>
      <trkpt lat="44.92259" lon="6.84077">
        <ele>1997.3</ele>
        <time>2014-07-31T13:57:38.270Z</time>
      </trkpt>
      <trkpt lat="44.92255" lon="6.84063">
        <ele>1994.3</ele>
        <time>2014-07-31T13:57:40.270Z</time>
      </trkpt>
      <trkpt lat="44.9225" lon="6.84047">
        <ele>1991.6</ele>
        <time>2014-07-31T13:57:42.270Z</time>
      </trkpt>
      <trkpt lat="44.92247" lon="6.84031">
        <ele>1988.6</ele>
        <time>2014-07-31T13:57:44.270Z</time>
      </trkpt>
      <trkpt lat="44.92245" lon="6.84011">
        <ele>1983.3</ele>
        <time>2014-07-31T13:57:46.270Z</time>
      </trkpt>
      <trkpt lat="44.92245" lon="6.83996">
        <ele>1980.4</ele>
        <time>2014-07-31T13:57:48.170Z</time>
      </trkpt>
      <trkpt lat="44.92245" lon="6.83988">
        <ele>1980</ele>
        <time>2014-07-31T13:57:49.270Z</time>
      </trkpt>
      <trkpt lat="44.92247" lon="6.83974">
        <ele>1978.3</ele>
        <time>2014-07-31T13:57:51.230Z</time>
      </trkpt>
      <trkpt lat="44.92248" lon="6.83955">
        <ele>1976.3</ele>
        <time>2014-07-31T13:57:53.270Z</time>
      </trkpt>
      <trkpt lat="44.92246" lon="6.8394">
        <ele>1975.3</ele>
        <time>2014-07-31T13:57:55.270Z</time>
      </trkpt>
      <trkpt lat="44.92241" lon="6.83929">
        <ele>1973.4</ele>
        <time>2014-07-31T13:57:57.170Z</time>
      </trkpt>
      <trkpt lat="44.92237" lon="6.83924">
        <ele>1971.6</ele>
        <time>2014-07-31T13:57:58.270Z</time>
      </trkpt>
      <trkpt lat="44.92226" lon="6.83914">
        <ele>1969.3</ele>
        <time>2014-07-31T13:58:00.230Z</time>
      </trkpt>
      <trkpt lat="44.92218" lon="6.83903">
        <ele>1967.3</ele>
        <time>2014-07-31T13:58:02.270Z</time>
      </trkpt>
      <trkpt lat="44.92207" lon="6.8389">
        <ele>1967</ele>
        <time>2014-07-31T13:58:04.230Z</time>
      </trkpt>
      <trkpt lat="44.92194" lon="6.83876">
        <ele>1965.3</ele>
        <time>2014-07-31T13:58:06.270Z</time>
      </trkpt>
      <trkpt lat="44.92183" lon="6.8386">
        <ele>1964.3</ele>
        <time>2014-07-31T13:58:08.270Z</time>
      </trkpt>
      <trkpt lat="44.92174" lon="6.83849">
        <ele>1963</ele>
        <time>2014-07-31T13:58:10.270Z</time>
      </trkpt>
      <trkpt lat="44.92175" lon="6.83846">
        <ele>1962.3</ele>
        <time>2014-07-31T13:58:12.270Z</time>
      </trkpt>
      <trkpt lat="44.92174" lon="6.83848">
        <ele>1962</ele>
        <time>2014-07-31T13:58:14.270Z</time>
      </trkpt>
      <trkpt lat="44.92176" lon="6.83851">
        <ele>1962</ele>
        <time>2014-07-31T13:58:18.270Z</time>
      </trkpt>
      <trkpt lat="44.92175" lon="6.83849">
        <ele>1962</ele>
        <time>2014-07-31T13:58:27.270Z</time>
      </trkpt>
      <trkpt lat="44.92175" lon="6.8385">
        <ele>1962</ele>
        <time>2014-07-31T13:58:32.270Z</time>
      </trkpt>
      <trkpt lat="44.92174" lon="6.83852">
        <ele>1962</ele>
        <time>2014-07-31T13:58:34.130Z</time>
      </trkpt>
      <trkpt lat="44.92174" lon="6.83854">
        <ele>1962.7</ele>
        <time>2014-07-31T13:58:35.270Z</time>
      </trkpt>
      <trkpt lat="44.92171" lon="6.83858">
        <ele>1963</ele>
        <time>2014-07-31T13:58:37.270Z</time>
      </trkpt>
      <trkpt lat="44.92168" lon="6.83864">
        <ele>1963</ele>
        <time>2014-07-31T13:58:39.170Z</time>
      </trkpt>
      <trkpt lat="44.92166" lon="6.83867">
        <ele>1963</ele>
        <time>2014-07-31T13:58:40.270Z</time>
      </trkpt>
      <trkpt lat="44.92162" lon="6.83872">
        <ele>1963</ele>
        <time>2014-07-31T13:58:42.270Z</time>
      </trkpt>
      <trkpt lat="44.92157" lon="6.83874">
        <ele>1963</ele>
        <time>2014-07-31T13:58:44.270Z</time>
      </trkpt>
      <trkpt lat="44.92152" lon="6.83881">
        <ele>1962</ele>
        <time>2014-07-31T13:58:46.270Z</time>
      </trkpt>
      <trkpt lat="44.92145" lon="6.8389">
        <ele>1962</ele>
        <time>2014-07-31T13:58:48.270Z</time>
      </trkpt>
      <trkpt lat="44.92138" lon="6.83898">
        <ele>1962</ele>
        <time>2014-07-31T13:58:50.270Z</time>
      </trkpt>
      <trkpt lat="44.92132" lon="6.83903">
        <ele>1962</ele>
        <time>2014-07-31T13:58:52.270Z</time>
      </trkpt>
      <trkpt lat="44.92127" lon="6.83907">
        <ele>1962</ele>
        <time>2014-07-31T13:58:54.270Z</time>
      </trkpt>
      <trkpt lat="44.92121" lon="6.83911">
        <ele>1959</ele>
        <time>2014-07-31T13:58:56.270Z</time>
      </trkpt>
      <trkpt lat="44.92114" lon="6.83915">
        <ele>1959</ele>
        <time>2014-07-31T13:58:58.270Z</time>
      </trkpt>
      <trkpt lat="44.92108" lon="6.83914">
        <ele>1958.3</ele>
        <time>2014-07-31T13:59:00.230Z</time>
      </trkpt>
      <trkpt lat="44.92108" lon="6.83907">
        <ele>1958</ele>
        <time>2014-07-31T13:59:02.270Z</time>
      </trkpt>
      <trkpt lat="44.9211" lon="6.83901">
        <ele>1958</ele>
        <time>2014-07-31T13:59:04.170Z</time>
      </trkpt>
      <trkpt lat="44.9211" lon="6.83898">
        <ele>1955.9</ele>
        <time>2014-07-31T13:59:05.270Z</time>
      </trkpt>
      <trkpt lat="44.92111" lon="6.83891">
        <ele>1955</ele>
        <time>2014-07-31T13:59:07.270Z</time>
      </trkpt>
      <trkpt lat="44.92116" lon="6.8388">
        <ele>1955</ele>
        <time>2014-07-31T13:59:09.270Z</time>
      </trkpt>
      <trkpt lat="44.92122" lon="6.83865">
        <ele>1951</ele>
        <time>2014-07-31T13:59:11.270Z</time>
      </trkpt>
      <trkpt lat="44.92126" lon="6.83846">
        <ele>1951</ele>
        <time>2014-07-31T13:59:13.270Z</time>
      </trkpt>
      <trkpt lat="44.92129" lon="6.8382">
        <ele>1946.9</ele>
        <time>2014-07-31T13:59:15.270Z</time>
      </trkpt>
      <trkpt lat="44.92129" lon="6.83795">
        <ele>1941.5</ele>
        <time>2014-07-31T13:59:17.110Z</time>
      </trkpt>
      <trkpt lat="44.92128" lon="6.83785">
        <ele>1940.3</ele>
        <time>2014-07-31T13:59:18.270Z</time>
      </trkpt>
      <trkpt lat="44.92122" lon="6.83781">
        <ele>1938.2</ele>
        <time>2014-07-31T13:59:20.380Z</time>
      </trkpt>
      <trkpt lat="44.92115" lon="6.83778">
        <ele>1937.3</ele>
        <time>2014-07-31T13:59:22.270Z</time>
      </trkpt>
      <trkpt lat="44.92111" lon="6.83771">
        <ele>1935.3</ele>
        <time>2014-07-31T13:59:24.270Z</time>
      </trkpt>
      <trkpt lat="44.9211" lon="6.83755">
        <ele>1933.6</ele>
        <time>2014-07-31T13:59:26.270Z</time>
      </trkpt>
      <trkpt lat="44.9211" lon="6.83742">
        <ele>1931.3</ele>
        <time>2014-07-31T13:59:28.270Z</time>
      </trkpt>
      <trkpt lat="44.92112" lon="6.83728">
        <ele>1928.8</ele>
        <time>2014-07-31T13:59:30.170Z</time>
      </trkpt>
      <trkpt lat="44.92113" lon="6.8372">
        <ele>1927.3</ele>
        <time>2014-07-31T13:59:31.270Z</time>
      </trkpt>
      <trkpt lat="44.92113" lon="6.837">
        <ele>1924.6</ele>
        <time>2014-07-31T13:59:33.270Z</time>
      </trkpt>
      <trkpt lat="44.92112" lon="6.8368">
        <ele>1922.3</ele>
        <time>2014-07-31T13:59:35.270Z</time>
      </trkpt>
      <trkpt lat="44.9211" lon="6.83659">
        <ele>1919.3</ele>
        <time>2014-07-31T13:59:37.270Z</time>
      </trkpt>
      <trkpt lat="44.92106" lon="6.83636">
        <ele>1914.6</ele>
        <time>2014-07-31T13:59:39.270Z</time>
      </trkpt>
      <trkpt lat="44.92101" lon="6.83618">
        <ele>1912.3</ele>
        <time>2014-07-31T13:59:41.270Z</time>
      </trkpt>
      <trkpt lat="44.92091" lon="6.83603">
        <ele>1907.9</ele>
        <time>2014-07-31T13:59:43.270Z</time>
      </trkpt>
      <trkpt lat="44.92085" lon="6.83586">
        <ele>1904.6</ele>
        <time>2014-07-31T13:59:45.270Z</time>
      </trkpt>
      <trkpt lat="44.92088" lon="6.83566">
        <ele>1899.9</ele>
        <time>2014-07-31T13:59:47.270Z</time>
      </trkpt>
      <trkpt lat="44.92092" lon="6.83543">
        <ele>1896.6</ele>
        <time>2014-07-31T13:59:49.270Z</time>
      </trkpt>
      <trkpt lat="44.92097" lon="6.8352">
        <ele>1894.4</ele>
        <time>2014-07-31T13:59:51.130Z</time>
      </trkpt>
      <trkpt lat="44.921" lon="6.83508">
        <ele>1893.3</ele>
        <time>2014-07-31T13:59:52.270Z</time>
      </trkpt>
      <trkpt lat="44.92101" lon="6.83483">
        <ele>1890.3</ele>
        <time>2014-07-31T13:59:54.270Z</time>
      </trkpt>
      <trkpt lat="44.92099" lon="6.83462">
        <ele>1887.3</ele>
        <time>2014-07-31T13:59:56.270Z</time>
      </trkpt>
      <trkpt lat="44.92093" lon="6.83446">
        <ele>1884.3</ele>
        <time>2014-07-31T13:59:58.270Z</time>
      </trkpt>
      <trkpt lat="44.92088" lon="6.83438">
        <ele>1883</ele>
        <time>2014-07-31T14:00:00.230Z</time>
      </trkpt>
      <trkpt lat="44.92086" lon="6.83432">
        <ele>1881</ele>
        <time>2014-07-31T14:00:02.270Z</time>
      </trkpt>
      <trkpt lat="44.92083" lon="6.8343">
        <ele>1879.3</ele>
        <time>2014-07-31T14:00:04.270Z</time>
      </trkpt>
      <trkpt lat="44.92082" lon="6.83434">
        <ele>1879</ele>
        <time>2014-07-31T14:00:06.270Z</time>
      </trkpt>
      <trkpt lat="44.92081" lon="6.83434">
        <ele>1879</ele>
        <time>2014-07-31T14:00:08.170Z</time>
      </trkpt>
      <trkpt lat="44.9208" lon="6.83435">
        <ele>1879</ele>
        <time>2014-07-31T14:00:11.270Z</time>
      </trkpt>
      <trkpt lat="44.92081" lon="6.83436">
        <ele>1879</ele>
        <time>2014-07-31T14:00:13.170Z</time>
      </trkpt>
      <trkpt lat="44.92081" lon="6.83435">
        <ele>1880</ele>
        <time>2014-07-31T14:00:33.250Z</time>
      </trkpt>
      <trkpt lat="44.92082" lon="6.83433">
        <ele>1880</ele>
        <time>2014-07-31T14:00:39.270Z</time>
      </trkpt>
      <trkpt lat="44.92083" lon="6.83432">
        <ele>1880</ele>
        <time>2014-07-31T14:00:43.270Z</time>
      </trkpt>
      <trkpt lat="44.92083" lon="6.8343">
        <ele>1879.3</ele>
        <time>2014-07-31T14:00:45.270Z</time>
      </trkpt>
      <trkpt lat="44.92082" lon="6.8343">
        <ele>1879</ele>
        <time>2014-07-31T14:00:47.250Z</time>
      </trkpt>
      <trkpt lat="44.92082" lon="6.83432">
        <ele>1879</ele>
        <time>2014-07-31T14:00:51.230Z</time>
      </trkpt>
      <trkpt lat="44.92081" lon="6.83433">
        <ele>1879</ele>
        <time>2014-07-31T14:00:53.270Z</time>
      </trkpt>
      <trkpt lat="44.92081" lon="6.83436">
        <ele>1879</ele>
        <time>2014-07-31T14:00:55.270Z</time>
      </trkpt>
      <trkpt lat="44.92081" lon="6.83435">
        <ele>1879</ele>
        <time>2014-07-31T14:01:00.190Z</time>
      </trkpt>
      <trkpt lat="44.92082" lon="6.83435">
        <ele>1879</ele>
        <time>2014-07-31T14:01:05.270Z</time>
      </trkpt>
      <trkpt lat="44.92081" lon="6.83436">
        <ele>1879</ele>
        <time>2014-07-31T14:01:09.270Z</time>
      </trkpt>
      <trkpt lat="44.9208" lon="6.83435">
        <ele>1879</ele>
        <time>2014-07-31T14:01:17.230Z</time>
      </trkpt>
      <trkpt lat="44.92081" lon="6.83435">
        <ele>1879</ele>
        <time>2014-07-31T14:01:23.270Z</time>
      </trkpt>
      <trkpt lat="44.92081" lon="6.83437">
        <ele>1879</ele>
        <time>2014-07-31T14:01:28.200Z</time>
      </trkpt>
      <trkpt lat="44.92082" lon="6.83439">
        <ele>1879</ele>
        <time>2014-07-31T14:01:30.270Z</time>
      </trkpt>
      <trkpt lat="44.92081" lon="6.83439">
        <ele>1879</ele>
        <time>2014-07-31T14:01:44.270Z</time>
      </trkpt>
      <trkpt lat="44.92082" lon="6.83438">
        <ele>1879</ele>
        <time>2014-07-31T14:01:55.270Z</time>
      </trkpt>
      <trkpt lat="44.92081" lon="6.83437">
        <ele>1879</ele>
        <time>2014-07-31T14:01:59.270Z</time>
      </trkpt>
      <trkpt lat="44.92081" lon="6.83437">
        <ele>1879</ele>
        <time>2014-07-31T14:02:01.270Z</time>
      </trkpt>
      <trkpt lat="44.92082" lon="6.83436">
        <ele>1879</ele>
        <time>2014-07-31T14:02:13.270Z</time>
      </trkpt>
      <trkpt lat="44.92082" lon="6.83434">
        <ele>1878.3</ele>
        <time>2014-07-31T14:02:15.270Z</time>
      </trkpt>
      <trkpt lat="44.92081" lon="6.83434">
        <ele>1878</ele>
        <time>2014-07-31T14:02:21.270Z</time>
      </trkpt>
      <trkpt lat="44.92081" lon="6.83435">
        <ele>1878</ele>
        <time>2014-07-31T14:02:23.270Z</time>
      </trkpt>
      <trkpt lat="44.92082" lon="6.83436">
        <ele>1879</ele>
        <time>2014-07-31T14:02:26.270Z</time>
      </trkpt>
      <trkpt lat="44.92083" lon="6.83435">
        <ele>1879</ele>
        <time>2014-07-31T14:02:32.270Z</time>
      </trkpt>
      <trkpt lat="44.92084" lon="6.83434">
        <ele>1879</ele>
        <time>2014-07-31T14:02:38.270Z</time>
      </trkpt>
      <trkpt lat="44.92084" lon="6.83432">
        <ele>1880</ele>
        <time>2014-07-31T14:02:50.270Z</time>
      </trkpt>
      <trkpt lat="44.92083" lon="6.83427">
        <ele>1880</ele>
        <time>2014-07-31T14:02:52.170Z</time>
      </trkpt>
      <trkpt lat="44.92083" lon="6.83423">
        <ele>1880</ele>
        <time>2014-07-31T14:02:53.230Z</time>
      </trkpt>
      <trkpt lat="44.92086" lon="6.83412">
        <ele>1878</ele>
        <time>2014-07-31T14:02:55.250Z</time>
      </trkpt>
      <trkpt lat="44.9209" lon="6.834">
        <ele>1877</ele>
        <time>2014-07-31T14:02:57.280Z</time>
      </trkpt>
      <trkpt lat="44.92092" lon="6.83394">
        <ele>1877</ele>
        <time>2014-07-31T14:02:58.270Z</time>
      </trkpt>
      <trkpt lat="44.92097" lon="6.83379">
        <ele>1873</ele>
        <time>2014-07-31T14:03:00.230Z</time>
      </trkpt>
      <trkpt lat="44.92106" lon="6.8336">
        <ele>1871</ele>
        <time>2014-07-31T14:03:02.270Z</time>
      </trkpt>
      <trkpt lat="44.92114" lon="6.83339">
        <ele>1871</ele>
        <time>2014-07-31T14:03:04.270Z</time>
      </trkpt>
      <trkpt lat="44.9212" lon="6.83315">
        <ele>1857.8</ele>
        <time>2014-07-31T14:03:06.270Z</time>
      </trkpt>
      <trkpt lat="44.92128" lon="6.83294">
        <ele>1852.9</ele>
        <time>2014-07-31T14:03:08.270Z</time>
      </trkpt>
      <trkpt lat="44.92135" lon="6.83275">
        <ele>1849.7</ele>
        <time>2014-07-31T14:03:10.230Z</time>
      </trkpt>
      <trkpt lat="44.92139" lon="6.83255">
        <ele>1845.9</ele>
        <time>2014-07-31T14:03:12.270Z</time>
      </trkpt>
      <trkpt lat="44.9214" lon="6.83236">
        <ele>1844.3</ele>
        <time>2014-07-31T14:03:14.270Z</time>
      </trkpt>
      <trkpt lat="44.92141" lon="6.8322">
        <ele>1841.3</ele>
        <time>2014-07-31T14:03:16.270Z</time>
      </trkpt>
      <trkpt lat="44.92145" lon="6.83212">
        <ele>1838.8</ele>
        <time>2014-07-31T14:03:18.170Z</time>
      </trkpt>
      <trkpt lat="44.92148" lon="6.8321">
        <ele>1837.3</ele>
        <time>2014-07-31T14:03:19.270Z</time>
      </trkpt>
      <trkpt lat="44.92154" lon="6.83206">
        <ele>1836.3</ele>
        <time>2014-07-31T14:03:21.270Z</time>
      </trkpt>
      <trkpt lat="44.92161" lon="6.832">
        <ele>1833.6</ele>
        <time>2014-07-31T14:03:23.270Z</time>
      </trkpt>
      <trkpt lat="44.92166" lon="6.83191">
        <ele>1829.3</ele>
        <time>2014-07-31T14:03:25.270Z</time>
      </trkpt>
      <trkpt lat="44.92166" lon="6.83183">
        <ele>1828.3</ele>
        <time>2014-07-31T14:03:27.230Z</time>
      </trkpt>
      <trkpt lat="44.92159" lon="6.83171">
        <ele>1825.5</ele>
        <time>2014-07-31T14:03:29.100Z</time>
      </trkpt>
      <trkpt lat="44.92156" lon="6.83168">
        <ele>1824.4</ele>
        <time>2014-07-31T14:03:30.170Z</time>
      </trkpt>
      <trkpt lat="44.92151" lon="6.83162">
        <ele>1822.3</ele>
        <time>2014-07-31T14:03:32.270Z</time>
      </trkpt>
      <trkpt lat="44.92145" lon="6.83152">
        <ele>1819.7</ele>
        <time>2014-07-31T14:03:34.230Z</time>
      </trkpt>
      <trkpt lat="44.92143" lon="6.8314">
        <ele>1816.6</ele>
        <time>2014-07-31T14:03:36.270Z</time>
      </trkpt>
      <trkpt lat="44.92148" lon="6.83126">
        <ele>1814.3</ele>
        <time>2014-07-31T14:03:38.270Z</time>
      </trkpt>
      <trkpt lat="44.92154" lon="6.83111">
        <ele>1810.9</ele>
        <time>2014-07-31T14:03:40.270Z</time>
      </trkpt>
      <trkpt lat="44.92159" lon="6.83095">
        <ele>1807.4</ele>
        <time>2014-07-31T14:03:42.150Z</time>
      </trkpt>
      <trkpt lat="44.92161" lon="6.83087">
        <ele>1805.6</ele>
        <time>2014-07-31T14:03:43.270Z</time>
      </trkpt>
      <trkpt lat="44.92163" lon="6.8307">
        <ele>1803.2</ele>
        <time>2014-07-31T14:03:45.380Z</time>
      </trkpt>
      <trkpt lat="44.92164" lon="6.83053">
        <ele>1799.6</ele>
        <time>2014-07-31T14:03:47.270Z</time>
      </trkpt>
      <trkpt lat="44.92164" lon="6.83039">
        <ele>1796.3</ele>
        <time>2014-07-31T14:03:49.270Z</time>
      </trkpt>
      <trkpt lat="44.92158" lon="6.83026">
        <ele>1795</ele>
        <time>2014-07-31T14:03:51.230Z</time>
      </trkpt>
      <trkpt lat="44.92153" lon="6.83016">
        <ele>1793.3</ele>
        <time>2014-07-31T14:03:53.270Z</time>
      </trkpt>
      <trkpt lat="44.9215" lon="6.83006">
        <ele>1790.4</ele>
        <time>2014-07-31T14:03:55.170Z</time>
      </trkpt>
      <trkpt lat="44.9215" lon="6.83002">
        <ele>1789.3</ele>
        <time>2014-07-31T14:03:56.270Z</time>
      </trkpt>
      <trkpt lat="44.92151" lon="6.82995">
        <ele>1786.9</ele>
        <time>2014-07-31T14:03:58.270Z</time>
      </trkpt>
      <trkpt lat="44.92155" lon="6.82986">
        <ele>1784.3</ele>
        <time>2014-07-31T14:04:00.230Z</time>
      </trkpt>
      <trkpt lat="44.92154" lon="6.82977">
        <ele>1781.3</ele>
        <time>2014-07-31T14:04:02.270Z</time>
      </trkpt>
      <trkpt lat="44.92151" lon="6.82975">
        <ele>1778.6</ele>
        <time>2014-07-31T14:04:04.270Z</time>
      </trkpt>
      <trkpt lat="44.92149" lon="6.8298">
        <ele>1778.3</ele>
        <time>2014-07-31T14:04:06.270Z</time>
      </trkpt>
      <trkpt lat="44.92145" lon="6.82981">
        <ele>1778</ele>
        <time>2014-07-31T14:04:08.270Z</time>
      </trkpt>
      <trkpt lat="44.92138" lon="6.82979">
        <ele>1776.3</ele>
        <time>2014-07-31T14:04:10.270Z</time>
      </trkpt>
      <trkpt lat="44.9213" lon="6.82975">
        <ele>1775.3</ele>
        <time>2014-07-31T14:04:12.270Z</time>
      </trkpt>
      <trkpt lat="44.92121" lon="6.82968">
        <ele>1774.3</ele>
        <time>2014-07-31T14:04:14.280Z</time>
      </trkpt>
      <trkpt lat="44.9211" lon="6.82962">
        <ele>1771.6</ele>
        <time>2014-07-31T14:04:16.250Z</time>
      </trkpt>
      <trkpt lat="44.92101" lon="6.82954">
        <ele>1767.9</ele>
        <time>2014-07-31T14:04:18.130Z</time>
      </trkpt>
      <trkpt lat="44.92097" lon="6.82949">
        <ele>1766.3</ele>
        <time>2014-07-31T14:04:19.270Z</time>
      </trkpt>
      <trkpt lat="44.92092" lon="6.82937">
        <ele>1764.6</ele>
        <time>2014-07-31T14:04:21.270Z</time>
      </trkpt>
      <trkpt lat="44.92087" lon="6.82924">
        <ele>1760.6</ele>
        <time>2014-07-31T14:04:23.270Z</time>
      </trkpt>
      <trkpt lat="44.92081" lon="6.8291">
        <ele>1758.4</ele>
        <time>2014-07-31T14:04:25.170Z</time>
      </trkpt>
      <trkpt lat="44.92078" lon="6.82904">
        <ele>1757.3</ele>
        <time>2014-07-31T14:04:26.270Z</time>
      </trkpt>
      <trkpt lat="44.92071" lon="6.82894">
        <ele>1755.3</ele>
        <time>2014-07-31T14:04:28.270Z</time>
      </trkpt>
      <trkpt lat="44.92062" lon="6.82881">
        <ele>1752.6</ele>
        <time>2014-07-31T14:04:30.250Z</time>
      </trkpt>
      <trkpt lat="44.92052" lon="6.82865">
        <ele>1750.3</ele>
        <time>2014-07-31T14:04:32.270Z</time>
      </trkpt>
      <trkpt lat="44.92041" lon="6.82847">
        <ele>1747.3</ele>
        <time>2014-07-31T14:04:34.230Z</time>
      </trkpt>
      <trkpt lat="44.9203" lon="6.8283">
        <ele>1743.4</ele>
        <time>2014-07-31T14:04:36.170Z</time>
      </trkpt>
      <trkpt lat="44.92018" lon="6.82823">
        <ele>1740.6</ele>
        <time>2014-07-31T14:04:38.270Z</time>
      </trkpt>
      <trkpt lat="44.92009" lon="6.8282">
        <ele>1736.3</ele>
        <time>2014-07-31T14:04:40.270Z</time>
      </trkpt>
      <trkpt lat="44.91998" lon="6.82819">
        <ele>1734.6</ele>
        <time>2014-07-31T14:04:42.270Z</time>
      </trkpt>
      <trkpt lat="44.91987" lon="6.82818">
        <ele>1731.3</ele>
        <time>2014-07-31T14:04:44.270Z</time>
      </trkpt>
      <trkpt lat="44.91977" lon="6.82816">
        <ele>1727.6</ele>
        <time>2014-07-31T14:04:46.270Z</time>
      </trkpt>
      <trkpt lat="44.91966" lon="6.82816">
        <ele>1725.3</ele>
        <time>2014-07-31T14:04:48.270Z</time>
      </trkpt>
      <trkpt lat="44.91954" lon="6.82816">
        <ele>1722.6</ele>
        <time>2014-07-31T14:04:50.270Z</time>
      </trkpt>
      <trkpt lat="44.91942" lon="6.82809">
        <ele>1720.3</ele>
        <time>2014-07-31T14:04:52.230Z</time>
      </trkpt>
      <trkpt lat="44.91931" lon="6.828">
        <ele>1717.3</ele>
        <time>2014-07-31T14:04:54.250Z</time>
      </trkpt>
      <trkpt lat="44.91921" lon="6.82791">
        <ele>1713.6</ele>
        <time>2014-07-31T14:04:56.270Z</time>
      </trkpt>
      <trkpt lat="44.91912" lon="6.82782">
        <ele>1710.3</ele>
        <time>2014-07-31T14:04:58.270Z</time>
      </trkpt>
      <trkpt lat="44.91903" lon="6.82774">
        <ele>1708.4</ele>
        <time>2014-07-31T14:05:00.130Z</time>
      </trkpt>
      <trkpt lat="44.91899" lon="6.8277">
        <ele>1708</ele>
        <time>2014-07-31T14:05:01.270Z</time>
      </trkpt>
      <trkpt lat="44.91891" lon="6.82762">
        <ele>1706.4</ele>
        <time>2014-07-31T14:05:03.170Z</time>
      </trkpt>
      <trkpt lat="44.91888" lon="6.82759">
        <ele>1704.6</ele>
        <time>2014-07-31T14:05:04.270Z</time>
      </trkpt>
      <trkpt lat="44.91884" lon="6.82754">
        <ele>1702.3</ele>
        <time>2014-07-31T14:05:06.270Z</time>
      </trkpt>
      <trkpt lat="44.91883" lon="6.8275">
        <ele>1701.4</ele>
        <time>2014-07-31T14:05:08.170Z</time>
      </trkpt>
      <trkpt lat="44.91883" lon="6.82747">
        <ele>1701</ele>
        <time>2014-07-31T14:05:48.150Z</time>
      </trkpt>
      <trkpt lat="44.91881" lon="6.82745">
        <ele>1701</ele>
        <time>2014-07-31T14:05:49.270Z</time>
      </trkpt>
      <trkpt lat="44.91877" lon="6.82742">
        <ele>1701</ele>
        <time>2014-07-31T14:05:51.230Z</time>
      </trkpt>
      <trkpt lat="44.91874" lon="6.82736">
        <ele>1701</ele>
        <time>2014-07-31T14:05:53.270Z</time>
      </trkpt>
      <trkpt lat="44.91881" lon="6.82735">
        <ele>1699.6</ele>
        <time>2014-07-31T14:05:55.270Z</time>
      </trkpt>
      <trkpt lat="44.9189" lon="6.82733">
        <ele>1699</ele>
        <time>2014-07-31T14:05:57.270Z</time>
      </trkpt>
      <trkpt lat="44.91903" lon="6.82731">
        <ele>1699</ele>
        <time>2014-07-31T14:05:59.270Z</time>
      </trkpt>
      <trkpt lat="44.91916" lon="6.82725">
        <ele>1699</ele>
        <time>2014-07-31T14:06:01.280Z</time>
      </trkpt>
      <trkpt lat="44.91922" lon="6.8272">
        <ele>1699</ele>
        <time>2014-07-31T14:06:02.270Z</time>
      </trkpt>
      <trkpt lat="44.91934" lon="6.82707">
        <ele>1699</ele>
        <time>2014-07-31T14:06:04.270Z</time>
      </trkpt>
      <trkpt lat="44.91946" lon="6.82692">
        <ele>1689.2</ele>
        <time>2014-07-31T14:06:06.270Z</time>
      </trkpt>
      <trkpt lat="44.91961" lon="6.82679">
        <ele>1685.6</ele>
        <time>2014-07-31T14:06:08.270Z</time>
      </trkpt>
      <trkpt lat="44.91975" lon="6.82667">
        <ele>1681.6</ele>
        <time>2014-07-31T14:06:10.270Z</time>
      </trkpt>
      <trkpt lat="44.91988" lon="6.82655">
        <ele>1680</ele>
        <time>2014-07-31T14:06:12.150Z</time>
      </trkpt>
      <trkpt lat="44.91992" lon="6.82651">
        <ele>1678.6</ele>
        <time>2014-07-31T14:06:13.270Z</time>
      </trkpt>
      <trkpt lat="44.91998" lon="6.82644">
        <ele>1678</ele>
        <time>2014-07-31T14:06:15.270Z</time>
      </trkpt>
      <trkpt lat="44.92004" lon="6.82639">
        <ele>1677</ele>
        <time>2014-07-31T14:06:17.250Z</time>
      </trkpt>
      <trkpt lat="44.9201" lon="6.82633">
        <ele>1673.6</ele>
        <time>2014-07-31T14:06:19.270Z</time>
      </trkpt>
      <trkpt lat="44.92015" lon="6.82625">
        <ele>1672</ele>
        <time>2014-07-31T14:06:21.270Z</time>
      </trkpt>
      <trkpt lat="44.92021" lon="6.82614">
        <ele>1670.3</ele>
        <time>2014-07-31T14:06:23.270Z</time>
      </trkpt>
      <trkpt lat="44.92027" lon="6.82603">
        <ele>1668.4</ele>
        <time>2014-07-31T14:06:25.170Z</time>
      </trkpt>
      <trkpt lat="44.9203" lon="6.82598">
        <ele>1668</ele>
        <time>2014-07-31T14:06:26.270Z</time>
      </trkpt>
      <trkpt lat="44.92036" lon="6.82588">
        <ele>1665.6</ele>
        <time>2014-07-31T14:06:28.270Z</time>
      </trkpt>
      <trkpt lat="44.92039" lon="6.82584">
        <ele>1664</ele>
        <time>2014-07-31T14:06:30.270Z</time>
      </trkpt>
      <trkpt lat="44.92039" lon="6.82581">
        <ele>1664</ele>
        <time>2014-07-31T14:06:32.270Z</time>
      </trkpt>
      <trkpt lat="44.92037" lon="6.82581">
        <ele>1663.3</ele>
        <time>2014-07-31T14:06:34.250Z</time>
      </trkpt>
      <trkpt lat="44.92035" lon="6.82585">
        <ele>1663</ele>
        <time>2014-07-31T14:06:36.250Z</time>
      </trkpt>
      <trkpt lat="44.9203" lon="6.82586">
        <ele>1663</ele>
        <time>2014-07-31T14:06:38.270Z</time>
      </trkpt>
      <trkpt lat="44.92023" lon="6.82587">
        <ele>1663</ele>
        <time>2014-07-31T14:06:40.270Z</time>
      </trkpt>
      <trkpt lat="44.92015" lon="6.82587">
        <ele>1663</ele>
        <time>2014-07-31T14:06:42.270Z</time>
      </trkpt>
      <trkpt lat="44.92008" lon="6.82585">
        <ele>1663</ele>
        <time>2014-07-31T14:06:44.270Z</time>
      </trkpt>
      <trkpt lat="44.92001" lon="6.82581">
        <ele>1662</ele>
        <time>2014-07-31T14:06:46.270Z</time>
      </trkpt>
      <trkpt lat="44.91995" lon="6.82577">
        <ele>1662</ele>
        <time>2014-07-31T14:06:48.270Z</time>
      </trkpt>
      <trkpt lat="44.91989" lon="6.82574">
        <ele>1662</ele>
        <time>2014-07-31T14:06:50.270Z</time>
      </trkpt>
      <trkpt lat="44.91983" lon="6.82572">
        <ele>1662</ele>
        <time>2014-07-31T14:06:52.270Z</time>
      </trkpt>
      <trkpt lat="44.91978" lon="6.82567">
        <ele>1662</ele>
        <time>2014-07-31T14:06:54.270Z</time>
      </trkpt>
      <trkpt lat="44.91973" lon="6.82564">
        <ele>1661</ele>
        <time>2014-07-31T14:06:56.170Z</time>
      </trkpt>
      <trkpt lat="44.9197" lon="6.82563">
        <ele>1661</ele>
        <time>2014-07-31T14:06:57.270Z</time>
      </trkpt>
      <trkpt lat="44.91966" lon="6.8256">
        <ele>1661</ele>
        <time>2014-07-31T14:06:59.270Z</time>
      </trkpt>
      <trkpt lat="44.91965" lon="6.8256">
        <ele>1661</ele>
        <time>2014-07-31T14:07:01.160Z</time>
      </trkpt>
      <trkpt lat="44.91962" lon="6.82559">
        <ele>1659.6</ele>
        <time>2014-07-31T14:07:05.270Z</time>
      </trkpt>
      <trkpt lat="44.9196" lon="6.82558">
        <ele>1659</ele>
        <time>2014-07-31T14:07:07.270Z</time>
      </trkpt>
      <trkpt lat="44.91958" lon="6.82557">
        <ele>1659</ele>
        <time>2014-07-31T14:07:09.270Z</time>
      </trkpt>
      <trkpt lat="44.91957" lon="6.82559">
        <ele>1659</ele>
        <time>2014-07-31T14:07:13.170Z</time>
      </trkpt>
      <trkpt lat="44.91955" lon="6.82558">
        <ele>1659</ele>
        <time>2014-07-31T14:07:18.270Z</time>
      </trkpt>
      <trkpt lat="44.91956" lon="6.82561">
        <ele>1659</ele>
        <time>2014-07-31T14:07:23.270Z</time>
      </trkpt>
      <trkpt lat="44.91957" lon="6.82563">
        <ele>1659</ele>
        <time>2014-07-31T14:07:28.250Z</time>
      </trkpt>
      <trkpt lat="44.91958" lon="6.82564">
        <ele>1659</ele>
        <time>2014-07-31T14:07:30.270Z</time>
      </trkpt>
      <trkpt lat="44.91959" lon="6.82565">
        <ele>1659</ele>
        <time>2014-07-31T14:07:32.270Z</time>
      </trkpt>
      <trkpt lat="44.91961" lon="6.82564">
        <ele>1658.3</ele>
        <time>2014-07-31T14:07:35.270Z</time>
      </trkpt>
      <trkpt lat="44.91964" lon="6.82563">
        <ele>1658</ele>
        <time>2014-07-31T14:07:37.270Z</time>
      </trkpt>
      <trkpt lat="44.91966" lon="6.82563">
        <ele>1658</ele>
        <time>2014-07-31T14:07:39.270Z</time>
      </trkpt>
      <trkpt lat="44.91968" lon="6.82563">
        <ele>1658</ele>
        <time>2014-07-31T14:07:41.270Z</time>
      </trkpt>
      <trkpt lat="44.91971" lon="6.82564">
        <ele>1658</ele>
        <time>2014-07-31T14:07:43.270Z</time>
      </trkpt>
      <trkpt lat="44.91972" lon="6.82563">
        <ele>1659</ele>
        <time>2014-07-31T14:07:47.270Z</time>
      </trkpt>
      <trkpt lat="44.91971" lon="6.82562">
        <ele>1659</ele>
        <time>2014-07-31T14:07:49.270Z</time>
      </trkpt>
      <trkpt lat="44.91972" lon="6.82563">
        <ele>1659</ele>
        <time>2014-07-31T14:07:53.270Z</time>
      </trkpt>
      <trkpt lat="44.91972" lon="6.82561">
        <ele>1659</ele>
        <time>2014-07-31T14:07:55.170Z</time>
      </trkpt>
      <trkpt lat="44.91973" lon="6.8256">
        <ele>1659</ele>
        <time>2014-07-31T14:07:58.270Z</time>
      </trkpt>
      <trkpt lat="44.91973" lon="6.82558">
        <ele>1659</ele>
        <time>2014-07-31T14:08:00.230Z</time>
      </trkpt>
      <trkpt lat="44.91972" lon="6.82557">
        <ele>1659</ele>
        <time>2014-07-31T14:08:08.270Z</time>
      </trkpt>
      <trkpt lat="44.91974" lon="6.82558">
        <ele>1659</ele>
        <time>2014-07-31T14:08:20.270Z</time>
      </trkpt>
      <trkpt lat="44.91973" lon="6.82556">
        <ele>1659</ele>
        <time>2014-07-31T14:08:23.270Z</time>
      </trkpt>
      <trkpt lat="44.91973" lon="6.82555">
        <ele>1660</ele>
        <time>2014-07-31T14:08:27.300Z</time>
      </trkpt>
      <trkpt lat="44.91972" lon="6.82554">
        <ele>1660</ele>
        <time>2014-07-31T14:08:29.270Z</time>
      </trkpt>
      <trkpt lat="44.91972" lon="6.82556">
        <ele>1660</ele>
        <time>2014-07-31T14:08:42.270Z</time>
      </trkpt>
      <trkpt lat="44.91971" lon="6.82555">
        <ele>1660</ele>
        <time>2014-07-31T14:08:46.270Z</time>
      </trkpt>
      <trkpt lat="44.9197" lon="6.82556">
        <ele>1660</ele>
        <time>2014-07-31T14:08:51.230Z</time>
      </trkpt>
      <trkpt lat="44.91971" lon="6.82558">
        <ele>1660</ele>
        <time>2014-07-31T14:09:00.130Z</time>
      </trkpt>
      <trkpt lat="44.91972" lon="6.82557">
        <ele>1659.3</ele>
        <time>2014-07-31T14:09:05.270Z</time>
      </trkpt>
      <trkpt lat="44.91973" lon="6.82557">
        <ele>1659</ele>
        <time>2014-07-31T14:09:13.270Z</time>
      </trkpt>
      <trkpt lat="44.91974" lon="6.82556">
        <ele>1658</ele>
        <time>2014-07-31T14:09:17.170Z</time>
      </trkpt>
      <trkpt lat="44.91974" lon="6.82558">
        <ele>1658</ele>
        <time>2014-07-31T14:09:21.270Z</time>
      </trkpt>
      <trkpt lat="44.91974" lon="6.82559">
        <ele>1659</ele>
        <time>2014-07-31T14:09:27.270Z</time>
      </trkpt>
      <trkpt lat="44.91973" lon="6.8256">
        <ele>1659</ele>
        <time>2014-07-31T14:09:33.270Z</time>
      </trkpt>
      <trkpt lat="44.91974" lon="6.8256">
        <ele>1659</ele>
        <time>2014-07-31T14:09:41.230Z</time>
      </trkpt>
      <trkpt lat="44.91975" lon="6.82561">
        <ele>1659</ele>
        <time>2014-07-31T14:09:43.270Z</time>
      </trkpt>
      <trkpt lat="44.91975" lon="6.82563">
        <ele>1658</ele>
        <time>2014-07-31T14:09:52.270Z</time>
      </trkpt>
      <trkpt lat="44.91976" lon="6.82564">
        <ele>1658</ele>
        <time>2014-07-31T14:10:00.190Z</time>
      </trkpt>
      <trkpt lat="44.91976" lon="6.82566">
        <ele>1658</ele>
        <time>2014-07-31T14:10:04.270Z</time>
      </trkpt>
      <trkpt lat="44.91975" lon="6.82564">
        <ele>1658</ele>
        <time>2014-07-31T14:10:18.270Z</time>
      </trkpt>
      <trkpt lat="44.91975" lon="6.82563">
        <ele>1658</ele>
        <time>2014-07-31T14:10:23.270Z</time>
      </trkpt>
      <trkpt lat="44.91972" lon="6.82562">
        <ele>1658</ele>
        <time>2014-07-31T14:10:27.270Z</time>
      </trkpt>
      <trkpt lat="44.91972" lon="6.82561">
        <ele>1658</ele>
        <time>2014-07-31T14:10:29.170Z</time>
      </trkpt>
      <trkpt lat="44.91971" lon="6.8256">
        <ele>1658</ele>
        <time>2014-07-31T14:10:32.230Z</time>
      </trkpt>
      <trkpt lat="44.9197" lon="6.8256">
        <ele>1658</ele>
        <time>2014-07-31T14:10:35.270Z</time>
      </trkpt>
      <trkpt lat="44.91968" lon="6.82559">
        <ele>1658</ele>
        <time>2014-07-31T14:10:37.270Z</time>
      </trkpt>
      <trkpt lat="44.91966" lon="6.82558">
        <ele>1658</ele>
        <time>2014-07-31T14:10:39.170Z</time>
      </trkpt>
      <trkpt lat="44.91965" lon="6.82558">
        <ele>1658</ele>
        <time>2014-07-31T14:10:40.270Z</time>
      </trkpt>
      <trkpt lat="44.91963" lon="6.82556">
        <ele>1658</ele>
        <time>2014-07-31T14:10:42.270Z</time>
      </trkpt>
      <trkpt lat="44.91962" lon="6.82556">
        <ele>1658</ele>
        <time>2014-07-31T14:10:44.270Z</time>
      </trkpt>
      <trkpt lat="44.91961" lon="6.82557">
        <ele>1658</ele>
        <time>2014-07-31T14:10:48.270Z</time>
      </trkpt>
      <trkpt lat="44.9196" lon="6.82558">
        <ele>1658</ele>
        <time>2014-07-31T14:10:50.270Z</time>
      </trkpt>
      <trkpt lat="44.91959" lon="6.82558">
        <ele>1658</ele>
        <time>2014-07-31T14:10:54.270Z</time>
      </trkpt>
      <trkpt lat="44.91958" lon="6.8256">
        <ele>1658</ele>
        <time>2014-07-31T14:10:58.270Z</time>
      </trkpt>
      <trkpt lat="44.91957" lon="6.82561">
        <ele>1658</ele>
        <time>2014-07-31T14:11:00.230Z</time>
      </trkpt>
      <trkpt lat="44.91956" lon="6.82562">
        <ele>1658</ele>
        <time>2014-07-31T14:11:07.270Z</time>
      </trkpt>
      <trkpt lat="44.91954" lon="6.82562">
        <ele>1658</ele>
        <time>2014-07-31T14:11:11.270Z</time>
      </trkpt>
      <trkpt lat="44.91954" lon="6.82561">
        <ele>1658</ele>
        <time>2014-07-31T14:11:20.270Z</time>
      </trkpt>
      <trkpt lat="44.91953" lon="6.8256">
        <ele>1658</ele>
        <time>2014-07-31T14:11:23.230Z</time>
      </trkpt>
      <trkpt lat="44.91951" lon="6.82559">
        <ele>1658</ele>
        <time>2014-07-31T14:11:25.270Z</time>
      </trkpt>
      <trkpt lat="44.91952" lon="6.8256">
        <ele>1658</ele>
        <time>2014-07-31T14:11:27.270Z</time>
      </trkpt>
      <trkpt lat="44.91951" lon="6.8256">
        <ele>1658</ele>
        <time>2014-07-31T14:11:30.250Z</time>
      </trkpt>
      <trkpt lat="44.91952" lon="6.82562">
        <ele>1658</ele>
        <time>2014-07-31T14:11:34.230Z</time>
      </trkpt>
      <trkpt lat="44.91953" lon="6.82563">
        <ele>1658</ele>
        <time>2014-07-31T14:11:38.270Z</time>
      </trkpt>
      <trkpt lat="44.91952" lon="6.82561">
        <ele>1658</ele>
        <time>2014-07-31T14:11:42.270Z</time>
      </trkpt>
      <trkpt lat="44.91952" lon="6.82562">
        <ele>1658</ele>
        <time>2014-07-31T14:11:48.270Z</time>
      </trkpt>
      <trkpt lat="44.91955" lon="6.82563">
        <ele>1658</ele>
        <time>2014-07-31T14:11:50.270Z</time>
      </trkpt>
      <trkpt lat="44.91957" lon="6.82564">
        <ele>1658</ele>
        <time>2014-07-31T14:11:52.270Z</time>
      </trkpt>
      <trkpt lat="44.91958" lon="6.82566">
        <ele>1658</ele>
        <time>2014-07-31T14:11:54.270Z</time>
      </trkpt>
      <trkpt lat="44.91959" lon="6.82566">
        <ele>1658</ele>
        <time>2014-07-31T14:11:56.270Z</time>
      </trkpt>
      <trkpt lat="44.9196" lon="6.82567">
        <ele>1658</ele>
        <time>2014-07-31T14:12:00.160Z</time>
      </trkpt>
      <trkpt lat="44.91959" lon="6.82566">
        <ele>1658</ele>
        <time>2014-07-31T14:12:06.270Z</time>
      </trkpt>
      <trkpt lat="44.91961" lon="6.82565">
        <ele>1658</ele>
        <time>2014-07-31T14:12:10.250Z</time>
      </trkpt>
      <trkpt lat="44.91962" lon="6.82567">
        <ele>1658</ele>
        <time>2014-07-31T14:12:12.270Z</time>
      </trkpt>
      <trkpt lat="44.91964" lon="6.8257">
        <ele>1658</ele>
        <time>2014-07-31T14:12:14.230Z</time>
      </trkpt>
      <trkpt lat="44.91965" lon="6.82571">
        <ele>1659</ele>
        <time>2014-07-31T14:12:16.270Z</time>
      </trkpt>
      <trkpt lat="44.91964" lon="6.8257">
        <ele>1659</ele>
        <time>2014-07-31T14:12:18.270Z</time>
      </trkpt>
      <trkpt lat="44.91962" lon="6.82569">
        <ele>1659</ele>
        <time>2014-07-31T14:12:20.170Z</time>
      </trkpt>
      <trkpt lat="44.91962" lon="6.82568">
        <ele>1659</ele>
        <time>2014-07-31T14:12:21.270Z</time>
      </trkpt>
      <trkpt lat="44.91959" lon="6.82566">
        <ele>1659</ele>
        <time>2014-07-31T14:12:23.270Z</time>
      </trkpt>
      <trkpt lat="44.91957" lon="6.82567">
        <ele>1658</ele>
        <time>2014-07-31T14:12:27.270Z</time>
      </trkpt>
      <trkpt lat="44.91955" lon="6.82566">
        <ele>1658</ele>
        <time>2014-07-31T14:12:29.170Z</time>
      </trkpt>
      <trkpt lat="44.91952" lon="6.82563">
        <ele>1658</ele>
        <time>2014-07-31T14:12:30.270Z</time>
      </trkpt>
      <trkpt lat="44.91948" lon="6.82561">
        <ele>1658</ele>
        <time>2014-07-31T14:12:32.270Z</time>
      </trkpt>
      <trkpt lat="44.91944" lon="6.82558">
        <ele>1658</ele>
        <time>2014-07-31T14:12:34.230Z</time>
      </trkpt>
      <trkpt lat="44.91943" lon="6.82556">
        <ele>1658</ele>
        <time>2014-07-31T14:12:36.270Z</time>
      </trkpt>
      <trkpt lat="44.9194" lon="6.82554">
        <ele>1658</ele>
        <time>2014-07-31T14:12:38.270Z</time>
      </trkpt>
      <trkpt lat="44.91937" lon="6.82551">
        <ele>1658</ele>
        <time>2014-07-31T14:12:40.270Z</time>
      </trkpt>
      <trkpt lat="44.91935" lon="6.8255">
        <ele>1658</ele>
        <time>2014-07-31T14:12:41.320Z</time>
      </trkpt>
      <trkpt lat="44.91929" lon="6.82546">
        <ele>1658</ele>
        <time>2014-07-31T14:12:43.270Z</time>
      </trkpt>
      <trkpt lat="44.91923" lon="6.82545">
        <ele>1659.4</ele>
        <time>2014-07-31T14:12:45.270Z</time>
      </trkpt>
      <trkpt lat="44.91915" lon="6.82543">
        <ele>1660</ele>
        <time>2014-07-31T14:12:47.250Z</time>
      </trkpt>
      <trkpt lat="44.91907" lon="6.82543">
        <ele>1660</ele>
        <time>2014-07-31T14:12:49.170Z</time>
      </trkpt>
      <trkpt lat="44.91902" lon="6.82544">
        <ele>1660</ele>
        <time>2014-07-31T14:12:50.270Z</time>
      </trkpt>
      <trkpt lat="44.91892" lon="6.82547">
        <ele>1660</ele>
        <time>2014-07-31T14:12:52.270Z</time>
      </trkpt>
      <trkpt lat="44.91883" lon="6.8255">
        <ele>1660</ele>
        <time>2014-07-31T14:12:54.270Z</time>
      </trkpt>
      <trkpt lat="44.91875" lon="6.82553">
        <ele>1659</ele>
        <time>2014-07-31T14:12:56.270Z</time>
      </trkpt>
      <trkpt lat="44.91867" lon="6.82555">
        <ele>1659</ele>
        <time>2014-07-31T14:12:58.270Z</time>
      </trkpt>
      <trkpt lat="44.91859" lon="6.82556">
        <ele>1659</ele>
        <time>2014-07-31T14:13:00.060Z</time>
      </trkpt>
      <trkpt lat="44.91855" lon="6.82556">
        <ele>1659</ele>
        <time>2014-07-31T14:13:01.270Z</time>
      </trkpt>
      <trkpt lat="44.91848" lon="6.82555">
        <ele>1659</ele>
        <time>2014-07-31T14:13:03.170Z</time>
      </trkpt>
      <trkpt lat="44.91845" lon="6.82554">
        <ele>1659</ele>
        <time>2014-07-31T14:13:04.270Z</time>
      </trkpt>
      <trkpt lat="44.91838" lon="6.82551">
        <ele>1659</ele>
        <time>2014-07-31T14:13:06.270Z</time>
      </trkpt>
      <trkpt lat="44.91831" lon="6.82548">
        <ele>1659</ele>
        <time>2014-07-31T14:13:08.270Z</time>
      </trkpt>
      <trkpt lat="44.91826" lon="6.82545">
        <ele>1659</ele>
        <time>2014-07-31T14:13:10.270Z</time>
      </trkpt>
      <trkpt lat="44.9182" lon="6.82542">
        <ele>1659</ele>
        <time>2014-07-31T14:13:12.170Z</time>
      </trkpt>
      <trkpt lat="44.91812" lon="6.8254">
        <ele>1659</ele>
        <time>2014-07-31T14:13:14.270Z</time>
      </trkpt>
      <trkpt lat="44.91802" lon="6.82538">
        <ele>1659</ele>
        <time>2014-07-31T14:13:16.170Z</time>
      </trkpt>
      <trkpt lat="44.91796" lon="6.82537">
        <ele>1659</ele>
        <time>2014-07-31T14:13:17.230Z</time>
      </trkpt>
      <trkpt lat="44.91786" lon="6.82536">
        <ele>1659</ele>
        <time>2014-07-31T14:13:19.270Z</time>
      </trkpt>
      <trkpt lat="44.91775" lon="6.82535">
        <ele>1659</ele>
        <time>2014-07-31T14:13:21.270Z</time>
      </trkpt>
      <trkpt lat="44.91764" lon="6.82535">
        <ele>1659</ele>
        <time>2014-07-31T14:13:23.270Z</time>
      </trkpt>
      <trkpt lat="44.91755" lon="6.82534">
        <ele>1657.6</ele>
        <time>2014-07-31T14:13:25.270Z</time>
      </trkpt>
      <trkpt lat="44.91746" lon="6.82535">
        <ele>1657</ele>
        <time>2014-07-31T14:13:27.120Z</time>
      </trkpt>
      <trkpt lat="44.91741" lon="6.82536">
        <ele>1657</ele>
        <time>2014-07-31T14:13:28.170Z</time>
      </trkpt>
      <trkpt lat="44.91736" lon="6.82537">
        <ele>1657</ele>
        <time>2014-07-31T14:13:29.270Z</time>
      </trkpt>
      <trkpt lat="44.91724" lon="6.8254">
        <ele>1657</ele>
        <time>2014-07-31T14:13:31.270Z</time>
      </trkpt>
      <trkpt lat="44.91711" lon="6.82545">
        <ele>1657</ele>
        <time>2014-07-31T14:13:33.270Z</time>
      </trkpt>
      <trkpt lat="44.91698" lon="6.82554">
        <ele>1654.9</ele>
        <time>2014-07-31T14:13:35.270Z</time>
      </trkpt>
      <trkpt lat="44.91683" lon="6.82562">
        <ele>1654</ele>
        <time>2014-07-31T14:13:37.270Z</time>
      </trkpt>
      <trkpt lat="44.91669" lon="6.82569">
        <ele>1654</ele>
        <time>2014-07-31T14:13:39.230Z</time>
      </trkpt>
      <trkpt lat="44.91656" lon="6.82577">
        <ele>1653</ele>
        <time>2014-07-31T14:13:41.270Z</time>
      </trkpt>
      <trkpt lat="44.91647" lon="6.82588">
        <ele>1653</ele>
        <time>2014-07-31T14:13:43.270Z</time>
      </trkpt>
      <trkpt lat="44.91638" lon="6.82597">
        <ele>1652.3</ele>
        <time>2014-07-31T14:13:45.270Z</time>
      </trkpt>
      <trkpt lat="44.9163" lon="6.82604">
        <ele>1652</ele>
        <time>2014-07-31T14:13:47.270Z</time>
      </trkpt>
      <trkpt lat="44.91624" lon="6.8261">
        <ele>1652</ele>
        <time>2014-07-31T14:13:49.250Z</time>
      </trkpt>
      <trkpt lat="44.91618" lon="6.82615">
        <ele>1652</ele>
        <time>2014-07-31T14:13:51.230Z</time>
      </trkpt>
      <trkpt lat="44.91613" lon="6.8262">
        <ele>1652</ele>
        <time>2014-07-31T14:13:53.270Z</time>
      </trkpt>
      <trkpt lat="44.91607" lon="6.82624">
        <ele>1653.2</ele>
        <time>2014-07-31T14:13:55.170Z</time>
      </trkpt>
      <trkpt lat="44.91604" lon="6.82627">
        <ele>1654</ele>
        <time>2014-07-31T14:13:56.210Z</time>
      </trkpt>
      <trkpt lat="44.91597" lon="6.82632">
        <ele>1654</ele>
        <time>2014-07-31T14:13:58.380Z</time>
      </trkpt>
      <trkpt lat="44.91589" lon="6.82639">
        <ele>1654</ele>
        <time>2014-07-31T14:14:00.130Z</time>
      </trkpt>
      <trkpt lat="44.91584" lon="6.82644">
        <ele>1654</ele>
        <time>2014-07-31T14:14:01.270Z</time>
      </trkpt>
      <trkpt lat="44.91573" lon="6.82656">
        <ele>1654</ele>
        <time>2014-07-31T14:14:03.270Z</time>
      </trkpt>
      <trkpt lat="44.91559" lon="6.82666">
        <ele>1652.6</ele>
        <time>2014-07-31T14:14:05.270Z</time>
      </trkpt>
      <trkpt lat="44.91543" lon="6.82674">
        <ele>1652</ele>
        <time>2014-07-31T14:14:07.270Z</time>
      </trkpt>
      <trkpt lat="44.91526" lon="6.82685">
        <ele>1652</ele>
        <time>2014-07-31T14:14:09.270Z</time>
      </trkpt>
      <trkpt lat="44.91508" lon="6.82692">
        <ele>1652</ele>
        <time>2014-07-31T14:14:11.270Z</time>
      </trkpt>
      <trkpt lat="44.91488" lon="6.82691">
        <ele>1652</ele>
        <time>2014-07-31T14:14:13.130Z</time>
      </trkpt>
      <trkpt lat="44.91478" lon="6.82691">
        <ele>1652</ele>
        <time>2014-07-31T14:14:14.270Z</time>
      </trkpt>
      <trkpt lat="44.91461" lon="6.82697">
        <ele>1644.8</ele>
        <time>2014-07-31T14:14:16.170Z</time>
      </trkpt>
      <trkpt lat="44.91454" lon="6.82703">
        <ele>1644</ele>
        <time>2014-07-31T14:14:17.230Z</time>
      </trkpt>
      <trkpt lat="44.91441" lon="6.82715">
        <ele>1645</ele>
        <time>2014-07-31T14:14:19.270Z</time>
      </trkpt>
      <trkpt lat="44.9143" lon="6.82725">
        <ele>1645</ele>
        <time>2014-07-31T14:14:21.270Z</time>
      </trkpt>
      <trkpt lat="44.9142" lon="6.82733">
        <ele>1645</ele>
        <time>2014-07-31T14:14:23.270Z</time>
      </trkpt>
      <trkpt lat="44.91413" lon="6.8274">
        <ele>1645</ele>
        <time>2014-07-31T14:14:25.150Z</time>
      </trkpt>
      <trkpt lat="44.91408" lon="6.82744">
        <ele>1645</ele>
        <time>2014-07-31T14:14:26.270Z</time>
      </trkpt>
      <trkpt lat="44.914" lon="6.82748">
        <ele>1645</ele>
        <time>2014-07-31T14:14:28.270Z</time>
      </trkpt>
      <trkpt lat="44.91392" lon="6.82751">
        <ele>1645</ele>
        <time>2014-07-31T14:14:30.230Z</time>
      </trkpt>
      <trkpt lat="44.91384" lon="6.82756">
        <ele>1645</ele>
        <time>2014-07-31T14:14:32.270Z</time>
      </trkpt>
      <trkpt lat="44.91378" lon="6.82762">
        <ele>1645</ele>
        <time>2014-07-31T14:14:34.230Z</time>
      </trkpt>
      <trkpt lat="44.91373" lon="6.82771">
        <ele>1646</ele>
        <time>2014-07-31T14:14:36.270Z</time>
      </trkpt>
      <trkpt lat="44.91369" lon="6.8278">
        <ele>1646</ele>
        <time>2014-07-31T14:14:38.270Z</time>
      </trkpt>
      <trkpt lat="44.91367" lon="6.82789">
        <ele>1646</ele>
        <time>2014-07-31T14:14:40.270Z</time>
      </trkpt>
      <trkpt lat="44.91366" lon="6.82799">
        <ele>1646</ele>
        <time>2014-07-31T14:14:42.280Z</time>
      </trkpt>
      <trkpt lat="44.91365" lon="6.82803">
        <ele>1646</ele>
        <time>2014-07-31T14:14:43.270Z</time>
      </trkpt>
      <trkpt lat="44.91363" lon="6.82812">
        <ele>1648.1</ele>
        <time>2014-07-31T14:14:45.270Z</time>
      </trkpt>
      <trkpt lat="44.91361" lon="6.82819">
        <ele>1649</ele>
        <time>2014-07-31T14:14:47.130Z</time>
      </trkpt>
      <trkpt lat="44.91359" lon="6.82822">
        <ele>1649</ele>
        <time>2014-07-31T14:14:48.270Z</time>
      </trkpt>
      <trkpt lat="44.91356" lon="6.82828">
        <ele>1649</ele>
        <time>2014-07-31T14:14:50.190Z</time>
      </trkpt>
      <trkpt lat="44.91351" lon="6.82833">
        <ele>1649</ele>
        <time>2014-07-31T14:14:52.170Z</time>
      </trkpt>
      <trkpt lat="44.91348" lon="6.82836">
        <ele>1649</ele>
        <time>2014-07-31T14:14:53.270Z</time>
      </trkpt>
      <trkpt lat="44.91344" lon="6.82842">
        <ele>1649.6</ele>
        <time>2014-07-31T14:14:55.170Z</time>
      </trkpt>
      <trkpt lat="44.91341" lon="6.82845">
        <ele>1650</ele>
        <time>2014-07-31T14:14:56.270Z</time>
      </trkpt>
      <trkpt lat="44.91335" lon="6.82852">
        <ele>1650</ele>
        <time>2014-07-31T14:14:58.170Z</time>
      </trkpt>
      <trkpt lat="44.91331" lon="6.82856">
        <ele>1650</ele>
        <time>2014-07-31T14:14:59.270Z</time>
      </trkpt>
      <trkpt lat="44.91323" lon="6.82867">
        <ele>1650</ele>
        <time>2014-07-31T14:15:01.260Z</time>
      </trkpt>
      <trkpt lat="44.9131" lon="6.82876">
        <ele>1650</ele>
        <time>2014-07-31T14:15:03.170Z</time>
      </trkpt>
      <trkpt lat="44.91303" lon="6.82879">
        <ele>1650</ele>
        <time>2014-07-31T14:15:04.230Z</time>
      </trkpt>
      <trkpt lat="44.9129" lon="6.82888">
        <ele>1648</ele>
        <time>2014-07-31T14:15:06.270Z</time>
      </trkpt>
      <trkpt lat="44.91281" lon="6.82902">
        <ele>1648</ele>
        <time>2014-07-31T14:15:08.270Z</time>
      </trkpt>
      <trkpt lat="44.91276" lon="6.82917">
        <ele>1648</ele>
        <time>2014-07-31T14:15:10.170Z</time>
      </trkpt>
      <trkpt lat="44.91273" lon="6.82925">
        <ele>1648</ele>
        <time>2014-07-31T14:15:11.270Z</time>
      </trkpt>
      <trkpt lat="44.91267" lon="6.82939">
        <ele>1648</ele>
        <time>2014-07-31T14:15:13.270Z</time>
      </trkpt>
      <trkpt lat="44.9126" lon="6.82952">
        <ele>1647.3</ele>
        <time>2014-07-31T14:15:15.270Z</time>
      </trkpt>
      <trkpt lat="44.91252" lon="6.82962">
        <ele>1647</ele>
        <time>2014-07-31T14:15:17.230Z</time>
      </trkpt>
      <trkpt lat="44.91243" lon="6.82968">
        <ele>1647</ele>
        <time>2014-07-31T14:15:19.270Z</time>
      </trkpt>
      <trkpt lat="44.91236" lon="6.82973">
        <ele>1647</ele>
        <time>2014-07-31T14:15:21.130Z</time>
      </trkpt>
      <trkpt lat="44.9123" lon="6.82982">
        <ele>1647</ele>
        <time>2014-07-31T14:15:23.170Z</time>
      </trkpt>
      <trkpt lat="44.91223" lon="6.8299">
        <ele>1647</ele>
        <time>2014-07-31T14:15:25.270Z</time>
      </trkpt>
      <trkpt lat="44.91216" lon="6.82999">
        <ele>1647</ele>
        <time>2014-07-31T14:15:27.270Z</time>
      </trkpt>
      <trkpt lat="44.91207" lon="6.83006">
        <ele>1647</ele>
        <time>2014-07-31T14:15:29.170Z</time>
      </trkpt>
      <trkpt lat="44.91202" lon="6.83008">
        <ele>1647</ele>
        <time>2014-07-31T14:15:30.270Z</time>
      </trkpt>
      <trkpt lat="44.91192" lon="6.83012">
        <ele>1647</ele>
        <time>2014-07-31T14:15:32.270Z</time>
      </trkpt>
      <trkpt lat="44.91181" lon="6.83016">
        <ele>1647</ele>
        <time>2014-07-31T14:15:34.230Z</time>
      </trkpt>
      <trkpt lat="44.9117" lon="6.83023">
        <ele>1647</ele>
        <time>2014-07-31T14:15:36.410Z</time>
      </trkpt>
      <trkpt lat="44.91161" lon="6.8303">
        <ele>1647</ele>
        <time>2014-07-31T14:15:38.230Z</time>
      </trkpt>
      <trkpt lat="44.91154" lon="6.83037">
        <ele>1647</ele>
        <time>2014-07-31T14:15:40.270Z</time>
      </trkpt>
      <trkpt lat="44.91148" lon="6.83043">
        <ele>1647</ele>
        <time>2014-07-31T14:15:42.270Z</time>
      </trkpt>
      <trkpt lat="44.91144" lon="6.8305">
        <ele>1647</ele>
        <time>2014-07-31T14:15:44.270Z</time>
      </trkpt>
      <trkpt lat="44.9114" lon="6.83058">
        <ele>1648</ele>
        <time>2014-07-31T14:15:46.270Z</time>
      </trkpt>
      <trkpt lat="44.91136" lon="6.83064">
        <ele>1648</ele>
        <time>2014-07-31T14:15:48.270Z</time>
      </trkpt>
      <trkpt lat="44.91131" lon="6.83067">
        <ele>1648</ele>
        <time>2014-07-31T14:15:50.250Z</time>
      </trkpt>
      <trkpt lat="44.91128" lon="6.83068">
        <ele>1648</ele>
        <time>2014-07-31T14:15:51.170Z</time>
      </trkpt>
      <trkpt lat="44.91123" lon="6.83068">
        <ele>1648</ele>
        <time>2014-07-31T14:15:53.270Z</time>
      </trkpt>
      <trkpt lat="44.91116" lon="6.83065">
        <ele>1650</ele>
        <time>2014-07-31T14:15:55.230Z</time>
      </trkpt>
      <trkpt lat="44.9111" lon="6.8306">
        <ele>1651</ele>
        <time>2014-07-31T14:15:57.270Z</time>
      </trkpt>
      <trkpt lat="44.91104" lon="6.83058">
        <ele>1651</ele>
        <time>2014-07-31T14:15:59.270Z</time>
      </trkpt>
      <trkpt lat="44.91098" lon="6.83057">
        <ele>1653</ele>
        <time>2014-07-31T14:16:01.260Z</time>
      </trkpt>
      <trkpt lat="44.91091" lon="6.83055">
        <ele>1653</ele>
        <time>2014-07-31T14:16:03.170Z</time>
      </trkpt>
      <trkpt lat="44.91088" lon="6.83054">
        <ele>1653</ele>
        <time>2014-07-31T14:16:04.270Z</time>
      </trkpt>
      <trkpt lat="44.91081" lon="6.83053">
        <ele>1653</ele>
        <time>2014-07-31T14:16:06.270Z</time>
      </trkpt>
      <trkpt lat="44.91073" lon="6.83053">
        <ele>1653</ele>
        <time>2014-07-31T14:16:08.270Z</time>
      </trkpt>
      <trkpt lat="44.91067" lon="6.83054">
        <ele>1653</ele>
        <time>2014-07-31T14:16:10.270Z</time>
      </trkpt>
      <trkpt lat="44.91061" lon="6.83057">
        <ele>1653</ele>
        <time>2014-07-31T14:16:12.190Z</time>
      </trkpt>
      <trkpt lat="44.91055" lon="6.83061">
        <ele>1653</ele>
        <time>2014-07-31T14:16:14.270Z</time>
      </trkpt>
      <trkpt lat="44.9105" lon="6.83065">
        <ele>1653</ele>
        <time>2014-07-31T14:16:16.280Z</time>
      </trkpt>
      <trkpt lat="44.91046" lon="6.83065">
        <ele>1653</ele>
        <time>2014-07-31T14:16:17.230Z</time>
      </trkpt>
      <trkpt lat="44.9104" lon="6.83068">
        <ele>1653</ele>
        <time>2014-07-31T14:16:19.270Z</time>
      </trkpt>
      <trkpt lat="44.9103" lon="6.83069">
        <ele>1653</ele>
        <time>2014-07-31T14:16:21.270Z</time>
      </trkpt>
      <trkpt lat="44.91018" lon="6.83067">
        <ele>1653</ele>
        <time>2014-07-31T14:16:23.250Z</time>
      </trkpt>
      <trkpt lat="44.91004" lon="6.83066">
        <ele>1653</ele>
        <time>2014-07-31T14:16:25.270Z</time>
      </trkpt>
      <trkpt lat="44.90992" lon="6.83065">
        <ele>1653</ele>
        <time>2014-07-31T14:16:27.270Z</time>
      </trkpt>
      <trkpt lat="44.90981" lon="6.83064">
        <ele>1653</ele>
        <time>2014-07-31T14:16:29.230Z</time>
      </trkpt>
      <trkpt lat="44.90972" lon="6.83061">
        <ele>1653</ele>
        <time>2014-07-31T14:16:31.270Z</time>
      </trkpt>
      <trkpt lat="44.90962" lon="6.83058">
        <ele>1653</ele>
        <time>2014-07-31T14:16:33.170Z</time>
      </trkpt>
      <trkpt lat="44.90957" lon="6.83056">
        <ele>1653</ele>
        <time>2014-07-31T14:16:34.230Z</time>
      </trkpt>
      <trkpt lat="44.90945" lon="6.83058">
        <ele>1654</ele>
        <time>2014-07-31T14:16:36.270Z</time>
      </trkpt>
      <trkpt lat="44.90934" lon="6.83066">
        <ele>1654</ele>
        <time>2014-07-31T14:16:38.170Z</time>
      </trkpt>
      <trkpt lat="44.90928" lon="6.83071">
        <ele>1654</ele>
        <time>2014-07-31T14:16:39.270Z</time>
      </trkpt>
      <trkpt lat="44.90916" lon="6.83075">
        <ele>1654</ele>
        <time>2014-07-31T14:16:41.270Z</time>
      </trkpt>
      <trkpt lat="44.90905" lon="6.83075">
        <ele>1654</ele>
        <time>2014-07-31T14:16:43.270Z</time>
      </trkpt>
      <trkpt lat="44.90896" lon="6.83078">
        <ele>1654</ele>
        <time>2014-07-31T14:16:45.270Z</time>
      </trkpt>
      <trkpt lat="44.9089" lon="6.83084">
        <ele>1654</ele>
        <time>2014-07-31T14:16:47.270Z</time>
      </trkpt>
      <trkpt lat="44.90884" lon="6.83093">
        <ele>1654</ele>
        <time>2014-07-31T14:16:49.270Z</time>
      </trkpt>
      <trkpt lat="44.90879" lon="6.83101">
        <ele>1654</ele>
        <time>2014-07-31T14:16:51.230Z</time>
      </trkpt>
      <trkpt lat="44.90875" lon="6.8311">
        <ele>1654</ele>
        <time>2014-07-31T14:16:53.270Z</time>
      </trkpt>
      <trkpt lat="44.9087" lon="6.83118">
        <ele>1654</ele>
        <time>2014-07-31T14:16:55.380Z</time>
      </trkpt>
      <trkpt lat="44.90866" lon="6.83126">
        <ele>1654</ele>
        <time>2014-07-31T14:16:57.270Z</time>
      </trkpt>
      <trkpt lat="44.9086" lon="6.83134">
        <ele>1654</ele>
        <time>2014-07-31T14:16:59.270Z</time>
      </trkpt>
      <trkpt lat="44.90853" lon="6.83143">
        <ele>1654</ele>
        <time>2014-07-31T14:17:01.260Z</time>
      </trkpt>
      <trkpt lat="44.90845" lon="6.8315">
        <ele>1654</ele>
        <time>2014-07-31T14:17:03.130Z</time>
      </trkpt>
      <trkpt lat="44.90835" lon="6.83157">
        <ele>1654</ele>
        <time>2014-07-31T14:17:05.270Z</time>
      </trkpt>
      <trkpt lat="44.90823" lon="6.83166">
        <ele>1654</ele>
        <time>2014-07-31T14:17:07.270Z</time>
      </trkpt>
      <trkpt lat="44.90813" lon="6.83179">
        <ele>1654</ele>
        <time>2014-07-31T14:17:09.170Z</time>
      </trkpt>
      <trkpt lat="44.90809" lon="6.83187">
        <ele>1654</ele>
        <time>2014-07-31T14:17:10.250Z</time>
      </trkpt>
      <trkpt lat="44.90802" lon="6.83206">
        <ele>1654</ele>
        <time>2014-07-31T14:17:12.270Z</time>
      </trkpt>
      <trkpt lat="44.90792" lon="6.83222">
        <ele>1654</ele>
        <time>2014-07-31T14:17:14.270Z</time>
      </trkpt>
      <trkpt lat="44.90781" lon="6.83235">
        <ele>1653</ele>
        <time>2014-07-31T14:17:16.270Z</time>
      </trkpt>
      <trkpt lat="44.90769" lon="6.83242">
        <ele>1653</ele>
        <time>2014-07-31T14:17:18.270Z</time>
      </trkpt>
      <trkpt lat="44.90757" lon="6.83249">
        <ele>1653</ele>
        <time>2014-07-31T14:17:20.230Z</time>
      </trkpt>
      <trkpt lat="44.90747" lon="6.83253">
        <ele>1653</ele>
        <time>2014-07-31T14:17:22.170Z</time>
      </trkpt>
      <trkpt lat="44.90741" lon="6.83253">
        <ele>1653</ele>
        <time>2014-07-31T14:17:23.270Z</time>
      </trkpt>
      <trkpt lat="44.90732" lon="6.83253">
        <ele>1651.6</ele>
        <time>2014-07-31T14:17:25.270Z</time>
      </trkpt>
      <trkpt lat="44.90724" lon="6.83256">
        <ele>1651</ele>
        <time>2014-07-31T14:17:27.270Z</time>
      </trkpt>
      <trkpt lat="44.90715" lon="6.8326">
        <ele>1651</ele>
        <time>2014-07-31T14:17:29.270Z</time>
      </trkpt>
      <trkpt lat="44.90707" lon="6.83264">
        <ele>1651</ele>
        <time>2014-07-31T14:17:31.170Z</time>
      </trkpt>
      <trkpt lat="44.90704" lon="6.83266">
        <ele>1651</ele>
        <time>2014-07-31T14:17:32.270Z</time>
      </trkpt>
      <trkpt lat="44.90699" lon="6.83271">
        <ele>1651</ele>
        <time>2014-07-31T14:17:34.230Z</time>
      </trkpt>
      <trkpt lat="44.90697" lon="6.83277">
        <ele>1651</ele>
        <time>2014-07-31T14:17:36.270Z</time>
      </trkpt>
      <trkpt lat="44.90698" lon="6.83284">
        <ele>1651</ele>
        <time>2014-07-31T14:17:38.170Z</time>
      </trkpt>
      <trkpt lat="44.90698" lon="6.83288">
        <ele>1651</ele>
        <time>2014-07-31T14:17:39.270Z</time>
      </trkpt>
      <trkpt lat="44.90699" lon="6.83294">
        <ele>1651</ele>
        <time>2014-07-31T14:17:41.270Z</time>
      </trkpt>
      <trkpt lat="44.907" lon="6.83301">
        <ele>1651</ele>
        <time>2014-07-31T14:17:43.170Z</time>
      </trkpt>
      <trkpt lat="44.907" lon="6.83305">
        <ele>1651</ele>
        <time>2014-07-31T14:17:44.270Z</time>
      </trkpt>
      <trkpt lat="44.90701" lon="6.83313">
        <ele>1653</ele>
        <time>2014-07-31T14:17:46.270Z</time>
      </trkpt>
      <trkpt lat="44.90701" lon="6.83319">
        <ele>1653</ele>
        <time>2014-07-31T14:17:48.270Z</time>
      </trkpt>
      <trkpt lat="44.90701" lon="6.83326">
        <ele>1653</ele>
        <time>2014-07-31T14:17:50.270Z</time>
      </trkpt>
      <trkpt lat="44.907" lon="6.83332">
        <ele>1653</ele>
        <time>2014-07-31T14:17:52.270Z</time>
      </trkpt>
      <trkpt lat="44.90697" lon="6.83338">
        <ele>1653</ele>
        <time>2014-07-31T14:17:54.230Z</time>
      </trkpt>
      <trkpt lat="44.90693" lon="6.83343">
        <ele>1656</ele>
        <time>2014-07-31T14:17:56.270Z</time>
      </trkpt>
      <trkpt lat="44.90688" lon="6.83345">
        <ele>1656</ele>
        <time>2014-07-31T14:17:58.270Z</time>
      </trkpt>
      <trkpt lat="44.90682" lon="6.83346">
        <ele>1656</ele>
        <time>2014-07-31T14:18:00.230Z</time>
      </trkpt>
      <trkpt lat="44.90677" lon="6.83349">
        <ele>1656</ele>
        <time>2014-07-31T14:18:02.270Z</time>
      </trkpt>
      <trkpt lat="44.90671" lon="6.83351">
        <ele>1656</ele>
        <time>2014-07-31T14:18:04.270Z</time>
      </trkpt>
      <trkpt lat="44.90666" lon="6.83354">
        <ele>1656</ele>
        <time>2014-07-31T14:18:06.170Z</time>
      </trkpt>
      <trkpt lat="44.90663" lon="6.83355">
        <ele>1656</ele>
        <time>2014-07-31T14:18:07.270Z</time>
      </trkpt>
      <trkpt lat="44.90658" lon="6.83357">
        <ele>1656</ele>
        <time>2014-07-31T14:18:09.170Z</time>
      </trkpt>
      <trkpt lat="44.90655" lon="6.83358">
        <ele>1656</ele>
        <time>2014-07-31T14:18:10.270Z</time>
      </trkpt>
      <trkpt lat="44.9065" lon="6.83359">
        <ele>1656</ele>
        <time>2014-07-31T14:18:12.270Z</time>
      </trkpt>
      <trkpt lat="44.90645" lon="6.83362">
        <ele>1656</ele>
        <time>2014-07-31T14:18:14.270Z</time>
      </trkpt>
      <trkpt lat="44.90641" lon="6.83365">
        <ele>1657</ele>
        <time>2014-07-31T14:18:16.270Z</time>
      </trkpt>
      <trkpt lat="44.90638" lon="6.83365">
        <ele>1657</ele>
        <time>2014-07-31T14:18:18.140Z</time>
      </trkpt>
      <trkpt lat="44.90637" lon="6.83364">
        <ele>1657</ele>
        <time>2014-07-31T14:18:19.170Z</time>
      </trkpt>
      <trkpt lat="44.90636" lon="6.83364">
        <ele>1657</ele>
        <time>2014-07-31T14:18:20.270Z</time>
      </trkpt>
      <trkpt lat="44.90633" lon="6.83364">
        <ele>1657</ele>
        <time>2014-07-31T14:18:22.270Z</time>
      </trkpt>
      <trkpt lat="44.9063" lon="6.83362">
        <ele>1657</ele>
        <time>2014-07-31T14:18:24.270Z</time>
      </trkpt>
      <trkpt lat="44.90626" lon="6.83358">
        <ele>1657</ele>
        <time>2014-07-31T14:18:26.270Z</time>
      </trkpt>
      <trkpt lat="44.90621" lon="6.83354">
        <ele>1657</ele>
        <time>2014-07-31T14:18:28.130Z</time>
      </trkpt>
      <trkpt lat="44.90617" lon="6.83346">
        <ele>1657</ele>
        <time>2014-07-31T14:18:30.270Z</time>
      </trkpt>
      <trkpt lat="44.90614" lon="6.83335">
        <ele>1657</ele>
        <time>2014-07-31T14:18:32.270Z</time>
      </trkpt>
      <trkpt lat="44.90611" lon="6.83321">
        <ele>1657</ele>
        <time>2014-07-31T14:18:34.170Z</time>
      </trkpt>
      <trkpt lat="44.9061" lon="6.83306">
        <ele>1656</ele>
        <time>2014-07-31T14:18:36.270Z</time>
      </trkpt>
      <trkpt lat="44.9061" lon="6.83292">
        <ele>1656</ele>
        <time>2014-07-31T14:18:38.170Z</time>
      </trkpt>
      <trkpt lat="44.9061" lon="6.83286">
        <ele>1656</ele>
        <time>2014-07-31T14:18:39.270Z</time>
      </trkpt>
      <trkpt lat="44.90609" lon="6.83274">
        <ele>1656</ele>
        <time>2014-07-31T14:18:41.270Z</time>
      </trkpt>
      <trkpt lat="44.90609" lon="6.83263">
        <ele>1656</ele>
        <time>2014-07-31T14:18:43.270Z</time>
      </trkpt>
      <trkpt lat="44.90611" lon="6.83253">
        <ele>1655.5</ele>
        <time>2014-07-31T14:18:45.100Z</time>
      </trkpt>
      <trkpt lat="44.90612" lon="6.83249">
        <ele>1655</ele>
        <time>2014-07-31T14:18:46.170Z</time>
      </trkpt>
      <trkpt lat="44.90614" lon="6.83247">
        <ele>1655</ele>
        <time>2014-07-31T14:18:47.250Z</time>
      </trkpt>
      <trkpt lat="44.90619" lon="6.83243">
        <ele>1655</ele>
        <time>2014-07-31T14:18:49.270Z</time>
      </trkpt>
      <trkpt lat="44.90622" lon="6.8324">
        <ele>1655</ele>
        <time>2014-07-31T14:18:51.230Z</time>
      </trkpt>
      <trkpt lat="44.90623" lon="6.83239">
        <ele>1655</ele>
        <time>2014-07-31T14:18:53.270Z</time>
      </trkpt>
      <trkpt lat="44.90622" lon="6.83237">
        <ele>1655</ele>
        <time>2014-07-31T14:18:57.270Z</time>
      </trkpt>
      <trkpt lat="44.90623" lon="6.83236">
        <ele>1655</ele>
        <time>2014-07-31T14:19:00.220Z</time>
      </trkpt>
      <trkpt lat="44.90621" lon="6.83235">
        <ele>1655</ele>
        <time>2014-07-31T14:19:02.130Z</time>
      </trkpt>
      <trkpt lat="44.90623" lon="6.83235">
        <ele>1655</ele>
        <time>2014-07-31T14:19:10.270Z</time>
      </trkpt>
      <trkpt lat="44.90622" lon="6.83236">
        <ele>1655</ele>
        <time>2014-07-31T14:19:20.270Z</time>
      </trkpt>
      <trkpt lat="44.90622" lon="6.83238">
        <ele>1655</ele>
        <time>2014-07-31T14:19:42.270Z</time>
      </trkpt>
      <trkpt lat="44.90622" lon="6.8324">
        <ele>1655</ele>
        <time>2014-07-31T14:19:44.270Z</time>
      </trkpt>
      <trkpt lat="44.90623" lon="6.83241">
        <ele>1655</ele>
        <time>2014-07-31T14:19:48.270Z</time>
      </trkpt>
      <trkpt lat="44.90625" lon="6.83241">
        <ele>1655</ele>
        <time>2014-07-31T14:19:53.230Z</time>
      </trkpt>
      <trkpt lat="44.90626" lon="6.83241">
        <ele>1656</ele>
        <time>2014-07-31T14:19:57.270Z</time>
      </trkpt>
      <trkpt lat="44.90625" lon="6.83239">
        <ele>1656</ele>
        <time>2014-07-31T14:19:59.270Z</time>
      </trkpt>
      <trkpt lat="44.90626" lon="6.83237">
        <ele>1656</ele>
        <time>2014-07-31T14:20:01.260Z</time>
      </trkpt>
      <trkpt lat="44.90626" lon="6.83234">
        <ele>1656</ele>
        <time>2014-07-31T14:20:03.270Z</time>
      </trkpt>
      <trkpt lat="44.90626" lon="6.83231">
        <ele>1656</ele>
        <time>2014-07-31T14:20:05.170Z</time>
      </trkpt>
      <trkpt lat="44.90626" lon="6.83229">
        <ele>1656</ele>
        <time>2014-07-31T14:20:06.270Z</time>
      </trkpt>
      <trkpt lat="44.90626" lon="6.83225">
        <ele>1656</ele>
        <time>2014-07-31T14:20:08.090Z</time>
      </trkpt>
      <trkpt lat="44.90626" lon="6.83224">
        <ele>1656</ele>
        <time>2014-07-31T14:20:09.340Z</time>
      </trkpt>
      <trkpt lat="44.90625" lon="6.8322">
        <ele>1656</ele>
        <time>2014-07-31T14:20:11.270Z</time>
      </trkpt>
      <trkpt lat="44.90625" lon="6.83216">
        <ele>1656</ele>
        <time>2014-07-31T14:20:13.170Z</time>
      </trkpt>
      <trkpt lat="44.90625" lon="6.83214">
        <ele>1656</ele>
        <time>2014-07-31T14:20:14.270Z</time>
      </trkpt>
      <trkpt lat="44.90626" lon="6.8321">
        <ele>1658</ele>
        <time>2014-07-31T14:20:16.270Z</time>
      </trkpt>
      <trkpt lat="44.90626" lon="6.83207">
        <ele>1658</ele>
        <time>2014-07-31T14:20:18.270Z</time>
      </trkpt>
      <trkpt lat="44.90625" lon="6.83203">
        <ele>1658</ele>
        <time>2014-07-31T14:20:20.250Z</time>
      </trkpt>
      <trkpt lat="44.90625" lon="6.83199">
        <ele>1658</ele>
        <time>2014-07-31T14:20:22.270Z</time>
      </trkpt>
      <trkpt lat="44.90625" lon="6.83195">
        <ele>1658</ele>
        <time>2014-07-31T14:20:24.350Z</time>
      </trkpt>
      <trkpt lat="44.90625" lon="6.83192">
        <ele>1659</ele>
        <time>2014-07-31T14:20:26.270Z</time>
      </trkpt>
      <trkpt lat="44.90625" lon="6.83188">
        <ele>1659</ele>
        <time>2014-07-31T14:20:28.170Z</time>
      </trkpt>
      <trkpt lat="44.90626" lon="6.83186">
        <ele>1659</ele>
        <time>2014-07-31T14:20:29.270Z</time>
      </trkpt>
      <trkpt lat="44.90627" lon="6.83181">
        <ele>1659</ele>
        <time>2014-07-31T14:20:31.270Z</time>
      </trkpt>
      <trkpt lat="44.90628" lon="6.83177">
        <ele>1659</ele>
        <time>2014-07-31T14:20:33.270Z</time>
      </trkpt>
      <trkpt lat="44.9063" lon="6.83174">
        <ele>1660.4</ele>
        <time>2014-07-31T14:20:35.270Z</time>
      </trkpt>
      <trkpt lat="44.90632" lon="6.83171">
        <ele>1661</ele>
        <time>2014-07-31T14:20:37.270Z</time>
      </trkpt>
      <trkpt lat="44.90633" lon="6.83168">
        <ele>1661</ele>
        <time>2014-07-31T14:20:39.170Z</time>
      </trkpt>
      <trkpt lat="44.90633" lon="6.83166">
        <ele>1661</ele>
        <time>2014-07-31T14:20:40.270Z</time>
      </trkpt>
      <trkpt lat="44.90634" lon="6.83163">
        <ele>1661</ele>
        <time>2014-07-31T14:20:42.270Z</time>
      </trkpt>
      <trkpt lat="44.90636" lon="6.8316">
        <ele>1661</ele>
        <time>2014-07-31T14:20:44.190Z</time>
      </trkpt>
      <trkpt lat="44.90638" lon="6.83157">
        <ele>1663</ele>
        <time>2014-07-31T14:20:46.270Z</time>
      </trkpt>
      <trkpt lat="44.9064" lon="6.83155">
        <ele>1663</ele>
        <time>2014-07-31T14:20:48.270Z</time>
      </trkpt>
      <trkpt lat="44.90641" lon="6.83152">
        <ele>1663</ele>
        <time>2014-07-31T14:20:50.270Z</time>
      </trkpt>
      <trkpt lat="44.90643" lon="6.83149">
        <ele>1663</ele>
        <time>2014-07-31T14:20:52.270Z</time>
      </trkpt>
      <trkpt lat="44.90644" lon="6.83146">
        <ele>1663</ele>
        <time>2014-07-31T14:20:54.270Z</time>
      </trkpt>
      <trkpt lat="44.90645" lon="6.83141">
        <ele>1666</ele>
        <time>2014-07-31T14:20:56.250Z</time>
      </trkpt>
      <trkpt lat="44.90647" lon="6.83137">
        <ele>1666</ele>
        <time>2014-07-31T14:20:58.170Z</time>
      </trkpt>
      <trkpt lat="44.90648" lon="6.83136">
        <ele>1666</ele>
        <time>2014-07-31T14:20:59.270Z</time>
      </trkpt>
      <trkpt lat="44.9065" lon="6.83133">
        <ele>1667</ele>
        <time>2014-07-31T14:21:01.150Z</time>
      </trkpt>
      <trkpt lat="44.90651" lon="6.83132">
        <ele>1667</ele>
        <time>2014-07-31T14:21:02.270Z</time>
      </trkpt>
      <trkpt lat="44.90652" lon="6.83129">
        <ele>1667</ele>
        <time>2014-07-31T14:21:04.280Z</time>
      </trkpt>
      <trkpt lat="44.90653" lon="6.83127">
        <ele>1667.7</ele>
        <time>2014-07-31T14:21:05.250Z</time>
      </trkpt>
      <trkpt lat="44.90655" lon="6.83124">
        <ele>1668</ele>
        <time>2014-07-31T14:21:07.170Z</time>
      </trkpt>
      <trkpt lat="44.90656" lon="6.83123">
        <ele>1668</ele>
        <time>2014-07-31T14:21:08.270Z</time>
      </trkpt>
      <trkpt lat="44.90657" lon="6.83121">
        <ele>1668</ele>
        <time>2014-07-31T14:21:10.270Z</time>
      </trkpt>
      <trkpt lat="44.90659" lon="6.83118">
        <ele>1668</ele>
        <time>2014-07-31T14:21:12.270Z</time>
      </trkpt>
      <trkpt lat="44.9066" lon="6.83116">
        <ele>1668</ele>
        <time>2014-07-31T14:21:14.270Z</time>
      </trkpt>
      <trkpt lat="44.90662" lon="6.83114">
        <ele>1670</ele>
        <time>2014-07-31T14:21:16.170Z</time>
      </trkpt>
      <trkpt lat="44.90663" lon="6.83113">
        <ele>1670</ele>
        <time>2014-07-31T14:21:17.200Z</time>
      </trkpt>
      <trkpt lat="44.90666" lon="6.83113">
        <ele>1670</ele>
        <time>2014-07-31T14:21:19.170Z</time>
      </trkpt>
      <trkpt lat="44.90667" lon="6.83112">
        <ele>1670</ele>
        <time>2014-07-31T14:21:20.270Z</time>
      </trkpt>
      <trkpt lat="44.9067" lon="6.83111">
        <ele>1670</ele>
        <time>2014-07-31T14:21:22.270Z</time>
      </trkpt>
      <trkpt lat="44.90672" lon="6.8311">
        <ele>1670</ele>
        <time>2014-07-31T14:21:24.170Z</time>
      </trkpt>
      <trkpt lat="44.90674" lon="6.8311">
        <ele>1671.4</ele>
        <time>2014-07-31T14:21:25.270Z</time>
      </trkpt>
      <trkpt lat="44.90677" lon="6.8311">
        <ele>1672</ele>
        <time>2014-07-31T14:21:27.270Z</time>
      </trkpt>
      <trkpt lat="44.9068" lon="6.83108">
        <ele>1672</ele>
        <time>2014-07-31T14:21:29.380Z</time>
      </trkpt>
      <trkpt lat="44.90683" lon="6.83106">
        <ele>1672</ele>
        <time>2014-07-31T14:21:31.270Z</time>
      </trkpt>
      <trkpt lat="44.90685" lon="6.83103">
        <ele>1672</ele>
        <time>2014-07-31T14:21:33.270Z</time>
      </trkpt>
      <trkpt lat="44.90688" lon="6.83102">
        <ele>1673.3</ele>
        <time>2014-07-31T14:21:35.230Z</time>
      </trkpt>
      <trkpt lat="44.90691" lon="6.831">
        <ele>1674</ele>
        <time>2014-07-31T14:21:37.170Z</time>
      </trkpt>
      <trkpt lat="44.90693" lon="6.83099">
        <ele>1674</ele>
        <time>2014-07-31T14:21:38.270Z</time>
      </trkpt>
      <trkpt lat="44.90696" lon="6.83097">
        <ele>1674</ele>
        <time>2014-07-31T14:21:40.270Z</time>
      </trkpt>
      <trkpt lat="44.907" lon="6.83095">
        <ele>1674</ele>
        <time>2014-07-31T14:21:42.270Z</time>
      </trkpt>
      <trkpt lat="44.90702" lon="6.83091">
        <ele>1674</ele>
        <time>2014-07-31T14:21:44.270Z</time>
      </trkpt>
      <trkpt lat="44.90703" lon="6.83086">
        <ele>1675</ele>
        <time>2014-07-31T14:21:46.270Z</time>
      </trkpt>
      <trkpt lat="44.90705" lon="6.8308">
        <ele>1675</ele>
        <time>2014-07-31T14:21:48.270Z</time>
      </trkpt>
      <trkpt lat="44.90706" lon="6.83074">
        <ele>1675</ele>
        <time>2014-07-31T14:21:50.170Z</time>
      </trkpt>
      <trkpt lat="44.90707" lon="6.83071">
        <ele>1675</ele>
        <time>2014-07-31T14:21:51.230Z</time>
      </trkpt>
      <trkpt lat="44.90708" lon="6.83065">
        <ele>1675</ele>
        <time>2014-07-31T14:21:53.280Z</time>
      </trkpt>
      <trkpt lat="44.90708" lon="6.83063">
        <ele>1675</ele>
        <time>2014-07-31T14:21:54.270Z</time>
      </trkpt>
      <trkpt lat="44.9071" lon="6.83059">
        <ele>1677</ele>
        <time>2014-07-31T14:21:56.270Z</time>
      </trkpt>
      <trkpt lat="44.90713" lon="6.83056">
        <ele>1677</ele>
        <time>2014-07-31T14:21:58.170Z</time>
      </trkpt>
      <trkpt lat="44.90714" lon="6.83054">
        <ele>1677</ele>
        <time>2014-07-31T14:21:59.270Z</time>
      </trkpt>
      <trkpt lat="44.90716" lon="6.83051">
        <ele>1677</ele>
        <time>2014-07-31T14:22:01.260Z</time>
      </trkpt>
      <trkpt lat="44.90718" lon="6.83049">
        <ele>1677</ele>
        <time>2014-07-31T14:22:03.270Z</time>
      </trkpt>
      <trkpt lat="44.90719" lon="6.83046">
        <ele>1677</ele>
        <time>2014-07-31T14:22:05.270Z</time>
      </trkpt>
      <trkpt lat="44.90721" lon="6.83044">
        <ele>1677</ele>
        <time>2014-07-31T14:22:07.270Z</time>
      </trkpt>
      <trkpt lat="44.9072" lon="6.83039">
        <ele>1677</ele>
        <time>2014-07-31T14:22:09.230Z</time>
      </trkpt>
      <trkpt lat="44.90721" lon="6.83036">
        <ele>1677</ele>
        <time>2014-07-31T14:22:11.170Z</time>
      </trkpt>
      <trkpt lat="44.90722" lon="6.83035">
        <ele>1677</ele>
        <time>2014-07-31T14:22:12.270Z</time>
      </trkpt>
      <trkpt lat="44.90723" lon="6.83031">
        <ele>1677</ele>
        <time>2014-07-31T14:22:14.270Z</time>
      </trkpt>
      <trkpt lat="44.90725" lon="6.83028">
        <ele>1676</ele>
        <time>2014-07-31T14:22:16.270Z</time>
      </trkpt>
      <trkpt lat="44.90726" lon="6.83025">
        <ele>1676</ele>
        <time>2014-07-31T14:22:18.270Z</time>
      </trkpt>
      <trkpt lat="44.90727" lon="6.83023">
        <ele>1676</ele>
        <time>2014-07-31T14:22:20.270Z</time>
      </trkpt>
      <trkpt lat="44.90726" lon="6.8302">
        <ele>1676</ele>
        <time>2014-07-31T14:22:22.270Z</time>
      </trkpt>
      <trkpt lat="44.90725" lon="6.83015">
        <ele>1676</ele>
        <time>2014-07-31T14:22:24.170Z</time>
      </trkpt>
      <trkpt lat="44.90725" lon="6.83012">
        <ele>1676</ele>
        <time>2014-07-31T14:22:25.270Z</time>
      </trkpt>
      <trkpt lat="44.90725" lon="6.83008">
        <ele>1676</ele>
        <time>2014-07-31T14:22:27.190Z</time>
      </trkpt>
      <trkpt lat="44.90723" lon="6.83005">
        <ele>1676</ele>
        <time>2014-07-31T14:22:29.270Z</time>
      </trkpt>
      <trkpt lat="44.90721" lon="6.83005">
        <ele>1676</ele>
        <time>2014-07-31T14:22:31.270Z</time>
      </trkpt>
      <trkpt lat="44.90719" lon="6.83004">
        <ele>1676</ele>
        <time>2014-07-31T14:22:33.270Z</time>
      </trkpt>
      <trkpt lat="44.90717" lon="6.83004">
        <ele>1677.4</ele>
        <time>2014-07-31T14:22:35.270Z</time>
      </trkpt>
      <trkpt lat="44.90715" lon="6.83005">
        <ele>1678</ele>
        <time>2014-07-31T14:22:37.170Z</time>
      </trkpt>
      <trkpt lat="44.90714" lon="6.83007">
        <ele>1678</ele>
        <time>2014-07-31T14:22:38.270Z</time>
      </trkpt>
      <trkpt lat="44.90713" lon="6.8301">
        <ele>1678</ele>
        <time>2014-07-31T14:22:40.270Z</time>
      </trkpt>
      <trkpt lat="44.90711" lon="6.83012">
        <ele>1678</ele>
        <time>2014-07-31T14:22:42.270Z</time>
      </trkpt>
      <trkpt lat="44.9071" lon="6.83014">
        <ele>1678</ele>
        <time>2014-07-31T14:22:44.170Z</time>
      </trkpt>
      <trkpt lat="44.90709" lon="6.83015">
        <ele>1679.4</ele>
        <time>2014-07-31T14:22:45.270Z</time>
      </trkpt>
      <trkpt lat="44.90707" lon="6.83018">
        <ele>1680</ele>
        <time>2014-07-31T14:22:47.270Z</time>
      </trkpt>
      <trkpt lat="44.90705" lon="6.83021">
        <ele>1680</ele>
        <time>2014-07-31T14:22:49.170Z</time>
      </trkpt>
      <trkpt lat="44.90704" lon="6.83021">
        <ele>1680</ele>
        <time>2014-07-31T14:22:50.270Z</time>
      </trkpt>
      <trkpt lat="44.90701" lon="6.83022">
        <ele>1680</ele>
        <time>2014-07-31T14:22:52.260Z</time>
      </trkpt>
      <trkpt lat="44.90699" lon="6.83021">
        <ele>1680</ele>
        <time>2014-07-31T14:22:54.270Z</time>
      </trkpt>
      <trkpt lat="44.90696" lon="6.83019">
        <ele>1682</ele>
        <time>2014-07-31T14:22:56.270Z</time>
      </trkpt>
      <trkpt lat="44.90694" lon="6.83018">
        <ele>1682</ele>
        <time>2014-07-31T14:22:58.170Z</time>
      </trkpt>
      <trkpt lat="44.90693" lon="6.83019">
        <ele>1682</ele>
        <time>2014-07-31T14:22:59.270Z</time>
      </trkpt>
      <trkpt lat="44.90691" lon="6.8302">
        <ele>1682</ele>
        <time>2014-07-31T14:23:01.160Z</time>
      </trkpt>
      <trkpt lat="44.9069" lon="6.8302">
        <ele>1682</ele>
        <time>2014-07-31T14:23:02.270Z</time>
      </trkpt>
      <trkpt lat="44.90688" lon="6.8302">
        <ele>1682</ele>
        <time>2014-07-31T14:23:04.270Z</time>
      </trkpt>
      <trkpt lat="44.90686" lon="6.83021">
        <ele>1685</ele>
        <time>2014-07-31T14:23:06.270Z</time>
      </trkpt>
      <trkpt lat="44.90685" lon="6.83022">
        <ele>1685</ele>
        <time>2014-07-31T14:23:08.270Z</time>
      </trkpt>
      <trkpt lat="44.90683" lon="6.83024">
        <ele>1685.6</ele>
        <time>2014-07-31T14:23:10.170Z</time>
      </trkpt>
      <trkpt lat="44.90681" lon="6.83027">
        <ele>1686</ele>
        <time>2014-07-31T14:23:13.270Z</time>
      </trkpt>
      <trkpt lat="44.90679" lon="6.83028">
        <ele>1686.6</ele>
        <time>2014-07-31T14:23:15.170Z</time>
      </trkpt>
      <trkpt lat="44.90677" lon="6.83029">
        <ele>1687</ele>
        <time>2014-07-31T14:23:16.270Z</time>
      </trkpt>
      <trkpt lat="44.90675" lon="6.8303">
        <ele>1687</ele>
        <time>2014-07-31T14:23:18.170Z</time>
      </trkpt>
      <trkpt lat="44.90672" lon="6.83031">
        <ele>1687</ele>
        <time>2014-07-31T14:23:21.270Z</time>
      </trkpt>
      <trkpt lat="44.90669" lon="6.83033">
        <ele>1687</ele>
        <time>2014-07-31T14:23:23.270Z</time>
      </trkpt>
      <trkpt lat="44.90666" lon="6.83035">
        <ele>1687.7</ele>
        <time>2014-07-31T14:23:25.270Z</time>
      </trkpt>
      <trkpt lat="44.90663" lon="6.83036">
        <ele>1688</ele>
        <time>2014-07-31T14:23:27.250Z</time>
      </trkpt>
      <trkpt lat="44.9066" lon="6.83036">
        <ele>1688</ele>
        <time>2014-07-31T14:23:29.270Z</time>
      </trkpt>
      <trkpt lat="44.90658" lon="6.83036">
        <ele>1688</ele>
        <time>2014-07-31T14:23:31.270Z</time>
      </trkpt>
      <trkpt lat="44.90656" lon="6.83037">
        <ele>1688</ele>
        <time>2014-07-31T14:23:33.270Z</time>
      </trkpt>
      <trkpt lat="44.90654" lon="6.83038">
        <ele>1689.4</ele>
        <time>2014-07-31T14:23:35.270Z</time>
      </trkpt>
      <trkpt lat="44.90651" lon="6.83039">
        <ele>1690</ele>
        <time>2014-07-31T14:23:37.270Z</time>
      </trkpt>
      <trkpt lat="44.9065" lon="6.83039">
        <ele>1690</ele>
        <time>2014-07-31T14:23:39.270Z</time>
      </trkpt>
      <trkpt lat="44.90647" lon="6.83038">
        <ele>1690</ele>
        <time>2014-07-31T14:23:41.270Z</time>
      </trkpt>
      <trkpt lat="44.90644" lon="6.83039">
        <ele>1690</ele>
        <time>2014-07-31T14:23:43.170Z</time>
      </trkpt>
      <trkpt lat="44.90642" lon="6.83039">
        <ele>1690</ele>
        <time>2014-07-31T14:23:44.270Z</time>
      </trkpt>
      <trkpt lat="44.90639" lon="6.83039">
        <ele>1692</ele>
        <time>2014-07-31T14:23:46.360Z</time>
      </trkpt>
      <trkpt lat="44.90637" lon="6.83039">
        <ele>1692</ele>
        <time>2014-07-31T14:23:48.270Z</time>
      </trkpt>
      <trkpt lat="44.90636" lon="6.8304">
        <ele>1692</ele>
        <time>2014-07-31T14:23:50.270Z</time>
      </trkpt>
      <trkpt lat="44.90633" lon="6.83042">
        <ele>1692</ele>
        <time>2014-07-31T14:23:52.190Z</time>
      </trkpt>
      <trkpt lat="44.90631" lon="6.83044">
        <ele>1692</ele>
        <time>2014-07-31T14:23:54.270Z</time>
      </trkpt>
      <trkpt lat="44.90628" lon="6.83045">
        <ele>1695</ele>
        <time>2014-07-31T14:23:56.270Z</time>
      </trkpt>
      <trkpt lat="44.90626" lon="6.83046">
        <ele>1695</ele>
        <time>2014-07-31T14:23:58.360Z</time>
      </trkpt>
      <trkpt lat="44.90624" lon="6.83044">
        <ele>1696.3</ele>
        <time>2014-07-31T14:24:00.220Z</time>
      </trkpt>
      <trkpt lat="44.90622" lon="6.83042">
        <ele>1697</ele>
        <time>2014-07-31T14:24:02.150Z</time>
      </trkpt>
      <trkpt lat="44.90622" lon="6.83041">
        <ele>1697</ele>
        <time>2014-07-31T14:24:03.270Z</time>
      </trkpt>
      <trkpt lat="44.90621" lon="6.83039">
        <ele>1697.6</ele>
        <time>2014-07-31T14:24:05.170Z</time>
      </trkpt>
      <trkpt lat="44.90622" lon="6.83037">
        <ele>1698</ele>
        <time>2014-07-31T14:24:06.270Z</time>
      </trkpt>
      <trkpt lat="44.90623" lon="6.83034">
        <ele>1698</ele>
        <time>2014-07-31T14:24:08.170Z</time>
      </trkpt>
      <trkpt lat="44.90624" lon="6.83031">
        <ele>1698.6</ele>
        <time>2014-07-31T14:24:10.160Z</time>
      </trkpt>
      <trkpt lat="44.90624" lon="6.83029">
        <ele>1699</ele>
        <time>2014-07-31T14:24:11.170Z</time>
      </trkpt>
      <trkpt lat="44.90625" lon="6.83028">
        <ele>1699</ele>
        <time>2014-07-31T14:24:12.270Z</time>
      </trkpt>
      <trkpt lat="44.90626" lon="6.83025">
        <ele>1699</ele>
        <time>2014-07-31T14:24:14.250Z</time>
      </trkpt>
      <trkpt lat="44.90629" lon="6.83023">
        <ele>1699</ele>
        <time>2014-07-31T14:24:16.270Z</time>
      </trkpt>
      <trkpt lat="44.90629" lon="6.83021">
        <ele>1699</ele>
        <time>2014-07-31T14:24:18.270Z</time>
      </trkpt>
      <trkpt lat="44.90631" lon="6.83018">
        <ele>1699</ele>
        <time>2014-07-31T14:24:20.270Z</time>
      </trkpt>
      <trkpt lat="44.90633" lon="6.83015">
        <ele>1699</ele>
        <time>2014-07-31T14:24:22.170Z</time>
      </trkpt>
      <trkpt lat="44.90635" lon="6.83014">
        <ele>1699</ele>
        <time>2014-07-31T14:24:23.270Z</time>
      </trkpt>
      <trkpt lat="44.90637" lon="6.83011">
        <ele>1699.7</ele>
        <time>2014-07-31T14:24:25.230Z</time>
      </trkpt>
      <trkpt lat="44.90638" lon="6.83008">
        <ele>1700</ele>
        <time>2014-07-31T14:24:27.270Z</time>
      </trkpt>
      <trkpt lat="44.90639" lon="6.83005">
        <ele>1700</ele>
        <time>2014-07-31T14:24:29.270Z</time>
      </trkpt>
      <trkpt lat="44.9064" lon="6.83003">
        <ele>1700</ele>
        <time>2014-07-31T14:24:31.270Z</time>
      </trkpt>
      <trkpt lat="44.9064" lon="6.83">
        <ele>1700</ele>
        <time>2014-07-31T14:24:33.270Z</time>
      </trkpt>
      <trkpt lat="44.9064" lon="6.82995">
        <ele>1701.8</ele>
        <time>2014-07-31T14:24:35.170Z</time>
      </trkpt>
      <trkpt lat="44.90641" lon="6.82994">
        <ele>1703</ele>
        <time>2014-07-31T14:24:36.270Z</time>
      </trkpt>
      <trkpt lat="44.90642" lon="6.82991">
        <ele>1703</ele>
        <time>2014-07-31T14:24:38.250Z</time>
      </trkpt>
      <trkpt lat="44.90644" lon="6.82989">
        <ele>1703.7</ele>
        <time>2014-07-31T14:24:40.270Z</time>
      </trkpt>
      <trkpt lat="44.90646" lon="6.82986">
        <ele>1704</ele>
        <time>2014-07-31T14:24:42.230Z</time>
      </trkpt>
      <trkpt lat="44.90648" lon="6.82984">
        <ele>1704</ele>
        <time>2014-07-31T14:24:44.270Z</time>
      </trkpt>
      <trkpt lat="44.9065" lon="6.82981">
        <ele>1706</ele>
        <time>2014-07-31T14:24:46.270Z</time>
      </trkpt>
      <trkpt lat="44.90651" lon="6.82978">
        <ele>1706</ele>
        <time>2014-07-31T14:24:48.270Z</time>
      </trkpt>
      <trkpt lat="44.90652" lon="6.82975">
        <ele>1706.6</ele>
        <time>2014-07-31T14:24:50.190Z</time>
      </trkpt>
      <trkpt lat="44.90653" lon="6.82973">
        <ele>1707</ele>
        <time>2014-07-31T14:24:52.270Z</time>
      </trkpt>
      <trkpt lat="44.90654" lon="6.82971">
        <ele>1707</ele>
        <time>2014-07-31T14:24:54.270Z</time>
      </trkpt>
      <trkpt lat="44.90655" lon="6.82969">
        <ele>1707</ele>
        <time>2014-07-31T14:24:56.270Z</time>
      </trkpt>
      <trkpt lat="44.90656" lon="6.82965">
        <ele>1707</ele>
        <time>2014-07-31T14:24:58.160Z</time>
      </trkpt>
      <trkpt lat="44.90656" lon="6.82963">
        <ele>1707</ele>
        <time>2014-07-31T14:24:59.230Z</time>
      </trkpt>
      <trkpt lat="44.90657" lon="6.8296">
        <ele>1707</ele>
        <time>2014-07-31T14:25:01.150Z</time>
      </trkpt>
      <trkpt lat="44.90657" lon="6.82958">
        <ele>1707</ele>
        <time>2014-07-31T14:25:02.270Z</time>
      </trkpt>
      <trkpt lat="44.90657" lon="6.82955">
        <ele>1707</ele>
        <time>2014-07-31T14:25:04.270Z</time>
      </trkpt>
      <trkpt lat="44.9066" lon="6.8295">
        <ele>1707</ele>
        <time>2014-07-31T14:25:06.270Z</time>
      </trkpt>
      <trkpt lat="44.90663" lon="6.82945">
        <ele>1707</ele>
        <time>2014-07-31T14:25:08.170Z</time>
      </trkpt>
      <trkpt lat="44.90665" lon="6.82943">
        <ele>1707</ele>
        <time>2014-07-31T14:25:09.270Z</time>
      </trkpt>
      <trkpt lat="44.90668" lon="6.82941">
        <ele>1707</ele>
        <time>2014-07-31T14:25:11.250Z</time>
      </trkpt>
      <trkpt lat="44.9067" lon="6.82937">
        <ele>1707</ele>
        <time>2014-07-31T14:25:13.270Z</time>
      </trkpt>
      <trkpt lat="44.90672" lon="6.82933">
        <ele>1707</ele>
        <time>2014-07-31T14:25:15.270Z</time>
      </trkpt>
      <trkpt lat="44.90674" lon="6.8293">
        <ele>1707</ele>
        <time>2014-07-31T14:25:17.230Z</time>
      </trkpt>
      <trkpt lat="44.90676" lon="6.82927">
        <ele>1707</ele>
        <time>2014-07-31T14:25:19.270Z</time>
      </trkpt>
      <trkpt lat="44.9068" lon="6.82925">
        <ele>1707</ele>
        <time>2014-07-31T14:25:21.270Z</time>
      </trkpt>
      <trkpt lat="44.90683" lon="6.82923">
        <ele>1707</ele>
        <time>2014-07-31T14:25:23.170Z</time>
      </trkpt>
      <trkpt lat="44.90684" lon="6.82922">
        <ele>1707</ele>
        <time>2014-07-31T14:25:24.270Z</time>
      </trkpt>
      <trkpt lat="44.90686" lon="6.8292">
        <ele>1709</ele>
        <time>2014-07-31T14:25:26.270Z</time>
      </trkpt>
      <trkpt lat="44.90687" lon="6.82918">
        <ele>1709</ele>
        <time>2014-07-31T14:25:28.270Z</time>
      </trkpt>
      <trkpt lat="44.9069" lon="6.82916">
        <ele>1709</ele>
        <time>2014-07-31T14:25:30.270Z</time>
      </trkpt>
      <trkpt lat="44.90692" lon="6.82914">
        <ele>1709</ele>
        <time>2014-07-31T14:25:32.270Z</time>
      </trkpt>
      <trkpt lat="44.90694" lon="6.82912">
        <ele>1709</ele>
        <time>2014-07-31T14:25:34.130Z</time>
      </trkpt>
      <trkpt lat="44.90695" lon="6.8291">
        <ele>1709.6</ele>
        <time>2014-07-31T14:25:35.180Z</time>
      </trkpt>
      <trkpt lat="44.90695" lon="6.82909">
        <ele>1710</ele>
        <time>2014-07-31T14:25:36.270Z</time>
      </trkpt>
      <trkpt lat="44.90697" lon="6.82907">
        <ele>1710</ele>
        <time>2014-07-31T14:25:38.270Z</time>
      </trkpt>
      <trkpt lat="44.90699" lon="6.82905">
        <ele>1710</ele>
        <time>2014-07-31T14:25:40.270Z</time>
      </trkpt>
      <trkpt lat="44.907" lon="6.82901">
        <ele>1710</ele>
        <time>2014-07-31T14:25:42.270Z</time>
      </trkpt>
      <trkpt lat="44.90699" lon="6.82897">
        <ele>1710</ele>
        <time>2014-07-31T14:25:44.270Z</time>
      </trkpt>
      <trkpt lat="44.90699" lon="6.82893">
        <ele>1711</ele>
        <time>2014-07-31T14:25:46.170Z</time>
      </trkpt>
      <trkpt lat="44.90699" lon="6.82892">
        <ele>1711</ele>
        <time>2014-07-31T14:25:47.270Z</time>
      </trkpt>
      <trkpt lat="44.90698" lon="6.82889">
        <ele>1711</ele>
        <time>2014-07-31T14:25:49.270Z</time>
      </trkpt>
      <trkpt lat="44.90697" lon="6.82888">
        <ele>1711</ele>
        <time>2014-07-31T14:25:51.230Z</time>
      </trkpt>
      <trkpt lat="44.90694" lon="6.82887">
        <ele>1711</ele>
        <time>2014-07-31T14:25:53.270Z</time>
      </trkpt>
      <trkpt lat="44.90692" lon="6.82887">
        <ele>1712.4</ele>
        <time>2014-07-31T14:25:55.270Z</time>
      </trkpt>
      <trkpt lat="44.90691" lon="6.82889">
        <ele>1713</ele>
        <time>2014-07-31T14:25:57.270Z</time>
      </trkpt>
      <trkpt lat="44.90689" lon="6.82889">
        <ele>1713</ele>
        <time>2014-07-31T14:25:59.270Z</time>
      </trkpt>
      <trkpt lat="44.90685" lon="6.8289">
        <ele>1713</ele>
        <time>2014-07-31T14:26:01.260Z</time>
      </trkpt>
      <trkpt lat="44.90683" lon="6.82891">
        <ele>1713</ele>
        <time>2014-07-31T14:26:03.270Z</time>
      </trkpt>
      <trkpt lat="44.90682" lon="6.82891">
        <ele>1715.7</ele>
        <time>2014-07-31T14:26:05.270Z</time>
      </trkpt>
      <trkpt lat="44.9068" lon="6.8289">
        <ele>1717</ele>
        <time>2014-07-31T14:26:07.130Z</time>
      </trkpt>
      <trkpt lat="44.90679" lon="6.82891">
        <ele>1717</ele>
        <time>2014-07-31T14:26:08.270Z</time>
      </trkpt>
      <trkpt lat="44.90677" lon="6.8289">
        <ele>1718.2</ele>
        <time>2014-07-31T14:26:10.190Z</time>
      </trkpt>
      <trkpt lat="44.90672" lon="6.82889">
        <ele>1719</ele>
        <time>2014-07-31T14:26:12.270Z</time>
      </trkpt>
      <trkpt lat="44.9067" lon="6.82888">
        <ele>1719</ele>
        <time>2014-07-31T14:26:14.170Z</time>
      </trkpt>
      <trkpt lat="44.9067" lon="6.82886">
        <ele>1719.7</ele>
        <time>2014-07-31T14:26:15.270Z</time>
      </trkpt>
      <trkpt lat="44.90666" lon="6.82883">
        <ele>1720</ele>
        <time>2014-07-31T14:26:20.270Z</time>
      </trkpt>
      <trkpt lat="44.90665" lon="6.82882">
        <ele>1720</ele>
        <time>2014-07-31T14:26:22.270Z</time>
      </trkpt>
      <trkpt lat="44.90663" lon="6.82882">
        <ele>1720</ele>
        <time>2014-07-31T14:26:24.130Z</time>
      </trkpt>
      <trkpt lat="44.90661" lon="6.82881">
        <ele>1722</ele>
        <time>2014-07-31T14:26:28.270Z</time>
      </trkpt>
      <trkpt lat="44.9066" lon="6.82882">
        <ele>1722</ele>
        <time>2014-07-31T14:26:30.270Z</time>
      </trkpt>
      <trkpt lat="44.90658" lon="6.82882">
        <ele>1722</ele>
        <time>2014-07-31T14:26:32.270Z</time>
      </trkpt>
      <trkpt lat="44.90656" lon="6.82883">
        <ele>1722</ele>
        <time>2014-07-31T14:26:34.230Z</time>
      </trkpt>
      <trkpt lat="44.90654" lon="6.82884">
        <ele>1723</ele>
        <time>2014-07-31T14:26:36.270Z</time>
      </trkpt>
      <trkpt lat="44.90653" lon="6.82885">
        <ele>1723</ele>
        <time>2014-07-31T14:26:39.270Z</time>
      </trkpt>
      <trkpt lat="44.90652" lon="6.82885">
        <ele>1723</ele>
        <time>2014-07-31T14:26:41.230Z</time>
      </trkpt>
      <trkpt lat="44.9065" lon="6.82886">
        <ele>1723</ele>
        <time>2014-07-31T14:26:43.270Z</time>
      </trkpt>
      <trkpt lat="44.90649" lon="6.82887">
        <ele>1724.4</ele>
        <time>2014-07-31T14:26:45.270Z</time>
      </trkpt>
      <trkpt lat="44.90648" lon="6.82889">
        <ele>1725</ele>
        <time>2014-07-31T14:26:47.250Z</time>
      </trkpt>
      <trkpt lat="44.90647" lon="6.82891">
        <ele>1725</ele>
        <time>2014-07-31T14:26:49.280Z</time>
      </trkpt>
      <trkpt lat="44.90647" lon="6.82892">
        <ele>1725</ele>
        <time>2014-07-31T14:26:50.270Z</time>
      </trkpt>
      <trkpt lat="44.90647" lon="6.82894">
        <ele>1725</ele>
        <time>2014-07-31T14:26:52.270Z</time>
      </trkpt>
      <trkpt lat="44.90646" lon="6.82896">
        <ele>1725</ele>
        <time>2014-07-31T14:26:54.170Z</time>
      </trkpt>
      <trkpt lat="44.90646" lon="6.82897">
        <ele>1726.4</ele>
        <time>2014-07-31T14:26:55.270Z</time>
      </trkpt>
      <trkpt lat="44.90645" lon="6.82899">
        <ele>1727</ele>
        <time>2014-07-31T14:26:57.270Z</time>
      </trkpt>
      <trkpt lat="44.90644" lon="6.82901">
        <ele>1727</ele>
        <time>2014-07-31T14:26:59.170Z</time>
      </trkpt>
      <trkpt lat="44.90644" lon="6.82903">
        <ele>1727</ele>
        <time>2014-07-31T14:27:01.260Z</time>
      </trkpt>
      <trkpt lat="44.90642" lon="6.82905">
        <ele>1727</ele>
        <time>2014-07-31T14:27:03.270Z</time>
      </trkpt>
      <trkpt lat="44.90642" lon="6.82907">
        <ele>1727</ele>
        <time>2014-07-31T14:27:05.270Z</time>
      </trkpt>
      <trkpt lat="44.9064" lon="6.8291">
        <ele>1727</ele>
        <time>2014-07-31T14:27:07.170Z</time>
      </trkpt>
      <trkpt lat="44.90639" lon="6.82911">
        <ele>1727</ele>
        <time>2014-07-31T14:27:08.270Z</time>
      </trkpt>
      <trkpt lat="44.90637" lon="6.82912">
        <ele>1727</ele>
        <time>2014-07-31T14:27:10.270Z</time>
      </trkpt>
      <trkpt lat="44.90635" lon="6.82913">
        <ele>1727</ele>
        <time>2014-07-31T14:27:12.170Z</time>
      </trkpt>
      <trkpt lat="44.90634" lon="6.82915">
        <ele>1728.3</ele>
        <time>2014-07-31T14:27:15.230Z</time>
      </trkpt>
      <trkpt lat="44.90631" lon="6.82915">
        <ele>1729</ele>
        <time>2014-07-31T14:27:17.230Z</time>
      </trkpt>
      <trkpt lat="44.90628" lon="6.82915">
        <ele>1729</ele>
        <time>2014-07-31T14:27:19.270Z</time>
      </trkpt>
      <trkpt lat="44.90626" lon="6.82914">
        <ele>1729</ele>
        <time>2014-07-31T14:27:21.270Z</time>
      </trkpt>
      <trkpt lat="44.90624" lon="6.82913">
        <ele>1729</ele>
        <time>2014-07-31T14:27:23.170Z</time>
      </trkpt>
      <trkpt lat="44.90622" lon="6.82913">
        <ele>1730.4</ele>
        <time>2014-07-31T14:27:25.270Z</time>
      </trkpt>
      <trkpt lat="44.9062" lon="6.82911">
        <ele>1731</ele>
        <time>2014-07-31T14:27:27.270Z</time>
      </trkpt>
      <trkpt lat="44.90619" lon="6.82909">
        <ele>1731</ele>
        <time>2014-07-31T14:27:29.270Z</time>
      </trkpt>
      <trkpt lat="44.90617" lon="6.82909">
        <ele>1731</ele>
        <time>2014-07-31T14:27:31.270Z</time>
      </trkpt>
      <trkpt lat="44.90615" lon="6.82909">
        <ele>1731</ele>
        <time>2014-07-31T14:27:33.170Z</time>
      </trkpt>
      <trkpt lat="44.90614" lon="6.82909">
        <ele>1731</ele>
        <time>2014-07-31T14:27:34.230Z</time>
      </trkpt>
      <trkpt lat="44.90613" lon="6.8291">
        <ele>1734</ele>
        <time>2014-07-31T14:27:36.170Z</time>
      </trkpt>
      <trkpt lat="44.90609" lon="6.82909">
        <ele>1734</ele>
        <time>2014-07-31T14:27:39.270Z</time>
      </trkpt>
      <trkpt lat="44.90607" lon="6.82909">
        <ele>1735</ele>
        <time>2014-07-31T14:27:41.270Z</time>
      </trkpt>
      <trkpt lat="44.90604" lon="6.82909">
        <ele>1735</ele>
        <time>2014-07-31T14:27:43.270Z</time>
      </trkpt>
      <trkpt lat="44.90602" lon="6.82909">
        <ele>1735</ele>
        <time>2014-07-31T14:27:45.270Z</time>
      </trkpt>
      <trkpt lat="44.90599" lon="6.8291">
        <ele>1735</ele>
        <time>2014-07-31T14:27:47.270Z</time>
      </trkpt>
      <trkpt lat="44.90597" lon="6.8291">
        <ele>1735</ele>
        <time>2014-07-31T14:27:49.230Z</time>
      </trkpt>
      <trkpt lat="44.90595" lon="6.82909">
        <ele>1735</ele>
        <time>2014-07-31T14:27:51.070Z</time>
      </trkpt>
      <trkpt lat="44.90594" lon="6.82909">
        <ele>1735</ele>
        <time>2014-07-31T14:27:52.270Z</time>
      </trkpt>
      <trkpt lat="44.90592" lon="6.82909">
        <ele>1735</ele>
        <time>2014-07-31T14:27:54.170Z</time>
      </trkpt>
      <trkpt lat="44.90588" lon="6.8291">
        <ele>1737</ele>
        <time>2014-07-31T14:27:57.270Z</time>
      </trkpt>
      <trkpt lat="44.90586" lon="6.82911">
        <ele>1737</ele>
        <time>2014-07-31T14:27:59.150Z</time>
      </trkpt>
      <trkpt lat="44.90584" lon="6.82911">
        <ele>1737</ele>
        <time>2014-07-31T14:28:01.260Z</time>
      </trkpt>
      <trkpt lat="44.90582" lon="6.82911">
        <ele>1737</ele>
        <time>2014-07-31T14:28:03.170Z</time>
      </trkpt>
      <trkpt lat="44.90581" lon="6.82911">
        <ele>1739</ele>
        <time>2014-07-31T14:28:06.230Z</time>
      </trkpt>
      <trkpt lat="44.90579" lon="6.82912">
        <ele>1739</ele>
        <time>2014-07-31T14:28:08.170Z</time>
      </trkpt>
      <trkpt lat="44.90577" lon="6.82912">
        <ele>1739</ele>
        <time>2014-07-31T14:28:09.250Z</time>
      </trkpt>
      <trkpt lat="44.90575" lon="6.82912">
        <ele>1739</ele>
        <time>2014-07-31T14:28:11.270Z</time>
      </trkpt>
      <trkpt lat="44.90573" lon="6.82912">
        <ele>1739</ele>
        <time>2014-07-31T14:28:13.270Z</time>
      </trkpt>
      <trkpt lat="44.90571" lon="6.82912">
        <ele>1739.7</ele>
        <time>2014-07-31T14:28:15.270Z</time>
      </trkpt>
      <trkpt lat="44.90569" lon="6.82912">
        <ele>1740</ele>
        <time>2014-07-31T14:28:17.230Z</time>
      </trkpt>
      <trkpt lat="44.90568" lon="6.82911">
        <ele>1740</ele>
        <time>2014-07-31T14:28:19.270Z</time>
      </trkpt>
      <trkpt lat="44.90568" lon="6.82909">
        <ele>1740</ele>
        <time>2014-07-31T14:28:21.150Z</time>
      </trkpt>
      <trkpt lat="44.90567" lon="6.82908">
        <ele>1740</ele>
        <time>2014-07-31T14:28:22.270Z</time>
      </trkpt>
      <trkpt lat="44.90567" lon="6.82905">
        <ele>1740</ele>
        <time>2014-07-31T14:28:24.170Z</time>
      </trkpt>
      <trkpt lat="44.90567" lon="6.82902">
        <ele>1742</ele>
        <time>2014-07-31T14:28:26.270Z</time>
      </trkpt>
      <trkpt lat="44.90568" lon="6.82899">
        <ele>1742</ele>
        <time>2014-07-31T14:28:28.270Z</time>
      </trkpt>
      <trkpt lat="44.90569" lon="6.82896">
        <ele>1742</ele>
        <time>2014-07-31T14:28:30.270Z</time>
      </trkpt>
      <trkpt lat="44.90571" lon="6.82894">
        <ele>1742</ele>
        <time>2014-07-31T14:28:32.270Z</time>
      </trkpt>
      <trkpt lat="44.90571" lon="6.8289">
        <ele>1742</ele>
        <time>2014-07-31T14:28:34.230Z</time>
      </trkpt>
      <trkpt lat="44.90572" lon="6.82888">
        <ele>1744</ele>
        <time>2014-07-31T14:28:36.270Z</time>
      </trkpt>
      <trkpt lat="44.90571" lon="6.82886">
        <ele>1744</ele>
        <time>2014-07-31T14:28:38.270Z</time>
      </trkpt>
      <trkpt lat="44.90571" lon="6.82881">
        <ele>1744</ele>
        <time>2014-07-31T14:28:40.210Z</time>
      </trkpt>
      <trkpt lat="44.90573" lon="6.82878">
        <ele>1744</ele>
        <time>2014-07-31T14:28:42.170Z</time>
      </trkpt>
      <trkpt lat="44.90574" lon="6.82877">
        <ele>1744</ele>
        <time>2014-07-31T14:28:43.270Z</time>
      </trkpt>
      <trkpt lat="44.90575" lon="6.82875">
        <ele>1744.7</ele>
        <time>2014-07-31T14:28:45.270Z</time>
      </trkpt>
      <trkpt lat="44.90575" lon="6.82872">
        <ele>1745</ele>
        <time>2014-07-31T14:28:47.270Z</time>
      </trkpt>
      <trkpt lat="44.90577" lon="6.82869">
        <ele>1745</ele>
        <time>2014-07-31T14:28:49.270Z</time>
      </trkpt>
      <trkpt lat="44.90578" lon="6.82867">
        <ele>1745</ele>
        <time>2014-07-31T14:28:51.230Z</time>
      </trkpt>
      <trkpt lat="44.9058" lon="6.82866">
        <ele>1745</ele>
        <time>2014-07-31T14:28:53.170Z</time>
      </trkpt>
      <trkpt lat="44.90581" lon="6.82865">
        <ele>1745</ele>
        <time>2014-07-31T14:28:54.270Z</time>
      </trkpt>
      <trkpt lat="44.90582" lon="6.82862">
        <ele>1746</ele>
        <time>2014-07-31T14:28:56.250Z</time>
      </trkpt>
      <trkpt lat="44.90583" lon="6.8286">
        <ele>1746</ele>
        <time>2014-07-31T14:28:58.170Z</time>
      </trkpt>
      <trkpt lat="44.90583" lon="6.82858">
        <ele>1746</ele>
        <time>2014-07-31T14:28:59.270Z</time>
      </trkpt>
      <trkpt lat="44.90584" lon="6.82855">
        <ele>1746</ele>
        <time>2014-07-31T14:29:01.260Z</time>
      </trkpt>
      <trkpt lat="44.90583" lon="6.82852">
        <ele>1746</ele>
        <time>2014-07-31T14:29:03.270Z</time>
      </trkpt>
      <trkpt lat="44.90584" lon="6.82848">
        <ele>1747.3</ele>
        <time>2014-07-31T14:29:05.270Z</time>
      </trkpt>
      <trkpt lat="44.90585" lon="6.82845">
        <ele>1748</ele>
        <time>2014-07-31T14:29:07.170Z</time>
      </trkpt>
      <trkpt lat="44.90586" lon="6.82844">
        <ele>1748</ele>
        <time>2014-07-31T14:29:08.270Z</time>
      </trkpt>
      <trkpt lat="44.90587" lon="6.82842">
        <ele>1748</ele>
        <time>2014-07-31T14:29:10.270Z</time>
      </trkpt>
      <trkpt lat="44.90588" lon="6.8284">
        <ele>1748</ele>
        <time>2014-07-31T14:29:12.270Z</time>
      </trkpt>
      <trkpt lat="44.90589" lon="6.82836">
        <ele>1748</ele>
        <time>2014-07-31T14:29:14.230Z</time>
      </trkpt>
      <trkpt lat="44.90589" lon="6.82833">
        <ele>1750</ele>
        <time>2014-07-31T14:29:16.270Z</time>
      </trkpt>
      <trkpt lat="44.90588" lon="6.8283">
        <ele>1750</ele>
        <time>2014-07-31T14:29:18.170Z</time>
      </trkpt>
      <trkpt lat="44.90589" lon="6.82828">
        <ele>1750</ele>
        <time>2014-07-31T14:29:19.270Z</time>
      </trkpt>
      <trkpt lat="44.9059" lon="6.82825">
        <ele>1750</ele>
        <time>2014-07-31T14:29:21.270Z</time>
      </trkpt>
      <trkpt lat="44.9059" lon="6.82823">
        <ele>1750</ele>
        <time>2014-07-31T14:29:23.170Z</time>
      </trkpt>
      <trkpt lat="44.9059" lon="6.82822">
        <ele>1750</ele>
        <time>2014-07-31T14:29:24.270Z</time>
      </trkpt>
      <trkpt lat="44.90591" lon="6.8282">
        <ele>1752</ele>
        <time>2014-07-31T14:29:26.270Z</time>
      </trkpt>
      <trkpt lat="44.90592" lon="6.82817">
        <ele>1752</ele>
        <time>2014-07-31T14:29:28.270Z</time>
      </trkpt>
      <trkpt lat="44.90594" lon="6.82815">
        <ele>1752</ele>
        <time>2014-07-31T14:29:30.270Z</time>
      </trkpt>
      <trkpt lat="44.90596" lon="6.82813">
        <ele>1752</ele>
        <time>2014-07-31T14:29:32.270Z</time>
      </trkpt>
      <trkpt lat="44.90598" lon="6.82811">
        <ele>1752</ele>
        <time>2014-07-31T14:29:34.230Z</time>
      </trkpt>
      <trkpt lat="44.90599" lon="6.82808">
        <ele>1754</ele>
        <time>2014-07-31T14:29:36.170Z</time>
      </trkpt>
      <trkpt lat="44.906" lon="6.82807">
        <ele>1754</ele>
        <time>2014-07-31T14:29:37.270Z</time>
      </trkpt>
      <trkpt lat="44.90602" lon="6.82806">
        <ele>1754</ele>
        <time>2014-07-31T14:29:39.270Z</time>
      </trkpt>
      <trkpt lat="44.90603" lon="6.82803">
        <ele>1754</ele>
        <time>2014-07-31T14:29:41.270Z</time>
      </trkpt>
      <trkpt lat="44.90603" lon="6.82801">
        <ele>1754</ele>
        <time>2014-07-31T14:29:43.270Z</time>
      </trkpt>
      <trkpt lat="44.90604" lon="6.82799">
        <ele>1756.1</ele>
        <time>2014-07-31T14:29:45.270Z</time>
      </trkpt>
      <trkpt lat="44.90605" lon="6.82797">
        <ele>1757</ele>
        <time>2014-07-31T14:29:47.270Z</time>
      </trkpt>
      <trkpt lat="44.90606" lon="6.82795">
        <ele>1757</ele>
        <time>2014-07-31T14:29:49.170Z</time>
      </trkpt>
      <trkpt lat="44.90606" lon="6.82794">
        <ele>1757.7</ele>
        <time>2014-07-31T14:29:50.270Z</time>
      </trkpt>
      <trkpt lat="44.90607" lon="6.82793">
        <ele>1758</ele>
        <time>2014-07-31T14:29:52.170Z</time>
      </trkpt>
      <trkpt lat="44.90608" lon="6.82792">
        <ele>1758</ele>
        <time>2014-07-31T14:29:53.270Z</time>
      </trkpt>
      <trkpt lat="44.90609" lon="6.8279">
        <ele>1758</ele>
        <time>2014-07-31T14:29:55.270Z</time>
      </trkpt>
      <trkpt lat="44.9061" lon="6.82787">
        <ele>1758</ele>
        <time>2014-07-31T14:29:57.270Z</time>
      </trkpt>
      <trkpt lat="44.90611" lon="6.82785">
        <ele>1758</ele>
        <time>2014-07-31T14:29:59.270Z</time>
      </trkpt>
      <trkpt lat="44.90612" lon="6.82783">
        <ele>1758</ele>
        <time>2014-07-31T14:30:01.160Z</time>
      </trkpt>
      <trkpt lat="44.90613" lon="6.82782">
        <ele>1758</ele>
        <time>2014-07-31T14:30:02.270Z</time>
      </trkpt>
      <trkpt lat="44.90614" lon="6.82781">
        <ele>1758</ele>
        <time>2014-07-31T14:30:04.170Z</time>
      </trkpt>
      <trkpt lat="44.90616" lon="6.82781">
        <ele>1759.3</ele>
        <time>2014-07-31T14:30:05.230Z</time>
      </trkpt>
      <trkpt lat="44.90618" lon="6.82781">
        <ele>1760</ele>
        <time>2014-07-31T14:30:07.270Z</time>
      </trkpt>
      <trkpt lat="44.90621" lon="6.82781">
        <ele>1760</ele>
        <time>2014-07-31T14:30:09.170Z</time>
      </trkpt>
      <trkpt lat="44.90621" lon="6.82777">
        <ele>1760</ele>
        <time>2014-07-31T14:30:12.270Z</time>
      </trkpt>
      <trkpt lat="44.90624" lon="6.82776">
        <ele>1760</ele>
        <time>2014-07-31T14:30:14.170Z</time>
      </trkpt>
      <trkpt lat="44.90626" lon="6.82776">
        <ele>1761.4</ele>
        <time>2014-07-31T14:30:15.250Z</time>
      </trkpt>
      <trkpt lat="44.90628" lon="6.82775">
        <ele>1762</ele>
        <time>2014-07-31T14:30:17.230Z</time>
      </trkpt>
      <trkpt lat="44.90631" lon="6.82774">
        <ele>1762</ele>
        <time>2014-07-31T14:30:19.270Z</time>
      </trkpt>
      <trkpt lat="44.90636" lon="6.82774">
        <ele>1762</ele>
        <time>2014-07-31T14:30:21.270Z</time>
      </trkpt>
      <trkpt lat="44.9064" lon="6.82773">
        <ele>1762</ele>
        <time>2014-07-31T14:30:23.270Z</time>
      </trkpt>
      <trkpt lat="44.90644" lon="6.82772">
        <ele>1763.4</ele>
        <time>2014-07-31T14:30:25.270Z</time>
      </trkpt>
      <trkpt lat="44.90647" lon="6.82771">
        <ele>1764</ele>
        <time>2014-07-31T14:30:27.150Z</time>
      </trkpt>
      <trkpt lat="44.90649" lon="6.82768">
        <ele>1764</ele>
        <time>2014-07-31T14:30:30.270Z</time>
      </trkpt>
      <trkpt lat="44.9065" lon="6.82766">
        <ele>1764</ele>
        <time>2014-07-31T14:30:32.270Z</time>
      </trkpt>
      <trkpt lat="44.90653" lon="6.82764">
        <ele>1764</ele>
        <time>2014-07-31T14:30:34.230Z</time>
      </trkpt>
      <trkpt lat="44.90655" lon="6.82762">
        <ele>1765</ele>
        <time>2014-07-31T14:30:36.170Z</time>
      </trkpt>
      <trkpt lat="44.90656" lon="6.82761">
        <ele>1765</ele>
        <time>2014-07-31T14:30:37.270Z</time>
      </trkpt>
      <trkpt lat="44.90655" lon="6.82758">
        <ele>1765</ele>
        <time>2014-07-31T14:30:39.070Z</time>
      </trkpt>
      <trkpt lat="44.90654" lon="6.82755">
        <ele>1765</ele>
        <time>2014-07-31T14:30:41.270Z</time>
      </trkpt>
      <trkpt lat="44.90655" lon="6.82754">
        <ele>1765</ele>
        <time>2014-07-31T14:30:43.170Z</time>
      </trkpt>
      <trkpt lat="44.90652" lon="6.82752">
        <ele>1765</ele>
        <time>2014-07-31T14:30:44.270Z</time>
      </trkpt>
      <trkpt lat="44.9065" lon="6.82749">
        <ele>1767</ele>
        <time>2014-07-31T14:30:46.270Z</time>
      </trkpt>
      <trkpt lat="44.90648" lon="6.82749">
        <ele>1767</ele>
        <time>2014-07-31T14:30:48.270Z</time>
      </trkpt>
      <trkpt lat="44.90647" lon="6.82748">
        <ele>1767</ele>
        <time>2014-07-31T14:30:50.270Z</time>
      </trkpt>
      <trkpt lat="44.90644" lon="6.82746">
        <ele>1767</ele>
        <time>2014-07-31T14:30:52.170Z</time>
      </trkpt>
      <trkpt lat="44.90643" lon="6.82745">
        <ele>1768.4</ele>
        <time>2014-07-31T14:30:55.270Z</time>
      </trkpt>
      <trkpt lat="44.90642" lon="6.82744">
        <ele>1769</ele>
        <time>2014-07-31T14:30:56.230Z</time>
      </trkpt>
      <trkpt lat="44.9064" lon="6.82741">
        <ele>1769</ele>
        <time>2014-07-31T14:30:58.270Z</time>
      </trkpt>
      <trkpt lat="44.90637" lon="6.82739">
        <ele>1769</ele>
        <time>2014-07-31T14:31:00.220Z</time>
      </trkpt>
      <trkpt lat="44.90634" lon="6.82737">
        <ele>1769</ele>
        <time>2014-07-31T14:31:02.170Z</time>
      </trkpt>
      <trkpt lat="44.90633" lon="6.82736">
        <ele>1769</ele>
        <time>2014-07-31T14:31:03.270Z</time>
      </trkpt>
      <trkpt lat="44.90631" lon="6.82735">
        <ele>1770.4</ele>
        <time>2014-07-31T14:31:05.270Z</time>
      </trkpt>
      <trkpt lat="44.90629" lon="6.82735">
        <ele>1771</ele>
        <time>2014-07-31T14:31:07.270Z</time>
      </trkpt>
      <trkpt lat="44.90627" lon="6.82735">
        <ele>1771</ele>
        <time>2014-07-31T14:31:09.270Z</time>
      </trkpt>
      <trkpt lat="44.90625" lon="6.82735">
        <ele>1771</ele>
        <time>2014-07-31T14:31:11.270Z</time>
      </trkpt>
      <trkpt lat="44.90623" lon="6.82735">
        <ele>1771</ele>
        <time>2014-07-31T14:31:13.130Z</time>
      </trkpt>
      <trkpt lat="44.90622" lon="6.82735">
        <ele>1771</ele>
        <time>2014-07-31T14:31:14.270Z</time>
      </trkpt>
      <trkpt lat="44.90621" lon="6.82735">
        <ele>1773</ele>
        <time>2014-07-31T14:31:16.270Z</time>
      </trkpt>
      <trkpt lat="44.9062" lon="6.82735">
        <ele>1773</ele>
        <time>2014-07-31T14:31:18.170Z</time>
      </trkpt>
      <trkpt lat="44.90618" lon="6.82735">
        <ele>1773</ele>
        <time>2014-07-31T14:31:19.270Z</time>
      </trkpt>
      <trkpt lat="44.90617" lon="6.82737">
        <ele>1773</ele>
        <time>2014-07-31T14:31:21.270Z</time>
      </trkpt>
      <trkpt lat="44.90616" lon="6.82737">
        <ele>1773</ele>
        <time>2014-07-31T14:31:23.270Z</time>
      </trkpt>
      <trkpt lat="44.90615" lon="6.82738">
        <ele>1774.4</ele>
        <time>2014-07-31T14:31:25.270Z</time>
      </trkpt>
      <trkpt lat="44.90614" lon="6.82737">
        <ele>1775</ele>
        <time>2014-07-31T14:31:27.270Z</time>
      </trkpt>
      <trkpt lat="44.90611" lon="6.82736">
        <ele>1775</ele>
        <time>2014-07-31T14:31:29.270Z</time>
      </trkpt>
      <trkpt lat="44.90607" lon="6.82736">
        <ele>1775</ele>
        <time>2014-07-31T14:31:31.170Z</time>
      </trkpt>
      <trkpt lat="44.90606" lon="6.82736">
        <ele>1775</ele>
        <time>2014-07-31T14:31:32.270Z</time>
      </trkpt>
      <trkpt lat="44.90604" lon="6.82736">
        <ele>1775</ele>
        <time>2014-07-31T14:31:34.070Z</time>
      </trkpt>
      <trkpt lat="44.90603" lon="6.82736">
        <ele>1776</ele>
        <time>2014-07-31T14:31:37.270Z</time>
      </trkpt>
      <trkpt lat="44.90601" lon="6.82735">
        <ele>1776</ele>
        <time>2014-07-31T14:31:40.270Z</time>
      </trkpt>
      <trkpt lat="44.90599" lon="6.82733">
        <ele>1776</ele>
        <time>2014-07-31T14:31:42.270Z</time>
      </trkpt>
      <trkpt lat="44.90597" lon="6.82732">
        <ele>1776</ele>
        <time>2014-07-31T14:31:44.170Z</time>
      </trkpt>
      <trkpt lat="44.90596" lon="6.82731">
        <ele>1776.7</ele>
        <time>2014-07-31T14:31:45.270Z</time>
      </trkpt>
      <trkpt lat="44.90594" lon="6.82731">
        <ele>1777</ele>
        <time>2014-07-31T14:31:47.090Z</time>
      </trkpt>
      <trkpt lat="44.90593" lon="6.8273">
        <ele>1777</ele>
        <time>2014-07-31T14:31:48.270Z</time>
      </trkpt>
      <trkpt lat="44.9059" lon="6.82729">
        <ele>1777</ele>
        <time>2014-07-31T14:31:50.270Z</time>
      </trkpt>
      <trkpt lat="44.90587" lon="6.82728">
        <ele>1777</ele>
        <time>2014-07-31T14:31:52.170Z</time>
      </trkpt>
      <trkpt lat="44.90586" lon="6.82727">
        <ele>1777</ele>
        <time>2014-07-31T14:31:53.270Z</time>
      </trkpt>
      <trkpt lat="44.90584" lon="6.82728">
        <ele>1778.4</ele>
        <time>2014-07-31T14:31:55.270Z</time>
      </trkpt>
      <trkpt lat="44.90583" lon="6.82729">
        <ele>1779</ele>
        <time>2014-07-31T14:31:57.270Z</time>
      </trkpt>
      <trkpt lat="44.90581" lon="6.8273">
        <ele>1779</ele>
        <time>2014-07-31T14:31:59.250Z</time>
      </trkpt>
      <trkpt lat="44.9058" lon="6.8273">
        <ele>1779</ele>
        <time>2014-07-31T14:32:01.260Z</time>
      </trkpt>
      <trkpt lat="44.90579" lon="6.82729">
        <ele>1779</ele>
        <time>2014-07-31T14:32:03.270Z</time>
      </trkpt>
      <trkpt lat="44.90577" lon="6.82728">
        <ele>1780.2</ele>
        <time>2014-07-31T14:32:05.170Z</time>
      </trkpt>
      <trkpt lat="44.90573" lon="6.82724">
        <ele>1781</ele>
        <time>2014-07-31T14:32:08.270Z</time>
      </trkpt>
      <trkpt lat="44.90572" lon="6.82725">
        <ele>1781</ele>
        <time>2014-07-31T14:32:13.170Z</time>
      </trkpt>
      <trkpt lat="44.90571" lon="6.82723">
        <ele>1782</ele>
        <time>2014-07-31T14:32:16.270Z</time>
      </trkpt>
      <trkpt lat="44.90569" lon="6.82722">
        <ele>1782</ele>
        <time>2014-07-31T14:32:18.170Z</time>
      </trkpt>
      <trkpt lat="44.90567" lon="6.82724">
        <ele>1782</ele>
        <time>2014-07-31T14:32:21.230Z</time>
      </trkpt>
      <trkpt lat="44.90564" lon="6.82724">
        <ele>1782</ele>
        <time>2014-07-31T14:32:23.170Z</time>
      </trkpt>
      <trkpt lat="44.90562" lon="6.82725">
        <ele>1784</ele>
        <time>2014-07-31T14:32:26.270Z</time>
      </trkpt>
      <trkpt lat="44.9056" lon="6.82727">
        <ele>1784</ele>
        <time>2014-07-31T14:32:28.270Z</time>
      </trkpt>
      <trkpt lat="44.90559" lon="6.82729">
        <ele>1784</ele>
        <time>2014-07-31T14:32:30.270Z</time>
      </trkpt>
      <trkpt lat="44.90558" lon="6.8273">
        <ele>1784</ele>
        <time>2014-07-31T14:32:32.270Z</time>
      </trkpt>
      <trkpt lat="44.90556" lon="6.82731">
        <ele>1784</ele>
        <time>2014-07-31T14:32:34.070Z</time>
      </trkpt>
      <trkpt lat="44.90555" lon="6.8273">
        <ele>1784.7</ele>
        <time>2014-07-31T14:32:35.270Z</time>
      </trkpt>
      <trkpt lat="44.90552" lon="6.8273">
        <ele>1785</ele>
        <time>2014-07-31T14:32:37.270Z</time>
      </trkpt>
      <trkpt lat="44.90549" lon="6.82732">
        <ele>1785</ele>
        <time>2014-07-31T14:32:39.170Z</time>
      </trkpt>
      <trkpt lat="44.90548" lon="6.82733">
        <ele>1785</ele>
        <time>2014-07-31T14:32:40.270Z</time>
      </trkpt>
      <trkpt lat="44.90546" lon="6.82733">
        <ele>1785</ele>
        <time>2014-07-31T14:32:42.270Z</time>
      </trkpt>
      <trkpt lat="44.90544" lon="6.82734">
        <ele>1785</ele>
        <time>2014-07-31T14:32:44.270Z</time>
      </trkpt>
      <trkpt lat="44.90542" lon="6.82735">
        <ele>1787</ele>
        <time>2014-07-31T14:32:46.170Z</time>
      </trkpt>
      <trkpt lat="44.90538" lon="6.82735">
        <ele>1787</ele>
        <time>2014-07-31T14:32:49.270Z</time>
      </trkpt>
      <trkpt lat="44.90536" lon="6.82737">
        <ele>1787</ele>
        <time>2014-07-31T14:32:51.230Z</time>
      </trkpt>
      <trkpt lat="44.90535" lon="6.82738">
        <ele>1787</ele>
        <time>2014-07-31T14:32:53.170Z</time>
      </trkpt>
      <trkpt lat="44.90534" lon="6.82737">
        <ele>1787</ele>
        <time>2014-07-31T14:32:54.270Z</time>
      </trkpt>
      <trkpt lat="44.90532" lon="6.82738">
        <ele>1788</ele>
        <time>2014-07-31T14:32:56.260Z</time>
      </trkpt>
      <trkpt lat="44.9053" lon="6.82737">
        <ele>1788</ele>
        <time>2014-07-31T14:32:58.260Z</time>
      </trkpt>
      <trkpt lat="44.90526" lon="6.82738">
        <ele>1788</ele>
        <time>2014-07-31T14:33:00.220Z</time>
      </trkpt>
      <trkpt lat="44.90524" lon="6.82739">
        <ele>1788</ele>
        <time>2014-07-31T14:33:02.270Z</time>
      </trkpt>
      <trkpt lat="44.90523" lon="6.82738">
        <ele>1788</ele>
        <time>2014-07-31T14:33:04.270Z</time>
      </trkpt>
      <trkpt lat="44.90521" lon="6.82739">
        <ele>1789</ele>
        <time>2014-07-31T14:33:06.260Z</time>
      </trkpt>
      <trkpt lat="44.9052" lon="6.82739">
        <ele>1789</ele>
        <time>2014-07-31T14:33:08.270Z</time>
      </trkpt>
      <trkpt lat="44.90518" lon="6.82742">
        <ele>1789</ele>
        <time>2014-07-31T14:33:12.230Z</time>
      </trkpt>
      <trkpt lat="44.90515" lon="6.82742">
        <ele>1789</ele>
        <time>2014-07-31T14:33:14.260Z</time>
      </trkpt>
      <trkpt lat="44.90514" lon="6.82742">
        <ele>1791</ele>
        <time>2014-07-31T14:33:16.170Z</time>
      </trkpt>
      <trkpt lat="44.90513" lon="6.82743">
        <ele>1791</ele>
        <time>2014-07-31T14:33:17.230Z</time>
      </trkpt>
      <trkpt lat="44.9051" lon="6.82744">
        <ele>1791</ele>
        <time>2014-07-31T14:33:19.270Z</time>
      </trkpt>
      <trkpt lat="44.90509" lon="6.82746">
        <ele>1791</ele>
        <time>2014-07-31T14:33:21.250Z</time>
      </trkpt>
      <trkpt lat="44.90507" lon="6.82748">
        <ele>1791</ele>
        <time>2014-07-31T14:33:23.270Z</time>
      </trkpt>
      <trkpt lat="44.90504" lon="6.8275">
        <ele>1792.4</ele>
        <time>2014-07-31T14:33:25.260Z</time>
      </trkpt>
      <trkpt lat="44.90501" lon="6.8275">
        <ele>1793</ele>
        <time>2014-07-31T14:33:27.270Z</time>
      </trkpt>
      <trkpt lat="44.90499" lon="6.82751">
        <ele>1793</ele>
        <time>2014-07-31T14:33:29.070Z</time>
      </trkpt>
      <trkpt lat="44.90498" lon="6.82751">
        <ele>1793</ele>
        <time>2014-07-31T14:33:30.270Z</time>
      </trkpt>
      <trkpt lat="44.90494" lon="6.8275">
        <ele>1793</ele>
        <time>2014-07-31T14:33:32.260Z</time>
      </trkpt>
      <trkpt lat="44.90491" lon="6.8275">
        <ele>1793</ele>
        <time>2014-07-31T14:33:34.230Z</time>
      </trkpt>
      <trkpt lat="44.90488" lon="6.82749">
        <ele>1795</ele>
        <time>2014-07-31T14:33:36.260Z</time>
      </trkpt>
      <trkpt lat="44.90484" lon="6.82749">
        <ele>1795</ele>
        <time>2014-07-31T14:33:38.260Z</time>
      </trkpt>
      <trkpt lat="44.90483" lon="6.82749">
        <ele>1795</ele>
        <time>2014-07-31T14:33:40.260Z</time>
      </trkpt>
      <trkpt lat="44.90481" lon="6.82749">
        <ele>1795</ele>
        <time>2014-07-31T14:33:42.260Z</time>
      </trkpt>
      <trkpt lat="44.90478" lon="6.82749">
        <ele>1795</ele>
        <time>2014-07-31T14:33:44.270Z</time>
      </trkpt>
      <trkpt lat="44.90476" lon="6.8275">
        <ele>1797</ele>
        <time>2014-07-31T14:33:46.230Z</time>
      </trkpt>
      <trkpt lat="44.90474" lon="6.8275">
        <ele>1797</ele>
        <time>2014-07-31T14:33:48.260Z</time>
      </trkpt>
      <trkpt lat="44.90472" lon="6.8275">
        <ele>1797</ele>
        <time>2014-07-31T14:33:50.260Z</time>
      </trkpt>
      <trkpt lat="44.9047" lon="6.82751">
        <ele>1797</ele>
        <time>2014-07-31T14:33:52.260Z</time>
      </trkpt>
      <trkpt lat="44.90468" lon="6.82752">
        <ele>1797</ele>
        <time>2014-07-31T14:33:54.260Z</time>
      </trkpt>
      <trkpt lat="44.90467" lon="6.82753">
        <ele>1799</ele>
        <time>2014-07-31T14:33:56.260Z</time>
      </trkpt>
      <trkpt lat="44.90464" lon="6.82754">
        <ele>1799</ele>
        <time>2014-07-31T14:33:58.260Z</time>
      </trkpt>
      <trkpt lat="44.90462" lon="6.82755">
        <ele>1799</ele>
        <time>2014-07-31T14:34:00.220Z</time>
      </trkpt>
      <trkpt lat="44.90459" lon="6.82757">
        <ele>1799</ele>
        <time>2014-07-31T14:34:02.260Z</time>
      </trkpt>
      <trkpt lat="44.90458" lon="6.8276">
        <ele>1799.7</ele>
        <time>2014-07-31T14:34:05.260Z</time>
      </trkpt>
      <trkpt lat="44.90455" lon="6.82761">
        <ele>1800</ele>
        <time>2014-07-31T14:34:07.250Z</time>
      </trkpt>
      <trkpt lat="44.90453" lon="6.82762">
        <ele>1800</ele>
        <time>2014-07-31T14:34:09.260Z</time>
      </trkpt>
      <trkpt lat="44.9045" lon="6.82762">
        <ele>1800</ele>
        <time>2014-07-31T14:34:11.270Z</time>
      </trkpt>
      <trkpt lat="44.90447" lon="6.82763">
        <ele>1800</ele>
        <time>2014-07-31T14:34:13.260Z</time>
      </trkpt>
      <trkpt lat="44.9044" lon="6.82761">
        <ele>1800.7</ele>
        <time>2014-07-31T14:34:15.260Z</time>
      </trkpt>
      <trkpt lat="44.90437" lon="6.8276">
        <ele>1801</ele>
        <time>2014-07-31T14:34:17.230Z</time>
      </trkpt>
      <trkpt lat="44.90434" lon="6.8276">
        <ele>1801</ele>
        <time>2014-07-31T14:34:19.250Z</time>
      </trkpt>
      <trkpt lat="44.9043" lon="6.82759">
        <ele>1801</ele>
        <time>2014-07-31T14:34:21.160Z</time>
      </trkpt>
      <trkpt lat="44.90429" lon="6.82758">
        <ele>1801</ele>
        <time>2014-07-31T14:34:22.260Z</time>
      </trkpt>
      <trkpt lat="44.90427" lon="6.82757">
        <ele>1801</ele>
        <time>2014-07-31T14:34:24.260Z</time>
      </trkpt>
      <trkpt lat="44.90425" lon="6.82755">
        <ele>1803</ele>
        <time>2014-07-31T14:34:26.260Z</time>
      </trkpt>
      <trkpt lat="44.90422" lon="6.82753">
        <ele>1803</ele>
        <time>2014-07-31T14:34:28.260Z</time>
      </trkpt>
      <trkpt lat="44.9042" lon="6.8275">
        <ele>1803</ele>
        <time>2014-07-31T14:34:30.260Z</time>
      </trkpt>
      <trkpt lat="44.90418" lon="6.82748">
        <ele>1803</ele>
        <time>2014-07-31T14:34:32.260Z</time>
      </trkpt>
      <trkpt lat="44.90416" lon="6.82746">
        <ele>1803</ele>
        <time>2014-07-31T14:34:34.230Z</time>
      </trkpt>
      <trkpt lat="44.90414" lon="6.82744">
        <ele>1804</ele>
        <time>2014-07-31T14:34:36.260Z</time>
      </trkpt>
      <trkpt lat="44.90412" lon="6.82741">
        <ele>1804</ele>
        <time>2014-07-31T14:34:38.260Z</time>
      </trkpt>
      <trkpt lat="44.9041" lon="6.82737">
        <ele>1804</ele>
        <time>2014-07-31T14:34:40.260Z</time>
      </trkpt>
      <trkpt lat="44.90408" lon="6.82732">
        <ele>1804</ele>
        <time>2014-07-31T14:34:42.250Z</time>
      </trkpt>
      <trkpt lat="44.90407" lon="6.82729">
        <ele>1804</ele>
        <time>2014-07-31T14:34:44.260Z</time>
      </trkpt>
      <trkpt lat="44.90407" lon="6.82726">
        <ele>1805</ele>
        <time>2014-07-31T14:34:46.260Z</time>
      </trkpt>
      <trkpt lat="44.90404" lon="6.82722">
        <ele>1805</ele>
        <time>2014-07-31T14:34:48.260Z</time>
      </trkpt>
      <trkpt lat="44.90401" lon="6.82718">
        <ele>1805</ele>
        <time>2014-07-31T14:34:50.260Z</time>
      </trkpt>
      <trkpt lat="44.904" lon="6.82715">
        <ele>1805</ele>
        <time>2014-07-31T14:34:52.260Z</time>
      </trkpt>
      <trkpt lat="44.90398" lon="6.82712">
        <ele>1805</ele>
        <time>2014-07-31T14:34:54.190Z</time>
      </trkpt>
      <trkpt lat="44.90395" lon="6.82709">
        <ele>1805</ele>
        <time>2014-07-31T14:34:56.260Z</time>
      </trkpt>
      <trkpt lat="44.90392" lon="6.82705">
        <ele>1805</ele>
        <time>2014-07-31T14:34:58.260Z</time>
      </trkpt>
      <trkpt lat="44.90389" lon="6.82703">
        <ele>1805</ele>
        <time>2014-07-31T14:35:00.120Z</time>
      </trkpt>
      <trkpt lat="44.90388" lon="6.82703">
        <ele>1805</ele>
        <time>2014-07-31T14:35:01.260Z</time>
      </trkpt>
      <trkpt lat="44.90386" lon="6.82702">
        <ele>1805</ele>
        <time>2014-07-31T14:35:03.260Z</time>
      </trkpt>
      <trkpt lat="44.90384" lon="6.82703">
        <ele>1805.7</ele>
        <time>2014-07-31T14:35:05.260Z</time>
      </trkpt>
      <trkpt lat="44.90382" lon="6.82704">
        <ele>1806</ele>
        <time>2014-07-31T14:35:07.260Z</time>
      </trkpt>
      <trkpt lat="44.9038" lon="6.82704">
        <ele>1806</ele>
        <time>2014-07-31T14:35:09.260Z</time>
      </trkpt>
      <trkpt lat="44.90376" lon="6.82704">
        <ele>1806</ele>
        <time>2014-07-31T14:35:11.070Z</time>
      </trkpt>
      <trkpt lat="44.90375" lon="6.82705">
        <ele>1806</ele>
        <time>2014-07-31T14:35:14.260Z</time>
      </trkpt>
      <trkpt lat="44.90372" lon="6.82705">
        <ele>1808</ele>
        <time>2014-07-31T14:35:16.260Z</time>
      </trkpt>
      <trkpt lat="44.90371" lon="6.82706">
        <ele>1808</ele>
        <time>2014-07-31T14:35:18.250Z</time>
      </trkpt>
      <trkpt lat="44.90368" lon="6.82707">
        <ele>1808</ele>
        <time>2014-07-31T14:35:20.260Z</time>
      </trkpt>
      <trkpt lat="44.90368" lon="6.8271">
        <ele>1808</ele>
        <time>2014-07-31T14:35:22.260Z</time>
      </trkpt>
      <trkpt lat="44.90365" lon="6.8271">
        <ele>1808</ele>
        <time>2014-07-31T14:35:24.260Z</time>
      </trkpt>
      <trkpt lat="44.90363" lon="6.82712">
        <ele>1808</ele>
        <time>2014-07-31T14:35:26.260Z</time>
      </trkpt>
      <trkpt lat="44.90361" lon="6.82713">
        <ele>1808</ele>
        <time>2014-07-31T14:35:28.130Z</time>
      </trkpt>
      <trkpt lat="44.90358" lon="6.82713">
        <ele>1808</ele>
        <time>2014-07-31T14:35:30.250Z</time>
      </trkpt>
      <trkpt lat="44.90357" lon="6.82714">
        <ele>1808</ele>
        <time>2014-07-31T14:35:32.260Z</time>
      </trkpt>
      <trkpt lat="44.90355" lon="6.82716">
        <ele>1808</ele>
        <time>2014-07-31T14:35:34.230Z</time>
      </trkpt>
      <trkpt lat="44.90354" lon="6.8272">
        <ele>1810</ele>
        <time>2014-07-31T14:35:36.260Z</time>
      </trkpt>
      <trkpt lat="44.90352" lon="6.82721">
        <ele>1810</ele>
        <time>2014-07-31T14:35:38.260Z</time>
      </trkpt>
      <trkpt lat="44.9035" lon="6.82723">
        <ele>1810</ele>
        <time>2014-07-31T14:35:40.260Z</time>
      </trkpt>
      <trkpt lat="44.90347" lon="6.82723">
        <ele>1810</ele>
        <time>2014-07-31T14:35:42.190Z</time>
      </trkpt>
      <trkpt lat="44.90345" lon="6.82726">
        <ele>1810</ele>
        <time>2014-07-31T14:35:44.260Z</time>
      </trkpt>
      <trkpt lat="44.90342" lon="6.82727">
        <ele>1812</ele>
        <time>2014-07-31T14:35:46.260Z</time>
      </trkpt>
      <trkpt lat="44.9034" lon="6.82729">
        <ele>1812</ele>
        <time>2014-07-31T14:35:48.260Z</time>
      </trkpt>
      <trkpt lat="44.90337" lon="6.82731">
        <ele>1812</ele>
        <time>2014-07-31T14:35:50.260Z</time>
      </trkpt>
      <trkpt lat="44.90335" lon="6.82732">
        <ele>1812</ele>
        <time>2014-07-31T14:35:52.260Z</time>
      </trkpt>
      <trkpt lat="44.90334" lon="6.82733">
        <ele>1812</ele>
        <time>2014-07-31T14:35:54.250Z</time>
      </trkpt>
      <trkpt lat="44.9033" lon="6.82733">
        <ele>1814</ele>
        <time>2014-07-31T14:35:56.260Z</time>
      </trkpt>
      <trkpt lat="44.90327" lon="6.82733">
        <ele>1814</ele>
        <time>2014-07-31T14:35:58.260Z</time>
      </trkpt>
      <trkpt lat="44.90324" lon="6.82734">
        <ele>1814</ele>
        <time>2014-07-31T14:36:00.120Z</time>
      </trkpt>
      <trkpt lat="44.90321" lon="6.82734">
        <ele>1814</ele>
        <time>2014-07-31T14:36:03.160Z</time>
      </trkpt>
      <trkpt lat="44.9032" lon="6.82736">
        <ele>1814</ele>
        <time>2014-07-31T14:36:04.260Z</time>
      </trkpt>
      <trkpt lat="44.90318" lon="6.82738">
        <ele>1815</ele>
        <time>2014-07-31T14:36:06.260Z</time>
      </trkpt>
      <trkpt lat="44.90316" lon="6.82741">
        <ele>1815</ele>
        <time>2014-07-31T14:36:08.160Z</time>
      </trkpt>
      <trkpt lat="44.90315" lon="6.82742">
        <ele>1815</ele>
        <time>2014-07-31T14:36:09.260Z</time>
      </trkpt>
      <trkpt lat="44.90314" lon="6.82745">
        <ele>1815</ele>
        <time>2014-07-31T14:36:11.260Z</time>
      </trkpt>
      <trkpt lat="44.90312" lon="6.82747">
        <ele>1815</ele>
        <time>2014-07-31T14:36:13.260Z</time>
      </trkpt>
      <trkpt lat="44.9031" lon="6.8275">
        <ele>1817</ele>
        <time>2014-07-31T14:36:15.250Z</time>
      </trkpt>
      <trkpt lat="44.90309" lon="6.82753">
        <ele>1818</ele>
        <time>2014-07-31T14:36:17.230Z</time>
      </trkpt>
      <trkpt lat="44.90306" lon="6.82755">
        <ele>1818</ele>
        <time>2014-07-31T14:36:19.230Z</time>
      </trkpt>
      <trkpt lat="44.90305" lon="6.82757">
        <ele>1820</ele>
        <time>2014-07-31T14:36:21.160Z</time>
      </trkpt>
      <trkpt lat="44.90304" lon="6.82758">
        <ele>1820</ele>
        <time>2014-07-31T14:36:22.260Z</time>
      </trkpt>
      <trkpt lat="44.90303" lon="6.82761">
        <ele>1820</ele>
        <time>2014-07-31T14:36:24.260Z</time>
      </trkpt>
      <trkpt lat="44.90301" lon="6.82763">
        <ele>1820</ele>
        <time>2014-07-31T14:36:26.260Z</time>
      </trkpt>
      <trkpt lat="44.903" lon="6.82766">
        <ele>1820</ele>
        <time>2014-07-31T14:36:28.160Z</time>
      </trkpt>
      <trkpt lat="44.90299" lon="6.82767">
        <ele>1820</ele>
        <time>2014-07-31T14:36:29.260Z</time>
      </trkpt>
      <trkpt lat="44.90297" lon="6.82769">
        <ele>1820</ele>
        <time>2014-07-31T14:36:31.260Z</time>
      </trkpt>
      <trkpt lat="44.90294" lon="6.82771">
        <ele>1820</ele>
        <time>2014-07-31T14:36:33.260Z</time>
      </trkpt>
      <trkpt lat="44.90289" lon="6.82772">
        <ele>1821.4</ele>
        <time>2014-07-31T14:36:35.260Z</time>
      </trkpt>
      <trkpt lat="44.90287" lon="6.82773">
        <ele>1822</ele>
        <time>2014-07-31T14:36:37.260Z</time>
      </trkpt>
      <trkpt lat="44.90285" lon="6.82774">
        <ele>1822</ele>
        <time>2014-07-31T14:36:39.260Z</time>
      </trkpt>
      <trkpt lat="44.90283" lon="6.82776">
        <ele>1822</ele>
        <time>2014-07-31T14:36:41.260Z</time>
      </trkpt>
      <trkpt lat="44.90281" lon="6.82777">
        <ele>1822</ele>
        <time>2014-07-31T14:36:43.260Z</time>
      </trkpt>
      <trkpt lat="44.90278" lon="6.82778">
        <ele>1823.3</ele>
        <time>2014-07-31T14:36:45.260Z</time>
      </trkpt>
      <trkpt lat="44.90276" lon="6.82779">
        <ele>1824</ele>
        <time>2014-07-31T14:36:47.160Z</time>
      </trkpt>
      <trkpt lat="44.90275" lon="6.8278">
        <ele>1824</ele>
        <time>2014-07-31T14:36:48.260Z</time>
      </trkpt>
      <trkpt lat="44.90273" lon="6.82781">
        <ele>1824</ele>
        <time>2014-07-31T14:36:50.190Z</time>
      </trkpt>
      <trkpt lat="44.9027" lon="6.8278">
        <ele>1824</ele>
        <time>2014-07-31T14:36:52.260Z</time>
      </trkpt>
      <trkpt lat="44.90267" lon="6.82781">
        <ele>1824</ele>
        <time>2014-07-31T14:36:54.160Z</time>
      </trkpt>
      <trkpt lat="44.90267" lon="6.82782">
        <ele>1824.7</ele>
        <time>2014-07-31T14:36:55.260Z</time>
      </trkpt>
      <trkpt lat="44.90264" lon="6.82782">
        <ele>1825</ele>
        <time>2014-07-31T14:36:57.260Z</time>
      </trkpt>
      <trkpt lat="44.90262" lon="6.82783">
        <ele>1825</ele>
        <time>2014-07-31T14:36:59.160Z</time>
      </trkpt>
      <trkpt lat="44.90261" lon="6.82783">
        <ele>1825</ele>
        <time>2014-07-31T14:37:00.220Z</time>
      </trkpt>
      <trkpt lat="44.9026" lon="6.82783">
        <ele>1825</ele>
        <time>2014-07-31T14:37:02.260Z</time>
      </trkpt>
      <trkpt lat="44.90258" lon="6.82783">
        <ele>1825</ele>
        <time>2014-07-31T14:37:04.260Z</time>
      </trkpt>
      <trkpt lat="44.90256" lon="6.82783">
        <ele>1827</ele>
        <time>2014-07-31T14:37:06.260Z</time>
      </trkpt>
      <trkpt lat="44.90254" lon="6.82782">
        <ele>1827</ele>
        <time>2014-07-31T14:37:08.260Z</time>
      </trkpt>
      <trkpt lat="44.90252" lon="6.82783">
        <ele>1827</ele>
        <time>2014-07-31T14:37:10.070Z</time>
      </trkpt>
      <trkpt lat="44.90248" lon="6.82783">
        <ele>1827</ele>
        <time>2014-07-31T14:37:12.260Z</time>
      </trkpt>
      <trkpt lat="44.90246" lon="6.82784">
        <ele>1827</ele>
        <time>2014-07-31T14:37:14.260Z</time>
      </trkpt>
      <trkpt lat="44.90243" lon="6.82783">
        <ele>1828</ele>
        <time>2014-07-31T14:37:16.260Z</time>
      </trkpt>
      <trkpt lat="44.90242" lon="6.82784">
        <ele>1828</ele>
        <time>2014-07-31T14:37:18.260Z</time>
      </trkpt>
      <trkpt lat="44.90239" lon="6.82784">
        <ele>1828</ele>
        <time>2014-07-31T14:37:20.160Z</time>
      </trkpt>
      <trkpt lat="44.90238" lon="6.82783">
        <ele>1828</ele>
        <time>2014-07-31T14:37:21.260Z</time>
      </trkpt>
      <trkpt lat="44.90235" lon="6.82783">
        <ele>1828</ele>
        <time>2014-07-31T14:37:23.160Z</time>
      </trkpt>
      <trkpt lat="44.90233" lon="6.82782">
        <ele>1828</ele>
        <time>2014-07-31T14:37:24.260Z</time>
      </trkpt>
      <trkpt lat="44.90229" lon="6.82781">
        <ele>1829</ele>
        <time>2014-07-31T14:37:26.260Z</time>
      </trkpt>
      <trkpt lat="44.90226" lon="6.8278">
        <ele>1829</ele>
        <time>2014-07-31T14:37:28.260Z</time>
      </trkpt>
      <trkpt lat="44.90223" lon="6.82779">
        <ele>1829</ele>
        <time>2014-07-31T14:37:30.260Z</time>
      </trkpt>
      <trkpt lat="44.90221" lon="6.82777">
        <ele>1829</ele>
        <time>2014-07-31T14:37:32.160Z</time>
      </trkpt>
      <trkpt lat="44.9022" lon="6.82776">
        <ele>1829</ele>
        <time>2014-07-31T14:37:33.260Z</time>
      </trkpt>
      <trkpt lat="44.90217" lon="6.82776">
        <ele>1829.7</ele>
        <time>2014-07-31T14:37:35.260Z</time>
      </trkpt>
      <trkpt lat="44.90215" lon="6.82777">
        <ele>1830</ele>
        <time>2014-07-31T14:37:37.250Z</time>
      </trkpt>
      <trkpt lat="44.90212" lon="6.82777">
        <ele>1830</ele>
        <time>2014-07-31T14:37:39.260Z</time>
      </trkpt>
      <trkpt lat="44.9021" lon="6.82777">
        <ele>1830</ele>
        <time>2014-07-31T14:37:41.260Z</time>
      </trkpt>
      <trkpt lat="44.90208" lon="6.82778">
        <ele>1830</ele>
        <time>2014-07-31T14:37:43.260Z</time>
      </trkpt>
      <trkpt lat="44.90206" lon="6.82778">
        <ele>1831.4</ele>
        <time>2014-07-31T14:37:45.260Z</time>
      </trkpt>
      <trkpt lat="44.90203" lon="6.82779">
        <ele>1832</ele>
        <time>2014-07-31T14:37:47.260Z</time>
      </trkpt>
      <trkpt lat="44.90201" lon="6.82779">
        <ele>1832</ele>
        <time>2014-07-31T14:37:49.260Z</time>
      </trkpt>
      <trkpt lat="44.90199" lon="6.8278">
        <ele>1832</ele>
        <time>2014-07-31T14:37:51.230Z</time>
      </trkpt>
      <trkpt lat="44.90196" lon="6.8278">
        <ele>1832</ele>
        <time>2014-07-31T14:37:53.260Z</time>
      </trkpt>
      <trkpt lat="44.90193" lon="6.82781">
        <ele>1832.7</ele>
        <time>2014-07-31T14:37:55.260Z</time>
      </trkpt>
      <trkpt lat="44.90191" lon="6.82782">
        <ele>1833</ele>
        <time>2014-07-31T14:37:57.260Z</time>
      </trkpt>
      <trkpt lat="44.90188" lon="6.82782">
        <ele>1833</ele>
        <time>2014-07-31T14:37:59.260Z</time>
      </trkpt>
      <trkpt lat="44.90186" lon="6.82783">
        <ele>1833</ele>
        <time>2014-07-31T14:38:01.170Z</time>
      </trkpt>
      <trkpt lat="44.90184" lon="6.82785">
        <ele>1833</ele>
        <time>2014-07-31T14:38:03.260Z</time>
      </trkpt>
      <trkpt lat="44.90181" lon="6.82785">
        <ele>1833.7</ele>
        <time>2014-07-31T14:38:05.260Z</time>
      </trkpt>
      <trkpt lat="44.90179" lon="6.82784">
        <ele>1834</ele>
        <time>2014-07-31T14:38:07.260Z</time>
      </trkpt>
      <trkpt lat="44.90177" lon="6.82783">
        <ele>1834</ele>
        <time>2014-07-31T14:38:09.260Z</time>
      </trkpt>
      <trkpt lat="44.90175" lon="6.8278">
        <ele>1834</ele>
        <time>2014-07-31T14:38:11.260Z</time>
      </trkpt>
      <trkpt lat="44.90174" lon="6.82777">
        <ele>1834</ele>
        <time>2014-07-31T14:38:13.260Z</time>
      </trkpt>
      <trkpt lat="44.90174" lon="6.82773">
        <ele>1835.4</ele>
        <time>2014-07-31T14:38:15.260Z</time>
      </trkpt>
      <trkpt lat="44.90174" lon="6.82768">
        <ele>1836</ele>
        <time>2014-07-31T14:38:17.230Z</time>
      </trkpt>
      <trkpt lat="44.90175" lon="6.82764">
        <ele>1836</ele>
        <time>2014-07-31T14:38:19.160Z</time>
      </trkpt>
      <trkpt lat="44.90177" lon="6.82763">
        <ele>1836</ele>
        <time>2014-07-31T14:38:20.260Z</time>
      </trkpt>
      <trkpt lat="44.90179" lon="6.82761">
        <ele>1836</ele>
        <time>2014-07-31T14:38:22.250Z</time>
      </trkpt>
      <trkpt lat="44.90182" lon="6.8276">
        <ele>1836</ele>
        <time>2014-07-31T14:38:24.260Z</time>
      </trkpt>
      <trkpt lat="44.90186" lon="6.8276">
        <ele>1836</ele>
        <time>2014-07-31T14:38:26.260Z</time>
      </trkpt>
      <trkpt lat="44.9019" lon="6.82762">
        <ele>1836</ele>
        <time>2014-07-31T14:38:28.260Z</time>
      </trkpt>
      <trkpt lat="44.90193" lon="6.82762">
        <ele>1836</ele>
        <time>2014-07-31T14:38:30.260Z</time>
      </trkpt>
      <trkpt lat="44.90197" lon="6.82761">
        <ele>1836</ele>
        <time>2014-07-31T14:38:32.260Z</time>
      </trkpt>
      <trkpt lat="44.902" lon="6.82761">
        <ele>1836</ele>
        <time>2014-07-31T14:38:34.190Z</time>
      </trkpt>
      <trkpt lat="44.90203" lon="6.82761">
        <ele>1838</ele>
        <time>2014-07-31T14:38:36.260Z</time>
      </trkpt>
      <trkpt lat="44.90207" lon="6.8276">
        <ele>1838</ele>
        <time>2014-07-31T14:38:38.260Z</time>
      </trkpt>
      <trkpt lat="44.90211" lon="6.82758">
        <ele>1838</ele>
        <time>2014-07-31T14:38:40.260Z</time>
      </trkpt>
      <trkpt lat="44.90215" lon="6.82756">
        <ele>1838</ele>
        <time>2014-07-31T14:38:42.260Z</time>
      </trkpt>
      <trkpt lat="44.90217" lon="6.82755">
        <ele>1838</ele>
        <time>2014-07-31T14:38:44.260Z</time>
      </trkpt>
      <trkpt lat="44.90221" lon="6.82752">
        <ele>1839</ele>
        <time>2014-07-31T14:38:46.250Z</time>
      </trkpt>
      <trkpt lat="44.90225" lon="6.8275">
        <ele>1839</ele>
        <time>2014-07-31T14:38:48.260Z</time>
      </trkpt>
      <trkpt lat="44.90228" lon="6.82748">
        <ele>1839</ele>
        <time>2014-07-31T14:38:50.260Z</time>
      </trkpt>
      <trkpt lat="44.90231" lon="6.82746">
        <ele>1839</ele>
        <time>2014-07-31T14:38:52.230Z</time>
      </trkpt>
      <trkpt lat="44.90234" lon="6.82744">
        <ele>1839</ele>
        <time>2014-07-31T14:38:54.260Z</time>
      </trkpt>
      <trkpt lat="44.90235" lon="6.82741">
        <ele>1839</ele>
        <time>2014-07-31T14:38:56.280Z</time>
      </trkpt>
      <trkpt lat="44.90235" lon="6.82741">
        <ele>1839</ele>
        <time>2014-07-31T14:38:57.260Z</time>
      </trkpt>
      <trkpt lat="44.90237" lon="6.82741">
        <ele>1839</ele>
        <time>2014-07-31T14:38:59.160Z</time>
      </trkpt>
      <trkpt lat="44.90238" lon="6.8274">
        <ele>1839</ele>
        <time>2014-07-31T14:39:01.260Z</time>
      </trkpt>
      <trkpt lat="44.90239" lon="6.82739">
        <ele>1839</ele>
        <time>2014-07-31T14:39:03.260Z</time>
      </trkpt>
      <trkpt lat="44.90241" lon="6.82738">
        <ele>1839.7</ele>
        <time>2014-07-31T14:39:05.260Z</time>
      </trkpt>
      <trkpt lat="44.9024" lon="6.82738">
        <ele>1840</ele>
        <time>2014-07-31T14:39:07.260Z</time>
      </trkpt>
      <trkpt lat="44.90239" lon="6.8274">
        <ele>1840</ele>
        <time>2014-07-31T14:39:13.160Z</time>
      </trkpt>
      <trkpt lat="44.9024" lon="6.82741">
        <ele>1840</ele>
        <time>2014-07-31T14:39:14.260Z</time>
      </trkpt>
      <trkpt lat="44.90241" lon="6.82743">
        <ele>1839</ele>
        <time>2014-07-31T14:39:16.260Z</time>
      </trkpt>
      <trkpt lat="44.9024" lon="6.82744">
        <ele>1839</ele>
        <time>2014-07-31T14:39:19.260Z</time>
      </trkpt>
      <trkpt lat="44.90238" lon="6.82743">
        <ele>1839</ele>
        <time>2014-07-31T14:39:21.260Z</time>
      </trkpt>
      <trkpt lat="44.90239" lon="6.82745">
        <ele>1838.3</ele>
        <time>2014-07-31T14:39:25.260Z</time>
      </trkpt>
      <trkpt lat="44.90239" lon="6.82746">
        <ele>1838</ele>
        <time>2014-07-31T14:39:27.260Z</time>
      </trkpt>
      <trkpt lat="44.9024" lon="6.82747">
        <ele>1838</ele>
        <time>2014-07-31T14:39:29.260Z</time>
      </trkpt>
      <trkpt lat="44.90242" lon="6.82748">
        <ele>1838</ele>
        <time>2014-07-31T14:39:33.260Z</time>
      </trkpt>
      <trkpt lat="44.90243" lon="6.82748">
        <ele>1838.7</ele>
        <time>2014-07-31T14:39:35.250Z</time>
      </trkpt>
      <trkpt lat="44.90242" lon="6.82747">
        <ele>1839</ele>
        <time>2014-07-31T14:39:37.160Z</time>
      </trkpt>
      <trkpt lat="44.9024" lon="6.82746">
        <ele>1839</ele>
        <time>2014-07-31T14:39:40.260Z</time>
      </trkpt>
      <trkpt lat="44.90238" lon="6.82743">
        <ele>1839</ele>
        <time>2014-07-31T14:39:42.160Z</time>
      </trkpt>
      <trkpt lat="44.90239" lon="6.82742">
        <ele>1839</ele>
        <time>2014-07-31T14:39:48.260Z</time>
      </trkpt>
      <trkpt lat="44.9024" lon="6.82743">
        <ele>1839</ele>
        <time>2014-07-31T14:39:50.250Z</time>
      </trkpt>
      <trkpt lat="44.90239" lon="6.82743">
        <ele>1839</ele>
        <time>2014-07-31T14:39:52.160Z</time>
      </trkpt>
      <trkpt lat="44.90238" lon="6.82744">
        <ele>1839</ele>
        <time>2014-07-31T14:39:55.260Z</time>
      </trkpt>
      <trkpt lat="44.90237" lon="6.82744">
        <ele>1839</ele>
        <time>2014-07-31T14:39:57.260Z</time>
      </trkpt>
      <trkpt lat="44.90238" lon="6.82744">
        <ele>1839</ele>
        <time>2014-07-31T14:40:01.260Z</time>
      </trkpt>
      <trkpt lat="44.90239" lon="6.82744">
        <ele>1839</ele>
        <time>2014-07-31T14:40:03.260Z</time>
      </trkpt>
      <trkpt lat="44.90238" lon="6.82742">
        <ele>1839</ele>
        <time>2014-07-31T14:40:07.260Z</time>
      </trkpt>
      <trkpt lat="44.90237" lon="6.82742">
        <ele>1839</ele>
        <time>2014-07-31T14:40:15.260Z</time>
      </trkpt>
      <trkpt lat="44.90238" lon="6.82742">
        <ele>1839</ele>
        <time>2014-07-31T14:40:19.260Z</time>
      </trkpt>
      <trkpt lat="44.9024" lon="6.82743">
        <ele>1839</ele>
        <time>2014-07-31T14:40:21.260Z</time>
      </trkpt>
      <trkpt lat="44.90244" lon="6.82744">
        <ele>1839</ele>
        <time>2014-07-31T14:40:23.260Z</time>
      </trkpt>
      <trkpt lat="44.90246" lon="6.82745">
        <ele>1839</ele>
        <time>2014-07-31T14:40:25.260Z</time>
      </trkpt>
      <trkpt lat="44.90247" lon="6.82746">
        <ele>1839</ele>
        <time>2014-07-31T14:40:27.260Z</time>
      </trkpt>
      <trkpt lat="44.90246" lon="6.82747">
        <ele>1839</ele>
        <time>2014-07-31T14:40:29.260Z</time>
      </trkpt>
      <trkpt lat="44.90246" lon="6.82745">
        <ele>1839</ele>
        <time>2014-07-31T14:40:33.260Z</time>
      </trkpt>
      <trkpt lat="44.90244" lon="6.82745">
        <ele>1839</ele>
        <time>2014-07-31T14:40:38.260Z</time>
      </trkpt>
      <trkpt lat="44.90243" lon="6.82744">
        <ele>1839</ele>
        <time>2014-07-31T14:40:42.250Z</time>
      </trkpt>
      <trkpt lat="44.90241" lon="6.82744">
        <ele>1839</ele>
        <time>2014-07-31T14:40:44.260Z</time>
      </trkpt>
      <trkpt lat="44.9024" lon="6.82742">
        <ele>1839</ele>
        <time>2014-07-31T14:40:57.260Z</time>
      </trkpt>
      <trkpt lat="44.90241" lon="6.82742">
        <ele>1839</ele>
        <time>2014-07-31T14:40:59.260Z</time>
      </trkpt>
      <trkpt lat="44.90243" lon="6.82743">
        <ele>1839</ele>
        <time>2014-07-31T14:41:01.260Z</time>
      </trkpt>
      <trkpt lat="44.90244" lon="6.82743">
        <ele>1839</ele>
        <time>2014-07-31T14:41:05.260Z</time>
      </trkpt>
      <trkpt lat="44.90243" lon="6.82741">
        <ele>1839</ele>
        <time>2014-07-31T14:41:07.260Z</time>
      </trkpt>
      <trkpt lat="44.90241" lon="6.8274">
        <ele>1839</ele>
        <time>2014-07-31T14:41:09.160Z</time>
      </trkpt>
      <trkpt lat="44.9024" lon="6.8274">
        <ele>1839</ele>
        <time>2014-07-31T14:41:14.260Z</time>
      </trkpt>
      <trkpt lat="44.90243" lon="6.8274">
        <ele>1839</ele>
        <time>2014-07-31T14:41:18.260Z</time>
      </trkpt>
      <trkpt lat="44.90245" lon="6.82742">
        <ele>1839</ele>
        <time>2014-07-31T14:41:20.260Z</time>
      </trkpt>
      <trkpt lat="44.90246" lon="6.82742">
        <ele>1839</ele>
        <time>2014-07-31T14:41:22.260Z</time>
      </trkpt>
      <trkpt lat="44.90244" lon="6.82742">
        <ele>1839</ele>
        <time>2014-07-31T14:41:28.260Z</time>
      </trkpt>
      <trkpt lat="44.90243" lon="6.82742">
        <ele>1839</ele>
        <time>2014-07-31T14:41:30.260Z</time>
      </trkpt>
      <trkpt lat="44.90241" lon="6.82741">
        <ele>1839</ele>
        <time>2014-07-31T14:41:35.260Z</time>
      </trkpt>
      <trkpt lat="44.90242" lon="6.82742">
        <ele>1839</ele>
        <time>2014-07-31T14:41:41.260Z</time>
      </trkpt>
      <trkpt lat="44.90244" lon="6.82743">
        <ele>1839</ele>
        <time>2014-07-31T14:41:43.260Z</time>
      </trkpt>
      <trkpt lat="44.90242" lon="6.82744">
        <ele>1839</ele>
        <time>2014-07-31T14:41:47.260Z</time>
      </trkpt>
      <trkpt lat="44.90243" lon="6.82744">
        <ele>1839</ele>
        <time>2014-07-31T14:41:49.260Z</time>
      </trkpt>
      <trkpt lat="44.90242" lon="6.82744">
        <ele>1839</ele>
        <time>2014-07-31T14:41:54.260Z</time>
      </trkpt>
      <trkpt lat="44.90239" lon="6.82744">
        <ele>1839</ele>
        <time>2014-07-31T14:41:56.260Z</time>
      </trkpt>
      <trkpt lat="44.90237" lon="6.82744">
        <ele>1839</ele>
        <time>2014-07-31T14:42:00.120Z</time>
      </trkpt>
      <trkpt lat="44.90235" lon="6.82742">
        <ele>1839</ele>
        <time>2014-07-31T14:42:02.260Z</time>
      </trkpt>
      <trkpt lat="44.90235" lon="6.82741">
        <ele>1838</ele>
        <time>2014-07-31T14:42:06.260Z</time>
      </trkpt>
      <trkpt lat="44.90234" lon="6.8274">
        <ele>1838</ele>
        <time>2014-07-31T14:42:12.260Z</time>
      </trkpt>
      <trkpt lat="44.90232" lon="6.8274">
        <ele>1838</ele>
        <time>2014-07-31T14:42:14.260Z</time>
      </trkpt>
      <trkpt lat="44.90231" lon="6.82741">
        <ele>1838</ele>
        <time>2014-07-31T14:42:19.260Z</time>
      </trkpt>
      <trkpt lat="44.90234" lon="6.82742">
        <ele>1838</ele>
        <time>2014-07-31T14:42:23.260Z</time>
      </trkpt>
      <trkpt lat="44.90234" lon="6.82743">
        <ele>1838</ele>
        <time>2014-07-31T14:42:25.260Z</time>
      </trkpt>
      <trkpt lat="44.90235" lon="6.82742">
        <ele>1838</ele>
        <time>2014-07-31T14:42:28.250Z</time>
      </trkpt>
      <trkpt lat="44.90237" lon="6.82741">
        <ele>1838</ele>
        <time>2014-07-31T14:42:30.260Z</time>
      </trkpt>
      <trkpt lat="44.90238" lon="6.82741">
        <ele>1838</ele>
        <time>2014-07-31T14:42:32.260Z</time>
      </trkpt>
      <trkpt lat="44.90239" lon="6.8274">
        <ele>1838</ele>
        <time>2014-07-31T14:42:34.170Z</time>
      </trkpt>
      <trkpt lat="44.90238" lon="6.82739">
        <ele>1838</ele>
        <time>2014-07-31T14:42:36.260Z</time>
      </trkpt>
      <trkpt lat="44.90237" lon="6.82738">
        <ele>1838</ele>
        <time>2014-07-31T14:42:40.250Z</time>
      </trkpt>
      <trkpt lat="44.90239" lon="6.82739">
        <ele>1838</ele>
        <time>2014-07-31T14:42:44.260Z</time>
      </trkpt>
      <trkpt lat="44.90241" lon="6.8274">
        <ele>1838</ele>
        <time>2014-07-31T14:42:48.260Z</time>
      </trkpt>
      <trkpt lat="44.90243" lon="6.82741">
        <ele>1838</ele>
        <time>2014-07-31T14:42:50.230Z</time>
      </trkpt>
      <trkpt lat="44.90243" lon="6.82742">
        <ele>1838</ele>
        <time>2014-07-31T14:42:52.260Z</time>
      </trkpt>
      <trkpt lat="44.90244" lon="6.82743">
        <ele>1838</ele>
        <time>2014-07-31T14:42:55.260Z</time>
      </trkpt>
      <trkpt lat="44.90245" lon="6.82744">
        <ele>1838</ele>
        <time>2014-07-31T14:42:57.260Z</time>
      </trkpt>
      <trkpt lat="44.90247" lon="6.82745">
        <ele>1838</ele>
        <time>2014-07-31T14:42:59.160Z</time>
      </trkpt>
      <trkpt lat="44.90247" lon="6.82745">
        <ele>1838</ele>
        <time>2014-07-31T14:43:00.220Z</time>
      </trkpt>
      <trkpt lat="44.90247" lon="6.82746">
        <ele>1838</ele>
        <time>2014-07-31T14:43:03.260Z</time>
      </trkpt>
      <trkpt lat="44.90245" lon="6.82745">
        <ele>1838</ele>
        <time>2014-07-31T14:43:14.260Z</time>
      </trkpt>
      <trkpt lat="44.90247" lon="6.82745">
        <ele>1838</ele>
        <time>2014-07-31T14:43:23.260Z</time>
      </trkpt>
      <trkpt lat="44.90248" lon="6.82746">
        <ele>1839</ele>
        <time>2014-07-31T14:43:27.260Z</time>
      </trkpt>
      <trkpt lat="44.90246" lon="6.82746">
        <ele>1839</ele>
        <time>2014-07-31T14:43:29.260Z</time>
      </trkpt>
      <trkpt lat="44.90245" lon="6.82745">
        <ele>1839</ele>
        <time>2014-07-31T14:43:31.260Z</time>
      </trkpt>
      <trkpt lat="44.90245" lon="6.82747">
        <ele>1839</ele>
        <time>2014-07-31T14:43:35.260Z</time>
      </trkpt>
      <trkpt lat="44.90244" lon="6.82748">
        <ele>1839</ele>
        <time>2014-07-31T14:43:37.160Z</time>
      </trkpt>
      <trkpt lat="44.90243" lon="6.82748">
        <ele>1839</ele>
        <time>2014-07-31T14:43:42.260Z</time>
      </trkpt>
      <trkpt lat="44.90243" lon="6.82747">
        <ele>1838</ele>
        <time>2014-07-31T14:43:58.230Z</time>
      </trkpt>
      <trkpt lat="44.90241" lon="6.82746">
        <ele>1838</ele>
        <time>2014-07-31T14:44:00.220Z</time>
      </trkpt>
      <trkpt lat="44.9024" lon="6.82746">
        <ele>1838</ele>
        <time>2014-07-31T14:44:02.260Z</time>
      </trkpt>
      <trkpt lat="44.90242" lon="6.82746">
        <ele>1838</ele>
        <time>2014-07-31T14:44:09.260Z</time>
      </trkpt>
      <trkpt lat="44.90243" lon="6.82746">
        <ele>1838</ele>
        <time>2014-07-31T14:44:11.260Z</time>
      </trkpt>
      <trkpt lat="44.90242" lon="6.82744">
        <ele>1838</ele>
        <time>2014-07-31T14:44:13.260Z</time>
      </trkpt>
      <trkpt lat="44.90243" lon="6.82743">
        <ele>1838.6</ele>
        <time>2014-07-31T14:44:15.130Z</time>
      </trkpt>
      <trkpt lat="44.90244" lon="6.82744">
        <ele>1839</ele>
        <time>2014-07-31T14:44:18.160Z</time>
      </trkpt>
      <trkpt lat="44.90243" lon="6.82744">
        <ele>1839</ele>
        <time>2014-07-31T14:44:19.260Z</time>
      </trkpt>
      <trkpt lat="44.90242" lon="6.82746">
        <ele>1839</ele>
        <time>2014-07-31T14:44:21.260Z</time>
      </trkpt>
      <trkpt lat="44.90241" lon="6.82746">
        <ele>1839</ele>
        <time>2014-07-31T14:44:23.260Z</time>
      </trkpt>
      <trkpt lat="44.9024" lon="6.82745">
        <ele>1839</ele>
        <time>2014-07-31T14:44:25.250Z</time>
      </trkpt>
      <trkpt lat="44.90241" lon="6.82743">
        <ele>1839</ele>
        <time>2014-07-31T14:44:29.260Z</time>
      </trkpt>
      <trkpt lat="44.9024" lon="6.82741">
        <ele>1839</ele>
        <time>2014-07-31T14:44:31.260Z</time>
      </trkpt>
      <trkpt lat="44.90241" lon="6.82741">
        <ele>1838.3</ele>
        <time>2014-07-31T14:44:35.260Z</time>
      </trkpt>
      <trkpt lat="44.90241" lon="6.82743">
        <ele>1838</ele>
        <time>2014-07-31T14:44:37.260Z</time>
      </trkpt>
      <trkpt lat="44.90239" lon="6.82741">
        <ele>1838</ele>
        <time>2014-07-31T14:44:39.260Z</time>
      </trkpt>
      <trkpt lat="44.90235" lon="6.82738">
        <ele>1838</ele>
        <time>2014-07-31T14:44:41.380Z</time>
      </trkpt>
      <trkpt lat="44.90232" lon="6.82735">
        <ele>1838</ele>
        <time>2014-07-31T14:44:43.260Z</time>
      </trkpt>
      <trkpt lat="44.90234" lon="6.82736">
        <ele>1838</ele>
        <time>2014-07-31T14:44:47.260Z</time>
      </trkpt>
      <trkpt lat="44.90234" lon="6.82738">
        <ele>1838</ele>
        <time>2014-07-31T14:44:57.260Z</time>
      </trkpt>
      <trkpt lat="44.90235" lon="6.8274">
        <ele>1838</ele>
        <time>2014-07-31T14:44:59.380Z</time>
      </trkpt>
      <trkpt lat="44.90236" lon="6.82741">
        <ele>1838</ele>
        <time>2014-07-31T14:45:01.260Z</time>
      </trkpt>
      <trkpt lat="44.90235" lon="6.82741">
        <ele>1838</ele>
        <time>2014-07-31T14:45:03.260Z</time>
      </trkpt>
      <trkpt lat="44.90235" lon="6.82742">
        <ele>1838</ele>
        <time>2014-07-31T14:45:07.260Z</time>
      </trkpt>
      <trkpt lat="44.90234" lon="6.82741">
        <ele>1838</ele>
        <time>2014-07-31T14:45:09.260Z</time>
      </trkpt>
      <trkpt lat="44.90235" lon="6.82742">
        <ele>1838</ele>
        <time>2014-07-31T14:45:13.260Z</time>
      </trkpt>
      <trkpt lat="44.90232" lon="6.82742">
        <ele>1839</ele>
        <time>2014-07-31T14:45:17.130Z</time>
      </trkpt>
      <trkpt lat="44.90231" lon="6.82743">
        <ele>1839</ele>
        <time>2014-07-31T14:45:18.260Z</time>
      </trkpt>
      <trkpt lat="44.90232" lon="6.82745">
        <ele>1839</ele>
        <time>2014-07-31T14:45:20.260Z</time>
      </trkpt>
      <trkpt lat="44.90233" lon="6.82747">
        <ele>1839</ele>
        <time>2014-07-31T14:45:22.260Z</time>
      </trkpt>
      <trkpt lat="44.90232" lon="6.82745">
        <ele>1839</ele>
        <time>2014-07-31T14:45:25.260Z</time>
      </trkpt>
      <trkpt lat="44.90232" lon="6.82744">
        <ele>1839</ele>
        <time>2014-07-31T14:45:29.260Z</time>
      </trkpt>
      <trkpt lat="44.90233" lon="6.82744">
        <ele>1839</ele>
        <time>2014-07-31T14:45:33.260Z</time>
      </trkpt>
      <trkpt lat="44.90234" lon="6.82744">
        <ele>1838.4</ele>
        <time>2014-07-31T14:45:35.160Z</time>
      </trkpt>
      <trkpt lat="44.90233" lon="6.82743">
        <ele>1838</ele>
        <time>2014-07-31T14:45:45.260Z</time>
      </trkpt>
      <trkpt lat="44.90234" lon="6.82744">
        <ele>1838</ele>
        <time>2014-07-31T14:45:47.260Z</time>
      </trkpt>
      <trkpt lat="44.90236" lon="6.82744">
        <ele>1838</ele>
        <time>2014-07-31T14:45:50.260Z</time>
      </trkpt>
      <trkpt lat="44.90237" lon="6.82745">
        <ele>1838</ele>
        <time>2014-07-31T14:45:52.260Z</time>
      </trkpt>
      <trkpt lat="44.90238" lon="6.82745">
        <ele>1839</ele>
        <time>2014-07-31T14:46:00.120Z</time>
      </trkpt>
      <trkpt lat="44.90239" lon="6.82744">
        <ele>1839</ele>
        <time>2014-07-31T14:46:04.160Z</time>
      </trkpt>
      <trkpt lat="44.9024" lon="6.82744">
        <ele>1839</ele>
        <time>2014-07-31T14:46:05.260Z</time>
      </trkpt>
      <trkpt lat="44.9024" lon="6.82743">
        <ele>1838</ele>
        <time>2014-07-31T14:46:16.260Z</time>
      </trkpt>
      <trkpt lat="44.90239" lon="6.82743">
        <ele>1838</ele>
        <time>2014-07-31T14:46:18.260Z</time>
      </trkpt>
      <trkpt lat="44.90238" lon="6.82742">
        <ele>1837</ele>
        <time>2014-07-31T14:46:28.260Z</time>
      </trkpt>
      <trkpt lat="44.9024" lon="6.82743">
        <ele>1837</ele>
        <time>2014-07-31T14:46:31.170Z</time>
      </trkpt>
      <trkpt lat="44.9024" lon="6.82744">
        <ele>1837</ele>
        <time>2014-07-31T14:46:33.260Z</time>
      </trkpt>
      <trkpt lat="44.90239" lon="6.82746">
        <ele>1838.3</ele>
        <time>2014-07-31T14:46:35.260Z</time>
      </trkpt>
      <trkpt lat="44.90238" lon="6.82746">
        <ele>1839</ele>
        <time>2014-07-31T14:46:38.260Z</time>
      </trkpt>
      <trkpt lat="44.90237" lon="6.82746">
        <ele>1839</ele>
        <time>2014-07-31T14:46:40.260Z</time>
      </trkpt>
      <trkpt lat="44.9024" lon="6.82747">
        <ele>1839</ele>
        <time>2014-07-31T14:46:48.130Z</time>
      </trkpt>
      <trkpt lat="44.90241" lon="6.82747">
        <ele>1839</ele>
        <time>2014-07-31T14:46:50.380Z</time>
      </trkpt>
      <trkpt lat="44.90243" lon="6.82749">
        <ele>1839</ele>
        <time>2014-07-31T14:46:52.150Z</time>
      </trkpt>
      <trkpt lat="44.90244" lon="6.82749">
        <ele>1838.3</ele>
        <time>2014-07-31T14:46:55.260Z</time>
      </trkpt>
      <trkpt lat="44.90242" lon="6.82748">
        <ele>1838</ele>
        <time>2014-07-31T14:46:57.160Z</time>
      </trkpt>
      <trkpt lat="44.90241" lon="6.82746">
        <ele>1838</ele>
        <time>2014-07-31T14:47:00.220Z</time>
      </trkpt>
      <trkpt lat="44.9024" lon="6.82745">
        <ele>1838</ele>
        <time>2014-07-31T14:47:02.160Z</time>
      </trkpt>
      <trkpt lat="44.9024" lon="6.82742">
        <ele>1837.3</ele>
        <time>2014-07-31T14:47:05.230Z</time>
      </trkpt>
      <trkpt lat="44.90241" lon="6.82741">
        <ele>1837</ele>
        <time>2014-07-31T14:47:07.260Z</time>
      </trkpt>
      <trkpt lat="44.90242" lon="6.82742">
        <ele>1837</ele>
        <time>2014-07-31T14:47:09.260Z</time>
      </trkpt>
      <trkpt lat="44.90243" lon="6.82743">
        <ele>1837</ele>
        <time>2014-07-31T14:47:13.260Z</time>
      </trkpt>
      <trkpt lat="44.90244" lon="6.82744">
        <ele>1837</ele>
        <time>2014-07-31T14:47:15.260Z</time>
      </trkpt>
      <trkpt lat="44.90245" lon="6.82745">
        <ele>1837</ele>
        <time>2014-07-31T14:47:17.190Z</time>
      </trkpt>
      <trkpt lat="44.90246" lon="6.82747">
        <ele>1837</ele>
        <time>2014-07-31T14:47:19.260Z</time>
      </trkpt>
      <trkpt lat="44.90247" lon="6.82748">
        <ele>1837</ele>
        <time>2014-07-31T14:47:24.260Z</time>
      </trkpt>
      <trkpt lat="44.90248" lon="6.8275">
        <ele>1838</ele>
        <time>2014-07-31T14:47:31.260Z</time>
      </trkpt>
      <trkpt lat="44.90247" lon="6.82748">
        <ele>1838</ele>
        <time>2014-07-31T14:47:43.260Z</time>
      </trkpt>
      <trkpt lat="44.90246" lon="6.82747">
        <ele>1838</ele>
        <time>2014-07-31T14:47:49.260Z</time>
      </trkpt>
      <trkpt lat="44.90247" lon="6.82749">
        <ele>1838</ele>
        <time>2014-07-31T14:47:51.230Z</time>
      </trkpt>
      <trkpt lat="44.90249" lon="6.82751">
        <ele>1838</ele>
        <time>2014-07-31T14:47:53.160Z</time>
      </trkpt>
      <trkpt lat="44.90248" lon="6.82752">
        <ele>1838</ele>
        <time>2014-07-31T14:47:58.260Z</time>
      </trkpt>
      <trkpt lat="44.90247" lon="6.82752">
        <ele>1838</ele>
        <time>2014-07-31T14:48:00.190Z</time>
      </trkpt>
      <trkpt lat="44.90246" lon="6.82752">
        <ele>1838</ele>
        <time>2014-07-31T14:48:05.260Z</time>
      </trkpt>
      <trkpt lat="44.90245" lon="6.82751">
        <ele>1838</ele>
        <time>2014-07-31T14:48:10.260Z</time>
      </trkpt>
      <trkpt lat="44.90244" lon="6.8275">
        <ele>1838</ele>
        <time>2014-07-31T14:48:13.230Z</time>
      </trkpt>
      <trkpt lat="44.90243" lon="6.8275">
        <ele>1838</ele>
        <time>2014-07-31T14:48:15.260Z</time>
      </trkpt>
      <trkpt lat="44.90242" lon="6.82749">
        <ele>1838</ele>
        <time>2014-07-31T14:48:17.060Z</time>
      </trkpt>
      <trkpt lat="44.90241" lon="6.82747">
        <ele>1838</ele>
        <time>2014-07-31T14:48:19.260Z</time>
      </trkpt>
      <trkpt lat="44.9024" lon="6.82746">
        <ele>1838</ele>
        <time>2014-07-31T14:48:21.260Z</time>
      </trkpt>
      <trkpt lat="44.90238" lon="6.82743">
        <ele>1838</ele>
        <time>2014-07-31T14:48:23.250Z</time>
      </trkpt>
      <trkpt lat="44.90239" lon="6.82743">
        <ele>1838.7</ele>
        <time>2014-07-31T14:48:25.260Z</time>
      </trkpt>
      <trkpt lat="44.90238" lon="6.82741">
        <ele>1839</ele>
        <time>2014-07-31T14:48:27.260Z</time>
      </trkpt>
      <trkpt lat="44.9024" lon="6.82742">
        <ele>1839</ele>
        <time>2014-07-31T14:48:29.260Z</time>
      </trkpt>
      <trkpt lat="44.9024" lon="6.82743">
        <ele>1839</ele>
        <time>2014-07-31T14:48:31.260Z</time>
      </trkpt>
      <trkpt lat="44.9024" lon="6.82744">
        <ele>1839</ele>
        <time>2014-07-31T14:48:36.260Z</time>
      </trkpt>
      <trkpt lat="44.90241" lon="6.82746">
        <ele>1839</ele>
        <time>2014-07-31T14:48:39.260Z</time>
      </trkpt>
      <trkpt lat="44.90243" lon="6.82747">
        <ele>1839</ele>
        <time>2014-07-31T14:48:44.260Z</time>
      </trkpt>
      <trkpt lat="44.90242" lon="6.82747">
        <ele>1838</ele>
        <time>2014-07-31T14:48:48.160Z</time>
      </trkpt>
      <trkpt lat="44.9024" lon="6.82746">
        <ele>1838</ele>
        <time>2014-07-31T14:48:49.260Z</time>
      </trkpt>
      <trkpt lat="44.90239" lon="6.82745">
        <ele>1838</ele>
        <time>2014-07-31T14:48:55.260Z</time>
      </trkpt>
      <trkpt lat="44.90238" lon="6.82745">
        <ele>1838</ele>
        <time>2014-07-31T14:48:57.260Z</time>
      </trkpt>
      <trkpt lat="44.90238" lon="6.82745">
        <ele>1838</ele>
        <time>2014-07-31T14:49:00.120Z</time>
      </trkpt>
      <trkpt lat="44.90237" lon="6.82745">
        <ele>1838</ele>
        <time>2014-07-31T14:49:04.170Z</time>
      </trkpt>
      <trkpt lat="44.90236" lon="6.82745">
        <ele>1838</ele>
        <time>2014-07-31T14:49:06.260Z</time>
      </trkpt>
      <trkpt lat="44.90237" lon="6.82746">
        <ele>1838</ele>
        <time>2014-07-31T14:49:08.260Z</time>
      </trkpt>
      <trkpt lat="44.90238" lon="6.82748">
        <ele>1838</ele>
        <time>2014-07-31T14:49:10.260Z</time>
      </trkpt>
      <trkpt lat="44.90239" lon="6.82748">
        <ele>1838</ele>
        <time>2014-07-31T14:49:12.260Z</time>
      </trkpt>
      <trkpt lat="44.9024" lon="6.82747">
        <ele>1838</ele>
        <time>2014-07-31T14:49:16.250Z</time>
      </trkpt>
      <trkpt lat="44.90239" lon="6.82746">
        <ele>1838</ele>
        <time>2014-07-31T14:49:19.260Z</time>
      </trkpt>
      <trkpt lat="44.9024" lon="6.82748">
        <ele>1838</ele>
        <time>2014-07-31T14:49:25.260Z</time>
      </trkpt>
      <trkpt lat="44.90239" lon="6.82747">
        <ele>1838</ele>
        <time>2014-07-31T14:49:28.260Z</time>
      </trkpt>
      <trkpt lat="44.90237" lon="6.82746">
        <ele>1838</ele>
        <time>2014-07-31T14:49:30.260Z</time>
      </trkpt>
      <trkpt lat="44.90234" lon="6.82743">
        <ele>1838</ele>
        <time>2014-07-31T14:49:32.260Z</time>
      </trkpt>
      <trkpt lat="44.90234" lon="6.82741">
        <ele>1839</ele>
        <time>2014-07-31T14:49:36.260Z</time>
      </trkpt>
      <trkpt lat="44.90235" lon="6.82741">
        <ele>1839</ele>
        <time>2014-07-31T14:49:38.130Z</time>
      </trkpt>
      <trkpt lat="44.90237" lon="6.82741">
        <ele>1839</ele>
        <time>2014-07-31T14:49:40.260Z</time>
      </trkpt>
      <trkpt lat="44.90237" lon="6.82739">
        <ele>1839</ele>
        <time>2014-07-31T14:49:41.260Z</time>
      </trkpt>
      <trkpt lat="44.90239" lon="6.82742">
        <ele>1839</ele>
        <time>2014-07-31T14:49:43.160Z</time>
      </trkpt>
      <trkpt lat="44.90241" lon="6.82743">
        <ele>1839</ele>
        <time>2014-07-31T14:49:44.260Z</time>
      </trkpt>
      <trkpt lat="44.90242" lon="6.82742">
        <ele>1839</ele>
        <time>2014-07-31T14:49:52.260Z</time>
      </trkpt>
      <trkpt lat="44.90244" lon="6.82741">
        <ele>1839</ele>
        <time>2014-07-31T14:49:57.250Z</time>
      </trkpt>
      <trkpt lat="44.90245" lon="6.82742">
        <ele>1839</ele>
        <time>2014-07-31T14:49:59.160Z</time>
      </trkpt>
      <trkpt lat="44.90246" lon="6.82742">
        <ele>1839</ele>
        <time>2014-07-31T14:50:01.260Z</time>
      </trkpt>
      <trkpt lat="44.90245" lon="6.8274">
        <ele>1838</ele>
        <time>2014-07-31T14:50:07.260Z</time>
      </trkpt>
      <trkpt lat="44.90244" lon="6.82738">
        <ele>1838</ele>
        <time>2014-07-31T14:50:09.160Z</time>
      </trkpt>
      <trkpt lat="44.90243" lon="6.82738">
        <ele>1837.3</ele>
        <time>2014-07-31T14:50:15.260Z</time>
      </trkpt>
      <trkpt lat="44.90241" lon="6.82736">
        <ele>1837</ele>
        <time>2014-07-31T14:50:20.260Z</time>
      </trkpt>
      <trkpt lat="44.90241" lon="6.82738">
        <ele>1837</ele>
        <time>2014-07-31T14:50:25.260Z</time>
      </trkpt>
      <trkpt lat="44.90242" lon="6.82739">
        <ele>1837</ele>
        <time>2014-07-31T14:50:31.260Z</time>
      </trkpt>
      <trkpt lat="44.90242" lon="6.82741">
        <ele>1837</ele>
        <time>2014-07-31T14:50:33.260Z</time>
      </trkpt>
      <trkpt lat="44.90242" lon="6.82743">
        <ele>1837</ele>
        <time>2014-07-31T14:50:35.260Z</time>
      </trkpt>
      <trkpt lat="44.90241" lon="6.82743">
        <ele>1837</ele>
        <time>2014-07-31T14:50:37.380Z</time>
      </trkpt>
      <trkpt lat="44.90241" lon="6.82744">
        <ele>1837</ele>
        <time>2014-07-31T14:50:43.260Z</time>
      </trkpt>
      <trkpt lat="44.90243" lon="6.82743">
        <ele>1838</ele>
        <time>2014-07-31T14:50:56.260Z</time>
      </trkpt>
      <trkpt lat="44.90245" lon="6.82744">
        <ele>1838</ele>
        <time>2014-07-31T14:51:00.200Z</time>
      </trkpt>
      <trkpt lat="44.90247" lon="6.82744">
        <ele>1838</ele>
        <time>2014-07-31T14:51:02.250Z</time>
      </trkpt>
      <trkpt lat="44.90248" lon="6.82745">
        <ele>1838</ele>
        <time>2014-07-31T14:51:04.160Z</time>
      </trkpt>
      <trkpt lat="44.90246" lon="6.82746">
        <ele>1838.7</ele>
        <time>2014-07-31T14:51:05.260Z</time>
      </trkpt>
      <trkpt lat="44.90247" lon="6.82748">
        <ele>1839</ele>
        <time>2014-07-31T14:51:09.260Z</time>
      </trkpt>
      <trkpt lat="44.90245" lon="6.82746">
        <ele>1839</ele>
        <time>2014-07-31T14:51:11.260Z</time>
      </trkpt>
      <trkpt lat="44.90244" lon="6.82746">
        <ele>1839</ele>
        <time>2014-07-31T14:51:13.260Z</time>
      </trkpt>
      <trkpt lat="44.90243" lon="6.82747">
        <ele>1839</ele>
        <time>2014-07-31T14:51:15.260Z</time>
      </trkpt>
      <trkpt lat="44.90242" lon="6.82748">
        <ele>1839</ele>
        <time>2014-07-31T14:51:19.260Z</time>
      </trkpt>
      <trkpt lat="44.9024" lon="6.82746">
        <ele>1839</ele>
        <time>2014-07-31T14:51:21.160Z</time>
      </trkpt>
      <trkpt lat="44.90242" lon="6.82749">
        <ele>1839</ele>
        <time>2014-07-31T14:51:24.260Z</time>
      </trkpt>
      <trkpt lat="44.90244" lon="6.82751">
        <ele>1839</ele>
        <time>2014-07-31T14:51:26.260Z</time>
      </trkpt>
      <trkpt lat="44.90242" lon="6.82752">
        <ele>1839</ele>
        <time>2014-07-31T14:51:28.260Z</time>
      </trkpt>
      <trkpt lat="44.90241" lon="6.8275">
        <ele>1839</ele>
        <time>2014-07-31T14:51:30.260Z</time>
      </trkpt>
      <trkpt lat="44.9024" lon="6.82747">
        <ele>1839</ele>
        <time>2014-07-31T14:51:32.260Z</time>
      </trkpt>
      <trkpt lat="44.90236" lon="6.82742">
        <ele>1839</ele>
        <time>2014-07-31T14:51:34.230Z</time>
      </trkpt>
      <trkpt lat="44.90232" lon="6.82738">
        <ele>1839</ele>
        <time>2014-07-31T14:51:36.160Z</time>
      </trkpt>
      <trkpt lat="44.90232" lon="6.82737">
        <ele>1839</ele>
        <time>2014-07-31T14:51:37.230Z</time>
      </trkpt>
      <trkpt lat="44.90231" lon="6.82736">
        <ele>1839</ele>
        <time>2014-07-31T14:51:39.260Z</time>
      </trkpt>
      <trkpt lat="44.90227" lon="6.82733">
        <ele>1838.3</ele>
        <time>2014-07-31T14:51:45.260Z</time>
      </trkpt>
      <trkpt lat="44.90225" lon="6.82733">
        <ele>1838</ele>
        <time>2014-07-31T14:51:49.260Z</time>
      </trkpt>
      <trkpt lat="44.90227" lon="6.82734">
        <ele>1838</ele>
        <time>2014-07-31T14:51:51.220Z</time>
      </trkpt>
      <trkpt lat="44.90229" lon="6.82735">
        <ele>1838</ele>
        <time>2014-07-31T14:51:53.260Z</time>
      </trkpt>
      <trkpt lat="44.9023" lon="6.82736">
        <ele>1838</ele>
        <time>2014-07-31T14:51:55.260Z</time>
      </trkpt>
      <trkpt lat="44.90229" lon="6.82735">
        <ele>1838</ele>
        <time>2014-07-31T14:51:57.260Z</time>
      </trkpt>
      <trkpt lat="44.9023" lon="6.82734">
        <ele>1838</ele>
        <time>2014-07-31T14:51:59.160Z</time>
      </trkpt>
      <trkpt lat="44.9023" lon="6.82733">
        <ele>1838</ele>
        <time>2014-07-31T14:52:01.360Z</time>
      </trkpt>
      <trkpt lat="44.90225" lon="6.82731">
        <ele>1838</ele>
        <time>2014-07-31T14:52:03.260Z</time>
      </trkpt>
      <trkpt lat="44.90228" lon="6.82733">
        <ele>1838</ele>
        <time>2014-07-31T14:52:07.260Z</time>
      </trkpt>
      <trkpt lat="44.9023" lon="6.82735">
        <ele>1838</ele>
        <time>2014-07-31T14:52:09.160Z</time>
      </trkpt>
      <trkpt lat="44.9023" lon="6.82734">
        <ele>1838</ele>
        <time>2014-07-31T14:52:12.260Z</time>
      </trkpt>
      <trkpt lat="44.90228" lon="6.82732">
        <ele>1838</ele>
        <time>2014-07-31T14:52:14.160Z</time>
      </trkpt>
      <trkpt lat="44.90226" lon="6.82732">
        <ele>1838</ele>
        <time>2014-07-31T14:52:15.260Z</time>
      </trkpt>
      <trkpt lat="44.90222" lon="6.82728">
        <ele>1838</ele>
        <time>2014-07-31T14:52:17.130Z</time>
      </trkpt>
      <trkpt lat="44.90218" lon="6.82726">
        <ele>1838</ele>
        <time>2014-07-31T14:52:19.260Z</time>
      </trkpt>
      <trkpt lat="44.90216" lon="6.82723">
        <ele>1838</ele>
        <time>2014-07-31T14:52:21.260Z</time>
      </trkpt>
      <trkpt lat="44.90213" lon="6.82721">
        <ele>1838</ele>
        <time>2014-07-31T14:52:23.260Z</time>
      </trkpt>
      <trkpt lat="44.90212" lon="6.82721">
        <ele>1838</ele>
        <time>2014-07-31T14:52:25.260Z</time>
      </trkpt>
      <trkpt lat="44.9021" lon="6.8272">
        <ele>1838</ele>
        <time>2014-07-31T14:52:27.260Z</time>
      </trkpt>
      <trkpt lat="44.90207" lon="6.82718">
        <ele>1838</ele>
        <time>2014-07-31T14:52:29.160Z</time>
      </trkpt>
      <trkpt lat="44.90205" lon="6.82718">
        <ele>1838</ele>
        <time>2014-07-31T14:52:30.260Z</time>
      </trkpt>
      <trkpt lat="44.90207" lon="6.82718">
        <ele>1838</ele>
        <time>2014-07-31T14:52:32.260Z</time>
      </trkpt>
      <trkpt lat="44.90213" lon="6.82722">
        <ele>1838</ele>
        <time>2014-07-31T14:52:37.160Z</time>
      </trkpt>
      <trkpt lat="44.90218" lon="6.82725">
        <ele>1838</ele>
        <time>2014-07-31T14:52:38.260Z</time>
      </trkpt>
      <trkpt lat="44.9022" lon="6.82726">
        <ele>1838</ele>
        <time>2014-07-31T14:52:40.160Z</time>
      </trkpt>
      <trkpt lat="44.90222" lon="6.82728">
        <ele>1838</ele>
        <time>2014-07-31T14:52:41.260Z</time>
      </trkpt>
      <trkpt lat="44.90223" lon="6.82727">
        <ele>1838</ele>
        <time>2014-07-31T14:52:43.160Z</time>
      </trkpt>
      <trkpt lat="44.90225" lon="6.82728">
        <ele>1838</ele>
        <time>2014-07-31T14:52:44.260Z</time>
      </trkpt>
      <trkpt lat="44.90226" lon="6.82729">
        <ele>1839</ele>
        <time>2014-07-31T14:52:46.260Z</time>
      </trkpt>
      <trkpt lat="44.90228" lon="6.8273">
        <ele>1839</ele>
        <time>2014-07-31T14:52:48.160Z</time>
      </trkpt>
      <trkpt lat="44.90229" lon="6.82731">
        <ele>1839</ele>
        <time>2014-07-31T14:52:49.260Z</time>
      </trkpt>
      <trkpt lat="44.90231" lon="6.82732">
        <ele>1839</ele>
        <time>2014-07-31T14:52:51.120Z</time>
      </trkpt>
      <trkpt lat="44.90234" lon="6.82733">
        <ele>1839</ele>
        <time>2014-07-31T14:52:54.360Z</time>
      </trkpt>
      <trkpt lat="44.90236" lon="6.82733">
        <ele>1839</ele>
        <time>2014-07-31T14:52:56.080Z</time>
      </trkpt>
      <trkpt lat="44.90236" lon="6.82734">
        <ele>1839</ele>
        <time>2014-07-31T14:52:59.260Z</time>
      </trkpt>
      <trkpt lat="44.90237" lon="6.82734">
        <ele>1839</ele>
        <time>2014-07-31T14:53:01.160Z</time>
      </trkpt>
      <trkpt lat="44.90237" lon="6.82733">
        <ele>1839</ele>
        <time>2014-07-31T14:53:04.260Z</time>
      </trkpt>
      <trkpt lat="44.90238" lon="6.82731">
        <ele>1839</ele>
        <time>2014-07-31T14:53:06.260Z</time>
      </trkpt>
      <trkpt lat="44.90237" lon="6.82728">
        <ele>1839</ele>
        <time>2014-07-31T14:53:08.250Z</time>
      </trkpt>
      <trkpt lat="44.90236" lon="6.82724">
        <ele>1839</ele>
        <time>2014-07-31T14:53:10.260Z</time>
      </trkpt>
      <trkpt lat="44.90235" lon="6.8272">
        <ele>1839</ele>
        <time>2014-07-31T14:53:12.160Z</time>
      </trkpt>
      <trkpt lat="44.90236" lon="6.82719">
        <ele>1839</ele>
        <time>2014-07-31T14:53:13.260Z</time>
      </trkpt>
      <trkpt lat="44.90239" lon="6.82716">
        <ele>1839.7</ele>
        <time>2014-07-31T14:53:15.260Z</time>
      </trkpt>
      <trkpt lat="44.90239" lon="6.82714">
        <ele>1840</ele>
        <time>2014-07-31T14:53:17.220Z</time>
      </trkpt>
      <trkpt lat="44.9024" lon="6.8271">
        <ele>1840</ele>
        <time>2014-07-31T14:53:19.230Z</time>
      </trkpt>
      <trkpt lat="44.9024" lon="6.82706">
        <ele>1840</ele>
        <time>2014-07-31T14:53:21.260Z</time>
      </trkpt>
      <trkpt lat="44.90241" lon="6.82704">
        <ele>1840</ele>
        <time>2014-07-31T14:53:23.160Z</time>
      </trkpt>
      <trkpt lat="44.90243" lon="6.82702">
        <ele>1841</ele>
        <time>2014-07-31T14:53:26.260Z</time>
      </trkpt>
      <trkpt lat="44.90244" lon="6.82699">
        <ele>1841</ele>
        <time>2014-07-31T14:53:28.160Z</time>
      </trkpt>
      <trkpt lat="44.90244" lon="6.82698">
        <ele>1841</ele>
        <time>2014-07-31T14:53:29.260Z</time>
      </trkpt>
      <trkpt lat="44.90242" lon="6.82695">
        <ele>1841</ele>
        <time>2014-07-31T14:53:31.260Z</time>
      </trkpt>
      <trkpt lat="44.90242" lon="6.82694">
        <ele>1841</ele>
        <time>2014-07-31T14:53:33.160Z</time>
      </trkpt>
      <trkpt lat="44.90243" lon="6.82691">
        <ele>1843</ele>
        <time>2014-07-31T14:53:36.230Z</time>
      </trkpt>
      <trkpt lat="44.9024" lon="6.82687">
        <ele>1843</ele>
        <time>2014-07-31T14:53:38.260Z</time>
      </trkpt>
      <trkpt lat="44.90237" lon="6.82684">
        <ele>1843</ele>
        <time>2014-07-31T14:53:40.260Z</time>
      </trkpt>
      <trkpt lat="44.90234" lon="6.82682">
        <ele>1843</ele>
        <time>2014-07-31T14:53:42.360Z</time>
      </trkpt>
      <trkpt lat="44.90232" lon="6.82681">
        <ele>1843</ele>
        <time>2014-07-31T14:53:44.150Z</time>
      </trkpt>
      <trkpt lat="44.90232" lon="6.8268">
        <ele>1846</ele>
        <time>2014-07-31T14:53:47.260Z</time>
      </trkpt>
      <trkpt lat="44.90231" lon="6.82679">
        <ele>1846</ele>
        <time>2014-07-31T14:53:49.260Z</time>
      </trkpt>
      <trkpt lat="44.9023" lon="6.82681">
        <ele>1847</ele>
        <time>2014-07-31T14:53:51.120Z</time>
      </trkpt>
      <trkpt lat="44.90228" lon="6.82682">
        <ele>1847.7</ele>
        <time>2014-07-31T14:53:55.260Z</time>
      </trkpt>
      <trkpt lat="44.90225" lon="6.82682">
        <ele>1848</ele>
        <time>2014-07-31T14:53:57.160Z</time>
      </trkpt>
      <trkpt lat="44.90224" lon="6.82682">
        <ele>1848</ele>
        <time>2014-07-31T14:53:58.260Z</time>
      </trkpt>
      <trkpt lat="44.90221" lon="6.82681">
        <ele>1848</ele>
        <time>2014-07-31T14:54:00.220Z</time>
      </trkpt>
      <trkpt lat="44.9022" lon="6.82681">
        <ele>1848</ele>
        <time>2014-07-31T14:54:02.260Z</time>
      </trkpt>
      <trkpt lat="44.90217" lon="6.82681">
        <ele>1848</ele>
        <time>2014-07-31T14:54:04.260Z</time>
      </trkpt>
      <trkpt lat="44.90214" lon="6.8268">
        <ele>1850</ele>
        <time>2014-07-31T14:54:06.260Z</time>
      </trkpt>
      <trkpt lat="44.90212" lon="6.82679">
        <ele>1850</ele>
        <time>2014-07-31T14:54:08.150Z</time>
      </trkpt>
      <trkpt lat="44.90211" lon="6.82679">
        <ele>1850</ele>
        <time>2014-07-31T14:54:09.260Z</time>
      </trkpt>
      <trkpt lat="44.90209" lon="6.82678">
        <ele>1850</ele>
        <time>2014-07-31T14:54:11.260Z</time>
      </trkpt>
      <trkpt lat="44.90208" lon="6.82678">
        <ele>1850</ele>
        <time>2014-07-31T14:54:13.260Z</time>
      </trkpt>
      <trkpt lat="44.90207" lon="6.82678">
        <ele>1851.4</ele>
        <time>2014-07-31T14:54:15.260Z</time>
      </trkpt>
      <trkpt lat="44.90205" lon="6.82677">
        <ele>1852</ele>
        <time>2014-07-31T14:54:17.230Z</time>
      </trkpt>
      <trkpt lat="44.90202" lon="6.82675">
        <ele>1852</ele>
        <time>2014-07-31T14:54:19.160Z</time>
      </trkpt>
      <trkpt lat="44.90201" lon="6.82674">
        <ele>1852</ele>
        <time>2014-07-31T14:54:20.260Z</time>
      </trkpt>
      <trkpt lat="44.90199" lon="6.82674">
        <ele>1852</ele>
        <time>2014-07-31T14:54:22.260Z</time>
      </trkpt>
      <trkpt lat="44.90198" lon="6.82675">
        <ele>1852</ele>
        <time>2014-07-31T14:54:24.260Z</time>
      </trkpt>
      <trkpt lat="44.90196" lon="6.82674">
        <ele>1854</ele>
        <time>2014-07-31T14:54:26.260Z</time>
      </trkpt>
      <trkpt lat="44.90194" lon="6.82674">
        <ele>1854</ele>
        <time>2014-07-31T14:54:28.260Z</time>
      </trkpt>
      <trkpt lat="44.90192" lon="6.82674">
        <ele>1854</ele>
        <time>2014-07-31T14:54:30.260Z</time>
      </trkpt>
      <trkpt lat="44.90191" lon="6.82675">
        <ele>1854</ele>
        <time>2014-07-31T14:54:32.160Z</time>
      </trkpt>
      <trkpt lat="44.9019" lon="6.82674">
        <ele>1854</ele>
        <time>2014-07-31T14:54:33.260Z</time>
      </trkpt>
      <trkpt lat="44.90188" lon="6.82674">
        <ele>1854</ele>
        <time>2014-07-31T14:54:34.240Z</time>
      </trkpt>
      <trkpt lat="44.90187" lon="6.82674">
        <ele>1855</ele>
        <time>2014-07-31T14:54:36.260Z</time>
      </trkpt>
      <trkpt lat="44.90186" lon="6.82675">
        <ele>1855</ele>
        <time>2014-07-31T14:54:38.260Z</time>
      </trkpt>
      <trkpt lat="44.90185" lon="6.82676">
        <ele>1855</ele>
        <time>2014-07-31T14:54:40.160Z</time>
      </trkpt>
      <trkpt lat="44.90182" lon="6.82675">
        <ele>1855</ele>
        <time>2014-07-31T14:54:43.150Z</time>
      </trkpt>
      <trkpt lat="44.90181" lon="6.82674">
        <ele>1855</ele>
        <time>2014-07-31T14:54:44.230Z</time>
      </trkpt>
      <trkpt lat="44.90178" lon="6.82671">
        <ele>1857</ele>
        <time>2014-07-31T14:54:46.260Z</time>
      </trkpt>
      <trkpt lat="44.90174" lon="6.82666">
        <ele>1857</ele>
        <time>2014-07-31T14:54:48.260Z</time>
      </trkpt>
      <trkpt lat="44.9017" lon="6.82662">
        <ele>1857</ele>
        <time>2014-07-31T14:54:50.260Z</time>
      </trkpt>
      <trkpt lat="44.90167" lon="6.82658">
        <ele>1857</ele>
        <time>2014-07-31T14:54:52.260Z</time>
      </trkpt>
      <trkpt lat="44.90165" lon="6.82656">
        <ele>1857</ele>
        <time>2014-07-31T14:54:54.260Z</time>
      </trkpt>
      <trkpt lat="44.90163" lon="6.82655">
        <ele>1859</ele>
        <time>2014-07-31T14:54:56.260Z</time>
      </trkpt>
      <trkpt lat="44.90162" lon="6.82653">
        <ele>1859</ele>
        <time>2014-07-31T14:54:58.260Z</time>
      </trkpt>
      <trkpt lat="44.9016" lon="6.82651">
        <ele>1859</ele>
        <time>2014-07-31T14:55:00.220Z</time>
      </trkpt>
      <trkpt lat="44.90162" lon="6.82652">
        <ele>1859</ele>
        <time>2014-07-31T14:55:02.160Z</time>
      </trkpt>
      <trkpt lat="44.90163" lon="6.82652">
        <ele>1859</ele>
        <time>2014-07-31T14:55:03.260Z</time>
      </trkpt>
      <trkpt lat="44.90162" lon="6.82651">
        <ele>1859.7</ele>
        <time>2014-07-31T14:55:05.260Z</time>
      </trkpt>
      <trkpt lat="44.90161" lon="6.8265">
        <ele>1860</ele>
        <time>2014-07-31T14:55:07.260Z</time>
      </trkpt>
      <trkpt lat="44.9016" lon="6.8265">
        <ele>1860</ele>
        <time>2014-07-31T14:55:09.260Z</time>
      </trkpt>
      <trkpt lat="44.9016" lon="6.82648">
        <ele>1860</ele>
        <time>2014-07-31T14:55:11.260Z</time>
      </trkpt>
      <trkpt lat="44.90159" lon="6.82646">
        <ele>1860</ele>
        <time>2014-07-31T14:55:13.160Z</time>
      </trkpt>
      <trkpt lat="44.90158" lon="6.82645">
        <ele>1862</ele>
        <time>2014-07-31T14:55:16.250Z</time>
      </trkpt>
      <trkpt lat="44.90156" lon="6.82643">
        <ele>1862</ele>
        <time>2014-07-31T14:55:18.230Z</time>
      </trkpt>
      <trkpt lat="44.90155" lon="6.82642">
        <ele>1862</ele>
        <time>2014-07-31T14:55:20.260Z</time>
      </trkpt>
      <trkpt lat="44.90153" lon="6.82641">
        <ele>1862</ele>
        <time>2014-07-31T14:55:22.260Z</time>
      </trkpt>
      <trkpt lat="44.90151" lon="6.82639">
        <ele>1862</ele>
        <time>2014-07-31T14:55:24.260Z</time>
      </trkpt>
      <trkpt lat="44.90149" lon="6.82638">
        <ele>1863</ele>
        <time>2014-07-31T14:55:26.280Z</time>
      </trkpt>
      <trkpt lat="44.90148" lon="6.82638">
        <ele>1863</ele>
        <time>2014-07-31T14:55:27.260Z</time>
      </trkpt>
      <trkpt lat="44.90146" lon="6.82637">
        <ele>1863</ele>
        <time>2014-07-31T14:55:29.260Z</time>
      </trkpt>
      <trkpt lat="44.90144" lon="6.82636">
        <ele>1863</ele>
        <time>2014-07-31T14:55:31.260Z</time>
      </trkpt>
      <trkpt lat="44.90142" lon="6.82634">
        <ele>1863</ele>
        <time>2014-07-31T14:55:33.260Z</time>
      </trkpt>
      <trkpt lat="44.90139" lon="6.82634">
        <ele>1864.3</ele>
        <time>2014-07-31T14:55:35.230Z</time>
      </trkpt>
      <trkpt lat="44.90137" lon="6.82633">
        <ele>1865</ele>
        <time>2014-07-31T14:55:37.160Z</time>
      </trkpt>
      <trkpt lat="44.90136" lon="6.82631">
        <ele>1865</ele>
        <time>2014-07-31T14:55:38.260Z</time>
      </trkpt>
      <trkpt lat="44.90134" lon="6.8263">
        <ele>1865</ele>
        <time>2014-07-31T14:55:40.180Z</time>
      </trkpt>
      <trkpt lat="44.90133" lon="6.82629">
        <ele>1865</ele>
        <time>2014-07-31T14:55:42.260Z</time>
      </trkpt>
      <trkpt lat="44.90132" lon="6.82628">
        <ele>1865</ele>
        <time>2014-07-31T14:55:44.260Z</time>
      </trkpt>
      <trkpt lat="44.9013" lon="6.82627">
        <ele>1867</ele>
        <time>2014-07-31T14:55:46.260Z</time>
      </trkpt>
      <trkpt lat="44.90128" lon="6.82625">
        <ele>1867</ele>
        <time>2014-07-31T14:55:48.260Z</time>
      </trkpt>
      <trkpt lat="44.90126" lon="6.82622">
        <ele>1867</ele>
        <time>2014-07-31T14:55:50.160Z</time>
      </trkpt>
      <trkpt lat="44.90125" lon="6.82622">
        <ele>1867</ele>
        <time>2014-07-31T14:55:52.130Z</time>
      </trkpt>
      <trkpt lat="44.90125" lon="6.82623">
        <ele>1867</ele>
        <time>2014-07-31T14:55:54.260Z</time>
      </trkpt>
      <trkpt lat="44.90122" lon="6.82621">
        <ele>1869</ele>
        <time>2014-07-31T14:55:56.260Z</time>
      </trkpt>
      <trkpt lat="44.9012" lon="6.82618">
        <ele>1869</ele>
        <time>2014-07-31T14:55:58.260Z</time>
      </trkpt>
      <trkpt lat="44.90119" lon="6.82618">
        <ele>1869</ele>
        <time>2014-07-31T14:56:00.120Z</time>
      </trkpt>
      <trkpt lat="44.90119" lon="6.82619">
        <ele>1869</ele>
        <time>2014-07-31T14:56:01.260Z</time>
      </trkpt>
      <trkpt lat="44.90118" lon="6.82618">
        <ele>1869</ele>
        <time>2014-07-31T14:56:03.160Z</time>
      </trkpt>
      <trkpt lat="44.90116" lon="6.82616">
        <ele>1869</ele>
        <time>2014-07-31T14:56:04.260Z</time>
      </trkpt>
      <trkpt lat="44.90113" lon="6.82614">
        <ele>1871</ele>
        <time>2014-07-31T14:56:06.260Z</time>
      </trkpt>
      <trkpt lat="44.90111" lon="6.82613">
        <ele>1871</ele>
        <time>2014-07-31T14:56:08.260Z</time>
      </trkpt>
      <trkpt lat="44.90108" lon="6.82612">
        <ele>1871</ele>
        <time>2014-07-31T14:56:10.260Z</time>
      </trkpt>
      <trkpt lat="44.90105" lon="6.8261">
        <ele>1871</ele>
        <time>2014-07-31T14:56:12.260Z</time>
      </trkpt>
      <trkpt lat="44.90104" lon="6.8261">
        <ele>1871</ele>
        <time>2014-07-31T14:56:14.260Z</time>
      </trkpt>
      <trkpt lat="44.90103" lon="6.82609">
        <ele>1872</ele>
        <time>2014-07-31T14:56:16.160Z</time>
      </trkpt>
      <trkpt lat="44.90102" lon="6.82608">
        <ele>1872</ele>
        <time>2014-07-31T14:56:17.220Z</time>
      </trkpt>
      <trkpt lat="44.90099" lon="6.82605">
        <ele>1872</ele>
        <time>2014-07-31T14:56:19.160Z</time>
      </trkpt>
      <trkpt lat="44.90098" lon="6.82604">
        <ele>1872</ele>
        <time>2014-07-31T14:56:20.260Z</time>
      </trkpt>
      <trkpt lat="44.90096" lon="6.82603">
        <ele>1872</ele>
        <time>2014-07-31T14:56:22.260Z</time>
      </trkpt>
      <trkpt lat="44.90094" lon="6.82601">
        <ele>1872</ele>
        <time>2014-07-31T14:56:24.160Z</time>
      </trkpt>
      <trkpt lat="44.90093" lon="6.826">
        <ele>1873.4</ele>
        <time>2014-07-31T14:56:25.260Z</time>
      </trkpt>
      <trkpt lat="44.90091" lon="6.82599">
        <ele>1874</ele>
        <time>2014-07-31T14:56:27.180Z</time>
      </trkpt>
      <trkpt lat="44.9009" lon="6.82598">
        <ele>1874</ele>
        <time>2014-07-31T14:56:29.280Z</time>
      </trkpt>
      <trkpt lat="44.90089" lon="6.82597">
        <ele>1874</ele>
        <time>2014-07-31T14:56:30.260Z</time>
      </trkpt>
      <trkpt lat="44.90087" lon="6.82595">
        <ele>1874</ele>
        <time>2014-07-31T14:56:32.260Z</time>
      </trkpt>
      <trkpt lat="44.90085" lon="6.82593">
        <ele>1874</ele>
        <time>2014-07-31T14:56:34.220Z</time>
      </trkpt>
      <trkpt lat="44.90083" lon="6.82591">
        <ele>1875</ele>
        <time>2014-07-31T14:56:36.260Z</time>
      </trkpt>
      <trkpt lat="44.90081" lon="6.8259">
        <ele>1875</ele>
        <time>2014-07-31T14:56:38.260Z</time>
      </trkpt>
      <trkpt lat="44.90079" lon="6.82588">
        <ele>1875</ele>
        <time>2014-07-31T14:56:40.260Z</time>
      </trkpt>
      <trkpt lat="44.90078" lon="6.82587">
        <ele>1875</ele>
        <time>2014-07-31T14:56:42.260Z</time>
      </trkpt>
      <trkpt lat="44.90075" lon="6.82585">
        <ele>1875</ele>
        <time>2014-07-31T14:56:44.160Z</time>
      </trkpt>
      <trkpt lat="44.90074" lon="6.82584">
        <ele>1876.4</ele>
        <time>2014-07-31T14:56:45.260Z</time>
      </trkpt>
      <trkpt lat="44.90073" lon="6.82583">
        <ele>1877</ele>
        <time>2014-07-31T14:56:47.260Z</time>
      </trkpt>
      <trkpt lat="44.90071" lon="6.82581">
        <ele>1877</ele>
        <time>2014-07-31T14:56:49.160Z</time>
      </trkpt>
      <trkpt lat="44.90069" lon="6.82579">
        <ele>1877</ele>
        <time>2014-07-31T14:56:52.260Z</time>
      </trkpt>
      <trkpt lat="44.90068" lon="6.82577">
        <ele>1877</ele>
        <time>2014-07-31T14:56:53.290Z</time>
      </trkpt>
      <trkpt lat="44.90067" lon="6.82576">
        <ele>1878.4</ele>
        <time>2014-07-31T14:56:55.260Z</time>
      </trkpt>
      <trkpt lat="44.90066" lon="6.82574">
        <ele>1879</ele>
        <time>2014-07-31T14:56:57.260Z</time>
      </trkpt>
      <trkpt lat="44.90064" lon="6.82572">
        <ele>1879</ele>
        <time>2014-07-31T14:56:59.260Z</time>
      </trkpt>
      <trkpt lat="44.90062" lon="6.8257">
        <ele>1879</ele>
        <time>2014-07-31T14:57:01.260Z</time>
      </trkpt>
      <trkpt lat="44.9006" lon="6.82568">
        <ele>1879</ele>
        <time>2014-07-31T14:57:03.160Z</time>
      </trkpt>
      <trkpt lat="44.90059" lon="6.82567">
        <ele>1879</ele>
        <time>2014-07-31T14:57:04.260Z</time>
      </trkpt>
      <trkpt lat="44.90058" lon="6.82566">
        <ele>1881</ele>
        <time>2014-07-31T14:57:06.260Z</time>
      </trkpt>
      <trkpt lat="44.90056" lon="6.82563">
        <ele>1881</ele>
        <time>2014-07-31T14:57:08.260Z</time>
      </trkpt>
      <trkpt lat="44.90054" lon="6.82562">
        <ele>1881</ele>
        <time>2014-07-31T14:57:10.260Z</time>
      </trkpt>
      <trkpt lat="44.90053" lon="6.82561">
        <ele>1881</ele>
        <time>2014-07-31T14:57:12.160Z</time>
      </trkpt>
      <trkpt lat="44.90051" lon="6.8256">
        <ele>1881.7</ele>
        <time>2014-07-31T14:57:15.260Z</time>
      </trkpt>
      <trkpt lat="44.90049" lon="6.82558">
        <ele>1882</ele>
        <time>2014-07-31T14:57:17.250Z</time>
      </trkpt>
      <trkpt lat="44.90048" lon="6.82556">
        <ele>1882</ele>
        <time>2014-07-31T14:57:19.260Z</time>
      </trkpt>
      <trkpt lat="44.90047" lon="6.82554">
        <ele>1882</ele>
        <time>2014-07-31T14:57:21.260Z</time>
      </trkpt>
      <trkpt lat="44.90047" lon="6.82553">
        <ele>1882</ele>
        <time>2014-07-31T14:57:23.260Z</time>
      </trkpt>
      <trkpt lat="44.90046" lon="6.82552">
        <ele>1883.7</ele>
        <time>2014-07-31T14:57:25.150Z</time>
      </trkpt>
      <trkpt lat="44.90045" lon="6.82551">
        <ele>1885</ele>
        <time>2014-07-31T14:57:26.260Z</time>
      </trkpt>
      <trkpt lat="44.90043" lon="6.82548">
        <ele>1885</ele>
        <time>2014-07-31T14:57:28.160Z</time>
      </trkpt>
      <trkpt lat="44.90042" lon="6.82546">
        <ele>1885</ele>
        <time>2014-07-31T14:57:29.260Z</time>
      </trkpt>
      <trkpt lat="44.90041" lon="6.82543">
        <ele>1887</ele>
        <time>2014-07-31T14:57:31.280Z</time>
      </trkpt>
      <trkpt lat="44.9004" lon="6.82541">
        <ele>1887</ele>
        <time>2014-07-31T14:57:34.080Z</time>
      </trkpt>
      <trkpt lat="44.9004" lon="6.82539">
        <ele>1887.7</ele>
        <time>2014-07-31T14:57:35.260Z</time>
      </trkpt>
      <trkpt lat="44.90039" lon="6.82536">
        <ele>1888</ele>
        <time>2014-07-31T14:57:37.160Z</time>
      </trkpt>
      <trkpt lat="44.90037" lon="6.82535">
        <ele>1888</ele>
        <time>2014-07-31T14:57:40.260Z</time>
      </trkpt>
      <trkpt lat="44.90039" lon="6.82536">
        <ele>1888</ele>
        <time>2014-07-31T14:57:42.260Z</time>
      </trkpt>
      <trkpt lat="44.90041" lon="6.82535">
        <ele>1888</ele>
        <time>2014-07-31T14:57:44.260Z</time>
      </trkpt>
      <trkpt lat="44.90041" lon="6.82531">
        <ele>1888</ele>
        <time>2014-07-31T14:57:46.160Z</time>
      </trkpt>
      <trkpt lat="44.90041" lon="6.82529">
        <ele>1888</ele>
        <time>2014-07-31T14:57:47.260Z</time>
      </trkpt>
      <trkpt lat="44.90042" lon="6.82526">
        <ele>1888</ele>
        <time>2014-07-31T14:57:49.160Z</time>
      </trkpt>
      <trkpt lat="44.90042" lon="6.82524">
        <ele>1888</ele>
        <time>2014-07-31T14:57:50.260Z</time>
      </trkpt>
      <trkpt lat="44.90044" lon="6.82521">
        <ele>1888</ele>
        <time>2014-07-31T14:57:52.260Z</time>
      </trkpt>
      <trkpt lat="44.90044" lon="6.82518">
        <ele>1888</ele>
        <time>2014-07-31T14:57:54.160Z</time>
      </trkpt>
      <trkpt lat="44.90045" lon="6.82516">
        <ele>1888</ele>
        <time>2014-07-31T14:57:55.260Z</time>
      </trkpt>
      <trkpt lat="44.90046" lon="6.82513">
        <ele>1888</ele>
        <time>2014-07-31T14:57:57.260Z</time>
      </trkpt>
      <trkpt lat="44.90047" lon="6.8251">
        <ele>1888</ele>
        <time>2014-07-31T14:57:59.250Z</time>
      </trkpt>
      <trkpt lat="44.90047" lon="6.82507">
        <ele>1888</ele>
        <time>2014-07-31T14:58:01.260Z</time>
      </trkpt>
      <trkpt lat="44.90047" lon="6.82503">
        <ele>1888</ele>
        <time>2014-07-31T14:58:03.260Z</time>
      </trkpt>
      <trkpt lat="44.90049" lon="6.825">
        <ele>1889.3</ele>
        <time>2014-07-31T14:58:05.260Z</time>
      </trkpt>
      <trkpt lat="44.90051" lon="6.82497">
        <ele>1890</ele>
        <time>2014-07-31T14:58:07.160Z</time>
      </trkpt>
      <trkpt lat="44.90053" lon="6.82495">
        <ele>1890</ele>
        <time>2014-07-31T14:58:09.250Z</time>
      </trkpt>
      <trkpt lat="44.90054" lon="6.82492">
        <ele>1890</ele>
        <time>2014-07-31T14:58:11.260Z</time>
      </trkpt>
      <trkpt lat="44.90054" lon="6.82488">
        <ele>1890</ele>
        <time>2014-07-31T14:58:13.260Z</time>
      </trkpt>
      <trkpt lat="44.90055" lon="6.82485">
        <ele>1891.4</ele>
        <time>2014-07-31T14:58:15.260Z</time>
      </trkpt>
      <trkpt lat="44.90056" lon="6.82482">
        <ele>1892</ele>
        <time>2014-07-31T14:58:17.220Z</time>
      </trkpt>
      <trkpt lat="44.90055" lon="6.82479">
        <ele>1892</ele>
        <time>2014-07-31T14:58:19.260Z</time>
      </trkpt>
      <trkpt lat="44.90053" lon="6.82475">
        <ele>1892</ele>
        <time>2014-07-31T14:58:21.260Z</time>
      </trkpt>
      <trkpt lat="44.90052" lon="6.82474">
        <ele>1892</ele>
        <time>2014-07-31T14:58:22.260Z</time>
      </trkpt>
      <trkpt lat="44.90049" lon="6.82473">
        <ele>1892</ele>
        <time>2014-07-31T14:58:24.160Z</time>
      </trkpt>
      <trkpt lat="44.90047" lon="6.82473">
        <ele>1892.7</ele>
        <time>2014-07-31T14:58:25.230Z</time>
      </trkpt>
      <trkpt lat="44.90045" lon="6.82473">
        <ele>1893</ele>
        <time>2014-07-31T14:58:27.260Z</time>
      </trkpt>
      <trkpt lat="44.90043" lon="6.82476">
        <ele>1893</ele>
        <time>2014-07-31T14:58:29.260Z</time>
      </trkpt>
      <trkpt lat="44.90041" lon="6.82479">
        <ele>1893</ele>
        <time>2014-07-31T14:58:31.260Z</time>
      </trkpt>
      <trkpt lat="44.90039" lon="6.82482">
        <ele>1893</ele>
        <time>2014-07-31T14:58:33.160Z</time>
      </trkpt>
      <trkpt lat="44.90037" lon="6.82484">
        <ele>1893.7</ele>
        <time>2014-07-31T14:58:35.260Z</time>
      </trkpt>
      <trkpt lat="44.90034" lon="6.82486">
        <ele>1894</ele>
        <time>2014-07-31T14:58:37.160Z</time>
      </trkpt>
      <trkpt lat="44.90033" lon="6.82487">
        <ele>1894</ele>
        <time>2014-07-31T14:58:38.260Z</time>
      </trkpt>
      <trkpt lat="44.90029" lon="6.82488">
        <ele>1894</ele>
        <time>2014-07-31T14:58:40.260Z</time>
      </trkpt>
      <trkpt lat="44.90026" lon="6.82488">
        <ele>1894</ele>
        <time>2014-07-31T14:58:42.230Z</time>
      </trkpt>
      <trkpt lat="44.90023" lon="6.82488">
        <ele>1894</ele>
        <time>2014-07-31T14:58:44.260Z</time>
      </trkpt>
      <trkpt lat="44.90021" lon="6.82488">
        <ele>1895</ele>
        <time>2014-07-31T14:58:46.150Z</time>
      </trkpt>
      <trkpt lat="44.90019" lon="6.82488">
        <ele>1895</ele>
        <time>2014-07-31T14:58:47.260Z</time>
      </trkpt>
      <trkpt lat="44.90016" lon="6.82489">
        <ele>1895</ele>
        <time>2014-07-31T14:58:49.260Z</time>
      </trkpt>
      <trkpt lat="44.90013" lon="6.82489">
        <ele>1895</ele>
        <time>2014-07-31T14:58:51.220Z</time>
      </trkpt>
      <trkpt lat="44.9001" lon="6.8249">
        <ele>1895</ele>
        <time>2014-07-31T14:58:53.260Z</time>
      </trkpt>
      <trkpt lat="44.90007" lon="6.8249">
        <ele>1896.2</ele>
        <time>2014-07-31T14:58:55.160Z</time>
      </trkpt>
      <trkpt lat="44.90006" lon="6.82491">
        <ele>1897</ele>
        <time>2014-07-31T14:58:56.260Z</time>
      </trkpt>
      <trkpt lat="44.90004" lon="6.82492">
        <ele>1897</ele>
        <time>2014-07-31T14:58:58.080Z</time>
      </trkpt>
      <trkpt lat="44.90002" lon="6.82493">
        <ele>1897</ele>
        <time>2014-07-31T14:58:59.230Z</time>
      </trkpt>
      <trkpt lat="44.9" lon="6.82494">
        <ele>1897</ele>
        <time>2014-07-31T14:59:01.260Z</time>
      </trkpt>
      <trkpt lat="44.89997" lon="6.82495">
        <ele>1897</ele>
        <time>2014-07-31T14:59:03.160Z</time>
      </trkpt>
      <trkpt lat="44.89996" lon="6.82496">
        <ele>1897</ele>
        <time>2014-07-31T14:59:04.260Z</time>
      </trkpt>
      <trkpt lat="44.89993" lon="6.82497">
        <ele>1899</ele>
        <time>2014-07-31T14:59:06.260Z</time>
      </trkpt>
      <trkpt lat="44.8999" lon="6.82497">
        <ele>1899</ele>
        <time>2014-07-31T14:59:08.250Z</time>
      </trkpt>
      <trkpt lat="44.89988" lon="6.82498">
        <ele>1899</ele>
        <time>2014-07-31T14:59:10.260Z</time>
      </trkpt>
      <trkpt lat="44.89985" lon="6.82498">
        <ele>1899</ele>
        <time>2014-07-31T14:59:12.280Z</time>
      </trkpt>
      <trkpt lat="44.89984" lon="6.82498">
        <ele>1899</ele>
        <time>2014-07-31T14:59:13.260Z</time>
      </trkpt>
      <trkpt lat="44.8998" lon="6.82498">
        <ele>1900.4</ele>
        <time>2014-07-31T14:59:15.260Z</time>
      </trkpt>
      <trkpt lat="44.89977" lon="6.82498">
        <ele>1901</ele>
        <time>2014-07-31T14:59:17.220Z</time>
      </trkpt>
      <trkpt lat="44.89975" lon="6.82497">
        <ele>1901</ele>
        <time>2014-07-31T14:59:19.260Z</time>
      </trkpt>
      <trkpt lat="44.89972" lon="6.82496">
        <ele>1901</ele>
        <time>2014-07-31T14:59:21.250Z</time>
      </trkpt>
      <trkpt lat="44.89969" lon="6.82496">
        <ele>1901</ele>
        <time>2014-07-31T14:59:23.260Z</time>
      </trkpt>
      <trkpt lat="44.89967" lon="6.82495">
        <ele>1901.7</ele>
        <time>2014-07-31T14:59:25.260Z</time>
      </trkpt>
      <trkpt lat="44.89964" lon="6.82496">
        <ele>1902</ele>
        <time>2014-07-31T14:59:27.260Z</time>
      </trkpt>
      <trkpt lat="44.89961" lon="6.82496">
        <ele>1902</ele>
        <time>2014-07-31T14:59:29.160Z</time>
      </trkpt>
      <trkpt lat="44.89959" lon="6.82496">
        <ele>1902</ele>
        <time>2014-07-31T14:59:30.260Z</time>
      </trkpt>
      <trkpt lat="44.89956" lon="6.82497">
        <ele>1902</ele>
        <time>2014-07-31T14:59:32.260Z</time>
      </trkpt>
      <trkpt lat="44.89953" lon="6.82498">
        <ele>1902</ele>
        <time>2014-07-31T14:59:34.120Z</time>
      </trkpt>
      <trkpt lat="44.89952" lon="6.82499">
        <ele>1902.7</ele>
        <time>2014-07-31T14:59:35.260Z</time>
      </trkpt>
      <trkpt lat="44.8995" lon="6.82499">
        <ele>1903</ele>
        <time>2014-07-31T14:59:36.300Z</time>
      </trkpt>
      <trkpt lat="44.89947" lon="6.825">
        <ele>1903</ele>
        <time>2014-07-31T14:59:38.260Z</time>
      </trkpt>
      <trkpt lat="44.89944" lon="6.82501">
        <ele>1903</ele>
        <time>2014-07-31T14:59:40.260Z</time>
      </trkpt>
      <trkpt lat="44.89941" lon="6.82501">
        <ele>1903</ele>
        <time>2014-07-31T14:59:42.260Z</time>
      </trkpt>
      <trkpt lat="44.89939" lon="6.82501">
        <ele>1903</ele>
        <time>2014-07-31T14:59:44.260Z</time>
      </trkpt>
      <trkpt lat="44.89937" lon="6.82501">
        <ele>1905</ele>
        <time>2014-07-31T14:59:46.160Z</time>
      </trkpt>
      <trkpt lat="44.89935" lon="6.82501">
        <ele>1905</ele>
        <time>2014-07-31T14:59:47.260Z</time>
      </trkpt>
      <trkpt lat="44.89933" lon="6.82502">
        <ele>1905</ele>
        <time>2014-07-31T14:59:49.160Z</time>
      </trkpt>
      <trkpt lat="44.89932" lon="6.82502">
        <ele>1905</ele>
        <time>2014-07-31T14:59:50.230Z</time>
      </trkpt>
      <trkpt lat="44.89929" lon="6.82505">
        <ele>1905</ele>
        <time>2014-07-31T14:59:52.260Z</time>
      </trkpt>
      <trkpt lat="44.89927" lon="6.82507">
        <ele>1905</ele>
        <time>2014-07-31T14:59:54.160Z</time>
      </trkpt>
      <trkpt lat="44.89926" lon="6.82508">
        <ele>1905.7</ele>
        <time>2014-07-31T14:59:55.260Z</time>
      </trkpt>
      <trkpt lat="44.89923" lon="6.8251">
        <ele>1906</ele>
        <time>2014-07-31T14:59:57.260Z</time>
      </trkpt>
      <trkpt lat="44.89921" lon="6.82512">
        <ele>1906</ele>
        <time>2014-07-31T14:59:59.260Z</time>
      </trkpt>
      <trkpt lat="44.89918" lon="6.82514">
        <ele>1906</ele>
        <time>2014-07-31T15:00:01.260Z</time>
      </trkpt>
      <trkpt lat="44.89916" lon="6.82515">
        <ele>1906</ele>
        <time>2014-07-31T15:00:03.160Z</time>
      </trkpt>
      <trkpt lat="44.89914" lon="6.82516">
        <ele>1906</ele>
        <time>2014-07-31T15:00:04.260Z</time>
      </trkpt>
      <trkpt lat="44.89913" lon="6.82517">
        <ele>1908</ele>
        <time>2014-07-31T15:00:06.180Z</time>
      </trkpt>
      <trkpt lat="44.8991" lon="6.82518">
        <ele>1908</ele>
        <time>2014-07-31T15:00:08.260Z</time>
      </trkpt>
      <trkpt lat="44.89907" lon="6.82518">
        <ele>1908</ele>
        <time>2014-07-31T15:00:10.260Z</time>
      </trkpt>
      <trkpt lat="44.89903" lon="6.82518">
        <ele>1908</ele>
        <time>2014-07-31T15:00:12.260Z</time>
      </trkpt>
      <trkpt lat="44.899" lon="6.82518">
        <ele>1908</ele>
        <time>2014-07-31T15:00:14.260Z</time>
      </trkpt>
      <trkpt lat="44.89897" lon="6.82517">
        <ele>1909</ele>
        <time>2014-07-31T15:00:16.260Z</time>
      </trkpt>
      <trkpt lat="44.89894" lon="6.82515">
        <ele>1909</ele>
        <time>2014-07-31T15:00:18.250Z</time>
      </trkpt>
      <trkpt lat="44.89892" lon="6.82513">
        <ele>1909</ele>
        <time>2014-07-31T15:00:20.160Z</time>
      </trkpt>
      <trkpt lat="44.89891" lon="6.82512">
        <ele>1909</ele>
        <time>2014-07-31T15:00:21.260Z</time>
      </trkpt>
      <trkpt lat="44.89889" lon="6.82509">
        <ele>1909</ele>
        <time>2014-07-31T15:00:23.160Z</time>
      </trkpt>
      <trkpt lat="44.89887" lon="6.82508">
        <ele>1909</ele>
        <time>2014-07-31T15:00:24.230Z</time>
      </trkpt>
      <trkpt lat="44.89885" lon="6.82505">
        <ele>1911</ele>
        <time>2014-07-31T15:00:26.260Z</time>
      </trkpt>
      <trkpt lat="44.89883" lon="6.82502">
        <ele>1911</ele>
        <time>2014-07-31T15:00:28.260Z</time>
      </trkpt>
      <trkpt lat="44.89881" lon="6.82499">
        <ele>1911</ele>
        <time>2014-07-31T15:00:30.260Z</time>
      </trkpt>
      <trkpt lat="44.8988" lon="6.82497">
        <ele>1911</ele>
        <time>2014-07-31T15:00:32.260Z</time>
      </trkpt>
      <trkpt lat="44.89878" lon="6.82493">
        <ele>1911</ele>
        <time>2014-07-31T15:00:34.220Z</time>
      </trkpt>
      <trkpt lat="44.89877" lon="6.8249">
        <ele>1913</ele>
        <time>2014-07-31T15:00:36.260Z</time>
      </trkpt>
      <trkpt lat="44.89876" lon="6.82487">
        <ele>1913</ele>
        <time>2014-07-31T15:00:38.260Z</time>
      </trkpt>
      <trkpt lat="44.89875" lon="6.82484">
        <ele>1913</ele>
        <time>2014-07-31T15:00:40.280Z</time>
      </trkpt>
      <trkpt lat="44.89875" lon="6.82481">
        <ele>1913</ele>
        <time>2014-07-31T15:00:42.260Z</time>
      </trkpt>
      <trkpt lat="44.89874" lon="6.82478">
        <ele>1913</ele>
        <time>2014-07-31T15:00:44.260Z</time>
      </trkpt>
      <trkpt lat="44.89872" lon="6.82475">
        <ele>1915</ele>
        <time>2014-07-31T15:00:46.160Z</time>
      </trkpt>
      <trkpt lat="44.89871" lon="6.82474">
        <ele>1915</ele>
        <time>2014-07-31T15:00:47.260Z</time>
      </trkpt>
      <trkpt lat="44.89869" lon="6.82471">
        <ele>1915</ele>
        <time>2014-07-31T15:00:49.260Z</time>
      </trkpt>
      <trkpt lat="44.89868" lon="6.8247">
        <ele>1915</ele>
        <time>2014-07-31T15:00:51.220Z</time>
      </trkpt>
      <trkpt lat="44.89865" lon="6.82469">
        <ele>1915</ele>
        <time>2014-07-31T15:00:53.080Z</time>
      </trkpt>
      <trkpt lat="44.89864" lon="6.82467">
        <ele>1915</ele>
        <time>2014-07-31T15:00:54.260Z</time>
      </trkpt>
      <trkpt lat="44.89862" lon="6.82464">
        <ele>1918</ele>
        <time>2014-07-31T15:00:56.260Z</time>
      </trkpt>
      <trkpt lat="44.8986" lon="6.82461">
        <ele>1918</ele>
        <time>2014-07-31T15:00:58.170Z</time>
      </trkpt>
      <trkpt lat="44.89858" lon="6.82459">
        <ele>1918.7</ele>
        <time>2014-07-31T15:01:00.220Z</time>
      </trkpt>
      <trkpt lat="44.89856" lon="6.82456">
        <ele>1919</ele>
        <time>2014-07-31T15:01:02.260Z</time>
      </trkpt>
      <trkpt lat="44.89854" lon="6.82454">
        <ele>1919</ele>
        <time>2014-07-31T15:01:04.320Z</time>
      </trkpt>
      <trkpt lat="44.89853" lon="6.82451">
        <ele>1920</ele>
        <time>2014-07-31T15:01:06.260Z</time>
      </trkpt>
      <trkpt lat="44.89851" lon="6.82448">
        <ele>1920</ele>
        <time>2014-07-31T15:01:08.260Z</time>
      </trkpt>
      <trkpt lat="44.89848" lon="6.82445">
        <ele>1920</ele>
        <time>2014-07-31T15:01:10.260Z</time>
      </trkpt>
      <trkpt lat="44.89847" lon="6.82442">
        <ele>1920</ele>
        <time>2014-07-31T15:01:12.160Z</time>
      </trkpt>
      <trkpt lat="44.89846" lon="6.8244">
        <ele>1920</ele>
        <time>2014-07-31T15:01:13.260Z</time>
      </trkpt>
      <trkpt lat="44.89844" lon="6.82436">
        <ele>1921.1</ele>
        <time>2014-07-31T15:01:15.130Z</time>
      </trkpt>
      <trkpt lat="44.89842" lon="6.82434">
        <ele>1922</ele>
        <time>2014-07-31T15:01:16.290Z</time>
      </trkpt>
      <trkpt lat="44.89841" lon="6.82431">
        <ele>1922</ele>
        <time>2014-07-31T15:01:18.260Z</time>
      </trkpt>
      <trkpt lat="44.8984" lon="6.82427">
        <ele>1922</ele>
        <time>2014-07-31T15:01:20.160Z</time>
      </trkpt>
      <trkpt lat="44.8984" lon="6.82425">
        <ele>1922</ele>
        <time>2014-07-31T15:01:21.260Z</time>
      </trkpt>
      <trkpt lat="44.89838" lon="6.82421">
        <ele>1922</ele>
        <time>2014-07-31T15:01:23.160Z</time>
      </trkpt>
      <trkpt lat="44.89837" lon="6.8242">
        <ele>1922</ele>
        <time>2014-07-31T15:01:24.260Z</time>
      </trkpt>
      <trkpt lat="44.89836" lon="6.82417">
        <ele>1923</ele>
        <time>2014-07-31T15:01:26.260Z</time>
      </trkpt>
      <trkpt lat="44.89834" lon="6.82412">
        <ele>1923</ele>
        <time>2014-07-31T15:01:28.260Z</time>
      </trkpt>
      <trkpt lat="44.89833" lon="6.82409">
        <ele>1923</ele>
        <time>2014-07-31T15:01:30.160Z</time>
      </trkpt>
      <trkpt lat="44.89832" lon="6.82408">
        <ele>1923</ele>
        <time>2014-07-31T15:01:31.260Z</time>
      </trkpt>
      <trkpt lat="44.8983" lon="6.82404">
        <ele>1923</ele>
        <time>2014-07-31T15:01:33.260Z</time>
      </trkpt>
      <trkpt lat="44.89829" lon="6.82401">
        <ele>1923.7</ele>
        <time>2014-07-31T15:01:35.260Z</time>
      </trkpt>
      <trkpt lat="44.89829" lon="6.82398">
        <ele>1924</ele>
        <time>2014-07-31T15:01:37.160Z</time>
      </trkpt>
      <trkpt lat="44.89828" lon="6.82397">
        <ele>1924</ele>
        <time>2014-07-31T15:01:38.260Z</time>
      </trkpt>
      <trkpt lat="44.89827" lon="6.82394">
        <ele>1924</ele>
        <time>2014-07-31T15:01:40.260Z</time>
      </trkpt>
      <trkpt lat="44.89826" lon="6.8239">
        <ele>1924</ele>
        <time>2014-07-31T15:01:42.160Z</time>
      </trkpt>
      <trkpt lat="44.89825" lon="6.82389">
        <ele>1924</ele>
        <time>2014-07-31T15:01:43.260Z</time>
      </trkpt>
      <trkpt lat="44.89824" lon="6.82386">
        <ele>1924</ele>
        <time>2014-07-31T15:01:45.160Z</time>
      </trkpt>
      <trkpt lat="44.89824" lon="6.82384">
        <ele>1924</ele>
        <time>2014-07-31T15:01:46.260Z</time>
      </trkpt>
      <trkpt lat="44.89822" lon="6.8238">
        <ele>1924</ele>
        <time>2014-07-31T15:01:48.160Z</time>
      </trkpt>
      <trkpt lat="44.89822" lon="6.82379">
        <ele>1924</ele>
        <time>2014-07-31T15:01:49.230Z</time>
      </trkpt>
      <trkpt lat="44.89823" lon="6.82377">
        <ele>1924</ele>
        <time>2014-07-31T15:01:51.200Z</time>
      </trkpt>
      <trkpt lat="44.89823" lon="6.82375">
        <ele>1924</ele>
        <time>2014-07-31T15:01:53.160Z</time>
      </trkpt>
      <trkpt lat="44.89822" lon="6.82374">
        <ele>1924</ele>
        <time>2014-07-31T15:01:54.260Z</time>
      </trkpt>
      <trkpt lat="44.8982" lon="6.8237">
        <ele>1925</ele>
        <time>2014-07-31T15:01:56.260Z</time>
      </trkpt>
      <trkpt lat="44.89819" lon="6.82366">
        <ele>1925</ele>
        <time>2014-07-31T15:01:58.260Z</time>
      </trkpt>
      <trkpt lat="44.89817" lon="6.82362">
        <ele>1925</ele>
        <time>2014-07-31T15:02:00.220Z</time>
      </trkpt>
      <trkpt lat="44.89815" lon="6.82358">
        <ele>1925</ele>
        <time>2014-07-31T15:02:02.160Z</time>
      </trkpt>
      <trkpt lat="44.89815" lon="6.82356">
        <ele>1925</ele>
        <time>2014-07-31T15:02:03.260Z</time>
      </trkpt>
      <trkpt lat="44.89814" lon="6.82352">
        <ele>1926.5</ele>
        <time>2014-07-31T15:02:05.310Z</time>
      </trkpt>
      <trkpt lat="44.89813" lon="6.82349">
        <ele>1927</ele>
        <time>2014-07-31T15:02:07.260Z</time>
      </trkpt>
      <trkpt lat="44.89811" lon="6.82345">
        <ele>1927</ele>
        <time>2014-07-31T15:02:09.260Z</time>
      </trkpt>
      <trkpt lat="44.89811" lon="6.82341">
        <ele>1927</ele>
        <time>2014-07-31T15:02:11.250Z</time>
      </trkpt>
      <trkpt lat="44.8981" lon="6.82339">
        <ele>1927</ele>
        <time>2014-07-31T15:02:13.260Z</time>
      </trkpt>
      <trkpt lat="44.89809" lon="6.82335">
        <ele>1927.7</ele>
        <time>2014-07-31T15:02:15.260Z</time>
      </trkpt>
      <trkpt lat="44.89808" lon="6.82331">
        <ele>1928</ele>
        <time>2014-07-31T15:02:17.220Z</time>
      </trkpt>
      <trkpt lat="44.89807" lon="6.82328">
        <ele>1928</ele>
        <time>2014-07-31T15:02:19.160Z</time>
      </trkpt>
      <trkpt lat="44.89807" lon="6.82327">
        <ele>1928</ele>
        <time>2014-07-31T15:02:20.260Z</time>
      </trkpt>
      <trkpt lat="44.89804" lon="6.82324">
        <ele>1928</ele>
        <time>2014-07-31T15:02:22.260Z</time>
      </trkpt>
      <trkpt lat="44.89803" lon="6.8232">
        <ele>1928</ele>
        <time>2014-07-31T15:02:24.160Z</time>
      </trkpt>
      <trkpt lat="44.89802" lon="6.82317">
        <ele>1929.3</ele>
        <time>2014-07-31T15:02:25.260Z</time>
      </trkpt>
      <trkpt lat="44.898" lon="6.82313">
        <ele>1930</ele>
        <time>2014-07-31T15:02:27.160Z</time>
      </trkpt>
      <trkpt lat="44.898" lon="6.82311">
        <ele>1930</ele>
        <time>2014-07-31T15:02:28.260Z</time>
      </trkpt>
      <trkpt lat="44.89799" lon="6.82307">
        <ele>1930</ele>
        <time>2014-07-31T15:02:30.260Z</time>
      </trkpt>
      <trkpt lat="44.89799" lon="6.82302">
        <ele>1930</ele>
        <time>2014-07-31T15:02:32.160Z</time>
      </trkpt>
      <trkpt lat="44.89798" lon="6.823">
        <ele>1930</ele>
        <time>2014-07-31T15:02:33.260Z</time>
      </trkpt>
      <trkpt lat="44.89797" lon="6.82295">
        <ele>1931.2</ele>
        <time>2014-07-31T15:02:35.160Z</time>
      </trkpt>
      <trkpt lat="44.89797" lon="6.82293">
        <ele>1932</ele>
        <time>2014-07-31T15:02:36.260Z</time>
      </trkpt>
      <trkpt lat="44.89795" lon="6.82288">
        <ele>1932</ele>
        <time>2014-07-31T15:02:38.160Z</time>
      </trkpt>
      <trkpt lat="44.89794" lon="6.82286">
        <ele>1932</ele>
        <time>2014-07-31T15:02:39.260Z</time>
      </trkpt>
      <trkpt lat="44.89792" lon="6.82282">
        <ele>1932</ele>
        <time>2014-07-31T15:02:41.260Z</time>
      </trkpt>
      <trkpt lat="44.8979" lon="6.82277">
        <ele>1932</ele>
        <time>2014-07-31T15:02:43.260Z</time>
      </trkpt>
      <trkpt lat="44.89788" lon="6.82273">
        <ele>1932</ele>
        <time>2014-07-31T15:02:45.260Z</time>
      </trkpt>
      <trkpt lat="44.89786" lon="6.8227">
        <ele>1932</ele>
        <time>2014-07-31T15:02:47.260Z</time>
      </trkpt>
      <trkpt lat="44.89784" lon="6.82266">
        <ele>1932</ele>
        <time>2014-07-31T15:02:49.260Z</time>
      </trkpt>
      <trkpt lat="44.89783" lon="6.82262">
        <ele>1932</ele>
        <time>2014-07-31T15:02:51.120Z</time>
      </trkpt>
      <trkpt lat="44.89782" lon="6.8226">
        <ele>1932</ele>
        <time>2014-07-31T15:02:52.260Z</time>
      </trkpt>
      <trkpt lat="44.89781" lon="6.82256">
        <ele>1932</ele>
        <time>2014-07-31T15:02:54.260Z</time>
      </trkpt>
      <trkpt lat="44.8978" lon="6.82251">
        <ele>1934</ele>
        <time>2014-07-31T15:02:56.280Z</time>
      </trkpt>
      <trkpt lat="44.89779" lon="6.82248">
        <ele>1934</ele>
        <time>2014-07-31T15:02:58.260Z</time>
      </trkpt>
      <trkpt lat="44.89777" lon="6.82243">
        <ele>1934</ele>
        <time>2014-07-31T15:03:00.220Z</time>
      </trkpt>
      <trkpt lat="44.89776" lon="6.82238">
        <ele>1934</ele>
        <time>2014-07-31T15:03:02.260Z</time>
      </trkpt>
      <trkpt lat="44.89774" lon="6.82234">
        <ele>1934</ele>
        <time>2014-07-31T15:03:04.260Z</time>
      </trkpt>
      <trkpt lat="44.89773" lon="6.8223">
        <ele>1935</ele>
        <time>2014-07-31T15:03:06.260Z</time>
      </trkpt>
      <trkpt lat="44.89772" lon="6.82224">
        <ele>1935</ele>
        <time>2014-07-31T15:03:08.260Z</time>
      </trkpt>
      <trkpt lat="44.89772" lon="6.8222">
        <ele>1935</ele>
        <time>2014-07-31T15:03:10.160Z</time>
      </trkpt>
      <trkpt lat="44.89771" lon="6.82217">
        <ele>1935</ele>
        <time>2014-07-31T15:03:11.260Z</time>
      </trkpt>
      <trkpt lat="44.89771" lon="6.82212">
        <ele>1935</ele>
        <time>2014-07-31T15:03:13.260Z</time>
      </trkpt>
      <trkpt lat="44.89769" lon="6.82206">
        <ele>1935</ele>
        <time>2014-07-31T15:03:15.260Z</time>
      </trkpt>
      <trkpt lat="44.89767" lon="6.82201">
        <ele>1935</ele>
        <time>2014-07-31T15:03:17.120Z</time>
      </trkpt>
      <trkpt lat="44.89766" lon="6.82198">
        <ele>1935</ele>
        <time>2014-07-31T15:03:18.260Z</time>
      </trkpt>
      <trkpt lat="44.89762" lon="6.82192">
        <ele>1935</ele>
        <time>2014-07-31T15:03:20.260Z</time>
      </trkpt>
      <trkpt lat="44.89759" lon="6.82187">
        <ele>1935</ele>
        <time>2014-07-31T15:03:22.160Z</time>
      </trkpt>
      <trkpt lat="44.89757" lon="6.82184">
        <ele>1935</ele>
        <time>2014-07-31T15:03:23.260Z</time>
      </trkpt>
      <trkpt lat="44.89755" lon="6.82179">
        <ele>1935.7</ele>
        <time>2014-07-31T15:03:25.260Z</time>
      </trkpt>
      <trkpt lat="44.89752" lon="6.82174">
        <ele>1936</ele>
        <time>2014-07-31T15:03:27.260Z</time>
      </trkpt>
      <trkpt lat="44.89749" lon="6.8217">
        <ele>1936</ele>
        <time>2014-07-31T15:03:29.260Z</time>
      </trkpt>
      <trkpt lat="44.89746" lon="6.82165">
        <ele>1936</ele>
        <time>2014-07-31T15:03:31.230Z</time>
      </trkpt>
      <trkpt lat="44.89744" lon="6.82161">
        <ele>1936</ele>
        <time>2014-07-31T15:03:33.160Z</time>
      </trkpt>
      <trkpt lat="44.89743" lon="6.82159">
        <ele>1936</ele>
        <time>2014-07-31T15:03:34.220Z</time>
      </trkpt>
      <trkpt lat="44.8974" lon="6.82155">
        <ele>1938</ele>
        <time>2014-07-31T15:03:36.260Z</time>
      </trkpt>
      <trkpt lat="44.89737" lon="6.82151">
        <ele>1938</ele>
        <time>2014-07-31T15:03:38.260Z</time>
      </trkpt>
      <trkpt lat="44.89733" lon="6.82147">
        <ele>1938</ele>
        <time>2014-07-31T15:03:40.260Z</time>
      </trkpt>
      <trkpt lat="44.89729" lon="6.82146">
        <ele>1938</ele>
        <time>2014-07-31T15:03:42.260Z</time>
      </trkpt>
      <trkpt lat="44.89726" lon="6.82145">
        <ele>1938</ele>
        <time>2014-07-31T15:03:44.260Z</time>
      </trkpt>
      <trkpt lat="44.89723" lon="6.82146">
        <ele>1939</ele>
        <time>2014-07-31T15:03:46.260Z</time>
      </trkpt>
      <trkpt lat="44.89721" lon="6.82148">
        <ele>1939</ele>
        <time>2014-07-31T15:03:48.130Z</time>
      </trkpt>
      <trkpt lat="44.89719" lon="6.82148">
        <ele>1939</ele>
        <time>2014-07-31T15:03:49.260Z</time>
      </trkpt>
      <trkpt lat="44.89716" lon="6.8215">
        <ele>1939</ele>
        <time>2014-07-31T15:03:51.160Z</time>
      </trkpt>
      <trkpt lat="44.89714" lon="6.82151">
        <ele>1939</ele>
        <time>2014-07-31T15:03:53.260Z</time>
      </trkpt>
      <trkpt lat="44.89711" lon="6.82151">
        <ele>1940.4</ele>
        <time>2014-07-31T15:03:55.260Z</time>
      </trkpt>
      <trkpt lat="44.89708" lon="6.82152">
        <ele>1941</ele>
        <time>2014-07-31T15:03:57.250Z</time>
      </trkpt>
      <trkpt lat="44.89705" lon="6.82153">
        <ele>1941</ele>
        <time>2014-07-31T15:03:59.160Z</time>
      </trkpt>
      <trkpt lat="44.89704" lon="6.82153">
        <ele>1941</ele>
        <time>2014-07-31T15:04:00.280Z</time>
      </trkpt>
      <trkpt lat="44.89701" lon="6.82153">
        <ele>1941</ele>
        <time>2014-07-31T15:04:02.260Z</time>
      </trkpt>
      <trkpt lat="44.89698" lon="6.82154">
        <ele>1941</ele>
        <time>2014-07-31T15:04:04.160Z</time>
      </trkpt>
      <trkpt lat="44.89697" lon="6.82155">
        <ele>1942.3</ele>
        <time>2014-07-31T15:04:05.230Z</time>
      </trkpt>
      <trkpt lat="44.89695" lon="6.82156">
        <ele>1943</ele>
        <time>2014-07-31T15:04:07.250Z</time>
      </trkpt>
      <trkpt lat="44.89692" lon="6.82157">
        <ele>1943</ele>
        <time>2014-07-31T15:04:09.260Z</time>
      </trkpt>
      <trkpt lat="44.8969" lon="6.82158">
        <ele>1943</ele>
        <time>2014-07-31T15:04:11.260Z</time>
      </trkpt>
      <trkpt lat="44.89687" lon="6.82159">
        <ele>1943</ele>
        <time>2014-07-31T15:04:13.320Z</time>
      </trkpt>
      <trkpt lat="44.89685" lon="6.8216">
        <ele>1944.4</ele>
        <time>2014-07-31T15:04:15.260Z</time>
      </trkpt>
      <trkpt lat="44.89682" lon="6.82161">
        <ele>1945</ele>
        <time>2014-07-31T15:04:17.220Z</time>
      </trkpt>
      <trkpt lat="44.89679" lon="6.82163">
        <ele>1945</ele>
        <time>2014-07-31T15:04:19.250Z</time>
      </trkpt>
      <trkpt lat="44.89677" lon="6.82164">
        <ele>1945</ele>
        <time>2014-07-31T15:04:21.260Z</time>
      </trkpt>
      <trkpt lat="44.89674" lon="6.82166">
        <ele>1945</ele>
        <time>2014-07-31T15:04:23.260Z</time>
      </trkpt>
      <trkpt lat="44.89672" lon="6.82167">
        <ele>1946.2</ele>
        <time>2014-07-31T15:04:25.160Z</time>
      </trkpt>
      <trkpt lat="44.89671" lon="6.82168">
        <ele>1947</ele>
        <time>2014-07-31T15:04:26.260Z</time>
      </trkpt>
      <trkpt lat="44.89668" lon="6.82169">
        <ele>1947</ele>
        <time>2014-07-31T15:04:28.160Z</time>
      </trkpt>
      <trkpt lat="44.89667" lon="6.82169">
        <ele>1947</ele>
        <time>2014-07-31T15:04:29.260Z</time>
      </trkpt>
      <trkpt lat="44.89663" lon="6.82169">
        <ele>1947</ele>
        <time>2014-07-31T15:04:31.260Z</time>
      </trkpt>
      <trkpt lat="44.89661" lon="6.82168">
        <ele>1947</ele>
        <time>2014-07-31T15:04:33.160Z</time>
      </trkpt>
      <trkpt lat="44.8966" lon="6.82168">
        <ele>1947</ele>
        <time>2014-07-31T15:04:34.220Z</time>
      </trkpt>
      <trkpt lat="44.89657" lon="6.82168">
        <ele>1949</ele>
        <time>2014-07-31T15:04:36.260Z</time>
      </trkpt>
      <trkpt lat="44.89655" lon="6.82167">
        <ele>1949</ele>
        <time>2014-07-31T15:04:38.260Z</time>
      </trkpt>
      <trkpt lat="44.89652" lon="6.82167">
        <ele>1949</ele>
        <time>2014-07-31T15:04:40.260Z</time>
      </trkpt>
      <trkpt lat="44.89649" lon="6.82167">
        <ele>1949</ele>
        <time>2014-07-31T15:04:42.160Z</time>
      </trkpt>
      <trkpt lat="44.89648" lon="6.82166">
        <ele>1949</ele>
        <time>2014-07-31T15:04:43.250Z</time>
      </trkpt>
      <trkpt lat="44.89644" lon="6.82166">
        <ele>1949.7</ele>
        <time>2014-07-31T15:04:45.260Z</time>
      </trkpt>
      <trkpt lat="44.89642" lon="6.82166">
        <ele>1950</ele>
        <time>2014-07-31T15:04:47.260Z</time>
      </trkpt>
      <trkpt lat="44.89638" lon="6.82166">
        <ele>1950</ele>
        <time>2014-07-31T15:04:49.260Z</time>
      </trkpt>
      <trkpt lat="44.89635" lon="6.82166">
        <ele>1950</ele>
        <time>2014-07-31T15:04:51.060Z</time>
      </trkpt>
      <trkpt lat="44.89634" lon="6.82165">
        <ele>1950</ele>
        <time>2014-07-31T15:04:52.260Z</time>
      </trkpt>
      <trkpt lat="44.89631" lon="6.82165">
        <ele>1950</ele>
        <time>2014-07-31T15:04:54.160Z</time>
      </trkpt>
      <trkpt lat="44.8963" lon="6.82164">
        <ele>1951.4</ele>
        <time>2014-07-31T15:04:55.260Z</time>
      </trkpt>
      <trkpt lat="44.89627" lon="6.82162">
        <ele>1952</ele>
        <time>2014-07-31T15:04:57.160Z</time>
      </trkpt>
      <trkpt lat="44.89626" lon="6.82161">
        <ele>1952</ele>
        <time>2014-07-31T15:04:58.260Z</time>
      </trkpt>
      <trkpt lat="44.89622" lon="6.82158">
        <ele>1952</ele>
        <time>2014-07-31T15:05:00.220Z</time>
      </trkpt>
      <trkpt lat="44.89619" lon="6.82155">
        <ele>1952</ele>
        <time>2014-07-31T15:05:02.160Z</time>
      </trkpt>
      <trkpt lat="44.89616" lon="6.82152">
        <ele>1952.7</ele>
        <time>2014-07-31T15:05:05.260Z</time>
      </trkpt>
      <trkpt lat="44.89614" lon="6.82149">
        <ele>1953</ele>
        <time>2014-07-31T15:05:07.260Z</time>
      </trkpt>
      <trkpt lat="44.89612" lon="6.82147">
        <ele>1953</ele>
        <time>2014-07-31T15:05:09.260Z</time>
      </trkpt>
      <trkpt lat="44.89609" lon="6.82144">
        <ele>1953</ele>
        <time>2014-07-31T15:05:11.160Z</time>
      </trkpt>
      <trkpt lat="44.89608" lon="6.82143">
        <ele>1953</ele>
        <time>2014-07-31T15:05:12.260Z</time>
      </trkpt>
      <trkpt lat="44.89606" lon="6.8214">
        <ele>1953</ele>
        <time>2014-07-31T15:05:14.160Z</time>
      </trkpt>
      <trkpt lat="44.89605" lon="6.82138">
        <ele>1954.4</ele>
        <time>2014-07-31T15:05:15.260Z</time>
      </trkpt>
      <trkpt lat="44.89602" lon="6.82135">
        <ele>1955</ele>
        <time>2014-07-31T15:05:17.220Z</time>
      </trkpt>
      <trkpt lat="44.89601" lon="6.82132">
        <ele>1955</ele>
        <time>2014-07-31T15:05:19.160Z</time>
      </trkpt>
      <trkpt lat="44.896" lon="6.82131">
        <ele>1955</ele>
        <time>2014-07-31T15:05:20.260Z</time>
      </trkpt>
      <trkpt lat="44.89599" lon="6.82128">
        <ele>1955</ele>
        <time>2014-07-31T15:05:22.260Z</time>
      </trkpt>
      <trkpt lat="44.89597" lon="6.82124">
        <ele>1955</ele>
        <time>2014-07-31T15:05:24.260Z</time>
      </trkpt>
      <trkpt lat="44.89597" lon="6.82121">
        <ele>1956</ele>
        <time>2014-07-31T15:05:26.260Z</time>
      </trkpt>
      <trkpt lat="44.89595" lon="6.82117">
        <ele>1956</ele>
        <time>2014-07-31T15:05:28.160Z</time>
      </trkpt>
      <trkpt lat="44.89594" lon="6.82115">
        <ele>1956</ele>
        <time>2014-07-31T15:05:29.260Z</time>
      </trkpt>
      <trkpt lat="44.89593" lon="6.82112">
        <ele>1956</ele>
        <time>2014-07-31T15:05:31.160Z</time>
      </trkpt>
      <trkpt lat="44.89591" lon="6.82108">
        <ele>1956</ele>
        <time>2014-07-31T15:05:34.220Z</time>
      </trkpt>
      <trkpt lat="44.8959" lon="6.82105">
        <ele>1958</ele>
        <time>2014-07-31T15:05:36.260Z</time>
      </trkpt>
      <trkpt lat="44.89589" lon="6.82103">
        <ele>1958</ele>
        <time>2014-07-31T15:05:38.260Z</time>
      </trkpt>
      <trkpt lat="44.89588" lon="6.821">
        <ele>1958</ele>
        <time>2014-07-31T15:05:40.260Z</time>
      </trkpt>
      <trkpt lat="44.89586" lon="6.82098">
        <ele>1958</ele>
        <time>2014-07-31T15:05:42.260Z</time>
      </trkpt>
      <trkpt lat="44.89584" lon="6.82096">
        <ele>1958</ele>
        <time>2014-07-31T15:05:44.260Z</time>
      </trkpt>
      <trkpt lat="44.89583" lon="6.82094">
        <ele>1959</ele>
        <time>2014-07-31T15:05:46.260Z</time>
      </trkpt>
      <trkpt lat="44.89581" lon="6.82091">
        <ele>1959</ele>
        <time>2014-07-31T15:05:48.160Z</time>
      </trkpt>
      <trkpt lat="44.89581" lon="6.82089">
        <ele>1959</ele>
        <time>2014-07-31T15:05:50.260Z</time>
      </trkpt>
      <trkpt lat="44.89578" lon="6.82087">
        <ele>1959</ele>
        <time>2014-07-31T15:05:52.280Z</time>
      </trkpt>
      <trkpt lat="44.89576" lon="6.82084">
        <ele>1959</ele>
        <time>2014-07-31T15:05:54.260Z</time>
      </trkpt>
      <trkpt lat="44.89575" lon="6.82082">
        <ele>1962</ele>
        <time>2014-07-31T15:05:56.260Z</time>
      </trkpt>
      <trkpt lat="44.89575" lon="6.82079">
        <ele>1962</ele>
        <time>2014-07-31T15:05:58.260Z</time>
      </trkpt>
      <trkpt lat="44.89574" lon="6.82076">
        <ele>1963.3</ele>
        <time>2014-07-31T15:06:00.220Z</time>
      </trkpt>
      <trkpt lat="44.89573" lon="6.82075">
        <ele>1964</ele>
        <time>2014-07-31T15:06:02.260Z</time>
      </trkpt>
      <trkpt lat="44.89572" lon="6.82073">
        <ele>1964</ele>
        <time>2014-07-31T15:06:06.260Z</time>
      </trkpt>
      <trkpt lat="44.89572" lon="6.82071">
        <ele>1964</ele>
        <time>2014-07-31T15:06:08.260Z</time>
      </trkpt>
      <trkpt lat="44.8957" lon="6.8207">
        <ele>1964</ele>
        <time>2014-07-31T15:06:10.260Z</time>
      </trkpt>
      <trkpt lat="44.89568" lon="6.82068">
        <ele>1964</ele>
        <time>2014-07-31T15:06:12.160Z</time>
      </trkpt>
      <trkpt lat="44.89566" lon="6.82067">
        <ele>1964</ele>
        <time>2014-07-31T15:06:13.260Z</time>
      </trkpt>
      <trkpt lat="44.89565" lon="6.82066">
        <ele>1964.7</ele>
        <time>2014-07-31T15:06:15.250Z</time>
      </trkpt>
      <trkpt lat="44.89563" lon="6.82065">
        <ele>1965</ele>
        <time>2014-07-31T15:06:17.220Z</time>
      </trkpt>
      <trkpt lat="44.89561" lon="6.82062">
        <ele>1965</ele>
        <time>2014-07-31T15:06:19.260Z</time>
      </trkpt>
      <trkpt lat="44.8956" lon="6.82059">
        <ele>1965</ele>
        <time>2014-07-31T15:06:21.230Z</time>
      </trkpt>
      <trkpt lat="44.89557" lon="6.82056">
        <ele>1965</ele>
        <time>2014-07-31T15:06:23.260Z</time>
      </trkpt>
      <trkpt lat="44.89555" lon="6.82055">
        <ele>1966.2</ele>
        <time>2014-07-31T15:06:25.160Z</time>
      </trkpt>
      <trkpt lat="44.89554" lon="6.82053">
        <ele>1967</ele>
        <time>2014-07-31T15:06:26.260Z</time>
      </trkpt>
      <trkpt lat="44.89552" lon="6.82051">
        <ele>1967</ele>
        <time>2014-07-31T15:06:28.380Z</time>
      </trkpt>
      <trkpt lat="44.89549" lon="6.82047">
        <ele>1967</ele>
        <time>2014-07-31T15:06:30.260Z</time>
      </trkpt>
      <trkpt lat="44.89548" lon="6.82045">
        <ele>1967</ele>
        <time>2014-07-31T15:06:32.260Z</time>
      </trkpt>
      <trkpt lat="44.89546" lon="6.82043">
        <ele>1967</ele>
        <time>2014-07-31T15:06:34.220Z</time>
      </trkpt>
      <trkpt lat="44.89543" lon="6.8204">
        <ele>1968</ele>
        <time>2014-07-31T15:06:38.060Z</time>
      </trkpt>
      <trkpt lat="44.89541" lon="6.82039">
        <ele>1968</ele>
        <time>2014-07-31T15:06:39.250Z</time>
      </trkpt>
      <trkpt lat="44.8954" lon="6.82037">
        <ele>1968</ele>
        <time>2014-07-31T15:06:41.160Z</time>
      </trkpt>
      <trkpt lat="44.89539" lon="6.82036">
        <ele>1968</ele>
        <time>2014-07-31T15:06:42.260Z</time>
      </trkpt>
      <trkpt lat="44.89536" lon="6.82033">
        <ele>1968</ele>
        <time>2014-07-31T15:06:44.260Z</time>
      </trkpt>
      <trkpt lat="44.89536" lon="6.8203">
        <ele>1970</ele>
        <time>2014-07-31T15:06:46.260Z</time>
      </trkpt>
      <trkpt lat="44.89535" lon="6.82029">
        <ele>1970</ele>
        <time>2014-07-31T15:06:48.260Z</time>
      </trkpt>
      <trkpt lat="44.89534" lon="6.82027">
        <ele>1970</ele>
        <time>2014-07-31T15:06:50.260Z</time>
      </trkpt>
      <trkpt lat="44.89534" lon="6.82024">
        <ele>1970</ele>
        <time>2014-07-31T15:06:54.260Z</time>
      </trkpt>
      <trkpt lat="44.89531" lon="6.82022">
        <ele>1972</ele>
        <time>2014-07-31T15:06:56.260Z</time>
      </trkpt>
      <trkpt lat="44.8953" lon="6.8202">
        <ele>1972</ele>
        <time>2014-07-31T15:06:58.260Z</time>
      </trkpt>
      <trkpt lat="44.89529" lon="6.82018">
        <ele>1972</ele>
        <time>2014-07-31T15:07:00.220Z</time>
      </trkpt>
      <trkpt lat="44.89527" lon="6.82016">
        <ele>1972</ele>
        <time>2014-07-31T15:07:02.260Z</time>
      </trkpt>
      <trkpt lat="44.89525" lon="6.82013">
        <ele>1972</ele>
        <time>2014-07-31T15:07:04.160Z</time>
      </trkpt>
      <trkpt lat="44.89525" lon="6.8201">
        <ele>1973</ele>
        <time>2014-07-31T15:07:07.260Z</time>
      </trkpt>
      <trkpt lat="44.89524" lon="6.82008">
        <ele>1973</ele>
        <time>2014-07-31T15:07:09.160Z</time>
      </trkpt>
      <trkpt lat="44.89523" lon="6.82006">
        <ele>1973</ele>
        <time>2014-07-31T15:07:13.260Z</time>
      </trkpt>
      <trkpt lat="44.89521" lon="6.82005">
        <ele>1973.7</ele>
        <time>2014-07-31T15:07:15.260Z</time>
      </trkpt>
      <trkpt lat="44.89521" lon="6.82003">
        <ele>1974</ele>
        <time>2014-07-31T15:07:17.120Z</time>
      </trkpt>
      <trkpt lat="44.8952" lon="6.82001">
        <ele>1974</ele>
        <time>2014-07-31T15:07:18.260Z</time>
      </trkpt>
      <trkpt lat="44.89516" lon="6.81997">
        <ele>1974</ele>
        <time>2014-07-31T15:07:20.260Z</time>
      </trkpt>
      <trkpt lat="44.89513" lon="6.81994">
        <ele>1974</ele>
        <time>2014-07-31T15:07:22.260Z</time>
      </trkpt>
      <trkpt lat="44.89512" lon="6.81992">
        <ele>1974</ele>
        <time>2014-07-31T15:07:24.260Z</time>
      </trkpt>
      <trkpt lat="44.89512" lon="6.8199">
        <ele>1976</ele>
        <time>2014-07-31T15:07:26.260Z</time>
      </trkpt>
      <trkpt lat="44.89511" lon="6.81988">
        <ele>1976</ele>
        <time>2014-07-31T15:07:28.260Z</time>
      </trkpt>
      <trkpt lat="44.89508" lon="6.81985">
        <ele>1976</ele>
        <time>2014-07-31T15:07:30.160Z</time>
      </trkpt>
      <trkpt lat="44.89507" lon="6.81984">
        <ele>1976</ele>
        <time>2014-07-31T15:07:31.260Z</time>
      </trkpt>
      <trkpt lat="44.89505" lon="6.81981">
        <ele>1976</ele>
        <time>2014-07-31T15:07:33.260Z</time>
      </trkpt>
      <trkpt lat="44.89504" lon="6.81979">
        <ele>1977.8</ele>
        <time>2014-07-31T15:07:35.160Z</time>
      </trkpt>
      <trkpt lat="44.89502" lon="6.81977">
        <ele>1979</ele>
        <time>2014-07-31T15:07:36.260Z</time>
      </trkpt>
      <trkpt lat="44.89501" lon="6.81975">
        <ele>1979</ele>
        <time>2014-07-31T15:07:38.260Z</time>
      </trkpt>
      <trkpt lat="44.89499" lon="6.81972">
        <ele>1979.7</ele>
        <time>2014-07-31T15:07:40.260Z</time>
      </trkpt>
      <trkpt lat="44.89498" lon="6.8197">
        <ele>1980</ele>
        <time>2014-07-31T15:07:42.380Z</time>
      </trkpt>
      <trkpt lat="44.89499" lon="6.81968">
        <ele>1980</ele>
        <time>2014-07-31T15:07:44.260Z</time>
      </trkpt>
      <trkpt lat="44.89497" lon="6.81965">
        <ele>1980</ele>
        <time>2014-07-31T15:07:46.230Z</time>
      </trkpt>
      <trkpt lat="44.89496" lon="6.81964">
        <ele>1980</ele>
        <time>2014-07-31T15:07:48.160Z</time>
      </trkpt>
      <trkpt lat="44.89495" lon="6.81963">
        <ele>1980</ele>
        <time>2014-07-31T15:07:49.250Z</time>
      </trkpt>
      <trkpt lat="44.89497" lon="6.81962">
        <ele>1980</ele>
        <time>2014-07-31T15:07:51.220Z</time>
      </trkpt>
      <trkpt lat="44.89493" lon="6.81959">
        <ele>1980</ele>
        <time>2014-07-31T15:07:53.260Z</time>
      </trkpt>
      <trkpt lat="44.89491" lon="6.81957">
        <ele>1980.6</ele>
        <time>2014-07-31T15:07:55.160Z</time>
      </trkpt>
      <trkpt lat="44.89488" lon="6.81954">
        <ele>1981</ele>
        <time>2014-07-31T15:07:58.260Z</time>
      </trkpt>
      <trkpt lat="44.89487" lon="6.81951">
        <ele>1981</ele>
        <time>2014-07-31T15:08:00.120Z</time>
      </trkpt>
      <trkpt lat="44.89486" lon="6.8195">
        <ele>1981</ele>
        <time>2014-07-31T15:08:01.260Z</time>
      </trkpt>
      <trkpt lat="44.89484" lon="6.81947">
        <ele>1981</ele>
        <time>2014-07-31T15:08:03.130Z</time>
      </trkpt>
      <trkpt lat="44.89482" lon="6.81945">
        <ele>1982.4</ele>
        <time>2014-07-31T15:08:05.260Z</time>
      </trkpt>
      <trkpt lat="44.89479" lon="6.81943">
        <ele>1983</ele>
        <time>2014-07-31T15:08:07.260Z</time>
      </trkpt>
      <trkpt lat="44.89477" lon="6.81941">
        <ele>1983</ele>
        <time>2014-07-31T15:08:09.160Z</time>
      </trkpt>
      <trkpt lat="44.89476" lon="6.81939">
        <ele>1983</ele>
        <time>2014-07-31T15:08:10.260Z</time>
      </trkpt>
      <trkpt lat="44.89473" lon="6.81936">
        <ele>1983</ele>
        <time>2014-07-31T15:08:12.260Z</time>
      </trkpt>
      <trkpt lat="44.89472" lon="6.81935">
        <ele>1983</ele>
        <time>2014-07-31T15:08:14.260Z</time>
      </trkpt>
      <trkpt lat="44.8947" lon="6.81933">
        <ele>1984</ele>
        <time>2014-07-31T15:08:16.260Z</time>
      </trkpt>
      <trkpt lat="44.89468" lon="6.81931">
        <ele>1984</ele>
        <time>2014-07-31T15:08:18.130Z</time>
      </trkpt>
      <trkpt lat="44.89467" lon="6.8193">
        <ele>1984</ele>
        <time>2014-07-31T15:08:19.160Z</time>
      </trkpt>
      <trkpt lat="44.89464" lon="6.81928">
        <ele>1984</ele>
        <time>2014-07-31T15:08:21.260Z</time>
      </trkpt>
      <trkpt lat="44.89462" lon="6.81926">
        <ele>1984</ele>
        <time>2014-07-31T15:08:23.250Z</time>
      </trkpt>
      <trkpt lat="44.8946" lon="6.81922">
        <ele>1985.4</ele>
        <time>2014-07-31T15:08:25.260Z</time>
      </trkpt>
      <trkpt lat="44.89459" lon="6.8192">
        <ele>1986</ele>
        <time>2014-07-31T15:08:27.260Z</time>
      </trkpt>
      <trkpt lat="44.89457" lon="6.81917">
        <ele>1986</ele>
        <time>2014-07-31T15:08:29.260Z</time>
      </trkpt>
      <trkpt lat="44.89455" lon="6.81914">
        <ele>1986</ele>
        <time>2014-07-31T15:08:31.280Z</time>
      </trkpt>
      <trkpt lat="44.89455" lon="6.81912">
        <ele>1986</ele>
        <time>2014-07-31T15:08:32.260Z</time>
      </trkpt>
      <trkpt lat="44.89452" lon="6.81909">
        <ele>1986</ele>
        <time>2014-07-31T15:08:34.120Z</time>
      </trkpt>
      <trkpt lat="44.89452" lon="6.81907">
        <ele>1988</ele>
        <time>2014-07-31T15:08:35.250Z</time>
      </trkpt>
      <trkpt lat="44.8945" lon="6.81905">
        <ele>1989</ele>
        <time>2014-07-31T15:08:37.130Z</time>
      </trkpt>
      <trkpt lat="44.89449" lon="6.81903">
        <ele>1989</ele>
        <time>2014-07-31T15:08:38.260Z</time>
      </trkpt>
      <trkpt lat="44.89448" lon="6.81901">
        <ele>1989.7</ele>
        <time>2014-07-31T15:08:40.260Z</time>
      </trkpt>
      <trkpt lat="44.89447" lon="6.81899">
        <ele>1990</ele>
        <time>2014-07-31T15:08:42.260Z</time>
      </trkpt>
      <trkpt lat="44.89445" lon="6.81895">
        <ele>1990</ele>
        <time>2014-07-31T15:08:44.260Z</time>
      </trkpt>
      <trkpt lat="44.89444" lon="6.81892">
        <ele>1991</ele>
        <time>2014-07-31T15:08:46.260Z</time>
      </trkpt>
      <trkpt lat="44.89443" lon="6.81889">
        <ele>1991</ele>
        <time>2014-07-31T15:08:48.260Z</time>
      </trkpt>
      <trkpt lat="44.89442" lon="6.81886">
        <ele>1991</ele>
        <time>2014-07-31T15:08:50.260Z</time>
      </trkpt>
      <trkpt lat="44.8944" lon="6.81883">
        <ele>1991</ele>
        <time>2014-07-31T15:08:52.260Z</time>
      </trkpt>
      <trkpt lat="44.89438" lon="6.8188">
        <ele>1991</ele>
        <time>2014-07-31T15:08:54.130Z</time>
      </trkpt>
      <trkpt lat="44.89438" lon="6.81878">
        <ele>1993</ele>
        <time>2014-07-31T15:08:56.160Z</time>
      </trkpt>
      <trkpt lat="44.89437" lon="6.81875">
        <ele>1993</ele>
        <time>2014-07-31T15:08:58.260Z</time>
      </trkpt>
      <trkpt lat="44.89435" lon="6.81872">
        <ele>1993</ele>
        <time>2014-07-31T15:09:00.080Z</time>
      </trkpt>
      <trkpt lat="44.89435" lon="6.81871">
        <ele>1993</ele>
        <time>2014-07-31T15:09:01.260Z</time>
      </trkpt>
      <trkpt lat="44.89434" lon="6.81869">
        <ele>1993</ele>
        <time>2014-07-31T15:09:03.160Z</time>
      </trkpt>
      <trkpt lat="44.89433" lon="6.81868">
        <ele>1993</ele>
        <time>2014-07-31T15:09:04.260Z</time>
      </trkpt>
      <trkpt lat="44.89432" lon="6.81864">
        <ele>1995</ele>
        <time>2014-07-31T15:09:06.260Z</time>
      </trkpt>
      <trkpt lat="44.8943" lon="6.81861">
        <ele>1995</ele>
        <time>2014-07-31T15:09:08.260Z</time>
      </trkpt>
      <trkpt lat="44.89428" lon="6.81858">
        <ele>1995</ele>
        <time>2014-07-31T15:09:10.180Z</time>
      </trkpt>
      <trkpt lat="44.89426" lon="6.81855">
        <ele>1995</ele>
        <time>2014-07-31T15:09:12.260Z</time>
      </trkpt>
      <trkpt lat="44.89424" lon="6.81853">
        <ele>1995</ele>
        <time>2014-07-31T15:09:14.260Z</time>
      </trkpt>
      <trkpt lat="44.89423" lon="6.8185">
        <ele>1997</ele>
        <time>2014-07-31T15:09:16.260Z</time>
      </trkpt>
      <trkpt lat="44.89421" lon="6.81847">
        <ele>1997</ele>
        <time>2014-07-31T15:09:18.260Z</time>
      </trkpt>
      <trkpt lat="44.8942" lon="6.81844">
        <ele>1997</ele>
        <time>2014-07-31T15:09:20.160Z</time>
      </trkpt>
      <trkpt lat="44.8942" lon="6.81843">
        <ele>1997</ele>
        <time>2014-07-31T15:09:21.260Z</time>
      </trkpt>
      <trkpt lat="44.89419" lon="6.8184">
        <ele>1997</ele>
        <time>2014-07-31T15:09:23.250Z</time>
      </trkpt>
      <trkpt lat="44.89418" lon="6.81838">
        <ele>1998.4</ele>
        <time>2014-07-31T15:09:25.260Z</time>
      </trkpt>
      <trkpt lat="44.89417" lon="6.81835">
        <ele>1999</ele>
        <time>2014-07-31T15:09:27.260Z</time>
      </trkpt>
      <trkpt lat="44.89417" lon="6.81832">
        <ele>1999</ele>
        <time>2014-07-31T15:09:29.160Z</time>
      </trkpt>
      <trkpt lat="44.89416" lon="6.81831">
        <ele>1999</ele>
        <time>2014-07-31T15:09:30.260Z</time>
      </trkpt>
      <trkpt lat="44.89415" lon="6.81828">
        <ele>1999</ele>
        <time>2014-07-31T15:09:32.160Z</time>
      </trkpt>
      <trkpt lat="44.89414" lon="6.81826">
        <ele>1999</ele>
        <time>2014-07-31T15:09:33.260Z</time>
      </trkpt>
      <trkpt lat="44.89411" lon="6.81824">
        <ele>2000.2</ele>
        <time>2014-07-31T15:09:35.180Z</time>
      </trkpt>
      <trkpt lat="44.8941" lon="6.81822">
        <ele>2001</ele>
        <time>2014-07-31T15:09:37.260Z</time>
      </trkpt>
      <trkpt lat="44.89408" lon="6.81819">
        <ele>2001</ele>
        <time>2014-07-31T15:09:39.260Z</time>
      </trkpt>
      <trkpt lat="44.89407" lon="6.81816">
        <ele>2001</ele>
        <time>2014-07-31T15:09:41.260Z</time>
      </trkpt>
      <trkpt lat="44.89407" lon="6.81813">
        <ele>2001</ele>
        <time>2014-07-31T15:09:43.380Z</time>
      </trkpt>
      <trkpt lat="44.89405" lon="6.81809">
        <ele>2002.1</ele>
        <time>2014-07-31T15:09:45.130Z</time>
      </trkpt>
      <trkpt lat="44.89404" lon="6.81808">
        <ele>2003</ele>
        <time>2014-07-31T15:09:46.260Z</time>
      </trkpt>
      <trkpt lat="44.89403" lon="6.81805">
        <ele>2003</ele>
        <time>2014-07-31T15:09:48.080Z</time>
      </trkpt>
      <trkpt lat="44.89402" lon="6.818">
        <ele>2003</ele>
        <time>2014-07-31T15:09:51.220Z</time>
      </trkpt>
      <trkpt lat="44.894" lon="6.81797">
        <ele>2003</ele>
        <time>2014-07-31T15:09:53.260Z</time>
      </trkpt>
      <trkpt lat="44.89399" lon="6.81794">
        <ele>2004.4</ele>
        <time>2014-07-31T15:09:55.260Z</time>
      </trkpt>
      <trkpt lat="44.89399" lon="6.81791">
        <ele>2005</ele>
        <time>2014-07-31T15:09:57.260Z</time>
      </trkpt>
      <trkpt lat="44.89398" lon="6.81787">
        <ele>2005</ele>
        <time>2014-07-31T15:09:59.260Z</time>
      </trkpt>
      <trkpt lat="44.89398" lon="6.81783">
        <ele>2005</ele>
        <time>2014-07-31T15:10:01.160Z</time>
      </trkpt>
      <trkpt lat="44.89398" lon="6.81781">
        <ele>2005</ele>
        <time>2014-07-31T15:10:02.230Z</time>
      </trkpt>
      <trkpt lat="44.89397" lon="6.81778">
        <ele>2005</ele>
        <time>2014-07-31T15:10:04.260Z</time>
      </trkpt>
      <trkpt lat="44.89397" lon="6.81775">
        <ele>2007</ele>
        <time>2014-07-31T15:10:06.160Z</time>
      </trkpt>
      <trkpt lat="44.89397" lon="6.81774">
        <ele>2007</ele>
        <time>2014-07-31T15:10:07.260Z</time>
      </trkpt>
      <trkpt lat="44.89397" lon="6.81771">
        <ele>2007</ele>
        <time>2014-07-31T15:10:09.260Z</time>
      </trkpt>
      <trkpt lat="44.89397" lon="6.81767">
        <ele>2007</ele>
        <time>2014-07-31T15:10:11.260Z</time>
      </trkpt>
      <trkpt lat="44.89397" lon="6.81765">
        <ele>2007</ele>
        <time>2014-07-31T15:10:13.160Z</time>
      </trkpt>
      <trkpt lat="44.89396" lon="6.81763">
        <ele>2007</ele>
        <time>2014-07-31T15:10:14.260Z</time>
      </trkpt>
      <trkpt lat="44.89396" lon="6.8176">
        <ele>2009</ele>
        <time>2014-07-31T15:10:16.260Z</time>
      </trkpt>
      <trkpt lat="44.89396" lon="6.81758">
        <ele>2009</ele>
        <time>2014-07-31T15:10:17.300Z</time>
      </trkpt>
      <trkpt lat="44.89396" lon="6.81755">
        <ele>2009</ele>
        <time>2014-07-31T15:10:19.070Z</time>
      </trkpt>
      <trkpt lat="44.89395" lon="6.81753">
        <ele>2009</ele>
        <time>2014-07-31T15:10:20.260Z</time>
      </trkpt>
      <trkpt lat="44.89394" lon="6.8175">
        <ele>2009</ele>
        <time>2014-07-31T15:10:22.260Z</time>
      </trkpt>
      <trkpt lat="44.89394" lon="6.81747">
        <ele>2009</ele>
        <time>2014-07-31T15:10:24.260Z</time>
      </trkpt>
      <trkpt lat="44.89393" lon="6.81744">
        <ele>2011</ele>
        <time>2014-07-31T15:10:26.260Z</time>
      </trkpt>
      <trkpt lat="44.89393" lon="6.81742">
        <ele>2011</ele>
        <time>2014-07-31T15:10:28.260Z</time>
      </trkpt>
      <trkpt lat="44.89393" lon="6.8174">
        <ele>2011</ele>
        <time>2014-07-31T15:10:30.260Z</time>
      </trkpt>
      <trkpt lat="44.89392" lon="6.81736">
        <ele>2011</ele>
        <time>2014-07-31T15:10:32.260Z</time>
      </trkpt>
      <trkpt lat="44.89393" lon="6.81731">
        <ele>2011</ele>
        <time>2014-07-31T15:10:34.120Z</time>
      </trkpt>
      <trkpt lat="44.89393" lon="6.8173">
        <ele>2013.1</ele>
        <time>2014-07-31T15:10:35.260Z</time>
      </trkpt>
      <trkpt lat="44.89393" lon="6.81726">
        <ele>2014</ele>
        <time>2014-07-31T15:10:37.260Z</time>
      </trkpt>
      <trkpt lat="44.89392" lon="6.81723">
        <ele>2014</ele>
        <time>2014-07-31T15:10:39.160Z</time>
      </trkpt>
      <trkpt lat="44.89391" lon="6.81721">
        <ele>2014.8</ele>
        <time>2014-07-31T15:10:40.340Z</time>
      </trkpt>
      <trkpt lat="44.8939" lon="6.81719">
        <ele>2015</ele>
        <time>2014-07-31T15:10:42.260Z</time>
      </trkpt>
      <trkpt lat="44.89388" lon="6.81716">
        <ele>2015</ele>
        <time>2014-07-31T15:10:44.250Z</time>
      </trkpt>
      <trkpt lat="44.89387" lon="6.81714">
        <ele>2016</ele>
        <time>2014-07-31T15:10:46.260Z</time>
      </trkpt>
      <trkpt lat="44.89385" lon="6.81712">
        <ele>2016</ele>
        <time>2014-07-31T15:10:48.260Z</time>
      </trkpt>
      <trkpt lat="44.89383" lon="6.8171">
        <ele>2016</ele>
        <time>2014-07-31T15:10:50.260Z</time>
      </trkpt>
      <trkpt lat="44.89381" lon="6.81708">
        <ele>2016</ele>
        <time>2014-07-31T15:10:52.280Z</time>
      </trkpt>
      <trkpt lat="44.89378" lon="6.81707">
        <ele>2016</ele>
        <time>2014-07-31T15:10:54.260Z</time>
      </trkpt>
      <trkpt lat="44.89376" lon="6.81705">
        <ele>2018</ele>
        <time>2014-07-31T15:10:56.150Z</time>
      </trkpt>
      <trkpt lat="44.89375" lon="6.81704">
        <ele>2018</ele>
        <time>2014-07-31T15:10:57.260Z</time>
      </trkpt>
      <trkpt lat="44.89373" lon="6.81702">
        <ele>2018</ele>
        <time>2014-07-31T15:10:59.160Z</time>
      </trkpt>
      <trkpt lat="44.89372" lon="6.81701">
        <ele>2018</ele>
        <time>2014-07-31T15:11:00.220Z</time>
      </trkpt>
      <trkpt lat="44.8937" lon="6.81699">
        <ele>2018</ele>
        <time>2014-07-31T15:11:02.260Z</time>
      </trkpt>
      <trkpt lat="44.89368" lon="6.81698">
        <ele>2018</ele>
        <time>2014-07-31T15:11:04.160Z</time>
      </trkpt>
      <trkpt lat="44.89367" lon="6.81697">
        <ele>2020</ele>
        <time>2014-07-31T15:11:05.260Z</time>
      </trkpt>
      <trkpt lat="44.89365" lon="6.81696">
        <ele>2021</ele>
        <time>2014-07-31T15:11:07.160Z</time>
      </trkpt>
      <trkpt lat="44.89364" lon="6.81695">
        <ele>2021</ele>
        <time>2014-07-31T15:11:08.260Z</time>
      </trkpt>
      <trkpt lat="44.89362" lon="6.81694">
        <ele>2021.6</ele>
        <time>2014-07-31T15:11:10.130Z</time>
      </trkpt>
      <trkpt lat="44.8936" lon="6.81693">
        <ele>2022</ele>
        <time>2014-07-31T15:11:11.260Z</time>
      </trkpt>
      <trkpt lat="44.89357" lon="6.81692">
        <ele>2022</ele>
        <time>2014-07-31T15:11:13.260Z</time>
      </trkpt>
      <trkpt lat="44.89355" lon="6.81692">
        <ele>2022.7</ele>
        <time>2014-07-31T15:11:15.260Z</time>
      </trkpt>
      <trkpt lat="44.89353" lon="6.81692">
        <ele>2023</ele>
        <time>2014-07-31T15:11:17.020Z</time>
      </trkpt>
      <trkpt lat="44.89351" lon="6.81691">
        <ele>2023</ele>
        <time>2014-07-31T15:11:18.260Z</time>
      </trkpt>
      <trkpt lat="44.8935" lon="6.81691">
        <ele>2023</ele>
        <time>2014-07-31T15:11:20.260Z</time>
      </trkpt>
      <trkpt lat="44.89348" lon="6.81691">
        <ele>2023</ele>
        <time>2014-07-31T15:11:22.260Z</time>
      </trkpt>
      <trkpt lat="44.89347" lon="6.81691">
        <ele>2023</ele>
        <time>2014-07-31T15:11:24.160Z</time>
      </trkpt>
      <trkpt lat="44.89345" lon="6.8169">
        <ele>2024.4</ele>
        <time>2014-07-31T15:11:25.260Z</time>
      </trkpt>
      <trkpt lat="44.89343" lon="6.81689">
        <ele>2025</ele>
        <time>2014-07-31T15:11:27.230Z</time>
      </trkpt>
      <trkpt lat="44.89341" lon="6.81689">
        <ele>2025</ele>
        <time>2014-07-31T15:11:29.250Z</time>
      </trkpt>
      <trkpt lat="44.89338" lon="6.81688">
        <ele>2025</ele>
        <time>2014-07-31T15:11:31.260Z</time>
      </trkpt>
      <trkpt lat="44.89336" lon="6.81686">
        <ele>2025</ele>
        <time>2014-07-31T15:11:33.260Z</time>
      </trkpt>
      <trkpt lat="44.89333" lon="6.81685">
        <ele>2025.7</ele>
        <time>2014-07-31T15:11:35.260Z</time>
      </trkpt>
      <trkpt lat="44.89331" lon="6.81683">
        <ele>2026</ele>
        <time>2014-07-31T15:11:37.150Z</time>
      </trkpt>
      <trkpt lat="44.8933" lon="6.81682">
        <ele>2026</ele>
        <time>2014-07-31T15:11:38.160Z</time>
      </trkpt>
      <trkpt lat="44.89329" lon="6.81679">
        <ele>2026</ele>
        <time>2014-07-31T15:11:41.250Z</time>
      </trkpt>
      <trkpt lat="44.89327" lon="6.81676">
        <ele>2026</ele>
        <time>2014-07-31T15:11:43.260Z</time>
      </trkpt>
      <trkpt lat="44.89325" lon="6.81674">
        <ele>2026.6</ele>
        <time>2014-07-31T15:11:45.160Z</time>
      </trkpt>
      <trkpt lat="44.89324" lon="6.81673">
        <ele>2027</ele>
        <time>2014-07-31T15:11:46.260Z</time>
      </trkpt>
      <trkpt lat="44.89322" lon="6.81671">
        <ele>2027</ele>
        <time>2014-07-31T15:11:48.160Z</time>
      </trkpt>
      <trkpt lat="44.89321" lon="6.8167">
        <ele>2027</ele>
        <time>2014-07-31T15:11:49.260Z</time>
      </trkpt>
      <trkpt lat="44.89319" lon="6.81668">
        <ele>2027</ele>
        <time>2014-07-31T15:11:51.220Z</time>
      </trkpt>
      <trkpt lat="44.89318" lon="6.81664">
        <ele>2027</ele>
        <time>2014-07-31T15:11:53.250Z</time>
      </trkpt>
      <trkpt lat="44.89317" lon="6.81662">
        <ele>2028.4</ele>
        <time>2014-07-31T15:11:55.260Z</time>
      </trkpt>
      <trkpt lat="44.89315" lon="6.81659">
        <ele>2029</ele>
        <time>2014-07-31T15:11:57.260Z</time>
      </trkpt>
      <trkpt lat="44.89313" lon="6.81655">
        <ele>2029</ele>
        <time>2014-07-31T15:11:59.260Z</time>
      </trkpt>
      <trkpt lat="44.89311" lon="6.81652">
        <ele>2029</ele>
        <time>2014-07-31T15:12:01.220Z</time>
      </trkpt>
      <trkpt lat="44.89309" lon="6.8165">
        <ele>2029</ele>
        <time>2014-07-31T15:12:03.250Z</time>
      </trkpt>
      <trkpt lat="44.89307" lon="6.81648">
        <ele>2030.4</ele>
        <time>2014-07-31T15:12:05.260Z</time>
      </trkpt>
      <trkpt lat="44.89305" lon="6.81647">
        <ele>2031</ele>
        <time>2014-07-31T15:12:07.260Z</time>
      </trkpt>
      <trkpt lat="44.89303" lon="6.81646">
        <ele>2031</ele>
        <time>2014-07-31T15:12:09.260Z</time>
      </trkpt>
      <trkpt lat="44.89301" lon="6.81646">
        <ele>2031</ele>
        <time>2014-07-31T15:12:11.260Z</time>
      </trkpt>
      <trkpt lat="44.893" lon="6.81645">
        <ele>2031</ele>
        <time>2014-07-31T15:12:13.160Z</time>
      </trkpt>
      <trkpt lat="44.89298" lon="6.81646">
        <ele>2031.7</ele>
        <time>2014-07-31T15:12:15.250Z</time>
      </trkpt>
      <trkpt lat="44.89296" lon="6.81646">
        <ele>2032</ele>
        <time>2014-07-31T15:12:17.060Z</time>
      </trkpt>
      <trkpt lat="44.89293" lon="6.81647">
        <ele>2032</ele>
        <time>2014-07-31T15:12:19.260Z</time>
      </trkpt>
      <trkpt lat="44.89292" lon="6.81648">
        <ele>2032</ele>
        <time>2014-07-31T15:12:21.260Z</time>
      </trkpt>
      <trkpt lat="44.89289" lon="6.81649">
        <ele>2032</ele>
        <time>2014-07-31T15:12:23.150Z</time>
      </trkpt>
      <trkpt lat="44.89288" lon="6.8165">
        <ele>2032</ele>
        <time>2014-07-31T15:12:24.160Z</time>
      </trkpt>
      <trkpt lat="44.89286" lon="6.81651">
        <ele>2033.4</ele>
        <time>2014-07-31T15:12:25.260Z</time>
      </trkpt>
      <trkpt lat="44.89284" lon="6.81652">
        <ele>2034</ele>
        <time>2014-07-31T15:12:27.260Z</time>
      </trkpt>
      <trkpt lat="44.89282" lon="6.81653">
        <ele>2034</ele>
        <time>2014-07-31T15:12:29.260Z</time>
      </trkpt>
      <trkpt lat="44.89279" lon="6.81654">
        <ele>2034</ele>
        <time>2014-07-31T15:12:31.260Z</time>
      </trkpt>
      <trkpt lat="44.89276" lon="6.81655">
        <ele>2034</ele>
        <time>2014-07-31T15:12:33.260Z</time>
      </trkpt>
      <trkpt lat="44.89274" lon="6.81656">
        <ele>2035.1</ele>
        <time>2014-07-31T15:12:35.130Z</time>
      </trkpt>
      <trkpt lat="44.89273" lon="6.81656">
        <ele>2036</ele>
        <time>2014-07-31T15:12:36.260Z</time>
      </trkpt>
      <trkpt lat="44.89271" lon="6.81657">
        <ele>2036</ele>
        <time>2014-07-31T15:12:38.260Z</time>
      </trkpt>
      <trkpt lat="44.89267" lon="6.81656">
        <ele>2036</ele>
        <time>2014-07-31T15:12:40.160Z</time>
      </trkpt>
      <trkpt lat="44.89266" lon="6.81656">
        <ele>2036</ele>
        <time>2014-07-31T15:12:41.260Z</time>
      </trkpt>
      <trkpt lat="44.89263" lon="6.81654">
        <ele>2036</ele>
        <time>2014-07-31T15:12:43.160Z</time>
      </trkpt>
      <trkpt lat="44.89263" lon="6.81653">
        <ele>2036</ele>
        <time>2014-07-31T15:12:44.260Z</time>
      </trkpt>
      <trkpt lat="44.89261" lon="6.81651">
        <ele>2040</ele>
        <time>2014-07-31T15:12:46.350Z</time>
      </trkpt>
      <trkpt lat="44.89258" lon="6.81649">
        <ele>2040</ele>
        <time>2014-07-31T15:12:48.260Z</time>
      </trkpt>
      <trkpt lat="44.89257" lon="6.81647">
        <ele>2041.4</ele>
        <time>2014-07-31T15:12:50.250Z</time>
      </trkpt>
      <trkpt lat="44.89255" lon="6.81644">
        <ele>2042</ele>
        <time>2014-07-31T15:12:52.130Z</time>
      </trkpt>
      <trkpt lat="44.89254" lon="6.81643">
        <ele>2042</ele>
        <time>2014-07-31T15:12:53.260Z</time>
      </trkpt>
      <trkpt lat="44.89252" lon="6.8164">
        <ele>2042.7</ele>
        <time>2014-07-31T15:12:55.260Z</time>
      </trkpt>
      <trkpt lat="44.89251" lon="6.81639">
        <ele>2043</ele>
        <time>2014-07-31T15:12:57.160Z</time>
      </trkpt>
      <trkpt lat="44.8925" lon="6.81638">
        <ele>2043</ele>
        <time>2014-07-31T15:12:58.260Z</time>
      </trkpt>
      <trkpt lat="44.89248" lon="6.81636">
        <ele>2043</ele>
        <time>2014-07-31T15:13:00.120Z</time>
      </trkpt>
      <trkpt lat="44.89247" lon="6.81635">
        <ele>2043</ele>
        <time>2014-07-31T15:13:01.260Z</time>
      </trkpt>
      <trkpt lat="44.89246" lon="6.81633">
        <ele>2043</ele>
        <time>2014-07-31T15:13:03.260Z</time>
      </trkpt>
      <trkpt lat="44.89244" lon="6.81633">
        <ele>2043.6</ele>
        <time>2014-07-31T15:13:05.160Z</time>
      </trkpt>
      <trkpt lat="44.89242" lon="6.81632">
        <ele>2044</ele>
        <time>2014-07-31T15:13:08.260Z</time>
      </trkpt>
      <trkpt lat="44.8924" lon="6.81632">
        <ele>2044</ele>
        <time>2014-07-31T15:13:10.260Z</time>
      </trkpt>
      <trkpt lat="44.89238" lon="6.81632">
        <ele>2044</ele>
        <time>2014-07-31T15:13:12.250Z</time>
      </trkpt>
      <trkpt lat="44.89235" lon="6.81631">
        <ele>2044</ele>
        <time>2014-07-31T15:13:14.260Z</time>
      </trkpt>
      <trkpt lat="44.89232" lon="6.8163">
        <ele>2046</ele>
        <time>2014-07-31T15:13:16.260Z</time>
      </trkpt>
      <trkpt lat="44.89229" lon="6.81629">
        <ele>2046</ele>
        <time>2014-07-31T15:13:18.160Z</time>
      </trkpt>
      <trkpt lat="44.89228" lon="6.81629">
        <ele>2046</ele>
        <time>2014-07-31T15:13:19.260Z</time>
      </trkpt>
      <trkpt lat="44.89225" lon="6.81629">
        <ele>2046</ele>
        <time>2014-07-31T15:13:21.380Z</time>
      </trkpt>
      <trkpt lat="44.89223" lon="6.81628">
        <ele>2046</ele>
        <time>2014-07-31T15:13:23.260Z</time>
      </trkpt>
      <trkpt lat="44.89221" lon="6.81627">
        <ele>2048.1</ele>
        <time>2014-07-31T15:13:25.260Z</time>
      </trkpt>
      <trkpt lat="44.89218" lon="6.81626">
        <ele>2049</ele>
        <time>2014-07-31T15:13:27.260Z</time>
      </trkpt>
      <trkpt lat="44.89215" lon="6.81627">
        <ele>2049</ele>
        <time>2014-07-31T15:13:29.260Z</time>
      </trkpt>
      <trkpt lat="44.89213" lon="6.81627">
        <ele>2050</ele>
        <time>2014-07-31T15:13:31.160Z</time>
      </trkpt>
      <trkpt lat="44.89212" lon="6.81628">
        <ele>2050</ele>
        <time>2014-07-31T15:13:32.260Z</time>
      </trkpt>
      <trkpt lat="44.89209" lon="6.81629">
        <ele>2050</ele>
        <time>2014-07-31T15:13:34.120Z</time>
      </trkpt>
      <trkpt lat="44.89208" lon="6.8163">
        <ele>2050.7</ele>
        <time>2014-07-31T15:13:35.260Z</time>
      </trkpt>
      <trkpt lat="44.89206" lon="6.81631">
        <ele>2051</ele>
        <time>2014-07-31T15:13:37.260Z</time>
      </trkpt>
      <trkpt lat="44.89204" lon="6.81632">
        <ele>2051</ele>
        <time>2014-07-31T15:13:39.160Z</time>
      </trkpt>
      <trkpt lat="44.89203" lon="6.81633">
        <ele>2051</ele>
        <time>2014-07-31T15:13:40.260Z</time>
      </trkpt>
      <trkpt lat="44.89201" lon="6.81634">
        <ele>2051</ele>
        <time>2014-07-31T15:13:42.260Z</time>
      </trkpt>
      <trkpt lat="44.89199" lon="6.81635">
        <ele>2051</ele>
        <time>2014-07-31T15:13:44.260Z</time>
      </trkpt>
      <trkpt lat="44.89198" lon="6.81635">
        <ele>2052</ele>
        <time>2014-07-31T15:13:46.260Z</time>
      </trkpt>
      <trkpt lat="44.89195" lon="6.81636">
        <ele>2052</ele>
        <time>2014-07-31T15:13:48.250Z</time>
      </trkpt>
      <trkpt lat="44.89191" lon="6.81637">
        <ele>2052</ele>
        <time>2014-07-31T15:13:50.260Z</time>
      </trkpt>
      <trkpt lat="44.89188" lon="6.81638">
        <ele>2052</ele>
        <time>2014-07-31T15:13:52.260Z</time>
      </trkpt>
      <trkpt lat="44.89185" lon="6.81638">
        <ele>2052</ele>
        <time>2014-07-31T15:13:54.260Z</time>
      </trkpt>
      <trkpt lat="44.89183" lon="6.81638">
        <ele>2054</ele>
        <time>2014-07-31T15:13:56.260Z</time>
      </trkpt>
      <trkpt lat="44.8918" lon="6.81639">
        <ele>2054</ele>
        <time>2014-07-31T15:13:58.260Z</time>
      </trkpt>
      <trkpt lat="44.89177" lon="6.81639">
        <ele>2054</ele>
        <time>2014-07-31T15:14:00.140Z</time>
      </trkpt>
      <trkpt lat="44.89174" lon="6.81639">
        <ele>2054</ele>
        <time>2014-07-31T15:14:02.160Z</time>
      </trkpt>
      <trkpt lat="44.89171" lon="6.81639">
        <ele>2054</ele>
        <time>2014-07-31T15:14:04.260Z</time>
      </trkpt>
      <trkpt lat="44.89168" lon="6.81639">
        <ele>2055</ele>
        <time>2014-07-31T15:14:06.260Z</time>
      </trkpt>
      <trkpt lat="44.89165" lon="6.81639">
        <ele>2055</ele>
        <time>2014-07-31T15:14:08.260Z</time>
      </trkpt>
      <trkpt lat="44.89162" lon="6.81638">
        <ele>2055</ele>
        <time>2014-07-31T15:14:10.260Z</time>
      </trkpt>
      <trkpt lat="44.89159" lon="6.81636">
        <ele>2055</ele>
        <time>2014-07-31T15:14:12.260Z</time>
      </trkpt>
      <trkpt lat="44.89156" lon="6.81634">
        <ele>2055</ele>
        <time>2014-07-31T15:14:14.260Z</time>
      </trkpt>
      <trkpt lat="44.89153" lon="6.81631">
        <ele>2056</ele>
        <time>2014-07-31T15:14:16.260Z</time>
      </trkpt>
      <trkpt lat="44.89151" lon="6.81628">
        <ele>2056</ele>
        <time>2014-07-31T15:14:18.260Z</time>
      </trkpt>
      <trkpt lat="44.89149" lon="6.81625">
        <ele>2056</ele>
        <time>2014-07-31T15:14:20.260Z</time>
      </trkpt>
      <trkpt lat="44.89147" lon="6.81622">
        <ele>2056</ele>
        <time>2014-07-31T15:14:22.260Z</time>
      </trkpt>
      <trkpt lat="44.89144" lon="6.81619">
        <ele>2056</ele>
        <time>2014-07-31T15:14:24.250Z</time>
      </trkpt>
      <trkpt lat="44.89141" lon="6.81616">
        <ele>2056</ele>
        <time>2014-07-31T15:14:26.260Z</time>
      </trkpt>
      <trkpt lat="44.89138" lon="6.81613">
        <ele>2056</ele>
        <time>2014-07-31T15:14:28.260Z</time>
      </trkpt>
      <trkpt lat="44.89136" lon="6.81611">
        <ele>2056</ele>
        <time>2014-07-31T15:14:30.260Z</time>
      </trkpt>
      <trkpt lat="44.89133" lon="6.81607">
        <ele>2056</ele>
        <time>2014-07-31T15:14:32.260Z</time>
      </trkpt>
      <trkpt lat="44.89131" lon="6.81606">
        <ele>2056</ele>
        <time>2014-07-31T15:14:34.140Z</time>
      </trkpt>
      <trkpt lat="44.8913" lon="6.81605">
        <ele>2057.4</ele>
        <time>2014-07-31T15:14:35.260Z</time>
      </trkpt>
      <trkpt lat="44.89128" lon="6.81602">
        <ele>2058</ele>
        <time>2014-07-31T15:14:37.260Z</time>
      </trkpt>
      <trkpt lat="44.89125" lon="6.81599">
        <ele>2058</ele>
        <time>2014-07-31T15:14:39.260Z</time>
      </trkpt>
      <trkpt lat="44.89123" lon="6.81596">
        <ele>2058</ele>
        <time>2014-07-31T15:14:41.260Z</time>
      </trkpt>
      <trkpt lat="44.8912" lon="6.81595">
        <ele>2058</ele>
        <time>2014-07-31T15:14:43.260Z</time>
      </trkpt>
      <trkpt lat="44.89118" lon="6.81593">
        <ele>2058.7</ele>
        <time>2014-07-31T15:14:45.260Z</time>
      </trkpt>
      <trkpt lat="44.89115" lon="6.8159">
        <ele>2059</ele>
        <time>2014-07-31T15:14:47.160Z</time>
      </trkpt>
      <trkpt lat="44.89114" lon="6.81589">
        <ele>2059</ele>
        <time>2014-07-31T15:14:48.260Z</time>
      </trkpt>
      <trkpt lat="44.89111" lon="6.81588">
        <ele>2059</ele>
        <time>2014-07-31T15:14:50.260Z</time>
      </trkpt>
      <trkpt lat="44.89109" lon="6.81587">
        <ele>2059</ele>
        <time>2014-07-31T15:14:52.160Z</time>
      </trkpt>
      <trkpt lat="44.89108" lon="6.81586">
        <ele>2059</ele>
        <time>2014-07-31T15:14:53.260Z</time>
      </trkpt>
      <trkpt lat="44.89105" lon="6.81584">
        <ele>2060.2</ele>
        <time>2014-07-31T15:14:55.160Z</time>
      </trkpt>
      <trkpt lat="44.89104" lon="6.81583">
        <ele>2061</ele>
        <time>2014-07-31T15:14:56.260Z</time>
      </trkpt>
      <trkpt lat="44.89101" lon="6.81581">
        <ele>2061</ele>
        <time>2014-07-31T15:14:58.160Z</time>
      </trkpt>
      <trkpt lat="44.891" lon="6.8158">
        <ele>2061</ele>
        <time>2014-07-31T15:14:59.250Z</time>
      </trkpt>
      <trkpt lat="44.89097" lon="6.81578">
        <ele>2061</ele>
        <time>2014-07-31T15:15:01.260Z</time>
      </trkpt>
      <trkpt lat="44.89094" lon="6.81576">
        <ele>2061</ele>
        <time>2014-07-31T15:15:03.160Z</time>
      </trkpt>
      <trkpt lat="44.89092" lon="6.81574">
        <ele>2061.7</ele>
        <time>2014-07-31T15:15:05.260Z</time>
      </trkpt>
      <trkpt lat="44.89089" lon="6.81571">
        <ele>2062</ele>
        <time>2014-07-31T15:15:07.160Z</time>
      </trkpt>
      <trkpt lat="44.89085" lon="6.81568">
        <ele>2062</ele>
        <time>2014-07-31T15:15:09.250Z</time>
      </trkpt>
      <trkpt lat="44.89081" lon="6.81565">
        <ele>2062</ele>
        <time>2014-07-31T15:15:11.160Z</time>
      </trkpt>
      <trkpt lat="44.8908" lon="6.81564">
        <ele>2062</ele>
        <time>2014-07-31T15:15:12.260Z</time>
      </trkpt>
      <trkpt lat="44.89077" lon="6.81561">
        <ele>2062</ele>
        <time>2014-07-31T15:15:14.260Z</time>
      </trkpt>
      <trkpt lat="44.89074" lon="6.81558">
        <ele>2063</ele>
        <time>2014-07-31T15:15:16.380Z</time>
      </trkpt>
      <trkpt lat="44.8907" lon="6.81555">
        <ele>2063</ele>
        <time>2014-07-31T15:15:18.260Z</time>
      </trkpt>
      <trkpt lat="44.89067" lon="6.81552">
        <ele>2063</ele>
        <time>2014-07-31T15:15:20.160Z</time>
      </trkpt>
      <trkpt lat="44.89065" lon="6.81551">
        <ele>2063</ele>
        <time>2014-07-31T15:15:21.260Z</time>
      </trkpt>
      <trkpt lat="44.89062" lon="6.81547">
        <ele>2063</ele>
        <time>2014-07-31T15:15:23.260Z</time>
      </trkpt>
      <trkpt lat="44.89058" lon="6.81543">
        <ele>2063.7</ele>
        <time>2014-07-31T15:15:25.230Z</time>
      </trkpt>
      <trkpt lat="44.89055" lon="6.81539">
        <ele>2064</ele>
        <time>2014-07-31T15:15:27.160Z</time>
      </trkpt>
      <trkpt lat="44.89052" lon="6.81536">
        <ele>2064</ele>
        <time>2014-07-31T15:15:28.260Z</time>
      </trkpt>
      <trkpt lat="44.89047" lon="6.81532">
        <ele>2064</ele>
        <time>2014-07-31T15:15:30.260Z</time>
      </trkpt>
      <trkpt lat="44.89043" lon="6.81527">
        <ele>2064</ele>
        <time>2014-07-31T15:15:32.250Z</time>
      </trkpt>
      <trkpt lat="44.89039" lon="6.81524">
        <ele>2064</ele>
        <time>2014-07-31T15:15:34.220Z</time>
      </trkpt>
      <trkpt lat="44.89035" lon="6.8152">
        <ele>2064</ele>
        <time>2014-07-31T15:15:36.260Z</time>
      </trkpt>
      <trkpt lat="44.89031" lon="6.81516">
        <ele>2064</ele>
        <time>2014-07-31T15:15:38.260Z</time>
      </trkpt>
      <trkpt lat="44.89028" lon="6.81511">
        <ele>2064</ele>
        <time>2014-07-31T15:15:40.160Z</time>
      </trkpt>
      <trkpt lat="44.89026" lon="6.81508">
        <ele>2064</ele>
        <time>2014-07-31T15:15:41.260Z</time>
      </trkpt>
      <trkpt lat="44.89023" lon="6.81503">
        <ele>2064</ele>
        <time>2014-07-31T15:15:43.260Z</time>
      </trkpt>
      <trkpt lat="44.8902" lon="6.81497">
        <ele>2064</ele>
        <time>2014-07-31T15:15:45.160Z</time>
      </trkpt>
      <trkpt lat="44.89018" lon="6.81495">
        <ele>2064</ele>
        <time>2014-07-31T15:15:46.260Z</time>
      </trkpt>
      <trkpt lat="44.89016" lon="6.8149">
        <ele>2064</ele>
        <time>2014-07-31T15:15:48.260Z</time>
      </trkpt>
      <trkpt lat="44.89013" lon="6.81485">
        <ele>2064</ele>
        <time>2014-07-31T15:15:50.260Z</time>
      </trkpt>
      <trkpt lat="44.89012" lon="6.81482">
        <ele>2064</ele>
        <time>2014-07-31T15:15:51.260Z</time>
      </trkpt>
      <trkpt lat="44.89009" lon="6.81478">
        <ele>2064</ele>
        <time>2014-07-31T15:15:53.160Z</time>
      </trkpt>
      <trkpt lat="44.89008" lon="6.81475">
        <ele>2064</ele>
        <time>2014-07-31T15:15:54.260Z</time>
      </trkpt>
      <trkpt lat="44.89006" lon="6.8147">
        <ele>2067</ele>
        <time>2014-07-31T15:15:56.260Z</time>
      </trkpt>
      <trkpt lat="44.89003" lon="6.81465">
        <ele>2067</ele>
        <time>2014-07-31T15:15:58.260Z</time>
      </trkpt>
      <trkpt lat="44.89001" lon="6.8146">
        <ele>2067</ele>
        <time>2014-07-31T15:16:00.120Z</time>
      </trkpt>
      <trkpt lat="44.88999" lon="6.81458">
        <ele>2067</ele>
        <time>2014-07-31T15:16:01.260Z</time>
      </trkpt>
      <trkpt lat="44.88997" lon="6.81453">
        <ele>2067</ele>
        <time>2014-07-31T15:16:03.260Z</time>
      </trkpt>
      <trkpt lat="44.88994" lon="6.81448">
        <ele>2067.7</ele>
        <time>2014-07-31T15:16:05.260Z</time>
      </trkpt>
      <trkpt lat="44.88992" lon="6.81444">
        <ele>2068</ele>
        <time>2014-07-31T15:16:07.260Z</time>
      </trkpt>
      <trkpt lat="44.8899" lon="6.8144">
        <ele>2068</ele>
        <time>2014-07-31T15:16:09.160Z</time>
      </trkpt>
      <trkpt lat="44.88989" lon="6.81437">
        <ele>2068</ele>
        <time>2014-07-31T15:16:10.260Z</time>
      </trkpt>
      <trkpt lat="44.88986" lon="6.81433">
        <ele>2068</ele>
        <time>2014-07-31T15:16:12.260Z</time>
      </trkpt>
      <trkpt lat="44.88984" lon="6.81428">
        <ele>2068</ele>
        <time>2014-07-31T15:16:14.260Z</time>
      </trkpt>
      <trkpt lat="44.88982" lon="6.81424">
        <ele>2069</ele>
        <time>2014-07-31T15:16:16.130Z</time>
      </trkpt>
      <trkpt lat="44.8898" lon="6.81422">
        <ele>2069</ele>
        <time>2014-07-31T15:16:17.220Z</time>
      </trkpt>
      <trkpt lat="44.88978" lon="6.81418">
        <ele>2069</ele>
        <time>2014-07-31T15:16:19.260Z</time>
      </trkpt>
      <trkpt lat="44.88976" lon="6.81413">
        <ele>2069</ele>
        <time>2014-07-31T15:16:21.260Z</time>
      </trkpt>
      <trkpt lat="44.88974" lon="6.81408">
        <ele>2069</ele>
        <time>2014-07-31T15:16:23.260Z</time>
      </trkpt>
      <trkpt lat="44.88971" lon="6.81403">
        <ele>2069.7</ele>
        <time>2014-07-31T15:16:25.260Z</time>
      </trkpt>
      <trkpt lat="44.88969" lon="6.81399">
        <ele>2070</ele>
        <time>2014-07-31T15:16:27.260Z</time>
      </trkpt>
      <trkpt lat="44.88966" lon="6.81394">
        <ele>2070</ele>
        <time>2014-07-31T15:16:29.160Z</time>
      </trkpt>
      <trkpt lat="44.88965" lon="6.81391">
        <ele>2070</ele>
        <time>2014-07-31T15:16:30.260Z</time>
      </trkpt>
      <trkpt lat="44.88962" lon="6.81388">
        <ele>2070</ele>
        <time>2014-07-31T15:16:32.260Z</time>
      </trkpt>
      <trkpt lat="44.88959" lon="6.81384">
        <ele>2070</ele>
        <time>2014-07-31T15:16:34.120Z</time>
      </trkpt>
      <trkpt lat="44.88957" lon="6.81383">
        <ele>2071.4</ele>
        <time>2014-07-31T15:16:35.260Z</time>
      </trkpt>
      <trkpt lat="44.88953" lon="6.81381">
        <ele>2072</ele>
        <time>2014-07-31T15:16:37.260Z</time>
      </trkpt>
      <trkpt lat="44.8895" lon="6.8138">
        <ele>2072</ele>
        <time>2014-07-31T15:16:39.160Z</time>
      </trkpt>
      <trkpt lat="44.88949" lon="6.81379">
        <ele>2072</ele>
        <time>2014-07-31T15:16:40.260Z</time>
      </trkpt>
      <trkpt lat="44.88946" lon="6.81377">
        <ele>2072</ele>
        <time>2014-07-31T15:16:42.160Z</time>
      </trkpt>
      <trkpt lat="44.88944" lon="6.81376">
        <ele>2072</ele>
        <time>2014-07-31T15:16:43.260Z</time>
      </trkpt>
      <trkpt lat="44.8894" lon="6.81372">
        <ele>2072</ele>
        <time>2014-07-31T15:16:45.260Z</time>
      </trkpt>
      <trkpt lat="44.88937" lon="6.81368">
        <ele>2072</ele>
        <time>2014-07-31T15:16:47.260Z</time>
      </trkpt>
      <trkpt lat="44.88934" lon="6.81364">
        <ele>2072</ele>
        <time>2014-07-31T15:16:49.260Z</time>
      </trkpt>
      <trkpt lat="44.88931" lon="6.8136">
        <ele>2072</ele>
        <time>2014-07-31T15:16:51.220Z</time>
      </trkpt>
      <trkpt lat="44.88929" lon="6.81357">
        <ele>2072</ele>
        <time>2014-07-31T15:16:53.380Z</time>
      </trkpt>
      <trkpt lat="44.88926" lon="6.81354">
        <ele>2073.2</ele>
        <time>2014-07-31T15:16:55.160Z</time>
      </trkpt>
      <trkpt lat="44.88925" lon="6.81352">
        <ele>2074</ele>
        <time>2014-07-31T15:16:56.260Z</time>
      </trkpt>
      <trkpt lat="44.88923" lon="6.81348">
        <ele>2074</ele>
        <time>2014-07-31T15:16:58.160Z</time>
      </trkpt>
      <trkpt lat="44.88922" lon="6.81346">
        <ele>2074</ele>
        <time>2014-07-31T15:16:59.260Z</time>
      </trkpt>
      <trkpt lat="44.8892" lon="6.81342">
        <ele>2074</ele>
        <time>2014-07-31T15:17:01.260Z</time>
      </trkpt>
      <trkpt lat="44.88918" lon="6.81339">
        <ele>2074</ele>
        <time>2014-07-31T15:17:03.260Z</time>
      </trkpt>
      <trkpt lat="44.88917" lon="6.81335">
        <ele>2074.7</ele>
        <time>2014-07-31T15:17:05.250Z</time>
      </trkpt>
      <trkpt lat="44.88917" lon="6.8133">
        <ele>2075</ele>
        <time>2014-07-31T15:17:07.130Z</time>
      </trkpt>
      <trkpt lat="44.88917" lon="6.81328">
        <ele>2075</ele>
        <time>2014-07-31T15:17:08.260Z</time>
      </trkpt>
      <trkpt lat="44.88917" lon="6.81326">
        <ele>2075</ele>
        <time>2014-07-31T15:17:09.360Z</time>
      </trkpt>
      <trkpt lat="44.88917" lon="6.81323">
        <ele>2075</ele>
        <time>2014-07-31T15:17:11.260Z</time>
      </trkpt>
      <trkpt lat="44.88916" lon="6.81322">
        <ele>2075</ele>
        <time>2014-07-31T15:17:12.360Z</time>
      </trkpt>
      <trkpt lat="44.88915" lon="6.81319">
        <ele>2075</ele>
        <time>2014-07-31T15:17:14.260Z</time>
      </trkpt>
      <trkpt lat="44.88914" lon="6.81316">
        <ele>2076</ele>
        <time>2014-07-31T15:17:16.260Z</time>
      </trkpt>
      <trkpt lat="44.88913" lon="6.81313">
        <ele>2076</ele>
        <time>2014-07-31T15:17:18.160Z</time>
      </trkpt>
      <trkpt lat="44.88912" lon="6.81312">
        <ele>2076</ele>
        <time>2014-07-31T15:17:19.260Z</time>
      </trkpt>
      <trkpt lat="44.8891" lon="6.81308">
        <ele>2076</ele>
        <time>2014-07-31T15:17:21.260Z</time>
      </trkpt>
      <trkpt lat="44.88909" lon="6.81305">
        <ele>2076</ele>
        <time>2014-07-31T15:17:23.260Z</time>
      </trkpt>
      <trkpt lat="44.88908" lon="6.81303">
        <ele>2076.7</ele>
        <time>2014-07-31T15:17:25.260Z</time>
      </trkpt>
      <trkpt lat="44.88906" lon="6.81301">
        <ele>2077</ele>
        <time>2014-07-31T15:17:27.260Z</time>
      </trkpt>
      <trkpt lat="44.88904" lon="6.81299">
        <ele>2077</ele>
        <time>2014-07-31T15:17:30.250Z</time>
      </trkpt>
      <trkpt lat="44.88903" lon="6.81297">
        <ele>2077</ele>
        <time>2014-07-31T15:17:32.160Z</time>
      </trkpt>
      <trkpt lat="44.88903" lon="6.81296">
        <ele>2077</ele>
        <time>2014-07-31T15:17:33.260Z</time>
      </trkpt>
      <trkpt lat="44.88901" lon="6.81295">
        <ele>2078.4</ele>
        <time>2014-07-31T15:17:35.260Z</time>
      </trkpt>
      <trkpt lat="44.88898" lon="6.81294">
        <ele>2079</ele>
        <time>2014-07-31T15:17:37.260Z</time>
      </trkpt>
      <trkpt lat="44.88896" lon="6.81291">
        <ele>2079</ele>
        <time>2014-07-31T15:17:39.260Z</time>
      </trkpt>
      <trkpt lat="44.88895" lon="6.8129">
        <ele>2079</ele>
        <time>2014-07-31T15:17:41.230Z</time>
      </trkpt>
      <trkpt lat="44.88893" lon="6.8129">
        <ele>2079</ele>
        <time>2014-07-31T15:17:43.170Z</time>
      </trkpt>
      <trkpt lat="44.88892" lon="6.8129">
        <ele>2079</ele>
        <time>2014-07-31T15:17:44.260Z</time>
      </trkpt>
      <trkpt lat="44.8889" lon="6.8129">
        <ele>2080</ele>
        <time>2014-07-31T15:17:46.260Z</time>
      </trkpt>
      <trkpt lat="44.88889" lon="6.81289">
        <ele>2080</ele>
        <time>2014-07-31T15:17:48.260Z</time>
      </trkpt>
      <trkpt lat="44.88888" lon="6.81289">
        <ele>2080</ele>
        <time>2014-07-31T15:17:50.260Z</time>
      </trkpt>
      <trkpt lat="44.88886" lon="6.81288">
        <ele>2080</ele>
        <time>2014-07-31T15:17:52.160Z</time>
      </trkpt>
      <trkpt lat="44.88885" lon="6.81287">
        <ele>2080</ele>
        <time>2014-07-31T15:17:53.260Z</time>
      </trkpt>
      <trkpt lat="44.88884" lon="6.81285">
        <ele>2081.4</ele>
        <time>2014-07-31T15:17:55.250Z</time>
      </trkpt>
      <trkpt lat="44.88883" lon="6.81283">
        <ele>2082</ele>
        <time>2014-07-31T15:17:57.260Z</time>
      </trkpt>
      <trkpt lat="44.88883" lon="6.81282">
        <ele>2082</ele>
        <time>2014-07-31T15:17:59.160Z</time>
      </trkpt>
      <trkpt lat="44.88883" lon="6.8128">
        <ele>2082</ele>
        <time>2014-07-31T15:18:00.220Z</time>
      </trkpt>
      <trkpt lat="44.88882" lon="6.81278">
        <ele>2082</ele>
        <time>2014-07-31T15:18:02.260Z</time>
      </trkpt>
      <trkpt lat="44.88881" lon="6.81276">
        <ele>2082</ele>
        <time>2014-07-31T15:18:04.260Z</time>
      </trkpt>
      <trkpt lat="44.88881" lon="6.81274">
        <ele>2083</ele>
        <time>2014-07-31T15:18:06.060Z</time>
      </trkpt>
      <trkpt lat="44.8888" lon="6.81273">
        <ele>2083</ele>
        <time>2014-07-31T15:18:08.260Z</time>
      </trkpt>
      <trkpt lat="44.88879" lon="6.81271">
        <ele>2083</ele>
        <time>2014-07-31T15:18:10.260Z</time>
      </trkpt>
      <trkpt lat="44.88878" lon="6.8127">
        <ele>2083</ele>
        <time>2014-07-31T15:18:14.260Z</time>
      </trkpt>
      <trkpt lat="44.88877" lon="6.81268">
        <ele>2085</ele>
        <time>2014-07-31T15:18:16.260Z</time>
      </trkpt>
      <trkpt lat="44.88877" lon="6.81266">
        <ele>2085</ele>
        <time>2014-07-31T15:18:18.050Z</time>
      </trkpt>
      <trkpt lat="44.88877" lon="6.81264">
        <ele>2085</ele>
        <time>2014-07-31T15:18:22.160Z</time>
      </trkpt>
      <trkpt lat="44.88877" lon="6.81261">
        <ele>2085.7</ele>
        <time>2014-07-31T15:18:25.260Z</time>
      </trkpt>
      <trkpt lat="44.88878" lon="6.81258">
        <ele>2086</ele>
        <time>2014-07-31T15:18:27.260Z</time>
      </trkpt>
      <trkpt lat="44.88878" lon="6.81256">
        <ele>2086</ele>
        <time>2014-07-31T15:18:29.060Z</time>
      </trkpt>
      <trkpt lat="44.88878" lon="6.81253">
        <ele>2086</ele>
        <time>2014-07-31T15:18:32.130Z</time>
      </trkpt>
      <trkpt lat="44.88878" lon="6.81251">
        <ele>2086</ele>
        <time>2014-07-31T15:18:34.120Z</time>
      </trkpt>
      <trkpt lat="44.88877" lon="6.81249">
        <ele>2087</ele>
        <time>2014-07-31T15:18:36.160Z</time>
      </trkpt>
      <trkpt lat="44.88877" lon="6.81247">
        <ele>2087</ele>
        <time>2014-07-31T15:18:39.260Z</time>
      </trkpt>
      <trkpt lat="44.88876" lon="6.81244">
        <ele>2087</ele>
        <time>2014-07-31T15:18:41.260Z</time>
      </trkpt>
      <trkpt lat="44.88876" lon="6.81243">
        <ele>2087</ele>
        <time>2014-07-31T15:18:43.060Z</time>
      </trkpt>
      <trkpt lat="44.88876" lon="6.81241">
        <ele>2088.2</ele>
        <time>2014-07-31T15:18:45.160Z</time>
      </trkpt>
      <trkpt lat="44.88876" lon="6.81239">
        <ele>2089</ele>
        <time>2014-07-31T15:18:47.160Z</time>
      </trkpt>
      <trkpt lat="44.88876" lon="6.81236">
        <ele>2089</ele>
        <time>2014-07-31T15:18:48.960Z</time>
      </trkpt>
      <trkpt lat="44.88876" lon="6.81234">
        <ele>2089</ele>
        <time>2014-07-31T15:18:51.220Z</time>
      </trkpt>
      <trkpt lat="44.88876" lon="6.81233">
        <ele>2091.1</ele>
        <time>2014-07-31T15:18:55.260Z</time>
      </trkpt>
      <trkpt lat="44.88874" lon="6.81232">
        <ele>2092</ele>
        <time>2014-07-31T15:18:59.160Z</time>
      </trkpt>
      <trkpt lat="44.88873" lon="6.81229">
        <ele>2092</ele>
        <time>2014-07-31T15:19:01.160Z</time>
      </trkpt>
      <trkpt lat="44.88873" lon="6.81227">
        <ele>2092</ele>
        <time>2014-07-31T15:19:03.160Z</time>
      </trkpt>
      <trkpt lat="44.88871" lon="6.81226">
        <ele>2092</ele>
        <time>2014-07-31T15:19:09.060Z</time>
      </trkpt>
      <trkpt lat="44.88872" lon="6.81224">
        <ele>2092</ele>
        <time>2014-07-31T15:19:11.260Z</time>
      </trkpt>
      <trkpt lat="44.88871" lon="6.81221">
        <ele>2092</ele>
        <time>2014-07-31T15:19:13.060Z</time>
      </trkpt>
      <trkpt lat="44.8887" lon="6.81219">
        <ele>2095</ele>
        <time>2014-07-31T15:19:16.160Z</time>
      </trkpt>
      <trkpt lat="44.8887" lon="6.81217">
        <ele>2095</ele>
        <time>2014-07-31T15:19:18.160Z</time>
      </trkpt>
      <trkpt lat="44.88868" lon="6.81214">
        <ele>2097</ele>
        <time>2014-07-31T15:19:21.160Z</time>
      </trkpt>
      <trkpt lat="44.88867" lon="6.81212">
        <ele>2097</ele>
        <time>2014-07-31T15:19:25.060Z</time>
      </trkpt>
      <trkpt lat="44.88866" lon="6.81211">
        <ele>2097</ele>
        <time>2014-07-31T15:19:26.160Z</time>
      </trkpt>
      <trkpt lat="44.88864" lon="6.81208">
        <ele>2097</ele>
        <time>2014-07-31T15:19:29.060Z</time>
      </trkpt>
      <trkpt lat="44.88864" lon="6.81207">
        <ele>2097</ele>
        <time>2014-07-31T15:19:30.160Z</time>
      </trkpt>
      <trkpt lat="44.88863" lon="6.81206">
        <ele>2097</ele>
        <time>2014-07-31T15:19:32.160Z</time>
      </trkpt>
      <trkpt lat="44.88862" lon="6.81204">
        <ele>2097</ele>
        <time>2014-07-31T15:19:34.120Z</time>
      </trkpt>
      <trkpt lat="44.88861" lon="6.81203">
        <ele>2099</ele>
        <time>2014-07-31T15:19:36.160Z</time>
      </trkpt>
      <trkpt lat="44.8886" lon="6.81201">
        <ele>2099</ele>
        <time>2014-07-31T15:19:38.160Z</time>
      </trkpt>
      <trkpt lat="44.88859" lon="6.81199">
        <ele>2099</ele>
        <time>2014-07-31T15:19:39.960Z</time>
      </trkpt>
      <trkpt lat="44.88858" lon="6.81198">
        <ele>2099</ele>
        <time>2014-07-31T15:19:42.260Z</time>
      </trkpt>
      <trkpt lat="44.88858" lon="6.81195">
        <ele>2099</ele>
        <time>2014-07-31T15:19:44.260Z</time>
      </trkpt>
      <trkpt lat="44.88857" lon="6.81194">
        <ele>2101</ele>
        <time>2014-07-31T15:19:46.060Z</time>
      </trkpt>
      <trkpt lat="44.88856" lon="6.81191">
        <ele>2101</ele>
        <time>2014-07-31T15:19:49.160Z</time>
      </trkpt>
      <trkpt lat="44.88855" lon="6.81189">
        <ele>2101</ele>
        <time>2014-07-31T15:19:51.120Z</time>
      </trkpt>
      <trkpt lat="44.88855" lon="6.81187">
        <ele>2101</ele>
        <time>2014-07-31T15:19:53.160Z</time>
      </trkpt>
      <trkpt lat="44.88854" lon="6.81185">
        <ele>2101</ele>
        <time>2014-07-31T15:19:55.160Z</time>
      </trkpt>
      <trkpt lat="44.88853" lon="6.81184">
        <ele>2101</ele>
        <time>2014-07-31T15:19:57.030Z</time>
      </trkpt>
      <trkpt lat="44.88852" lon="6.81182">
        <ele>2101</ele>
        <time>2014-07-31T15:19:58.150Z</time>
      </trkpt>
      <trkpt lat="44.88852" lon="6.81179">
        <ele>2101</ele>
        <time>2014-07-31T15:20:00.120Z</time>
      </trkpt>
      <trkpt lat="44.88851" lon="6.81176">
        <ele>2101</ele>
        <time>2014-07-31T15:20:02.060Z</time>
      </trkpt>
      <trkpt lat="44.88851" lon="6.81174">
        <ele>2101</ele>
        <time>2014-07-31T15:20:03.160Z</time>
      </trkpt>
      <trkpt lat="44.88851" lon="6.8117">
        <ele>2102.2</ele>
        <time>2014-07-31T15:20:05.160Z</time>
      </trkpt>
      <trkpt lat="44.88851" lon="6.81167">
        <ele>2103</ele>
        <time>2014-07-31T15:20:07.160Z</time>
      </trkpt>
      <trkpt lat="44.8885" lon="6.81164">
        <ele>2103</ele>
        <time>2014-07-31T15:20:09.150Z</time>
      </trkpt>
      <trkpt lat="44.8885" lon="6.81162">
        <ele>2103</ele>
        <time>2014-07-31T15:20:11.160Z</time>
      </trkpt>
      <trkpt lat="44.8885" lon="6.81159">
        <ele>2103</ele>
        <time>2014-07-31T15:20:13.160Z</time>
      </trkpt>
      <trkpt lat="44.8885" lon="6.81157">
        <ele>2103.5</ele>
        <time>2014-07-31T15:20:15.060Z</time>
      </trkpt>
      <trkpt lat="44.8885" lon="6.81155">
        <ele>2104</ele>
        <time>2014-07-31T15:20:16.160Z</time>
      </trkpt>
      <trkpt lat="44.88849" lon="6.81151">
        <ele>2104</ele>
        <time>2014-07-31T15:20:18.160Z</time>
      </trkpt>
      <trkpt lat="44.88849" lon="6.81149">
        <ele>2104</ele>
        <time>2014-07-31T15:20:20.160Z</time>
      </trkpt>
      <trkpt lat="44.88849" lon="6.81145">
        <ele>2104</ele>
        <time>2014-07-31T15:20:22.160Z</time>
      </trkpt>
      <trkpt lat="44.88848" lon="6.81142">
        <ele>2104</ele>
        <time>2014-07-31T15:20:24.160Z</time>
      </trkpt>
      <trkpt lat="44.88848" lon="6.8114">
        <ele>2106</ele>
        <time>2014-07-31T15:20:26.160Z</time>
      </trkpt>
      <trkpt lat="44.88848" lon="6.81137">
        <ele>2106</ele>
        <time>2014-07-31T15:20:28.160Z</time>
      </trkpt>
      <trkpt lat="44.88848" lon="6.81135">
        <ele>2106</ele>
        <time>2014-07-31T15:20:30.160Z</time>
      </trkpt>
      <trkpt lat="44.88848" lon="6.81134">
        <ele>2106</ele>
        <time>2014-07-31T15:20:32.060Z</time>
      </trkpt>
      <trkpt lat="44.88847" lon="6.81132">
        <ele>2106</ele>
        <time>2014-07-31T15:20:33.160Z</time>
      </trkpt>
      <trkpt lat="44.88846" lon="6.81131">
        <ele>2106</ele>
        <time>2014-07-31T15:20:35.160Z</time>
      </trkpt>
      <trkpt lat="44.88846" lon="6.81128">
        <ele>2106</ele>
        <time>2014-07-31T15:20:37.160Z</time>
      </trkpt>
      <trkpt lat="44.88844" lon="6.81126">
        <ele>2106</ele>
        <time>2014-07-31T15:20:39.060Z</time>
      </trkpt>
      <trkpt lat="44.88844" lon="6.81124">
        <ele>2106</ele>
        <time>2014-07-31T15:20:40.160Z</time>
      </trkpt>
      <trkpt lat="44.88843" lon="6.81121">
        <ele>2106</ele>
        <time>2014-07-31T15:20:42.160Z</time>
      </trkpt>
      <trkpt lat="44.88844" lon="6.8112">
        <ele>2108</ele>
        <time>2014-07-31T15:20:47.150Z</time>
      </trkpt>
      <trkpt lat="44.88843" lon="6.81117">
        <ele>2108</ele>
        <time>2014-07-31T15:20:49.260Z</time>
      </trkpt>
      <trkpt lat="44.88842" lon="6.81114">
        <ele>2108</ele>
        <time>2014-07-31T15:20:51.020Z</time>
      </trkpt>
      <trkpt lat="44.88841" lon="6.81111">
        <ele>2108</ele>
        <time>2014-07-31T15:20:53.160Z</time>
      </trkpt>
      <trkpt lat="44.8884" lon="6.81108">
        <ele>2108</ele>
        <time>2014-07-31T15:20:55.160Z</time>
      </trkpt>
      <trkpt lat="44.8884" lon="6.81104">
        <ele>2108</ele>
        <time>2014-07-31T15:20:57.160Z</time>
      </trkpt>
      <trkpt lat="44.8884" lon="6.811">
        <ele>2108</ele>
        <time>2014-07-31T15:20:59.160Z</time>
      </trkpt>
      <trkpt lat="44.88839" lon="6.81096">
        <ele>2108</ele>
        <time>2014-07-31T15:21:01.060Z</time>
      </trkpt>
      <trkpt lat="44.88838" lon="6.81094">
        <ele>2108</ele>
        <time>2014-07-31T15:21:02.160Z</time>
      </trkpt>
      <trkpt lat="44.88836" lon="6.8109">
        <ele>2108</ele>
        <time>2014-07-31T15:21:04.160Z</time>
      </trkpt>
      <trkpt lat="44.88835" lon="6.81087">
        <ele>2108</ele>
        <time>2014-07-31T15:21:06.060Z</time>
      </trkpt>
      <trkpt lat="44.88832" lon="6.81084">
        <ele>2108</ele>
        <time>2014-07-31T15:21:09.160Z</time>
      </trkpt>
      <trkpt lat="44.8883" lon="6.81081">
        <ele>2108</ele>
        <time>2014-07-31T15:21:11.060Z</time>
      </trkpt>
      <trkpt lat="44.88829" lon="6.8108">
        <ele>2108</ele>
        <time>2014-07-31T15:21:12.160Z</time>
      </trkpt>
      <trkpt lat="44.88828" lon="6.81077">
        <ele>2108</ele>
        <time>2014-07-31T15:21:14.060Z</time>
      </trkpt>
      <trkpt lat="44.88827" lon="6.81076">
        <ele>2108.6</ele>
        <time>2014-07-31T15:21:15.160Z</time>
      </trkpt>
      <trkpt lat="44.88826" lon="6.81072">
        <ele>2109</ele>
        <time>2014-07-31T15:21:17.120Z</time>
      </trkpt>
      <trkpt lat="44.88826" lon="6.81069">
        <ele>2109</ele>
        <time>2014-07-31T15:21:19.060Z</time>
      </trkpt>
      <trkpt lat="44.88825" lon="6.81067">
        <ele>2109</ele>
        <time>2014-07-31T15:21:20.160Z</time>
      </trkpt>
      <trkpt lat="44.88824" lon="6.81063">
        <ele>2109</ele>
        <time>2014-07-31T15:21:21.960Z</time>
      </trkpt>
      <trkpt lat="44.88823" lon="6.81061">
        <ele>2109</ele>
        <time>2014-07-31T15:21:23.160Z</time>
      </trkpt>
      <trkpt lat="44.88823" lon="6.8106">
        <ele>2109</ele>
        <time>2014-07-31T15:21:24.260Z</time>
      </trkpt>
      <trkpt lat="44.88822" lon="6.81055">
        <ele>2110</ele>
        <time>2014-07-31T15:21:26.060Z</time>
      </trkpt>
      <trkpt lat="44.88821" lon="6.81053">
        <ele>2110</ele>
        <time>2014-07-31T15:21:27.160Z</time>
      </trkpt>
      <trkpt lat="44.88821" lon="6.81051">
        <ele>2110</ele>
        <time>2014-07-31T15:21:28.260Z</time>
      </trkpt>
      <trkpt lat="44.88819" lon="6.81048">
        <ele>2110</ele>
        <time>2014-07-31T15:21:30.060Z</time>
      </trkpt>
      <trkpt lat="44.88819" lon="6.81045">
        <ele>2110</ele>
        <time>2014-07-31T15:21:31.160Z</time>
      </trkpt>
      <trkpt lat="44.88818" lon="6.81042">
        <ele>2110</ele>
        <time>2014-07-31T15:21:33.160Z</time>
      </trkpt>
      <trkpt lat="44.88818" lon="6.81038">
        <ele>2110.6</ele>
        <time>2014-07-31T15:21:35.160Z</time>
      </trkpt>
      <trkpt lat="44.88818" lon="6.81034">
        <ele>2111</ele>
        <time>2014-07-31T15:21:37.160Z</time>
      </trkpt>
      <trkpt lat="44.88818" lon="6.8103">
        <ele>2111</ele>
        <time>2014-07-31T15:21:39.030Z</time>
      </trkpt>
      <trkpt lat="44.88818" lon="6.81028">
        <ele>2111</ele>
        <time>2014-07-31T15:21:40.160Z</time>
      </trkpt>
      <trkpt lat="44.88818" lon="6.81025">
        <ele>2111</ele>
        <time>2014-07-31T15:21:42.160Z</time>
      </trkpt>
      <trkpt lat="44.88818" lon="6.81022">
        <ele>2111</ele>
        <time>2014-07-31T15:21:44.160Z</time>
      </trkpt>
      <trkpt lat="44.88817" lon="6.81017">
        <ele>2112</ele>
        <time>2014-07-31T15:21:46.150Z</time>
      </trkpt>
      <trkpt lat="44.88816" lon="6.81014">
        <ele>2112</ele>
        <time>2014-07-31T15:21:48.160Z</time>
      </trkpt>
      <trkpt lat="44.88813" lon="6.8101">
        <ele>2112</ele>
        <time>2014-07-31T15:21:50.160Z</time>
      </trkpt>
      <trkpt lat="44.8881" lon="6.81008">
        <ele>2112</ele>
        <time>2014-07-31T15:21:52.060Z</time>
      </trkpt>
      <trkpt lat="44.88809" lon="6.81008">
        <ele>2112</ele>
        <time>2014-07-31T15:21:53.160Z</time>
      </trkpt>
      <trkpt lat="44.88807" lon="6.81005">
        <ele>2113.2</ele>
        <time>2014-07-31T15:21:55.160Z</time>
      </trkpt>
      <trkpt lat="44.88805" lon="6.81001">
        <ele>2114</ele>
        <time>2014-07-31T15:21:57.160Z</time>
      </trkpt>
      <trkpt lat="44.88803" lon="6.80998">
        <ele>2114</ele>
        <time>2014-07-31T15:21:59.150Z</time>
      </trkpt>
      <trkpt lat="44.88801" lon="6.80994">
        <ele>2114</ele>
        <time>2014-07-31T15:22:01.160Z</time>
      </trkpt>
      <trkpt lat="44.88799" lon="6.80992">
        <ele>2114</ele>
        <time>2014-07-31T15:22:03.160Z</time>
      </trkpt>
      <trkpt lat="44.88797" lon="6.80991">
        <ele>2115</ele>
        <time>2014-07-31T15:22:05.060Z</time>
      </trkpt>
      <trkpt lat="44.88796" lon="6.80991">
        <ele>2116</ele>
        <time>2014-07-31T15:22:06.160Z</time>
      </trkpt>
      <trkpt lat="44.88794" lon="6.80989">
        <ele>2116</ele>
        <time>2014-07-31T15:22:08.060Z</time>
      </trkpt>
      <trkpt lat="44.88792" lon="6.80988">
        <ele>2116</ele>
        <time>2014-07-31T15:22:09.160Z</time>
      </trkpt>
      <trkpt lat="44.8879" lon="6.80985">
        <ele>2116</ele>
        <time>2014-07-31T15:22:11.160Z</time>
      </trkpt>
      <trkpt lat="44.88789" lon="6.80982">
        <ele>2116</ele>
        <time>2014-07-31T15:22:13.130Z</time>
      </trkpt>
      <trkpt lat="44.88788" lon="6.80981">
        <ele>2116</ele>
        <time>2014-07-31T15:22:14.260Z</time>
      </trkpt>
      <trkpt lat="44.88786" lon="6.80979">
        <ele>2118</ele>
        <time>2014-07-31T15:22:16.260Z</time>
      </trkpt>
      <trkpt lat="44.88783" lon="6.80977">
        <ele>2118</ele>
        <time>2014-07-31T15:22:18.160Z</time>
      </trkpt>
      <trkpt lat="44.88782" lon="6.80976">
        <ele>2118</ele>
        <time>2014-07-31T15:22:19.260Z</time>
      </trkpt>
      <trkpt lat="44.8878" lon="6.80973">
        <ele>2118</ele>
        <time>2014-07-31T15:22:21.060Z</time>
      </trkpt>
      <trkpt lat="44.88779" lon="6.80971">
        <ele>2118</ele>
        <time>2014-07-31T15:22:22.160Z</time>
      </trkpt>
      <trkpt lat="44.88778" lon="6.80967">
        <ele>2118</ele>
        <time>2014-07-31T15:22:24.160Z</time>
      </trkpt>
      <trkpt lat="44.88776" lon="6.80964">
        <ele>2119</ele>
        <time>2014-07-31T15:22:26.160Z</time>
      </trkpt>
      <trkpt lat="44.88775" lon="6.8096">
        <ele>2119</ele>
        <time>2014-07-31T15:22:28.160Z</time>
      </trkpt>
      <trkpt lat="44.88773" lon="6.80957">
        <ele>2119</ele>
        <time>2014-07-31T15:22:30.230Z</time>
      </trkpt>
      <trkpt lat="44.88771" lon="6.80955">
        <ele>2119</ele>
        <time>2014-07-31T15:22:32.060Z</time>
      </trkpt>
      <trkpt lat="44.88768" lon="6.80951">
        <ele>2119</ele>
        <time>2014-07-31T15:22:34.080Z</time>
      </trkpt>
      <trkpt lat="44.88766" lon="6.80948">
        <ele>2120</ele>
        <time>2014-07-31T15:22:36.160Z</time>
      </trkpt>
      <trkpt lat="44.88764" lon="6.80944">
        <ele>2120</ele>
        <time>2014-07-31T15:22:38.060Z</time>
      </trkpt>
      <trkpt lat="44.88762" lon="6.80942">
        <ele>2120</ele>
        <time>2014-07-31T15:22:39.160Z</time>
      </trkpt>
      <trkpt lat="44.8876" lon="6.80937">
        <ele>2120</ele>
        <time>2014-07-31T15:22:41.160Z</time>
      </trkpt>
      <trkpt lat="44.8876" lon="6.80933">
        <ele>2120</ele>
        <time>2014-07-31T15:22:43.160Z</time>
      </trkpt>
      <trkpt lat="44.88759" lon="6.80928">
        <ele>2120.6</ele>
        <time>2014-07-31T15:22:45.160Z</time>
      </trkpt>
      <trkpt lat="44.88757" lon="6.80923">
        <ele>2121</ele>
        <time>2014-07-31T15:22:47.030Z</time>
      </trkpt>
      <trkpt lat="44.88756" lon="6.80922">
        <ele>2121</ele>
        <time>2014-07-31T15:22:48.160Z</time>
      </trkpt>
      <trkpt lat="44.88755" lon="6.80918">
        <ele>2121</ele>
        <time>2014-07-31T15:22:50.160Z</time>
      </trkpt>
      <trkpt lat="44.88753" lon="6.80915">
        <ele>2121</ele>
        <time>2014-07-31T15:22:52.160Z</time>
      </trkpt>
      <trkpt lat="44.88752" lon="6.8091">
        <ele>2121</ele>
        <time>2014-07-31T15:22:54.160Z</time>
      </trkpt>
      <trkpt lat="44.88751" lon="6.80907">
        <ele>2122</ele>
        <time>2014-07-31T15:22:56.160Z</time>
      </trkpt>
      <trkpt lat="44.8875" lon="6.80903">
        <ele>2122</ele>
        <time>2014-07-31T15:22:58.160Z</time>
      </trkpt>
      <trkpt lat="44.88749" lon="6.80899">
        <ele>2122</ele>
        <time>2014-07-31T15:23:00.020Z</time>
      </trkpt>
      <trkpt lat="44.88749" lon="6.80897">
        <ele>2122</ele>
        <time>2014-07-31T15:23:01.160Z</time>
      </trkpt>
      <trkpt lat="44.88749" lon="6.80893">
        <ele>2122</ele>
        <time>2014-07-31T15:23:03.160Z</time>
      </trkpt>
      <trkpt lat="44.8875" lon="6.80888">
        <ele>2122.6</ele>
        <time>2014-07-31T15:23:05.160Z</time>
      </trkpt>
      <trkpt lat="44.8875" lon="6.80885">
        <ele>2123</ele>
        <time>2014-07-31T15:23:06.260Z</time>
      </trkpt>
      <trkpt lat="44.88751" lon="6.80881">
        <ele>2123</ele>
        <time>2014-07-31T15:23:08.160Z</time>
      </trkpt>
      <trkpt lat="44.88752" lon="6.80877">
        <ele>2123</ele>
        <time>2014-07-31T15:23:10.160Z</time>
      </trkpt>
      <trkpt lat="44.88752" lon="6.80872">
        <ele>2123</ele>
        <time>2014-07-31T15:23:12.060Z</time>
      </trkpt>
      <trkpt lat="44.88752" lon="6.8087">
        <ele>2123</ele>
        <time>2014-07-31T15:23:13.160Z</time>
      </trkpt>
      <trkpt lat="44.88751" lon="6.80866">
        <ele>2123</ele>
        <time>2014-07-31T15:23:15.160Z</time>
      </trkpt>
      <trkpt lat="44.8875" lon="6.80863">
        <ele>2123</ele>
        <time>2014-07-31T15:23:16.960Z</time>
      </trkpt>
      <trkpt lat="44.88749" lon="6.80861">
        <ele>2123</ele>
        <time>2014-07-31T15:23:18.160Z</time>
      </trkpt>
      <trkpt lat="44.88747" lon="6.80857">
        <ele>2123</ele>
        <time>2014-07-31T15:23:20.160Z</time>
      </trkpt>
      <trkpt lat="44.88746" lon="6.80855">
        <ele>2123</ele>
        <time>2014-07-31T15:23:21.230Z</time>
      </trkpt>
      <trkpt lat="44.88744" lon="6.80852">
        <ele>2123</ele>
        <time>2014-07-31T15:23:23.060Z</time>
      </trkpt>
      <trkpt lat="44.88744" lon="6.80851">
        <ele>2123</ele>
        <time>2014-07-31T15:23:24.160Z</time>
      </trkpt>
      <trkpt lat="44.88743" lon="6.80847">
        <ele>2125</ele>
        <time>2014-07-31T15:23:26.160Z</time>
      </trkpt>
      <trkpt lat="44.88743" lon="6.80844">
        <ele>2125</ele>
        <time>2014-07-31T15:23:28.160Z</time>
      </trkpt>
      <trkpt lat="44.88743" lon="6.80841">
        <ele>2125</ele>
        <time>2014-07-31T15:23:30.160Z</time>
      </trkpt>
      <trkpt lat="44.88744" lon="6.80838">
        <ele>2125</ele>
        <time>2014-07-31T15:23:32.160Z</time>
      </trkpt>
      <trkpt lat="44.88744" lon="6.80834">
        <ele>2125</ele>
        <time>2014-07-31T15:23:34.120Z</time>
      </trkpt>
      <trkpt lat="44.88744" lon="6.8083">
        <ele>2127</ele>
        <time>2014-07-31T15:23:36.160Z</time>
      </trkpt>
      <trkpt lat="44.88744" lon="6.80826">
        <ele>2127</ele>
        <time>2014-07-31T15:23:38.020Z</time>
      </trkpt>
      <trkpt lat="44.88744" lon="6.80823">
        <ele>2127</ele>
        <time>2014-07-31T15:23:39.160Z</time>
      </trkpt>
      <trkpt lat="44.88744" lon="6.8082">
        <ele>2127</ele>
        <time>2014-07-31T15:23:41.060Z</time>
      </trkpt>
      <trkpt lat="44.88744" lon="6.80818">
        <ele>2127</ele>
        <time>2014-07-31T15:23:42.160Z</time>
      </trkpt>
      <trkpt lat="44.88745" lon="6.80814">
        <ele>2127</ele>
        <time>2014-07-31T15:23:44.160Z</time>
      </trkpt>
      <trkpt lat="44.88745" lon="6.8081">
        <ele>2129</ele>
        <time>2014-07-31T15:23:46.160Z</time>
      </trkpt>
      <trkpt lat="44.88744" lon="6.80805">
        <ele>2129</ele>
        <time>2014-07-31T15:23:48.160Z</time>
      </trkpt>
      <trkpt lat="44.88744" lon="6.80802">
        <ele>2129</ele>
        <time>2014-07-31T15:23:50.160Z</time>
      </trkpt>
      <trkpt lat="44.88743" lon="6.80798">
        <ele>2129</ele>
        <time>2014-07-31T15:23:52.160Z</time>
      </trkpt>
      <trkpt lat="44.88743" lon="6.80794">
        <ele>2129</ele>
        <time>2014-07-31T15:23:54.160Z</time>
      </trkpt>
      <trkpt lat="44.88742" lon="6.8079">
        <ele>2132</ele>
        <time>2014-07-31T15:23:56.160Z</time>
      </trkpt>
      <trkpt lat="44.88743" lon="6.80786">
        <ele>2132</ele>
        <time>2014-07-31T15:23:58.050Z</time>
      </trkpt>
      <trkpt lat="44.88743" lon="6.80784">
        <ele>2132</ele>
        <time>2014-07-31T15:23:59.160Z</time>
      </trkpt>
      <trkpt lat="44.88742" lon="6.80781">
        <ele>2134</ele>
        <time>2014-07-31T15:24:01.260Z</time>
      </trkpt>
      <trkpt lat="44.8874" lon="6.80777">
        <ele>2134</ele>
        <time>2014-07-31T15:24:03.060Z</time>
      </trkpt>
      <trkpt lat="44.88739" lon="6.80776">
        <ele>2134</ele>
        <time>2014-07-31T15:24:04.160Z</time>
      </trkpt>
      <trkpt lat="44.88738" lon="6.80773">
        <ele>2135</ele>
        <time>2014-07-31T15:24:06.160Z</time>
      </trkpt>
      <trkpt lat="44.88737" lon="6.80769">
        <ele>2135</ele>
        <time>2014-07-31T15:24:08.280Z</time>
      </trkpt>
      <trkpt lat="44.88735" lon="6.80766">
        <ele>2135</ele>
        <time>2014-07-31T15:24:10.060Z</time>
      </trkpt>
      <trkpt lat="44.88735" lon="6.80765">
        <ele>2135</ele>
        <time>2014-07-31T15:24:11.160Z</time>
      </trkpt>
      <trkpt lat="44.88733" lon="6.80762">
        <ele>2135</ele>
        <time>2014-07-31T15:24:13.060Z</time>
      </trkpt>
      <trkpt lat="44.88733" lon="6.80759">
        <ele>2136</ele>
        <time>2014-07-31T15:24:16.160Z</time>
      </trkpt>
      <trkpt lat="44.88732" lon="6.80757">
        <ele>2136</ele>
        <time>2014-07-31T15:24:18.060Z</time>
      </trkpt>
      <trkpt lat="44.88732" lon="6.80755">
        <ele>2136</ele>
        <time>2014-07-31T15:24:19.200Z</time>
      </trkpt>
      <trkpt lat="44.88731" lon="6.80752">
        <ele>2136</ele>
        <time>2014-07-31T15:24:21.160Z</time>
      </trkpt>
      <trkpt lat="44.8873" lon="6.80749">
        <ele>2136</ele>
        <time>2014-07-31T15:24:23.160Z</time>
      </trkpt>
      <trkpt lat="44.88729" lon="6.80745">
        <ele>2137.2</ele>
        <time>2014-07-31T15:24:25.160Z</time>
      </trkpt>
      <trkpt lat="44.88729" lon="6.80741">
        <ele>2138</ele>
        <time>2014-07-31T15:24:27.060Z</time>
      </trkpt>
      <trkpt lat="44.88729" lon="6.8074">
        <ele>2138</ele>
        <time>2014-07-31T15:24:28.160Z</time>
      </trkpt>
      <trkpt lat="44.88728" lon="6.80736">
        <ele>2138</ele>
        <time>2014-07-31T15:24:30.160Z</time>
      </trkpt>
      <trkpt lat="44.88727" lon="6.80733">
        <ele>2138</ele>
        <time>2014-07-31T15:24:32.160Z</time>
      </trkpt>
      <trkpt lat="44.88726" lon="6.80729">
        <ele>2138</ele>
        <time>2014-07-31T15:24:34.020Z</time>
      </trkpt>
      <trkpt lat="44.88725" lon="6.80727">
        <ele>2139.8</ele>
        <time>2014-07-31T15:24:35.160Z</time>
      </trkpt>
      <trkpt lat="44.88723" lon="6.80724">
        <ele>2141</ele>
        <time>2014-07-31T15:24:37.160Z</time>
      </trkpt>
      <trkpt lat="44.88724" lon="6.8072">
        <ele>2141</ele>
        <time>2014-07-31T15:24:39.060Z</time>
      </trkpt>
      <trkpt lat="44.88723" lon="6.80718">
        <ele>2141.6</ele>
        <time>2014-07-31T15:24:40.160Z</time>
      </trkpt>
      <trkpt lat="44.88722" lon="6.80715">
        <ele>2142</ele>
        <time>2014-07-31T15:24:42.160Z</time>
      </trkpt>
      <trkpt lat="44.88722" lon="6.80712">
        <ele>2142</ele>
        <time>2014-07-31T15:24:44.060Z</time>
      </trkpt>
      <trkpt lat="44.88722" lon="6.8071">
        <ele>2142</ele>
        <time>2014-07-31T15:24:45.150Z</time>
      </trkpt>
      <trkpt lat="44.88721" lon="6.80705">
        <ele>2142</ele>
        <time>2014-07-31T15:24:47.260Z</time>
      </trkpt>
      <trkpt lat="44.88721" lon="6.80702">
        <ele>2142</ele>
        <time>2014-07-31T15:24:49.060Z</time>
      </trkpt>
      <trkpt lat="44.88721" lon="6.807">
        <ele>2142</ele>
        <time>2014-07-31T15:24:50.160Z</time>
      </trkpt>
      <trkpt lat="44.88721" lon="6.80698">
        <ele>2142</ele>
        <time>2014-07-31T15:24:52.060Z</time>
      </trkpt>
      <trkpt lat="44.88721" lon="6.80695">
        <ele>2142</ele>
        <time>2014-07-31T15:24:53.280Z</time>
      </trkpt>
      <trkpt lat="44.88722" lon="6.80689">
        <ele>2142</ele>
        <time>2014-07-31T15:24:55.160Z</time>
      </trkpt>
      <trkpt lat="44.88723" lon="6.80687">
        <ele>2142</ele>
        <time>2014-07-31T15:24:57.160Z</time>
      </trkpt>
      <trkpt lat="44.88721" lon="6.80687">
        <ele>2142</ele>
        <time>2014-07-31T15:24:59.160Z</time>
      </trkpt>
      <trkpt lat="44.8872" lon="6.80685">
        <ele>2142</ele>
        <time>2014-07-31T15:25:01.160Z</time>
      </trkpt>
      <trkpt lat="44.88718" lon="6.80685">
        <ele>2142</ele>
        <time>2014-07-31T15:25:03.230Z</time>
      </trkpt>
      <trkpt lat="44.88718" lon="6.80682">
        <ele>2142</ele>
        <time>2014-07-31T15:25:07.160Z</time>
      </trkpt>
      <trkpt lat="44.88718" lon="6.80681">
        <ele>2142</ele>
        <time>2014-07-31T15:25:09.060Z</time>
      </trkpt>
      <trkpt lat="44.88717" lon="6.80677">
        <ele>2142</ele>
        <time>2014-07-31T15:25:12.160Z</time>
      </trkpt>
      <trkpt lat="44.88717" lon="6.80675">
        <ele>2142</ele>
        <time>2014-07-31T15:25:14.060Z</time>
      </trkpt>
      <trkpt lat="44.88716" lon="6.80674">
        <ele>2143.2</ele>
        <time>2014-07-31T15:25:15.160Z</time>
      </trkpt>
      <trkpt lat="44.88716" lon="6.80671">
        <ele>2144</ele>
        <time>2014-07-31T15:25:16.960Z</time>
      </trkpt>
      <trkpt lat="44.88716" lon="6.8067">
        <ele>2144</ele>
        <time>2014-07-31T15:25:19.160Z</time>
      </trkpt>
      <trkpt lat="44.88716" lon="6.80667">
        <ele>2144</ele>
        <time>2014-07-31T15:25:21.160Z</time>
      </trkpt>
      <trkpt lat="44.88716" lon="6.80664">
        <ele>2144</ele>
        <time>2014-07-31T15:25:23.060Z</time>
      </trkpt>
      <trkpt lat="44.88715" lon="6.80663">
        <ele>2144</ele>
        <time>2014-07-31T15:25:24.160Z</time>
      </trkpt>
      <trkpt lat="44.88715" lon="6.80661">
        <ele>2145</ele>
        <time>2014-07-31T15:25:26.160Z</time>
      </trkpt>
      <trkpt lat="44.88716" lon="6.80661">
        <ele>2145</ele>
        <time>2014-07-31T15:25:28.160Z</time>
      </trkpt>
      <trkpt lat="44.88715" lon="6.80659">
        <ele>2145</ele>
        <time>2014-07-31T15:25:30.160Z</time>
      </trkpt>
      <trkpt lat="44.88714" lon="6.80655">
        <ele>2145</ele>
        <time>2014-07-31T15:25:32.060Z</time>
      </trkpt>
      <trkpt lat="44.88713" lon="6.80653">
        <ele>2145</ele>
        <time>2014-07-31T15:25:33.160Z</time>
      </trkpt>
      <trkpt lat="44.88711" lon="6.80649">
        <ele>2146</ele>
        <time>2014-07-31T15:25:35.060Z</time>
      </trkpt>
      <trkpt lat="44.88711" lon="6.80647">
        <ele>2147</ele>
        <time>2014-07-31T15:25:36.160Z</time>
      </trkpt>
      <trkpt lat="44.8871" lon="6.80644">
        <ele>2147</ele>
        <time>2014-07-31T15:25:37.220Z</time>
      </trkpt>
      <trkpt lat="44.8871" lon="6.80639">
        <ele>2147</ele>
        <time>2014-07-31T15:25:39.160Z</time>
      </trkpt>
      <trkpt lat="44.88711" lon="6.80634">
        <ele>2147</ele>
        <time>2014-07-31T15:25:41.160Z</time>
      </trkpt>
      <trkpt lat="44.88712" lon="6.80629">
        <ele>2147</ele>
        <time>2014-07-31T15:25:43.160Z</time>
      </trkpt>
      <trkpt lat="44.88712" lon="6.80623">
        <ele>2147</ele>
        <time>2014-07-31T15:25:45.160Z</time>
      </trkpt>
      <trkpt lat="44.88713" lon="6.80617">
        <ele>2147</ele>
        <time>2014-07-31T15:25:47.160Z</time>
      </trkpt>
      <trkpt lat="44.88713" lon="6.80612">
        <ele>2147</ele>
        <time>2014-07-31T15:25:49.160Z</time>
      </trkpt>
      <trkpt lat="44.88713" lon="6.80606">
        <ele>2147</ele>
        <time>2014-07-31T15:25:51.120Z</time>
      </trkpt>
      <trkpt lat="44.88712" lon="6.80601">
        <ele>2147</ele>
        <time>2014-07-31T15:25:53.160Z</time>
      </trkpt>
      <trkpt lat="44.88711" lon="6.80594">
        <ele>2147</ele>
        <time>2014-07-31T15:25:55.160Z</time>
      </trkpt>
      <trkpt lat="44.8871" lon="6.80586">
        <ele>2147</ele>
        <time>2014-07-31T15:25:57.140Z</time>
      </trkpt>
      <trkpt lat="44.8871" lon="6.8058">
        <ele>2147</ele>
        <time>2014-07-31T15:25:59.160Z</time>
      </trkpt>
      <trkpt lat="44.88709" lon="6.80573">
        <ele>2147</ele>
        <time>2014-07-31T15:26:01.160Z</time>
      </trkpt>
      <trkpt lat="44.88707" lon="6.80565">
        <ele>2147</ele>
        <time>2014-07-31T15:26:03.160Z</time>
      </trkpt>
      <trkpt lat="44.88707" lon="6.80558">
        <ele>2147</ele>
        <time>2014-07-31T15:26:05.160Z</time>
      </trkpt>
      <trkpt lat="44.88706" lon="6.80552">
        <ele>2147</ele>
        <time>2014-07-31T15:26:07.150Z</time>
      </trkpt>
      <trkpt lat="44.88706" lon="6.80547">
        <ele>2147</ele>
        <time>2014-07-31T15:26:09.160Z</time>
      </trkpt>
      <trkpt lat="44.88705" lon="6.80541">
        <ele>2147</ele>
        <time>2014-07-31T15:26:10.960Z</time>
      </trkpt>
      <trkpt lat="44.88705" lon="6.80537">
        <ele>2147</ele>
        <time>2014-07-31T15:26:13.160Z</time>
      </trkpt>
      <trkpt lat="44.88705" lon="6.80533">
        <ele>2147.6</ele>
        <time>2014-07-31T15:26:15.180Z</time>
      </trkpt>
      <trkpt lat="44.88705" lon="6.80531">
        <ele>2148</ele>
        <time>2014-07-31T15:26:16.160Z</time>
      </trkpt>
      <trkpt lat="44.88705" lon="6.80527">
        <ele>2148</ele>
        <time>2014-07-31T15:26:18.160Z</time>
      </trkpt>
      <trkpt lat="44.88705" lon="6.80523">
        <ele>2148</ele>
        <time>2014-07-31T15:26:20.160Z</time>
      </trkpt>
      <trkpt lat="44.88706" lon="6.80519">
        <ele>2148</ele>
        <time>2014-07-31T15:26:22.160Z</time>
      </trkpt>
      <trkpt lat="44.88706" lon="6.80514">
        <ele>2148</ele>
        <time>2014-07-31T15:26:24.160Z</time>
      </trkpt>
      <trkpt lat="44.88706" lon="6.8051">
        <ele>2150</ele>
        <time>2014-07-31T15:26:26.060Z</time>
      </trkpt>
      <trkpt lat="44.88707" lon="6.80508">
        <ele>2150</ele>
        <time>2014-07-31T15:26:27.160Z</time>
      </trkpt>
      <trkpt lat="44.88706" lon="6.80505">
        <ele>2150</ele>
        <time>2014-07-31T15:26:28.120Z</time>
      </trkpt>
      <trkpt lat="44.88705" lon="6.805">
        <ele>2150</ele>
        <time>2014-07-31T15:26:30.060Z</time>
      </trkpt>
      <trkpt lat="44.88704" lon="6.80498">
        <ele>2150</ele>
        <time>2014-07-31T15:26:31.150Z</time>
      </trkpt>
      <trkpt lat="44.88702" lon="6.80494">
        <ele>2150</ele>
        <time>2014-07-31T15:26:33.160Z</time>
      </trkpt>
      <trkpt lat="44.887" lon="6.80491">
        <ele>2150.6</ele>
        <time>2014-07-31T15:26:35.160Z</time>
      </trkpt>
      <trkpt lat="44.88699" lon="6.80489">
        <ele>2151</ele>
        <time>2014-07-31T15:26:37.160Z</time>
      </trkpt>
      <trkpt lat="44.887" lon="6.80487">
        <ele>2151</ele>
        <time>2014-07-31T15:26:43.260Z</time>
      </trkpt>
      <trkpt lat="44.887" lon="6.80486">
        <ele>2151.5</ele>
        <time>2014-07-31T15:26:45.020Z</time>
      </trkpt>
      <trkpt lat="44.887" lon="6.80483">
        <ele>2152</ele>
        <time>2014-07-31T15:26:48.160Z</time>
      </trkpt>
      <trkpt lat="44.88701" lon="6.80481">
        <ele>2152</ele>
        <time>2014-07-31T15:26:50.160Z</time>
      </trkpt>
      <trkpt lat="44.88702" lon="6.8048">
        <ele>2152</ele>
        <time>2014-07-31T15:26:52.160Z</time>
      </trkpt>
      <trkpt lat="44.88702" lon="6.80478">
        <ele>2152</ele>
        <time>2014-07-31T15:26:54.160Z</time>
      </trkpt>
      <trkpt lat="44.88703" lon="6.80476">
        <ele>2154</ele>
        <time>2014-07-31T15:26:56.160Z</time>
      </trkpt>
      <trkpt lat="44.88704" lon="6.80474">
        <ele>2154</ele>
        <time>2014-07-31T15:27:00.120Z</time>
      </trkpt>
      <trkpt lat="44.88704" lon="6.80473">
        <ele>2154</ele>
        <time>2014-07-31T15:27:01.960Z</time>
      </trkpt>
      <trkpt lat="44.88703" lon="6.80471">
        <ele>2154.6</ele>
        <time>2014-07-31T15:27:05.160Z</time>
      </trkpt>
      <trkpt lat="44.88703" lon="6.80469">
        <ele>2155</ele>
        <time>2014-07-31T15:27:07.160Z</time>
      </trkpt>
      <trkpt lat="44.88702" lon="6.80465">
        <ele>2155</ele>
        <time>2014-07-31T15:27:11.160Z</time>
      </trkpt>
      <trkpt lat="44.88702" lon="6.80462">
        <ele>2155</ele>
        <time>2014-07-31T15:27:13.160Z</time>
      </trkpt>
      <trkpt lat="44.88701" lon="6.8046">
        <ele>2155.6</ele>
        <time>2014-07-31T15:27:15.160Z</time>
      </trkpt>
      <trkpt lat="44.887" lon="6.80458">
        <ele>2156</ele>
        <time>2014-07-31T15:27:17.020Z</time>
      </trkpt>
      <trkpt lat="44.88698" lon="6.80457">
        <ele>2156</ele>
        <time>2014-07-31T15:27:19.220Z</time>
      </trkpt>
      <trkpt lat="44.88696" lon="6.80455">
        <ele>2156</ele>
        <time>2014-07-31T15:27:21.050Z</time>
      </trkpt>
      <trkpt lat="44.88694" lon="6.80454">
        <ele>2156</ele>
        <time>2014-07-31T15:27:24.160Z</time>
      </trkpt>
      <trkpt lat="44.88692" lon="6.80451">
        <ele>2156</ele>
        <time>2014-07-31T15:27:26.060Z</time>
      </trkpt>
      <trkpt lat="44.88691" lon="6.80449">
        <ele>2156</ele>
        <time>2014-07-31T15:27:29.160Z</time>
      </trkpt>
      <trkpt lat="44.88688" lon="6.80446">
        <ele>2156</ele>
        <time>2014-07-31T15:27:31.060Z</time>
      </trkpt>
      <trkpt lat="44.88686" lon="6.80445">
        <ele>2156</ele>
        <time>2014-07-31T15:27:32.160Z</time>
      </trkpt>
      <trkpt lat="44.88681" lon="6.80443">
        <ele>2156</ele>
        <time>2014-07-31T15:27:34.160Z</time>
      </trkpt>
      <trkpt lat="44.88678" lon="6.80439">
        <ele>2154</ele>
        <time>2014-07-31T15:27:36.020Z</time>
      </trkpt>
      <trkpt lat="44.88677" lon="6.80437">
        <ele>2154</ele>
        <time>2014-07-31T15:27:37.160Z</time>
      </trkpt>
      <trkpt lat="44.88674" lon="6.80434">
        <ele>2154</ele>
        <time>2014-07-31T15:27:39.060Z</time>
      </trkpt>
      <trkpt lat="44.88672" lon="6.80431">
        <ele>2154</ele>
        <time>2014-07-31T15:27:40.160Z</time>
      </trkpt>
      <trkpt lat="44.8867" lon="6.80426">
        <ele>2154</ele>
        <time>2014-07-31T15:27:42.160Z</time>
      </trkpt>
      <trkpt lat="44.88667" lon="6.80421">
        <ele>2154</ele>
        <time>2014-07-31T15:27:44.060Z</time>
      </trkpt>
      <trkpt lat="44.88665" lon="6.80419">
        <ele>2154.6</ele>
        <time>2014-07-31T15:27:45.160Z</time>
      </trkpt>
      <trkpt lat="44.88662" lon="6.80415">
        <ele>2155</ele>
        <time>2014-07-31T15:27:47.160Z</time>
      </trkpt>
      <trkpt lat="44.88659" lon="6.80411">
        <ele>2155</ele>
        <time>2014-07-31T15:27:49.160Z</time>
      </trkpt>
      <trkpt lat="44.88656" lon="6.80407">
        <ele>2155</ele>
        <time>2014-07-31T15:27:51.020Z</time>
      </trkpt>
      <trkpt lat="44.88655" lon="6.80404">
        <ele>2155</ele>
        <time>2014-07-31T15:27:52.160Z</time>
      </trkpt>
      <trkpt lat="44.88651" lon="6.80399">
        <ele>2155</ele>
        <time>2014-07-31T15:27:54.060Z</time>
      </trkpt>
      <trkpt lat="44.88649" lon="6.80395">
        <ele>2155</ele>
        <time>2014-07-31T15:27:55.160Z</time>
      </trkpt>
      <trkpt lat="44.88647" lon="6.80389">
        <ele>2155</ele>
        <time>2014-07-31T15:27:57.160Z</time>
      </trkpt>
      <trkpt lat="44.88647" lon="6.80383">
        <ele>2155</ele>
        <time>2014-07-31T15:27:59.160Z</time>
      </trkpt>
      <trkpt lat="44.88647" lon="6.80379">
        <ele>2155</ele>
        <time>2014-07-31T15:28:01.060Z</time>
      </trkpt>
      <trkpt lat="44.88647" lon="6.80376">
        <ele>2155</ele>
        <time>2014-07-31T15:28:02.160Z</time>
      </trkpt>
      <trkpt lat="44.88647" lon="6.80369">
        <ele>2155</ele>
        <time>2014-07-31T15:28:04.060Z</time>
      </trkpt>
      <trkpt lat="44.88647" lon="6.80366">
        <ele>2156.2</ele>
        <time>2014-07-31T15:28:05.160Z</time>
      </trkpt>
      <trkpt lat="44.88648" lon="6.8036">
        <ele>2157</ele>
        <time>2014-07-31T15:28:07.160Z</time>
      </trkpt>
      <trkpt lat="44.88647" lon="6.80355">
        <ele>2157</ele>
        <time>2014-07-31T15:28:09.160Z</time>
      </trkpt>
      <trkpt lat="44.88647" lon="6.80352">
        <ele>2157</ele>
        <time>2014-07-31T15:28:10.220Z</time>
      </trkpt>
      <trkpt lat="44.88647" lon="6.80346">
        <ele>2157</ele>
        <time>2014-07-31T15:28:12.060Z</time>
      </trkpt>
      <trkpt lat="44.88646" lon="6.80343">
        <ele>2157</ele>
        <time>2014-07-31T15:28:13.160Z</time>
      </trkpt>
      <trkpt lat="44.88646" lon="6.80337">
        <ele>2157.6</ele>
        <time>2014-07-31T15:28:15.160Z</time>
      </trkpt>
      <trkpt lat="44.88646" lon="6.80331">
        <ele>2158</ele>
        <time>2014-07-31T15:28:17.020Z</time>
      </trkpt>
      <trkpt lat="44.88646" lon="6.80329">
        <ele>2158</ele>
        <time>2014-07-31T15:28:18.160Z</time>
      </trkpt>
      <trkpt lat="44.88647" lon="6.80323">
        <ele>2158</ele>
        <time>2014-07-31T15:28:20.160Z</time>
      </trkpt>
      <trkpt lat="44.88648" lon="6.80318">
        <ele>2158</ele>
        <time>2014-07-31T15:28:22.160Z</time>
      </trkpt>
      <trkpt lat="44.8865" lon="6.80313">
        <ele>2158</ele>
        <time>2014-07-31T15:28:24.260Z</time>
      </trkpt>
      <trkpt lat="44.8865" lon="6.80308">
        <ele>2160</ele>
        <time>2014-07-31T15:28:26.060Z</time>
      </trkpt>
      <trkpt lat="44.88649" lon="6.80306">
        <ele>2160</ele>
        <time>2014-07-31T15:28:27.120Z</time>
      </trkpt>
      <trkpt lat="44.88649" lon="6.80301">
        <ele>2160</ele>
        <time>2014-07-31T15:28:29.280Z</time>
      </trkpt>
      <trkpt lat="44.88649" lon="6.80296">
        <ele>2160</ele>
        <time>2014-07-31T15:28:31.160Z</time>
      </trkpt>
      <trkpt lat="44.88649" lon="6.80291">
        <ele>2160</ele>
        <time>2014-07-31T15:28:33.060Z</time>
      </trkpt>
      <trkpt lat="44.8865" lon="6.80288">
        <ele>2160</ele>
        <time>2014-07-31T15:28:34.120Z</time>
      </trkpt>
      <trkpt lat="44.88649" lon="6.80284">
        <ele>2161</ele>
        <time>2014-07-31T15:28:36.160Z</time>
      </trkpt>
      <trkpt lat="44.88648" lon="6.8028">
        <ele>2161</ele>
        <time>2014-07-31T15:28:38.160Z</time>
      </trkpt>
      <trkpt lat="44.88647" lon="6.80275">
        <ele>2161</ele>
        <time>2014-07-31T15:28:40.160Z</time>
      </trkpt>
      <trkpt lat="44.88646" lon="6.8027">
        <ele>2161</ele>
        <time>2014-07-31T15:28:42.160Z</time>
      </trkpt>
      <trkpt lat="44.88646" lon="6.80265">
        <ele>2161</ele>
        <time>2014-07-31T15:28:43.990Z</time>
      </trkpt>
      <trkpt lat="44.88645" lon="6.80263">
        <ele>2161</ele>
        <time>2014-07-31T15:28:45.160Z</time>
      </trkpt>
      <trkpt lat="44.88643" lon="6.80259">
        <ele>2161</ele>
        <time>2014-07-31T15:28:47.160Z</time>
      </trkpt>
      <trkpt lat="44.88642" lon="6.80256">
        <ele>2161</ele>
        <time>2014-07-31T15:28:49.060Z</time>
      </trkpt>
      <trkpt lat="44.88641" lon="6.80253">
        <ele>2161</ele>
        <time>2014-07-31T15:28:50.160Z</time>
      </trkpt>
      <trkpt lat="44.88637" lon="6.80248">
        <ele>2161</ele>
        <time>2014-07-31T15:28:52.060Z</time>
      </trkpt>
      <trkpt lat="44.88636" lon="6.80245">
        <ele>2161</ele>
        <time>2014-07-31T15:28:54.160Z</time>
      </trkpt>
      <trkpt lat="44.88637" lon="6.80246">
        <ele>2163</ele>
        <time>2014-07-31T15:28:59.260Z</time>
      </trkpt>
      <trkpt lat="44.88638" lon="6.80246">
        <ele>2163</ele>
        <time>2014-07-31T15:29:01.020Z</time>
      </trkpt>
      <trkpt lat="44.88638" lon="6.80245">
        <ele>2163</ele>
        <time>2014-07-31T15:29:03.160Z</time>
      </trkpt>
      <trkpt lat="44.88638" lon="6.80243">
        <ele>2165</ele>
        <time>2014-07-31T15:29:06.060Z</time>
      </trkpt>
      <trkpt lat="44.88638" lon="6.8024">
        <ele>2165</ele>
        <time>2014-07-31T15:29:09.160Z</time>
      </trkpt>
      <trkpt lat="44.88637" lon="6.80239">
        <ele>2165</ele>
        <time>2014-07-31T15:29:11.060Z</time>
      </trkpt>
      <trkpt lat="44.88637" lon="6.80237">
        <ele>2166</ele>
        <time>2014-07-31T15:29:18.020Z</time>
      </trkpt>
      <trkpt lat="44.88638" lon="6.80235">
        <ele>2166</ele>
        <time>2014-07-31T15:29:23.160Z</time>
      </trkpt>
      <trkpt lat="44.88637" lon="6.80234">
        <ele>2168</ele>
        <time>2014-07-31T15:29:27.160Z</time>
      </trkpt>
      <trkpt lat="44.88638" lon="6.80232">
        <ele>2168</ele>
        <time>2014-07-31T15:29:31.160Z</time>
      </trkpt>
      <trkpt lat="44.88637" lon="6.80229">
        <ele>2170</ele>
        <time>2014-07-31T15:29:38.160Z</time>
      </trkpt>
      <trkpt lat="44.88636" lon="6.80226">
        <ele>2170</ele>
        <time>2014-07-31T15:29:40.180Z</time>
      </trkpt>
      <trkpt lat="44.88636" lon="6.80225">
        <ele>2170</ele>
        <time>2014-07-31T15:29:41.160Z</time>
      </trkpt>
      <trkpt lat="44.88635" lon="6.80222">
        <ele>2170</ele>
        <time>2014-07-31T15:29:43.060Z</time>
      </trkpt>
      <trkpt lat="44.88634" lon="6.8022">
        <ele>2170</ele>
        <time>2014-07-31T15:29:44.160Z</time>
      </trkpt>
      <trkpt lat="44.88633" lon="6.80218">
        <ele>2170</ele>
        <time>2014-07-31T15:29:46.160Z</time>
      </trkpt>
      <trkpt lat="44.88631" lon="6.80216">
        <ele>2170</ele>
        <time>2014-07-31T15:29:48.140Z</time>
      </trkpt>
      <trkpt lat="44.8863" lon="6.80215">
        <ele>2170</ele>
        <time>2014-07-31T15:29:51.060Z</time>
      </trkpt>
      <trkpt lat="44.88629" lon="6.80214">
        <ele>2170</ele>
        <time>2014-07-31T15:29:53.160Z</time>
      </trkpt>
      <trkpt lat="44.88628" lon="6.80212">
        <ele>2170.6</ele>
        <time>2014-07-31T15:29:55.160Z</time>
      </trkpt>
      <trkpt lat="44.88626" lon="6.8021">
        <ele>2171</ele>
        <time>2014-07-31T15:29:57.160Z</time>
      </trkpt>
      <trkpt lat="44.88625" lon="6.80208">
        <ele>2171</ele>
        <time>2014-07-31T15:29:59.160Z</time>
      </trkpt>
      <trkpt lat="44.88625" lon="6.80206">
        <ele>2171</ele>
        <time>2014-07-31T15:30:01.160Z</time>
      </trkpt>
      <trkpt lat="44.88624" lon="6.80204">
        <ele>2171</ele>
        <time>2014-07-31T15:30:03.280Z</time>
      </trkpt>
      <trkpt lat="44.88624" lon="6.80202">
        <ele>2172</ele>
        <time>2014-07-31T15:30:05.060Z</time>
      </trkpt>
      <trkpt lat="44.88623" lon="6.802">
        <ele>2173</ele>
        <time>2014-07-31T15:30:06.160Z</time>
      </trkpt>
      <trkpt lat="44.88622" lon="6.80198">
        <ele>2173</ele>
        <time>2014-07-31T15:30:08.060Z</time>
      </trkpt>
      <trkpt lat="44.88622" lon="6.80195">
        <ele>2173</ele>
        <time>2014-07-31T15:30:11.160Z</time>
      </trkpt>
      <trkpt lat="44.88622" lon="6.80193">
        <ele>2173</ele>
        <time>2014-07-31T15:30:13.160Z</time>
      </trkpt>
      <trkpt lat="44.88622" lon="6.8019">
        <ele>2173</ele>
        <time>2014-07-31T15:30:15.180Z</time>
      </trkpt>
      <trkpt lat="44.88623" lon="6.80188">
        <ele>2173</ele>
        <time>2014-07-31T15:30:16.160Z</time>
      </trkpt>
      <trkpt lat="44.88622" lon="6.80185">
        <ele>2173</ele>
        <time>2014-07-31T15:30:18.060Z</time>
      </trkpt>
      <trkpt lat="44.88622" lon="6.80184">
        <ele>2173</ele>
        <time>2014-07-31T15:30:19.160Z</time>
      </trkpt>
      <trkpt lat="44.88622" lon="6.8018">
        <ele>2173</ele>
        <time>2014-07-31T15:30:21.160Z</time>
      </trkpt>
      <trkpt lat="44.88622" lon="6.80178">
        <ele>2173</ele>
        <time>2014-07-31T15:30:23.160Z</time>
      </trkpt>
      <trkpt lat="44.88621" lon="6.80175">
        <ele>2173.6</ele>
        <time>2014-07-31T15:30:25.160Z</time>
      </trkpt>
      <trkpt lat="44.88621" lon="6.80172">
        <ele>2174</ele>
        <time>2014-07-31T15:30:27.180Z</time>
      </trkpt>
      <trkpt lat="44.88622" lon="6.80168">
        <ele>2174</ele>
        <time>2014-07-31T15:30:30.160Z</time>
      </trkpt>
      <trkpt lat="44.88622" lon="6.80165">
        <ele>2174</ele>
        <time>2014-07-31T15:30:32.160Z</time>
      </trkpt>
      <trkpt lat="44.88622" lon="6.80162">
        <ele>2174</ele>
        <time>2014-07-31T15:30:34.120Z</time>
      </trkpt>
      <trkpt lat="44.88622" lon="6.80159">
        <ele>2176</ele>
        <time>2014-07-31T15:30:36.160Z</time>
      </trkpt>
      <trkpt lat="44.88622" lon="6.80156">
        <ele>2176</ele>
        <time>2014-07-31T15:30:38.160Z</time>
      </trkpt>
      <trkpt lat="44.88622" lon="6.80153">
        <ele>2176</ele>
        <time>2014-07-31T15:30:40.160Z</time>
      </trkpt>
      <trkpt lat="44.88623" lon="6.80151">
        <ele>2176</ele>
        <time>2014-07-31T15:30:42.160Z</time>
      </trkpt>
      <trkpt lat="44.88622" lon="6.80149">
        <ele>2176</ele>
        <time>2014-07-31T15:30:44.060Z</time>
      </trkpt>
      <trkpt lat="44.88622" lon="6.80147">
        <ele>2176</ele>
        <time>2014-07-31T15:30:47.140Z</time>
      </trkpt>
      <trkpt lat="44.88621" lon="6.80142">
        <ele>2176</ele>
        <time>2014-07-31T15:30:49.060Z</time>
      </trkpt>
      <trkpt lat="44.88621" lon="6.8014">
        <ele>2176</ele>
        <time>2014-07-31T15:30:50.160Z</time>
      </trkpt>
      <trkpt lat="44.88623" lon="6.80134">
        <ele>2176</ele>
        <time>2014-07-31T15:30:52.160Z</time>
      </trkpt>
      <trkpt lat="44.88625" lon="6.8013">
        <ele>2176</ele>
        <time>2014-07-31T15:30:54.060Z</time>
      </trkpt>
      <trkpt lat="44.88624" lon="6.80128">
        <ele>2176.6</ele>
        <time>2014-07-31T15:30:55.160Z</time>
      </trkpt>
      <trkpt lat="44.88624" lon="6.80124">
        <ele>2177</ele>
        <time>2014-07-31T15:30:57.160Z</time>
      </trkpt>
      <trkpt lat="44.88625" lon="6.8012">
        <ele>2177</ele>
        <time>2014-07-31T15:30:59.140Z</time>
      </trkpt>
      <trkpt lat="44.88625" lon="6.80115">
        <ele>2177</ele>
        <time>2014-07-31T15:31:01.160Z</time>
      </trkpt>
      <trkpt lat="44.88624" lon="6.80112">
        <ele>2177</ele>
        <time>2014-07-31T15:31:03.160Z</time>
      </trkpt>
      <trkpt lat="44.88624" lon="6.80108">
        <ele>2177.6</ele>
        <time>2014-07-31T15:31:05.160Z</time>
      </trkpt>
      <trkpt lat="44.88624" lon="6.80103">
        <ele>2178</ele>
        <time>2014-07-31T15:31:07.160Z</time>
      </trkpt>
      <trkpt lat="44.88623" lon="6.80101">
        <ele>2178</ele>
        <time>2014-07-31T15:31:09.140Z</time>
      </trkpt>
      <trkpt lat="44.8862" lon="6.80098">
        <ele>2178</ele>
        <time>2014-07-31T15:31:11.160Z</time>
      </trkpt>
      <trkpt lat="44.88616" lon="6.80093">
        <ele>2178</ele>
        <time>2014-07-31T15:31:13.160Z</time>
      </trkpt>
      <trkpt lat="44.88615" lon="6.80089">
        <ele>2178</ele>
        <time>2014-07-31T15:31:15.160Z</time>
      </trkpt>
      <trkpt lat="44.88613" lon="6.80083">
        <ele>2178</ele>
        <time>2014-07-31T15:31:17.140Z</time>
      </trkpt>
      <trkpt lat="44.8861" lon="6.80078">
        <ele>2178</ele>
        <time>2014-07-31T15:31:19.160Z</time>
      </trkpt>
      <trkpt lat="44.88606" lon="6.80073">
        <ele>2178</ele>
        <time>2014-07-31T15:31:21.040Z</time>
      </trkpt>
      <trkpt lat="44.88605" lon="6.80071">
        <ele>2178</ele>
        <time>2014-07-31T15:31:22.160Z</time>
      </trkpt>
      <trkpt lat="44.88601" lon="6.80067">
        <ele>2178</ele>
        <time>2014-07-31T15:31:24.060Z</time>
      </trkpt>
      <trkpt lat="44.88599" lon="6.80065">
        <ele>2178.6</ele>
        <time>2014-07-31T15:31:25.160Z</time>
      </trkpt>
      <trkpt lat="44.88596" lon="6.8006">
        <ele>2179</ele>
        <time>2014-07-31T15:31:27.160Z</time>
      </trkpt>
      <trkpt lat="44.88594" lon="6.80055">
        <ele>2179</ele>
        <time>2014-07-31T15:31:29.160Z</time>
      </trkpt>
      <trkpt lat="44.88593" lon="6.80051">
        <ele>2179</ele>
        <time>2014-07-31T15:31:31.160Z</time>
      </trkpt>
      <trkpt lat="44.88591" lon="6.80048">
        <ele>2179</ele>
        <time>2014-07-31T15:31:33.160Z</time>
      </trkpt>
      <trkpt lat="44.88588" lon="6.80044">
        <ele>2179</ele>
        <time>2014-07-31T15:31:35.160Z</time>
      </trkpt>
      <trkpt lat="44.88584" lon="6.80039">
        <ele>2179</ele>
        <time>2014-07-31T15:31:37.160Z</time>
      </trkpt>
      <trkpt lat="44.88579" lon="6.80033">
        <ele>2179</ele>
        <time>2014-07-31T15:31:39.160Z</time>
      </trkpt>
      <trkpt lat="44.88575" lon="6.80028">
        <ele>2179</ele>
        <time>2014-07-31T15:31:41.160Z</time>
      </trkpt>
      <trkpt lat="44.88572" lon="6.80024">
        <ele>2179</ele>
        <time>2014-07-31T15:31:43.160Z</time>
      </trkpt>
      <trkpt lat="44.88568" lon="6.8002">
        <ele>2179</ele>
        <time>2014-07-31T15:31:45.160Z</time>
      </trkpt>
      <trkpt lat="44.88565" lon="6.80016">
        <ele>2179</ele>
        <time>2014-07-31T15:31:47.160Z</time>
      </trkpt>
      <trkpt lat="44.8856" lon="6.80012">
        <ele>2179</ele>
        <time>2014-07-31T15:31:49.160Z</time>
      </trkpt>
      <trkpt lat="44.88554" lon="6.80008">
        <ele>2179</ele>
        <time>2014-07-31T15:31:51.210Z</time>
      </trkpt>
      <trkpt lat="44.8855" lon="6.80006">
        <ele>2179</ele>
        <time>2014-07-31T15:31:53.160Z</time>
      </trkpt>
      <trkpt lat="44.88545" lon="6.80004">
        <ele>2178.4</ele>
        <time>2014-07-31T15:31:55.160Z</time>
      </trkpt>
      <trkpt lat="44.88541" lon="6.80001">
        <ele>2178</ele>
        <time>2014-07-31T15:31:57.160Z</time>
      </trkpt>
      <trkpt lat="44.88538" lon="6.79999">
        <ele>2178</ele>
        <time>2014-07-31T15:31:59.160Z</time>
      </trkpt>
      <trkpt lat="44.88534" lon="6.79994">
        <ele>2178</ele>
        <time>2014-07-31T15:32:01.160Z</time>
      </trkpt>
      <trkpt lat="44.88531" lon="6.7999">
        <ele>2178</ele>
        <time>2014-07-31T15:32:03.160Z</time>
      </trkpt>
      <trkpt lat="44.88529" lon="6.79986">
        <ele>2178</ele>
        <time>2014-07-31T15:32:05.060Z</time>
      </trkpt>
      <trkpt lat="44.88528" lon="6.79984">
        <ele>2178</ele>
        <time>2014-07-31T15:32:06.160Z</time>
      </trkpt>
      <trkpt lat="44.88524" lon="6.79983">
        <ele>2178</ele>
        <time>2014-07-31T15:32:08.020Z</time>
      </trkpt>
      <trkpt lat="44.88522" lon="6.79983">
        <ele>2178</ele>
        <time>2014-07-31T15:32:09.160Z</time>
      </trkpt>
      <trkpt lat="44.88519" lon="6.79985">
        <ele>2178</ele>
        <time>2014-07-31T15:32:11.160Z</time>
      </trkpt>
      <trkpt lat="44.88516" lon="6.79987">
        <ele>2178</ele>
        <time>2014-07-31T15:32:13.060Z</time>
      </trkpt>
      <trkpt lat="44.88514" lon="6.79988">
        <ele>2178</ele>
        <time>2014-07-31T15:32:14.160Z</time>
      </trkpt>
      <trkpt lat="44.88511" lon="6.79988">
        <ele>2179</ele>
        <time>2014-07-31T15:32:16.230Z</time>
      </trkpt>
      <trkpt lat="44.88507" lon="6.79987">
        <ele>2179</ele>
        <time>2014-07-31T15:32:18.160Z</time>
      </trkpt>
      <trkpt lat="44.88505" lon="6.79983">
        <ele>2179</ele>
        <time>2014-07-31T15:32:20.160Z</time>
      </trkpt>
      <trkpt lat="44.88505" lon="6.79979">
        <ele>2179</ele>
        <time>2014-07-31T15:32:22.160Z</time>
      </trkpt>
      <trkpt lat="44.88505" lon="6.79975">
        <ele>2179</ele>
        <time>2014-07-31T15:32:24.160Z</time>
      </trkpt>
      <trkpt lat="44.88504" lon="6.79973">
        <ele>2179</ele>
        <time>2014-07-31T15:32:26.060Z</time>
      </trkpt>
      <trkpt lat="44.88505" lon="6.79976">
        <ele>2179</ele>
        <time>2014-07-31T15:32:31.160Z</time>
      </trkpt>
      <trkpt lat="44.88504" lon="6.79977">
        <ele>2179</ele>
        <time>2014-07-31T15:32:33.160Z</time>
      </trkpt>
      <trkpt lat="44.88503" lon="6.79979">
        <ele>2179</ele>
        <time>2014-07-31T15:32:35.060Z</time>
      </trkpt>
      <trkpt lat="44.88503" lon="6.79982">
        <ele>2179</ele>
        <time>2014-07-31T15:32:40.160Z</time>
      </trkpt>
      <trkpt lat="44.88503" lon="6.79983">
        <ele>2179</ele>
        <time>2014-07-31T15:32:41.960Z</time>
      </trkpt>
      <trkpt lat="44.88503" lon="6.79984">
        <ele>2179</ele>
        <time>2014-07-31T15:32:45.160Z</time>
      </trkpt>
      <trkpt lat="44.88504" lon="6.79984">
        <ele>2179</ele>
        <time>2014-07-31T15:32:47.160Z</time>
      </trkpt>
      <trkpt lat="44.88505" lon="6.79986">
        <ele>2179</ele>
        <time>2014-07-31T15:32:51.120Z</time>
      </trkpt>
      <trkpt lat="44.88504" lon="6.79986">
        <ele>2178.4</ele>
        <time>2014-07-31T15:32:55.160Z</time>
      </trkpt>
      <trkpt lat="44.88505" lon="6.79986">
        <ele>2178</ele>
        <time>2014-07-31T15:33:01.160Z</time>
      </trkpt>
      <trkpt lat="44.88505" lon="6.79984">
        <ele>2179</ele>
        <time>2014-07-31T15:33:12.160Z</time>
      </trkpt>
      <trkpt lat="44.88505" lon="6.79985">
        <ele>2179</ele>
        <time>2014-07-31T15:33:27.160Z</time>
      </trkpt>
      <trkpt lat="44.88505" lon="6.79984">
        <ele>2178</ele>
        <time>2014-07-31T15:33:57.160Z</time>
      </trkpt>
      <trkpt lat="44.88505" lon="6.79984">
        <ele>2178</ele>
        <time>2014-07-31T15:34:00.120Z</time>
      </trkpt>
      <trkpt lat="44.88504" lon="6.79984">
        <ele>2179</ele>
        <time>2014-07-31T15:34:11.160Z</time>
      </trkpt>
      <trkpt lat="44.88505" lon="6.79984">
        <ele>2179</ele>
        <time>2014-07-31T15:34:15.140Z</time>
      </trkpt>
      <trkpt lat="44.88504" lon="6.79983">
        <ele>2179</ele>
        <time>2014-07-31T15:34:21.160Z</time>
      </trkpt>
      <trkpt lat="44.88503" lon="6.79983">
        <ele>2179</ele>
        <time>2014-07-31T15:34:29.140Z</time>
      </trkpt>
      <trkpt lat="44.88504" lon="6.79984">
        <ele>2179</ele>
        <time>2014-07-31T15:34:41.120Z</time>
      </trkpt>
      <trkpt lat="44.88506" lon="6.79985">
        <ele>2178</ele>
        <time>2014-07-31T15:34:57.160Z</time>
      </trkpt>
      <trkpt lat="44.88505" lon="6.79984">
        <ele>2178</ele>
        <time>2014-07-31T15:35:00.020Z</time>
      </trkpt>
      <trkpt lat="44.88505" lon="6.79984">
        <ele>2177</ele>
        <time>2014-07-31T15:35:08.160Z</time>
      </trkpt>
      <trkpt lat="44.88506" lon="6.79983">
        <ele>2179</ele>
        <time>2014-07-31T15:35:41.160Z</time>
      </trkpt>
      <trkpt lat="44.88507" lon="6.79984">
        <ele>2179</ele>
        <time>2014-07-31T15:35:57.160Z</time>
      </trkpt>
      <trkpt lat="44.88508" lon="6.79984">
        <ele>2179</ele>
        <time>2014-07-31T15:36:00.120Z</time>
      </trkpt>
      <trkpt lat="44.88507" lon="6.79984">
        <ele>2178</ele>
        <time>2014-07-31T15:36:10.160Z</time>
      </trkpt>
      <trkpt lat="44.88506" lon="6.79983">
        <ele>2179</ele>
        <time>2014-07-31T15:36:19.160Z</time>
      </trkpt>
      <trkpt lat="44.88505" lon="6.79983">
        <ele>2178</ele>
        <time>2014-07-31T15:36:44.140Z</time>
      </trkpt>
      <trkpt lat="44.88504" lon="6.79983">
        <ele>2179</ele>
        <time>2014-07-31T15:36:50.160Z</time>
      </trkpt>
      <trkpt lat="44.88504" lon="6.79984">
        <ele>2179</ele>
        <time>2014-07-31T15:37:01.160Z</time>
      </trkpt>
      <trkpt lat="44.88505" lon="6.79983">
        <ele>2178.4</ele>
        <time>2014-07-31T15:37:35.160Z</time>
      </trkpt>
      <trkpt lat="44.88505" lon="6.79983">
        <ele>2178</ele>
        <time>2014-07-31T15:38:00.120Z</time>
      </trkpt>
      <trkpt lat="44.88504" lon="6.79983">
        <ele>2178</ele>
        <time>2014-07-31T15:38:17.120Z</time>
      </trkpt>
      <trkpt lat="44.88505" lon="6.79983">
        <ele>2178</ele>
        <time>2014-07-31T15:38:35.160Z</time>
      </trkpt>
      <trkpt lat="44.88506" lon="6.79982">
        <ele>2178.6</ele>
        <time>2014-07-31T15:38:45.160Z</time>
      </trkpt>
      <trkpt lat="44.88506" lon="6.7998">
        <ele>2179</ele>
        <time>2014-07-31T15:38:47.160Z</time>
      </trkpt>
      <trkpt lat="44.88507" lon="6.79979">
        <ele>2179</ele>
        <time>2014-07-31T15:38:49.160Z</time>
      </trkpt>
      <trkpt lat="44.88507" lon="6.79978">
        <ele>2180</ele>
        <time>2014-07-31T15:38:59.180Z</time>
      </trkpt>
      <trkpt lat="44.88507" lon="6.79978">
        <ele>2180</ele>
        <time>2014-07-31T15:39:00.100Z</time>
      </trkpt>
      <trkpt lat="44.88506" lon="6.79977">
        <ele>2180</ele>
        <time>2014-07-31T15:39:02.060Z</time>
      </trkpt>
      <trkpt lat="44.88506" lon="6.79975">
        <ele>2180</ele>
        <time>2014-07-31T15:39:09.160Z</time>
      </trkpt>
      <trkpt lat="44.88505" lon="6.79976">
        <ele>2179</ele>
        <time>2014-07-31T15:39:17.120Z</time>
      </trkpt>
      <trkpt lat="44.88505" lon="6.79978">
        <ele>2179</ele>
        <time>2014-07-31T15:39:21.150Z</time>
      </trkpt>
      <trkpt lat="44.88506" lon="6.79979">
        <ele>2178</ele>
        <time>2014-07-31T15:39:37.160Z</time>
      </trkpt>
      <trkpt lat="44.88507" lon="6.7998">
        <ele>2178</ele>
        <time>2014-07-31T15:39:43.160Z</time>
      </trkpt>
      <trkpt lat="44.88506" lon="6.79979">
        <ele>2178</ele>
        <time>2014-07-31T15:39:53.060Z</time>
      </trkpt>
      <trkpt lat="44.88507" lon="6.7998">
        <ele>2178</ele>
        <time>2014-07-31T15:39:58.160Z</time>
      </trkpt>
      <trkpt lat="44.88508" lon="6.7998">
        <ele>2178</ele>
        <time>2014-07-31T15:40:00.020Z</time>
      </trkpt>
      <trkpt lat="44.88507" lon="6.79978">
        <ele>2179</ele>
        <time>2014-07-31T15:40:07.060Z</time>
      </trkpt>
      <trkpt lat="44.88507" lon="6.79979">
        <ele>2179</ele>
        <time>2014-07-31T15:40:37.160Z</time>
      </trkpt>
      <trkpt lat="44.88507" lon="6.79978">
        <ele>2178.6</ele>
        <time>2014-07-31T15:40:55.120Z</time>
      </trkpt>
      <trkpt lat="44.88507" lon="6.79979">
        <ele>2179</ele>
        <time>2014-07-31T15:41:00.050Z</time>
      </trkpt>
      <trkpt lat="44.88508" lon="6.79979">
        <ele>2179</ele>
        <time>2014-07-31T15:41:34.080Z</time>
      </trkpt>
      <trkpt lat="44.88509" lon="6.7998">
        <ele>2179</ele>
        <time>2014-07-31T15:41:36.160Z</time>
      </trkpt>
      <trkpt lat="44.88508" lon="6.7998">
        <ele>2179.6</ele>
        <time>2014-07-31T15:41:45.160Z</time>
      </trkpt>
      <trkpt lat="44.88508" lon="6.79979">
        <ele>2180</ele>
        <time>2014-07-31T15:41:54.160Z</time>
      </trkpt>
      <trkpt lat="44.88507" lon="6.79978">
        <ele>2180</ele>
        <time>2014-07-31T15:41:59.950Z</time>
      </trkpt>
      <trkpt lat="44.88506" lon="6.79978">
        <ele>2179</ele>
        <time>2014-07-31T15:42:08.160Z</time>
      </trkpt>
      <trkpt lat="44.88507" lon="6.79978">
        <ele>2179</ele>
        <time>2014-07-31T15:42:26.160Z</time>
      </trkpt>
      <trkpt lat="44.88506" lon="6.79978">
        <ele>2179</ele>
        <time>2014-07-31T15:42:32.250Z</time>
      </trkpt>
      <trkpt lat="44.88505" lon="6.79978">
        <ele>2180</ele>
        <time>2014-07-31T15:42:39.160Z</time>
      </trkpt>
      <trkpt lat="44.88507" lon="6.79979">
        <ele>2180</ele>
        <time>2014-07-31T15:42:51.060Z</time>
      </trkpt>
      <trkpt lat="44.88506" lon="6.79978">
        <ele>2180</ele>
        <time>2014-07-31T15:42:59.980Z</time>
      </trkpt>
      <trkpt lat="44.88505" lon="6.79976">
        <ele>2180</ele>
        <time>2014-07-31T15:43:13.140Z</time>
      </trkpt>
      <trkpt lat="44.88505" lon="6.79974">
        <ele>2180</ele>
        <time>2014-07-31T15:43:15.160Z</time>
      </trkpt>
      <trkpt lat="44.88504" lon="6.79975">
        <ele>2180</ele>
        <time>2014-07-31T15:43:54.160Z</time>
      </trkpt>
      <trkpt lat="44.88504" lon="6.79975">
        <ele>2180</ele>
        <time>2014-07-31T15:44:00.120Z</time>
      </trkpt>
      <trkpt lat="44.88505" lon="6.79974">
        <ele>2181</ele>
        <time>2014-07-31T15:44:07.160Z</time>
      </trkpt>
      <trkpt lat="44.88506" lon="6.79975">
        <ele>2181</ele>
        <time>2014-07-31T15:44:13.160Z</time>
      </trkpt>
      <trkpt lat="44.88507" lon="6.79974">
        <ele>2181</ele>
        <time>2014-07-31T15:44:15.160Z</time>
      </trkpt>
      <trkpt lat="44.88508" lon="6.79974">
        <ele>2181</ele>
        <time>2014-07-31T15:44:17.120Z</time>
      </trkpt>
      <trkpt lat="44.8851" lon="6.79974">
        <ele>2181</ele>
        <time>2014-07-31T15:44:19.120Z</time>
      </trkpt>
      <trkpt lat="44.88511" lon="6.79975">
        <ele>2181</ele>
        <time>2014-07-31T15:44:21.160Z</time>
      </trkpt>
      <trkpt lat="44.88513" lon="6.79976">
        <ele>2180</ele>
        <time>2014-07-31T15:44:27.160Z</time>
      </trkpt>
      <trkpt lat="44.88515" lon="6.79976">
        <ele>2180</ele>
        <time>2014-07-31T15:44:33.160Z</time>
      </trkpt>
      <trkpt lat="44.88517" lon="6.79976">
        <ele>2179.4</ele>
        <time>2014-07-31T15:44:35.160Z</time>
      </trkpt>
      <trkpt lat="44.88519" lon="6.79975">
        <ele>2179</ele>
        <time>2014-07-31T15:44:37.160Z</time>
      </trkpt>
      <trkpt lat="44.88522" lon="6.79975">
        <ele>2179</ele>
        <time>2014-07-31T15:44:39.160Z</time>
      </trkpt>
      <trkpt lat="44.88524" lon="6.79975">
        <ele>2179</ele>
        <time>2014-07-31T15:44:41.060Z</time>
      </trkpt>
      <trkpt lat="44.88527" lon="6.79974">
        <ele>2179</ele>
        <time>2014-07-31T15:44:44.160Z</time>
      </trkpt>
      <trkpt lat="44.88529" lon="6.79973">
        <ele>2179</ele>
        <time>2014-07-31T15:44:46.060Z</time>
      </trkpt>
      <trkpt lat="44.8853" lon="6.79972">
        <ele>2179</ele>
        <time>2014-07-31T15:44:47.160Z</time>
      </trkpt>
      <trkpt lat="44.88532" lon="6.79971">
        <ele>2179</ele>
        <time>2014-07-31T15:44:49.160Z</time>
      </trkpt>
      <trkpt lat="44.88533" lon="6.7997">
        <ele>2179</ele>
        <time>2014-07-31T15:44:51.120Z</time>
      </trkpt>
      <trkpt lat="44.88534" lon="6.79968">
        <ele>2179</ele>
        <time>2014-07-31T15:44:53.020Z</time>
      </trkpt>
      <trkpt lat="44.88535" lon="6.79968">
        <ele>2179</ele>
        <time>2014-07-31T15:44:54.160Z</time>
      </trkpt>
      <trkpt lat="44.88537" lon="6.79967">
        <ele>2178</ele>
        <time>2014-07-31T15:44:56.160Z</time>
      </trkpt>
      <trkpt lat="44.88539" lon="6.79965">
        <ele>2178</ele>
        <time>2014-07-31T15:44:58.060Z</time>
      </trkpt>
      <trkpt lat="44.88541" lon="6.79965">
        <ele>2178</ele>
        <time>2014-07-31T15:44:59.160Z</time>
      </trkpt>
      <trkpt lat="44.88543" lon="6.79965">
        <ele>2178</ele>
        <time>2014-07-31T15:45:01.160Z</time>
      </trkpt>
      <trkpt lat="44.88544" lon="6.79963">
        <ele>2178</ele>
        <time>2014-07-31T15:45:03.160Z</time>
      </trkpt>
      <trkpt lat="44.88546" lon="6.79961">
        <ele>2178</ele>
        <time>2014-07-31T15:45:05.160Z</time>
      </trkpt>
      <trkpt lat="44.88547" lon="6.79958">
        <ele>2178</ele>
        <time>2014-07-31T15:45:07.160Z</time>
      </trkpt>
      <trkpt lat="44.88548" lon="6.79956">
        <ele>2178</ele>
        <time>2014-07-31T15:45:09.160Z</time>
      </trkpt>
      <trkpt lat="44.8855" lon="6.79954">
        <ele>2178</ele>
        <time>2014-07-31T15:45:11.060Z</time>
      </trkpt>
      <trkpt lat="44.88552" lon="6.79951">
        <ele>2178</ele>
        <time>2014-07-31T15:45:14.160Z</time>
      </trkpt>
      <trkpt lat="44.88553" lon="6.79948">
        <ele>2178</ele>
        <time>2014-07-31T15:45:16.060Z</time>
      </trkpt>
      <trkpt lat="44.88552" lon="6.79943">
        <ele>2178</ele>
        <time>2014-07-31T15:45:19.160Z</time>
      </trkpt>
      <trkpt lat="44.88553" lon="6.7994">
        <ele>2178</ele>
        <time>2014-07-31T15:45:21.160Z</time>
      </trkpt>
      <trkpt lat="44.88554" lon="6.79937">
        <ele>2178</ele>
        <time>2014-07-31T15:45:23.160Z</time>
      </trkpt>
      <trkpt lat="44.88555" lon="6.79935">
        <ele>2178.5</ele>
        <time>2014-07-31T15:45:25.060Z</time>
      </trkpt>
      <trkpt lat="44.88556" lon="6.79934">
        <ele>2179</ele>
        <time>2014-07-31T15:45:26.160Z</time>
      </trkpt>
      <trkpt lat="44.88557" lon="6.79931">
        <ele>2179</ele>
        <time>2014-07-31T15:45:28.080Z</time>
      </trkpt>
      <trkpt lat="44.88558" lon="6.79929">
        <ele>2179</ele>
        <time>2014-07-31T15:45:30.160Z</time>
      </trkpt>
      <trkpt lat="44.88559" lon="6.79926">
        <ele>2179</ele>
        <time>2014-07-31T15:45:32.160Z</time>
      </trkpt>
      <trkpt lat="44.88561" lon="6.79924">
        <ele>2179</ele>
        <time>2014-07-31T15:45:33.960Z</time>
      </trkpt>
      <trkpt lat="44.88561" lon="6.79923">
        <ele>2179.6</ele>
        <time>2014-07-31T15:45:35.160Z</time>
      </trkpt>
      <trkpt lat="44.88562" lon="6.79921">
        <ele>2180</ele>
        <time>2014-07-31T15:45:37.160Z</time>
      </trkpt>
      <trkpt lat="44.88561" lon="6.79919">
        <ele>2180</ele>
        <time>2014-07-31T15:45:41.140Z</time>
      </trkpt>
      <trkpt lat="44.8856" lon="6.79918">
        <ele>2180</ele>
        <time>2014-07-31T15:45:43.160Z</time>
      </trkpt>
      <trkpt lat="44.8856" lon="6.79916">
        <ele>2180</ele>
        <time>2014-07-31T15:45:49.160Z</time>
      </trkpt>
      <trkpt lat="44.8856" lon="6.79913">
        <ele>2180</ele>
        <time>2014-07-31T15:45:51.120Z</time>
      </trkpt>
      <trkpt lat="44.8856" lon="6.79911">
        <ele>2180</ele>
        <time>2014-07-31T15:45:53.160Z</time>
      </trkpt>
      <trkpt lat="44.8856" lon="6.79909">
        <ele>2180.6</ele>
        <time>2014-07-31T15:45:55.160Z</time>
      </trkpt>
      <trkpt lat="44.8856" lon="6.79908">
        <ele>2181</ele>
        <time>2014-07-31T15:45:57.060Z</time>
      </trkpt>
      <trkpt lat="44.8856" lon="6.79906">
        <ele>2181</ele>
        <time>2014-07-31T15:45:58.160Z</time>
      </trkpt>
      <trkpt lat="44.88561" lon="6.79904">
        <ele>2181</ele>
        <time>2014-07-31T15:46:00.020Z</time>
      </trkpt>
      <trkpt lat="44.88561" lon="6.79903">
        <ele>2182</ele>
        <time>2014-07-31T15:46:11.160Z</time>
      </trkpt>
      <trkpt lat="44.8856" lon="6.79902">
        <ele>2180</ele>
        <time>2014-07-31T15:46:27.160Z</time>
      </trkpt>
      <trkpt lat="44.88559" lon="6.79901">
        <ele>2180</ele>
        <time>2014-07-31T15:46:31.160Z</time>
      </trkpt>
      <trkpt lat="44.88558" lon="6.79897">
        <ele>2181.4</ele>
        <time>2014-07-31T15:46:45.160Z</time>
      </trkpt>
      <trkpt lat="44.88557" lon="6.79895">
        <ele>2181</ele>
        <time>2014-07-31T15:46:47.160Z</time>
      </trkpt>
      <trkpt lat="44.88554" lon="6.7989">
        <ele>2181</ele>
        <time>2014-07-31T15:46:49.160Z</time>
      </trkpt>
      <trkpt lat="44.88551" lon="6.79885">
        <ele>2181</ele>
        <time>2014-07-31T15:46:51.120Z</time>
      </trkpt>
      <trkpt lat="44.88548" lon="6.79878">
        <ele>2181</ele>
        <time>2014-07-31T15:46:53.180Z</time>
      </trkpt>
      <trkpt lat="44.88547" lon="6.79875">
        <ele>2181</ele>
        <time>2014-07-31T15:46:54.160Z</time>
      </trkpt>
      <trkpt lat="44.88544" lon="6.79868">
        <ele>2180</ele>
        <time>2014-07-31T15:46:56.160Z</time>
      </trkpt>
      <trkpt lat="44.8854" lon="6.79861">
        <ele>2180</ele>
        <time>2014-07-31T15:46:58.160Z</time>
      </trkpt>
      <trkpt lat="44.88538" lon="6.79853">
        <ele>2180</ele>
        <time>2014-07-31T15:47:00.020Z</time>
      </trkpt>
      <trkpt lat="44.88536" lon="6.79848">
        <ele>2180</ele>
        <time>2014-07-31T15:47:01.140Z</time>
      </trkpt>
      <trkpt lat="44.88534" lon="6.79839">
        <ele>2180</ele>
        <time>2014-07-31T15:47:03.160Z</time>
      </trkpt>
      <trkpt lat="44.88532" lon="6.79831">
        <ele>2179.5</ele>
        <time>2014-07-31T15:47:05.060Z</time>
      </trkpt>
      <trkpt lat="44.8853" lon="6.79826">
        <ele>2179</ele>
        <time>2014-07-31T15:47:06.160Z</time>
      </trkpt>
      <trkpt lat="44.88527" lon="6.79817">
        <ele>2179</ele>
        <time>2014-07-31T15:47:08.160Z</time>
      </trkpt>
      <trkpt lat="44.88525" lon="6.79807">
        <ele>2179</ele>
        <time>2014-07-31T15:47:10.060Z</time>
      </trkpt>
      <trkpt lat="44.88524" lon="6.79802">
        <ele>2179</ele>
        <time>2014-07-31T15:47:11.160Z</time>
      </trkpt>
      <trkpt lat="44.88523" lon="6.79792">
        <ele>2179</ele>
        <time>2014-07-31T15:47:13.040Z</time>
      </trkpt>
      <trkpt lat="44.88522" lon="6.79787">
        <ele>2179</ele>
        <time>2014-07-31T15:47:14.160Z</time>
      </trkpt>
      <trkpt lat="44.8852" lon="6.79777">
        <ele>2179</ele>
        <time>2014-07-31T15:47:16.160Z</time>
      </trkpt>
      <trkpt lat="44.8852" lon="6.79767">
        <ele>2179</ele>
        <time>2014-07-31T15:47:18.160Z</time>
      </trkpt>
      <trkpt lat="44.88518" lon="6.79756">
        <ele>2179</ele>
        <time>2014-07-31T15:47:20.160Z</time>
      </trkpt>
      <trkpt lat="44.88517" lon="6.79745">
        <ele>2179</ele>
        <time>2014-07-31T15:47:22.160Z</time>
      </trkpt>
      <trkpt lat="44.88516" lon="6.79731">
        <ele>2179</ele>
        <time>2014-07-31T15:47:24.180Z</time>
      </trkpt>
      <trkpt lat="44.88516" lon="6.79721">
        <ele>2179</ele>
        <time>2014-07-31T15:47:26.120Z</time>
      </trkpt>
      <trkpt lat="44.88515" lon="6.79713">
        <ele>2179</ele>
        <time>2014-07-31T15:47:28.160Z</time>
      </trkpt>
      <trkpt lat="44.88514" lon="6.79703">
        <ele>2179</ele>
        <time>2014-07-31T15:47:30.060Z</time>
      </trkpt>
      <trkpt lat="44.88514" lon="6.79698">
        <ele>2179</ele>
        <time>2014-07-31T15:47:31.160Z</time>
      </trkpt>
      <trkpt lat="44.88513" lon="6.79689">
        <ele>2179</ele>
        <time>2014-07-31T15:47:33.160Z</time>
      </trkpt>
      <trkpt lat="44.88513" lon="6.7968">
        <ele>2178.5</ele>
        <time>2014-07-31T15:47:35.060Z</time>
      </trkpt>
      <trkpt lat="44.88512" lon="6.79675">
        <ele>2178</ele>
        <time>2014-07-31T15:47:36.160Z</time>
      </trkpt>
      <trkpt lat="44.88512" lon="6.79665">
        <ele>2178</ele>
        <time>2014-07-31T15:47:38.180Z</time>
      </trkpt>
      <trkpt lat="44.88512" lon="6.7966">
        <ele>2178</ele>
        <time>2014-07-31T15:47:39.160Z</time>
      </trkpt>
      <trkpt lat="44.88511" lon="6.7965">
        <ele>2178</ele>
        <time>2014-07-31T15:47:41.160Z</time>
      </trkpt>
      <trkpt lat="44.88511" lon="6.7964">
        <ele>2178</ele>
        <time>2014-07-31T15:47:43.120Z</time>
      </trkpt>
      <trkpt lat="44.8851" lon="6.7963">
        <ele>2178</ele>
        <time>2014-07-31T15:47:45.160Z</time>
      </trkpt>
      <trkpt lat="44.88511" lon="6.79621">
        <ele>2178</ele>
        <time>2014-07-31T15:47:47.060Z</time>
      </trkpt>
      <trkpt lat="44.88511" lon="6.79617">
        <ele>2178</ele>
        <time>2014-07-31T15:47:48.160Z</time>
      </trkpt>
      <trkpt lat="44.8851" lon="6.79608">
        <ele>2178</ele>
        <time>2014-07-31T15:47:50.160Z</time>
      </trkpt>
      <trkpt lat="44.88509" lon="6.796">
        <ele>2178</ele>
        <time>2014-07-31T15:47:52.140Z</time>
      </trkpt>
      <trkpt lat="44.88508" lon="6.79594">
        <ele>2178</ele>
        <time>2014-07-31T15:47:53.260Z</time>
      </trkpt>
      <trkpt lat="44.88507" lon="6.79584">
        <ele>2178</ele>
        <time>2014-07-31T15:47:55.160Z</time>
      </trkpt>
      <trkpt lat="44.88505" lon="6.79574">
        <ele>2178</ele>
        <time>2014-07-31T15:47:57.160Z</time>
      </trkpt>
      <trkpt lat="44.88504" lon="6.79569">
        <ele>2178</ele>
        <time>2014-07-31T15:47:58.260Z</time>
      </trkpt>
      <trkpt lat="44.88504" lon="6.79561">
        <ele>2178</ele>
        <time>2014-07-31T15:48:00.240Z</time>
      </trkpt>
      <trkpt lat="44.88502" lon="6.79554">
        <ele>2178</ele>
        <time>2014-07-31T15:48:02.040Z</time>
      </trkpt>
      <trkpt lat="44.88501" lon="6.7955">
        <ele>2178</ele>
        <time>2014-07-31T15:48:03.160Z</time>
      </trkpt>
      <trkpt lat="44.885" lon="6.79547">
        <ele>2178</ele>
        <time>2014-07-31T15:48:04.260Z</time>
      </trkpt>
      <trkpt lat="44.88498" lon="6.79541">
        <ele>2177</ele>
        <time>2014-07-31T15:48:06.260Z</time>
      </trkpt>
      <trkpt lat="44.88497" lon="6.79536">
        <ele>2177</ele>
        <time>2014-07-31T15:48:08.060Z</time>
      </trkpt>
      <trkpt lat="44.88496" lon="6.79534">
        <ele>2177</ele>
        <time>2014-07-31T15:48:09.160Z</time>
      </trkpt>
      <trkpt lat="44.88495" lon="6.7953">
        <ele>2177</ele>
        <time>2014-07-31T15:48:11.160Z</time>
      </trkpt>
      <trkpt lat="44.88494" lon="6.79524">
        <ele>2177</ele>
        <time>2014-07-31T15:48:13.160Z</time>
      </trkpt>
      <trkpt lat="44.88492" lon="6.79517">
        <ele>2177</ele>
        <time>2014-07-31T15:48:15.160Z</time>
      </trkpt>
      <trkpt lat="44.88491" lon="6.79514">
        <ele>2177</ele>
        <time>2014-07-31T15:48:16.260Z</time>
      </trkpt>
      <trkpt lat="44.88487" lon="6.79506">
        <ele>2177</ele>
        <time>2014-07-31T15:48:18.060Z</time>
      </trkpt>
      <trkpt lat="44.88484" lon="6.79499">
        <ele>2177</ele>
        <time>2014-07-31T15:48:20.180Z</time>
      </trkpt>
      <trkpt lat="44.88482" lon="6.79495">
        <ele>2177</ele>
        <time>2014-07-31T15:48:21.160Z</time>
      </trkpt>
      <trkpt lat="44.88479" lon="6.79489">
        <ele>2177</ele>
        <time>2014-07-31T15:48:23.160Z</time>
      </trkpt>
      <trkpt lat="44.88476" lon="6.79484">
        <ele>2177</ele>
        <time>2014-07-31T15:48:25.160Z</time>
      </trkpt>
      <trkpt lat="44.88474" lon="6.79478">
        <ele>2177</ele>
        <time>2014-07-31T15:48:27.140Z</time>
      </trkpt>
      <trkpt lat="44.88472" lon="6.79471">
        <ele>2177</ele>
        <time>2014-07-31T15:48:29.160Z</time>
      </trkpt>
      <trkpt lat="44.88471" lon="6.79468">
        <ele>2177</ele>
        <time>2014-07-31T15:48:30.260Z</time>
      </trkpt>
      <trkpt lat="44.88472" lon="6.79464">
        <ele>2177</ele>
        <time>2014-07-31T15:48:32.060Z</time>
      </trkpt>
      <trkpt lat="44.88472" lon="6.79462">
        <ele>2177</ele>
        <time>2014-07-31T15:48:33.160Z</time>
      </trkpt>
      <trkpt lat="44.88472" lon="6.79456">
        <ele>2177</ele>
        <time>2014-07-31T15:48:35.060Z</time>
      </trkpt>
      <trkpt lat="44.88473" lon="6.79446">
        <ele>2177</ele>
        <time>2014-07-31T15:48:37.160Z</time>
      </trkpt>
      <trkpt lat="44.88474" lon="6.79436">
        <ele>2177</ele>
        <time>2014-07-31T15:48:39.140Z</time>
      </trkpt>
      <trkpt lat="44.88476" lon="6.79426">
        <ele>2177</ele>
        <time>2014-07-31T15:48:41.260Z</time>
      </trkpt>
      <trkpt lat="44.88478" lon="6.79417">
        <ele>2177</ele>
        <time>2014-07-31T15:48:43.060Z</time>
      </trkpt>
      <trkpt lat="44.88479" lon="6.79412">
        <ele>2177</ele>
        <time>2014-07-31T15:48:44.160Z</time>
      </trkpt>
      <trkpt lat="44.88481" lon="6.79407">
        <ele>2177</ele>
        <time>2014-07-31T15:48:45.260Z</time>
      </trkpt>
      <trkpt lat="44.88485" lon="6.79396">
        <ele>2177</ele>
        <time>2014-07-31T15:48:47.060Z</time>
      </trkpt>
      <trkpt lat="44.88488" lon="6.79389">
        <ele>2177</ele>
        <time>2014-07-31T15:48:48.160Z</time>
      </trkpt>
      <trkpt lat="44.88494" lon="6.79378">
        <ele>2177</ele>
        <time>2014-07-31T15:48:50.160Z</time>
      </trkpt>
      <trkpt lat="44.88498" lon="6.79366">
        <ele>2177</ele>
        <time>2014-07-31T15:48:52.060Z</time>
      </trkpt>
      <trkpt lat="44.885" lon="6.7936">
        <ele>2177</ele>
        <time>2014-07-31T15:48:53.160Z</time>
      </trkpt>
      <trkpt lat="44.88503" lon="6.79348">
        <ele>2175.2</ele>
        <time>2014-07-31T15:48:55.160Z</time>
      </trkpt>
      <trkpt lat="44.88507" lon="6.79338">
        <ele>2174</ele>
        <time>2014-07-31T15:48:57.160Z</time>
      </trkpt>
      <trkpt lat="44.88509" lon="6.79334">
        <ele>2174</ele>
        <time>2014-07-31T15:48:58.260Z</time>
      </trkpt>
      <trkpt lat="44.88513" lon="6.79324">
        <ele>2172.3</ele>
        <time>2014-07-31T15:49:00.120Z</time>
      </trkpt>
      <trkpt lat="44.88519" lon="6.79313">
        <ele>2171</ele>
        <time>2014-07-31T15:49:02.060Z</time>
      </trkpt>
      <trkpt lat="44.88523" lon="6.79302">
        <ele>2171</ele>
        <time>2014-07-31T15:49:04.160Z</time>
      </trkpt>
      <trkpt lat="44.88527" lon="6.79295">
        <ele>2166.5</ele>
        <time>2014-07-31T15:49:06.060Z</time>
      </trkpt>
      <trkpt lat="44.8853" lon="6.79293">
        <ele>2166</ele>
        <time>2014-07-31T15:49:07.160Z</time>
      </trkpt>
      <trkpt lat="44.88538" lon="6.79291">
        <ele>2165.4</ele>
        <time>2014-07-31T15:49:09.160Z</time>
      </trkpt>
      <trkpt lat="44.88547" lon="6.79294">
        <ele>2165</ele>
        <time>2014-07-31T15:49:11.160Z</time>
      </trkpt>
      <trkpt lat="44.88555" lon="6.79297">
        <ele>2163.4</ele>
        <time>2014-07-31T15:49:13.160Z</time>
      </trkpt>
      <trkpt lat="44.88562" lon="6.79297">
        <ele>2162</ele>
        <time>2014-07-31T15:49:15.060Z</time>
      </trkpt>
      <trkpt lat="44.88565" lon="6.79297">
        <ele>2162</ele>
        <time>2014-07-31T15:49:16.160Z</time>
      </trkpt>
      <trkpt lat="44.88571" lon="6.79298">
        <ele>2162</ele>
        <time>2014-07-31T15:49:18.280Z</time>
      </trkpt>
      <trkpt lat="44.88578" lon="6.79302">
        <ele>2160.8</ele>
        <time>2014-07-31T15:49:20.160Z</time>
      </trkpt>
      <trkpt lat="44.88581" lon="6.79303">
        <ele>2160</ele>
        <time>2014-07-31T15:49:21.260Z</time>
      </trkpt>
      <trkpt lat="44.88588" lon="6.79303">
        <ele>2160</ele>
        <time>2014-07-31T15:49:23.160Z</time>
      </trkpt>
      <trkpt lat="44.88591" lon="6.79302">
        <ele>2160</ele>
        <time>2014-07-31T15:49:24.260Z</time>
      </trkpt>
      <trkpt lat="44.88597" lon="6.793">
        <ele>2157</ele>
        <time>2014-07-31T15:49:25.980Z</time>
      </trkpt>
      <trkpt lat="44.886" lon="6.79299">
        <ele>2157</ele>
        <time>2014-07-31T15:49:27.160Z</time>
      </trkpt>
      <trkpt lat="44.88608" lon="6.793">
        <ele>2157</ele>
        <time>2014-07-31T15:49:29.160Z</time>
      </trkpt>
      <trkpt lat="44.88617" lon="6.793">
        <ele>2153</ele>
        <time>2014-07-31T15:49:31.060Z</time>
      </trkpt>
      <trkpt lat="44.8862" lon="6.79299">
        <ele>2153</ele>
        <time>2014-07-31T15:49:32.160Z</time>
      </trkpt>
      <trkpt lat="44.88627" lon="6.79294">
        <ele>2153</ele>
        <time>2014-07-31T15:49:34.120Z</time>
      </trkpt>
      <trkpt lat="44.88629" lon="6.79285">
        <ele>2147.8</ele>
        <time>2014-07-31T15:49:36.160Z</time>
      </trkpt>
      <trkpt lat="44.88625" lon="6.79276">
        <ele>2147</ele>
        <time>2014-07-31T15:49:38.140Z</time>
      </trkpt>
      <trkpt lat="44.88624" lon="6.79271">
        <ele>2147</ele>
        <time>2014-07-31T15:49:39.260Z</time>
      </trkpt>
      <trkpt lat="44.88623" lon="6.7926">
        <ele>2146.3</ele>
        <time>2014-07-31T15:49:41.260Z</time>
      </trkpt>
      <trkpt lat="44.88626" lon="6.79248">
        <ele>2146</ele>
        <time>2014-07-31T15:49:43.060Z</time>
      </trkpt>
      <trkpt lat="44.88628" lon="6.79242">
        <ele>2146</ele>
        <time>2014-07-31T15:49:44.160Z</time>
      </trkpt>
      <trkpt lat="44.8863" lon="6.79226">
        <ele>2144</ele>
        <time>2014-07-31T15:49:46.160Z</time>
      </trkpt>
      <trkpt lat="44.88629" lon="6.79207">
        <ele>2144</ele>
        <time>2014-07-31T15:49:48.380Z</time>
      </trkpt>
      <trkpt lat="44.88631" lon="6.79189">
        <ele>2142.6</ele>
        <time>2014-07-31T15:49:50.040Z</time>
      </trkpt>
      <trkpt lat="44.88633" lon="6.79179">
        <ele>2141</ele>
        <time>2014-07-31T15:49:52.160Z</time>
      </trkpt>
      <trkpt lat="44.88633" lon="6.79179">
        <ele>2140.4</ele>
        <time>2014-07-31T15:50:00.120Z</time>
      </trkpt>
      <trkpt lat="44.88634" lon="6.79178">
        <ele>2139</ele>
        <time>2014-07-31T15:50:13.260Z</time>
      </trkpt>
      <trkpt lat="44.88635" lon="6.79175">
        <ele>2139</ele>
        <time>2014-07-31T15:50:15.260Z</time>
      </trkpt>
      <trkpt lat="44.88641" lon="6.79173">
        <ele>2139</ele>
        <time>2014-07-31T15:50:17.120Z</time>
      </trkpt>
      <trkpt lat="44.88645" lon="6.79172">
        <ele>2139</ele>
        <time>2014-07-31T15:50:18.380Z</time>
      </trkpt>
      <trkpt lat="44.88653" lon="6.79175">
        <ele>2139</ele>
        <time>2014-07-31T15:50:20.260Z</time>
      </trkpt>
      <trkpt lat="44.8866" lon="6.79175">
        <ele>2139</ele>
        <time>2014-07-31T15:50:22.260Z</time>
      </trkpt>
      <trkpt lat="44.88669" lon="6.79172">
        <ele>2139</ele>
        <time>2014-07-31T15:50:24.160Z</time>
      </trkpt>
      <trkpt lat="44.88673" lon="6.79171">
        <ele>2137.6</ele>
        <time>2014-07-31T15:50:25.260Z</time>
      </trkpt>
      <trkpt lat="44.88681" lon="6.79173">
        <ele>2137</ele>
        <time>2014-07-31T15:50:27.260Z</time>
      </trkpt>
      <trkpt lat="44.88689" lon="6.79173">
        <ele>2137</ele>
        <time>2014-07-31T15:50:29.260Z</time>
      </trkpt>
      <trkpt lat="44.88691" lon="6.79168">
        <ele>2137</ele>
        <time>2014-07-31T15:50:31.260Z</time>
      </trkpt>
      <trkpt lat="44.88692" lon="6.79161">
        <ele>2137</ele>
        <time>2014-07-31T15:50:33.220Z</time>
      </trkpt>
      <trkpt lat="44.88693" lon="6.79151">
        <ele>2134.3</ele>
        <time>2014-07-31T15:50:35.260Z</time>
      </trkpt>
      <trkpt lat="44.88695" lon="6.79142">
        <ele>2133</ele>
        <time>2014-07-31T15:50:37.160Z</time>
      </trkpt>
      <trkpt lat="44.88698" lon="6.79133">
        <ele>2133</ele>
        <time>2014-07-31T15:50:39.160Z</time>
      </trkpt>
      <trkpt lat="44.887" lon="6.79123">
        <ele>2131</ele>
        <time>2014-07-31T15:50:41.160Z</time>
      </trkpt>
      <trkpt lat="44.88703" lon="6.79114">
        <ele>2131</ele>
        <time>2014-07-31T15:50:43.160Z</time>
      </trkpt>
      <trkpt lat="44.88705" lon="6.79103">
        <ele>2130.4</ele>
        <time>2014-07-31T15:50:45.160Z</time>
      </trkpt>
      <trkpt lat="44.88706" lon="6.79092">
        <ele>2130</ele>
        <time>2014-07-31T15:50:47.160Z</time>
      </trkpt>
      <trkpt lat="44.88702" lon="6.79082">
        <ele>2130</ele>
        <time>2014-07-31T15:50:49.280Z</time>
      </trkpt>
      <trkpt lat="44.88702" lon="6.79071">
        <ele>2129</ele>
        <time>2014-07-31T15:50:51.120Z</time>
      </trkpt>
      <trkpt lat="44.88704" lon="6.79059">
        <ele>2129</ele>
        <time>2014-07-31T15:50:53.160Z</time>
      </trkpt>
      <trkpt lat="44.88707" lon="6.79046">
        <ele>2128.1</ele>
        <time>2014-07-31T15:50:55.040Z</time>
      </trkpt>
      <trkpt lat="44.88709" lon="6.79042">
        <ele>2127</ele>
        <time>2014-07-31T15:50:56.160Z</time>
      </trkpt>
      <trkpt lat="44.88712" lon="6.79032">
        <ele>2127</ele>
        <time>2014-07-31T15:50:58.160Z</time>
      </trkpt>
      <trkpt lat="44.88715" lon="6.7902">
        <ele>2126.4</ele>
        <time>2014-07-31T15:51:00.120Z</time>
      </trkpt>
      <trkpt lat="44.88716" lon="6.79007">
        <ele>2126</ele>
        <time>2014-07-31T15:51:02.160Z</time>
      </trkpt>
      <trkpt lat="44.88718" lon="6.79002">
        <ele>2126</ele>
        <time>2014-07-31T15:51:03.260Z</time>
      </trkpt>
      <trkpt lat="44.88723" lon="6.78991">
        <ele>2125.3</ele>
        <time>2014-07-31T15:51:05.240Z</time>
      </trkpt>
      <trkpt lat="44.88729" lon="6.78979">
        <ele>2125</ele>
        <time>2014-07-31T15:51:06.960Z</time>
      </trkpt>
      <trkpt lat="44.88732" lon="6.78972">
        <ele>2125</ele>
        <time>2014-07-31T15:51:08.160Z</time>
      </trkpt>
      <trkpt lat="44.88736" lon="6.78967">
        <ele>2125</ele>
        <time>2014-07-31T15:51:09.260Z</time>
      </trkpt>
      <trkpt lat="44.88742" lon="6.78957">
        <ele>2125</ele>
        <time>2014-07-31T15:51:11.160Z</time>
      </trkpt>
      <trkpt lat="44.88744" lon="6.78942">
        <ele>2125</ele>
        <time>2014-07-31T15:51:13.160Z</time>
      </trkpt>
      <trkpt lat="44.88746" lon="6.78926">
        <ele>2122</ele>
        <time>2014-07-31T15:51:15.160Z</time>
      </trkpt>
      <trkpt lat="44.88746" lon="6.78909">
        <ele>2120</ele>
        <time>2014-07-31T15:51:17.080Z</time>
      </trkpt>
      <trkpt lat="44.88746" lon="6.78893">
        <ele>2120</ele>
        <time>2014-07-31T15:51:19.060Z</time>
      </trkpt>
      <trkpt lat="44.88747" lon="6.78886">
        <ele>2117</ele>
        <time>2014-07-31T15:51:20.160Z</time>
      </trkpt>
      <trkpt lat="44.88749" lon="6.78874">
        <ele>2115</ele>
        <time>2014-07-31T15:51:22.160Z</time>
      </trkpt>
      <trkpt lat="44.88752" lon="6.78863">
        <ele>2115</ele>
        <time>2014-07-31T15:51:24.120Z</time>
      </trkpt>
      <trkpt lat="44.88753" lon="6.78858">
        <ele>2114.3</ele>
        <time>2014-07-31T15:51:25.260Z</time>
      </trkpt>
      <trkpt lat="44.88758" lon="6.78847">
        <ele>2112</ele>
        <time>2014-07-31T15:51:27.060Z</time>
      </trkpt>
      <trkpt lat="44.88759" lon="6.78839">
        <ele>2111.4</ele>
        <time>2014-07-31T15:51:28.160Z</time>
      </trkpt>
      <trkpt lat="44.8876" lon="6.78829">
        <ele>2110</ele>
        <time>2014-07-31T15:51:30.040Z</time>
      </trkpt>
      <trkpt lat="44.88761" lon="6.78825">
        <ele>2109.4</ele>
        <time>2014-07-31T15:51:31.160Z</time>
      </trkpt>
      <trkpt lat="44.88761" lon="6.78823">
        <ele>2108.3</ele>
        <time>2014-07-31T15:51:32.260Z</time>
      </trkpt>
      <trkpt lat="44.88759" lon="6.78819">
        <ele>2107</ele>
        <time>2014-07-31T15:51:38.160Z</time>
      </trkpt>
      <trkpt lat="44.88758" lon="6.78817">
        <ele>2108</ele>
        <time>2014-07-31T15:51:40.060Z</time>
      </trkpt>
      <trkpt lat="44.88757" lon="6.78816">
        <ele>2108</ele>
        <time>2014-07-31T15:51:41.120Z</time>
      </trkpt>
      <trkpt lat="44.88756" lon="6.78814">
        <ele>2108</ele>
        <time>2014-07-31T15:51:43.080Z</time>
      </trkpt>
      <trkpt lat="44.88756" lon="6.78813">
        <ele>2108</ele>
        <time>2014-07-31T15:51:45.160Z</time>
      </trkpt>
      <trkpt lat="44.88755" lon="6.78811">
        <ele>2108</ele>
        <time>2014-07-31T15:51:47.160Z</time>
      </trkpt>
      <trkpt lat="44.88754" lon="6.78809">
        <ele>2108</ele>
        <time>2014-07-31T15:51:49.160Z</time>
      </trkpt>
      <trkpt lat="44.88753" lon="6.78809">
        <ele>2108</ele>
        <time>2014-07-31T15:51:53.160Z</time>
      </trkpt>
      <trkpt lat="44.8875" lon="6.78804">
        <ele>2108</ele>
        <time>2014-07-31T15:51:57.160Z</time>
      </trkpt>
      <trkpt lat="44.88749" lon="6.78801">
        <ele>2108</ele>
        <time>2014-07-31T15:51:58.220Z</time>
      </trkpt>
      <trkpt lat="44.88747" lon="6.78795">
        <ele>2108</ele>
        <time>2014-07-31T15:52:00.050Z</time>
      </trkpt>
      <trkpt lat="44.88745" lon="6.78791">
        <ele>2108</ele>
        <time>2014-07-31T15:52:01.260Z</time>
      </trkpt>
      <trkpt lat="44.88743" lon="6.78783">
        <ele>2108</ele>
        <time>2014-07-31T15:52:03.260Z</time>
      </trkpt>
      <trkpt lat="44.8874" lon="6.78774">
        <ele>2108</ele>
        <time>2014-07-31T15:52:05.260Z</time>
      </trkpt>
      <trkpt lat="44.88738" lon="6.78766">
        <ele>2108</ele>
        <time>2014-07-31T15:52:07.160Z</time>
      </trkpt>
      <trkpt lat="44.88737" lon="6.78763">
        <ele>2108</ele>
        <time>2014-07-31T15:52:08.260Z</time>
      </trkpt>
      <trkpt lat="44.88735" lon="6.78757">
        <ele>2108</ele>
        <time>2014-07-31T15:52:10.260Z</time>
      </trkpt>
      <trkpt lat="44.88734" lon="6.78753">
        <ele>2108</ele>
        <time>2014-07-31T15:52:12.260Z</time>
      </trkpt>
      <trkpt lat="44.88732" lon="6.78748">
        <ele>2108</ele>
        <time>2014-07-31T15:52:14.260Z</time>
      </trkpt>
      <trkpt lat="44.88731" lon="6.78744">
        <ele>2110</ele>
        <time>2014-07-31T15:52:16.260Z</time>
      </trkpt>
      <trkpt lat="44.88731" lon="6.78743">
        <ele>2110</ele>
        <time>2014-07-31T15:52:20.260Z</time>
      </trkpt>
      <trkpt lat="44.88731" lon="6.78744">
        <ele>2111</ele>
        <time>2014-07-31T15:52:31.260Z</time>
      </trkpt>
      <trkpt lat="44.88732" lon="6.78745">
        <ele>2110</ele>
        <time>2014-07-31T15:52:41.260Z</time>
      </trkpt>
      <trkpt lat="44.88735" lon="6.78746">
        <ele>2110</ele>
        <time>2014-07-31T15:52:58.260Z</time>
      </trkpt>
      <trkpt lat="44.88738" lon="6.78749">
        <ele>2110</ele>
        <time>2014-07-31T15:53:00.050Z</time>
      </trkpt>
      <trkpt lat="44.88739" lon="6.7875">
        <ele>2110</ele>
        <time>2014-07-31T15:53:01.260Z</time>
      </trkpt>
      <trkpt lat="44.88742" lon="6.78751">
        <ele>2110</ele>
        <time>2014-07-31T15:53:03.260Z</time>
      </trkpt>
      <trkpt lat="44.88744" lon="6.78753">
        <ele>2110</ele>
        <time>2014-07-31T15:53:05.260Z</time>
      </trkpt>
      <trkpt lat="44.88747" lon="6.78755">
        <ele>2110</ele>
        <time>2014-07-31T15:53:07.280Z</time>
      </trkpt>
      <trkpt lat="44.8875" lon="6.78757">
        <ele>2110</ele>
        <time>2014-07-31T15:53:09.260Z</time>
      </trkpt>
      <trkpt lat="44.88753" lon="6.78758">
        <ele>2110</ele>
        <time>2014-07-31T15:53:11.260Z</time>
      </trkpt>
      <trkpt lat="44.88755" lon="6.7876">
        <ele>2110</ele>
        <time>2014-07-31T15:53:13.240Z</time>
      </trkpt>
      <trkpt lat="44.88757" lon="6.78762">
        <ele>2110</ele>
        <time>2014-07-31T15:53:15.260Z</time>
      </trkpt>
      <trkpt lat="44.8876" lon="6.78763">
        <ele>2110</ele>
        <time>2014-07-31T15:53:17.220Z</time>
      </trkpt>
      <trkpt lat="44.88762" lon="6.78764">
        <ele>2110</ele>
        <time>2014-07-31T15:53:19.260Z</time>
      </trkpt>
      <trkpt lat="44.88764" lon="6.78765">
        <ele>2110</ele>
        <time>2014-07-31T15:53:21.260Z</time>
      </trkpt>
      <trkpt lat="44.88766" lon="6.78766">
        <ele>2110</ele>
        <time>2014-07-31T15:53:23.220Z</time>
      </trkpt>
      <trkpt lat="44.88768" lon="6.78768">
        <ele>2111.4</ele>
        <time>2014-07-31T15:53:25.260Z</time>
      </trkpt>
      <trkpt lat="44.8877" lon="6.78769">
        <ele>2112</ele>
        <time>2014-07-31T15:53:27.260Z</time>
      </trkpt>
      <trkpt lat="44.88772" lon="6.78769">
        <ele>2112</ele>
        <time>2014-07-31T15:53:29.260Z</time>
      </trkpt>
      <trkpt lat="44.88774" lon="6.78769">
        <ele>2112</ele>
        <time>2014-07-31T15:53:31.260Z</time>
      </trkpt>
      <trkpt lat="44.88776" lon="6.7877">
        <ele>2112</ele>
        <time>2014-07-31T15:53:33.260Z</time>
      </trkpt>
      <trkpt lat="44.88779" lon="6.78771">
        <ele>2113.2</ele>
        <time>2014-07-31T15:53:35.160Z</time>
      </trkpt>
      <trkpt lat="44.88779" lon="6.78771">
        <ele>2114</ele>
        <time>2014-07-31T15:53:36.310Z</time>
      </trkpt>
      <trkpt lat="44.88781" lon="6.78773">
        <ele>2114</ele>
        <time>2014-07-31T15:53:38.180Z</time>
      </trkpt>
      <trkpt lat="44.88783" lon="6.78774">
        <ele>2114</ele>
        <time>2014-07-31T15:53:40.220Z</time>
      </trkpt>
      <trkpt lat="44.88785" lon="6.78775">
        <ele>2114</ele>
        <time>2014-07-31T15:53:42.260Z</time>
      </trkpt>
      <trkpt lat="44.88786" lon="6.78775">
        <ele>2114</ele>
        <time>2014-07-31T15:53:44.260Z</time>
      </trkpt>
      <trkpt lat="44.88788" lon="6.78775">
        <ele>2115</ele>
        <time>2014-07-31T15:53:46.260Z</time>
      </trkpt>
      <trkpt lat="44.8879" lon="6.78775">
        <ele>2115</ele>
        <time>2014-07-31T15:53:48.160Z</time>
      </trkpt>
      <trkpt lat="44.88792" lon="6.78775">
        <ele>2115</ele>
        <time>2014-07-31T15:53:49.260Z</time>
      </trkpt>
      <trkpt lat="44.88793" lon="6.78776">
        <ele>2115</ele>
        <time>2014-07-31T15:53:51.180Z</time>
      </trkpt>
      <trkpt lat="44.88795" lon="6.78778">
        <ele>2115</ele>
        <time>2014-07-31T15:53:53.260Z</time>
      </trkpt>
      <trkpt lat="44.88797" lon="6.78779">
        <ele>2117.1</ele>
        <time>2014-07-31T15:53:55.260Z</time>
      </trkpt>
      <trkpt lat="44.88799" lon="6.7878">
        <ele>2118</ele>
        <time>2014-07-31T15:53:57.200Z</time>
      </trkpt>
      <trkpt lat="44.88801" lon="6.78781">
        <ele>2118</ele>
        <time>2014-07-31T15:53:59.260Z</time>
      </trkpt>
      <trkpt lat="44.88803" lon="6.78782">
        <ele>2119</ele>
        <time>2014-07-31T15:54:01.260Z</time>
      </trkpt>
      <trkpt lat="44.88805" lon="6.78783">
        <ele>2119</ele>
        <time>2014-07-31T15:54:03.160Z</time>
      </trkpt>
      <trkpt lat="44.88807" lon="6.78785">
        <ele>2119</ele>
        <time>2014-07-31T15:54:06.260Z</time>
      </trkpt>
      <trkpt lat="44.88809" lon="6.78786">
        <ele>2119</ele>
        <time>2014-07-31T15:54:08.260Z</time>
      </trkpt>
      <trkpt lat="44.8881" lon="6.78787">
        <ele>2119</ele>
        <time>2014-07-31T15:54:10.260Z</time>
      </trkpt>
      <trkpt lat="44.88813" lon="6.78788">
        <ele>2119</ele>
        <time>2014-07-31T15:54:12.260Z</time>
      </trkpt>
      <trkpt lat="44.88815" lon="6.78789">
        <ele>2119</ele>
        <time>2014-07-31T15:54:14.120Z</time>
      </trkpt>
      <trkpt lat="44.88816" lon="6.7879">
        <ele>2121</ele>
        <time>2014-07-31T15:54:16.160Z</time>
      </trkpt>
      <trkpt lat="44.88818" lon="6.78791">
        <ele>2121</ele>
        <time>2014-07-31T15:54:19.260Z</time>
      </trkpt>
      <trkpt lat="44.8882" lon="6.78792">
        <ele>2121</ele>
        <time>2014-07-31T15:54:21.260Z</time>
      </trkpt>
      <trkpt lat="44.88822" lon="6.78793">
        <ele>2121</ele>
        <time>2014-07-31T15:54:23.260Z</time>
      </trkpt>
      <trkpt lat="44.88824" lon="6.78794">
        <ele>2122.3</ele>
        <time>2014-07-31T15:54:25.260Z</time>
      </trkpt>
      <trkpt lat="44.88826" lon="6.78795">
        <ele>2123</ele>
        <time>2014-07-31T15:54:27.160Z</time>
      </trkpt>
      <trkpt lat="44.88827" lon="6.78796">
        <ele>2123</ele>
        <time>2014-07-31T15:54:28.260Z</time>
      </trkpt>
      <trkpt lat="44.88828" lon="6.78797">
        <ele>2123</ele>
        <time>2014-07-31T15:54:30.260Z</time>
      </trkpt>
      <trkpt lat="44.8883" lon="6.78798">
        <ele>2123</ele>
        <time>2014-07-31T15:54:32.260Z</time>
      </trkpt>
      <trkpt lat="44.88831" lon="6.78798">
        <ele>2123</ele>
        <time>2014-07-31T15:54:34.220Z</time>
      </trkpt>
      <trkpt lat="44.88833" lon="6.788">
        <ele>2124</ele>
        <time>2014-07-31T15:54:36.260Z</time>
      </trkpt>
      <trkpt lat="44.88834" lon="6.788">
        <ele>2124</ele>
        <time>2014-07-31T15:54:38.260Z</time>
      </trkpt>
      <trkpt lat="44.88836" lon="6.788">
        <ele>2124</ele>
        <time>2014-07-31T15:54:40.160Z</time>
      </trkpt>
      <trkpt lat="44.88837" lon="6.788">
        <ele>2124</ele>
        <time>2014-07-31T15:54:41.260Z</time>
      </trkpt>
      <trkpt lat="44.8884" lon="6.788">
        <ele>2124</ele>
        <time>2014-07-31T15:54:43.260Z</time>
      </trkpt>
      <trkpt lat="44.88841" lon="6.788">
        <ele>2124.7</ele>
        <time>2014-07-31T15:54:45.260Z</time>
      </trkpt>
      <trkpt lat="44.8884" lon="6.78799">
        <ele>2125</ele>
        <time>2014-07-31T15:54:47.260Z</time>
      </trkpt>
      <trkpt lat="44.88842" lon="6.78797">
        <ele>2125</ele>
        <time>2014-07-31T15:54:49.260Z</time>
      </trkpt>
      <trkpt lat="44.88845" lon="6.78796">
        <ele>2125</ele>
        <time>2014-07-31T15:54:51.220Z</time>
      </trkpt>
      <trkpt lat="44.88849" lon="6.78793">
        <ele>2125</ele>
        <time>2014-07-31T15:54:53.160Z</time>
      </trkpt>
      <trkpt lat="44.88851" lon="6.78792">
        <ele>2125</ele>
        <time>2014-07-31T15:54:54.260Z</time>
      </trkpt>
      <trkpt lat="44.88854" lon="6.78787">
        <ele>2125</ele>
        <time>2014-07-31T15:54:56.260Z</time>
      </trkpt>
      <trkpt lat="44.88857" lon="6.78782">
        <ele>2125</ele>
        <time>2014-07-31T15:54:58.260Z</time>
      </trkpt>
      <trkpt lat="44.88861" lon="6.78777">
        <ele>2125</ele>
        <time>2014-07-31T15:55:00.050Z</time>
      </trkpt>
      <trkpt lat="44.88863" lon="6.78775">
        <ele>2125</ele>
        <time>2014-07-31T15:55:01.260Z</time>
      </trkpt>
      <trkpt lat="44.88867" lon="6.78771">
        <ele>2125</ele>
        <time>2014-07-31T15:55:03.260Z</time>
      </trkpt>
      <trkpt lat="44.88871" lon="6.78766">
        <ele>2126</ele>
        <time>2014-07-31T15:55:05.080Z</time>
      </trkpt>
      <trkpt lat="44.88873" lon="6.78764">
        <ele>2127</ele>
        <time>2014-07-31T15:55:06.160Z</time>
      </trkpt>
      <trkpt lat="44.88875" lon="6.78762">
        <ele>2127</ele>
        <time>2014-07-31T15:55:07.260Z</time>
      </trkpt>
      <trkpt lat="44.88879" lon="6.78759">
        <ele>2127</ele>
        <time>2014-07-31T15:55:09.160Z</time>
      </trkpt>
      <trkpt lat="44.88881" lon="6.78757">
        <ele>2127</ele>
        <time>2014-07-31T15:55:10.260Z</time>
      </trkpt>
      <trkpt lat="44.88886" lon="6.78755">
        <ele>2127</ele>
        <time>2014-07-31T15:55:12.260Z</time>
      </trkpt>
      <trkpt lat="44.8889" lon="6.78753">
        <ele>2127</ele>
        <time>2014-07-31T15:55:14.260Z</time>
      </trkpt>
      <trkpt lat="44.88895" lon="6.78752">
        <ele>2128</ele>
        <time>2014-07-31T15:55:16.240Z</time>
      </trkpt>
      <trkpt lat="44.88898" lon="6.78751">
        <ele>2128</ele>
        <time>2014-07-31T15:55:18.120Z</time>
      </trkpt>
      <trkpt lat="44.88901" lon="6.7875">
        <ele>2128</ele>
        <time>2014-07-31T15:55:19.160Z</time>
      </trkpt>
      <trkpt lat="44.88904" lon="6.78749">
        <ele>2128</ele>
        <time>2014-07-31T15:55:20.260Z</time>
      </trkpt>
      <trkpt lat="44.88908" lon="6.78748">
        <ele>2128</ele>
        <time>2014-07-31T15:55:22.220Z</time>
      </trkpt>
      <trkpt lat="44.88912" lon="6.78747">
        <ele>2128</ele>
        <time>2014-07-31T15:55:24.260Z</time>
      </trkpt>
      <trkpt lat="44.88915" lon="6.78746">
        <ele>2128</ele>
        <time>2014-07-31T15:55:26.160Z</time>
      </trkpt>
      <trkpt lat="44.88917" lon="6.78746">
        <ele>2128</ele>
        <time>2014-07-31T15:55:27.260Z</time>
      </trkpt>
      <trkpt lat="44.88921" lon="6.78744">
        <ele>2128</ele>
        <time>2014-07-31T15:55:29.260Z</time>
      </trkpt>
      <trkpt lat="44.88926" lon="6.78742">
        <ele>2128</ele>
        <time>2014-07-31T15:55:31.260Z</time>
      </trkpt>
      <trkpt lat="44.8893" lon="6.78739">
        <ele>2128</ele>
        <time>2014-07-31T15:55:33.260Z</time>
      </trkpt>
      <trkpt lat="44.88934" lon="6.78736">
        <ele>2128.7</ele>
        <time>2014-07-31T15:55:35.260Z</time>
      </trkpt>
      <trkpt lat="44.88938" lon="6.78733">
        <ele>2129</ele>
        <time>2014-07-31T15:55:37.260Z</time>
      </trkpt>
      <trkpt lat="44.88942" lon="6.7873">
        <ele>2129</ele>
        <time>2014-07-31T15:55:39.120Z</time>
      </trkpt>
      <trkpt lat="44.88944" lon="6.78729">
        <ele>2129</ele>
        <time>2014-07-31T15:55:40.260Z</time>
      </trkpt>
      <trkpt lat="44.88948" lon="6.78726">
        <ele>2129</ele>
        <time>2014-07-31T15:55:42.260Z</time>
      </trkpt>
      <trkpt lat="44.88951" lon="6.78725">
        <ele>2129</ele>
        <time>2014-07-31T15:55:44.260Z</time>
      </trkpt>
      <trkpt lat="44.88953" lon="6.78725">
        <ele>2129</ele>
        <time>2014-07-31T15:55:46.260Z</time>
      </trkpt>
      <trkpt lat="44.88956" lon="6.78724">
        <ele>2129</ele>
        <time>2014-07-31T15:55:48.260Z</time>
      </trkpt>
      <trkpt lat="44.8896" lon="6.78723">
        <ele>2129</ele>
        <time>2014-07-31T15:55:50.260Z</time>
      </trkpt>
      <trkpt lat="44.88963" lon="6.78722">
        <ele>2129</ele>
        <time>2014-07-31T15:55:52.160Z</time>
      </trkpt>
      <trkpt lat="44.88965" lon="6.78722">
        <ele>2129</ele>
        <time>2014-07-31T15:55:53.260Z</time>
      </trkpt>
      <trkpt lat="44.88967" lon="6.7872">
        <ele>2129.7</ele>
        <time>2014-07-31T15:55:55.260Z</time>
      </trkpt>
      <trkpt lat="44.88969" lon="6.7872">
        <ele>2130</ele>
        <time>2014-07-31T15:55:57.160Z</time>
      </trkpt>
      <trkpt lat="44.88971" lon="6.7872">
        <ele>2130</ele>
        <time>2014-07-31T15:55:58.260Z</time>
      </trkpt>
      <trkpt lat="44.88973" lon="6.78721">
        <ele>2130</ele>
        <time>2014-07-31T15:56:00.220Z</time>
      </trkpt>
      <trkpt lat="44.88976" lon="6.78723">
        <ele>2130</ele>
        <time>2014-07-31T15:56:02.260Z</time>
      </trkpt>
      <trkpt lat="44.88979" lon="6.78723">
        <ele>2130</ele>
        <time>2014-07-31T15:56:04.240Z</time>
      </trkpt>
      <trkpt lat="44.88983" lon="6.78724">
        <ele>2129</ele>
        <time>2014-07-31T15:56:06.260Z</time>
      </trkpt>
      <trkpt lat="44.88986" lon="6.78723">
        <ele>2129</ele>
        <time>2014-07-31T15:56:08.260Z</time>
      </trkpt>
      <trkpt lat="44.88989" lon="6.78723">
        <ele>2129</ele>
        <time>2014-07-31T15:56:10.260Z</time>
      </trkpt>
      <trkpt lat="44.88993" lon="6.78723">
        <ele>2129</ele>
        <time>2014-07-31T15:56:12.260Z</time>
      </trkpt>
      <trkpt lat="44.88997" lon="6.78723">
        <ele>2129</ele>
        <time>2014-07-31T15:56:14.260Z</time>
      </trkpt>
      <trkpt lat="44.89002" lon="6.78722">
        <ele>2128</ele>
        <time>2014-07-31T15:56:16.260Z</time>
      </trkpt>
      <trkpt lat="44.89008" lon="6.7872">
        <ele>2128</ele>
        <time>2014-07-31T15:56:18.260Z</time>
      </trkpt>
      <trkpt lat="44.89014" lon="6.78716">
        <ele>2128</ele>
        <time>2014-07-31T15:56:20.260Z</time>
      </trkpt>
      <trkpt lat="44.8902" lon="6.78713">
        <ele>2128</ele>
        <time>2014-07-31T15:56:22.260Z</time>
      </trkpt>
      <trkpt lat="44.89022" lon="6.78712">
        <ele>2128</ele>
        <time>2014-07-31T15:56:24.280Z</time>
      </trkpt>
      <trkpt lat="44.89023" lon="6.7871">
        <ele>2126</ele>
        <time>2014-07-31T15:56:28.260Z</time>
      </trkpt>
      <trkpt lat="44.89025" lon="6.78708">
        <ele>2126</ele>
        <time>2014-07-31T15:56:30.020Z</time>
      </trkpt>
      <trkpt lat="44.89026" lon="6.78706">
        <ele>2126</ele>
        <time>2014-07-31T15:56:31.260Z</time>
      </trkpt>
      <trkpt lat="44.89028" lon="6.78702">
        <ele>2126</ele>
        <time>2014-07-31T15:56:33.260Z</time>
      </trkpt>
      <trkpt lat="44.8903" lon="6.78697">
        <ele>2126</ele>
        <time>2014-07-31T15:56:35.160Z</time>
      </trkpt>
      <trkpt lat="44.89031" lon="6.78695">
        <ele>2126</ele>
        <time>2014-07-31T15:56:36.260Z</time>
      </trkpt>
      <trkpt lat="44.89033" lon="6.78688">
        <ele>2126</ele>
        <time>2014-07-31T15:56:38.260Z</time>
      </trkpt>
      <trkpt lat="44.89033" lon="6.78682">
        <ele>2126</ele>
        <time>2014-07-31T15:56:40.260Z</time>
      </trkpt>
      <trkpt lat="44.89032" lon="6.78673">
        <ele>2126</ele>
        <time>2014-07-31T15:56:42.240Z</time>
      </trkpt>
      <trkpt lat="44.89031" lon="6.78661">
        <ele>2126</ele>
        <time>2014-07-31T15:56:44.260Z</time>
      </trkpt>
      <trkpt lat="44.89029" lon="6.78644">
        <ele>2124</ele>
        <time>2014-07-31T15:56:46.260Z</time>
      </trkpt>
      <trkpt lat="44.89025" lon="6.78624">
        <ele>2124</ele>
        <time>2014-07-31T15:56:48.260Z</time>
      </trkpt>
      <trkpt lat="44.89024" lon="6.78605">
        <ele>2124</ele>
        <time>2014-07-31T15:56:50.260Z</time>
      </trkpt>
      <trkpt lat="44.89024" lon="6.7859">
        <ele>2124</ele>
        <time>2014-07-31T15:56:52.260Z</time>
      </trkpt>
      <trkpt lat="44.89027" lon="6.78574">
        <ele>2124</ele>
        <time>2014-07-31T15:56:54.240Z</time>
      </trkpt>
      <trkpt lat="44.89035" lon="6.78559">
        <ele>2115.6</ele>
        <time>2014-07-31T15:56:56.160Z</time>
      </trkpt>
      <trkpt lat="44.89039" lon="6.78557">
        <ele>2113.3</ele>
        <time>2014-07-31T15:56:57.260Z</time>
      </trkpt>
      <trkpt lat="44.89046" lon="6.78557">
        <ele>2114</ele>
        <time>2014-07-31T15:56:59.260Z</time>
      </trkpt>
      <trkpt lat="44.8905" lon="6.78558">
        <ele>2113</ele>
        <time>2014-07-31T15:57:01.250Z</time>
      </trkpt>
      <trkpt lat="44.89052" lon="6.78557">
        <ele>2113</ele>
        <time>2014-07-31T15:57:03.260Z</time>
      </trkpt>
      <trkpt lat="44.89055" lon="6.78557">
        <ele>2114</ele>
        <time>2014-07-31T15:57:05.260Z</time>
      </trkpt>
      <trkpt lat="44.89059" lon="6.78557">
        <ele>2114</ele>
        <time>2014-07-31T15:57:07.320Z</time>
      </trkpt>
      <trkpt lat="44.89062" lon="6.78557">
        <ele>2114</ele>
        <time>2014-07-31T15:57:09.260Z</time>
      </trkpt>
      <trkpt lat="44.89065" lon="6.78557">
        <ele>2114</ele>
        <time>2014-07-31T15:57:11.260Z</time>
      </trkpt>
      <trkpt lat="44.89068" lon="6.78557">
        <ele>2114</ele>
        <time>2014-07-31T15:57:13.160Z</time>
      </trkpt>
      <trkpt lat="44.8907" lon="6.78556">
        <ele>2114</ele>
        <time>2014-07-31T15:57:14.260Z</time>
      </trkpt>
      <trkpt lat="44.89072" lon="6.78556">
        <ele>2115</ele>
        <time>2014-07-31T15:57:16.260Z</time>
      </trkpt>
      <trkpt lat="44.89075" lon="6.78555">
        <ele>2115</ele>
        <time>2014-07-31T15:57:18.260Z</time>
      </trkpt>
      <trkpt lat="44.89078" lon="6.78553">
        <ele>2115</ele>
        <time>2014-07-31T15:57:20.260Z</time>
      </trkpt>
      <trkpt lat="44.89081" lon="6.78552">
        <ele>2115</ele>
        <time>2014-07-31T15:57:22.260Z</time>
      </trkpt>
      <trkpt lat="44.89085" lon="6.7855">
        <ele>2115</ele>
        <time>2014-07-31T15:57:24.260Z</time>
      </trkpt>
      <trkpt lat="44.89088" lon="6.78549">
        <ele>2118</ele>
        <time>2014-07-31T15:57:26.260Z</time>
      </trkpt>
      <trkpt lat="44.89091" lon="6.78546">
        <ele>2118</ele>
        <time>2014-07-31T15:57:28.260Z</time>
      </trkpt>
      <trkpt lat="44.89094" lon="6.78543">
        <ele>2118</ele>
        <time>2014-07-31T15:57:30.160Z</time>
      </trkpt>
      <trkpt lat="44.89095" lon="6.78542">
        <ele>2118</ele>
        <time>2014-07-31T15:57:31.260Z</time>
      </trkpt>
      <trkpt lat="44.89099" lon="6.78541">
        <ele>2118</ele>
        <time>2014-07-31T15:57:33.260Z</time>
      </trkpt>
      <trkpt lat="44.89102" lon="6.78539">
        <ele>2118</ele>
        <time>2014-07-31T15:57:35.280Z</time>
      </trkpt>
      <trkpt lat="44.89104" lon="6.78538">
        <ele>2118</ele>
        <time>2014-07-31T15:57:36.260Z</time>
      </trkpt>
      <trkpt lat="44.89106" lon="6.78535">
        <ele>2118</ele>
        <time>2014-07-31T15:57:38.160Z</time>
      </trkpt>
      <trkpt lat="44.8911" lon="6.78529">
        <ele>2118</ele>
        <time>2014-07-31T15:57:40.260Z</time>
      </trkpt>
      <trkpt lat="44.89115" lon="6.78523">
        <ele>2118</ele>
        <time>2014-07-31T15:57:42.260Z</time>
      </trkpt>
      <trkpt lat="44.89122" lon="6.78519">
        <ele>2118</ele>
        <time>2014-07-31T15:57:44.240Z</time>
      </trkpt>
      <trkpt lat="44.89128" lon="6.78517">
        <ele>2118</ele>
        <time>2014-07-31T15:57:46.260Z</time>
      </trkpt>
      <trkpt lat="44.89133" lon="6.78516">
        <ele>2118</ele>
        <time>2014-07-31T15:57:48.260Z</time>
      </trkpt>
      <trkpt lat="44.89139" lon="6.78514">
        <ele>2118</ele>
        <time>2014-07-31T15:57:50.260Z</time>
      </trkpt>
      <trkpt lat="44.89145" lon="6.78513">
        <ele>2118</ele>
        <time>2014-07-31T15:57:52.260Z</time>
      </trkpt>
      <trkpt lat="44.89149" lon="6.78513">
        <ele>2118</ele>
        <time>2014-07-31T15:57:54.260Z</time>
      </trkpt>
      <trkpt lat="44.89153" lon="6.78514">
        <ele>2118</ele>
        <time>2014-07-31T15:57:56.260Z</time>
      </trkpt>
      <trkpt lat="44.89156" lon="6.78515">
        <ele>2118</ele>
        <time>2014-07-31T15:57:58.260Z</time>
      </trkpt>
      <trkpt lat="44.8916" lon="6.78516">
        <ele>2118</ele>
        <time>2014-07-31T15:58:00.290Z</time>
      </trkpt>
      <trkpt lat="44.89164" lon="6.78515">
        <ele>2118</ele>
        <time>2014-07-31T15:58:02.260Z</time>
      </trkpt>
      <trkpt lat="44.89168" lon="6.78514">
        <ele>2118</ele>
        <time>2014-07-31T15:58:04.160Z</time>
      </trkpt>
      <trkpt lat="44.8917" lon="6.78513">
        <ele>2116.6</ele>
        <time>2014-07-31T15:58:05.260Z</time>
      </trkpt>
      <trkpt lat="44.89173" lon="6.78509">
        <ele>2116</ele>
        <time>2014-07-31T15:58:07.180Z</time>
      </trkpt>
      <trkpt lat="44.89177" lon="6.78505">
        <ele>2116</ele>
        <time>2014-07-31T15:58:09.260Z</time>
      </trkpt>
      <trkpt lat="44.89184" lon="6.78497">
        <ele>2116</ele>
        <time>2014-07-31T15:58:11.260Z</time>
      </trkpt>
      <trkpt lat="44.89194" lon="6.78489">
        <ele>2116</ele>
        <time>2014-07-31T15:58:13.260Z</time>
      </trkpt>
      <trkpt lat="44.89201" lon="6.78484">
        <ele>2116</ele>
        <time>2014-07-31T15:58:15.260Z</time>
      </trkpt>
      <trkpt lat="44.89204" lon="6.7848">
        <ele>2116</ele>
        <time>2014-07-31T15:58:17.220Z</time>
      </trkpt>
      <trkpt lat="44.89207" lon="6.78478">
        <ele>2116</ele>
        <time>2014-07-31T15:58:19.260Z</time>
      </trkpt>
      <trkpt lat="44.89209" lon="6.78475">
        <ele>2116</ele>
        <time>2014-07-31T15:58:21.160Z</time>
      </trkpt>
      <trkpt lat="44.8921" lon="6.78473">
        <ele>2116</ele>
        <time>2014-07-31T15:58:22.260Z</time>
      </trkpt>
      <trkpt lat="44.89212" lon="6.7847">
        <ele>2116</ele>
        <time>2014-07-31T15:58:24.260Z</time>
      </trkpt>
      <trkpt lat="44.89213" lon="6.78467">
        <ele>2118</ele>
        <time>2014-07-31T15:58:26.260Z</time>
      </trkpt>
      <trkpt lat="44.89215" lon="6.78464">
        <ele>2118</ele>
        <time>2014-07-31T15:58:28.260Z</time>
      </trkpt>
      <trkpt lat="44.89217" lon="6.7846">
        <ele>2118</ele>
        <time>2014-07-31T15:58:30.260Z</time>
      </trkpt>
      <trkpt lat="44.89217" lon="6.78457">
        <ele>2118</ele>
        <time>2014-07-31T15:58:32.260Z</time>
      </trkpt>
      <trkpt lat="44.89217" lon="6.78454">
        <ele>2118</ele>
        <time>2014-07-31T15:58:34.050Z</time>
      </trkpt>
      <trkpt lat="44.89218" lon="6.78452">
        <ele>2118.7</ele>
        <time>2014-07-31T15:58:35.260Z</time>
      </trkpt>
      <trkpt lat="44.89218" lon="6.78449">
        <ele>2119</ele>
        <time>2014-07-31T15:58:37.160Z</time>
      </trkpt>
      <trkpt lat="44.89218" lon="6.78447">
        <ele>2119</ele>
        <time>2014-07-31T15:58:38.260Z</time>
      </trkpt>
      <trkpt lat="44.8922" lon="6.78443">
        <ele>2119</ele>
        <time>2014-07-31T15:58:40.260Z</time>
      </trkpt>
      <trkpt lat="44.89222" lon="6.78441">
        <ele>2119</ele>
        <time>2014-07-31T15:58:42.260Z</time>
      </trkpt>
      <trkpt lat="44.89223" lon="6.78438">
        <ele>2119</ele>
        <time>2014-07-31T15:58:44.260Z</time>
      </trkpt>
      <trkpt lat="44.89224" lon="6.78434">
        <ele>2120</ele>
        <time>2014-07-31T15:58:46.120Z</time>
      </trkpt>
      <trkpt lat="44.89225" lon="6.78433">
        <ele>2120</ele>
        <time>2014-07-31T15:58:47.260Z</time>
      </trkpt>
      <trkpt lat="44.89226" lon="6.7843">
        <ele>2120</ele>
        <time>2014-07-31T15:58:49.260Z</time>
      </trkpt>
      <trkpt lat="44.89227" lon="6.78427">
        <ele>2120</ele>
        <time>2014-07-31T15:58:51.220Z</time>
      </trkpt>
      <trkpt lat="44.89228" lon="6.78424">
        <ele>2120</ele>
        <time>2014-07-31T15:58:53.380Z</time>
      </trkpt>
      <trkpt lat="44.89229" lon="6.7842">
        <ele>2120</ele>
        <time>2014-07-31T15:58:55.260Z</time>
      </trkpt>
      <trkpt lat="44.89229" lon="6.78417">
        <ele>2120</ele>
        <time>2014-07-31T15:58:57.260Z</time>
      </trkpt>
      <trkpt lat="44.89228" lon="6.78412">
        <ele>2120</ele>
        <time>2014-07-31T15:58:59.160Z</time>
      </trkpt>
      <trkpt lat="44.89228" lon="6.7841">
        <ele>2120</ele>
        <time>2014-07-31T15:59:00.220Z</time>
      </trkpt>
      <trkpt lat="44.89226" lon="6.78407">
        <ele>2120</ele>
        <time>2014-07-31T15:59:02.260Z</time>
      </trkpt>
      <trkpt lat="44.89225" lon="6.78403">
        <ele>2120</ele>
        <time>2014-07-31T15:59:04.260Z</time>
      </trkpt>
      <trkpt lat="44.89224" lon="6.78401">
        <ele>2121</ele>
        <time>2014-07-31T15:59:06.380Z</time>
      </trkpt>
      <trkpt lat="44.89224" lon="6.78399">
        <ele>2121</ele>
        <time>2014-07-31T15:59:08.240Z</time>
      </trkpt>
      <trkpt lat="44.89224" lon="6.78396">
        <ele>2121</ele>
        <time>2014-07-31T15:59:10.260Z</time>
      </trkpt>
      <trkpt lat="44.89226" lon="6.78394">
        <ele>2121</ele>
        <time>2014-07-31T15:59:12.260Z</time>
      </trkpt>
      <trkpt lat="44.89227" lon="6.78392">
        <ele>2121</ele>
        <time>2014-07-31T15:59:14.260Z</time>
      </trkpt>
      <trkpt lat="44.89227" lon="6.7839">
        <ele>2122</ele>
        <time>2014-07-31T15:59:16.160Z</time>
      </trkpt>
      <trkpt lat="44.89225" lon="6.78387">
        <ele>2122</ele>
        <time>2014-07-31T15:59:19.260Z</time>
      </trkpt>
      <trkpt lat="44.89224" lon="6.78384">
        <ele>2122</ele>
        <time>2014-07-31T15:59:21.240Z</time>
      </trkpt>
      <trkpt lat="44.89224" lon="6.78382">
        <ele>2122</ele>
        <time>2014-07-31T15:59:23.260Z</time>
      </trkpt>
      <trkpt lat="44.89224" lon="6.78379">
        <ele>2122.7</ele>
        <time>2014-07-31T15:59:25.260Z</time>
      </trkpt>
      <trkpt lat="44.89224" lon="6.78376">
        <ele>2123</ele>
        <time>2014-07-31T15:59:27.260Z</time>
      </trkpt>
      <trkpt lat="44.89225" lon="6.78375">
        <ele>2123</ele>
        <time>2014-07-31T15:59:29.160Z</time>
      </trkpt>
      <trkpt lat="44.89227" lon="6.78373">
        <ele>2123</ele>
        <time>2014-07-31T15:59:32.260Z</time>
      </trkpt>
      <trkpt lat="44.89228" lon="6.78373">
        <ele>2123</ele>
        <time>2014-07-31T15:59:34.020Z</time>
      </trkpt>
      <trkpt lat="44.8923" lon="6.78372">
        <ele>2125</ele>
        <time>2014-07-31T15:59:37.220Z</time>
      </trkpt>
      <trkpt lat="44.89232" lon="6.78371">
        <ele>2125</ele>
        <time>2014-07-31T15:59:39.260Z</time>
      </trkpt>
      <trkpt lat="44.89233" lon="6.78371">
        <ele>2125</ele>
        <time>2014-07-31T15:59:41.260Z</time>
      </trkpt>
      <trkpt lat="44.89235" lon="6.7837">
        <ele>2125</ele>
        <time>2014-07-31T15:59:43.260Z</time>
      </trkpt>
      <trkpt lat="44.89237" lon="6.78369">
        <ele>2125.7</ele>
        <time>2014-07-31T15:59:45.260Z</time>
      </trkpt>
      <trkpt lat="44.89239" lon="6.78367">
        <ele>2126</ele>
        <time>2014-07-31T15:59:47.260Z</time>
      </trkpt>
      <trkpt lat="44.89241" lon="6.78367">
        <ele>2126</ele>
        <time>2014-07-31T15:59:49.260Z</time>
      </trkpt>
      <trkpt lat="44.89243" lon="6.78367">
        <ele>2126</ele>
        <time>2014-07-31T15:59:51.220Z</time>
      </trkpt>
      <trkpt lat="44.89244" lon="6.78367">
        <ele>2126</ele>
        <time>2014-07-31T15:59:53.260Z</time>
      </trkpt>
      <trkpt lat="44.89246" lon="6.78367">
        <ele>2126.7</ele>
        <time>2014-07-31T15:59:55.260Z</time>
      </trkpt>
      <trkpt lat="44.89248" lon="6.78367">
        <ele>2127</ele>
        <time>2014-07-31T15:59:57.130Z</time>
      </trkpt>
      <trkpt lat="44.89249" lon="6.78367">
        <ele>2127</ele>
        <time>2014-07-31T15:59:58.160Z</time>
      </trkpt>
      <trkpt lat="44.89251" lon="6.78367">
        <ele>2127</ele>
        <time>2014-07-31T15:59:59.240Z</time>
      </trkpt>
      <trkpt lat="44.89253" lon="6.78366">
        <ele>2127</ele>
        <time>2014-07-31T16:00:01.150Z</time>
      </trkpt>
      <trkpt lat="44.89254" lon="6.78366">
        <ele>2127</ele>
        <time>2014-07-31T16:00:02.260Z</time>
      </trkpt>
      <trkpt lat="44.89256" lon="6.78366">
        <ele>2127</ele>
        <time>2014-07-31T16:00:04.260Z</time>
      </trkpt>
      <trkpt lat="44.89258" lon="6.78367">
        <ele>2128</ele>
        <time>2014-07-31T16:00:06.260Z</time>
      </trkpt>
      <trkpt lat="44.8926" lon="6.78367">
        <ele>2128</ele>
        <time>2014-07-31T16:00:08.260Z</time>
      </trkpt>
      <trkpt lat="44.89263" lon="6.78367">
        <ele>2128</ele>
        <time>2014-07-31T16:00:10.260Z</time>
      </trkpt>
      <trkpt lat="44.89264" lon="6.78367">
        <ele>2128</ele>
        <time>2014-07-31T16:00:12.260Z</time>
      </trkpt>
      <trkpt lat="44.89266" lon="6.78367">
        <ele>2128</ele>
        <time>2014-07-31T16:00:14.260Z</time>
      </trkpt>
      <trkpt lat="44.89268" lon="6.78367">
        <ele>2129</ele>
        <time>2014-07-31T16:00:16.260Z</time>
      </trkpt>
      <trkpt lat="44.89269" lon="6.78367">
        <ele>2129</ele>
        <time>2014-07-31T16:00:18.260Z</time>
      </trkpt>
      <trkpt lat="44.89271" lon="6.78367">
        <ele>2129</ele>
        <time>2014-07-31T16:00:20.160Z</time>
      </trkpt>
      <trkpt lat="44.89273" lon="6.78368">
        <ele>2129</ele>
        <time>2014-07-31T16:00:23.260Z</time>
      </trkpt>
      <trkpt lat="44.89275" lon="6.78366">
        <ele>2129.7</ele>
        <time>2014-07-31T16:00:25.260Z</time>
      </trkpt>
      <trkpt lat="44.89277" lon="6.78365">
        <ele>2130</ele>
        <time>2014-07-31T16:00:27.260Z</time>
      </trkpt>
      <trkpt lat="44.89278" lon="6.78363">
        <ele>2130</ele>
        <time>2014-07-31T16:00:29.260Z</time>
      </trkpt>
      <trkpt lat="44.89278" lon="6.78361">
        <ele>2130</ele>
        <time>2014-07-31T16:00:31.260Z</time>
      </trkpt>
      <trkpt lat="44.89279" lon="6.78358">
        <ele>2130</ele>
        <time>2014-07-31T16:00:33.260Z</time>
      </trkpt>
      <trkpt lat="44.89279" lon="6.78356">
        <ele>2130.7</ele>
        <time>2014-07-31T16:00:35.260Z</time>
      </trkpt>
      <trkpt lat="44.8928" lon="6.78353">
        <ele>2131</ele>
        <time>2014-07-31T16:00:37.260Z</time>
      </trkpt>
      <trkpt lat="44.89281" lon="6.78351">
        <ele>2131</ele>
        <time>2014-07-31T16:00:39.260Z</time>
      </trkpt>
      <trkpt lat="44.89283" lon="6.78352">
        <ele>2131</ele>
        <time>2014-07-31T16:00:41.260Z</time>
      </trkpt>
      <trkpt lat="44.89285" lon="6.78353">
        <ele>2131</ele>
        <time>2014-07-31T16:00:43.260Z</time>
      </trkpt>
      <trkpt lat="44.89287" lon="6.78354">
        <ele>2131.6</ele>
        <time>2014-07-31T16:00:45.220Z</time>
      </trkpt>
      <trkpt lat="44.89287" lon="6.78355">
        <ele>2132</ele>
        <time>2014-07-31T16:00:47.260Z</time>
      </trkpt>
      <trkpt lat="44.89289" lon="6.78356">
        <ele>2132</ele>
        <time>2014-07-31T16:00:49.260Z</time>
      </trkpt>
      <trkpt lat="44.8929" lon="6.78358">
        <ele>2132</ele>
        <time>2014-07-31T16:00:51.220Z</time>
      </trkpt>
      <trkpt lat="44.89291" lon="6.7836">
        <ele>2132</ele>
        <time>2014-07-31T16:00:53.260Z</time>
      </trkpt>
      <trkpt lat="44.89292" lon="6.78363">
        <ele>2133.4</ele>
        <time>2014-07-31T16:00:55.260Z</time>
      </trkpt>
      <trkpt lat="44.89294" lon="6.78364">
        <ele>2134</ele>
        <time>2014-07-31T16:00:57.260Z</time>
      </trkpt>
      <trkpt lat="44.89296" lon="6.78365">
        <ele>2134</ele>
        <time>2014-07-31T16:00:59.260Z</time>
      </trkpt>
      <trkpt lat="44.89297" lon="6.78366">
        <ele>2134</ele>
        <time>2014-07-31T16:01:01.250Z</time>
      </trkpt>
      <trkpt lat="44.89299" lon="6.78367">
        <ele>2134</ele>
        <time>2014-07-31T16:01:03.260Z</time>
      </trkpt>
      <trkpt lat="44.89301" lon="6.78368">
        <ele>2134</ele>
        <time>2014-07-31T16:01:05.260Z</time>
      </trkpt>
      <trkpt lat="44.89303" lon="6.78368">
        <ele>2134</ele>
        <time>2014-07-31T16:01:07.260Z</time>
      </trkpt>
      <trkpt lat="44.89305" lon="6.78368">
        <ele>2134</ele>
        <time>2014-07-31T16:01:09.260Z</time>
      </trkpt>
      <trkpt lat="44.89306" lon="6.78369">
        <ele>2134</ele>
        <time>2014-07-31T16:01:11.260Z</time>
      </trkpt>
      <trkpt lat="44.89309" lon="6.78368">
        <ele>2134.7</ele>
        <time>2014-07-31T16:01:15.260Z</time>
      </trkpt>
      <trkpt lat="44.89312" lon="6.7837">
        <ele>2135</ele>
        <time>2014-07-31T16:01:17.220Z</time>
      </trkpt>
      <trkpt lat="44.89314" lon="6.7837">
        <ele>2135</ele>
        <time>2014-07-31T16:01:19.220Z</time>
      </trkpt>
      <trkpt lat="44.89317" lon="6.78371">
        <ele>2135</ele>
        <time>2014-07-31T16:01:21.260Z</time>
      </trkpt>
      <trkpt lat="44.89321" lon="6.78371">
        <ele>2135</ele>
        <time>2014-07-31T16:01:23.260Z</time>
      </trkpt>
      <trkpt lat="44.89324" lon="6.78371">
        <ele>2135</ele>
        <time>2014-07-31T16:01:25.240Z</time>
      </trkpt>
      <trkpt lat="44.89328" lon="6.7837">
        <ele>2135</ele>
        <time>2014-07-31T16:01:27.260Z</time>
      </trkpt>
      <trkpt lat="44.89331" lon="6.78369">
        <ele>2135</ele>
        <time>2014-07-31T16:01:29.280Z</time>
      </trkpt>
      <trkpt lat="44.89332" lon="6.78369">
        <ele>2135</ele>
        <time>2014-07-31T16:01:30.260Z</time>
      </trkpt>
      <trkpt lat="44.89336" lon="6.78368">
        <ele>2135</ele>
        <time>2014-07-31T16:01:32.260Z</time>
      </trkpt>
      <trkpt lat="44.89338" lon="6.78367">
        <ele>2135</ele>
        <time>2014-07-31T16:01:34.220Z</time>
      </trkpt>
      <trkpt lat="44.8934" lon="6.78366">
        <ele>2136</ele>
        <time>2014-07-31T16:01:36.220Z</time>
      </trkpt>
      <trkpt lat="44.89343" lon="6.78364">
        <ele>2136</ele>
        <time>2014-07-31T16:01:38.240Z</time>
      </trkpt>
      <trkpt lat="44.89346" lon="6.78362">
        <ele>2136</ele>
        <time>2014-07-31T16:01:40.260Z</time>
      </trkpt>
      <trkpt lat="44.89348" lon="6.7836">
        <ele>2136</ele>
        <time>2014-07-31T16:01:42.140Z</time>
      </trkpt>
      <trkpt lat="44.89349" lon="6.78358">
        <ele>2136</ele>
        <time>2014-07-31T16:01:43.160Z</time>
      </trkpt>
      <trkpt lat="44.8935" lon="6.78357">
        <ele>2136</ele>
        <time>2014-07-31T16:01:44.260Z</time>
      </trkpt>
      <trkpt lat="44.89352" lon="6.78353">
        <ele>2137</ele>
        <time>2014-07-31T16:01:46.260Z</time>
      </trkpt>
      <trkpt lat="44.89354" lon="6.78349">
        <ele>2137</ele>
        <time>2014-07-31T16:01:48.260Z</time>
      </trkpt>
      <trkpt lat="44.89355" lon="6.78345">
        <ele>2137</ele>
        <time>2014-07-31T16:01:50.240Z</time>
      </trkpt>
      <trkpt lat="44.89356" lon="6.78342">
        <ele>2137</ele>
        <time>2014-07-31T16:01:52.260Z</time>
      </trkpt>
      <trkpt lat="44.89358" lon="6.78339">
        <ele>2137</ele>
        <time>2014-07-31T16:01:54.260Z</time>
      </trkpt>
      <trkpt lat="44.89361" lon="6.78337">
        <ele>2139</ele>
        <time>2014-07-31T16:01:56.280Z</time>
      </trkpt>
      <trkpt lat="44.89362" lon="6.78336">
        <ele>2139</ele>
        <time>2014-07-31T16:01:57.260Z</time>
      </trkpt>
      <trkpt lat="44.89364" lon="6.78334">
        <ele>2139</ele>
        <time>2014-07-31T16:01:59.260Z</time>
      </trkpt>
      <trkpt lat="44.89366" lon="6.78332">
        <ele>2139</ele>
        <time>2014-07-31T16:02:01.150Z</time>
      </trkpt>
      <trkpt lat="44.89367" lon="6.78331">
        <ele>2139</ele>
        <time>2014-07-31T16:02:02.260Z</time>
      </trkpt>
      <trkpt lat="44.89369" lon="6.78328">
        <ele>2139</ele>
        <time>2014-07-31T16:02:04.260Z</time>
      </trkpt>
      <trkpt lat="44.8937" lon="6.78324">
        <ele>2140</ele>
        <time>2014-07-31T16:02:06.260Z</time>
      </trkpt>
      <trkpt lat="44.89373" lon="6.78321">
        <ele>2140</ele>
        <time>2014-07-31T16:02:08.260Z</time>
      </trkpt>
      <trkpt lat="44.89375" lon="6.78319">
        <ele>2140</ele>
        <time>2014-07-31T16:02:10.120Z</time>
      </trkpt>
      <trkpt lat="44.89376" lon="6.78319">
        <ele>2140</ele>
        <time>2014-07-31T16:02:11.260Z</time>
      </trkpt>
      <trkpt lat="44.89379" lon="6.78319">
        <ele>2140</ele>
        <time>2014-07-31T16:02:13.240Z</time>
      </trkpt>
      <trkpt lat="44.89381" lon="6.78319">
        <ele>2141.4</ele>
        <time>2014-07-31T16:02:15.260Z</time>
      </trkpt>
      <trkpt lat="44.89382" lon="6.78319">
        <ele>2142</ele>
        <time>2014-07-31T16:02:19.260Z</time>
      </trkpt>
      <trkpt lat="44.89383" lon="6.78319">
        <ele>2142</ele>
        <time>2014-07-31T16:02:21.260Z</time>
      </trkpt>
      <trkpt lat="44.89385" lon="6.78319">
        <ele>2142</ele>
        <time>2014-07-31T16:02:23.260Z</time>
      </trkpt>
      <trkpt lat="44.89388" lon="6.78319">
        <ele>2142</ele>
        <time>2014-07-31T16:02:25.260Z</time>
      </trkpt>
      <trkpt lat="44.8939" lon="6.78319">
        <ele>2142</ele>
        <time>2014-07-31T16:02:27.220Z</time>
      </trkpt>
      <trkpt lat="44.89391" lon="6.78319">
        <ele>2142</ele>
        <time>2014-07-31T16:02:29.160Z</time>
      </trkpt>
      <trkpt lat="44.89392" lon="6.78319">
        <ele>2142</ele>
        <time>2014-07-31T16:02:30.260Z</time>
      </trkpt>
      <trkpt lat="44.89396" lon="6.7832">
        <ele>2142</ele>
        <time>2014-07-31T16:02:32.260Z</time>
      </trkpt>
      <trkpt lat="44.89399" lon="6.78321">
        <ele>2142</ele>
        <time>2014-07-31T16:02:34.220Z</time>
      </trkpt>
      <trkpt lat="44.89403" lon="6.78322">
        <ele>2142</ele>
        <time>2014-07-31T16:02:36.260Z</time>
      </trkpt>
      <trkpt lat="44.89407" lon="6.78322">
        <ele>2142</ele>
        <time>2014-07-31T16:02:38.160Z</time>
      </trkpt>
      <trkpt lat="44.89409" lon="6.78322">
        <ele>2142</ele>
        <time>2014-07-31T16:02:39.260Z</time>
      </trkpt>
      <trkpt lat="44.89413" lon="6.7832">
        <ele>2142</ele>
        <time>2014-07-31T16:02:41.260Z</time>
      </trkpt>
      <trkpt lat="44.89416" lon="6.78319">
        <ele>2142</ele>
        <time>2014-07-31T16:02:43.260Z</time>
      </trkpt>
      <trkpt lat="44.89419" lon="6.78317">
        <ele>2142</ele>
        <time>2014-07-31T16:02:45.260Z</time>
      </trkpt>
      <trkpt lat="44.89422" lon="6.78315">
        <ele>2142</ele>
        <time>2014-07-31T16:02:47.260Z</time>
      </trkpt>
      <trkpt lat="44.89425" lon="6.78313">
        <ele>2142</ele>
        <time>2014-07-31T16:02:49.260Z</time>
      </trkpt>
      <trkpt lat="44.89429" lon="6.78312">
        <ele>2142</ele>
        <time>2014-07-31T16:02:51.080Z</time>
      </trkpt>
      <trkpt lat="44.8943" lon="6.78312">
        <ele>2142</ele>
        <time>2014-07-31T16:02:52.260Z</time>
      </trkpt>
      <trkpt lat="44.89434" lon="6.78312">
        <ele>2142</ele>
        <time>2014-07-31T16:02:54.260Z</time>
      </trkpt>
      <trkpt lat="44.89437" lon="6.78312">
        <ele>2142</ele>
        <time>2014-07-31T16:02:56.260Z</time>
      </trkpt>
      <trkpt lat="44.8944" lon="6.78312">
        <ele>2142</ele>
        <time>2014-07-31T16:02:58.260Z</time>
      </trkpt>
      <trkpt lat="44.89444" lon="6.78312">
        <ele>2142</ele>
        <time>2014-07-31T16:03:00.050Z</time>
      </trkpt>
      <trkpt lat="44.89445" lon="6.78312">
        <ele>2142</ele>
        <time>2014-07-31T16:03:01.190Z</time>
      </trkpt>
      <trkpt lat="44.89448" lon="6.78312">
        <ele>2142</ele>
        <time>2014-07-31T16:03:03.160Z</time>
      </trkpt>
      <trkpt lat="44.8945" lon="6.78312">
        <ele>2142</ele>
        <time>2014-07-31T16:03:04.260Z</time>
      </trkpt>
      <trkpt lat="44.89453" lon="6.78312">
        <ele>2145</ele>
        <time>2014-07-31T16:03:06.260Z</time>
      </trkpt>
      <trkpt lat="44.89455" lon="6.78311">
        <ele>2145</ele>
        <time>2014-07-31T16:03:08.260Z</time>
      </trkpt>
      <trkpt lat="44.89458" lon="6.78311">
        <ele>2145</ele>
        <time>2014-07-31T16:03:10.260Z</time>
      </trkpt>
      <trkpt lat="44.89461" lon="6.7831">
        <ele>2145</ele>
        <time>2014-07-31T16:03:12.160Z</time>
      </trkpt>
      <trkpt lat="44.89463" lon="6.7831">
        <ele>2145</ele>
        <time>2014-07-31T16:03:13.260Z</time>
      </trkpt>
      <trkpt lat="44.89466" lon="6.78309">
        <ele>2145.7</ele>
        <time>2014-07-31T16:03:15.260Z</time>
      </trkpt>
      <trkpt lat="44.89471" lon="6.78308">
        <ele>2146</ele>
        <time>2014-07-31T16:03:17.220Z</time>
      </trkpt>
      <trkpt lat="44.89475" lon="6.78307">
        <ele>2146</ele>
        <time>2014-07-31T16:03:19.260Z</time>
      </trkpt>
      <trkpt lat="44.89479" lon="6.78307">
        <ele>2146</ele>
        <time>2014-07-31T16:03:21.260Z</time>
      </trkpt>
      <trkpt lat="44.89482" lon="6.78306">
        <ele>2146</ele>
        <time>2014-07-31T16:03:23.260Z</time>
      </trkpt>
      <trkpt lat="44.89485" lon="6.78306">
        <ele>2146</ele>
        <time>2014-07-31T16:03:25.160Z</time>
      </trkpt>
      <trkpt lat="44.89489" lon="6.78305">
        <ele>2146</ele>
        <time>2014-07-31T16:03:27.260Z</time>
      </trkpt>
      <trkpt lat="44.89493" lon="6.78305">
        <ele>2146</ele>
        <time>2014-07-31T16:03:29.260Z</time>
      </trkpt>
      <trkpt lat="44.895" lon="6.78306">
        <ele>2146</ele>
        <time>2014-07-31T16:03:31.260Z</time>
      </trkpt>
      <trkpt lat="44.89505" lon="6.78308">
        <ele>2146</ele>
        <time>2014-07-31T16:03:33.160Z</time>
      </trkpt>
      <trkpt lat="44.89508" lon="6.78307">
        <ele>2146</ele>
        <time>2014-07-31T16:03:34.220Z</time>
      </trkpt>
      <trkpt lat="44.89511" lon="6.78307">
        <ele>2146</ele>
        <time>2014-07-31T16:03:36.260Z</time>
      </trkpt>
      <trkpt lat="44.89515" lon="6.78307">
        <ele>2146</ele>
        <time>2014-07-31T16:03:38.350Z</time>
      </trkpt>
      <trkpt lat="44.89517" lon="6.78307">
        <ele>2146</ele>
        <time>2014-07-31T16:03:40.260Z</time>
      </trkpt>
      <trkpt lat="44.89518" lon="6.78307">
        <ele>2146</ele>
        <time>2014-07-31T16:03:42.260Z</time>
      </trkpt>
      <trkpt lat="44.89519" lon="6.78306">
        <ele>2146</ele>
        <time>2014-07-31T16:03:44.260Z</time>
      </trkpt>
      <trkpt lat="44.8952" lon="6.78306">
        <ele>2145</ele>
        <time>2014-07-31T16:03:46.160Z</time>
      </trkpt>
      <trkpt lat="44.89521" lon="6.78306">
        <ele>2145</ele>
        <time>2014-07-31T16:03:49.260Z</time>
      </trkpt>
      <trkpt lat="44.89523" lon="6.78307">
        <ele>2145</ele>
        <time>2014-07-31T16:03:51.120Z</time>
      </trkpt>
      <trkpt lat="44.89524" lon="6.78307">
        <ele>2145</ele>
        <time>2014-07-31T16:03:52.160Z</time>
      </trkpt>
      <trkpt lat="44.89527" lon="6.78307">
        <ele>2145</ele>
        <time>2014-07-31T16:03:54.260Z</time>
      </trkpt>
      <trkpt lat="44.89535" lon="6.78308">
        <ele>2144</ele>
        <time>2014-07-31T16:03:56.260Z</time>
      </trkpt>
      <trkpt lat="44.89543" lon="6.78309">
        <ele>2144</ele>
        <time>2014-07-31T16:03:58.260Z</time>
      </trkpt>
      <trkpt lat="44.89553" lon="6.78308">
        <ele>2144</ele>
        <time>2014-07-31T16:04:00.220Z</time>
      </trkpt>
      <trkpt lat="44.89562" lon="6.78308">
        <ele>2144</ele>
        <time>2014-07-31T16:04:02.260Z</time>
      </trkpt>
      <trkpt lat="44.89572" lon="6.78308">
        <ele>2144</ele>
        <time>2014-07-31T16:04:04.140Z</time>
      </trkpt>
      <trkpt lat="44.89577" lon="6.78308">
        <ele>2141.3</ele>
        <time>2014-07-31T16:04:05.260Z</time>
      </trkpt>
      <trkpt lat="44.89582" lon="6.78309">
        <ele>2140</ele>
        <time>2014-07-31T16:04:06.350Z</time>
      </trkpt>
      <trkpt lat="44.89592" lon="6.78312">
        <ele>2140</ele>
        <time>2014-07-31T16:04:08.260Z</time>
      </trkpt>
      <trkpt lat="44.89601" lon="6.78315">
        <ele>2139.3</ele>
        <time>2014-07-31T16:04:10.260Z</time>
      </trkpt>
      <trkpt lat="44.89608" lon="6.78317">
        <ele>2139</ele>
        <time>2014-07-31T16:04:12.260Z</time>
      </trkpt>
      <trkpt lat="44.89614" lon="6.7832">
        <ele>2139</ele>
        <time>2014-07-31T16:04:14.260Z</time>
      </trkpt>
      <trkpt lat="44.8962" lon="6.78321">
        <ele>2138</ele>
        <time>2014-07-31T16:04:16.160Z</time>
      </trkpt>
      <trkpt lat="44.89623" lon="6.78322">
        <ele>2138</ele>
        <time>2014-07-31T16:04:17.180Z</time>
      </trkpt>
      <trkpt lat="44.8963" lon="6.78325">
        <ele>2138</ele>
        <time>2014-07-31T16:04:19.260Z</time>
      </trkpt>
      <trkpt lat="44.89636" lon="6.78326">
        <ele>2138</ele>
        <time>2014-07-31T16:04:21.260Z</time>
      </trkpt>
      <trkpt lat="44.89642" lon="6.78327">
        <ele>2138</ele>
        <time>2014-07-31T16:04:23.260Z</time>
      </trkpt>
      <trkpt lat="44.89648" lon="6.78328">
        <ele>2137.3</ele>
        <time>2014-07-31T16:04:25.260Z</time>
      </trkpt>
      <trkpt lat="44.89653" lon="6.7833">
        <ele>2137</ele>
        <time>2014-07-31T16:04:27.260Z</time>
      </trkpt>
      <trkpt lat="44.89658" lon="6.78333">
        <ele>2137</ele>
        <time>2014-07-31T16:04:29.240Z</time>
      </trkpt>
      <trkpt lat="44.89663" lon="6.78334">
        <ele>2137</ele>
        <time>2014-07-31T16:04:31.260Z</time>
      </trkpt>
      <trkpt lat="44.89668" lon="6.78334">
        <ele>2137</ele>
        <time>2014-07-31T16:04:33.260Z</time>
      </trkpt>
      <trkpt lat="44.89673" lon="6.78333">
        <ele>2136.3</ele>
        <time>2014-07-31T16:04:35.260Z</time>
      </trkpt>
      <trkpt lat="44.89678" lon="6.78333">
        <ele>2136</ele>
        <time>2014-07-31T16:04:37.160Z</time>
      </trkpt>
      <trkpt lat="44.8968" lon="6.78334">
        <ele>2136</ele>
        <time>2014-07-31T16:04:38.260Z</time>
      </trkpt>
      <trkpt lat="44.89686" lon="6.78337">
        <ele>2136</ele>
        <time>2014-07-31T16:04:40.260Z</time>
      </trkpt>
      <trkpt lat="44.8969" lon="6.78336">
        <ele>2136</ele>
        <time>2014-07-31T16:04:42.240Z</time>
      </trkpt>
      <trkpt lat="44.89695" lon="6.78335">
        <ele>2136</ele>
        <time>2014-07-31T16:04:44.260Z</time>
      </trkpt>
      <trkpt lat="44.89699" lon="6.78335">
        <ele>2135</ele>
        <time>2014-07-31T16:04:46.260Z</time>
      </trkpt>
      <trkpt lat="44.89703" lon="6.78337">
        <ele>2135</ele>
        <time>2014-07-31T16:04:48.260Z</time>
      </trkpt>
      <trkpt lat="44.89707" lon="6.78342">
        <ele>2135</ele>
        <time>2014-07-31T16:04:50.160Z</time>
      </trkpt>
      <trkpt lat="44.89711" lon="6.78343">
        <ele>2135</ele>
        <time>2014-07-31T16:04:52.260Z</time>
      </trkpt>
      <trkpt lat="44.89713" lon="6.78341">
        <ele>2135</ele>
        <time>2014-07-31T16:04:54.260Z</time>
      </trkpt>
      <trkpt lat="44.89715" lon="6.78338">
        <ele>2134</ele>
        <time>2014-07-31T16:04:56.260Z</time>
      </trkpt>
      <trkpt lat="44.89717" lon="6.78336">
        <ele>2134</ele>
        <time>2014-07-31T16:04:58.260Z</time>
      </trkpt>
      <trkpt lat="44.89719" lon="6.78333">
        <ele>2134</ele>
        <time>2014-07-31T16:05:00.240Z</time>
      </trkpt>
      <trkpt lat="44.89721" lon="6.78332">
        <ele>2134</ele>
        <time>2014-07-31T16:05:02.260Z</time>
      </trkpt>
      <trkpt lat="44.89722" lon="6.78331">
        <ele>2134</ele>
        <time>2014-07-31T16:05:04.260Z</time>
      </trkpt>
      <trkpt lat="44.89722" lon="6.78329">
        <ele>2134</ele>
        <time>2014-07-31T16:05:06.260Z</time>
      </trkpt>
      <trkpt lat="44.89723" lon="6.78331">
        <ele>2133</ele>
        <time>2014-07-31T16:05:19.260Z</time>
      </trkpt>
      <trkpt lat="44.89723" lon="6.7833">
        <ele>2132</ele>
        <time>2014-07-31T16:05:26.260Z</time>
      </trkpt>
      <trkpt lat="44.89724" lon="6.78329">
        <ele>2132</ele>
        <time>2014-07-31T16:05:30.260Z</time>
      </trkpt>
      <trkpt lat="44.89723" lon="6.78331">
        <ele>2132</ele>
        <time>2014-07-31T16:05:34.140Z</time>
      </trkpt>
      <trkpt lat="44.89722" lon="6.78333">
        <ele>2133</ele>
        <time>2014-07-31T16:05:37.160Z</time>
      </trkpt>
      <trkpt lat="44.89723" lon="6.78334">
        <ele>2133</ele>
        <time>2014-07-31T16:05:41.260Z</time>
      </trkpt>
      <trkpt lat="44.89722" lon="6.78333">
        <ele>2132</ele>
        <time>2014-07-31T16:05:52.360Z</time>
      </trkpt>
      <trkpt lat="44.89721" lon="6.78332">
        <ele>2132</ele>
        <time>2014-07-31T16:05:54.160Z</time>
      </trkpt>
      <trkpt lat="44.89722" lon="6.78332">
        <ele>2132</ele>
        <time>2014-07-31T16:06:00.220Z</time>
      </trkpt>
      <trkpt lat="44.89721" lon="6.78333">
        <ele>2132</ele>
        <time>2014-07-31T16:06:07.260Z</time>
      </trkpt>
      <trkpt lat="44.89721" lon="6.78332">
        <ele>2133</ele>
        <time>2014-07-31T16:06:28.260Z</time>
      </trkpt>
      <trkpt lat="44.89721" lon="6.78332">
        <ele>2132</ele>
        <time>2014-07-31T16:07:00.120Z</time>
      </trkpt>
      <trkpt lat="44.89722" lon="6.78333">
        <ele>2132</ele>
        <time>2014-07-31T16:07:47.260Z</time>
      </trkpt>
      <trkpt lat="44.89722" lon="6.78333">
        <ele>2131</ele>
        <time>2014-07-31T16:08:01.260Z</time>
      </trkpt>
      <trkpt lat="44.89723" lon="6.78333">
        <ele>2131</ele>
        <time>2014-07-31T16:08:11.260Z</time>
      </trkpt>
      <trkpt lat="44.89724" lon="6.78332">
        <ele>2131.7</ele>
        <time>2014-07-31T16:08:15.240Z</time>
      </trkpt>
      <trkpt lat="44.89723" lon="6.78332">
        <ele>2132</ele>
        <time>2014-07-31T16:08:31.260Z</time>
      </trkpt>
      <trkpt lat="44.89723" lon="6.78333">
        <ele>2132</ele>
        <time>2014-07-31T16:08:39.260Z</time>
      </trkpt>
      <trkpt lat="44.89722" lon="6.78332">
        <ele>2133</ele>
        <time>2014-07-31T16:09:00.220Z</time>
      </trkpt>
      <trkpt lat="44.89721" lon="6.78332">
        <ele>2133</ele>
        <time>2014-07-31T16:09:12.260Z</time>
      </trkpt>
      <trkpt lat="44.89722" lon="6.78331">
        <ele>2131</ele>
        <time>2014-07-31T16:09:26.260Z</time>
      </trkpt>
      <trkpt lat="44.89722" lon="6.78329">
        <ele>2131</ele>
        <time>2014-07-31T16:09:33.260Z</time>
      </trkpt>
      <trkpt lat="44.89723" lon="6.78328">
        <ele>2131.8</ele>
        <time>2014-07-31T16:09:35.380Z</time>
      </trkpt>
      <trkpt lat="44.89724" lon="6.78328">
        <ele>2132</ele>
        <time>2014-07-31T16:09:37.260Z</time>
      </trkpt>
      <trkpt lat="44.89725" lon="6.78327">
        <ele>2132</ele>
        <time>2014-07-31T16:09:39.260Z</time>
      </trkpt>
      <trkpt lat="44.89728" lon="6.78325">
        <ele>2132</ele>
        <time>2014-07-31T16:09:41.260Z</time>
      </trkpt>
      <trkpt lat="44.89728" lon="6.78323">
        <ele>2132</ele>
        <time>2014-07-31T16:09:43.260Z</time>
      </trkpt>
      <trkpt lat="44.89726" lon="6.78319">
        <ele>2132</ele>
        <time>2014-07-31T16:09:45.260Z</time>
      </trkpt>
      <trkpt lat="44.89724" lon="6.78315">
        <ele>2132</ele>
        <time>2014-07-31T16:09:47.260Z</time>
      </trkpt>
      <trkpt lat="44.89723" lon="6.78309">
        <ele>2132</ele>
        <time>2014-07-31T16:09:49.220Z</time>
      </trkpt>
      <trkpt lat="44.89722" lon="6.78304">
        <ele>2132</ele>
        <time>2014-07-31T16:09:51.220Z</time>
      </trkpt>
      <trkpt lat="44.89721" lon="6.78299">
        <ele>2132</ele>
        <time>2014-07-31T16:09:53.260Z</time>
      </trkpt>
      <trkpt lat="44.8972" lon="6.78294">
        <ele>2133.4</ele>
        <time>2014-07-31T16:09:55.260Z</time>
      </trkpt>
      <trkpt lat="44.89718" lon="6.78289">
        <ele>2134</ele>
        <time>2014-07-31T16:09:57.260Z</time>
      </trkpt>
      <trkpt lat="44.89718" lon="6.78284">
        <ele>2134</ele>
        <time>2014-07-31T16:09:59.260Z</time>
      </trkpt>
      <trkpt lat="44.89722" lon="6.78279">
        <ele>2134</ele>
        <time>2014-07-31T16:10:01.250Z</time>
      </trkpt>
      <trkpt lat="44.89725" lon="6.78281">
        <ele>2134</ele>
        <time>2014-07-31T16:10:03.260Z</time>
      </trkpt>
      <trkpt lat="44.89728" lon="6.78286">
        <ele>2134</ele>
        <time>2014-07-31T16:10:05.260Z</time>
      </trkpt>
      <trkpt lat="44.89735" lon="6.7829">
        <ele>2134</ele>
        <time>2014-07-31T16:10:07.240Z</time>
      </trkpt>
      <trkpt lat="44.89743" lon="6.78294">
        <ele>2134</ele>
        <time>2014-07-31T16:10:09.260Z</time>
      </trkpt>
      <trkpt lat="44.89752" lon="6.78299">
        <ele>2134</ele>
        <time>2014-07-31T16:10:11.260Z</time>
      </trkpt>
      <trkpt lat="44.89759" lon="6.78303">
        <ele>2134</ele>
        <time>2014-07-31T16:10:13.260Z</time>
      </trkpt>
      <trkpt lat="44.89767" lon="6.78308">
        <ele>2131.9</ele>
        <time>2014-07-31T16:10:15.260Z</time>
      </trkpt>
      <trkpt lat="44.89773" lon="6.78315">
        <ele>2131</ele>
        <time>2014-07-31T16:10:17.220Z</time>
      </trkpt>
      <trkpt lat="44.89779" lon="6.78322">
        <ele>2131</ele>
        <time>2014-07-31T16:10:19.140Z</time>
      </trkpt>
      <trkpt lat="44.89781" lon="6.78325">
        <ele>2130.3</ele>
        <time>2014-07-31T16:10:20.260Z</time>
      </trkpt>
      <trkpt lat="44.89786" lon="6.78329">
        <ele>2130</ele>
        <time>2014-07-31T16:10:22.380Z</time>
      </trkpt>
      <trkpt lat="44.8979" lon="6.78333">
        <ele>2130</ele>
        <time>2014-07-31T16:10:24.260Z</time>
      </trkpt>
      <trkpt lat="44.89794" lon="6.78338">
        <ele>2130</ele>
        <time>2014-07-31T16:10:26.260Z</time>
      </trkpt>
      <trkpt lat="44.89798" lon="6.78343">
        <ele>2130</ele>
        <time>2014-07-31T16:10:28.260Z</time>
      </trkpt>
      <trkpt lat="44.89802" lon="6.78348">
        <ele>2130</ele>
        <time>2014-07-31T16:10:30.260Z</time>
      </trkpt>
      <trkpt lat="44.89806" lon="6.78353">
        <ele>2130</ele>
        <time>2014-07-31T16:10:32.160Z</time>
      </trkpt>
      <trkpt lat="44.89808" lon="6.78354">
        <ele>2130</ele>
        <time>2014-07-31T16:10:33.260Z</time>
      </trkpt>
      <trkpt lat="44.89812" lon="6.78357">
        <ele>2130.7</ele>
        <time>2014-07-31T16:10:35.260Z</time>
      </trkpt>
      <trkpt lat="44.89815" lon="6.7836">
        <ele>2131</ele>
        <time>2014-07-31T16:10:37.260Z</time>
      </trkpt>
      <trkpt lat="44.89816" lon="6.78361">
        <ele>2131</ele>
        <time>2014-07-31T16:10:39.160Z</time>
      </trkpt>
      <trkpt lat="44.89818" lon="6.78364">
        <ele>2130</ele>
        <time>2014-07-31T16:10:50.260Z</time>
      </trkpt>
      <trkpt lat="44.89822" lon="6.78367">
        <ele>2130</ele>
        <time>2014-07-31T16:10:52.260Z</time>
      </trkpt>
      <trkpt lat="44.89826" lon="6.78371">
        <ele>2130</ele>
        <time>2014-07-31T16:10:54.160Z</time>
      </trkpt>
      <trkpt lat="44.89829" lon="6.78374">
        <ele>2130.7</ele>
        <time>2014-07-31T16:10:55.260Z</time>
      </trkpt>
      <trkpt lat="44.89834" lon="6.78379">
        <ele>2131</ele>
        <time>2014-07-31T16:10:57.220Z</time>
      </trkpt>
      <trkpt lat="44.89839" lon="6.78386">
        <ele>2131</ele>
        <time>2014-07-31T16:10:59.260Z</time>
      </trkpt>
      <trkpt lat="44.89846" lon="6.78392">
        <ele>2131</ele>
        <time>2014-07-31T16:11:01.250Z</time>
      </trkpt>
      <trkpt lat="44.89852" lon="6.78397">
        <ele>2131</ele>
        <time>2014-07-31T16:11:03.260Z</time>
      </trkpt>
      <trkpt lat="44.89856" lon="6.784">
        <ele>2131</ele>
        <time>2014-07-31T16:11:05.260Z</time>
      </trkpt>
      <trkpt lat="44.89861" lon="6.78403">
        <ele>2131</ele>
        <time>2014-07-31T16:11:07.260Z</time>
      </trkpt>
      <trkpt lat="44.89866" lon="6.78407">
        <ele>2131</ele>
        <time>2014-07-31T16:11:09.160Z</time>
      </trkpt>
      <trkpt lat="44.89869" lon="6.78409">
        <ele>2131</ele>
        <time>2014-07-31T16:11:10.260Z</time>
      </trkpt>
      <trkpt lat="44.89875" lon="6.78413">
        <ele>2131</ele>
        <time>2014-07-31T16:11:12.260Z</time>
      </trkpt>
      <trkpt lat="44.89881" lon="6.78418">
        <ele>2131</ele>
        <time>2014-07-31T16:11:14.220Z</time>
      </trkpt>
      <trkpt lat="44.89886" lon="6.78422">
        <ele>2132</ele>
        <time>2014-07-31T16:11:16.260Z</time>
      </trkpt>
      <trkpt lat="44.89891" lon="6.78426">
        <ele>2132</ele>
        <time>2014-07-31T16:11:18.160Z</time>
      </trkpt>
      <trkpt lat="44.89894" lon="6.78428">
        <ele>2132</ele>
        <time>2014-07-31T16:11:19.260Z</time>
      </trkpt>
      <trkpt lat="44.89899" lon="6.78433">
        <ele>2132</ele>
        <time>2014-07-31T16:11:21.260Z</time>
      </trkpt>
      <trkpt lat="44.89902" lon="6.78439">
        <ele>2132</ele>
        <time>2014-07-31T16:11:23.240Z</time>
      </trkpt>
      <trkpt lat="44.89906" lon="6.78445">
        <ele>2132.7</ele>
        <time>2014-07-31T16:11:25.260Z</time>
      </trkpt>
      <trkpt lat="44.8991" lon="6.7845">
        <ele>2133</ele>
        <time>2014-07-31T16:11:27.260Z</time>
      </trkpt>
      <trkpt lat="44.89915" lon="6.78456">
        <ele>2133</ele>
        <time>2014-07-31T16:11:29.260Z</time>
      </trkpt>
      <trkpt lat="44.89919" lon="6.78462">
        <ele>2133</ele>
        <time>2014-07-31T16:11:31.220Z</time>
      </trkpt>
      <trkpt lat="44.89923" lon="6.78467">
        <ele>2133</ele>
        <time>2014-07-31T16:11:33.260Z</time>
      </trkpt>
      <trkpt lat="44.89927" lon="6.78469">
        <ele>2133.7</ele>
        <time>2014-07-31T16:11:35.260Z</time>
      </trkpt>
      <trkpt lat="44.89931" lon="6.78472">
        <ele>2134</ele>
        <time>2014-07-31T16:11:37.260Z</time>
      </trkpt>
      <trkpt lat="44.89936" lon="6.78474">
        <ele>2134</ele>
        <time>2014-07-31T16:11:39.160Z</time>
      </trkpt>
      <trkpt lat="44.89937" lon="6.78475">
        <ele>2134</ele>
        <time>2014-07-31T16:11:40.260Z</time>
      </trkpt>
      <trkpt lat="44.89941" lon="6.7848">
        <ele>2134</ele>
        <time>2014-07-31T16:11:42.260Z</time>
      </trkpt>
      <trkpt lat="44.89944" lon="6.78484">
        <ele>2134</ele>
        <time>2014-07-31T16:11:44.260Z</time>
      </trkpt>
      <trkpt lat="44.89949" lon="6.78488">
        <ele>2133</ele>
        <time>2014-07-31T16:11:46.260Z</time>
      </trkpt>
      <trkpt lat="44.89952" lon="6.78491">
        <ele>2133</ele>
        <time>2014-07-31T16:11:48.120Z</time>
      </trkpt>
      <trkpt lat="44.89953" lon="6.78493">
        <ele>2133</ele>
        <time>2014-07-31T16:11:49.260Z</time>
      </trkpt>
      <trkpt lat="44.89955" lon="6.78495">
        <ele>2133</ele>
        <time>2014-07-31T16:11:51.220Z</time>
      </trkpt>
      <trkpt lat="44.89957" lon="6.78496">
        <ele>2133</ele>
        <time>2014-07-31T16:11:53.260Z</time>
      </trkpt>
      <trkpt lat="44.89959" lon="6.78499">
        <ele>2132.3</ele>
        <time>2014-07-31T16:11:55.260Z</time>
      </trkpt>
      <trkpt lat="44.89961" lon="6.78503">
        <ele>2132</ele>
        <time>2014-07-31T16:11:57.260Z</time>
      </trkpt>
      <trkpt lat="44.89964" lon="6.78507">
        <ele>2132</ele>
        <time>2014-07-31T16:11:59.260Z</time>
      </trkpt>
      <trkpt lat="44.89968" lon="6.78512">
        <ele>2132</ele>
        <time>2014-07-31T16:12:01.240Z</time>
      </trkpt>
      <trkpt lat="44.89973" lon="6.78518">
        <ele>2132</ele>
        <time>2014-07-31T16:12:03.260Z</time>
      </trkpt>
      <trkpt lat="44.89978" lon="6.78524">
        <ele>2132.6</ele>
        <time>2014-07-31T16:12:05.150Z</time>
      </trkpt>
      <trkpt lat="44.8998" lon="6.78526">
        <ele>2133</ele>
        <time>2014-07-31T16:12:06.260Z</time>
      </trkpt>
      <trkpt lat="44.89984" lon="6.78531">
        <ele>2133</ele>
        <time>2014-07-31T16:12:08.260Z</time>
      </trkpt>
      <trkpt lat="44.89988" lon="6.78534">
        <ele>2133</ele>
        <time>2014-07-31T16:12:10.260Z</time>
      </trkpt>
      <trkpt lat="44.89993" lon="6.78539">
        <ele>2133</ele>
        <time>2014-07-31T16:12:12.260Z</time>
      </trkpt>
      <trkpt lat="44.89999" lon="6.78542">
        <ele>2133</ele>
        <time>2014-07-31T16:12:14.160Z</time>
      </trkpt>
      <trkpt lat="44.90002" lon="6.78544">
        <ele>2132.3</ele>
        <time>2014-07-31T16:12:15.260Z</time>
      </trkpt>
      <trkpt lat="44.90008" lon="6.78548">
        <ele>2132</ele>
        <time>2014-07-31T16:12:17.060Z</time>
      </trkpt>
      <trkpt lat="44.90011" lon="6.7855">
        <ele>2132</ele>
        <time>2014-07-31T16:12:18.260Z</time>
      </trkpt>
      <trkpt lat="44.90019" lon="6.78551">
        <ele>2132</ele>
        <time>2014-07-31T16:12:20.260Z</time>
      </trkpt>
      <trkpt lat="44.90026" lon="6.78555">
        <ele>2132</ele>
        <time>2014-07-31T16:12:22.220Z</time>
      </trkpt>
      <trkpt lat="44.90031" lon="6.78562">
        <ele>2132</ele>
        <time>2014-07-31T16:12:24.240Z</time>
      </trkpt>
      <trkpt lat="44.90035" lon="6.78569">
        <ele>2131</ele>
        <time>2014-07-31T16:12:26.260Z</time>
      </trkpt>
      <trkpt lat="44.9004" lon="6.78578">
        <ele>2131</ele>
        <time>2014-07-31T16:12:28.260Z</time>
      </trkpt>
      <trkpt lat="44.90043" lon="6.78588">
        <ele>2131</ele>
        <time>2014-07-31T16:12:30.260Z</time>
      </trkpt>
      <trkpt lat="44.90046" lon="6.78598">
        <ele>2131</ele>
        <time>2014-07-31T16:12:32.260Z</time>
      </trkpt>
      <trkpt lat="44.90048" lon="6.78606">
        <ele>2131</ele>
        <time>2014-07-31T16:12:34.220Z</time>
      </trkpt>
      <trkpt lat="44.90049" lon="6.78612">
        <ele>2131</ele>
        <time>2014-07-31T16:12:36.260Z</time>
      </trkpt>
      <trkpt lat="44.90051" lon="6.78617">
        <ele>2131</ele>
        <time>2014-07-31T16:12:38.260Z</time>
      </trkpt>
      <trkpt lat="44.90053" lon="6.78622">
        <ele>2131</ele>
        <time>2014-07-31T16:12:40.160Z</time>
      </trkpt>
      <trkpt lat="44.90054" lon="6.78623">
        <ele>2131</ele>
        <time>2014-07-31T16:12:41.260Z</time>
      </trkpt>
      <trkpt lat="44.90056" lon="6.78626">
        <ele>2131</ele>
        <time>2014-07-31T16:12:43.260Z</time>
      </trkpt>
      <trkpt lat="44.90057" lon="6.78627">
        <ele>2130.3</ele>
        <time>2014-07-31T16:12:45.260Z</time>
      </trkpt>
      <trkpt lat="44.90058" lon="6.78628">
        <ele>2130</ele>
        <time>2014-07-31T16:12:51.220Z</time>
      </trkpt>
      <trkpt lat="44.90059" lon="6.78628">
        <ele>2130</ele>
        <time>2014-07-31T16:12:53.260Z</time>
      </trkpt>
      <trkpt lat="44.9006" lon="6.78628">
        <ele>2130</ele>
        <time>2014-07-31T16:13:01.250Z</time>
      </trkpt>
      <trkpt lat="44.90061" lon="6.78629">
        <ele>2129</ele>
        <time>2014-07-31T16:13:09.260Z</time>
      </trkpt>
      <trkpt lat="44.90063" lon="6.78628">
        <ele>2129</ele>
        <time>2014-07-31T16:13:13.060Z</time>
      </trkpt>
      <trkpt lat="44.90063" lon="6.78625">
        <ele>2130</ele>
        <time>2014-07-31T16:13:16.260Z</time>
      </trkpt>
      <trkpt lat="44.90064" lon="6.78624">
        <ele>2130</ele>
        <time>2014-07-31T16:13:18.260Z</time>
      </trkpt>
      <trkpt lat="44.90065" lon="6.78622">
        <ele>2130</ele>
        <time>2014-07-31T16:13:20.260Z</time>
      </trkpt>
      <trkpt lat="44.90066" lon="6.78619">
        <ele>2130</ele>
        <time>2014-07-31T16:13:22.260Z</time>
      </trkpt>
      <trkpt lat="44.90066" lon="6.78616">
        <ele>2130</ele>
        <time>2014-07-31T16:13:24.260Z</time>
      </trkpt>
      <trkpt lat="44.90067" lon="6.78613">
        <ele>2130</ele>
        <time>2014-07-31T16:13:26.260Z</time>
      </trkpt>
      <trkpt lat="44.90067" lon="6.78609">
        <ele>2130</ele>
        <time>2014-07-31T16:13:28.260Z</time>
      </trkpt>
      <trkpt lat="44.90067" lon="6.78605">
        <ele>2130</ele>
        <time>2014-07-31T16:13:30.020Z</time>
      </trkpt>
      <trkpt lat="44.90068" lon="6.78604">
        <ele>2130</ele>
        <time>2014-07-31T16:13:31.260Z</time>
      </trkpt>
      <trkpt lat="44.90068" lon="6.78601">
        <ele>2130</ele>
        <time>2014-07-31T16:13:33.260Z</time>
      </trkpt>
      <trkpt lat="44.90069" lon="6.78598">
        <ele>2130.6</ele>
        <time>2014-07-31T16:13:35.160Z</time>
      </trkpt>
      <trkpt lat="44.90069" lon="6.78597">
        <ele>2131</ele>
        <time>2014-07-31T16:13:36.260Z</time>
      </trkpt>
      <trkpt lat="44.90072" lon="6.78595">
        <ele>2131</ele>
        <time>2014-07-31T16:13:38.260Z</time>
      </trkpt>
      <trkpt lat="44.90074" lon="6.78594">
        <ele>2131</ele>
        <time>2014-07-31T16:13:40.260Z</time>
      </trkpt>
      <trkpt lat="44.90076" lon="6.78594">
        <ele>2131</ele>
        <time>2014-07-31T16:13:42.240Z</time>
      </trkpt>
      <trkpt lat="44.90078" lon="6.78593">
        <ele>2131</ele>
        <time>2014-07-31T16:13:44.260Z</time>
      </trkpt>
      <trkpt lat="44.90079" lon="6.78591">
        <ele>2133</ele>
        <time>2014-07-31T16:13:46.260Z</time>
      </trkpt>
      <trkpt lat="44.90082" lon="6.78591">
        <ele>2133</ele>
        <time>2014-07-31T16:13:48.160Z</time>
      </trkpt>
      <trkpt lat="44.90083" lon="6.78592">
        <ele>2133</ele>
        <time>2014-07-31T16:13:49.260Z</time>
      </trkpt>
      <trkpt lat="44.90085" lon="6.78593">
        <ele>2133</ele>
        <time>2014-07-31T16:13:51.220Z</time>
      </trkpt>
      <trkpt lat="44.90087" lon="6.78594">
        <ele>2133</ele>
        <time>2014-07-31T16:13:53.260Z</time>
      </trkpt>
      <trkpt lat="44.90089" lon="6.78596">
        <ele>2133</ele>
        <time>2014-07-31T16:13:55.180Z</time>
      </trkpt>
      <trkpt lat="44.9009" lon="6.78597">
        <ele>2133</ele>
        <time>2014-07-31T16:13:57.260Z</time>
      </trkpt>
      <trkpt lat="44.90092" lon="6.786">
        <ele>2133</ele>
        <time>2014-07-31T16:13:59.260Z</time>
      </trkpt>
      <trkpt lat="44.90094" lon="6.78602">
        <ele>2133</ele>
        <time>2014-07-31T16:14:01.150Z</time>
      </trkpt>
      <trkpt lat="44.90094" lon="6.78604">
        <ele>2133</ele>
        <time>2014-07-31T16:14:02.260Z</time>
      </trkpt>
      <trkpt lat="44.90095" lon="6.78607">
        <ele>2133</ele>
        <time>2014-07-31T16:14:04.220Z</time>
      </trkpt>
      <trkpt lat="44.90096" lon="6.78609">
        <ele>2135</ele>
        <time>2014-07-31T16:14:06.260Z</time>
      </trkpt>
      <trkpt lat="44.90096" lon="6.78612">
        <ele>2135</ele>
        <time>2014-07-31T16:14:08.260Z</time>
      </trkpt>
      <trkpt lat="44.90097" lon="6.78615">
        <ele>2135</ele>
        <time>2014-07-31T16:14:10.260Z</time>
      </trkpt>
      <trkpt lat="44.90098" lon="6.78618">
        <ele>2135</ele>
        <time>2014-07-31T16:14:12.260Z</time>
      </trkpt>
      <trkpt lat="44.901" lon="6.78619">
        <ele>2135</ele>
        <time>2014-07-31T16:14:14.160Z</time>
      </trkpt>
      <trkpt lat="44.90103" lon="6.78621">
        <ele>2137</ele>
        <time>2014-07-31T16:14:17.220Z</time>
      </trkpt>
      <trkpt lat="44.90106" lon="6.78621">
        <ele>2137</ele>
        <time>2014-07-31T16:14:19.160Z</time>
      </trkpt>
      <trkpt lat="44.90108" lon="6.78621">
        <ele>2137</ele>
        <time>2014-07-31T16:14:20.260Z</time>
      </trkpt>
      <trkpt lat="44.90113" lon="6.78619">
        <ele>2137</ele>
        <time>2014-07-31T16:14:22.160Z</time>
      </trkpt>
      <trkpt lat="44.90115" lon="6.78618">
        <ele>2137</ele>
        <time>2014-07-31T16:14:23.260Z</time>
      </trkpt>
      <trkpt lat="44.90119" lon="6.78614">
        <ele>2137</ele>
        <time>2014-07-31T16:14:25.260Z</time>
      </trkpt>
      <trkpt lat="44.90123" lon="6.78608">
        <ele>2137</ele>
        <time>2014-07-31T16:14:27.260Z</time>
      </trkpt>
      <trkpt lat="44.90126" lon="6.78602">
        <ele>2137</ele>
        <time>2014-07-31T16:14:29.260Z</time>
      </trkpt>
      <trkpt lat="44.90129" lon="6.78595">
        <ele>2137</ele>
        <time>2014-07-31T16:14:31.160Z</time>
      </trkpt>
      <trkpt lat="44.9013" lon="6.78592">
        <ele>2137</ele>
        <time>2014-07-31T16:14:32.260Z</time>
      </trkpt>
      <trkpt lat="44.90133" lon="6.78585">
        <ele>2137</ele>
        <time>2014-07-31T16:14:34.220Z</time>
      </trkpt>
      <trkpt lat="44.90134" lon="6.78578">
        <ele>2138</ele>
        <time>2014-07-31T16:14:36.260Z</time>
      </trkpt>
      <trkpt lat="44.90136" lon="6.78571">
        <ele>2138</ele>
        <time>2014-07-31T16:14:38.220Z</time>
      </trkpt>
      <trkpt lat="44.90137" lon="6.78566">
        <ele>2138</ele>
        <time>2014-07-31T16:14:40.160Z</time>
      </trkpt>
      <trkpt lat="44.90138" lon="6.78563">
        <ele>2138</ele>
        <time>2014-07-31T16:14:41.260Z</time>
      </trkpt>
      <trkpt lat="44.90139" lon="6.78559">
        <ele>2138</ele>
        <time>2014-07-31T16:14:43.260Z</time>
      </trkpt>
      <trkpt lat="44.90139" lon="6.78555">
        <ele>2139.3</ele>
        <time>2014-07-31T16:14:45.240Z</time>
      </trkpt>
      <trkpt lat="44.9014" lon="6.78549">
        <ele>2140</ele>
        <time>2014-07-31T16:14:47.260Z</time>
      </trkpt>
      <trkpt lat="44.90142" lon="6.78544">
        <ele>2140</ele>
        <time>2014-07-31T16:14:49.260Z</time>
      </trkpt>
      <trkpt lat="44.90144" lon="6.78539">
        <ele>2140</ele>
        <time>2014-07-31T16:14:51.220Z</time>
      </trkpt>
      <trkpt lat="44.90146" lon="6.78534">
        <ele>2140</ele>
        <time>2014-07-31T16:14:53.160Z</time>
      </trkpt>
      <trkpt lat="44.90147" lon="6.78532">
        <ele>2140</ele>
        <time>2014-07-31T16:14:54.260Z</time>
      </trkpt>
      <trkpt lat="44.9015" lon="6.78527">
        <ele>2141</ele>
        <time>2014-07-31T16:14:56.160Z</time>
      </trkpt>
      <trkpt lat="44.90152" lon="6.78525">
        <ele>2141</ele>
        <time>2014-07-31T16:14:57.260Z</time>
      </trkpt>
      <trkpt lat="44.90155" lon="6.78521">
        <ele>2141</ele>
        <time>2014-07-31T16:14:59.260Z</time>
      </trkpt>
      <trkpt lat="44.90158" lon="6.78517">
        <ele>2141</ele>
        <time>2014-07-31T16:15:01.250Z</time>
      </trkpt>
      <trkpt lat="44.90163" lon="6.78515">
        <ele>2141</ele>
        <time>2014-07-31T16:15:03.260Z</time>
      </trkpt>
      <trkpt lat="44.90168" lon="6.78513">
        <ele>2141</ele>
        <time>2014-07-31T16:15:05.160Z</time>
      </trkpt>
      <trkpt lat="44.9017" lon="6.78514">
        <ele>2141</ele>
        <time>2014-07-31T16:15:06.260Z</time>
      </trkpt>
      <trkpt lat="44.90174" lon="6.78515">
        <ele>2141</ele>
        <time>2014-07-31T16:15:08.220Z</time>
      </trkpt>
      <trkpt lat="44.90178" lon="6.78516">
        <ele>2141</ele>
        <time>2014-07-31T16:15:10.260Z</time>
      </trkpt>
      <trkpt lat="44.90183" lon="6.78519">
        <ele>2141</ele>
        <time>2014-07-31T16:15:12.220Z</time>
      </trkpt>
      <trkpt lat="44.90187" lon="6.78523">
        <ele>2141</ele>
        <time>2014-07-31T16:15:14.260Z</time>
      </trkpt>
      <trkpt lat="44.90191" lon="6.78528">
        <ele>2141</ele>
        <time>2014-07-31T16:15:16.260Z</time>
      </trkpt>
      <trkpt lat="44.90195" lon="6.78533">
        <ele>2141</ele>
        <time>2014-07-31T16:15:18.160Z</time>
      </trkpt>
      <trkpt lat="44.90197" lon="6.78535">
        <ele>2141</ele>
        <time>2014-07-31T16:15:19.260Z</time>
      </trkpt>
      <trkpt lat="44.90201" lon="6.78539">
        <ele>2141</ele>
        <time>2014-07-31T16:15:21.260Z</time>
      </trkpt>
      <trkpt lat="44.90204" lon="6.78544">
        <ele>2141</ele>
        <time>2014-07-31T16:15:23.260Z</time>
      </trkpt>
      <trkpt lat="44.90208" lon="6.78548">
        <ele>2141.7</ele>
        <time>2014-07-31T16:15:25.260Z</time>
      </trkpt>
      <trkpt lat="44.90211" lon="6.78552">
        <ele>2142</ele>
        <time>2014-07-31T16:15:27.260Z</time>
      </trkpt>
      <trkpt lat="44.90215" lon="6.78556">
        <ele>2142</ele>
        <time>2014-07-31T16:15:29.220Z</time>
      </trkpt>
      <trkpt lat="44.90219" lon="6.7856">
        <ele>2142</ele>
        <time>2014-07-31T16:15:31.260Z</time>
      </trkpt>
      <trkpt lat="44.90223" lon="6.78564">
        <ele>2142</ele>
        <time>2014-07-31T16:15:33.140Z</time>
      </trkpt>
      <trkpt lat="44.90225" lon="6.78566">
        <ele>2142</ele>
        <time>2014-07-31T16:15:34.220Z</time>
      </trkpt>
      <trkpt lat="44.90229" lon="6.78569">
        <ele>2145</ele>
        <time>2014-07-31T16:15:36.260Z</time>
      </trkpt>
      <trkpt lat="44.90233" lon="6.78573">
        <ele>2145</ele>
        <time>2014-07-31T16:15:38.280Z</time>
      </trkpt>
      <trkpt lat="44.90235" lon="6.78575">
        <ele>2145</ele>
        <time>2014-07-31T16:15:39.260Z</time>
      </trkpt>
      <trkpt lat="44.90239" lon="6.7858">
        <ele>2145</ele>
        <time>2014-07-31T16:15:41.260Z</time>
      </trkpt>
      <trkpt lat="44.90242" lon="6.78583">
        <ele>2145</ele>
        <time>2014-07-31T16:15:43.260Z</time>
      </trkpt>
      <trkpt lat="44.90246" lon="6.78585">
        <ele>2145</ele>
        <time>2014-07-31T16:15:45.260Z</time>
      </trkpt>
      <trkpt lat="44.9025" lon="6.78586">
        <ele>2145</ele>
        <time>2014-07-31T16:15:47.260Z</time>
      </trkpt>
      <trkpt lat="44.90255" lon="6.78587">
        <ele>2145</ele>
        <time>2014-07-31T16:15:49.260Z</time>
      </trkpt>
      <trkpt lat="44.90259" lon="6.78588">
        <ele>2145</ele>
        <time>2014-07-31T16:15:51.100Z</time>
      </trkpt>
      <trkpt lat="44.90261" lon="6.78588">
        <ele>2145</ele>
        <time>2014-07-31T16:15:52.260Z</time>
      </trkpt>
      <trkpt lat="44.90266" lon="6.78587">
        <ele>2145</ele>
        <time>2014-07-31T16:15:54.260Z</time>
      </trkpt>
      <trkpt lat="44.9027" lon="6.78587">
        <ele>2146</ele>
        <time>2014-07-31T16:15:56.160Z</time>
      </trkpt>
      <trkpt lat="44.90273" lon="6.78586">
        <ele>2146</ele>
        <time>2014-07-31T16:15:57.260Z</time>
      </trkpt>
      <trkpt lat="44.90279" lon="6.78583">
        <ele>2146</ele>
        <time>2014-07-31T16:15:59.260Z</time>
      </trkpt>
      <trkpt lat="44.90287" lon="6.78577">
        <ele>2146</ele>
        <time>2014-07-31T16:16:01.250Z</time>
      </trkpt>
      <trkpt lat="44.90294" lon="6.78573">
        <ele>2146</ele>
        <time>2014-07-31T16:16:03.120Z</time>
      </trkpt>
      <trkpt lat="44.90297" lon="6.78572">
        <ele>2146</ele>
        <time>2014-07-31T16:16:04.260Z</time>
      </trkpt>
      <trkpt lat="44.90302" lon="6.78568">
        <ele>2146</ele>
        <time>2014-07-31T16:16:06.260Z</time>
      </trkpt>
      <trkpt lat="44.90306" lon="6.78562">
        <ele>2146</ele>
        <time>2014-07-31T16:16:08.240Z</time>
      </trkpt>
      <trkpt lat="44.90309" lon="6.78555">
        <ele>2146</ele>
        <time>2014-07-31T16:16:10.260Z</time>
      </trkpt>
      <trkpt lat="44.90312" lon="6.78548">
        <ele>2146</ele>
        <time>2014-07-31T16:16:12.160Z</time>
      </trkpt>
      <trkpt lat="44.90314" lon="6.78545">
        <ele>2146</ele>
        <time>2014-07-31T16:16:13.260Z</time>
      </trkpt>
      <trkpt lat="44.90317" lon="6.78537">
        <ele>2146</ele>
        <time>2014-07-31T16:16:15.260Z</time>
      </trkpt>
      <trkpt lat="44.90319" lon="6.7853">
        <ele>2146</ele>
        <time>2014-07-31T16:16:17.220Z</time>
      </trkpt>
      <trkpt lat="44.90321" lon="6.78523">
        <ele>2146</ele>
        <time>2014-07-31T16:16:19.260Z</time>
      </trkpt>
      <trkpt lat="44.90325" lon="6.78518">
        <ele>2146</ele>
        <time>2014-07-31T16:16:21.240Z</time>
      </trkpt>
      <trkpt lat="44.9033" lon="6.78515">
        <ele>2146</ele>
        <time>2014-07-31T16:16:23.260Z</time>
      </trkpt>
      <trkpt lat="44.90336" lon="6.78513">
        <ele>2146.7</ele>
        <time>2014-07-31T16:16:25.260Z</time>
      </trkpt>
      <trkpt lat="44.90343" lon="6.78513">
        <ele>2147</ele>
        <time>2014-07-31T16:16:27.260Z</time>
      </trkpt>
      <trkpt lat="44.90351" lon="6.78512">
        <ele>2147</ele>
        <time>2014-07-31T16:16:29.260Z</time>
      </trkpt>
      <trkpt lat="44.90361" lon="6.7851">
        <ele>2147</ele>
        <time>2014-07-31T16:16:31.260Z</time>
      </trkpt>
      <trkpt lat="44.90372" lon="6.78506">
        <ele>2147</ele>
        <time>2014-07-31T16:16:33.260Z</time>
      </trkpt>
      <trkpt lat="44.90378" lon="6.78499">
        <ele>2147</ele>
        <time>2014-07-31T16:16:35.260Z</time>
      </trkpt>
      <trkpt lat="44.90381" lon="6.78495">
        <ele>2147</ele>
        <time>2014-07-31T16:16:37.220Z</time>
      </trkpt>
      <trkpt lat="44.90383" lon="6.78491">
        <ele>2147</ele>
        <time>2014-07-31T16:16:39.160Z</time>
      </trkpt>
      <trkpt lat="44.90384" lon="6.78489">
        <ele>2147</ele>
        <time>2014-07-31T16:16:40.260Z</time>
      </trkpt>
      <trkpt lat="44.90386" lon="6.78487">
        <ele>2147</ele>
        <time>2014-07-31T16:16:42.260Z</time>
      </trkpt>
      <trkpt lat="44.90388" lon="6.78485">
        <ele>2147</ele>
        <time>2014-07-31T16:16:44.260Z</time>
      </trkpt>
      <trkpt lat="44.9039" lon="6.78482">
        <ele>2146</ele>
        <time>2014-07-31T16:16:46.180Z</time>
      </trkpt>
      <trkpt lat="44.90392" lon="6.7848">
        <ele>2146</ele>
        <time>2014-07-31T16:16:48.260Z</time>
      </trkpt>
      <trkpt lat="44.90395" lon="6.78477">
        <ele>2146</ele>
        <time>2014-07-31T16:16:50.260Z</time>
      </trkpt>
      <trkpt lat="44.90398" lon="6.78476">
        <ele>2146</ele>
        <time>2014-07-31T16:16:52.260Z</time>
      </trkpt>
      <trkpt lat="44.90401" lon="6.78474">
        <ele>2146</ele>
        <time>2014-07-31T16:16:54.060Z</time>
      </trkpt>
      <trkpt lat="44.90402" lon="6.78473">
        <ele>2147.4</ele>
        <time>2014-07-31T16:16:55.260Z</time>
      </trkpt>
      <trkpt lat="44.90404" lon="6.7847">
        <ele>2148</ele>
        <time>2014-07-31T16:16:57.260Z</time>
      </trkpt>
      <trkpt lat="44.90405" lon="6.78467">
        <ele>2148</ele>
        <time>2014-07-31T16:16:59.160Z</time>
      </trkpt>
      <trkpt lat="44.90406" lon="6.78465">
        <ele>2148</ele>
        <time>2014-07-31T16:17:00.220Z</time>
      </trkpt>
      <trkpt lat="44.90407" lon="6.78462">
        <ele>2148</ele>
        <time>2014-07-31T16:17:02.260Z</time>
      </trkpt>
      <trkpt lat="44.90408" lon="6.78459">
        <ele>2148</ele>
        <time>2014-07-31T16:17:04.260Z</time>
      </trkpt>
      <trkpt lat="44.90409" lon="6.78456">
        <ele>2150</ele>
        <time>2014-07-31T16:17:06.260Z</time>
      </trkpt>
      <trkpt lat="44.90411" lon="6.78453">
        <ele>2150</ele>
        <time>2014-07-31T16:17:08.260Z</time>
      </trkpt>
      <trkpt lat="44.90412" lon="6.7845">
        <ele>2150</ele>
        <time>2014-07-31T16:17:10.260Z</time>
      </trkpt>
      <trkpt lat="44.90412" lon="6.78446">
        <ele>2150</ele>
        <time>2014-07-31T16:17:12.260Z</time>
      </trkpt>
      <trkpt lat="44.90412" lon="6.78442">
        <ele>2150</ele>
        <time>2014-07-31T16:17:14.260Z</time>
      </trkpt>
      <trkpt lat="44.90412" lon="6.78438">
        <ele>2151</ele>
        <time>2014-07-31T16:17:16.260Z</time>
      </trkpt>
      <trkpt lat="44.90413" lon="6.78434">
        <ele>2151</ele>
        <time>2014-07-31T16:17:18.160Z</time>
      </trkpt>
      <trkpt lat="44.90414" lon="6.78432">
        <ele>2151</ele>
        <time>2014-07-31T16:17:19.260Z</time>
      </trkpt>
      <trkpt lat="44.90415" lon="6.78429">
        <ele>2151</ele>
        <time>2014-07-31T16:17:21.260Z</time>
      </trkpt>
      <trkpt lat="44.90417" lon="6.78426">
        <ele>2151</ele>
        <time>2014-07-31T16:17:23.260Z</time>
      </trkpt>
      <trkpt lat="44.90419" lon="6.78424">
        <ele>2152.4</ele>
        <time>2014-07-31T16:17:25.260Z</time>
      </trkpt>
      <trkpt lat="44.90421" lon="6.7842">
        <ele>2153</ele>
        <time>2014-07-31T16:17:27.260Z</time>
      </trkpt>
      <trkpt lat="44.90423" lon="6.78417">
        <ele>2153</ele>
        <time>2014-07-31T16:17:29.260Z</time>
      </trkpt>
      <trkpt lat="44.90424" lon="6.78415">
        <ele>2153</ele>
        <time>2014-07-31T16:17:31.260Z</time>
      </trkpt>
      <trkpt lat="44.90426" lon="6.78412">
        <ele>2153</ele>
        <time>2014-07-31T16:17:33.260Z</time>
      </trkpt>
      <trkpt lat="44.90427" lon="6.7841">
        <ele>2154.4</ele>
        <time>2014-07-31T16:17:35.260Z</time>
      </trkpt>
      <trkpt lat="44.90429" lon="6.78406">
        <ele>2155</ele>
        <time>2014-07-31T16:17:37.240Z</time>
      </trkpt>
      <trkpt lat="44.90431" lon="6.78404">
        <ele>2155</ele>
        <time>2014-07-31T16:17:39.380Z</time>
      </trkpt>
      <trkpt lat="44.90432" lon="6.78401">
        <ele>2155</ele>
        <time>2014-07-31T16:17:41.260Z</time>
      </trkpt>
      <trkpt lat="44.90434" lon="6.78398">
        <ele>2155</ele>
        <time>2014-07-31T16:17:43.260Z</time>
      </trkpt>
      <trkpt lat="44.90436" lon="6.78396">
        <ele>2156.1</ele>
        <time>2014-07-31T16:17:45.120Z</time>
      </trkpt>
      <trkpt lat="44.90436" lon="6.78394">
        <ele>2157</ele>
        <time>2014-07-31T16:17:46.260Z</time>
      </trkpt>
      <trkpt lat="44.90438" lon="6.78391">
        <ele>2157</ele>
        <time>2014-07-31T16:17:48.260Z</time>
      </trkpt>
      <trkpt lat="44.9044" lon="6.78389">
        <ele>2157</ele>
        <time>2014-07-31T16:17:50.260Z</time>
      </trkpt>
      <trkpt lat="44.90442" lon="6.78387">
        <ele>2157</ele>
        <time>2014-07-31T16:17:52.160Z</time>
      </trkpt>
      <trkpt lat="44.90443" lon="6.78386">
        <ele>2157</ele>
        <time>2014-07-31T16:17:53.260Z</time>
      </trkpt>
      <trkpt lat="44.90445" lon="6.78384">
        <ele>2158.3</ele>
        <time>2014-07-31T16:17:55.260Z</time>
      </trkpt>
      <trkpt lat="44.90447" lon="6.78382">
        <ele>2159</ele>
        <time>2014-07-31T16:17:57.160Z</time>
      </trkpt>
      <trkpt lat="44.90447" lon="6.7838">
        <ele>2159</ele>
        <time>2014-07-31T16:17:58.260Z</time>
      </trkpt>
      <trkpt lat="44.90448" lon="6.78377">
        <ele>2159</ele>
        <time>2014-07-31T16:18:00.220Z</time>
      </trkpt>
      <trkpt lat="44.90448" lon="6.78376">
        <ele>2159</ele>
        <time>2014-07-31T16:18:02.220Z</time>
      </trkpt>
      <trkpt lat="44.90449" lon="6.78375">
        <ele>2161</ele>
        <time>2014-07-31T16:18:10.260Z</time>
      </trkpt>
      <trkpt lat="44.9045" lon="6.78374">
        <ele>2161</ele>
        <time>2014-07-31T16:18:12.160Z</time>
      </trkpt>
      <trkpt lat="44.90451" lon="6.78372">
        <ele>2161</ele>
        <time>2014-07-31T16:18:13.240Z</time>
      </trkpt>
      <trkpt lat="44.90451" lon="6.7837">
        <ele>2161.7</ele>
        <time>2014-07-31T16:18:15.260Z</time>
      </trkpt>
      <trkpt lat="44.90451" lon="6.78368">
        <ele>2162</ele>
        <time>2014-07-31T16:18:17.220Z</time>
      </trkpt>
      <trkpt lat="44.90452" lon="6.78365">
        <ele>2162</ele>
        <time>2014-07-31T16:18:19.220Z</time>
      </trkpt>
      <trkpt lat="44.90452" lon="6.78363">
        <ele>2162</ele>
        <time>2014-07-31T16:18:21.260Z</time>
      </trkpt>
      <trkpt lat="44.90453" lon="6.7836">
        <ele>2162</ele>
        <time>2014-07-31T16:18:23.260Z</time>
      </trkpt>
      <trkpt lat="44.90454" lon="6.78357">
        <ele>2162.6</ele>
        <time>2014-07-31T16:18:25.160Z</time>
      </trkpt>
      <trkpt lat="44.90455" lon="6.78356">
        <ele>2163</ele>
        <time>2014-07-31T16:18:26.240Z</time>
      </trkpt>
      <trkpt lat="44.90457" lon="6.78354">
        <ele>2163</ele>
        <time>2014-07-31T16:18:28.210Z</time>
      </trkpt>
      <trkpt lat="44.90457" lon="6.78353">
        <ele>2163</ele>
        <time>2014-07-31T16:18:29.260Z</time>
      </trkpt>
      <trkpt lat="44.9046" lon="6.78352">
        <ele>2163</ele>
        <time>2014-07-31T16:18:31.260Z</time>
      </trkpt>
      <trkpt lat="44.90461" lon="6.78351">
        <ele>2163</ele>
        <time>2014-07-31T16:18:33.260Z</time>
      </trkpt>
      <trkpt lat="44.90463" lon="6.78349">
        <ele>2164.4</ele>
        <time>2014-07-31T16:18:35.260Z</time>
      </trkpt>
      <trkpt lat="44.90464" lon="6.78348">
        <ele>2165</ele>
        <time>2014-07-31T16:18:37.260Z</time>
      </trkpt>
      <trkpt lat="44.90466" lon="6.78346">
        <ele>2165</ele>
        <time>2014-07-31T16:18:39.260Z</time>
      </trkpt>
      <trkpt lat="44.90467" lon="6.78344">
        <ele>2165</ele>
        <time>2014-07-31T16:18:41.280Z</time>
      </trkpt>
      <trkpt lat="44.90468" lon="6.7834">
        <ele>2165</ele>
        <time>2014-07-31T16:18:44.260Z</time>
      </trkpt>
      <trkpt lat="44.90469" lon="6.78337">
        <ele>2167</ele>
        <time>2014-07-31T16:18:46.260Z</time>
      </trkpt>
      <trkpt lat="44.90469" lon="6.78336">
        <ele>2167</ele>
        <time>2014-07-31T16:18:48.260Z</time>
      </trkpt>
      <trkpt lat="44.90469" lon="6.78334">
        <ele>2167</ele>
        <time>2014-07-31T16:18:50.260Z</time>
      </trkpt>
      <trkpt lat="44.90469" lon="6.78332">
        <ele>2167</ele>
        <time>2014-07-31T16:18:52.160Z</time>
      </trkpt>
      <trkpt lat="44.90468" lon="6.7833">
        <ele>2167</ele>
        <time>2014-07-31T16:18:54.260Z</time>
      </trkpt>
      <trkpt lat="44.90468" lon="6.78328">
        <ele>2167</ele>
        <time>2014-07-31T16:18:56.260Z</time>
      </trkpt>
      <trkpt lat="44.90468" lon="6.78324">
        <ele>2167</ele>
        <time>2014-07-31T16:18:58.260Z</time>
      </trkpt>
      <trkpt lat="44.90468" lon="6.78321">
        <ele>2167</ele>
        <time>2014-07-31T16:19:00.220Z</time>
      </trkpt>
      <trkpt lat="44.9047" lon="6.78318">
        <ele>2167</ele>
        <time>2014-07-31T16:19:02.260Z</time>
      </trkpt>
      <trkpt lat="44.90471" lon="6.78315">
        <ele>2167</ele>
        <time>2014-07-31T16:19:04.260Z</time>
      </trkpt>
      <trkpt lat="44.90471" lon="6.78312">
        <ele>2170</ele>
        <time>2014-07-31T16:19:06.260Z</time>
      </trkpt>
      <trkpt lat="44.90472" lon="6.7831">
        <ele>2170</ele>
        <time>2014-07-31T16:19:08.160Z</time>
      </trkpt>
      <trkpt lat="44.90473" lon="6.78309">
        <ele>2170</ele>
        <time>2014-07-31T16:19:09.260Z</time>
      </trkpt>
      <trkpt lat="44.90474" lon="6.78307">
        <ele>2171</ele>
        <time>2014-07-31T16:19:11.260Z</time>
      </trkpt>
      <trkpt lat="44.90474" lon="6.78305">
        <ele>2171</ele>
        <time>2014-07-31T16:19:13.260Z</time>
      </trkpt>
      <trkpt lat="44.90475" lon="6.78302">
        <ele>2171</ele>
        <time>2014-07-31T16:19:15.260Z</time>
      </trkpt>
      <trkpt lat="44.90475" lon="6.78297">
        <ele>2171</ele>
        <time>2014-07-31T16:19:17.120Z</time>
      </trkpt>
      <trkpt lat="44.90476" lon="6.78296">
        <ele>2171</ele>
        <time>2014-07-31T16:19:18.260Z</time>
      </trkpt>
      <trkpt lat="44.90476" lon="6.78294">
        <ele>2171</ele>
        <time>2014-07-31T16:19:20.260Z</time>
      </trkpt>
      <trkpt lat="44.90477" lon="6.78292">
        <ele>2171</ele>
        <time>2014-07-31T16:19:22.260Z</time>
      </trkpt>
      <trkpt lat="44.90477" lon="6.78291">
        <ele>2171</ele>
        <time>2014-07-31T16:19:24.260Z</time>
      </trkpt>
      <trkpt lat="44.90478" lon="6.78288">
        <ele>2173</ele>
        <time>2014-07-31T16:19:26.160Z</time>
      </trkpt>
      <trkpt lat="44.90479" lon="6.78286">
        <ele>2173</ele>
        <time>2014-07-31T16:19:27.180Z</time>
      </trkpt>
      <trkpt lat="44.9048" lon="6.78283">
        <ele>2173</ele>
        <time>2014-07-31T16:19:29.160Z</time>
      </trkpt>
      <trkpt lat="44.9048" lon="6.78282">
        <ele>2173</ele>
        <time>2014-07-31T16:19:30.260Z</time>
      </trkpt>
      <trkpt lat="44.9048" lon="6.78278">
        <ele>2173</ele>
        <time>2014-07-31T16:19:32.260Z</time>
      </trkpt>
      <trkpt lat="44.90481" lon="6.78274">
        <ele>2173</ele>
        <time>2014-07-31T16:19:34.220Z</time>
      </trkpt>
      <trkpt lat="44.90482" lon="6.78273">
        <ele>2174</ele>
        <time>2014-07-31T16:19:36.260Z</time>
      </trkpt>
      <trkpt lat="44.90484" lon="6.78271">
        <ele>2174</ele>
        <time>2014-07-31T16:19:38.160Z</time>
      </trkpt>
      <trkpt lat="44.90484" lon="6.78269">
        <ele>2174</ele>
        <time>2014-07-31T16:19:39.240Z</time>
      </trkpt>
      <trkpt lat="44.90485" lon="6.78266">
        <ele>2174</ele>
        <time>2014-07-31T16:19:41.260Z</time>
      </trkpt>
      <trkpt lat="44.90486" lon="6.78264">
        <ele>2174</ele>
        <time>2014-07-31T16:19:43.260Z</time>
      </trkpt>
      <trkpt lat="44.90487" lon="6.78262">
        <ele>2174</ele>
        <time>2014-07-31T16:19:44.160Z</time>
      </trkpt>
      <trkpt lat="44.90488" lon="6.7826">
        <ele>2176</ele>
        <time>2014-07-31T16:19:46.260Z</time>
      </trkpt>
      <trkpt lat="44.90488" lon="6.78258">
        <ele>2176</ele>
        <time>2014-07-31T16:19:48.260Z</time>
      </trkpt>
      <trkpt lat="44.90489" lon="6.78255">
        <ele>2176</ele>
        <time>2014-07-31T16:19:50.260Z</time>
      </trkpt>
      <trkpt lat="44.9049" lon="6.78253">
        <ele>2176</ele>
        <time>2014-07-31T16:19:52.240Z</time>
      </trkpt>
      <trkpt lat="44.90491" lon="6.7825">
        <ele>2176</ele>
        <time>2014-07-31T16:19:54.260Z</time>
      </trkpt>
      <trkpt lat="44.90492" lon="6.78248">
        <ele>2178</ele>
        <time>2014-07-31T16:19:56.260Z</time>
      </trkpt>
      <trkpt lat="44.90493" lon="6.78245">
        <ele>2178</ele>
        <time>2014-07-31T16:19:58.260Z</time>
      </trkpt>
      <trkpt lat="44.90494" lon="6.78243">
        <ele>2178</ele>
        <time>2014-07-31T16:20:00.120Z</time>
      </trkpt>
      <trkpt lat="44.90494" lon="6.78242">
        <ele>2178</ele>
        <time>2014-07-31T16:20:01.220Z</time>
      </trkpt>
      <trkpt lat="44.90494" lon="6.78239">
        <ele>2178</ele>
        <time>2014-07-31T16:20:03.260Z</time>
      </trkpt>
      <trkpt lat="44.90495" lon="6.78237">
        <ele>2179.4</ele>
        <time>2014-07-31T16:20:05.260Z</time>
      </trkpt>
      <trkpt lat="44.90496" lon="6.78234">
        <ele>2180</ele>
        <time>2014-07-31T16:20:07.260Z</time>
      </trkpt>
      <trkpt lat="44.90496" lon="6.78232">
        <ele>2180</ele>
        <time>2014-07-31T16:20:09.260Z</time>
      </trkpt>
      <trkpt lat="44.90496" lon="6.78229">
        <ele>2180</ele>
        <time>2014-07-31T16:20:11.260Z</time>
      </trkpt>
      <trkpt lat="44.90497" lon="6.78226">
        <ele>2180</ele>
        <time>2014-07-31T16:20:13.160Z</time>
      </trkpt>
      <trkpt lat="44.90497" lon="6.78225">
        <ele>2180</ele>
        <time>2014-07-31T16:20:14.260Z</time>
      </trkpt>
      <trkpt lat="44.90497" lon="6.78222">
        <ele>2181</ele>
        <time>2014-07-31T16:20:16.260Z</time>
      </trkpt>
      <trkpt lat="44.90498" lon="6.7822">
        <ele>2181</ele>
        <time>2014-07-31T16:20:18.120Z</time>
      </trkpt>
      <trkpt lat="44.90497" lon="6.78219">
        <ele>2181</ele>
        <time>2014-07-31T16:20:19.260Z</time>
      </trkpt>
      <trkpt lat="44.90497" lon="6.78216">
        <ele>2181</ele>
        <time>2014-07-31T16:20:21.260Z</time>
      </trkpt>
      <trkpt lat="44.90496" lon="6.78213">
        <ele>2181</ele>
        <time>2014-07-31T16:20:23.260Z</time>
      </trkpt>
      <trkpt lat="44.90495" lon="6.78212">
        <ele>2182.4</ele>
        <time>2014-07-31T16:20:25.260Z</time>
      </trkpt>
      <trkpt lat="44.90494" lon="6.7821">
        <ele>2183</ele>
        <time>2014-07-31T16:20:27.240Z</time>
      </trkpt>
      <trkpt lat="44.90492" lon="6.78208">
        <ele>2183</ele>
        <time>2014-07-31T16:20:29.260Z</time>
      </trkpt>
      <trkpt lat="44.90489" lon="6.78207">
        <ele>2183</ele>
        <time>2014-07-31T16:20:31.260Z</time>
      </trkpt>
      <trkpt lat="44.90487" lon="6.78206">
        <ele>2183</ele>
        <time>2014-07-31T16:20:33.260Z</time>
      </trkpt>
      <trkpt lat="44.90484" lon="6.78205">
        <ele>2183.6</ele>
        <time>2014-07-31T16:20:35.160Z</time>
      </trkpt>
      <trkpt lat="44.90482" lon="6.78206">
        <ele>2184</ele>
        <time>2014-07-31T16:20:37.260Z</time>
      </trkpt>
      <trkpt lat="44.9048" lon="6.78208">
        <ele>2184</ele>
        <time>2014-07-31T16:20:39.260Z</time>
      </trkpt>
      <trkpt lat="44.90478" lon="6.78209">
        <ele>2184</ele>
        <time>2014-07-31T16:20:41.260Z</time>
      </trkpt>
      <trkpt lat="44.90477" lon="6.78211">
        <ele>2184</ele>
        <time>2014-07-31T16:20:43.160Z</time>
      </trkpt>
      <trkpt lat="44.90476" lon="6.78212">
        <ele>2184</ele>
        <time>2014-07-31T16:20:44.260Z</time>
      </trkpt>
      <trkpt lat="44.90475" lon="6.78215">
        <ele>2185</ele>
        <time>2014-07-31T16:20:46.260Z</time>
      </trkpt>
      <trkpt lat="44.90474" lon="6.78217">
        <ele>2185</ele>
        <time>2014-07-31T16:20:48.380Z</time>
      </trkpt>
      <trkpt lat="44.90474" lon="6.78221">
        <ele>2185</ele>
        <time>2014-07-31T16:20:50.260Z</time>
      </trkpt>
      <trkpt lat="44.90474" lon="6.78224">
        <ele>2185</ele>
        <time>2014-07-31T16:20:52.090Z</time>
      </trkpt>
      <trkpt lat="44.90474" lon="6.78225">
        <ele>2185</ele>
        <time>2014-07-31T16:20:53.260Z</time>
      </trkpt>
      <trkpt lat="44.90473" lon="6.78229">
        <ele>2185.7</ele>
        <time>2014-07-31T16:20:55.260Z</time>
      </trkpt>
      <trkpt lat="44.90472" lon="6.78232">
        <ele>2186</ele>
        <time>2014-07-31T16:20:57.260Z</time>
      </trkpt>
      <trkpt lat="44.9047" lon="6.78234">
        <ele>2186</ele>
        <time>2014-07-31T16:20:59.260Z</time>
      </trkpt>
      <trkpt lat="44.90469" lon="6.78235">
        <ele>2186</ele>
        <time>2014-07-31T16:21:01.280Z</time>
      </trkpt>
      <trkpt lat="44.90466" lon="6.78236">
        <ele>2186</ele>
        <time>2014-07-31T16:21:04.260Z</time>
      </trkpt>
      <trkpt lat="44.90464" lon="6.78236">
        <ele>2188</ele>
        <time>2014-07-31T16:21:06.260Z</time>
      </trkpt>
      <trkpt lat="44.90462" lon="6.78234">
        <ele>2188</ele>
        <time>2014-07-31T16:21:08.260Z</time>
      </trkpt>
      <trkpt lat="44.9046" lon="6.78233">
        <ele>2188</ele>
        <time>2014-07-31T16:21:10.160Z</time>
      </trkpt>
      <trkpt lat="44.9046" lon="6.78232">
        <ele>2188</ele>
        <time>2014-07-31T16:21:11.260Z</time>
      </trkpt>
      <trkpt lat="44.90458" lon="6.78229">
        <ele>2188</ele>
        <time>2014-07-31T16:21:13.160Z</time>
      </trkpt>
      <trkpt lat="44.90457" lon="6.78227">
        <ele>2189.4</ele>
        <time>2014-07-31T16:21:15.260Z</time>
      </trkpt>
      <trkpt lat="44.90457" lon="6.78224">
        <ele>2190</ele>
        <time>2014-07-31T16:21:17.120Z</time>
      </trkpt>
      <trkpt lat="44.90457" lon="6.78222">
        <ele>2190</ele>
        <time>2014-07-31T16:21:18.260Z</time>
      </trkpt>
      <trkpt lat="44.90458" lon="6.7822">
        <ele>2190</ele>
        <time>2014-07-31T16:21:20.260Z</time>
      </trkpt>
      <trkpt lat="44.90458" lon="6.78217">
        <ele>2190</ele>
        <time>2014-07-31T16:21:22.260Z</time>
      </trkpt>
      <trkpt lat="44.90458" lon="6.78214">
        <ele>2191</ele>
        <time>2014-07-31T16:21:26.060Z</time>
      </trkpt>
      <trkpt lat="44.90458" lon="6.78212">
        <ele>2191</ele>
        <time>2014-07-31T16:21:27.380Z</time>
      </trkpt>
      <trkpt lat="44.90458" lon="6.78209">
        <ele>2191</ele>
        <time>2014-07-31T16:21:29.260Z</time>
      </trkpt>
      <trkpt lat="44.90458" lon="6.78205">
        <ele>2191</ele>
        <time>2014-07-31T16:21:31.260Z</time>
      </trkpt>
      <trkpt lat="44.90459" lon="6.78203">
        <ele>2191</ele>
        <time>2014-07-31T16:21:33.260Z</time>
      </trkpt>
      <trkpt lat="44.9046" lon="6.782">
        <ele>2191</ele>
        <time>2014-07-31T16:21:35.260Z</time>
      </trkpt>
      <trkpt lat="44.9046" lon="6.78196">
        <ele>2191</ele>
        <time>2014-07-31T16:21:37.160Z</time>
      </trkpt>
      <trkpt lat="44.9046" lon="6.78194">
        <ele>2191</ele>
        <time>2014-07-31T16:21:38.260Z</time>
      </trkpt>
      <trkpt lat="44.90461" lon="6.7819">
        <ele>2191</ele>
        <time>2014-07-31T16:21:40.260Z</time>
      </trkpt>
      <trkpt lat="44.90461" lon="6.78185">
        <ele>2191</ele>
        <time>2014-07-31T16:21:42.260Z</time>
      </trkpt>
      <trkpt lat="44.90462" lon="6.78182">
        <ele>2191</ele>
        <time>2014-07-31T16:21:44.160Z</time>
      </trkpt>
      <trkpt lat="44.90462" lon="6.78181">
        <ele>2192.4</ele>
        <time>2014-07-31T16:21:45.260Z</time>
      </trkpt>
      <trkpt lat="44.90463" lon="6.78177">
        <ele>2193</ele>
        <time>2014-07-31T16:21:47.260Z</time>
      </trkpt>
      <trkpt lat="44.90464" lon="6.78173">
        <ele>2193</ele>
        <time>2014-07-31T16:21:49.160Z</time>
      </trkpt>
      <trkpt lat="44.90465" lon="6.78171">
        <ele>2193</ele>
        <time>2014-07-31T16:21:50.260Z</time>
      </trkpt>
      <trkpt lat="44.90466" lon="6.78168">
        <ele>2193</ele>
        <time>2014-07-31T16:21:52.260Z</time>
      </trkpt>
      <trkpt lat="44.90467" lon="6.78166">
        <ele>2193</ele>
        <time>2014-07-31T16:21:54.260Z</time>
      </trkpt>
      <trkpt lat="44.90468" lon="6.78163">
        <ele>2194</ele>
        <time>2014-07-31T16:21:56.260Z</time>
      </trkpt>
      <trkpt lat="44.9047" lon="6.78161">
        <ele>2194</ele>
        <time>2014-07-31T16:21:58.160Z</time>
      </trkpt>
      <trkpt lat="44.90471" lon="6.78159">
        <ele>2194</ele>
        <time>2014-07-31T16:21:59.260Z</time>
      </trkpt>
      <trkpt lat="44.90472" lon="6.78157">
        <ele>2194</ele>
        <time>2014-07-31T16:22:01.150Z</time>
      </trkpt>
      <trkpt lat="44.90473" lon="6.78156">
        <ele>2194</ele>
        <time>2014-07-31T16:22:02.260Z</time>
      </trkpt>
      <trkpt lat="44.90475" lon="6.78153">
        <ele>2194</ele>
        <time>2014-07-31T16:22:04.260Z</time>
      </trkpt>
      <trkpt lat="44.90477" lon="6.78151">
        <ele>2197</ele>
        <time>2014-07-31T16:22:06.260Z</time>
      </trkpt>
      <trkpt lat="44.90479" lon="6.78149">
        <ele>2197</ele>
        <time>2014-07-31T16:22:08.260Z</time>
      </trkpt>
      <trkpt lat="44.90482" lon="6.78148">
        <ele>2197.7</ele>
        <time>2014-07-31T16:22:10.260Z</time>
      </trkpt>
      <trkpt lat="44.90485" lon="6.78147">
        <ele>2198</ele>
        <time>2014-07-31T16:22:12.260Z</time>
      </trkpt>
      <trkpt lat="44.90487" lon="6.78146">
        <ele>2198</ele>
        <time>2014-07-31T16:22:14.260Z</time>
      </trkpt>
      <trkpt lat="44.9049" lon="6.78145">
        <ele>2198</ele>
        <time>2014-07-31T16:22:16.260Z</time>
      </trkpt>
      <trkpt lat="44.90492" lon="6.78145">
        <ele>2198</ele>
        <time>2014-07-31T16:22:18.240Z</time>
      </trkpt>
      <trkpt lat="44.90494" lon="6.78145">
        <ele>2198</ele>
        <time>2014-07-31T16:22:20.260Z</time>
      </trkpt>
      <trkpt lat="44.90497" lon="6.78144">
        <ele>2198</ele>
        <time>2014-07-31T16:22:22.260Z</time>
      </trkpt>
      <trkpt lat="44.905" lon="6.78145">
        <ele>2198</ele>
        <time>2014-07-31T16:22:24.160Z</time>
      </trkpt>
      <trkpt lat="44.90501" lon="6.78145">
        <ele>2199.4</ele>
        <time>2014-07-31T16:22:25.260Z</time>
      </trkpt>
      <trkpt lat="44.90503" lon="6.78145">
        <ele>2200</ele>
        <time>2014-07-31T16:22:27.260Z</time>
      </trkpt>
      <trkpt lat="44.90505" lon="6.78144">
        <ele>2200</ele>
        <time>2014-07-31T16:22:29.260Z</time>
      </trkpt>
      <trkpt lat="44.90508" lon="6.78144">
        <ele>2200</ele>
        <time>2014-07-31T16:22:31.380Z</time>
      </trkpt>
      <trkpt lat="44.90511" lon="6.78143">
        <ele>2200</ele>
        <time>2014-07-31T16:22:33.260Z</time>
      </trkpt>
      <trkpt lat="44.90514" lon="6.78142">
        <ele>2201.3</ele>
        <time>2014-07-31T16:22:35.260Z</time>
      </trkpt>
      <trkpt lat="44.90516" lon="6.7814">
        <ele>2202</ele>
        <time>2014-07-31T16:22:37.160Z</time>
      </trkpt>
      <trkpt lat="44.90517" lon="6.78139">
        <ele>2202</ele>
        <time>2014-07-31T16:22:38.260Z</time>
      </trkpt>
      <trkpt lat="44.9052" lon="6.78137">
        <ele>2202</ele>
        <time>2014-07-31T16:22:40.260Z</time>
      </trkpt>
      <trkpt lat="44.90523" lon="6.78136">
        <ele>2202</ele>
        <time>2014-07-31T16:22:42.260Z</time>
      </trkpt>
      <trkpt lat="44.90525" lon="6.78134">
        <ele>2202</ele>
        <time>2014-07-31T16:22:44.260Z</time>
      </trkpt>
      <trkpt lat="44.90527" lon="6.78133">
        <ele>2203</ele>
        <time>2014-07-31T16:22:46.260Z</time>
      </trkpt>
      <trkpt lat="44.9053" lon="6.7813">
        <ele>2203</ele>
        <time>2014-07-31T16:22:48.260Z</time>
      </trkpt>
      <trkpt lat="44.90532" lon="6.78128">
        <ele>2203</ele>
        <time>2014-07-31T16:22:50.160Z</time>
      </trkpt>
      <trkpt lat="44.90533" lon="6.78127">
        <ele>2203</ele>
        <time>2014-07-31T16:22:51.240Z</time>
      </trkpt>
      <trkpt lat="44.90535" lon="6.78125">
        <ele>2203</ele>
        <time>2014-07-31T16:22:53.160Z</time>
      </trkpt>
      <trkpt lat="44.90536" lon="6.78124">
        <ele>2203</ele>
        <time>2014-07-31T16:22:54.260Z</time>
      </trkpt>
      <trkpt lat="44.90539" lon="6.78123">
        <ele>2205</ele>
        <time>2014-07-31T16:22:56.260Z</time>
      </trkpt>
      <trkpt lat="44.90542" lon="6.78121">
        <ele>2205</ele>
        <time>2014-07-31T16:22:58.260Z</time>
      </trkpt>
      <trkpt lat="44.90544" lon="6.7812">
        <ele>2205</ele>
        <time>2014-07-31T16:23:00.210Z</time>
      </trkpt>
      <trkpt lat="44.90546" lon="6.78119">
        <ele>2205</ele>
        <time>2014-07-31T16:23:02.160Z</time>
      </trkpt>
      <trkpt lat="44.90547" lon="6.78117">
        <ele>2205</ele>
        <time>2014-07-31T16:23:03.260Z</time>
      </trkpt>
      <trkpt lat="44.90549" lon="6.78116">
        <ele>2205.7</ele>
        <time>2014-07-31T16:23:05.260Z</time>
      </trkpt>
      <trkpt lat="44.90552" lon="6.78114">
        <ele>2206</ele>
        <time>2014-07-31T16:23:07.260Z</time>
      </trkpt>
      <trkpt lat="44.90554" lon="6.78113">
        <ele>2206</ele>
        <time>2014-07-31T16:23:09.160Z</time>
      </trkpt>
      <trkpt lat="44.90555" lon="6.78112">
        <ele>2206</ele>
        <time>2014-07-31T16:23:10.260Z</time>
      </trkpt>
      <trkpt lat="44.90558" lon="6.7811">
        <ele>2206</ele>
        <time>2014-07-31T16:23:12.260Z</time>
      </trkpt>
      <trkpt lat="44.9056" lon="6.78109">
        <ele>2206</ele>
        <time>2014-07-31T16:23:14.260Z</time>
      </trkpt>
      <trkpt lat="44.90562" lon="6.78107">
        <ele>2208</ele>
        <time>2014-07-31T16:23:16.260Z</time>
      </trkpt>
      <trkpt lat="44.90564" lon="6.78105">
        <ele>2208</ele>
        <time>2014-07-31T16:23:18.260Z</time>
      </trkpt>
      <trkpt lat="44.90566" lon="6.78104">
        <ele>2208</ele>
        <time>2014-07-31T16:23:20.160Z</time>
      </trkpt>
      <trkpt lat="44.90567" lon="6.78103">
        <ele>2208</ele>
        <time>2014-07-31T16:23:21.260Z</time>
      </trkpt>
      <trkpt lat="44.9057" lon="6.78101">
        <ele>2208</ele>
        <time>2014-07-31T16:23:23.260Z</time>
      </trkpt>
      <trkpt lat="44.90573" lon="6.781">
        <ele>2208.6</ele>
        <time>2014-07-31T16:23:25.220Z</time>
      </trkpt>
      <trkpt lat="44.90575" lon="6.78098">
        <ele>2209</ele>
        <time>2014-07-31T16:23:27.260Z</time>
      </trkpt>
      <trkpt lat="44.90578" lon="6.78097">
        <ele>2209</ele>
        <time>2014-07-31T16:23:29.260Z</time>
      </trkpt>
      <trkpt lat="44.90581" lon="6.78097">
        <ele>2209</ele>
        <time>2014-07-31T16:23:31.240Z</time>
      </trkpt>
      <trkpt lat="44.90584" lon="6.78096">
        <ele>2209</ele>
        <time>2014-07-31T16:23:33.380Z</time>
      </trkpt>
      <trkpt lat="44.90586" lon="6.78096">
        <ele>2210.3</ele>
        <time>2014-07-31T16:23:35.260Z</time>
      </trkpt>
      <trkpt lat="44.90589" lon="6.78095">
        <ele>2211</ele>
        <time>2014-07-31T16:23:37.160Z</time>
      </trkpt>
      <trkpt lat="44.9059" lon="6.78095">
        <ele>2211</ele>
        <time>2014-07-31T16:23:38.260Z</time>
      </trkpt>
      <trkpt lat="44.90593" lon="6.78095">
        <ele>2211</ele>
        <time>2014-07-31T16:23:40.260Z</time>
      </trkpt>
      <trkpt lat="44.90595" lon="6.78095">
        <ele>2211</ele>
        <time>2014-07-31T16:23:42.220Z</time>
      </trkpt>
      <trkpt lat="44.90598" lon="6.78095">
        <ele>2211</ele>
        <time>2014-07-31T16:23:44.240Z</time>
      </trkpt>
      <trkpt lat="44.906" lon="6.78094">
        <ele>2212</ele>
        <time>2014-07-31T16:23:46.260Z</time>
      </trkpt>
      <trkpt lat="44.90603" lon="6.78095">
        <ele>2212</ele>
        <time>2014-07-31T16:23:48.260Z</time>
      </trkpt>
      <trkpt lat="44.90606" lon="6.78094">
        <ele>2212</ele>
        <time>2014-07-31T16:23:50.260Z</time>
      </trkpt>
      <trkpt lat="44.90608" lon="6.78092">
        <ele>2212</ele>
        <time>2014-07-31T16:23:52.260Z</time>
      </trkpt>
      <trkpt lat="44.90611" lon="6.7809">
        <ele>2212</ele>
        <time>2014-07-31T16:23:54.160Z</time>
      </trkpt>
      <trkpt lat="44.90612" lon="6.78089">
        <ele>2212.7</ele>
        <time>2014-07-31T16:23:55.260Z</time>
      </trkpt>
      <trkpt lat="44.90615" lon="6.78087">
        <ele>2213</ele>
        <time>2014-07-31T16:23:57.180Z</time>
      </trkpt>
      <trkpt lat="44.90618" lon="6.78085">
        <ele>2213</ele>
        <time>2014-07-31T16:23:59.220Z</time>
      </trkpt>
      <trkpt lat="44.9062" lon="6.78082">
        <ele>2213</ele>
        <time>2014-07-31T16:24:01.250Z</time>
      </trkpt>
      <trkpt lat="44.90623" lon="6.78081">
        <ele>2213</ele>
        <time>2014-07-31T16:24:03.260Z</time>
      </trkpt>
      <trkpt lat="44.90626" lon="6.7808">
        <ele>2214.3</ele>
        <time>2014-07-31T16:24:05.260Z</time>
      </trkpt>
      <trkpt lat="44.90628" lon="6.78077">
        <ele>2215</ele>
        <time>2014-07-31T16:24:07.140Z</time>
      </trkpt>
      <trkpt lat="44.90629" lon="6.78076">
        <ele>2215</ele>
        <time>2014-07-31T16:24:08.260Z</time>
      </trkpt>
      <trkpt lat="44.9063" lon="6.78072">
        <ele>2215</ele>
        <time>2014-07-31T16:24:10.260Z</time>
      </trkpt>
      <trkpt lat="44.90628" lon="6.78068">
        <ele>2215</ele>
        <time>2014-07-31T16:24:12.260Z</time>
      </trkpt>
      <trkpt lat="44.90626" lon="6.78065">
        <ele>2215</ele>
        <time>2014-07-31T16:24:14.260Z</time>
      </trkpt>
      <trkpt lat="44.90624" lon="6.78062">
        <ele>2215</ele>
        <time>2014-07-31T16:24:16.220Z</time>
      </trkpt>
      <trkpt lat="44.90622" lon="6.7806">
        <ele>2215</ele>
        <time>2014-07-31T16:24:18.160Z</time>
      </trkpt>
      <trkpt lat="44.9062" lon="6.78058">
        <ele>2215</ele>
        <time>2014-07-31T16:24:20.240Z</time>
      </trkpt>
      <trkpt lat="44.90619" lon="6.78056">
        <ele>2215</ele>
        <time>2014-07-31T16:24:22.260Z</time>
      </trkpt>
      <trkpt lat="44.90617" lon="6.78053">
        <ele>2215</ele>
        <time>2014-07-31T16:24:24.160Z</time>
      </trkpt>
      <trkpt lat="44.90616" lon="6.78051">
        <ele>2216.4</ele>
        <time>2014-07-31T16:24:25.260Z</time>
      </trkpt>
      <trkpt lat="44.90615" lon="6.78047">
        <ele>2217</ele>
        <time>2014-07-31T16:24:27.260Z</time>
      </trkpt>
      <trkpt lat="44.90615" lon="6.78044">
        <ele>2217</ele>
        <time>2014-07-31T16:24:29.260Z</time>
      </trkpt>
      <trkpt lat="44.90616" lon="6.7804">
        <ele>2217</ele>
        <time>2014-07-31T16:24:31.260Z</time>
      </trkpt>
      <trkpt lat="44.90618" lon="6.78036">
        <ele>2217</ele>
        <time>2014-07-31T16:24:33.220Z</time>
      </trkpt>
      <trkpt lat="44.9062" lon="6.78033">
        <ele>2218.4</ele>
        <time>2014-07-31T16:24:35.260Z</time>
      </trkpt>
      <trkpt lat="44.90622" lon="6.78031">
        <ele>2219</ele>
        <time>2014-07-31T16:24:37.260Z</time>
      </trkpt>
      <trkpt lat="44.90625" lon="6.78028">
        <ele>2219</ele>
        <time>2014-07-31T16:24:39.260Z</time>
      </trkpt>
      <trkpt lat="44.90627" lon="6.78025">
        <ele>2219</ele>
        <time>2014-07-31T16:24:41.260Z</time>
      </trkpt>
      <trkpt lat="44.90629" lon="6.78023">
        <ele>2219</ele>
        <time>2014-07-31T16:24:43.260Z</time>
      </trkpt>
      <trkpt lat="44.90631" lon="6.78022">
        <ele>2219.6</ele>
        <time>2014-07-31T16:24:45.180Z</time>
      </trkpt>
      <trkpt lat="44.90633" lon="6.78018">
        <ele>2220</ele>
        <time>2014-07-31T16:24:47.260Z</time>
      </trkpt>
      <trkpt lat="44.90635" lon="6.78015">
        <ele>2220</ele>
        <time>2014-07-31T16:24:49.260Z</time>
      </trkpt>
      <trkpt lat="44.90637" lon="6.78011">
        <ele>2220</ele>
        <time>2014-07-31T16:24:51.220Z</time>
      </trkpt>
      <trkpt lat="44.9064" lon="6.78008">
        <ele>2220</ele>
        <time>2014-07-31T16:24:53.160Z</time>
      </trkpt>
      <trkpt lat="44.90642" lon="6.78006">
        <ele>2220</ele>
        <time>2014-07-31T16:24:54.260Z</time>
      </trkpt>
      <trkpt lat="44.90645" lon="6.78002">
        <ele>2223</ele>
        <time>2014-07-31T16:24:56.260Z</time>
      </trkpt>
      <trkpt lat="44.90648" lon="6.77998">
        <ele>2223</ele>
        <time>2014-07-31T16:24:58.240Z</time>
      </trkpt>
      <trkpt lat="44.9065" lon="6.77993">
        <ele>2223</ele>
        <time>2014-07-31T16:25:00.210Z</time>
      </trkpt>
      <trkpt lat="44.90652" lon="6.77988">
        <ele>2223</ele>
        <time>2014-07-31T16:25:02.160Z</time>
      </trkpt>
      <trkpt lat="44.90653" lon="6.77986">
        <ele>2223</ele>
        <time>2014-07-31T16:25:03.260Z</time>
      </trkpt>
      <trkpt lat="44.90656" lon="6.77981">
        <ele>2223.7</ele>
        <time>2014-07-31T16:25:05.260Z</time>
      </trkpt>
      <trkpt lat="44.90659" lon="6.77977">
        <ele>2224</ele>
        <time>2014-07-31T16:25:07.220Z</time>
      </trkpt>
      <trkpt lat="44.90664" lon="6.77972">
        <ele>2224</ele>
        <time>2014-07-31T16:25:09.260Z</time>
      </trkpt>
      <trkpt lat="44.90667" lon="6.77967">
        <ele>2224</ele>
        <time>2014-07-31T16:25:11.260Z</time>
      </trkpt>
      <trkpt lat="44.90669" lon="6.77961">
        <ele>2224</ele>
        <time>2014-07-31T16:25:13.260Z</time>
      </trkpt>
      <trkpt lat="44.9067" lon="6.77954">
        <ele>2224</ele>
        <time>2014-07-31T16:25:15.260Z</time>
      </trkpt>
      <trkpt lat="44.90671" lon="6.77947">
        <ele>2224</ele>
        <time>2014-07-31T16:25:17.050Z</time>
      </trkpt>
      <trkpt lat="44.90674" lon="6.77941">
        <ele>2224</ele>
        <time>2014-07-31T16:25:19.260Z</time>
      </trkpt>
      <trkpt lat="44.90678" lon="6.77934">
        <ele>2224</ele>
        <time>2014-07-31T16:25:21.240Z</time>
      </trkpt>
      <trkpt lat="44.90684" lon="6.77928">
        <ele>2224</ele>
        <time>2014-07-31T16:25:23.260Z</time>
      </trkpt>
      <trkpt lat="44.90688" lon="6.77922">
        <ele>2224</ele>
        <time>2014-07-31T16:25:25.260Z</time>
      </trkpt>
      <trkpt lat="44.90692" lon="6.77917">
        <ele>2224</ele>
        <time>2014-07-31T16:25:27.260Z</time>
      </trkpt>
      <trkpt lat="44.90696" lon="6.77912">
        <ele>2224</ele>
        <time>2014-07-31T16:25:29.260Z</time>
      </trkpt>
      <trkpt lat="44.907" lon="6.77907">
        <ele>2224</ele>
        <time>2014-07-31T16:25:31.260Z</time>
      </trkpt>
      <trkpt lat="44.90704" lon="6.77902">
        <ele>2224</ele>
        <time>2014-07-31T16:25:33.240Z</time>
      </trkpt>
      <trkpt lat="44.90708" lon="6.77897">
        <ele>2224.7</ele>
        <time>2014-07-31T16:25:35.260Z</time>
      </trkpt>
      <trkpt lat="44.90712" lon="6.77893">
        <ele>2225</ele>
        <time>2014-07-31T16:25:37.260Z</time>
      </trkpt>
      <trkpt lat="44.90717" lon="6.77891">
        <ele>2225</ele>
        <time>2014-07-31T16:25:39.260Z</time>
      </trkpt>
      <trkpt lat="44.90722" lon="6.77888">
        <ele>2225</ele>
        <time>2014-07-31T16:25:41.120Z</time>
      </trkpt>
      <trkpt lat="44.90725" lon="6.77887">
        <ele>2225</ele>
        <time>2014-07-31T16:25:42.260Z</time>
      </trkpt>
      <trkpt lat="44.90731" lon="6.77884">
        <ele>2225</ele>
        <time>2014-07-31T16:25:44.160Z</time>
      </trkpt>
      <trkpt lat="44.90733" lon="6.77882">
        <ele>2225.7</ele>
        <time>2014-07-31T16:25:45.260Z</time>
      </trkpt>
      <trkpt lat="44.90739" lon="6.7788">
        <ele>2226</ele>
        <time>2014-07-31T16:25:47.260Z</time>
      </trkpt>
      <trkpt lat="44.90744" lon="6.77881">
        <ele>2226</ele>
        <time>2014-07-31T16:25:49.260Z</time>
      </trkpt>
      <trkpt lat="44.9075" lon="6.77884">
        <ele>2226</ele>
        <time>2014-07-31T16:25:51.220Z</time>
      </trkpt>
      <trkpt lat="44.90755" lon="6.77886">
        <ele>2226</ele>
        <time>2014-07-31T16:25:53.160Z</time>
      </trkpt>
      <trkpt lat="44.90757" lon="6.77887">
        <ele>2226</ele>
        <time>2014-07-31T16:25:54.260Z</time>
      </trkpt>
      <trkpt lat="44.90762" lon="6.77889">
        <ele>2228</ele>
        <time>2014-07-31T16:25:56.260Z</time>
      </trkpt>
      <trkpt lat="44.90767" lon="6.77891">
        <ele>2228</ele>
        <time>2014-07-31T16:25:58.080Z</time>
      </trkpt>
      <trkpt lat="44.9077" lon="6.77891">
        <ele>2228</ele>
        <time>2014-07-31T16:25:59.260Z</time>
      </trkpt>
      <trkpt lat="44.90774" lon="6.77893">
        <ele>2228</ele>
        <time>2014-07-31T16:26:01.250Z</time>
      </trkpt>
      <trkpt lat="44.90779" lon="6.77896">
        <ele>2228</ele>
        <time>2014-07-31T16:26:03.260Z</time>
      </trkpt>
      <trkpt lat="44.90784" lon="6.77898">
        <ele>2228.6</ele>
        <time>2014-07-31T16:26:05.160Z</time>
      </trkpt>
      <trkpt lat="44.90787" lon="6.77899">
        <ele>2229</ele>
        <time>2014-07-31T16:26:06.260Z</time>
      </trkpt>
      <trkpt lat="44.90792" lon="6.77902">
        <ele>2229</ele>
        <time>2014-07-31T16:26:08.160Z</time>
      </trkpt>
      <trkpt lat="44.90794" lon="6.77903">
        <ele>2229</ele>
        <time>2014-07-31T16:26:09.260Z</time>
      </trkpt>
      <trkpt lat="44.90799" lon="6.77906">
        <ele>2229</ele>
        <time>2014-07-31T16:26:11.260Z</time>
      </trkpt>
      <trkpt lat="44.90804" lon="6.7791">
        <ele>2229</ele>
        <time>2014-07-31T16:26:13.160Z</time>
      </trkpt>
      <trkpt lat="44.90806" lon="6.77911">
        <ele>2229</ele>
        <time>2014-07-31T16:26:14.260Z</time>
      </trkpt>
      <trkpt lat="44.9081" lon="6.77914">
        <ele>2230</ele>
        <time>2014-07-31T16:26:16.160Z</time>
      </trkpt>
      <trkpt lat="44.90812" lon="6.77916">
        <ele>2230</ele>
        <time>2014-07-31T16:26:17.220Z</time>
      </trkpt>
      <trkpt lat="44.90817" lon="6.77919">
        <ele>2230</ele>
        <time>2014-07-31T16:26:19.260Z</time>
      </trkpt>
      <trkpt lat="44.90821" lon="6.77925">
        <ele>2230</ele>
        <time>2014-07-31T16:26:21.240Z</time>
      </trkpt>
      <trkpt lat="44.90824" lon="6.77932">
        <ele>2230</ele>
        <time>2014-07-31T16:26:23.260Z</time>
      </trkpt>
      <trkpt lat="44.90825" lon="6.77939">
        <ele>2230.7</ele>
        <time>2014-07-31T16:26:25.260Z</time>
      </trkpt>
      <trkpt lat="44.90827" lon="6.77946">
        <ele>2231</ele>
        <time>2014-07-31T16:26:27.260Z</time>
      </trkpt>
      <trkpt lat="44.9083" lon="6.77951">
        <ele>2231</ele>
        <time>2014-07-31T16:26:29.260Z</time>
      </trkpt>
      <trkpt lat="44.90836" lon="6.77956">
        <ele>2231</ele>
        <time>2014-07-31T16:26:31.260Z</time>
      </trkpt>
      <trkpt lat="44.90842" lon="6.77961">
        <ele>2231</ele>
        <time>2014-07-31T16:26:33.240Z</time>
      </trkpt>
      <trkpt lat="44.9085" lon="6.77966">
        <ele>2231</ele>
        <time>2014-07-31T16:26:35.260Z</time>
      </trkpt>
      <trkpt lat="44.90858" lon="6.77973">
        <ele>2231</ele>
        <time>2014-07-31T16:26:37.260Z</time>
      </trkpt>
      <trkpt lat="44.90864" lon="6.77986">
        <ele>2231</ele>
        <time>2014-07-31T16:26:39.160Z</time>
      </trkpt>
      <trkpt lat="44.90867" lon="6.77993">
        <ele>2231</ele>
        <time>2014-07-31T16:26:40.260Z</time>
      </trkpt>
      <trkpt lat="44.90874" lon="6.78005">
        <ele>2231</ele>
        <time>2014-07-31T16:26:42.260Z</time>
      </trkpt>
      <trkpt lat="44.90885" lon="6.78008">
        <ele>2231</ele>
        <time>2014-07-31T16:26:44.260Z</time>
      </trkpt>
      <trkpt lat="44.90895" lon="6.78005">
        <ele>2229</ele>
        <time>2014-07-31T16:26:46.240Z</time>
      </trkpt>
      <trkpt lat="44.90905" lon="6.78003">
        <ele>2229</ele>
        <time>2014-07-31T16:26:48.260Z</time>
      </trkpt>
      <trkpt lat="44.90914" lon="6.78004">
        <ele>2229</ele>
        <time>2014-07-31T16:26:50.260Z</time>
      </trkpt>
      <trkpt lat="44.90923" lon="6.78007">
        <ele>2229</ele>
        <time>2014-07-31T16:26:52.160Z</time>
      </trkpt>
      <trkpt lat="44.90927" lon="6.78009">
        <ele>2229</ele>
        <time>2014-07-31T16:26:53.260Z</time>
      </trkpt>
      <trkpt lat="44.90934" lon="6.78011">
        <ele>2229.7</ele>
        <time>2014-07-31T16:26:55.260Z</time>
      </trkpt>
      <trkpt lat="44.90942" lon="6.78011">
        <ele>2230</ele>
        <time>2014-07-31T16:26:57.260Z</time>
      </trkpt>
      <trkpt lat="44.90949" lon="6.78013">
        <ele>2230</ele>
        <time>2014-07-31T16:26:59.160Z</time>
      </trkpt>
      <trkpt lat="44.90952" lon="6.78014">
        <ele>2230</ele>
        <time>2014-07-31T16:27:00.220Z</time>
      </trkpt>
      <trkpt lat="44.90959" lon="6.78015">
        <ele>2230</ele>
        <time>2014-07-31T16:27:02.260Z</time>
      </trkpt>
      <trkpt lat="44.90967" lon="6.78016">
        <ele>2230</ele>
        <time>2014-07-31T16:27:04.160Z</time>
      </trkpt>
      <trkpt lat="44.90971" lon="6.78016">
        <ele>2230.7</ele>
        <time>2014-07-31T16:27:05.260Z</time>
      </trkpt>
      <trkpt lat="44.90978" lon="6.78014">
        <ele>2231</ele>
        <time>2014-07-31T16:27:07.160Z</time>
      </trkpt>
      <trkpt lat="44.90981" lon="6.78013">
        <ele>2231</ele>
        <time>2014-07-31T16:27:08.260Z</time>
      </trkpt>
      <trkpt lat="44.90988" lon="6.7801">
        <ele>2231</ele>
        <time>2014-07-31T16:27:10.160Z</time>
      </trkpt>
      <trkpt lat="44.90991" lon="6.78008">
        <ele>2231</ele>
        <time>2014-07-31T16:27:11.260Z</time>
      </trkpt>
      <trkpt lat="44.90997" lon="6.78005">
        <ele>2231</ele>
        <time>2014-07-31T16:27:13.260Z</time>
      </trkpt>
      <trkpt lat="44.91003" lon="6.78006">
        <ele>2231</ele>
        <time>2014-07-31T16:27:15.260Z</time>
      </trkpt>
      <trkpt lat="44.91009" lon="6.78008">
        <ele>2231</ele>
        <time>2014-07-31T16:27:17.220Z</time>
      </trkpt>
      <trkpt lat="44.91016" lon="6.7801">
        <ele>2231</ele>
        <time>2014-07-31T16:27:19.260Z</time>
      </trkpt>
      <trkpt lat="44.91023" lon="6.78012">
        <ele>2231</ele>
        <time>2014-07-31T16:27:21.260Z</time>
      </trkpt>
      <trkpt lat="44.91029" lon="6.78014">
        <ele>2231</ele>
        <time>2014-07-31T16:27:23.220Z</time>
      </trkpt>
      <trkpt lat="44.91037" lon="6.78015">
        <ele>2230.3</ele>
        <time>2014-07-31T16:27:25.260Z</time>
      </trkpt>
      <trkpt lat="44.91045" lon="6.78014">
        <ele>2230</ele>
        <time>2014-07-31T16:27:27.260Z</time>
      </trkpt>
      <trkpt lat="44.91052" lon="6.78011">
        <ele>2230</ele>
        <time>2014-07-31T16:27:29.260Z</time>
      </trkpt>
      <trkpt lat="44.91058" lon="6.78007">
        <ele>2230</ele>
        <time>2014-07-31T16:27:31.260Z</time>
      </trkpt>
      <trkpt lat="44.91064" lon="6.78002">
        <ele>2230</ele>
        <time>2014-07-31T16:27:33.260Z</time>
      </trkpt>
      <trkpt lat="44.91069" lon="6.77998">
        <ele>2230</ele>
        <time>2014-07-31T16:27:35.260Z</time>
      </trkpt>
      <trkpt lat="44.91074" lon="6.77994">
        <ele>2230</ele>
        <time>2014-07-31T16:27:37.260Z</time>
      </trkpt>
      <trkpt lat="44.91077" lon="6.77991">
        <ele>2230</ele>
        <time>2014-07-31T16:27:39.260Z</time>
      </trkpt>
      <trkpt lat="44.91081" lon="6.77987">
        <ele>2230</ele>
        <time>2014-07-31T16:27:41.260Z</time>
      </trkpt>
      <trkpt lat="44.91084" lon="6.77981">
        <ele>2230</ele>
        <time>2014-07-31T16:27:43.260Z</time>
      </trkpt>
      <trkpt lat="44.91086" lon="6.77976">
        <ele>2231.4</ele>
        <time>2014-07-31T16:27:45.260Z</time>
      </trkpt>
      <trkpt lat="44.91089" lon="6.7797">
        <ele>2232</ele>
        <time>2014-07-31T16:27:47.260Z</time>
      </trkpt>
      <trkpt lat="44.91092" lon="6.77966">
        <ele>2232</ele>
        <time>2014-07-31T16:27:49.260Z</time>
      </trkpt>
      <trkpt lat="44.91094" lon="6.77961">
        <ele>2232</ele>
        <time>2014-07-31T16:27:51.220Z</time>
      </trkpt>
      <trkpt lat="44.91096" lon="6.77955">
        <ele>2232</ele>
        <time>2014-07-31T16:27:53.260Z</time>
      </trkpt>
      <trkpt lat="44.91098" lon="6.7795">
        <ele>2233.4</ele>
        <time>2014-07-31T16:27:55.260Z</time>
      </trkpt>
      <trkpt lat="44.91101" lon="6.77946">
        <ele>2234</ele>
        <time>2014-07-31T16:27:57.220Z</time>
      </trkpt>
      <trkpt lat="44.91103" lon="6.77942">
        <ele>2234</ele>
        <time>2014-07-31T16:27:59.260Z</time>
      </trkpt>
      <trkpt lat="44.91106" lon="6.77937">
        <ele>2234</ele>
        <time>2014-07-31T16:28:01.120Z</time>
      </trkpt>
      <trkpt lat="44.91107" lon="6.77934">
        <ele>2234</ele>
        <time>2014-07-31T16:28:02.260Z</time>
      </trkpt>
      <trkpt lat="44.91109" lon="6.77929">
        <ele>2234</ele>
        <time>2014-07-31T16:28:04.280Z</time>
      </trkpt>
      <trkpt lat="44.9111" lon="6.77927">
        <ele>2234.7</ele>
        <time>2014-07-31T16:28:05.260Z</time>
      </trkpt>
      <trkpt lat="44.9111" lon="6.77922">
        <ele>2235</ele>
        <time>2014-07-31T16:28:07.260Z</time>
      </trkpt>
      <trkpt lat="44.91111" lon="6.77916">
        <ele>2235</ele>
        <time>2014-07-31T16:28:09.260Z</time>
      </trkpt>
      <trkpt lat="44.91111" lon="6.77911">
        <ele>2235</ele>
        <time>2014-07-31T16:28:11.240Z</time>
      </trkpt>
      <trkpt lat="44.91112" lon="6.77906">
        <ele>2235</ele>
        <time>2014-07-31T16:28:13.160Z</time>
      </trkpt>
      <trkpt lat="44.91113" lon="6.77903">
        <ele>2235</ele>
        <time>2014-07-31T16:28:14.220Z</time>
      </trkpt>
      <trkpt lat="44.91116" lon="6.77898">
        <ele>2237</ele>
        <time>2014-07-31T16:28:16.260Z</time>
      </trkpt>
      <trkpt lat="44.91119" lon="6.77893">
        <ele>2237</ele>
        <time>2014-07-31T16:28:18.260Z</time>
      </trkpt>
      <trkpt lat="44.91124" lon="6.7789">
        <ele>2237</ele>
        <time>2014-07-31T16:28:20.260Z</time>
      </trkpt>
      <trkpt lat="44.91128" lon="6.7789">
        <ele>2237</ele>
        <time>2014-07-31T16:28:22.260Z</time>
      </trkpt>
      <trkpt lat="44.91133" lon="6.77889">
        <ele>2237</ele>
        <time>2014-07-31T16:28:24.240Z</time>
      </trkpt>
      <trkpt lat="44.91137" lon="6.77889">
        <ele>2238</ele>
        <time>2014-07-31T16:28:26.260Z</time>
      </trkpt>
      <trkpt lat="44.91141" lon="6.77889">
        <ele>2238</ele>
        <time>2014-07-31T16:28:28.260Z</time>
      </trkpt>
      <trkpt lat="44.91146" lon="6.77888">
        <ele>2238</ele>
        <time>2014-07-31T16:28:30.260Z</time>
      </trkpt>
      <trkpt lat="44.9115" lon="6.77889">
        <ele>2238</ele>
        <time>2014-07-31T16:28:32.260Z</time>
      </trkpt>
      <trkpt lat="44.91154" lon="6.7789">
        <ele>2238</ele>
        <time>2014-07-31T16:28:34.220Z</time>
      </trkpt>
      <trkpt lat="44.91158" lon="6.77889">
        <ele>2238</ele>
        <time>2014-07-31T16:28:36.260Z</time>
      </trkpt>
      <trkpt lat="44.91164" lon="6.77888">
        <ele>2238</ele>
        <time>2014-07-31T16:28:38.260Z</time>
      </trkpt>
      <trkpt lat="44.91169" lon="6.77889">
        <ele>2238</ele>
        <time>2014-07-31T16:28:40.260Z</time>
      </trkpt>
      <trkpt lat="44.91173" lon="6.77891">
        <ele>2238</ele>
        <time>2014-07-31T16:28:42.260Z</time>
      </trkpt>
      <trkpt lat="44.91177" lon="6.77893">
        <ele>2238</ele>
        <time>2014-07-31T16:28:44.260Z</time>
      </trkpt>
      <trkpt lat="44.91182" lon="6.77895">
        <ele>2240</ele>
        <time>2014-07-31T16:28:46.260Z</time>
      </trkpt>
      <trkpt lat="44.91186" lon="6.77892">
        <ele>2240</ele>
        <time>2014-07-31T16:28:48.120Z</time>
      </trkpt>
      <trkpt lat="44.91188" lon="6.77889">
        <ele>2240</ele>
        <time>2014-07-31T16:28:49.240Z</time>
      </trkpt>
      <trkpt lat="44.91192" lon="6.77883">
        <ele>2240</ele>
        <time>2014-07-31T16:28:51.050Z</time>
      </trkpt>
      <trkpt lat="44.91193" lon="6.77879">
        <ele>2240</ele>
        <time>2014-07-31T16:28:52.260Z</time>
      </trkpt>
      <trkpt lat="44.91198" lon="6.77874">
        <ele>2240</ele>
        <time>2014-07-31T16:28:54.260Z</time>
      </trkpt>
      <trkpt lat="44.91204" lon="6.7787">
        <ele>2240</ele>
        <time>2014-07-31T16:28:56.260Z</time>
      </trkpt>
      <trkpt lat="44.9121" lon="6.77866">
        <ele>2240</ele>
        <time>2014-07-31T16:28:58.260Z</time>
      </trkpt>
      <trkpt lat="44.91216" lon="6.7786">
        <ele>2240</ele>
        <time>2014-07-31T16:29:00.210Z</time>
      </trkpt>
      <trkpt lat="44.91222" lon="6.77854">
        <ele>2240</ele>
        <time>2014-07-31T16:29:02.160Z</time>
      </trkpt>
      <trkpt lat="44.91225" lon="6.7785">
        <ele>2240</ele>
        <time>2014-07-31T16:29:03.260Z</time>
      </trkpt>
      <trkpt lat="44.91232" lon="6.77845">
        <ele>2240.6</ele>
        <time>2014-07-31T16:29:05.220Z</time>
      </trkpt>
      <trkpt lat="44.91239" lon="6.77843">
        <ele>2241</ele>
        <time>2014-07-31T16:29:07.260Z</time>
      </trkpt>
      <trkpt lat="44.91247" lon="6.77841">
        <ele>2241</ele>
        <time>2014-07-31T16:29:09.260Z</time>
      </trkpt>
      <trkpt lat="44.91254" lon="6.77839">
        <ele>2241</ele>
        <time>2014-07-31T16:29:11.260Z</time>
      </trkpt>
      <trkpt lat="44.9126" lon="6.77838">
        <ele>2241</ele>
        <time>2014-07-31T16:29:13.260Z</time>
      </trkpt>
      <trkpt lat="44.91265" lon="6.77837">
        <ele>2241.7</ele>
        <time>2014-07-31T16:29:15.260Z</time>
      </trkpt>
      <trkpt lat="44.9127" lon="6.77834">
        <ele>2242</ele>
        <time>2014-07-31T16:29:17.220Z</time>
      </trkpt>
      <trkpt lat="44.91274" lon="6.77831">
        <ele>2242</ele>
        <time>2014-07-31T16:29:19.260Z</time>
      </trkpt>
      <trkpt lat="44.91275" lon="6.77826">
        <ele>2242</ele>
        <time>2014-07-31T16:29:21.160Z</time>
      </trkpt>
      <trkpt lat="44.91276" lon="6.77824">
        <ele>2242</ele>
        <time>2014-07-31T16:29:22.220Z</time>
      </trkpt>
      <trkpt lat="44.91276" lon="6.77819">
        <ele>2242</ele>
        <time>2014-07-31T16:29:24.160Z</time>
      </trkpt>
      <trkpt lat="44.91276" lon="6.77816">
        <ele>2242.7</ele>
        <time>2014-07-31T16:29:25.240Z</time>
      </trkpt>
      <trkpt lat="44.91275" lon="6.77811">
        <ele>2243</ele>
        <time>2014-07-31T16:29:27.260Z</time>
      </trkpt>
      <trkpt lat="44.91275" lon="6.77805">
        <ele>2243</ele>
        <time>2014-07-31T16:29:29.260Z</time>
      </trkpt>
      <trkpt lat="44.91277" lon="6.77798">
        <ele>2243</ele>
        <time>2014-07-31T16:29:31.260Z</time>
      </trkpt>
      <trkpt lat="44.91281" lon="6.77795">
        <ele>2243</ele>
        <time>2014-07-31T16:29:33.250Z</time>
      </trkpt>
      <trkpt lat="44.91282" lon="6.77793">
        <ele>2243</ele>
        <time>2014-07-31T16:29:34.220Z</time>
      </trkpt>
      <trkpt lat="44.91287" lon="6.77791">
        <ele>2245</ele>
        <time>2014-07-31T16:29:36.260Z</time>
      </trkpt>
      <trkpt lat="44.91291" lon="6.77792">
        <ele>2245</ele>
        <time>2014-07-31T16:29:38.260Z</time>
      </trkpt>
      <trkpt lat="44.91296" lon="6.77793">
        <ele>2245</ele>
        <time>2014-07-31T16:29:40.260Z</time>
      </trkpt>
      <trkpt lat="44.91299" lon="6.77794">
        <ele>2245</ele>
        <time>2014-07-31T16:29:42.260Z</time>
      </trkpt>
      <trkpt lat="44.91303" lon="6.77795">
        <ele>2245</ele>
        <time>2014-07-31T16:29:44.260Z</time>
      </trkpt>
      <trkpt lat="44.91307" lon="6.77794">
        <ele>2248</ele>
        <time>2014-07-31T16:29:46.160Z</time>
      </trkpt>
      <trkpt lat="44.91309" lon="6.77794">
        <ele>2248</ele>
        <time>2014-07-31T16:29:47.260Z</time>
      </trkpt>
      <trkpt lat="44.91313" lon="6.77792">
        <ele>2248</ele>
        <time>2014-07-31T16:29:49.260Z</time>
      </trkpt>
      <trkpt lat="44.91318" lon="6.7779">
        <ele>2248</ele>
        <time>2014-07-31T16:29:51.050Z</time>
      </trkpt>
      <trkpt lat="44.9132" lon="6.7779">
        <ele>2248</ele>
        <time>2014-07-31T16:29:52.260Z</time>
      </trkpt>
      <trkpt lat="44.91324" lon="6.77791">
        <ele>2248</ele>
        <time>2014-07-31T16:29:54.160Z</time>
      </trkpt>
      <trkpt lat="44.91327" lon="6.77791">
        <ele>2248.7</ele>
        <time>2014-07-31T16:29:55.250Z</time>
      </trkpt>
      <trkpt lat="44.91331" lon="6.77793">
        <ele>2249</ele>
        <time>2014-07-31T16:29:57.260Z</time>
      </trkpt>
      <trkpt lat="44.91335" lon="6.77795">
        <ele>2249</ele>
        <time>2014-07-31T16:29:59.280Z</time>
      </trkpt>
      <trkpt lat="44.91337" lon="6.77797">
        <ele>2249</ele>
        <time>2014-07-31T16:30:00.210Z</time>
      </trkpt>
      <trkpt lat="44.91341" lon="6.77799">
        <ele>2249</ele>
        <time>2014-07-31T16:30:02.160Z</time>
      </trkpt>
      <trkpt lat="44.91343" lon="6.77801">
        <ele>2249</ele>
        <time>2014-07-31T16:30:03.260Z</time>
      </trkpt>
      <trkpt lat="44.91346" lon="6.77803">
        <ele>2249</ele>
        <time>2014-07-31T16:30:05.260Z</time>
      </trkpt>
      <trkpt lat="44.91349" lon="6.77805">
        <ele>2249</ele>
        <time>2014-07-31T16:30:07.260Z</time>
      </trkpt>
      <trkpt lat="44.91351" lon="6.77807">
        <ele>2249</ele>
        <time>2014-07-31T16:30:09.260Z</time>
      </trkpt>
      <trkpt lat="44.91353" lon="6.77808">
        <ele>2249</ele>
        <time>2014-07-31T16:30:11.160Z</time>
      </trkpt>
      <trkpt lat="44.91354" lon="6.77808">
        <ele>2249</ele>
        <time>2014-07-31T16:30:19.260Z</time>
      </trkpt>
      <trkpt lat="44.91355" lon="6.77807">
        <ele>2249</ele>
        <time>2014-07-31T16:30:23.260Z</time>
      </trkpt>
      <trkpt lat="44.91353" lon="6.77806">
        <ele>2249</ele>
        <time>2014-07-31T16:30:27.240Z</time>
      </trkpt>
      <trkpt lat="44.91355" lon="6.77805">
        <ele>2249</ele>
        <time>2014-07-31T16:30:32.260Z</time>
      </trkpt>
      <trkpt lat="44.91353" lon="6.77803">
        <ele>2249</ele>
        <time>2014-07-31T16:30:36.260Z</time>
      </trkpt>
      <trkpt lat="44.91351" lon="6.778">
        <ele>2249</ele>
        <time>2014-07-31T16:30:38.380Z</time>
      </trkpt>
      <trkpt lat="44.91351" lon="6.77799">
        <ele>2249</ele>
        <time>2014-07-31T16:30:40.240Z</time>
      </trkpt>
      <trkpt lat="44.9135" lon="6.778">
        <ele>2249</ele>
        <time>2014-07-31T16:30:42.260Z</time>
      </trkpt>
      <trkpt lat="44.91349" lon="6.77799">
        <ele>2249</ele>
        <time>2014-07-31T16:30:44.260Z</time>
      </trkpt>
      <trkpt lat="44.91348" lon="6.77798">
        <ele>2249</ele>
        <time>2014-07-31T16:30:47.200Z</time>
      </trkpt>
      <trkpt lat="44.91348" lon="6.77795">
        <ele>2249</ele>
        <time>2014-07-31T16:30:51.220Z</time>
      </trkpt>
      <trkpt lat="44.91348" lon="6.77796">
        <ele>2249</ele>
        <time>2014-07-31T16:31:01.250Z</time>
      </trkpt>
      <trkpt lat="44.91347" lon="6.77796">
        <ele>2249</ele>
        <time>2014-07-31T16:31:27.160Z</time>
      </trkpt>
      <trkpt lat="44.91348" lon="6.77796">
        <ele>2248</ele>
        <time>2014-07-31T16:32:01.250Z</time>
      </trkpt>
      <trkpt lat="44.91347" lon="6.77796">
        <ele>2249</ele>
        <time>2014-07-31T16:33:00.210Z</time>
      </trkpt>
      <trkpt lat="44.91348" lon="6.77796">
        <ele>2249</ele>
        <time>2014-07-31T16:33:27.250Z</time>
      </trkpt>
      <trkpt lat="44.9135" lon="6.77799">
        <ele>2249</ele>
        <time>2014-07-31T16:33:29.250Z</time>
      </trkpt>
      <trkpt lat="44.91351" lon="6.77802">
        <ele>2249</ele>
        <time>2014-07-31T16:33:31.350Z</time>
      </trkpt>
      <trkpt lat="44.91351" lon="6.77804">
        <ele>2249</ele>
        <time>2014-07-31T16:33:33.150Z</time>
      </trkpt>
      <trkpt lat="44.9135" lon="6.77805">
        <ele>2249</ele>
        <time>2014-07-31T16:33:39.250Z</time>
      </trkpt>
      <trkpt lat="44.91351" lon="6.77804">
        <ele>2249</ele>
        <time>2014-07-31T16:33:41.250Z</time>
      </trkpt>
      <trkpt lat="44.9135" lon="6.77802">
        <ele>2249</ele>
        <time>2014-07-31T16:33:43.250Z</time>
      </trkpt>
      <trkpt lat="44.91351" lon="6.77798">
        <ele>2249</ele>
        <time>2014-07-31T16:33:45.250Z</time>
      </trkpt>
      <trkpt lat="44.91352" lon="6.77796">
        <ele>2249</ele>
        <time>2014-07-31T16:33:47.150Z</time>
      </trkpt>
      <trkpt lat="44.91353" lon="6.77795">
        <ele>2249</ele>
        <time>2014-07-31T16:33:48.360Z</time>
      </trkpt>
      <trkpt lat="44.91354" lon="6.77793">
        <ele>2249</ele>
        <time>2014-07-31T16:33:50.250Z</time>
      </trkpt>
      <trkpt lat="44.91355" lon="6.77792">
        <ele>2249</ele>
        <time>2014-07-31T16:33:52.250Z</time>
      </trkpt>
      <trkpt lat="44.91356" lon="6.7779">
        <ele>2249</ele>
        <time>2014-07-31T16:33:54.120Z</time>
      </trkpt>
      <trkpt lat="44.91356" lon="6.77788">
        <ele>2249.7</ele>
        <time>2014-07-31T16:33:55.250Z</time>
      </trkpt>
      <trkpt lat="44.91356" lon="6.77785">
        <ele>2250</ele>
        <time>2014-07-31T16:33:57.250Z</time>
      </trkpt>
      <trkpt lat="44.91357" lon="6.77782">
        <ele>2250</ele>
        <time>2014-07-31T16:33:59.150Z</time>
      </trkpt>
      <trkpt lat="44.91356" lon="6.7778">
        <ele>2250</ele>
        <time>2014-07-31T16:34:00.220Z</time>
      </trkpt>
      <trkpt lat="44.91356" lon="6.77778">
        <ele>2250</ele>
        <time>2014-07-31T16:34:02.250Z</time>
      </trkpt>
      <trkpt lat="44.91355" lon="6.77775">
        <ele>2250</ele>
        <time>2014-07-31T16:34:04.150Z</time>
      </trkpt>
      <trkpt lat="44.91355" lon="6.77772">
        <ele>2251</ele>
        <time>2014-07-31T16:34:07.250Z</time>
      </trkpt>
      <trkpt lat="44.91354" lon="6.77769">
        <ele>2251</ele>
        <time>2014-07-31T16:34:09.250Z</time>
      </trkpt>
      <trkpt lat="44.91354" lon="6.77766">
        <ele>2251</ele>
        <time>2014-07-31T16:34:11.120Z</time>
      </trkpt>
      <trkpt lat="44.91353" lon="6.77764">
        <ele>2251</ele>
        <time>2014-07-31T16:34:12.250Z</time>
      </trkpt>
      <trkpt lat="44.91352" lon="6.77761">
        <ele>2251</ele>
        <time>2014-07-31T16:34:14.250Z</time>
      </trkpt>
      <trkpt lat="44.91351" lon="6.77758">
        <ele>2251</ele>
        <time>2014-07-31T16:34:16.150Z</time>
      </trkpt>
      <trkpt lat="44.91351" lon="6.77757">
        <ele>2251</ele>
        <time>2014-07-31T16:34:17.220Z</time>
      </trkpt>
      <trkpt lat="44.91351" lon="6.77754">
        <ele>2251</ele>
        <time>2014-07-31T16:34:19.250Z</time>
      </trkpt>
      <trkpt lat="44.9135" lon="6.77751">
        <ele>2251</ele>
        <time>2014-07-31T16:34:21.250Z</time>
      </trkpt>
      <trkpt lat="44.9135" lon="6.77748">
        <ele>2251</ele>
        <time>2014-07-31T16:34:23.250Z</time>
      </trkpt>
      <trkpt lat="44.9135" lon="6.77745">
        <ele>2252.1</ele>
        <time>2014-07-31T16:34:25.140Z</time>
      </trkpt>
      <trkpt lat="44.9135" lon="6.77743">
        <ele>2253</ele>
        <time>2014-07-31T16:34:26.250Z</time>
      </trkpt>
      <trkpt lat="44.91349" lon="6.7774">
        <ele>2253</ele>
        <time>2014-07-31T16:34:28.120Z</time>
      </trkpt>
      <trkpt lat="44.91348" lon="6.77736">
        <ele>2253</ele>
        <time>2014-07-31T16:34:31.250Z</time>
      </trkpt>
      <trkpt lat="44.91348" lon="6.77733">
        <ele>2253</ele>
        <time>2014-07-31T16:34:33.150Z</time>
      </trkpt>
      <trkpt lat="44.91347" lon="6.77729">
        <ele>2253.7</ele>
        <time>2014-07-31T16:34:35.250Z</time>
      </trkpt>
      <trkpt lat="44.91346" lon="6.77725">
        <ele>2254</ele>
        <time>2014-07-31T16:34:37.250Z</time>
      </trkpt>
      <trkpt lat="44.91346" lon="6.77722">
        <ele>2254</ele>
        <time>2014-07-31T16:34:39.250Z</time>
      </trkpt>
      <trkpt lat="44.91346" lon="6.77719">
        <ele>2254</ele>
        <time>2014-07-31T16:34:41.250Z</time>
      </trkpt>
      <trkpt lat="44.91345" lon="6.77715">
        <ele>2254</ele>
        <time>2014-07-31T16:34:43.250Z</time>
      </trkpt>
      <trkpt lat="44.91344" lon="6.77713">
        <ele>2254</ele>
        <time>2014-07-31T16:34:45.120Z</time>
      </trkpt>
      <trkpt lat="44.91343" lon="6.77712">
        <ele>2254</ele>
        <time>2014-07-31T16:34:46.250Z</time>
      </trkpt>
      <trkpt lat="44.91342" lon="6.77709">
        <ele>2254</ele>
        <time>2014-07-31T16:34:48.250Z</time>
      </trkpt>
      <trkpt lat="44.91342" lon="6.77706">
        <ele>2254</ele>
        <time>2014-07-31T16:34:50.250Z</time>
      </trkpt>
      <trkpt lat="44.91341" lon="6.77704">
        <ele>2254</ele>
        <time>2014-07-31T16:34:52.250Z</time>
      </trkpt>
      <trkpt lat="44.91341" lon="6.77701">
        <ele>2254</ele>
        <time>2014-07-31T16:34:54.150Z</time>
      </trkpt>
      <trkpt lat="44.91341" lon="6.777">
        <ele>2255.4</ele>
        <time>2014-07-31T16:34:55.250Z</time>
      </trkpt>
      <trkpt lat="44.91341" lon="6.77697">
        <ele>2256</ele>
        <time>2014-07-31T16:34:57.250Z</time>
      </trkpt>
      <trkpt lat="44.91341" lon="6.77695">
        <ele>2256</ele>
        <time>2014-07-31T16:34:59.150Z</time>
      </trkpt>
      <trkpt lat="44.91341" lon="6.77693">
        <ele>2256</ele>
        <time>2014-07-31T16:35:01.250Z</time>
      </trkpt>
      <trkpt lat="44.91343" lon="6.77691">
        <ele>2256</ele>
        <time>2014-07-31T16:35:03.250Z</time>
      </trkpt>
      <trkpt lat="44.91345" lon="6.7769">
        <ele>2256.7</ele>
        <time>2014-07-31T16:35:05.250Z</time>
      </trkpt>
      <trkpt lat="44.91348" lon="6.77688">
        <ele>2257</ele>
        <time>2014-07-31T16:35:07.250Z</time>
      </trkpt>
      <trkpt lat="44.91349" lon="6.77687">
        <ele>2257</ele>
        <time>2014-07-31T16:35:09.250Z</time>
      </trkpt>
      <trkpt lat="44.91352" lon="6.77686">
        <ele>2257</ele>
        <time>2014-07-31T16:35:11.250Z</time>
      </trkpt>
      <trkpt lat="44.91353" lon="6.77685">
        <ele>2257</ele>
        <time>2014-07-31T16:35:13.250Z</time>
      </trkpt>
      <trkpt lat="44.91355" lon="6.77684">
        <ele>2257</ele>
        <time>2014-07-31T16:35:15.150Z</time>
      </trkpt>
      <trkpt lat="44.91356" lon="6.77684">
        <ele>2257</ele>
        <time>2014-07-31T16:35:18.250Z</time>
      </trkpt>
      <trkpt lat="44.91356" lon="6.77682">
        <ele>2257</ele>
        <time>2014-07-31T16:35:20.150Z</time>
      </trkpt>
      <trkpt lat="44.91356" lon="6.7768">
        <ele>2257</ele>
        <time>2014-07-31T16:35:21.250Z</time>
      </trkpt>
      <trkpt lat="44.91356" lon="6.77677">
        <ele>2257</ele>
        <time>2014-07-31T16:35:23.250Z</time>
      </trkpt>
      <trkpt lat="44.91356" lon="6.77674">
        <ele>2257.7</ele>
        <time>2014-07-31T16:35:25.250Z</time>
      </trkpt>
      <trkpt lat="44.91355" lon="6.77671">
        <ele>2258</ele>
        <time>2014-07-31T16:35:27.250Z</time>
      </trkpt>
      <trkpt lat="44.91354" lon="6.77671">
        <ele>2258</ele>
        <time>2014-07-31T16:35:29.250Z</time>
      </trkpt>
      <trkpt lat="44.91353" lon="6.7767">
        <ele>2258</ele>
        <time>2014-07-31T16:35:31.250Z</time>
      </trkpt>
      <trkpt lat="44.91351" lon="6.7767">
        <ele>2258</ele>
        <time>2014-07-31T16:35:33.150Z</time>
      </trkpt>
      <trkpt lat="44.9135" lon="6.7767">
        <ele>2258</ele>
        <time>2014-07-31T16:35:34.220Z</time>
      </trkpt>
      <trkpt lat="44.91348" lon="6.7767">
        <ele>2259</ele>
        <time>2014-07-31T16:35:36.220Z</time>
      </trkpt>
      <trkpt lat="44.91346" lon="6.7767">
        <ele>2259</ele>
        <time>2014-07-31T16:35:40.250Z</time>
      </trkpt>
      <trkpt lat="44.91344" lon="6.77671">
        <ele>2259</ele>
        <time>2014-07-31T16:35:42.250Z</time>
      </trkpt>
      <trkpt lat="44.91342" lon="6.77673">
        <ele>2259</ele>
        <time>2014-07-31T16:35:44.150Z</time>
      </trkpt>
      <trkpt lat="44.91341" lon="6.77673">
        <ele>2259.7</ele>
        <time>2014-07-31T16:35:45.250Z</time>
      </trkpt>
      <trkpt lat="44.91338" lon="6.77675">
        <ele>2260</ele>
        <time>2014-07-31T16:35:47.150Z</time>
      </trkpt>
      <trkpt lat="44.91337" lon="6.77676">
        <ele>2260</ele>
        <time>2014-07-31T16:35:48.250Z</time>
      </trkpt>
      <trkpt lat="44.91335" lon="6.77678">
        <ele>2260</ele>
        <time>2014-07-31T16:35:50.250Z</time>
      </trkpt>
      <trkpt lat="44.91333" lon="6.7768">
        <ele>2260</ele>
        <time>2014-07-31T16:35:52.250Z</time>
      </trkpt>
      <trkpt lat="44.91331" lon="6.77683">
        <ele>2260</ele>
        <time>2014-07-31T16:35:54.140Z</time>
      </trkpt>
      <trkpt lat="44.91331" lon="6.77684">
        <ele>2261.4</ele>
        <time>2014-07-31T16:35:55.250Z</time>
      </trkpt>
      <trkpt lat="44.91328" lon="6.77686">
        <ele>2262</ele>
        <time>2014-07-31T16:35:57.350Z</time>
      </trkpt>
      <trkpt lat="44.91327" lon="6.77689">
        <ele>2262</ele>
        <time>2014-07-31T16:35:59.250Z</time>
      </trkpt>
      <trkpt lat="44.91324" lon="6.7769">
        <ele>2262</ele>
        <time>2014-07-31T16:36:01.250Z</time>
      </trkpt>
      <trkpt lat="44.91322" lon="6.77691">
        <ele>2262</ele>
        <time>2014-07-31T16:36:03.150Z</time>
      </trkpt>
      <trkpt lat="44.91321" lon="6.77691">
        <ele>2262</ele>
        <time>2014-07-31T16:36:04.240Z</time>
      </trkpt>
      <trkpt lat="44.91319" lon="6.77693">
        <ele>2263</ele>
        <time>2014-07-31T16:36:06.250Z</time>
      </trkpt>
      <trkpt lat="44.91317" lon="6.77694">
        <ele>2263</ele>
        <time>2014-07-31T16:36:08.150Z</time>
      </trkpt>
      <trkpt lat="44.91316" lon="6.77695">
        <ele>2263</ele>
        <time>2014-07-31T16:36:09.250Z</time>
      </trkpt>
      <trkpt lat="44.91313" lon="6.77696">
        <ele>2263</ele>
        <time>2014-07-31T16:36:11.150Z</time>
      </trkpt>
      <trkpt lat="44.91312" lon="6.77696">
        <ele>2263</ele>
        <time>2014-07-31T16:36:12.250Z</time>
      </trkpt>
      <trkpt lat="44.9131" lon="6.77697">
        <ele>2263</ele>
        <time>2014-07-31T16:36:14.250Z</time>
      </trkpt>
      <trkpt lat="44.91308" lon="6.77699">
        <ele>2265</ele>
        <time>2014-07-31T16:36:16.240Z</time>
      </trkpt>
      <trkpt lat="44.91306" lon="6.777">
        <ele>2265</ele>
        <time>2014-07-31T16:36:18.150Z</time>
      </trkpt>
      <trkpt lat="44.91305" lon="6.77701">
        <ele>2265</ele>
        <time>2014-07-31T16:36:19.250Z</time>
      </trkpt>
      <trkpt lat="44.91302" lon="6.77701">
        <ele>2265</ele>
        <time>2014-07-31T16:36:21.250Z</time>
      </trkpt>
      <trkpt lat="44.913" lon="6.77701">
        <ele>2265</ele>
        <time>2014-07-31T16:36:23.250Z</time>
      </trkpt>
      <trkpt lat="44.91299" lon="6.77701">
        <ele>2265</ele>
        <time>2014-07-31T16:36:24.350Z</time>
      </trkpt>
      <trkpt lat="44.91297" lon="6.77702">
        <ele>2267</ele>
        <time>2014-07-31T16:36:26.150Z</time>
      </trkpt>
      <trkpt lat="44.91296" lon="6.77702">
        <ele>2267</ele>
        <time>2014-07-31T16:36:27.220Z</time>
      </trkpt>
      <trkpt lat="44.91294" lon="6.77702">
        <ele>2267</ele>
        <time>2014-07-31T16:36:29.140Z</time>
      </trkpt>
      <trkpt lat="44.91291" lon="6.77703">
        <ele>2267</ele>
        <time>2014-07-31T16:36:32.250Z</time>
      </trkpt>
      <trkpt lat="44.91288" lon="6.77703">
        <ele>2267</ele>
        <time>2014-07-31T16:36:34.220Z</time>
      </trkpt>
      <trkpt lat="44.91286" lon="6.77704">
        <ele>2268</ele>
        <time>2014-07-31T16:36:36.250Z</time>
      </trkpt>
      <trkpt lat="44.91284" lon="6.77705">
        <ele>2268</ele>
        <time>2014-07-31T16:36:37.350Z</time>
      </trkpt>
      <trkpt lat="44.91282" lon="6.77706">
        <ele>2268</ele>
        <time>2014-07-31T16:36:39.150Z</time>
      </trkpt>
      <trkpt lat="44.91281" lon="6.77706">
        <ele>2268</ele>
        <time>2014-07-31T16:36:40.250Z</time>
      </trkpt>
      <trkpt lat="44.91279" lon="6.77706">
        <ele>2268</ele>
        <time>2014-07-31T16:36:42.150Z</time>
      </trkpt>
      <trkpt lat="44.91277" lon="6.77706">
        <ele>2268</ele>
        <time>2014-07-31T16:36:43.250Z</time>
      </trkpt>
      <trkpt lat="44.91275" lon="6.77706">
        <ele>2269.2</ele>
        <time>2014-07-31T16:36:45.150Z</time>
      </trkpt>
      <trkpt lat="44.91273" lon="6.77706">
        <ele>2270</ele>
        <time>2014-07-31T16:36:46.250Z</time>
      </trkpt>
      <trkpt lat="44.91271" lon="6.77706">
        <ele>2270</ele>
        <time>2014-07-31T16:36:48.250Z</time>
      </trkpt>
      <trkpt lat="44.91268" lon="6.77706">
        <ele>2270</ele>
        <time>2014-07-31T16:36:50.250Z</time>
      </trkpt>
      <trkpt lat="44.91265" lon="6.77706">
        <ele>2270</ele>
        <time>2014-07-31T16:36:52.250Z</time>
      </trkpt>
      <trkpt lat="44.91263" lon="6.77705">
        <ele>2270</ele>
        <time>2014-07-31T16:36:54.140Z</time>
      </trkpt>
      <trkpt lat="44.91262" lon="6.77705">
        <ele>2271.4</ele>
        <time>2014-07-31T16:36:55.250Z</time>
      </trkpt>
      <trkpt lat="44.91259" lon="6.77705">
        <ele>2272</ele>
        <time>2014-07-31T16:36:57.250Z</time>
      </trkpt>
      <trkpt lat="44.91256" lon="6.77705">
        <ele>2272</ele>
        <time>2014-07-31T16:36:59.250Z</time>
      </trkpt>
      <trkpt lat="44.91253" lon="6.77704">
        <ele>2272</ele>
        <time>2014-07-31T16:37:01.220Z</time>
      </trkpt>
      <trkpt lat="44.91251" lon="6.77703">
        <ele>2272</ele>
        <time>2014-07-31T16:37:03.150Z</time>
      </trkpt>
      <trkpt lat="44.9125" lon="6.77702">
        <ele>2272</ele>
        <time>2014-07-31T16:37:04.240Z</time>
      </trkpt>
      <trkpt lat="44.91247" lon="6.77701">
        <ele>2274</ele>
        <time>2014-07-31T16:37:06.250Z</time>
      </trkpt>
      <trkpt lat="44.91244" lon="6.77701">
        <ele>2274</ele>
        <time>2014-07-31T16:37:08.250Z</time>
      </trkpt>
      <trkpt lat="44.91242" lon="6.77701">
        <ele>2274</ele>
        <time>2014-07-31T16:37:10.250Z</time>
      </trkpt>
      <trkpt lat="44.91239" lon="6.777">
        <ele>2274</ele>
        <time>2014-07-31T16:37:12.250Z</time>
      </trkpt>
      <trkpt lat="44.91236" lon="6.777">
        <ele>2274</ele>
        <time>2014-07-31T16:37:14.250Z</time>
      </trkpt>
      <trkpt lat="44.91234" lon="6.77699">
        <ele>2276</ele>
        <time>2014-07-31T16:37:16.380Z</time>
      </trkpt>
      <trkpt lat="44.91231" lon="6.77699">
        <ele>2276</ele>
        <time>2014-07-31T16:37:18.220Z</time>
      </trkpt>
      <trkpt lat="44.91229" lon="6.77699">
        <ele>2276</ele>
        <time>2014-07-31T16:37:20.150Z</time>
      </trkpt>
      <trkpt lat="44.91228" lon="6.77699">
        <ele>2276</ele>
        <time>2014-07-31T16:37:21.250Z</time>
      </trkpt>
      <trkpt lat="44.91225" lon="6.77698">
        <ele>2276</ele>
        <time>2014-07-31T16:37:23.150Z</time>
      </trkpt>
      <trkpt lat="44.91224" lon="6.77698">
        <ele>2276</ele>
        <time>2014-07-31T16:37:24.250Z</time>
      </trkpt>
      <trkpt lat="44.91221" lon="6.77698">
        <ele>2277</ele>
        <time>2014-07-31T16:37:26.250Z</time>
      </trkpt>
      <trkpt lat="44.91219" lon="6.77697">
        <ele>2277</ele>
        <time>2014-07-31T16:37:28.250Z</time>
      </trkpt>
      <trkpt lat="44.91216" lon="6.77697">
        <ele>2277</ele>
        <time>2014-07-31T16:37:30.250Z</time>
      </trkpt>
      <trkpt lat="44.91214" lon="6.77696">
        <ele>2277</ele>
        <time>2014-07-31T16:37:32.250Z</time>
      </trkpt>
      <trkpt lat="44.91211" lon="6.77695">
        <ele>2277</ele>
        <time>2014-07-31T16:37:34.220Z</time>
      </trkpt>
      <trkpt lat="44.91209" lon="6.77695">
        <ele>2279</ele>
        <time>2014-07-31T16:37:36.250Z</time>
      </trkpt>
      <trkpt lat="44.91206" lon="6.77694">
        <ele>2279</ele>
        <time>2014-07-31T16:37:38.250Z</time>
      </trkpt>
      <trkpt lat="44.91205" lon="6.77694">
        <ele>2279</ele>
        <time>2014-07-31T16:37:40.250Z</time>
      </trkpt>
      <trkpt lat="44.91202" lon="6.77694">
        <ele>2279</ele>
        <time>2014-07-31T16:37:42.140Z</time>
      </trkpt>
      <trkpt lat="44.91201" lon="6.77694">
        <ele>2279</ele>
        <time>2014-07-31T16:37:43.250Z</time>
      </trkpt>
      <trkpt lat="44.91199" lon="6.77695">
        <ele>2279.7</ele>
        <time>2014-07-31T16:37:45.250Z</time>
      </trkpt>
      <trkpt lat="44.91196" lon="6.77694">
        <ele>2280</ele>
        <time>2014-07-31T16:37:47.250Z</time>
      </trkpt>
      <trkpt lat="44.91195" lon="6.77694">
        <ele>2280</ele>
        <time>2014-07-31T16:37:49.250Z</time>
      </trkpt>
      <trkpt lat="44.91192" lon="6.77695">
        <ele>2280</ele>
        <time>2014-07-31T16:37:51.220Z</time>
      </trkpt>
      <trkpt lat="44.9119" lon="6.77695">
        <ele>2280</ele>
        <time>2014-07-31T16:37:53.250Z</time>
      </trkpt>
      <trkpt lat="44.91188" lon="6.77695">
        <ele>2281.2</ele>
        <time>2014-07-31T16:37:55.150Z</time>
      </trkpt>
      <trkpt lat="44.91187" lon="6.77695">
        <ele>2282</ele>
        <time>2014-07-31T16:37:56.250Z</time>
      </trkpt>
      <trkpt lat="44.91184" lon="6.77693">
        <ele>2282</ele>
        <time>2014-07-31T16:37:58.250Z</time>
      </trkpt>
      <trkpt lat="44.91182" lon="6.77693">
        <ele>2282</ele>
        <time>2014-07-31T16:38:00.210Z</time>
      </trkpt>
      <trkpt lat="44.9118" lon="6.77691">
        <ele>2282</ele>
        <time>2014-07-31T16:38:02.250Z</time>
      </trkpt>
      <trkpt lat="44.91177" lon="6.7769">
        <ele>2282</ele>
        <time>2014-07-31T16:38:04.250Z</time>
      </trkpt>
      <trkpt lat="44.91175" lon="6.77689">
        <ele>2284</ele>
        <time>2014-07-31T16:38:06.360Z</time>
      </trkpt>
      <trkpt lat="44.91174" lon="6.77689">
        <ele>2284</ele>
        <time>2014-07-31T16:38:08.150Z</time>
      </trkpt>
      <trkpt lat="44.91173" lon="6.77689">
        <ele>2284</ele>
        <time>2014-07-31T16:38:09.200Z</time>
      </trkpt>
      <trkpt lat="44.91169" lon="6.77687">
        <ele>2284</ele>
        <time>2014-07-31T16:38:11.250Z</time>
      </trkpt>
      <trkpt lat="44.91167" lon="6.77686">
        <ele>2284</ele>
        <time>2014-07-31T16:38:13.250Z</time>
      </trkpt>
      <trkpt lat="44.91165" lon="6.77685">
        <ele>2285.4</ele>
        <time>2014-07-31T16:38:15.250Z</time>
      </trkpt>
      <trkpt lat="44.91164" lon="6.77683">
        <ele>2286</ele>
        <time>2014-07-31T16:38:17.220Z</time>
      </trkpt>
      <trkpt lat="44.91161" lon="6.77682">
        <ele>2286</ele>
        <time>2014-07-31T16:38:19.280Z</time>
      </trkpt>
      <trkpt lat="44.9116" lon="6.77682">
        <ele>2286</ele>
        <time>2014-07-31T16:38:20.250Z</time>
      </trkpt>
      <trkpt lat="44.91158" lon="6.77681">
        <ele>2286</ele>
        <time>2014-07-31T16:38:22.250Z</time>
      </trkpt>
      <trkpt lat="44.91156" lon="6.77679">
        <ele>2286</ele>
        <time>2014-07-31T16:38:24.150Z</time>
      </trkpt>
      <trkpt lat="44.91155" lon="6.77678">
        <ele>2286</ele>
        <time>2014-07-31T16:38:25.250Z</time>
      </trkpt>
      <trkpt lat="44.91153" lon="6.77675">
        <ele>2286</ele>
        <time>2014-07-31T16:38:27.250Z</time>
      </trkpt>
      <trkpt lat="44.9115" lon="6.77674">
        <ele>2286</ele>
        <time>2014-07-31T16:38:29.150Z</time>
      </trkpt>
      <trkpt lat="44.91149" lon="6.77673">
        <ele>2286</ele>
        <time>2014-07-31T16:38:30.250Z</time>
      </trkpt>
      <trkpt lat="44.91147" lon="6.77672">
        <ele>2286</ele>
        <time>2014-07-31T16:38:32.250Z</time>
      </trkpt>
      <trkpt lat="44.91144" lon="6.77671">
        <ele>2286</ele>
        <time>2014-07-31T16:38:34.220Z</time>
      </trkpt>
      <trkpt lat="44.91142" lon="6.7767">
        <ele>2287</ele>
        <time>2014-07-31T16:38:36.250Z</time>
      </trkpt>
      <trkpt lat="44.91139" lon="6.77669">
        <ele>2287</ele>
        <time>2014-07-31T16:38:38.250Z</time>
      </trkpt>
      <trkpt lat="44.91137" lon="6.7767">
        <ele>2287</ele>
        <time>2014-07-31T16:38:40.250Z</time>
      </trkpt>
      <trkpt lat="44.91134" lon="6.7767">
        <ele>2287</ele>
        <time>2014-07-31T16:38:42.150Z</time>
      </trkpt>
      <trkpt lat="44.91132" lon="6.77671">
        <ele>2287</ele>
        <time>2014-07-31T16:38:44.280Z</time>
      </trkpt>
      <trkpt lat="44.91129" lon="6.77673">
        <ele>2288</ele>
        <time>2014-07-31T16:38:46.250Z</time>
      </trkpt>
      <trkpt lat="44.91127" lon="6.77674">
        <ele>2288</ele>
        <time>2014-07-31T16:38:48.250Z</time>
      </trkpt>
      <trkpt lat="44.91124" lon="6.77674">
        <ele>2288</ele>
        <time>2014-07-31T16:38:50.250Z</time>
      </trkpt>
      <trkpt lat="44.91121" lon="6.77675">
        <ele>2288</ele>
        <time>2014-07-31T16:38:52.250Z</time>
      </trkpt>
      <trkpt lat="44.91118" lon="6.77675">
        <ele>2288</ele>
        <time>2014-07-31T16:38:54.250Z</time>
      </trkpt>
      <trkpt lat="44.91116" lon="6.77676">
        <ele>2290</ele>
        <time>2014-07-31T16:38:56.250Z</time>
      </trkpt>
      <trkpt lat="44.91114" lon="6.77676">
        <ele>2290</ele>
        <time>2014-07-31T16:38:58.150Z</time>
      </trkpt>
      <trkpt lat="44.91113" lon="6.77677">
        <ele>2290</ele>
        <time>2014-07-31T16:38:59.250Z</time>
      </trkpt>
      <trkpt lat="44.9111" lon="6.77678">
        <ele>2290</ele>
        <time>2014-07-31T16:39:01.150Z</time>
      </trkpt>
      <trkpt lat="44.91109" lon="6.77679">
        <ele>2290</ele>
        <time>2014-07-31T16:39:02.250Z</time>
      </trkpt>
      <trkpt lat="44.91107" lon="6.7768">
        <ele>2290</ele>
        <time>2014-07-31T16:39:04.250Z</time>
      </trkpt>
      <trkpt lat="44.91104" lon="6.77681">
        <ele>2292</ele>
        <time>2014-07-31T16:39:06.250Z</time>
      </trkpt>
      <trkpt lat="44.91101" lon="6.77682">
        <ele>2292</ele>
        <time>2014-07-31T16:39:08.250Z</time>
      </trkpt>
      <trkpt lat="44.91098" lon="6.77683">
        <ele>2292</ele>
        <time>2014-07-31T16:39:10.250Z</time>
      </trkpt>
      <trkpt lat="44.91095" lon="6.77683">
        <ele>2292</ele>
        <time>2014-07-31T16:39:12.250Z</time>
      </trkpt>
      <trkpt lat="44.91092" lon="6.77683">
        <ele>2292</ele>
        <time>2014-07-31T16:39:14.250Z</time>
      </trkpt>
      <trkpt lat="44.9109" lon="6.77682">
        <ele>2294</ele>
        <time>2014-07-31T16:39:16.250Z</time>
      </trkpt>
      <trkpt lat="44.91087" lon="6.77681">
        <ele>2294</ele>
        <time>2014-07-31T16:39:18.150Z</time>
      </trkpt>
      <trkpt lat="44.91085" lon="6.77681">
        <ele>2294</ele>
        <time>2014-07-31T16:39:19.250Z</time>
      </trkpt>
      <trkpt lat="44.91083" lon="6.77679">
        <ele>2294</ele>
        <time>2014-07-31T16:39:21.150Z</time>
      </trkpt>
      <trkpt lat="44.91082" lon="6.77678">
        <ele>2294</ele>
        <time>2014-07-31T16:39:22.250Z</time>
      </trkpt>
      <trkpt lat="44.9108" lon="6.77675">
        <ele>2294</ele>
        <time>2014-07-31T16:39:24.150Z</time>
      </trkpt>
      <trkpt lat="44.91079" lon="6.77673">
        <ele>2294.7</ele>
        <time>2014-07-31T16:39:25.250Z</time>
      </trkpt>
      <trkpt lat="44.91077" lon="6.77669">
        <ele>2295</ele>
        <time>2014-07-31T16:39:27.250Z</time>
      </trkpt>
      <trkpt lat="44.91074" lon="6.77667">
        <ele>2295</ele>
        <time>2014-07-31T16:39:29.150Z</time>
      </trkpt>
      <trkpt lat="44.91073" lon="6.77666">
        <ele>2295</ele>
        <time>2014-07-31T16:39:30.250Z</time>
      </trkpt>
      <trkpt lat="44.91069" lon="6.77665">
        <ele>2295</ele>
        <time>2014-07-31T16:39:32.170Z</time>
      </trkpt>
      <trkpt lat="44.91066" lon="6.77664">
        <ele>2295</ele>
        <time>2014-07-31T16:39:34.240Z</time>
      </trkpt>
      <trkpt lat="44.91061" lon="6.77664">
        <ele>2296</ele>
        <time>2014-07-31T16:39:36.250Z</time>
      </trkpt>
      <trkpt lat="44.91056" lon="6.77664">
        <ele>2296</ele>
        <time>2014-07-31T16:39:38.250Z</time>
      </trkpt>
      <trkpt lat="44.91052" lon="6.77664">
        <ele>2296</ele>
        <time>2014-07-31T16:39:40.250Z</time>
      </trkpt>
      <trkpt lat="44.91048" lon="6.77664">
        <ele>2296</ele>
        <time>2014-07-31T16:39:42.250Z</time>
      </trkpt>
      <trkpt lat="44.91042" lon="6.77664">
        <ele>2296</ele>
        <time>2014-07-31T16:39:44.250Z</time>
      </trkpt>
      <trkpt lat="44.91036" lon="6.77661">
        <ele>2296</ele>
        <time>2014-07-31T16:39:46.250Z</time>
      </trkpt>
      <trkpt lat="44.91026" lon="6.77658">
        <ele>2296</ele>
        <time>2014-07-31T16:39:48.250Z</time>
      </trkpt>
      <trkpt lat="44.91014" lon="6.7766">
        <ele>2296</ele>
        <time>2014-07-31T16:39:50.250Z</time>
      </trkpt>
      <trkpt lat="44.91001" lon="6.77662">
        <ele>2296</ele>
        <time>2014-07-31T16:39:52.250Z</time>
      </trkpt>
      <trkpt lat="44.90991" lon="6.77662">
        <ele>2296</ele>
        <time>2014-07-31T16:39:54.250Z</time>
      </trkpt>
      <trkpt lat="44.90985" lon="6.77661">
        <ele>2295</ele>
        <time>2014-07-31T16:39:56.250Z</time>
      </trkpt>
      <trkpt lat="44.90981" lon="6.77659">
        <ele>2295</ele>
        <time>2014-07-31T16:39:58.150Z</time>
      </trkpt>
      <trkpt lat="44.9098" lon="6.77657">
        <ele>2295</ele>
        <time>2014-07-31T16:39:59.250Z</time>
      </trkpt>
      <trkpt lat="44.90977" lon="6.77655">
        <ele>2295</ele>
        <time>2014-07-31T16:40:01.250Z</time>
      </trkpt>
      <trkpt lat="44.90975" lon="6.7765">
        <ele>2295</ele>
        <time>2014-07-31T16:40:03.250Z</time>
      </trkpt>
      <trkpt lat="44.90974" lon="6.77646">
        <ele>2295.7</ele>
        <time>2014-07-31T16:40:05.250Z</time>
      </trkpt>
      <trkpt lat="44.90973" lon="6.77641">
        <ele>2296</ele>
        <time>2014-07-31T16:40:07.180Z</time>
      </trkpt>
      <trkpt lat="44.90972" lon="6.77637">
        <ele>2296</ele>
        <time>2014-07-31T16:40:09.150Z</time>
      </trkpt>
      <trkpt lat="44.90972" lon="6.77635">
        <ele>2296</ele>
        <time>2014-07-31T16:40:10.250Z</time>
      </trkpt>
      <trkpt lat="44.90971" lon="6.77631">
        <ele>2296</ele>
        <time>2014-07-31T16:40:12.150Z</time>
      </trkpt>
      <trkpt lat="44.90971" lon="6.7763">
        <ele>2296</ele>
        <time>2014-07-31T16:40:13.250Z</time>
      </trkpt>
      <trkpt lat="44.9097" lon="6.77626">
        <ele>2296</ele>
        <time>2014-07-31T16:40:15.250Z</time>
      </trkpt>
      <trkpt lat="44.90969" lon="6.77622">
        <ele>2296</ele>
        <time>2014-07-31T16:40:17.220Z</time>
      </trkpt>
      <trkpt lat="44.90968" lon="6.77619">
        <ele>2296</ele>
        <time>2014-07-31T16:40:19.250Z</time>
      </trkpt>
      <trkpt lat="44.90967" lon="6.77615">
        <ele>2296</ele>
        <time>2014-07-31T16:40:21.250Z</time>
      </trkpt>
      <trkpt lat="44.90965" lon="6.77612">
        <ele>2296</ele>
        <time>2014-07-31T16:40:23.250Z</time>
      </trkpt>
      <trkpt lat="44.90963" lon="6.77609">
        <ele>2297.3</ele>
        <time>2014-07-31T16:40:25.220Z</time>
      </trkpt>
      <trkpt lat="44.90962" lon="6.77606">
        <ele>2298</ele>
        <time>2014-07-31T16:40:27.250Z</time>
      </trkpt>
      <trkpt lat="44.9096" lon="6.77604">
        <ele>2298</ele>
        <time>2014-07-31T16:40:29.150Z</time>
      </trkpt>
      <trkpt lat="44.90959" lon="6.77603">
        <ele>2298</ele>
        <time>2014-07-31T16:40:30.250Z</time>
      </trkpt>
      <trkpt lat="44.90957" lon="6.77601">
        <ele>2298</ele>
        <time>2014-07-31T16:40:32.250Z</time>
      </trkpt>
      <trkpt lat="44.90956" lon="6.776">
        <ele>2298</ele>
        <time>2014-07-31T16:40:34.220Z</time>
      </trkpt>
      <trkpt lat="44.90954" lon="6.77599">
        <ele>2302</ele>
        <time>2014-07-31T16:40:36.250Z</time>
      </trkpt>
      <trkpt lat="44.90952" lon="6.77597">
        <ele>2302</ele>
        <time>2014-07-31T16:40:38.150Z</time>
      </trkpt>
      <trkpt lat="44.90951" lon="6.77597">
        <ele>2302</ele>
        <time>2014-07-31T16:40:39.250Z</time>
      </trkpt>
      <trkpt lat="44.90948" lon="6.77596">
        <ele>2303</ele>
        <time>2014-07-31T16:40:41.250Z</time>
      </trkpt>
      <trkpt lat="44.90946" lon="6.77596">
        <ele>2303</ele>
        <time>2014-07-31T16:40:43.250Z</time>
      </trkpt>
      <trkpt lat="44.90943" lon="6.77596">
        <ele>2303.7</ele>
        <time>2014-07-31T16:40:45.240Z</time>
      </trkpt>
      <trkpt lat="44.90941" lon="6.77595">
        <ele>2304</ele>
        <time>2014-07-31T16:40:47.250Z</time>
      </trkpt>
      <trkpt lat="44.90938" lon="6.77595">
        <ele>2304</ele>
        <time>2014-07-31T16:40:49.290Z</time>
      </trkpt>
      <trkpt lat="44.90937" lon="6.77597">
        <ele>2304</ele>
        <time>2014-07-31T16:40:51.220Z</time>
      </trkpt>
      <trkpt lat="44.90935" lon="6.77596">
        <ele>2305.3</ele>
        <time>2014-07-31T16:40:55.250Z</time>
      </trkpt>
      <trkpt lat="44.90934" lon="6.77595">
        <ele>2306</ele>
        <time>2014-07-31T16:40:57.150Z</time>
      </trkpt>
      <trkpt lat="44.90931" lon="6.77596">
        <ele>2306</ele>
        <time>2014-07-31T16:41:00.050Z</time>
      </trkpt>
      <trkpt lat="44.9093" lon="6.77597">
        <ele>2306</ele>
        <time>2014-07-31T16:41:02.380Z</time>
      </trkpt>
      <trkpt lat="44.90929" lon="6.77597">
        <ele>2306</ele>
        <time>2014-07-31T16:41:04.250Z</time>
      </trkpt>
      <trkpt lat="44.90927" lon="6.77598">
        <ele>2307</ele>
        <time>2014-07-31T16:41:06.150Z</time>
      </trkpt>
      <trkpt lat="44.90926" lon="6.77599">
        <ele>2307</ele>
        <time>2014-07-31T16:41:07.250Z</time>
      </trkpt>
      <trkpt lat="44.90924" lon="6.77599">
        <ele>2307</ele>
        <time>2014-07-31T16:41:09.180Z</time>
      </trkpt>
      <trkpt lat="44.90923" lon="6.77599">
        <ele>2307</ele>
        <time>2014-07-31T16:41:11.250Z</time>
      </trkpt>
      <trkpt lat="44.90922" lon="6.77599">
        <ele>2307</ele>
        <time>2014-07-31T16:41:13.150Z</time>
      </trkpt>
      <trkpt lat="44.9092" lon="6.77598">
        <ele>2308.4</ele>
        <time>2014-07-31T16:41:15.250Z</time>
      </trkpt>
      <trkpt lat="44.90919" lon="6.77596">
        <ele>2309</ele>
        <time>2014-07-31T16:41:17.220Z</time>
      </trkpt>
      <trkpt lat="44.90918" lon="6.77595">
        <ele>2309</ele>
        <time>2014-07-31T16:41:19.150Z</time>
      </trkpt>
      <trkpt lat="44.90917" lon="6.77592">
        <ele>2309</ele>
        <time>2014-07-31T16:41:22.250Z</time>
      </trkpt>
      <trkpt lat="44.90916" lon="6.7759">
        <ele>2309</ele>
        <time>2014-07-31T16:41:24.250Z</time>
      </trkpt>
      <trkpt lat="44.90916" lon="6.77587">
        <ele>2310</ele>
        <time>2014-07-31T16:41:26.150Z</time>
      </trkpt>
      <trkpt lat="44.90917" lon="6.77585">
        <ele>2310</ele>
        <time>2014-07-31T16:41:29.250Z</time>
      </trkpt>
      <trkpt lat="44.90917" lon="6.77583">
        <ele>2310</ele>
        <time>2014-07-31T16:41:31.250Z</time>
      </trkpt>
      <trkpt lat="44.90918" lon="6.77581">
        <ele>2310</ele>
        <time>2014-07-31T16:41:33.120Z</time>
      </trkpt>
      <trkpt lat="44.9092" lon="6.77579">
        <ele>2311</ele>
        <time>2014-07-31T16:41:36.250Z</time>
      </trkpt>
      <trkpt lat="44.90922" lon="6.77578">
        <ele>2311</ele>
        <time>2014-07-31T16:41:38.150Z</time>
      </trkpt>
      <trkpt lat="44.90923" lon="6.77576">
        <ele>2311</ele>
        <time>2014-07-31T16:41:41.250Z</time>
      </trkpt>
      <trkpt lat="44.90923" lon="6.77575">
        <ele>2311</ele>
        <time>2014-07-31T16:41:43.150Z</time>
      </trkpt>
      <trkpt lat="44.90925" lon="6.77573">
        <ele>2313</ele>
        <time>2014-07-31T16:41:46.250Z</time>
      </trkpt>
      <trkpt lat="44.90926" lon="6.77571">
        <ele>2313</ele>
        <time>2014-07-31T16:41:48.140Z</time>
      </trkpt>
      <trkpt lat="44.90927" lon="6.77569">
        <ele>2313</ele>
        <time>2014-07-31T16:41:51.120Z</time>
      </trkpt>
      <trkpt lat="44.90928" lon="6.77566">
        <ele>2313</ele>
        <time>2014-07-31T16:41:54.250Z</time>
      </trkpt>
      <trkpt lat="44.90929" lon="6.77565">
        <ele>2314</ele>
        <time>2014-07-31T16:41:56.250Z</time>
      </trkpt>
      <trkpt lat="44.9093" lon="6.77563">
        <ele>2314</ele>
        <time>2014-07-31T16:41:58.250Z</time>
      </trkpt>
      <trkpt lat="44.9093" lon="6.7756">
        <ele>2314</ele>
        <time>2014-07-31T16:42:00.150Z</time>
      </trkpt>
      <trkpt lat="44.9093" lon="6.77557">
        <ele>2314</ele>
        <time>2014-07-31T16:42:02.150Z</time>
      </trkpt>
      <trkpt lat="44.90931" lon="6.77554">
        <ele>2314</ele>
        <time>2014-07-31T16:42:04.250Z</time>
      </trkpt>
      <trkpt lat="44.90931" lon="6.77551">
        <ele>2316</ele>
        <time>2014-07-31T16:42:06.250Z</time>
      </trkpt>
      <trkpt lat="44.90931" lon="6.77549">
        <ele>2316</ele>
        <time>2014-07-31T16:42:08.250Z</time>
      </trkpt>
      <trkpt lat="44.90931" lon="6.77547">
        <ele>2316</ele>
        <time>2014-07-31T16:42:10.250Z</time>
      </trkpt>
      <trkpt lat="44.90931" lon="6.77545">
        <ele>2316</ele>
        <time>2014-07-31T16:42:12.250Z</time>
      </trkpt>
      <trkpt lat="44.90933" lon="6.77545">
        <ele>2316</ele>
        <time>2014-07-31T16:42:14.150Z</time>
      </trkpt>
      <trkpt lat="44.90935" lon="6.77546">
        <ele>2318</ele>
        <time>2014-07-31T16:42:17.220Z</time>
      </trkpt>
      <trkpt lat="44.90935" lon="6.77547">
        <ele>2318</ele>
        <time>2014-07-31T16:42:19.150Z</time>
      </trkpt>
      <trkpt lat="44.90937" lon="6.77547">
        <ele>2318</ele>
        <time>2014-07-31T16:42:22.250Z</time>
      </trkpt>
      <trkpt lat="44.90939" lon="6.77548">
        <ele>2318</ele>
        <time>2014-07-31T16:42:24.080Z</time>
      </trkpt>
      <trkpt lat="44.90941" lon="6.77549">
        <ele>2318</ele>
        <time>2014-07-31T16:42:25.250Z</time>
      </trkpt>
      <trkpt lat="44.90943" lon="6.7755">
        <ele>2318</ele>
        <time>2014-07-31T16:42:27.250Z</time>
      </trkpt>
      <trkpt lat="44.90947" lon="6.77551">
        <ele>2318</ele>
        <time>2014-07-31T16:42:29.250Z</time>
      </trkpt>
      <trkpt lat="44.90952" lon="6.77554">
        <ele>2318</ele>
        <time>2014-07-31T16:42:31.250Z</time>
      </trkpt>
      <trkpt lat="44.90957" lon="6.77556">
        <ele>2318</ele>
        <time>2014-07-31T16:42:33.250Z</time>
      </trkpt>
      <trkpt lat="44.90963" lon="6.77557">
        <ele>2318</ele>
        <time>2014-07-31T16:42:35.250Z</time>
      </trkpt>
      <trkpt lat="44.90969" lon="6.77558">
        <ele>2318</ele>
        <time>2014-07-31T16:42:37.140Z</time>
      </trkpt>
      <trkpt lat="44.90972" lon="6.77559">
        <ele>2318</ele>
        <time>2014-07-31T16:42:38.250Z</time>
      </trkpt>
      <trkpt lat="44.90979" lon="6.77561">
        <ele>2318</ele>
        <time>2014-07-31T16:42:40.250Z</time>
      </trkpt>
      <trkpt lat="44.90983" lon="6.77561">
        <ele>2318</ele>
        <time>2014-07-31T16:42:42.250Z</time>
      </trkpt>
      <trkpt lat="44.90982" lon="6.77563">
        <ele>2317</ele>
        <time>2014-07-31T16:42:50.240Z</time>
      </trkpt>
      <trkpt lat="44.90979" lon="6.77562">
        <ele>2317</ele>
        <time>2014-07-31T16:42:52.250Z</time>
      </trkpt>
      <trkpt lat="44.90977" lon="6.77562">
        <ele>2317</ele>
        <time>2014-07-31T16:42:54.280Z</time>
      </trkpt>
      <trkpt lat="44.90975" lon="6.77561">
        <ele>2317</ele>
        <time>2014-07-31T16:42:56.250Z</time>
      </trkpt>
      <trkpt lat="44.90973" lon="6.7756">
        <ele>2317</ele>
        <time>2014-07-31T16:42:58.120Z</time>
      </trkpt>
      <trkpt lat="44.90972" lon="6.7756">
        <ele>2317</ele>
        <time>2014-07-31T16:42:59.250Z</time>
      </trkpt>
      <trkpt lat="44.90972" lon="6.7756">
        <ele>2317</ele>
        <time>2014-07-31T16:43:01.250Z</time>
      </trkpt>
      <trkpt lat="44.90971" lon="6.7756">
        <ele>2317</ele>
        <time>2014-07-31T16:43:04.250Z</time>
      </trkpt>
      <trkpt lat="44.90969" lon="6.7756">
        <ele>2317</ele>
        <time>2014-07-31T16:43:06.250Z</time>
      </trkpt>
      <trkpt lat="44.90967" lon="6.77559">
        <ele>2317</ele>
        <time>2014-07-31T16:43:08.150Z</time>
      </trkpt>
      <trkpt lat="44.90966" lon="6.77558">
        <ele>2317</ele>
        <time>2014-07-31T16:43:09.250Z</time>
      </trkpt>
      <trkpt lat="44.90963" lon="6.77557">
        <ele>2317</ele>
        <time>2014-07-31T16:43:11.250Z</time>
      </trkpt>
      <trkpt lat="44.90961" lon="6.77557">
        <ele>2317</ele>
        <time>2014-07-31T16:43:13.150Z</time>
      </trkpt>
      <trkpt lat="44.90957" lon="6.77556">
        <ele>2318</ele>
        <time>2014-07-31T16:43:16.250Z</time>
      </trkpt>
      <trkpt lat="44.90953" lon="6.77555">
        <ele>2318</ele>
        <time>2014-07-31T16:43:18.250Z</time>
      </trkpt>
      <trkpt lat="44.90949" lon="6.77553">
        <ele>2318</ele>
        <time>2014-07-31T16:43:20.250Z</time>
      </trkpt>
      <trkpt lat="44.90945" lon="6.77552">
        <ele>2318</ele>
        <time>2014-07-31T16:43:22.250Z</time>
      </trkpt>
      <trkpt lat="44.9094" lon="6.7755">
        <ele>2318</ele>
        <time>2014-07-31T16:43:24.250Z</time>
      </trkpt>
      <trkpt lat="44.90937" lon="6.77548">
        <ele>2318</ele>
        <time>2014-07-31T16:43:26.240Z</time>
      </trkpt>
      <trkpt lat="44.90934" lon="6.77545">
        <ele>2318</ele>
        <time>2014-07-31T16:43:28.250Z</time>
      </trkpt>
      <trkpt lat="44.90929" lon="6.77541">
        <ele>2318</ele>
        <time>2014-07-31T16:43:30.250Z</time>
      </trkpt>
      <trkpt lat="44.90926" lon="6.77539">
        <ele>2318</ele>
        <time>2014-07-31T16:43:32.220Z</time>
      </trkpt>
      <trkpt lat="44.90923" lon="6.77539">
        <ele>2318</ele>
        <time>2014-07-31T16:43:34.120Z</time>
      </trkpt>
      <trkpt lat="44.90919" lon="6.77538">
        <ele>2319</ele>
        <time>2014-07-31T16:43:36.150Z</time>
      </trkpt>
      <trkpt lat="44.90917" lon="6.77538">
        <ele>2319</ele>
        <time>2014-07-31T16:43:37.250Z</time>
      </trkpt>
      <trkpt lat="44.90914" lon="6.77538">
        <ele>2319</ele>
        <time>2014-07-31T16:43:39.140Z</time>
      </trkpt>
      <trkpt lat="44.90913" lon="6.77538">
        <ele>2319</ele>
        <time>2014-07-31T16:43:40.250Z</time>
      </trkpt>
      <trkpt lat="44.90909" lon="6.77539">
        <ele>2319</ele>
        <time>2014-07-31T16:43:42.250Z</time>
      </trkpt>
      <trkpt lat="44.90906" lon="6.77541">
        <ele>2319</ele>
        <time>2014-07-31T16:43:44.250Z</time>
      </trkpt>
      <trkpt lat="44.90903" lon="6.77542">
        <ele>2321</ele>
        <time>2014-07-31T16:43:46.250Z</time>
      </trkpt>
      <trkpt lat="44.909" lon="6.77541">
        <ele>2321</ele>
        <time>2014-07-31T16:43:48.250Z</time>
      </trkpt>
      <trkpt lat="44.90898" lon="6.77539">
        <ele>2321</ele>
        <time>2014-07-31T16:43:50.150Z</time>
      </trkpt>
      <trkpt lat="44.90896" lon="6.77538">
        <ele>2321</ele>
        <time>2014-07-31T16:43:51.180Z</time>
      </trkpt>
      <trkpt lat="44.90894" lon="6.77536">
        <ele>2321</ele>
        <time>2014-07-31T16:43:53.250Z</time>
      </trkpt>
      <trkpt lat="44.90891" lon="6.77534">
        <ele>2322.2</ele>
        <time>2014-07-31T16:43:55.150Z</time>
      </trkpt>
      <trkpt lat="44.9089" lon="6.77533">
        <ele>2323</ele>
        <time>2014-07-31T16:43:56.250Z</time>
      </trkpt>
      <trkpt lat="44.90887" lon="6.77531">
        <ele>2323</ele>
        <time>2014-07-31T16:43:58.150Z</time>
      </trkpt>
      <trkpt lat="44.90887" lon="6.7753">
        <ele>2323</ele>
        <time>2014-07-31T16:43:59.250Z</time>
      </trkpt>
      <trkpt lat="44.90885" lon="6.77528">
        <ele>2323</ele>
        <time>2014-07-31T16:44:01.250Z</time>
      </trkpt>
      <trkpt lat="44.90883" lon="6.77525">
        <ele>2323</ele>
        <time>2014-07-31T16:44:03.280Z</time>
      </trkpt>
      <trkpt lat="44.90881" lon="6.77524">
        <ele>2323</ele>
        <time>2014-07-31T16:44:04.250Z</time>
      </trkpt>
      <trkpt lat="44.90879" lon="6.7752">
        <ele>2324</ele>
        <time>2014-07-31T16:44:06.120Z</time>
      </trkpt>
      <trkpt lat="44.90878" lon="6.77518">
        <ele>2324</ele>
        <time>2014-07-31T16:44:07.250Z</time>
      </trkpt>
      <trkpt lat="44.90877" lon="6.77516">
        <ele>2324</ele>
        <time>2014-07-31T16:44:09.250Z</time>
      </trkpt>
      <trkpt lat="44.90874" lon="6.77512">
        <ele>2324</ele>
        <time>2014-07-31T16:44:11.250Z</time>
      </trkpt>
      <trkpt lat="44.90873" lon="6.77509">
        <ele>2324</ele>
        <time>2014-07-31T16:44:13.250Z</time>
      </trkpt>
      <trkpt lat="44.90872" lon="6.77506">
        <ele>2326</ele>
        <time>2014-07-31T16:44:15.250Z</time>
      </trkpt>
      <trkpt lat="44.90871" lon="6.77502">
        <ele>2327</ele>
        <time>2014-07-31T16:44:17.210Z</time>
      </trkpt>
      <trkpt lat="44.90871" lon="6.77498">
        <ele>2327</ele>
        <time>2014-07-31T16:44:19.250Z</time>
      </trkpt>
      <trkpt lat="44.90871" lon="6.77493">
        <ele>2328</ele>
        <time>2014-07-31T16:44:21.250Z</time>
      </trkpt>
      <trkpt lat="44.90872" lon="6.7749">
        <ele>2328</ele>
        <time>2014-07-31T16:44:23.120Z</time>
      </trkpt>
      <trkpt lat="44.90873" lon="6.77488">
        <ele>2328</ele>
        <time>2014-07-31T16:44:24.250Z</time>
      </trkpt>
      <trkpt lat="44.90873" lon="6.77484">
        <ele>2328</ele>
        <time>2014-07-31T16:44:26.250Z</time>
      </trkpt>
      <trkpt lat="44.90874" lon="6.7748">
        <ele>2328</ele>
        <time>2014-07-31T16:44:28.180Z</time>
      </trkpt>
      <trkpt lat="44.90875" lon="6.77478">
        <ele>2328</ele>
        <time>2014-07-31T16:44:29.250Z</time>
      </trkpt>
      <trkpt lat="44.90876" lon="6.77476">
        <ele>2328</ele>
        <time>2014-07-31T16:44:31.250Z</time>
      </trkpt>
      <trkpt lat="44.90877" lon="6.77473">
        <ele>2328</ele>
        <time>2014-07-31T16:44:33.250Z</time>
      </trkpt>
      <trkpt lat="44.90877" lon="6.7747">
        <ele>2329.4</ele>
        <time>2014-07-31T16:44:35.250Z</time>
      </trkpt>
      <trkpt lat="44.90876" lon="6.77467">
        <ele>2330</ele>
        <time>2014-07-31T16:44:37.250Z</time>
      </trkpt>
      <trkpt lat="44.90875" lon="6.77464">
        <ele>2330</ele>
        <time>2014-07-31T16:44:39.250Z</time>
      </trkpt>
      <trkpt lat="44.90873" lon="6.77462">
        <ele>2330</ele>
        <time>2014-07-31T16:44:41.140Z</time>
      </trkpt>
      <trkpt lat="44.90871" lon="6.77461">
        <ele>2330</ele>
        <time>2014-07-31T16:44:42.250Z</time>
      </trkpt>
      <trkpt lat="44.90869" lon="6.7746">
        <ele>2330</ele>
        <time>2014-07-31T16:44:44.250Z</time>
      </trkpt>
      <trkpt lat="44.90866" lon="6.77459">
        <ele>2332</ele>
        <time>2014-07-31T16:44:46.250Z</time>
      </trkpt>
      <trkpt lat="44.90864" lon="6.77461">
        <ele>2332</ele>
        <time>2014-07-31T16:44:48.250Z</time>
      </trkpt>
      <trkpt lat="44.90861" lon="6.77462">
        <ele>2332</ele>
        <time>2014-07-31T16:44:50.250Z</time>
      </trkpt>
      <trkpt lat="44.90858" lon="6.77462">
        <ele>2332</ele>
        <time>2014-07-31T16:44:52.250Z</time>
      </trkpt>
      <trkpt lat="44.90856" lon="6.77461">
        <ele>2332</ele>
        <time>2014-07-31T16:44:54.380Z</time>
      </trkpt>
      <trkpt lat="44.90853" lon="6.77461">
        <ele>2334</ele>
        <time>2014-07-31T16:44:56.250Z</time>
      </trkpt>
      <trkpt lat="44.90852" lon="6.77462">
        <ele>2334</ele>
        <time>2014-07-31T16:44:58.250Z</time>
      </trkpt>
      <trkpt lat="44.9085" lon="6.77463">
        <ele>2334</ele>
        <time>2014-07-31T16:45:00.210Z</time>
      </trkpt>
      <trkpt lat="44.90849" lon="6.77463">
        <ele>2334</ele>
        <time>2014-07-31T16:45:04.250Z</time>
      </trkpt>
      <trkpt lat="44.90847" lon="6.77462">
        <ele>2335</ele>
        <time>2014-07-31T16:45:06.380Z</time>
      </trkpt>
      <trkpt lat="44.90846" lon="6.77462">
        <ele>2335</ele>
        <time>2014-07-31T16:45:08.250Z</time>
      </trkpt>
      <trkpt lat="44.90845" lon="6.77463">
        <ele>2335</ele>
        <time>2014-07-31T16:45:11.250Z</time>
      </trkpt>
      <trkpt lat="44.90846" lon="6.77463">
        <ele>2335</ele>
        <time>2014-07-31T16:45:21.250Z</time>
      </trkpt>
      <trkpt lat="44.90847" lon="6.77464">
        <ele>2335</ele>
        <time>2014-07-31T16:45:23.250Z</time>
      </trkpt>
      <trkpt lat="44.90848" lon="6.77463">
        <ele>2335</ele>
        <time>2014-07-31T16:45:25.250Z</time>
      </trkpt>
      <trkpt lat="44.90848" lon="6.77463">
        <ele>2335</ele>
        <time>2014-07-31T16:46:01.250Z</time>
      </trkpt>
      <trkpt lat="44.90848" lon="6.77465">
        <ele>2334</ele>
        <time>2014-07-31T16:46:30.240Z</time>
      </trkpt>
      <trkpt lat="44.90848" lon="6.77465">
        <ele>2335</ele>
        <time>2014-07-31T16:47:00.170Z</time>
      </trkpt>
      <trkpt lat="44.90849" lon="6.77465">
        <ele>2333</ele>
        <time>2014-07-31T16:48:00.180Z</time>
      </trkpt>
      <trkpt lat="44.90849" lon="6.77464">
        <ele>2333</ele>
        <time>2014-07-31T16:49:00.110Z</time>
      </trkpt>
      <trkpt lat="44.90849" lon="6.77465">
        <ele>2334</ele>
        <time>2014-07-31T16:50:01.250Z</time>
      </trkpt>
      <trkpt lat="44.90849" lon="6.77464">
        <ele>2334</ele>
        <time>2014-07-31T16:51:01.250Z</time>
      </trkpt>
      <trkpt lat="44.90849" lon="6.77464">
        <ele>2334</ele>
        <time>2014-07-31T16:52:01.330Z</time>
      </trkpt>
      <trkpt lat="44.90849" lon="6.77462">
        <ele>2333</ele>
        <time>2014-07-31T16:52:31.250Z</time>
      </trkpt>
      <trkpt lat="44.90847" lon="6.77463">
        <ele>2334</ele>
        <time>2014-07-31T16:52:39.250Z</time>
      </trkpt>
      <trkpt lat="44.90846" lon="6.77463">
        <ele>2334</ele>
        <time>2014-07-31T16:52:47.250Z</time>
      </trkpt>
      <trkpt lat="44.90844" lon="6.77463">
        <ele>2334</ele>
        <time>2014-07-31T16:52:57.250Z</time>
      </trkpt>
      <trkpt lat="44.90844" lon="6.77462">
        <ele>2334</ele>
        <time>2014-07-31T16:53:00.150Z</time>
      </trkpt>
      <trkpt lat="44.90845" lon="6.77463">
        <ele>2334</ele>
        <time>2014-07-31T16:53:41.150Z</time>
      </trkpt>
      <trkpt lat="44.90846" lon="6.77464">
        <ele>2334</ele>
        <time>2014-07-31T16:53:44.220Z</time>
      </trkpt>
      <trkpt lat="44.90846" lon="6.77464">
        <ele>2334</ele>
        <time>2014-07-31T16:54:00.150Z</time>
      </trkpt>
      <trkpt lat="44.90845" lon="6.77466">
        <ele>2334</ele>
        <time>2014-07-31T16:54:02.250Z</time>
      </trkpt>
      <trkpt lat="44.90843" lon="6.77467">
        <ele>2334</ele>
        <time>2014-07-31T16:54:04.250Z</time>
      </trkpt>
      <trkpt lat="44.90841" lon="6.7747">
        <ele>2334</ele>
        <time>2014-07-31T16:54:06.250Z</time>
      </trkpt>
      <trkpt lat="44.90837" lon="6.77473">
        <ele>2334</ele>
        <time>2014-07-31T16:54:08.250Z</time>
      </trkpt>
      <trkpt lat="44.90832" lon="6.7748">
        <ele>2334</ele>
        <time>2014-07-31T16:54:10.250Z</time>
      </trkpt>
      <trkpt lat="44.90822" lon="6.7749">
        <ele>2334</ele>
        <time>2014-07-31T16:54:12.140Z</time>
      </trkpt>
      <trkpt lat="44.90816" lon="6.77497">
        <ele>2334</ele>
        <time>2014-07-31T16:54:13.150Z</time>
      </trkpt>
      <trkpt lat="44.9081" lon="6.77503">
        <ele>2334</ele>
        <time>2014-07-31T16:54:14.250Z</time>
      </trkpt>
      <trkpt lat="44.90797" lon="6.77511">
        <ele>2332</ele>
        <time>2014-07-31T16:54:16.250Z</time>
      </trkpt>
      <trkpt lat="44.90782" lon="6.77511">
        <ele>2332</ele>
        <time>2014-07-31T16:54:18.120Z</time>
      </trkpt>
      <trkpt lat="44.90774" lon="6.77511">
        <ele>2332</ele>
        <time>2014-07-31T16:54:19.250Z</time>
      </trkpt>
      <trkpt lat="44.9076" lon="6.77513">
        <ele>2332</ele>
        <time>2014-07-31T16:54:21.150Z</time>
      </trkpt>
      <trkpt lat="44.90753" lon="6.77515">
        <ele>2332</ele>
        <time>2014-07-31T16:54:22.250Z</time>
      </trkpt>
      <trkpt lat="44.90737" lon="6.77518">
        <ele>2332</ele>
        <time>2014-07-31T16:54:24.250Z</time>
      </trkpt>
      <trkpt lat="44.90721" lon="6.7752">
        <ele>2328</ele>
        <time>2014-07-31T16:54:26.250Z</time>
      </trkpt>
      <trkpt lat="44.90706" lon="6.77522">
        <ele>2328</ele>
        <time>2014-07-31T16:54:28.250Z</time>
      </trkpt>
      <trkpt lat="44.90693" lon="6.77519">
        <ele>2326.6</ele>
        <time>2014-07-31T16:54:30.250Z</time>
      </trkpt>
      <trkpt lat="44.90684" lon="6.77512">
        <ele>2326</ele>
        <time>2014-07-31T16:54:32.250Z</time>
      </trkpt>
      <trkpt lat="44.90679" lon="6.77505">
        <ele>2326</ele>
        <time>2014-07-31T16:54:34.110Z</time>
      </trkpt>
      <trkpt lat="44.90677" lon="6.77502">
        <ele>2326.6</ele>
        <time>2014-07-31T16:54:35.220Z</time>
      </trkpt>
      <trkpt lat="44.90672" lon="6.77496">
        <ele>2327</ele>
        <time>2014-07-31T16:54:37.250Z</time>
      </trkpt>
      <trkpt lat="44.90666" lon="6.7749">
        <ele>2327</ele>
        <time>2014-07-31T16:54:39.250Z</time>
      </trkpt>
      <trkpt lat="44.90656" lon="6.77485">
        <ele>2327</ele>
        <time>2014-07-31T16:54:41.250Z</time>
      </trkpt>
      <trkpt lat="44.90643" lon="6.77482">
        <ele>2327</ele>
        <time>2014-07-31T16:54:43.160Z</time>
      </trkpt>
      <trkpt lat="44.90637" lon="6.77479">
        <ele>2327</ele>
        <time>2014-07-31T16:54:44.250Z</time>
      </trkpt>
      <trkpt lat="44.90628" lon="6.77469">
        <ele>2327</ele>
        <time>2014-07-31T16:54:46.250Z</time>
      </trkpt>
      <trkpt lat="44.90619" lon="6.77465">
        <ele>2327</ele>
        <time>2014-07-31T16:54:48.250Z</time>
      </trkpt>
      <trkpt lat="44.90614" lon="6.77456">
        <ele>2327</ele>
        <time>2014-07-31T16:54:50.250Z</time>
      </trkpt>
      <trkpt lat="44.90617" lon="6.77445">
        <ele>2327</ele>
        <time>2014-07-31T16:54:52.050Z</time>
      </trkpt>
      <trkpt lat="44.90619" lon="6.77439">
        <ele>2327</ele>
        <time>2014-07-31T16:54:53.250Z</time>
      </trkpt>
      <trkpt lat="44.90626" lon="6.77425">
        <ele>2324.3</ele>
        <time>2014-07-31T16:54:55.250Z</time>
      </trkpt>
      <trkpt lat="44.90636" lon="6.77409">
        <ele>2323</ele>
        <time>2014-07-31T16:54:57.250Z</time>
      </trkpt>
      <trkpt lat="44.90647" lon="6.77396">
        <ele>2323</ele>
        <time>2014-07-31T16:54:59.250Z</time>
      </trkpt>
      <trkpt lat="44.90656" lon="6.7739">
        <ele>2317</ele>
        <time>2014-07-31T16:55:01.250Z</time>
      </trkpt>
      <trkpt lat="44.90653" lon="6.77383">
        <ele>2317</ele>
        <time>2014-07-31T16:55:03.250Z</time>
      </trkpt>
      <trkpt lat="44.90647" lon="6.77374">
        <ele>2314.7</ele>
        <time>2014-07-31T16:55:05.150Z</time>
      </trkpt>
      <trkpt lat="44.90643" lon="6.77369">
        <ele>2312.3</ele>
        <time>2014-07-31T16:55:06.240Z</time>
      </trkpt>
      <trkpt lat="44.90636" lon="6.77355">
        <ele>2311.3</ele>
        <time>2014-07-31T16:55:08.250Z</time>
      </trkpt>
      <trkpt lat="44.90627" lon="6.77342">
        <ele>2310.3</ele>
        <time>2014-07-31T16:55:10.250Z</time>
      </trkpt>
      <trkpt lat="44.90614" lon="6.77327">
        <ele>2309.3</ele>
        <time>2014-07-31T16:55:12.250Z</time>
      </trkpt>
      <trkpt lat="44.90603" lon="6.77312">
        <ele>2309</ele>
        <time>2014-07-31T16:55:14.150Z</time>
      </trkpt>
      <trkpt lat="44.90599" lon="6.77305">
        <ele>2309</ele>
        <time>2014-07-31T16:55:15.150Z</time>
      </trkpt>
      <trkpt lat="44.90596" lon="6.773">
        <ele>2309</ele>
        <time>2014-07-31T16:55:16.250Z</time>
      </trkpt>
      <trkpt lat="44.90595" lon="6.77294">
        <ele>2309</ele>
        <time>2014-07-31T16:55:18.250Z</time>
      </trkpt>
      <trkpt lat="44.90596" lon="6.77289">
        <ele>2308.3</ele>
        <time>2014-07-31T16:55:20.250Z</time>
      </trkpt>
      <trkpt lat="44.90597" lon="6.77281">
        <ele>2308</ele>
        <time>2014-07-31T16:55:22.150Z</time>
      </trkpt>
      <trkpt lat="44.90597" lon="6.77276">
        <ele>2308</ele>
        <time>2014-07-31T16:55:23.250Z</time>
      </trkpt>
      <trkpt lat="44.90597" lon="6.77265">
        <ele>2306.6</ele>
        <time>2014-07-31T16:55:25.250Z</time>
      </trkpt>
      <trkpt lat="44.90598" lon="6.77255">
        <ele>2306</ele>
        <time>2014-07-31T16:55:27.250Z</time>
      </trkpt>
      <trkpt lat="44.90598" lon="6.77244">
        <ele>2306</ele>
        <time>2014-07-31T16:55:29.250Z</time>
      </trkpt>
      <trkpt lat="44.90598" lon="6.77238">
        <ele>2299.7</ele>
        <time>2014-07-31T16:55:30.360Z</time>
      </trkpt>
      <trkpt lat="44.906" lon="6.77222">
        <ele>2298</ele>
        <time>2014-07-31T16:55:32.150Z</time>
      </trkpt>
      <trkpt lat="44.90601" lon="6.77215">
        <ele>2298</ele>
        <time>2014-07-31T16:55:33.250Z</time>
      </trkpt>
      <trkpt lat="44.90602" lon="6.77201">
        <ele>2293.2</ele>
        <time>2014-07-31T16:55:35.250Z</time>
      </trkpt>
      <trkpt lat="44.90604" lon="6.77184">
        <ele>2286.3</ele>
        <time>2014-07-31T16:55:37.250Z</time>
      </trkpt>
      <trkpt lat="44.90605" lon="6.77168">
        <ele>2282.8</ele>
        <time>2014-07-31T16:55:39.150Z</time>
      </trkpt>
      <trkpt lat="44.90605" lon="6.77161">
        <ele>2281.3</ele>
        <time>2014-07-31T16:55:40.250Z</time>
      </trkpt>
      <trkpt lat="44.90605" lon="6.77145">
        <ele>2278.6</ele>
        <time>2014-07-31T16:55:42.250Z</time>
      </trkpt>
      <trkpt lat="44.90607" lon="6.77125">
        <ele>2276.3</ele>
        <time>2014-07-31T16:55:44.240Z</time>
      </trkpt>
      <trkpt lat="44.90604" lon="6.7711">
        <ele>2274.3</ele>
        <time>2014-07-31T16:55:46.280Z</time>
      </trkpt>
      <trkpt lat="44.90601" lon="6.77104">
        <ele>2272.6</ele>
        <time>2014-07-31T16:55:47.250Z</time>
      </trkpt>
      <trkpt lat="44.90596" lon="6.77093">
        <ele>2271.3</ele>
        <time>2014-07-31T16:55:49.250Z</time>
      </trkpt>
      <trkpt lat="44.90588" lon="6.7708">
        <ele>2270</ele>
        <time>2014-07-31T16:55:51.050Z</time>
      </trkpt>
      <trkpt lat="44.90584" lon="6.77072">
        <ele>2269.3</ele>
        <time>2014-07-31T16:55:52.250Z</time>
      </trkpt>
      <trkpt lat="44.90581" lon="6.77055">
        <ele>2265.3</ele>
        <time>2014-07-31T16:55:54.250Z</time>
      </trkpt>
      <trkpt lat="44.90583" lon="6.77035">
        <ele>2264.3</ele>
        <time>2014-07-31T16:55:56.240Z</time>
      </trkpt>
      <trkpt lat="44.90589" lon="6.77016">
        <ele>2262.3</ele>
        <time>2014-07-31T16:55:58.250Z</time>
      </trkpt>
      <trkpt lat="44.90595" lon="6.76999">
        <ele>2261.5</ele>
        <time>2014-07-31T16:56:00.130Z</time>
      </trkpt>
      <trkpt lat="44.90597" lon="6.7699">
        <ele>2260.4</ele>
        <time>2014-07-31T16:56:01.150Z</time>
      </trkpt>
      <trkpt lat="44.906" lon="6.76981">
        <ele>2259.3</ele>
        <time>2014-07-31T16:56:02.250Z</time>
      </trkpt>
      <trkpt lat="44.90605" lon="6.76969">
        <ele>2256.4</ele>
        <time>2014-07-31T16:56:04.150Z</time>
      </trkpt>
      <trkpt lat="44.90607" lon="6.76962">
        <ele>2256</ele>
        <time>2014-07-31T16:56:05.240Z</time>
      </trkpt>
      <trkpt lat="44.90609" lon="6.76948">
        <ele>2254.3</ele>
        <time>2014-07-31T16:56:07.250Z</time>
      </trkpt>
      <trkpt lat="44.90609" lon="6.76928">
        <ele>2251.6</ele>
        <time>2014-07-31T16:56:09.250Z</time>
      </trkpt>
      <trkpt lat="44.90611" lon="6.76904">
        <ele>2248.3</ele>
        <time>2014-07-31T16:56:11.250Z</time>
      </trkpt>
      <trkpt lat="44.90619" lon="6.76885">
        <ele>2246</ele>
        <time>2014-07-31T16:56:13.250Z</time>
      </trkpt>
      <trkpt lat="44.90627" lon="6.7687">
        <ele>2243.3</ele>
        <time>2014-07-31T16:56:15.250Z</time>
      </trkpt>
      <trkpt lat="44.90631" lon="6.76852">
        <ele>2242.5</ele>
        <time>2014-07-31T16:56:17.100Z</time>
      </trkpt>
      <trkpt lat="44.90631" lon="6.76843">
        <ele>2241.3</ele>
        <time>2014-07-31T16:56:18.250Z</time>
      </trkpt>
      <trkpt lat="44.90633" lon="6.76826">
        <ele>2238.4</ele>
        <time>2014-07-31T16:56:20.150Z</time>
      </trkpt>
      <trkpt lat="44.90633" lon="6.7682">
        <ele>2236.6</ele>
        <time>2014-07-31T16:56:21.250Z</time>
      </trkpt>
      <trkpt lat="44.90634" lon="6.76811">
        <ele>2234.3</ele>
        <time>2014-07-31T16:56:23.250Z</time>
      </trkpt>
      <trkpt lat="44.90635" lon="6.76803">
        <ele>2233</ele>
        <time>2014-07-31T16:56:25.250Z</time>
      </trkpt>
      <trkpt lat="44.90636" lon="6.76794">
        <ele>2231.3</ele>
        <time>2014-07-31T16:56:27.250Z</time>
      </trkpt>
      <trkpt lat="44.90636" lon="6.76786">
        <ele>2228.4</ele>
        <time>2014-07-31T16:56:29.140Z</time>
      </trkpt>
      <trkpt lat="44.90638" lon="6.76787">
        <ele>2228</ele>
        <time>2014-07-31T16:56:30.250Z</time>
      </trkpt>
      <trkpt lat="44.90644" lon="6.76793">
        <ele>2225.8</ele>
        <time>2014-07-31T16:56:32.150Z</time>
      </trkpt>
      <trkpt lat="44.90651" lon="6.76799">
        <ele>2224.4</ele>
        <time>2014-07-31T16:56:33.250Z</time>
      </trkpt>
      <trkpt lat="44.90657" lon="6.76803">
        <ele>2224</ele>
        <time>2014-07-31T16:56:35.150Z</time>
      </trkpt>
      <trkpt lat="44.90659" lon="6.76804">
        <ele>2224</ele>
        <time>2014-07-31T16:56:36.250Z</time>
      </trkpt>
      <trkpt lat="44.90661" lon="6.76805">
        <ele>2223</ele>
        <time>2014-07-31T16:56:38.250Z</time>
      </trkpt>
      <trkpt lat="44.90661" lon="6.76806">
        <ele>2223.3</ele>
        <time>2014-07-31T16:56:43.250Z</time>
      </trkpt>
      <trkpt lat="44.9066" lon="6.76803">
        <ele>2223</ele>
        <time>2014-07-31T16:56:45.150Z</time>
      </trkpt>
      <trkpt lat="44.9066" lon="6.76802">
        <ele>2223</ele>
        <time>2014-07-31T16:56:46.250Z</time>
      </trkpt>
      <trkpt lat="44.90659" lon="6.76801">
        <ele>2223</ele>
        <time>2014-07-31T16:56:48.250Z</time>
      </trkpt>
      <trkpt lat="44.90658" lon="6.76798">
        <ele>2223</ele>
        <time>2014-07-31T16:56:50.250Z</time>
      </trkpt>
      <trkpt lat="44.90656" lon="6.7679">
        <ele>2223</ele>
        <time>2014-07-31T16:56:52.250Z</time>
      </trkpt>
      <trkpt lat="44.90656" lon="6.76775">
        <ele>2223</ele>
        <time>2014-07-31T16:56:54.150Z</time>
      </trkpt>
      <trkpt lat="44.90658" lon="6.76763">
        <ele>2218</ele>
        <time>2014-07-31T16:56:56.250Z</time>
      </trkpt>
      <trkpt lat="44.9066" lon="6.76751">
        <ele>2218</ele>
        <time>2014-07-31T16:56:58.250Z</time>
      </trkpt>
      <trkpt lat="44.90664" lon="6.76751">
        <ele>2214.3</ele>
        <time>2014-07-31T16:57:00.210Z</time>
      </trkpt>
      <trkpt lat="44.90672" lon="6.76757">
        <ele>2212</ele>
        <time>2014-07-31T16:57:02.150Z</time>
      </trkpt>
      <trkpt lat="44.90675" lon="6.76758">
        <ele>2212</ele>
        <time>2014-07-31T16:57:03.250Z</time>
      </trkpt>
      <trkpt lat="44.90676" lon="6.76759">
        <ele>2209.3</ele>
        <time>2014-07-31T16:57:05.250Z</time>
      </trkpt>
      <trkpt lat="44.90677" lon="6.7676">
        <ele>2208</ele>
        <time>2014-07-31T16:57:09.150Z</time>
      </trkpt>
      <trkpt lat="44.9068" lon="6.76762">
        <ele>2207.3</ele>
        <time>2014-07-31T16:57:10.250Z</time>
      </trkpt>
      <trkpt lat="44.90686" lon="6.76763">
        <ele>2205.3</ele>
        <time>2014-07-31T16:57:12.250Z</time>
      </trkpt>
      <trkpt lat="44.9069" lon="6.76763">
        <ele>2203.3</ele>
        <time>2014-07-31T16:57:14.250Z</time>
      </trkpt>
      <trkpt lat="44.90688" lon="6.76762">
        <ele>2203</ele>
        <time>2014-07-31T16:57:26.250Z</time>
      </trkpt>
      <trkpt lat="44.90687" lon="6.76761">
        <ele>2203.7</ele>
        <time>2014-07-31T16:57:35.250Z</time>
      </trkpt>
      <trkpt lat="44.90691" lon="6.76764">
        <ele>2204</ele>
        <time>2014-07-31T16:57:46.250Z</time>
      </trkpt>
      <trkpt lat="44.90697" lon="6.76765">
        <ele>2204</ele>
        <time>2014-07-31T16:57:48.240Z</time>
      </trkpt>
      <trkpt lat="44.90706" lon="6.76765">
        <ele>2204</ele>
        <time>2014-07-31T16:57:50.250Z</time>
      </trkpt>
      <trkpt lat="44.90718" lon="6.76764">
        <ele>2204</ele>
        <time>2014-07-31T16:57:52.360Z</time>
      </trkpt>
      <trkpt lat="44.9073" lon="6.76763">
        <ele>2204</ele>
        <time>2014-07-31T16:57:54.150Z</time>
      </trkpt>
      <trkpt lat="44.90733" lon="6.76762">
        <ele>2199.9</ele>
        <time>2014-07-31T16:57:55.250Z</time>
      </trkpt>
      <trkpt lat="44.90736" lon="6.76754">
        <ele>2192.6</ele>
        <time>2014-07-31T16:57:57.250Z</time>
      </trkpt>
      <trkpt lat="44.90736" lon="6.76742">
        <ele>2191</ele>
        <time>2014-07-31T16:57:59.220Z</time>
      </trkpt>
      <trkpt lat="44.90732" lon="6.76732">
        <ele>2190.4</ele>
        <time>2014-07-31T16:58:01.130Z</time>
      </trkpt>
      <trkpt lat="44.90729" lon="6.76728">
        <ele>2190</ele>
        <time>2014-07-31T16:58:02.250Z</time>
      </trkpt>
      <trkpt lat="44.90724" lon="6.76717">
        <ele>2189</ele>
        <time>2014-07-31T16:58:04.250Z</time>
      </trkpt>
      <trkpt lat="44.90719" lon="6.76705">
        <ele>2188</ele>
        <time>2014-07-31T16:58:06.250Z</time>
      </trkpt>
      <trkpt lat="44.90716" lon="6.76695">
        <ele>2188</ele>
        <time>2014-07-31T16:58:08.250Z</time>
      </trkpt>
      <trkpt lat="44.90713" lon="6.76688">
        <ele>2187</ele>
        <time>2014-07-31T16:58:10.150Z</time>
      </trkpt>
      <trkpt lat="44.90712" lon="6.76685">
        <ele>2187.7</ele>
        <time>2014-07-31T16:58:11.240Z</time>
      </trkpt>
      <trkpt lat="44.90709" lon="6.76678">
        <ele>2188</ele>
        <time>2014-07-31T16:58:13.250Z</time>
      </trkpt>
      <trkpt lat="44.90707" lon="6.76668">
        <ele>2186.3</ele>
        <time>2014-07-31T16:58:15.250Z</time>
      </trkpt>
      <trkpt lat="44.90708" lon="6.76655">
        <ele>2186</ele>
        <time>2014-07-31T16:58:17.210Z</time>
      </trkpt>
      <trkpt lat="44.90708" lon="6.76647">
        <ele>2186</ele>
        <time>2014-07-31T16:58:19.150Z</time>
      </trkpt>
      <trkpt lat="44.90707" lon="6.76644">
        <ele>2186</ele>
        <time>2014-07-31T16:58:20.250Z</time>
      </trkpt>
      <trkpt lat="44.90708" lon="6.76636">
        <ele>2186</ele>
        <time>2014-07-31T16:58:22.250Z</time>
      </trkpt>
      <trkpt lat="44.90711" lon="6.76632">
        <ele>2186</ele>
        <time>2014-07-31T16:58:24.250Z</time>
      </trkpt>
      <trkpt lat="44.90714" lon="6.76629">
        <ele>2186</ele>
        <time>2014-07-31T16:58:26.280Z</time>
      </trkpt>
      <trkpt lat="44.90716" lon="6.76627">
        <ele>2186</ele>
        <time>2014-07-31T16:58:27.250Z</time>
      </trkpt>
      <trkpt lat="44.9072" lon="6.76623">
        <ele>2186</ele>
        <time>2014-07-31T16:58:29.250Z</time>
      </trkpt>
      <trkpt lat="44.90723" lon="6.76619">
        <ele>2186</ele>
        <time>2014-07-31T16:58:31.250Z</time>
      </trkpt>
      <trkpt lat="44.90728" lon="6.76614">
        <ele>2186</ele>
        <time>2014-07-31T16:58:33.050Z</time>
      </trkpt>
      <trkpt lat="44.90729" lon="6.76611">
        <ele>2186</ele>
        <time>2014-07-31T16:58:34.210Z</time>
      </trkpt>
      <trkpt lat="44.90731" lon="6.76605">
        <ele>2185</ele>
        <time>2014-07-31T16:58:36.150Z</time>
      </trkpt>
      <trkpt lat="44.90731" lon="6.76601">
        <ele>2185</ele>
        <time>2014-07-31T16:58:37.250Z</time>
      </trkpt>
      <trkpt lat="44.90733" lon="6.76596">
        <ele>2185</ele>
        <time>2014-07-31T16:58:39.250Z</time>
      </trkpt>
      <trkpt lat="44.90735" lon="6.76592">
        <ele>2185</ele>
        <time>2014-07-31T16:58:41.380Z</time>
      </trkpt>
      <trkpt lat="44.90738" lon="6.76589">
        <ele>2185</ele>
        <time>2014-07-31T16:58:43.250Z</time>
      </trkpt>
      <trkpt lat="44.90743" lon="6.76585">
        <ele>2185</ele>
        <time>2014-07-31T16:58:45.250Z</time>
      </trkpt>
      <trkpt lat="44.90751" lon="6.76581">
        <ele>2185</ele>
        <time>2014-07-31T16:58:47.250Z</time>
      </trkpt>
      <trkpt lat="44.90762" lon="6.76579">
        <ele>2185</ele>
        <time>2014-07-31T16:58:49.150Z</time>
      </trkpt>
      <trkpt lat="44.90768" lon="6.7658">
        <ele>2185</ele>
        <time>2014-07-31T16:58:50.180Z</time>
      </trkpt>
      <trkpt lat="44.90777" lon="6.7658">
        <ele>2185</ele>
        <time>2014-07-31T16:58:52.250Z</time>
      </trkpt>
      <trkpt lat="44.90784" lon="6.76581">
        <ele>2185</ele>
        <time>2014-07-31T16:58:54.250Z</time>
      </trkpt>
      <trkpt lat="44.90786" lon="6.76579">
        <ele>2181</ele>
        <time>2014-07-31T16:58:56.150Z</time>
      </trkpt>
      <trkpt lat="44.90786" lon="6.76577">
        <ele>2181</ele>
        <time>2014-07-31T16:58:57.250Z</time>
      </trkpt>
      <trkpt lat="44.90784" lon="6.76574">
        <ele>2181</ele>
        <time>2014-07-31T16:58:59.250Z</time>
      </trkpt>
      <trkpt lat="44.90782" lon="6.76569">
        <ele>2178</ele>
        <time>2014-07-31T16:59:01.250Z</time>
      </trkpt>
      <trkpt lat="44.90783" lon="6.76564">
        <ele>2178</ele>
        <time>2014-07-31T16:59:03.250Z</time>
      </trkpt>
      <trkpt lat="44.90788" lon="6.76561">
        <ele>2178</ele>
        <time>2014-07-31T16:59:05.150Z</time>
      </trkpt>
      <trkpt lat="44.90791" lon="6.76561">
        <ele>2178</ele>
        <time>2014-07-31T16:59:06.250Z</time>
      </trkpt>
      <trkpt lat="44.90795" lon="6.76561">
        <ele>2178</ele>
        <time>2014-07-31T16:59:08.250Z</time>
      </trkpt>
      <trkpt lat="44.908" lon="6.7656">
        <ele>2178</ele>
        <time>2014-07-31T16:59:10.150Z</time>
      </trkpt>
      <trkpt lat="44.90802" lon="6.7656">
        <ele>2178</ele>
        <time>2014-07-31T16:59:11.250Z</time>
      </trkpt>
      <trkpt lat="44.90805" lon="6.76558">
        <ele>2178</ele>
        <time>2014-07-31T16:59:13.140Z</time>
      </trkpt>
      <trkpt lat="44.90807" lon="6.76557">
        <ele>2178</ele>
        <time>2014-07-31T16:59:14.250Z</time>
      </trkpt>
      <trkpt lat="44.90811" lon="6.76552">
        <ele>2180</ele>
        <time>2014-07-31T16:59:16.250Z</time>
      </trkpt>
      <trkpt lat="44.90815" lon="6.76548">
        <ele>2180</ele>
        <time>2014-07-31T16:59:18.250Z</time>
      </trkpt>
      <trkpt lat="44.9082" lon="6.76546">
        <ele>2180</ele>
        <time>2014-07-31T16:59:20.250Z</time>
      </trkpt>
      <trkpt lat="44.90826" lon="6.76543">
        <ele>2180</ele>
        <time>2014-07-31T16:59:22.250Z</time>
      </trkpt>
      <trkpt lat="44.90834" lon="6.7654">
        <ele>2180</ele>
        <time>2014-07-31T16:59:24.050Z</time>
      </trkpt>
      <trkpt lat="44.90841" lon="6.76539">
        <ele>2180</ele>
        <time>2014-07-31T16:59:26.250Z</time>
      </trkpt>
      <trkpt lat="44.90848" lon="6.76536">
        <ele>2180</ele>
        <time>2014-07-31T16:59:28.250Z</time>
      </trkpt>
      <trkpt lat="44.90855" lon="6.76534">
        <ele>2180</ele>
        <time>2014-07-31T16:59:30.150Z</time>
      </trkpt>
      <trkpt lat="44.90858" lon="6.76533">
        <ele>2180</ele>
        <time>2014-07-31T16:59:31.250Z</time>
      </trkpt>
      <trkpt lat="44.90864" lon="6.76531">
        <ele>2180</ele>
        <time>2014-07-31T16:59:33.250Z</time>
      </trkpt>
      <trkpt lat="44.9087" lon="6.76529">
        <ele>2180.7</ele>
        <time>2014-07-31T16:59:35.250Z</time>
      </trkpt>
      <trkpt lat="44.90875" lon="6.76529">
        <ele>2181</ele>
        <time>2014-07-31T16:59:37.150Z</time>
      </trkpt>
      <trkpt lat="44.90878" lon="6.76529">
        <ele>2181</ele>
        <time>2014-07-31T16:59:38.240Z</time>
      </trkpt>
      <trkpt lat="44.90883" lon="6.76528">
        <ele>2181</ele>
        <time>2014-07-31T16:59:40.250Z</time>
      </trkpt>
      <trkpt lat="44.90887" lon="6.76526">
        <ele>2181</ele>
        <time>2014-07-31T16:59:42.250Z</time>
      </trkpt>
      <trkpt lat="44.90891" lon="6.76522">
        <ele>2181</ele>
        <time>2014-07-31T16:59:44.250Z</time>
      </trkpt>
      <trkpt lat="44.90893" lon="6.76517">
        <ele>2182</ele>
        <time>2014-07-31T16:59:46.250Z</time>
      </trkpt>
      <trkpt lat="44.90896" lon="6.76515">
        <ele>2182</ele>
        <time>2014-07-31T16:59:48.250Z</time>
      </trkpt>
      <trkpt lat="44.909" lon="6.76513">
        <ele>2182</ele>
        <time>2014-07-31T16:59:50.150Z</time>
      </trkpt>
      <trkpt lat="44.90901" lon="6.76513">
        <ele>2182</ele>
        <time>2014-07-31T16:59:51.210Z</time>
      </trkpt>
      <trkpt lat="44.90907" lon="6.76515">
        <ele>2182</ele>
        <time>2014-07-31T16:59:53.250Z</time>
      </trkpt>
      <trkpt lat="44.90912" lon="6.76517">
        <ele>2182</ele>
        <time>2014-07-31T16:59:55.250Z</time>
      </trkpt>
      <trkpt lat="44.90918" lon="6.76518">
        <ele>2182</ele>
        <time>2014-07-31T16:59:57.250Z</time>
      </trkpt>
      <trkpt lat="44.90924" lon="6.76517">
        <ele>2182</ele>
        <time>2014-07-31T16:59:59.250Z</time>
      </trkpt>
      <trkpt lat="44.9093" lon="6.76517">
        <ele>2182</ele>
        <time>2014-07-31T17:00:01.250Z</time>
      </trkpt>
      <trkpt lat="44.90937" lon="6.76515">
        <ele>2182</ele>
        <time>2014-07-31T17:00:03.150Z</time>
      </trkpt>
      <trkpt lat="44.9094" lon="6.76513">
        <ele>2182</ele>
        <time>2014-07-31T17:00:04.250Z</time>
      </trkpt>
      <trkpt lat="44.90946" lon="6.76511">
        <ele>2182</ele>
        <time>2014-07-31T17:00:06.250Z</time>
      </trkpt>
      <trkpt lat="44.90951" lon="6.76507">
        <ele>2182</ele>
        <time>2014-07-31T17:00:08.250Z</time>
      </trkpt>
      <trkpt lat="44.90954" lon="6.76503">
        <ele>2182</ele>
        <time>2014-07-31T17:00:10.250Z</time>
      </trkpt>
      <trkpt lat="44.90958" lon="6.76494">
        <ele>2182</ele>
        <time>2014-07-31T17:00:12.250Z</time>
      </trkpt>
      <trkpt lat="44.90964" lon="6.7649">
        <ele>2182</ele>
        <time>2014-07-31T17:00:14.250Z</time>
      </trkpt>
      <trkpt lat="44.90969" lon="6.7649">
        <ele>2182</ele>
        <time>2014-07-31T17:00:16.380Z</time>
      </trkpt>
      <trkpt lat="44.90974" lon="6.76489">
        <ele>2182</ele>
        <time>2014-07-31T17:00:18.250Z</time>
      </trkpt>
      <trkpt lat="44.90978" lon="6.76489">
        <ele>2182</ele>
        <time>2014-07-31T17:00:20.150Z</time>
      </trkpt>
      <trkpt lat="44.9098" lon="6.76489">
        <ele>2182</ele>
        <time>2014-07-31T17:00:21.250Z</time>
      </trkpt>
      <trkpt lat="44.90983" lon="6.76489">
        <ele>2182</ele>
        <time>2014-07-31T17:00:23.250Z</time>
      </trkpt>
      <trkpt lat="44.90987" lon="6.76488">
        <ele>2182.7</ele>
        <time>2014-07-31T17:00:25.250Z</time>
      </trkpt>
      <trkpt lat="44.9099" lon="6.76488">
        <ele>2183</ele>
        <time>2014-07-31T17:00:27.250Z</time>
      </trkpt>
      <trkpt lat="44.90995" lon="6.76486">
        <ele>2183</ele>
        <time>2014-07-31T17:00:29.250Z</time>
      </trkpt>
      <trkpt lat="44.91001" lon="6.76485">
        <ele>2183</ele>
        <time>2014-07-31T17:00:31.250Z</time>
      </trkpt>
      <trkpt lat="44.91008" lon="6.76484">
        <ele>2183</ele>
        <time>2014-07-31T17:00:33.150Z</time>
      </trkpt>
      <trkpt lat="44.91011" lon="6.76484">
        <ele>2183</ele>
        <time>2014-07-31T17:00:34.210Z</time>
      </trkpt>
      <trkpt lat="44.91015" lon="6.76484">
        <ele>2182</ele>
        <time>2014-07-31T17:00:36.250Z</time>
      </trkpt>
      <trkpt lat="44.91016" lon="6.76484">
        <ele>2182</ele>
        <time>2014-07-31T17:00:38.250Z</time>
      </trkpt>
      <trkpt lat="44.91018" lon="6.76483">
        <ele>2182</ele>
        <time>2014-07-31T17:00:40.250Z</time>
      </trkpt>
      <trkpt lat="44.91019" lon="6.76482">
        <ele>2182</ele>
        <time>2014-07-31T17:00:42.150Z</time>
      </trkpt>
      <trkpt lat="44.9102" lon="6.7648">
        <ele>2182</ele>
        <time>2014-07-31T17:00:45.250Z</time>
      </trkpt>
      <trkpt lat="44.91021" lon="6.76479">
        <ele>2182</ele>
        <time>2014-07-31T17:00:47.250Z</time>
      </trkpt>
      <trkpt lat="44.91022" lon="6.76479">
        <ele>2182</ele>
        <time>2014-07-31T17:00:49.220Z</time>
      </trkpt>
      <trkpt lat="44.91023" lon="6.76478">
        <ele>2182</ele>
        <time>2014-07-31T17:00:52.250Z</time>
      </trkpt>
      <trkpt lat="44.91024" lon="6.76477">
        <ele>2182</ele>
        <time>2014-07-31T17:00:54.170Z</time>
      </trkpt>
      <trkpt lat="44.91026" lon="6.76477">
        <ele>2182</ele>
        <time>2014-07-31T17:00:56.250Z</time>
      </trkpt>
      <trkpt lat="44.91027" lon="6.76478">
        <ele>2182</ele>
        <time>2014-07-31T17:00:58.150Z</time>
      </trkpt>
      <trkpt lat="44.91027" lon="6.76478">
        <ele>2182</ele>
        <time>2014-07-31T17:01:01.250Z</time>
      </trkpt>
      <trkpt lat="44.91029" lon="6.7648">
        <ele>2182</ele>
        <time>2014-07-31T17:01:03.250Z</time>
      </trkpt>
      <trkpt lat="44.9103" lon="6.76479">
        <ele>2181.3</ele>
        <time>2014-07-31T17:01:05.250Z</time>
      </trkpt>
      <trkpt lat="44.91031" lon="6.76482">
        <ele>2181</ele>
        <time>2014-07-31T17:01:09.250Z</time>
      </trkpt>
      <trkpt lat="44.91033" lon="6.76485">
        <ele>2181</ele>
        <time>2014-07-31T17:01:11.170Z</time>
      </trkpt>
      <trkpt lat="44.91035" lon="6.76486">
        <ele>2181</ele>
        <time>2014-07-31T17:01:12.250Z</time>
      </trkpt>
      <trkpt lat="44.91037" lon="6.76484">
        <ele>2181</ele>
        <time>2014-07-31T17:01:14.250Z</time>
      </trkpt>
      <trkpt lat="44.91039" lon="6.76482">
        <ele>2179</ele>
        <time>2014-07-31T17:01:16.250Z</time>
      </trkpt>
      <trkpt lat="44.9104" lon="6.76478">
        <ele>2179</ele>
        <time>2014-07-31T17:01:18.150Z</time>
      </trkpt>
      <trkpt lat="44.9104" lon="6.76477">
        <ele>2179</ele>
        <time>2014-07-31T17:01:19.250Z</time>
      </trkpt>
      <trkpt lat="44.91041" lon="6.76475">
        <ele>2179</ele>
        <time>2014-07-31T17:01:21.150Z</time>
      </trkpt>
      <trkpt lat="44.91042" lon="6.76474">
        <ele>2179</ele>
        <time>2014-07-31T17:01:22.250Z</time>
      </trkpt>
      <trkpt lat="44.91044" lon="6.76472">
        <ele>2179</ele>
        <time>2014-07-31T17:01:24.250Z</time>
      </trkpt>
      <trkpt lat="44.91045" lon="6.76471">
        <ele>2179</ele>
        <time>2014-07-31T17:01:26.250Z</time>
      </trkpt>
      <trkpt lat="44.91048" lon="6.7647">
        <ele>2179</ele>
        <time>2014-07-31T17:01:30.240Z</time>
      </trkpt>
      <trkpt lat="44.91053" lon="6.76467">
        <ele>2179</ele>
        <time>2014-07-31T17:01:32.250Z</time>
      </trkpt>
      <trkpt lat="44.91057" lon="6.76462">
        <ele>2179</ele>
        <time>2014-07-31T17:01:34.210Z</time>
      </trkpt>
      <trkpt lat="44.9106" lon="6.76456">
        <ele>2180</ele>
        <time>2014-07-31T17:01:36.250Z</time>
      </trkpt>
      <trkpt lat="44.91063" lon="6.76448">
        <ele>2180</ele>
        <time>2014-07-31T17:01:38.250Z</time>
      </trkpt>
      <trkpt lat="44.91068" lon="6.76438">
        <ele>2180</ele>
        <time>2014-07-31T17:01:40.140Z</time>
      </trkpt>
      <trkpt lat="44.91072" lon="6.76433">
        <ele>2180</ele>
        <time>2014-07-31T17:01:41.250Z</time>
      </trkpt>
      <trkpt lat="44.91079" lon="6.76423">
        <ele>2180</ele>
        <time>2014-07-31T17:01:43.250Z</time>
      </trkpt>
      <trkpt lat="44.91086" lon="6.76414">
        <ele>2180</ele>
        <time>2014-07-31T17:01:45.250Z</time>
      </trkpt>
      <trkpt lat="44.91091" lon="6.76408">
        <ele>2180</ele>
        <time>2014-07-31T17:01:47.250Z</time>
      </trkpt>
      <trkpt lat="44.91099" lon="6.76401">
        <ele>2180</ele>
        <time>2014-07-31T17:01:49.250Z</time>
      </trkpt>
      <trkpt lat="44.9111" lon="6.76394">
        <ele>2180</ele>
        <time>2014-07-31T17:01:51.050Z</time>
      </trkpt>
      <trkpt lat="44.91116" lon="6.76392">
        <ele>2180</ele>
        <time>2014-07-31T17:01:52.250Z</time>
      </trkpt>
      <trkpt lat="44.91128" lon="6.7639">
        <ele>2180</ele>
        <time>2014-07-31T17:01:54.250Z</time>
      </trkpt>
      <trkpt lat="44.91137" lon="6.76387">
        <ele>2179</ele>
        <time>2014-07-31T17:01:56.250Z</time>
      </trkpt>
      <trkpt lat="44.91146" lon="6.76378">
        <ele>2179</ele>
        <time>2014-07-31T17:01:58.250Z</time>
      </trkpt>
      <trkpt lat="44.91157" lon="6.76368">
        <ele>2179</ele>
        <time>2014-07-31T17:02:00.210Z</time>
      </trkpt>
      <trkpt lat="44.91167" lon="6.76363">
        <ele>2179</ele>
        <time>2014-07-31T17:02:02.250Z</time>
      </trkpt>
      <trkpt lat="44.91176" lon="6.76359">
        <ele>2179</ele>
        <time>2014-07-31T17:02:04.250Z</time>
      </trkpt>
      <trkpt lat="44.91186" lon="6.76357">
        <ele>2179</ele>
        <time>2014-07-31T17:02:06.250Z</time>
      </trkpt>
      <trkpt lat="44.91195" lon="6.76355">
        <ele>2179</ele>
        <time>2014-07-31T17:02:08.150Z</time>
      </trkpt>
      <trkpt lat="44.91199" lon="6.76353">
        <ele>2179</ele>
        <time>2014-07-31T17:02:09.250Z</time>
      </trkpt>
      <trkpt lat="44.91206" lon="6.76347">
        <ele>2179</ele>
        <time>2014-07-31T17:02:11.250Z</time>
      </trkpt>
      <trkpt lat="44.91211" lon="6.76339">
        <ele>2179</ele>
        <time>2014-07-31T17:02:13.150Z</time>
      </trkpt>
      <trkpt lat="44.91214" lon="6.76335">
        <ele>2179</ele>
        <time>2014-07-31T17:02:14.220Z</time>
      </trkpt>
      <trkpt lat="44.91221" lon="6.76323">
        <ele>2179</ele>
        <time>2014-07-31T17:02:16.250Z</time>
      </trkpt>
      <trkpt lat="44.91231" lon="6.76321">
        <ele>2179</ele>
        <time>2014-07-31T17:02:18.250Z</time>
      </trkpt>
      <trkpt lat="44.9124" lon="6.76323">
        <ele>2179</ele>
        <time>2014-07-31T17:02:20.360Z</time>
      </trkpt>
      <trkpt lat="44.91246" lon="6.76319">
        <ele>2179</ele>
        <time>2014-07-31T17:02:22.150Z</time>
      </trkpt>
      <trkpt lat="44.9125" lon="6.76315">
        <ele>2179</ele>
        <time>2014-07-31T17:02:23.250Z</time>
      </trkpt>
      <trkpt lat="44.91257" lon="6.76309">
        <ele>2179</ele>
        <time>2014-07-31T17:02:25.250Z</time>
      </trkpt>
      <trkpt lat="44.91266" lon="6.76303">
        <ele>2179</ele>
        <time>2014-07-31T17:02:27.250Z</time>
      </trkpt>
      <trkpt lat="44.91275" lon="6.76296">
        <ele>2179</ele>
        <time>2014-07-31T17:02:29.250Z</time>
      </trkpt>
      <trkpt lat="44.91282" lon="6.76283">
        <ele>2179</ele>
        <time>2014-07-31T17:02:31.220Z</time>
      </trkpt>
      <trkpt lat="44.91286" lon="6.76267">
        <ele>2179</ele>
        <time>2014-07-31T17:02:33.250Z</time>
      </trkpt>
      <trkpt lat="44.91287" lon="6.76253">
        <ele>2175.6</ele>
        <time>2014-07-31T17:02:35.250Z</time>
      </trkpt>
      <trkpt lat="44.9129" lon="6.76244">
        <ele>2174</ele>
        <time>2014-07-31T17:02:37.250Z</time>
      </trkpt>
      <trkpt lat="44.91299" lon="6.76245">
        <ele>2174</ele>
        <time>2014-07-31T17:02:39.150Z</time>
      </trkpt>
      <trkpt lat="44.91302" lon="6.76246">
        <ele>2173.3</ele>
        <time>2014-07-31T17:02:40.250Z</time>
      </trkpt>
      <trkpt lat="44.91308" lon="6.76246">
        <ele>2173</ele>
        <time>2014-07-31T17:02:42.250Z</time>
      </trkpt>
      <trkpt lat="44.91315" lon="6.76247">
        <ele>2173</ele>
        <time>2014-07-31T17:02:44.240Z</time>
      </trkpt>
      <trkpt lat="44.91322" lon="6.76246">
        <ele>2173</ele>
        <time>2014-07-31T17:02:46.250Z</time>
      </trkpt>
      <trkpt lat="44.91326" lon="6.76241">
        <ele>2173</ele>
        <time>2014-07-31T17:02:48.150Z</time>
      </trkpt>
      <trkpt lat="44.91332" lon="6.76237">
        <ele>2173</ele>
        <time>2014-07-31T17:02:50.250Z</time>
      </trkpt>
      <trkpt lat="44.91339" lon="6.76228">
        <ele>2173</ele>
        <time>2014-07-31T17:02:52.250Z</time>
      </trkpt>
      <trkpt lat="44.91345" lon="6.76219">
        <ele>2173</ele>
        <time>2014-07-31T17:02:54.250Z</time>
      </trkpt>
      <trkpt lat="44.9135" lon="6.7621">
        <ele>2173</ele>
        <time>2014-07-31T17:02:56.150Z</time>
      </trkpt>
      <trkpt lat="44.91353" lon="6.76207">
        <ele>2173</ele>
        <time>2014-07-31T17:02:57.240Z</time>
      </trkpt>
      <trkpt lat="44.91358" lon="6.76201">
        <ele>2173</ele>
        <time>2014-07-31T17:02:59.150Z</time>
      </trkpt>
      <trkpt lat="44.9136" lon="6.76198">
        <ele>2173</ele>
        <time>2014-07-31T17:03:00.210Z</time>
      </trkpt>
      <trkpt lat="44.91364" lon="6.76192">
        <ele>2173</ele>
        <time>2014-07-31T17:03:02.250Z</time>
      </trkpt>
      <trkpt lat="44.91369" lon="6.76185">
        <ele>2173</ele>
        <time>2014-07-31T17:03:04.250Z</time>
      </trkpt>
      <trkpt lat="44.91375" lon="6.76179">
        <ele>2173</ele>
        <time>2014-07-31T17:03:06.250Z</time>
      </trkpt>
      <trkpt lat="44.91382" lon="6.76171">
        <ele>2173</ele>
        <time>2014-07-31T17:03:08.150Z</time>
      </trkpt>
      <trkpt lat="44.91387" lon="6.76166">
        <ele>2173</ele>
        <time>2014-07-31T17:03:09.250Z</time>
      </trkpt>
      <trkpt lat="44.91401" lon="6.76159">
        <ele>2173</ele>
        <time>2014-07-31T17:03:11.250Z</time>
      </trkpt>
      <trkpt lat="44.91418" lon="6.76156">
        <ele>2173</ele>
        <time>2014-07-31T17:03:13.250Z</time>
      </trkpt>
      <trkpt lat="44.91437" lon="6.76155">
        <ele>2168.9</ele>
        <time>2014-07-31T17:03:15.250Z</time>
      </trkpt>
      <trkpt lat="44.91455" lon="6.76156">
        <ele>2164.4</ele>
        <time>2014-07-31T17:03:17.210Z</time>
      </trkpt>
      <trkpt lat="44.91473" lon="6.76154">
        <ele>2163</ele>
        <time>2014-07-31T17:03:19.240Z</time>
      </trkpt>
      <trkpt lat="44.9149" lon="6.76149">
        <ele>2160.6</ele>
        <time>2014-07-31T17:03:21.250Z</time>
      </trkpt>
      <trkpt lat="44.91507" lon="6.76144">
        <ele>2159</ele>
        <time>2014-07-31T17:03:23.250Z</time>
      </trkpt>
      <trkpt lat="44.91522" lon="6.76141">
        <ele>2158.6</ele>
        <time>2014-07-31T17:03:25.150Z</time>
      </trkpt>
      <trkpt lat="44.9153" lon="6.76141">
        <ele>2159</ele>
        <time>2014-07-31T17:03:26.250Z</time>
      </trkpt>
      <trkpt lat="44.91545" lon="6.7614">
        <ele>2159</ele>
        <time>2014-07-31T17:03:28.250Z</time>
      </trkpt>
      <trkpt lat="44.9156" lon="6.76137">
        <ele>2157.3</ele>
        <time>2014-07-31T17:03:30.250Z</time>
      </trkpt>
      <trkpt lat="44.91575" lon="6.76134">
        <ele>2156.3</ele>
        <time>2014-07-31T17:03:32.250Z</time>
      </trkpt>
      <trkpt lat="44.91588" lon="6.76125">
        <ele>2156</ele>
        <time>2014-07-31T17:03:34.210Z</time>
      </trkpt>
      <trkpt lat="44.91602" lon="6.76114">
        <ele>2156</ele>
        <time>2014-07-31T17:03:36.250Z</time>
      </trkpt>
      <trkpt lat="44.91615" lon="6.76103">
        <ele>2156</ele>
        <time>2014-07-31T17:03:38.250Z</time>
      </trkpt>
      <trkpt lat="44.9163" lon="6.76093">
        <ele>2155.4</ele>
        <time>2014-07-31T17:03:40.150Z</time>
      </trkpt>
      <trkpt lat="44.91645" lon="6.76089">
        <ele>2155</ele>
        <time>2014-07-31T17:03:42.250Z</time>
      </trkpt>
      <trkpt lat="44.91659" lon="6.76093">
        <ele>2155</ele>
        <time>2014-07-31T17:03:44.250Z</time>
      </trkpt>
      <trkpt lat="44.91668" lon="6.76099">
        <ele>2153</ele>
        <time>2014-07-31T17:03:46.250Z</time>
      </trkpt>
      <trkpt lat="44.91674" lon="6.76104">
        <ele>2153</ele>
        <time>2014-07-31T17:03:48.250Z</time>
      </trkpt>
      <trkpt lat="44.91681" lon="6.76107">
        <ele>2153.6</ele>
        <time>2014-07-31T17:03:50.150Z</time>
      </trkpt>
      <trkpt lat="44.91684" lon="6.76109">
        <ele>2154</ele>
        <time>2014-07-31T17:03:51.210Z</time>
      </trkpt>
      <trkpt lat="44.91692" lon="6.76115">
        <ele>2154</ele>
        <time>2014-07-31T17:03:53.250Z</time>
      </trkpt>
      <trkpt lat="44.917" lon="6.76121">
        <ele>2154</ele>
        <time>2014-07-31T17:03:55.250Z</time>
      </trkpt>
      <trkpt lat="44.91709" lon="6.76128">
        <ele>2154</ele>
        <time>2014-07-31T17:03:57.250Z</time>
      </trkpt>
      <trkpt lat="44.91718" lon="6.76134">
        <ele>2154</ele>
        <time>2014-07-31T17:03:59.250Z</time>
      </trkpt>
      <trkpt lat="44.91728" lon="6.76141">
        <ele>2154</ele>
        <time>2014-07-31T17:04:01.250Z</time>
      </trkpt>
      <trkpt lat="44.9174" lon="6.76147">
        <ele>2154</ele>
        <time>2014-07-31T17:04:03.150Z</time>
      </trkpt>
      <trkpt lat="44.91746" lon="6.76151">
        <ele>2154</ele>
        <time>2014-07-31T17:04:04.250Z</time>
      </trkpt>
      <trkpt lat="44.91758" lon="6.76157">
        <ele>2152</ele>
        <time>2014-07-31T17:04:06.250Z</time>
      </trkpt>
      <trkpt lat="44.91768" lon="6.76164">
        <ele>2152</ele>
        <time>2014-07-31T17:04:08.250Z</time>
      </trkpt>
      <trkpt lat="44.91778" lon="6.76172">
        <ele>2152</ele>
        <time>2014-07-31T17:04:10.250Z</time>
      </trkpt>
      <trkpt lat="44.91789" lon="6.7618">
        <ele>2152</ele>
        <time>2014-07-31T17:04:12.250Z</time>
      </trkpt>
      <trkpt lat="44.91799" lon="6.76188">
        <ele>2152</ele>
        <time>2014-07-31T17:04:14.250Z</time>
      </trkpt>
      <trkpt lat="44.91811" lon="6.76192">
        <ele>2149</ele>
        <time>2014-07-31T17:04:16.150Z</time>
      </trkpt>
      <trkpt lat="44.91817" lon="6.76195">
        <ele>2149</ele>
        <time>2014-07-31T17:04:17.210Z</time>
      </trkpt>
      <trkpt lat="44.91829" lon="6.762">
        <ele>2149</ele>
        <time>2014-07-31T17:04:19.170Z</time>
      </trkpt>
      <trkpt lat="44.91841" lon="6.76202">
        <ele>2148</ele>
        <time>2014-07-31T17:04:21.250Z</time>
      </trkpt>
      <trkpt lat="44.91856" lon="6.76205">
        <ele>2148</ele>
        <time>2014-07-31T17:04:23.250Z</time>
      </trkpt>
      <trkpt lat="44.9187" lon="6.76213">
        <ele>2146.6</ele>
        <time>2014-07-31T17:04:25.250Z</time>
      </trkpt>
      <trkpt lat="44.91884" lon="6.76216">
        <ele>2146</ele>
        <time>2014-07-31T17:04:27.250Z</time>
      </trkpt>
      <trkpt lat="44.919" lon="6.76215">
        <ele>2146</ele>
        <time>2014-07-31T17:04:29.150Z</time>
      </trkpt>
      <trkpt lat="44.91906" lon="6.76214">
        <ele>2143.4</ele>
        <time>2014-07-31T17:04:30.220Z</time>
      </trkpt>
      <trkpt lat="44.91919" lon="6.76213">
        <ele>2142</ele>
        <time>2014-07-31T17:04:32.250Z</time>
      </trkpt>
      <trkpt lat="44.9193" lon="6.76212">
        <ele>2142</ele>
        <time>2014-07-31T17:04:34.050Z</time>
      </trkpt>
      <trkpt lat="44.91934" lon="6.76212">
        <ele>2139.4</ele>
        <time>2014-07-31T17:04:35.250Z</time>
      </trkpt>
      <trkpt lat="44.91942" lon="6.76211">
        <ele>2135.4</ele>
        <time>2014-07-31T17:04:37.150Z</time>
      </trkpt>
      <trkpt lat="44.91946" lon="6.7621">
        <ele>2133.6</ele>
        <time>2014-07-31T17:04:38.250Z</time>
      </trkpt>
      <trkpt lat="44.91955" lon="6.76207">
        <ele>2133</ele>
        <time>2014-07-31T17:04:40.250Z</time>
      </trkpt>
      <trkpt lat="44.91966" lon="6.762">
        <ele>2132.7</ele>
        <time>2014-07-31T17:04:42.250Z</time>
      </trkpt>
      <trkpt lat="44.91978" lon="6.76191">
        <ele>2130.3</ele>
        <time>2014-07-31T17:04:44.250Z</time>
      </trkpt>
      <trkpt lat="44.91992" lon="6.76187">
        <ele>2128.3</ele>
        <time>2014-07-31T17:04:46.250Z</time>
      </trkpt>
      <trkpt lat="44.92004" lon="6.76189">
        <ele>2127.3</ele>
        <time>2014-07-31T17:04:48.250Z</time>
      </trkpt>
      <trkpt lat="44.92016" lon="6.76197">
        <ele>2124.4</ele>
        <time>2014-07-31T17:04:50.150Z</time>
      </trkpt>
      <trkpt lat="44.92021" lon="6.76202">
        <ele>2122.1</ele>
        <time>2014-07-31T17:04:51.210Z</time>
      </trkpt>
      <trkpt lat="44.92033" lon="6.76211">
        <ele>2119.3</ele>
        <time>2014-07-31T17:04:53.250Z</time>
      </trkpt>
      <trkpt lat="44.92047" lon="6.76217">
        <ele>2119</ele>
        <time>2014-07-31T17:04:55.240Z</time>
      </trkpt>
      <trkpt lat="44.92058" lon="6.76224">
        <ele>2116.6</ele>
        <time>2014-07-31T17:04:57.250Z</time>
      </trkpt>
      <trkpt lat="44.92068" lon="6.76234">
        <ele>2113.3</ele>
        <time>2014-07-31T17:04:59.250Z</time>
      </trkpt>
      <trkpt lat="44.92076" lon="6.76238">
        <ele>2110.7</ele>
        <time>2014-07-31T17:05:01.250Z</time>
      </trkpt>
      <trkpt lat="44.92086" lon="6.76239">
        <ele>2109.4</ele>
        <time>2014-07-31T17:05:03.150Z</time>
      </trkpt>
      <trkpt lat="44.92092" lon="6.7624">
        <ele>2107.7</ele>
        <time>2014-07-31T17:05:04.220Z</time>
      </trkpt>
      <trkpt lat="44.92102" lon="6.76244">
        <ele>2104.3</ele>
        <time>2014-07-31T17:05:06.250Z</time>
      </trkpt>
      <trkpt lat="44.92109" lon="6.76243">
        <ele>2101.6</ele>
        <time>2014-07-31T17:05:08.250Z</time>
      </trkpt>
      <trkpt lat="44.92114" lon="6.76239">
        <ele>2101</ele>
        <time>2014-07-31T17:05:10.250Z</time>
      </trkpt>
      <trkpt lat="44.92119" lon="6.76236">
        <ele>2098.3</ele>
        <time>2014-07-31T17:05:12.250Z</time>
      </trkpt>
      <trkpt lat="44.92129" lon="6.76239">
        <ele>2096.3</ele>
        <time>2014-07-31T17:05:14.250Z</time>
      </trkpt>
      <trkpt lat="44.92144" lon="6.76243">
        <ele>2094.4</ele>
        <time>2014-07-31T17:05:16.150Z</time>
      </trkpt>
      <trkpt lat="44.9215" lon="6.76242">
        <ele>2091.4</ele>
        <time>2014-07-31T17:05:17.210Z</time>
      </trkpt>
      <trkpt lat="44.92162" lon="6.76242">
        <ele>2089</ele>
        <time>2014-07-31T17:05:19.250Z</time>
      </trkpt>
      <trkpt lat="44.92174" lon="6.76246">
        <ele>2087.4</ele>
        <time>2014-07-31T17:05:21.220Z</time>
      </trkpt>
      <trkpt lat="44.92184" lon="6.76248">
        <ele>2084.6</ele>
        <time>2014-07-31T17:05:23.250Z</time>
      </trkpt>
      <trkpt lat="44.92191" lon="6.76243">
        <ele>2082.3</ele>
        <time>2014-07-31T17:05:25.250Z</time>
      </trkpt>
      <trkpt lat="44.92196" lon="6.76233">
        <ele>2079.3</ele>
        <time>2014-07-31T17:05:27.250Z</time>
      </trkpt>
      <trkpt lat="44.92202" lon="6.76222">
        <ele>2078.4</ele>
        <time>2014-07-31T17:05:29.150Z</time>
      </trkpt>
      <trkpt lat="44.92206" lon="6.76217">
        <ele>2076.6</ele>
        <time>2014-07-31T17:05:30.250Z</time>
      </trkpt>
      <trkpt lat="44.92215" lon="6.76211">
        <ele>2075</ele>
        <time>2014-07-31T17:05:32.250Z</time>
      </trkpt>
      <trkpt lat="44.92227" lon="6.76205">
        <ele>2072.5</ele>
        <time>2014-07-31T17:05:34.050Z</time>
      </trkpt>
      <trkpt lat="44.92232" lon="6.76204">
        <ele>2072</ele>
        <time>2014-07-31T17:05:35.250Z</time>
      </trkpt>
      <trkpt lat="44.92245" lon="6.76202">
        <ele>2071</ele>
        <time>2014-07-31T17:05:37.150Z</time>
      </trkpt>
      <trkpt lat="44.92252" lon="6.76201">
        <ele>2070.3</ele>
        <time>2014-07-31T17:05:38.220Z</time>
      </trkpt>
      <trkpt lat="44.92266" lon="6.76202">
        <ele>2069.3</ele>
        <time>2014-07-31T17:05:40.250Z</time>
      </trkpt>
      <trkpt lat="44.92274" lon="6.76204">
        <ele>2068</ele>
        <time>2014-07-31T17:05:42.250Z</time>
      </trkpt>
      <trkpt lat="44.92277" lon="6.76204">
        <ele>2068.7</ele>
        <time>2014-07-31T17:05:44.250Z</time>
      </trkpt>
      <trkpt lat="44.92278" lon="6.76204">
        <ele>2069</ele>
        <time>2014-07-31T17:05:48.250Z</time>
      </trkpt>
      <trkpt lat="44.92277" lon="6.76203">
        <ele>2069</ele>
        <time>2014-07-31T17:05:51.210Z</time>
      </trkpt>
      <trkpt lat="44.92277" lon="6.76204">
        <ele>2069</ele>
        <time>2014-07-31T17:05:53.250Z</time>
      </trkpt>
      <trkpt lat="44.92277" lon="6.76206">
        <ele>2069</ele>
        <time>2014-07-31T17:05:58.250Z</time>
      </trkpt>
      <trkpt lat="44.92277" lon="6.76206">
        <ele>2069</ele>
        <time>2014-07-31T17:06:00.210Z</time>
      </trkpt>
      <trkpt lat="44.92275" lon="6.76206">
        <ele>2068</ele>
        <time>2014-07-31T17:06:08.250Z</time>
      </trkpt>
      <trkpt lat="44.92275" lon="6.76205">
        <ele>2068</ele>
        <time>2014-07-31T17:06:11.250Z</time>
      </trkpt>
      <trkpt lat="44.92274" lon="6.76205">
        <ele>2068</ele>
        <time>2014-07-31T17:07:00.210Z</time>
      </trkpt>
      <trkpt lat="44.92275" lon="6.76205">
        <ele>2068</ele>
        <time>2014-07-31T17:07:12.250Z</time>
      </trkpt>
      <trkpt lat="44.92277" lon="6.76205">
        <ele>2069</ele>
        <time>2014-07-31T17:07:17.150Z</time>
      </trkpt>
      <trkpt lat="44.92279" lon="6.76203">
        <ele>2069</ele>
        <time>2014-07-31T17:07:19.240Z</time>
      </trkpt>
      <trkpt lat="44.92281" lon="6.76201">
        <ele>2069</ele>
        <time>2014-07-31T17:07:21.250Z</time>
      </trkpt>
      <trkpt lat="44.92285" lon="6.76202">
        <ele>2069</ele>
        <time>2014-07-31T17:07:23.250Z</time>
      </trkpt>
      <trkpt lat="44.92291" lon="6.76202">
        <ele>2068.3</ele>
        <time>2014-07-31T17:07:25.250Z</time>
      </trkpt>
      <trkpt lat="44.92299" lon="6.76202">
        <ele>2068</ele>
        <time>2014-07-31T17:07:27.250Z</time>
      </trkpt>
      <trkpt lat="44.92307" lon="6.76201">
        <ele>2068</ele>
        <time>2014-07-31T17:07:29.250Z</time>
      </trkpt>
      <trkpt lat="44.92313" lon="6.76205">
        <ele>2068</ele>
        <time>2014-07-31T17:07:31.150Z</time>
      </trkpt>
      <trkpt lat="44.92316" lon="6.76206">
        <ele>2068</ele>
        <time>2014-07-31T17:07:32.250Z</time>
      </trkpt>
      <trkpt lat="44.92323" lon="6.76206">
        <ele>2068</ele>
        <time>2014-07-31T17:07:34.210Z</time>
      </trkpt>
      <trkpt lat="44.92332" lon="6.76205">
        <ele>2067</ele>
        <time>2014-07-31T17:07:36.250Z</time>
      </trkpt>
      <trkpt lat="44.92341" lon="6.76201">
        <ele>2067</ele>
        <time>2014-07-31T17:07:38.250Z</time>
      </trkpt>
      <trkpt lat="44.92352" lon="6.762">
        <ele>2067</ele>
        <time>2014-07-31T17:07:40.250Z</time>
      </trkpt>
      <trkpt lat="44.92363" lon="6.76205">
        <ele>2067</ele>
        <time>2014-07-31T17:07:42.250Z</time>
      </trkpt>
      <trkpt lat="44.92378" lon="6.76207">
        <ele>2067</ele>
        <time>2014-07-31T17:07:44.150Z</time>
      </trkpt>
      <trkpt lat="44.92386" lon="6.76206">
        <ele>2062.2</ele>
        <time>2014-07-31T17:07:45.250Z</time>
      </trkpt>
      <trkpt lat="44.92402" lon="6.76197">
        <ele>2053.6</ele>
        <time>2014-07-31T17:07:47.250Z</time>
      </trkpt>
      <trkpt lat="44.92417" lon="6.76185">
        <ele>2052.6</ele>
        <time>2014-07-31T17:07:49.250Z</time>
      </trkpt>
      <trkpt lat="44.92432" lon="6.76173">
        <ele>2052</ele>
        <time>2014-07-31T17:07:51.210Z</time>
      </trkpt>
      <trkpt lat="44.92446" lon="6.76164">
        <ele>2049.6</ele>
        <time>2014-07-31T17:07:53.250Z</time>
      </trkpt>
      <trkpt lat="44.92458" lon="6.76159">
        <ele>2048</ele>
        <time>2014-07-31T17:07:55.250Z</time>
      </trkpt>
      <trkpt lat="44.92469" lon="6.76151">
        <ele>2047</ele>
        <time>2014-07-31T17:07:57.150Z</time>
      </trkpt>
      <trkpt lat="44.92474" lon="6.76147">
        <ele>2047</ele>
        <time>2014-07-31T17:07:58.250Z</time>
      </trkpt>
      <trkpt lat="44.92486" lon="6.7614">
        <ele>2044.4</ele>
        <time>2014-07-31T17:08:00.210Z</time>
      </trkpt>
      <trkpt lat="44.92496" lon="6.76137">
        <ele>2043.3</ele>
        <time>2014-07-31T17:08:02.250Z</time>
      </trkpt>
      <trkpt lat="44.92507" lon="6.76138">
        <ele>2042.3</ele>
        <time>2014-07-31T17:08:04.250Z</time>
      </trkpt>
      <trkpt lat="44.92516" lon="6.76135">
        <ele>2042</ele>
        <time>2014-07-31T17:08:06.250Z</time>
      </trkpt>
      <trkpt lat="44.92524" lon="6.7613">
        <ele>2040.4</ele>
        <time>2014-07-31T17:08:08.140Z</time>
      </trkpt>
      <trkpt lat="44.92528" lon="6.76127">
        <ele>2038</ele>
        <time>2014-07-31T17:08:09.250Z</time>
      </trkpt>
      <trkpt lat="44.9254" lon="6.76123">
        <ele>2035.5</ele>
        <time>2014-07-31T17:08:11.050Z</time>
      </trkpt>
      <trkpt lat="44.92547" lon="6.76122">
        <ele>2035</ele>
        <time>2014-07-31T17:08:12.250Z</time>
      </trkpt>
      <trkpt lat="44.9256" lon="6.76117">
        <ele>2035</ele>
        <time>2014-07-31T17:08:14.250Z</time>
      </trkpt>
      <trkpt lat="44.92571" lon="6.76114">
        <ele>2034.4</ele>
        <time>2014-07-31T17:08:16.250Z</time>
      </trkpt>
      <trkpt lat="44.92585" lon="6.76108">
        <ele>2031.6</ele>
        <time>2014-07-31T17:08:18.250Z</time>
      </trkpt>
      <trkpt lat="44.92596" lon="6.76102">
        <ele>2030</ele>
        <time>2014-07-31T17:08:20.240Z</time>
      </trkpt>
      <trkpt lat="44.9261" lon="6.76096">
        <ele>2028.4</ele>
        <time>2014-07-31T17:08:22.150Z</time>
      </trkpt>
      <trkpt lat="44.92617" lon="6.76092">
        <ele>2028</ele>
        <time>2014-07-31T17:08:23.250Z</time>
      </trkpt>
      <trkpt lat="44.92628" lon="6.76088">
        <ele>2027.3</ele>
        <time>2014-07-31T17:08:25.250Z</time>
      </trkpt>
      <trkpt lat="44.92643" lon="6.7609">
        <ele>2026</ele>
        <time>2014-07-31T17:08:27.250Z</time>
      </trkpt>
      <trkpt lat="44.92655" lon="6.7609">
        <ele>2024.3</ele>
        <time>2014-07-31T17:08:29.250Z</time>
      </trkpt>
      <trkpt lat="44.92671" lon="6.76088">
        <ele>2022.3</ele>
        <time>2014-07-31T17:08:31.250Z</time>
      </trkpt>
      <trkpt lat="44.92682" lon="6.76083">
        <ele>2020.3</ele>
        <time>2014-07-31T17:08:33.250Z</time>
      </trkpt>
      <trkpt lat="44.92691" lon="6.76077">
        <ele>2017.6</ele>
        <time>2014-07-31T17:08:35.250Z</time>
      </trkpt>
      <trkpt lat="44.92698" lon="6.76067">
        <ele>2014.3</ele>
        <time>2014-07-31T17:08:37.250Z</time>
      </trkpt>
      <trkpt lat="44.92714" lon="6.76068">
        <ele>2010.4</ele>
        <time>2014-07-31T17:08:39.200Z</time>
      </trkpt>
      <trkpt lat="44.92721" lon="6.76068">
        <ele>2009.3</ele>
        <time>2014-07-31T17:08:40.250Z</time>
      </trkpt>
      <trkpt lat="44.92731" lon="6.76068">
        <ele>2007.3</ele>
        <time>2014-07-31T17:08:42.250Z</time>
      </trkpt>
      <trkpt lat="44.92739" lon="6.76061">
        <ele>2004.3</ele>
        <time>2014-07-31T17:08:44.240Z</time>
      </trkpt>
      <trkpt lat="44.92752" lon="6.76055">
        <ele>2000.6</ele>
        <time>2014-07-31T17:08:46.250Z</time>
      </trkpt>
      <trkpt lat="44.92765" lon="6.76048">
        <ele>1998.3</ele>
        <time>2014-07-31T17:08:48.250Z</time>
      </trkpt>
      <trkpt lat="44.92779" lon="6.76037">
        <ele>1995.7</ele>
        <time>2014-07-31T17:08:50.250Z</time>
      </trkpt>
      <trkpt lat="44.92795" lon="6.76032">
        <ele>1994</ele>
        <time>2014-07-31T17:08:52.250Z</time>
      </trkpt>
      <trkpt lat="44.92804" lon="6.7603">
        <ele>1992.3</ele>
        <time>2014-07-31T17:08:54.250Z</time>
      </trkpt>
      <trkpt lat="44.92811" lon="6.76029">
        <ele>1990.7</ele>
        <time>2014-07-31T17:08:56.240Z</time>
      </trkpt>
      <trkpt lat="44.92816" lon="6.76031">
        <ele>1987</ele>
        <time>2014-07-31T17:08:58.250Z</time>
      </trkpt>
      <trkpt lat="44.92825" lon="6.76032">
        <ele>1983.7</ele>
        <time>2014-07-31T17:09:00.210Z</time>
      </trkpt>
      <trkpt lat="44.92835" lon="6.76031">
        <ele>1980.5</ele>
        <time>2014-07-31T17:09:02.050Z</time>
      </trkpt>
      <trkpt lat="44.9284" lon="6.7603">
        <ele>1980</ele>
        <time>2014-07-31T17:09:03.250Z</time>
      </trkpt>
      <trkpt lat="44.9285" lon="6.76029">
        <ele>1978.2</ele>
        <time>2014-07-31T17:09:05.380Z</time>
      </trkpt>
      <trkpt lat="44.92858" lon="6.76023">
        <ele>1976.3</ele>
        <time>2014-07-31T17:09:07.250Z</time>
      </trkpt>
      <trkpt lat="44.9287" lon="6.76017">
        <ele>1976</ele>
        <time>2014-07-31T17:09:09.150Z</time>
      </trkpt>
      <trkpt lat="44.92876" lon="6.76015">
        <ele>1976</ele>
        <time>2014-07-31T17:09:10.250Z</time>
      </trkpt>
      <trkpt lat="44.92888" lon="6.76012">
        <ele>1975.3</ele>
        <time>2014-07-31T17:09:12.250Z</time>
      </trkpt>
      <trkpt lat="44.92898" lon="6.76007">
        <ele>1974.3</ele>
        <time>2014-07-31T17:09:14.250Z</time>
      </trkpt>
      <trkpt lat="44.92907" lon="6.76001">
        <ele>1973</ele>
        <time>2014-07-31T17:09:16.250Z</time>
      </trkpt>
      <trkpt lat="44.92912" lon="6.75993">
        <ele>1973</ele>
        <time>2014-07-31T17:09:18.140Z</time>
      </trkpt>
      <trkpt lat="44.92914" lon="6.7599">
        <ele>1973</ele>
        <time>2014-07-31T17:09:19.220Z</time>
      </trkpt>
      <trkpt lat="44.92919" lon="6.75984">
        <ele>1973</ele>
        <time>2014-07-31T17:09:21.150Z</time>
      </trkpt>
      <trkpt lat="44.92922" lon="6.7598">
        <ele>1973</ele>
        <time>2014-07-31T17:09:22.250Z</time>
      </trkpt>
      <trkpt lat="44.9293" lon="6.75974">
        <ele>1973</ele>
        <time>2014-07-31T17:09:24.250Z</time>
      </trkpt>
      <trkpt lat="44.9294" lon="6.75964">
        <ele>1970</ele>
        <time>2014-07-31T17:09:26.250Z</time>
      </trkpt>
      <trkpt lat="44.92947" lon="6.75954">
        <ele>1970</ele>
        <time>2014-07-31T17:09:28.250Z</time>
      </trkpt>
      <trkpt lat="44.92952" lon="6.75944">
        <ele>1967.7</ele>
        <time>2014-07-31T17:09:30.140Z</time>
      </trkpt>
      <trkpt lat="44.92955" lon="6.75939">
        <ele>1966</ele>
        <time>2014-07-31T17:09:31.250Z</time>
      </trkpt>
      <trkpt lat="44.92959" lon="6.75931">
        <ele>1966</ele>
        <time>2014-07-31T17:09:33.150Z</time>
      </trkpt>
      <trkpt lat="44.92963" lon="6.75927">
        <ele>1966</ele>
        <time>2014-07-31T17:09:34.210Z</time>
      </trkpt>
      <trkpt lat="44.92971" lon="6.75917">
        <ele>1965</ele>
        <time>2014-07-31T17:09:36.220Z</time>
      </trkpt>
      <trkpt lat="44.92975" lon="6.75911">
        <ele>1965</ele>
        <time>2014-07-31T17:09:38.250Z</time>
      </trkpt>
      <trkpt lat="44.9298" lon="6.75905">
        <ele>1966.3</ele>
        <time>2014-07-31T17:09:40.250Z</time>
      </trkpt>
      <trkpt lat="44.92986" lon="6.75898">
        <ele>1967</ele>
        <time>2014-07-31T17:09:42.150Z</time>
      </trkpt>
      <trkpt lat="44.92989" lon="6.75891">
        <ele>1967</ele>
        <time>2014-07-31T17:09:43.250Z</time>
      </trkpt>
      <trkpt lat="44.92996" lon="6.75881">
        <ele>1967</ele>
        <time>2014-07-31T17:09:45.250Z</time>
      </trkpt>
      <trkpt lat="44.93003" lon="6.75874">
        <ele>1967</ele>
        <time>2014-07-31T17:09:47.250Z</time>
      </trkpt>
      <trkpt lat="44.9301" lon="6.75868">
        <ele>1967</ele>
        <time>2014-07-31T17:09:49.250Z</time>
      </trkpt>
      <trkpt lat="44.93014" lon="6.75862">
        <ele>1967</ele>
        <time>2014-07-31T17:09:51.210Z</time>
      </trkpt>
      <trkpt lat="44.93017" lon="6.75854">
        <ele>1967</ele>
        <time>2014-07-31T17:09:53.220Z</time>
      </trkpt>
      <trkpt lat="44.93022" lon="6.75847">
        <ele>1967.7</ele>
        <time>2014-07-31T17:09:55.250Z</time>
      </trkpt>
      <trkpt lat="44.93027" lon="6.7584">
        <ele>1968</ele>
        <time>2014-07-31T17:09:57.250Z</time>
      </trkpt>
      <trkpt lat="44.93032" lon="6.75835">
        <ele>1968</ele>
        <time>2014-07-31T17:09:59.250Z</time>
      </trkpt>
      <trkpt lat="44.93036" lon="6.75831">
        <ele>1968</ele>
        <time>2014-07-31T17:10:01.150Z</time>
      </trkpt>
      <trkpt lat="44.93039" lon="6.7583">
        <ele>1968</ele>
        <time>2014-07-31T17:10:02.250Z</time>
      </trkpt>
      <trkpt lat="44.93045" lon="6.75827">
        <ele>1968</ele>
        <time>2014-07-31T17:10:04.150Z</time>
      </trkpt>
      <trkpt lat="44.93048" lon="6.75825">
        <ele>1967.3</ele>
        <time>2014-07-31T17:10:05.250Z</time>
      </trkpt>
      <trkpt lat="44.93055" lon="6.75815">
        <ele>1967</ele>
        <time>2014-07-31T17:10:07.210Z</time>
      </trkpt>
      <trkpt lat="44.93063" lon="6.75807">
        <ele>1967</ele>
        <time>2014-07-31T17:10:09.250Z</time>
      </trkpt>
      <trkpt lat="44.9307" lon="6.75798">
        <ele>1967</ele>
        <time>2014-07-31T17:10:11.250Z</time>
      </trkpt>
      <trkpt lat="44.93074" lon="6.75787">
        <ele>1967</ele>
        <time>2014-07-31T17:10:13.150Z</time>
      </trkpt>
      <trkpt lat="44.93076" lon="6.75783">
        <ele>1967</ele>
        <time>2014-07-31T17:10:14.250Z</time>
      </trkpt>
      <trkpt lat="44.93081" lon="6.75779">
        <ele>1962</ele>
        <time>2014-07-31T17:10:16.250Z</time>
      </trkpt>
      <trkpt lat="44.93089" lon="6.75776">
        <ele>1962</ele>
        <time>2014-07-31T17:10:18.150Z</time>
      </trkpt>
      <trkpt lat="44.93094" lon="6.75777">
        <ele>1962</ele>
        <time>2014-07-31T17:10:19.250Z</time>
      </trkpt>
      <trkpt lat="44.93106" lon="6.75784">
        <ele>1955</ele>
        <time>2014-07-31T17:10:21.250Z</time>
      </trkpt>
      <trkpt lat="44.93112" lon="6.75786">
        <ele>1955</ele>
        <time>2014-07-31T17:10:23.250Z</time>
      </trkpt>
      <trkpt lat="44.93118" lon="6.75786">
        <ele>1952.3</ele>
        <time>2014-07-31T17:10:25.250Z</time>
      </trkpt>
      <trkpt lat="44.93122" lon="6.75783">
        <ele>1949</ele>
        <time>2014-07-31T17:10:27.120Z</time>
      </trkpt>
      <trkpt lat="44.93122" lon="6.75781">
        <ele>1949</ele>
        <time>2014-07-31T17:10:28.250Z</time>
      </trkpt>
      <trkpt lat="44.93121" lon="6.75779">
        <ele>1950</ele>
        <time>2014-07-31T17:10:30.250Z</time>
      </trkpt>
      <trkpt lat="44.93121" lon="6.75776">
        <ele>1950</ele>
        <time>2014-07-31T17:10:32.150Z</time>
      </trkpt>
      <trkpt lat="44.93121" lon="6.75774">
        <ele>1950</ele>
        <time>2014-07-31T17:10:33.250Z</time>
      </trkpt>
      <trkpt lat="44.93122" lon="6.75771">
        <ele>1950.7</ele>
        <time>2014-07-31T17:10:35.250Z</time>
      </trkpt>
      <trkpt lat="44.93123" lon="6.75769">
        <ele>1951</ele>
        <time>2014-07-31T17:10:37.250Z</time>
      </trkpt>
      <trkpt lat="44.93122" lon="6.75767">
        <ele>1951</ele>
        <time>2014-07-31T17:10:39.250Z</time>
      </trkpt>
      <trkpt lat="44.93122" lon="6.75763">
        <ele>1951</ele>
        <time>2014-07-31T17:10:41.250Z</time>
      </trkpt>
      <trkpt lat="44.93122" lon="6.75759">
        <ele>1951</ele>
        <time>2014-07-31T17:10:43.250Z</time>
      </trkpt>
      <trkpt lat="44.93122" lon="6.75756">
        <ele>1951.7</ele>
        <time>2014-07-31T17:10:45.250Z</time>
      </trkpt>
      <trkpt lat="44.93123" lon="6.75753">
        <ele>1952</ele>
        <time>2014-07-31T17:10:47.250Z</time>
      </trkpt>
      <trkpt lat="44.93123" lon="6.7575">
        <ele>1952</ele>
        <time>2014-07-31T17:10:49.250Z</time>
      </trkpt>
      <trkpt lat="44.93123" lon="6.75747">
        <ele>1952</ele>
        <time>2014-07-31T17:10:51.210Z</time>
      </trkpt>
      <trkpt lat="44.93123" lon="6.75744">
        <ele>1952</ele>
        <time>2014-07-31T17:10:53.250Z</time>
      </trkpt>
      <trkpt lat="44.93123" lon="6.75741">
        <ele>1953.4</ele>
        <time>2014-07-31T17:10:55.250Z</time>
      </trkpt>
      <trkpt lat="44.93123" lon="6.75737">
        <ele>1954</ele>
        <time>2014-07-31T17:10:57.250Z</time>
      </trkpt>
      <trkpt lat="44.93123" lon="6.75734">
        <ele>1954</ele>
        <time>2014-07-31T17:10:59.250Z</time>
      </trkpt>
      <trkpt lat="44.93124" lon="6.75733">
        <ele>1954</ele>
        <time>2014-07-31T17:11:00.150Z</time>
      </trkpt>
      <trkpt lat="44.93124" lon="6.7573">
        <ele>1954</ele>
        <time>2014-07-31T17:11:02.250Z</time>
      </trkpt>
      <trkpt lat="44.93124" lon="6.75726">
        <ele>1954</ele>
        <time>2014-07-31T17:11:04.250Z</time>
      </trkpt>
      <trkpt lat="44.93124" lon="6.75723">
        <ele>1957</ele>
        <time>2014-07-31T17:11:06.150Z</time>
      </trkpt>
      <trkpt lat="44.93124" lon="6.75722">
        <ele>1957</ele>
        <time>2014-07-31T17:11:07.250Z</time>
      </trkpt>
      <trkpt lat="44.93125" lon="6.75718">
        <ele>1957</ele>
        <time>2014-07-31T17:11:09.250Z</time>
      </trkpt>
      <trkpt lat="44.93126" lon="6.75715">
        <ele>1957</ele>
        <time>2014-07-31T17:11:11.250Z</time>
      </trkpt>
      <trkpt lat="44.93126" lon="6.75712">
        <ele>1957</ele>
        <time>2014-07-31T17:11:13.250Z</time>
      </trkpt>
      <trkpt lat="44.93126" lon="6.75708">
        <ele>1957.7</ele>
        <time>2014-07-31T17:11:15.250Z</time>
      </trkpt>
      <trkpt lat="44.93127" lon="6.75706">
        <ele>1958</ele>
        <time>2014-07-31T17:11:17.210Z</time>
      </trkpt>
      <trkpt lat="44.93128" lon="6.75703">
        <ele>1958</ele>
        <time>2014-07-31T17:11:19.230Z</time>
      </trkpt>
      <trkpt lat="44.93129" lon="6.757">
        <ele>1958</ele>
        <time>2014-07-31T17:11:21.250Z</time>
      </trkpt>
      <trkpt lat="44.9313" lon="6.75697">
        <ele>1958</ele>
        <time>2014-07-31T17:11:23.250Z</time>
      </trkpt>
      <trkpt lat="44.93132" lon="6.75695">
        <ele>1958.7</ele>
        <time>2014-07-31T17:11:25.250Z</time>
      </trkpt>
      <trkpt lat="44.93133" lon="6.75693">
        <ele>1959</ele>
        <time>2014-07-31T17:11:27.250Z</time>
      </trkpt>
      <trkpt lat="44.93134" lon="6.75691">
        <ele>1959</ele>
        <time>2014-07-31T17:11:29.250Z</time>
      </trkpt>
      <trkpt lat="44.93136" lon="6.75688">
        <ele>1959</ele>
        <time>2014-07-31T17:11:31.250Z</time>
      </trkpt>
      <trkpt lat="44.93137" lon="6.75685">
        <ele>1959</ele>
        <time>2014-07-31T17:11:33.250Z</time>
      </trkpt>
      <trkpt lat="44.93139" lon="6.75682">
        <ele>1959</ele>
        <time>2014-07-31T17:11:35.120Z</time>
      </trkpt>
      <trkpt lat="44.9314" lon="6.75681">
        <ele>1959</ele>
        <time>2014-07-31T17:11:36.250Z</time>
      </trkpt>
      <trkpt lat="44.93141" lon="6.75678">
        <ele>1959</ele>
        <time>2014-07-31T17:11:38.250Z</time>
      </trkpt>
      <trkpt lat="44.93143" lon="6.75676">
        <ele>1959</ele>
        <time>2014-07-31T17:11:40.150Z</time>
      </trkpt>
      <trkpt lat="44.93145" lon="6.75675">
        <ele>1959</ele>
        <time>2014-07-31T17:11:43.250Z</time>
      </trkpt>
      <trkpt lat="44.93147" lon="6.75671">
        <ele>1962</ele>
        <time>2014-07-31T17:11:47.250Z</time>
      </trkpt>
      <trkpt lat="44.93151" lon="6.75667">
        <ele>1962</ele>
        <time>2014-07-31T17:11:49.250Z</time>
      </trkpt>
      <trkpt lat="44.93153" lon="6.75664">
        <ele>1962</ele>
        <time>2014-07-31T17:11:51.210Z</time>
      </trkpt>
      <trkpt lat="44.93156" lon="6.75661">
        <ele>1962</ele>
        <time>2014-07-31T17:11:53.150Z</time>
      </trkpt>
      <trkpt lat="44.93158" lon="6.75659">
        <ele>1962</ele>
        <time>2014-07-31T17:11:54.250Z</time>
      </trkpt>
      <trkpt lat="44.9316" lon="6.75654">
        <ele>1963</ele>
        <time>2014-07-31T17:11:56.250Z</time>
      </trkpt>
      <trkpt lat="44.93162" lon="6.75651">
        <ele>1963</ele>
        <time>2014-07-31T17:11:58.240Z</time>
      </trkpt>
      <trkpt lat="44.93164" lon="6.75647">
        <ele>1963</ele>
        <time>2014-07-31T17:12:00.210Z</time>
      </trkpt>
      <trkpt lat="44.93166" lon="6.75641">
        <ele>1963</ele>
        <time>2014-07-31T17:12:02.250Z</time>
      </trkpt>
      <trkpt lat="44.93168" lon="6.75636">
        <ele>1963</ele>
        <time>2014-07-31T17:12:04.250Z</time>
      </trkpt>
      <trkpt lat="44.93169" lon="6.75632">
        <ele>1963</ele>
        <time>2014-07-31T17:12:06.150Z</time>
      </trkpt>
      <trkpt lat="44.9317" lon="6.75629">
        <ele>1963</ele>
        <time>2014-07-31T17:12:07.250Z</time>
      </trkpt>
      <trkpt lat="44.93172" lon="6.75626">
        <ele>1963</ele>
        <time>2014-07-31T17:12:09.220Z</time>
      </trkpt>
      <trkpt lat="44.93172" lon="6.75623">
        <ele>1963</ele>
        <time>2014-07-31T17:12:11.250Z</time>
      </trkpt>
      <trkpt lat="44.93173" lon="6.7562">
        <ele>1963</ele>
        <time>2014-07-31T17:12:13.250Z</time>
      </trkpt>
      <trkpt lat="44.93174" lon="6.75617">
        <ele>1963.6</ele>
        <time>2014-07-31T17:12:15.150Z</time>
      </trkpt>
      <trkpt lat="44.93174" lon="6.75616">
        <ele>1964</ele>
        <time>2014-07-31T17:12:16.250Z</time>
      </trkpt>
      <trkpt lat="44.93175" lon="6.75614">
        <ele>1964</ele>
        <time>2014-07-31T17:12:18.150Z</time>
      </trkpt>
      <trkpt lat="44.93176" lon="6.75613">
        <ele>1964</ele>
        <time>2014-07-31T17:12:19.250Z</time>
      </trkpt>
      <trkpt lat="44.93176" lon="6.75608">
        <ele>1964</ele>
        <time>2014-07-31T17:12:21.250Z</time>
      </trkpt>
      <trkpt lat="44.93178" lon="6.75605">
        <ele>1964</ele>
        <time>2014-07-31T17:12:23.150Z</time>
      </trkpt>
      <trkpt lat="44.9318" lon="6.75604">
        <ele>1964</ele>
        <time>2014-07-31T17:12:24.250Z</time>
      </trkpt>
      <trkpt lat="44.93182" lon="6.75603">
        <ele>1965</ele>
        <time>2014-07-31T17:12:26.220Z</time>
      </trkpt>
      <trkpt lat="44.93182" lon="6.75601">
        <ele>1965</ele>
        <time>2014-07-31T17:12:28.250Z</time>
      </trkpt>
      <trkpt lat="44.93184" lon="6.75601">
        <ele>1966</ele>
        <time>2014-07-31T17:12:37.250Z</time>
      </trkpt>
      <trkpt lat="44.93184" lon="6.75601">
        <ele>1966</ele>
        <time>2014-07-31T17:12:41.250Z</time>
      </trkpt>
      <trkpt lat="44.93185" lon="6.75602">
        <ele>1966</ele>
        <time>2014-07-31T17:12:53.250Z</time>
      </trkpt>
      <trkpt lat="44.93184" lon="6.75602">
        <ele>1966</ele>
        <time>2014-07-31T17:12:55.250Z</time>
      </trkpt>
      <trkpt lat="44.93184" lon="6.75601">
        <ele>1966</ele>
        <time>2014-07-31T17:13:00.230Z</time>
      </trkpt>
      <trkpt lat="44.93186" lon="6.75601">
        <ele>1966</ele>
        <time>2014-07-31T17:13:02.250Z</time>
      </trkpt>
      <trkpt lat="44.93186" lon="6.75602">
        <ele>1965</ele>
        <time>2014-07-31T17:13:08.250Z</time>
      </trkpt>
      <trkpt lat="44.93185" lon="6.75603">
        <ele>1965</ele>
        <time>2014-07-31T17:13:12.250Z</time>
      </trkpt>
      <trkpt lat="44.93184" lon="6.75605">
        <ele>1965</ele>
        <time>2014-07-31T17:13:14.150Z</time>
      </trkpt>
      <trkpt lat="44.93183" lon="6.75605">
        <ele>1965</ele>
        <time>2014-07-31T17:13:15.250Z</time>
      </trkpt>
      <trkpt lat="44.93182" lon="6.75607">
        <ele>1965</ele>
        <time>2014-07-31T17:13:17.240Z</time>
      </trkpt>
      <trkpt lat="44.93181" lon="6.75608">
        <ele>1965</ele>
        <time>2014-07-31T17:13:19.250Z</time>
      </trkpt>
      <trkpt lat="44.93179" lon="6.7561">
        <ele>1965</ele>
        <time>2014-07-31T17:13:21.250Z</time>
      </trkpt>
      <trkpt lat="44.93178" lon="6.75615">
        <ele>1965</ele>
        <time>2014-07-31T17:13:23.250Z</time>
      </trkpt>
      <trkpt lat="44.93177" lon="6.75614">
        <ele>1965</ele>
        <time>2014-07-31T17:13:25.250Z</time>
      </trkpt>
      <trkpt lat="44.93176" lon="6.75611">
        <ele>1965</ele>
        <time>2014-07-31T17:13:27.150Z</time>
      </trkpt>
      <trkpt lat="44.93178" lon="6.75609">
        <ele>1965</ele>
        <time>2014-07-31T17:13:30.250Z</time>
      </trkpt>
      <trkpt lat="44.93179" lon="6.75608">
        <ele>1965</ele>
        <time>2014-07-31T17:13:32.250Z</time>
      </trkpt>
      <trkpt lat="44.9318" lon="6.75604">
        <ele>1965</ele>
        <time>2014-07-31T17:13:36.250Z</time>
      </trkpt>
      <trkpt lat="44.93181" lon="6.75604">
        <ele>1965</ele>
        <time>2014-07-31T17:13:38.250Z</time>
      </trkpt>
      <trkpt lat="44.93184" lon="6.75605">
        <ele>1965</ele>
        <time>2014-07-31T17:13:42.240Z</time>
      </trkpt>
      <trkpt lat="44.93187" lon="6.75609">
        <ele>1965</ele>
        <time>2014-07-31T17:13:44.250Z</time>
      </trkpt>
      <trkpt lat="44.93192" lon="6.75614">
        <ele>1964</ele>
        <time>2014-07-31T17:13:46.150Z</time>
      </trkpt>
      <trkpt lat="44.93194" lon="6.75618">
        <ele>1964</ele>
        <time>2014-07-31T17:13:47.250Z</time>
      </trkpt>
      <trkpt lat="44.93197" lon="6.75626">
        <ele>1964</ele>
        <time>2014-07-31T17:13:49.250Z</time>
      </trkpt>
      <trkpt lat="44.93202" lon="6.75632">
        <ele>1964</ele>
        <time>2014-07-31T17:13:51.140Z</time>
      </trkpt>
      <trkpt lat="44.93205" lon="6.75634">
        <ele>1964</ele>
        <time>2014-07-31T17:13:52.250Z</time>
      </trkpt>
      <trkpt lat="44.93212" lon="6.75638">
        <ele>1964</ele>
        <time>2014-07-31T17:13:54.140Z</time>
      </trkpt>
      <trkpt lat="44.93216" lon="6.75639">
        <ele>1959.9</ele>
        <time>2014-07-31T17:13:55.250Z</time>
      </trkpt>
      <trkpt lat="44.93226" lon="6.75641">
        <ele>1956</ele>
        <time>2014-07-31T17:13:57.250Z</time>
      </trkpt>
      <trkpt lat="44.93235" lon="6.75643">
        <ele>1957</ele>
        <time>2014-07-31T17:13:59.250Z</time>
      </trkpt>
      <trkpt lat="44.93242" lon="6.75645">
        <ele>1956.6</ele>
        <time>2014-07-31T17:14:01.150Z</time>
      </trkpt>
      <trkpt lat="44.93244" lon="6.75646">
        <ele>1957</ele>
        <time>2014-07-31T17:14:02.250Z</time>
      </trkpt>
      <trkpt lat="44.93247" lon="6.75649">
        <ele>1957</ele>
        <time>2014-07-31T17:14:04.230Z</time>
      </trkpt>
      <trkpt lat="44.93249" lon="6.75651">
        <ele>1956</ele>
        <time>2014-07-31T17:14:06.150Z</time>
      </trkpt>
      <trkpt lat="44.93251" lon="6.75653">
        <ele>1956</ele>
        <time>2014-07-31T17:14:09.250Z</time>
      </trkpt>
      <trkpt lat="44.93254" lon="6.75658">
        <ele>1956</ele>
        <time>2014-07-31T17:14:11.150Z</time>
      </trkpt>
      <trkpt lat="44.93254" lon="6.75661">
        <ele>1956</ele>
        <time>2014-07-31T17:14:12.250Z</time>
      </trkpt>
      <trkpt lat="44.93258" lon="6.75669">
        <ele>1956</ele>
        <time>2014-07-31T17:14:14.250Z</time>
      </trkpt>
      <trkpt lat="44.93263" lon="6.75675">
        <ele>1952</ele>
        <time>2014-07-31T17:14:16.250Z</time>
      </trkpt>
      <trkpt lat="44.93266" lon="6.75675">
        <ele>1952</ele>
        <time>2014-07-31T17:14:18.150Z</time>
      </trkpt>
      <trkpt lat="44.93268" lon="6.75675">
        <ele>1952</ele>
        <time>2014-07-31T17:14:19.250Z</time>
      </trkpt>
      <trkpt lat="44.9327" lon="6.75675">
        <ele>1950</ele>
        <time>2014-07-31T17:14:21.250Z</time>
      </trkpt>
      <trkpt lat="44.93273" lon="6.75675">
        <ele>1950</ele>
        <time>2014-07-31T17:14:23.250Z</time>
      </trkpt>
      <trkpt lat="44.93278" lon="6.75672">
        <ele>1950</ele>
        <time>2014-07-31T17:14:25.220Z</time>
      </trkpt>
      <trkpt lat="44.93284" lon="6.7567">
        <ele>1950</ele>
        <time>2014-07-31T17:14:27.250Z</time>
      </trkpt>
      <trkpt lat="44.93293" lon="6.75677">
        <ele>1950</ele>
        <time>2014-07-31T17:14:29.250Z</time>
      </trkpt>
      <trkpt lat="44.93301" lon="6.75687">
        <ele>1950</ele>
        <time>2014-07-31T17:14:31.250Z</time>
      </trkpt>
      <trkpt lat="44.9331" lon="6.75697">
        <ele>1950</ele>
        <time>2014-07-31T17:14:33.250Z</time>
      </trkpt>
      <trkpt lat="44.93317" lon="6.75705">
        <ele>1947.1</ele>
        <time>2014-07-31T17:14:35.150Z</time>
      </trkpt>
      <trkpt lat="44.9333" lon="6.75717">
        <ele>1945</ele>
        <time>2014-07-31T17:14:37.250Z</time>
      </trkpt>
      <trkpt lat="44.93343" lon="6.75727">
        <ele>1945</ele>
        <time>2014-07-31T17:14:39.250Z</time>
      </trkpt>
      <trkpt lat="44.93355" lon="6.75734">
        <ele>1938</ele>
        <time>2014-07-31T17:14:41.250Z</time>
      </trkpt>
      <trkpt lat="44.93359" lon="6.75738">
        <ele>1938</ele>
        <time>2014-07-31T17:14:43.250Z</time>
      </trkpt>
      <trkpt lat="44.93351" lon="6.75741">
        <ele>1934.6</ele>
        <time>2014-07-31T17:14:45.250Z</time>
      </trkpt>
      <trkpt lat="44.93339" lon="6.75748">
        <ele>1930.3</ele>
        <time>2014-07-31T17:14:47.250Z</time>
      </trkpt>
      <trkpt lat="44.93326" lon="6.75759">
        <ele>1927.3</ele>
        <time>2014-07-31T17:14:49.250Z</time>
      </trkpt>
      <trkpt lat="44.93315" lon="6.7577">
        <ele>1925.4</ele>
        <time>2014-07-31T17:14:51.210Z</time>
      </trkpt>
      <trkpt lat="44.93306" lon="6.75779">
        <ele>1923.8</ele>
        <time>2014-07-31T17:14:53.150Z</time>
      </trkpt>
      <trkpt lat="44.93308" lon="6.75782">
        <ele>1923</ele>
        <time>2014-07-31T17:14:54.250Z</time>
      </trkpt>
      <trkpt lat="44.93315" lon="6.75785">
        <ele>1922.3</ele>
        <time>2014-07-31T17:14:56.250Z</time>
      </trkpt>
      <trkpt lat="44.93323" lon="6.75783">
        <ele>1921</ele>
        <time>2014-07-31T17:14:58.150Z</time>
      </trkpt>
      <trkpt lat="44.93328" lon="6.75782">
        <ele>1919.7</ele>
        <time>2014-07-31T17:14:59.220Z</time>
      </trkpt>
      <trkpt lat="44.93339" lon="6.75783">
        <ele>1917.8</ele>
        <time>2014-07-31T17:15:01.150Z</time>
      </trkpt>
      <trkpt lat="44.93346" lon="6.75783">
        <ele>1916.3</ele>
        <time>2014-07-31T17:15:02.250Z</time>
      </trkpt>
      <trkpt lat="44.93359" lon="6.75785">
        <ele>1915.4</ele>
        <time>2014-07-31T17:15:04.250Z</time>
      </trkpt>
      <trkpt lat="44.93373" lon="6.7579">
        <ele>1913.4</ele>
        <time>2014-07-31T17:15:06.150Z</time>
      </trkpt>
      <trkpt lat="44.93378" lon="6.75791">
        <ele>1912.3</ele>
        <time>2014-07-31T17:15:07.250Z</time>
      </trkpt>
      <trkpt lat="44.93388" lon="6.75785">
        <ele>1910.3</ele>
        <time>2014-07-31T17:15:09.250Z</time>
      </trkpt>
      <trkpt lat="44.93396" lon="6.75775">
        <ele>1907</ele>
        <time>2014-07-31T17:15:11.250Z</time>
      </trkpt>
      <trkpt lat="44.93404" lon="6.75767">
        <ele>1904.3</ele>
        <time>2014-07-31T17:15:13.250Z</time>
      </trkpt>
      <trkpt lat="44.93411" lon="6.75762">
        <ele>1901.6</ele>
        <time>2014-07-31T17:15:15.250Z</time>
      </trkpt>
      <trkpt lat="44.93419" lon="6.75755">
        <ele>1900.5</ele>
        <time>2014-07-31T17:15:17.110Z</time>
      </trkpt>
      <trkpt lat="44.93423" lon="6.7575">
        <ele>1898.6</ele>
        <time>2014-07-31T17:15:18.250Z</time>
      </trkpt>
      <trkpt lat="44.93431" lon="6.75742">
        <ele>1898</ele>
        <time>2014-07-31T17:15:20.250Z</time>
      </trkpt>
      <trkpt lat="44.93437" lon="6.7573">
        <ele>1895.4</ele>
        <time>2014-07-31T17:15:22.150Z</time>
      </trkpt>
      <trkpt lat="44.93442" lon="6.75724">
        <ele>1895</ele>
        <time>2014-07-31T17:15:23.380Z</time>
      </trkpt>
      <trkpt lat="44.93451" lon="6.75715">
        <ele>1894.3</ele>
        <time>2014-07-31T17:15:25.250Z</time>
      </trkpt>
      <trkpt lat="44.93461" lon="6.75706">
        <ele>1891</ele>
        <time>2014-07-31T17:15:27.250Z</time>
      </trkpt>
      <trkpt lat="44.93471" lon="6.75696">
        <ele>1888.3</ele>
        <time>2014-07-31T17:15:29.250Z</time>
      </trkpt>
      <trkpt lat="44.93479" lon="6.75688">
        <ele>1888</ele>
        <time>2014-07-31T17:15:31.250Z</time>
      </trkpt>
      <trkpt lat="44.93484" lon="6.75678">
        <ele>1887</ele>
        <time>2014-07-31T17:15:33.050Z</time>
      </trkpt>
      <trkpt lat="44.93484" lon="6.75671">
        <ele>1886.4</ele>
        <time>2014-07-31T17:15:34.190Z</time>
      </trkpt>
      <trkpt lat="44.93485" lon="6.75664">
        <ele>1885.3</ele>
        <time>2014-07-31T17:15:35.250Z</time>
      </trkpt>
      <trkpt lat="44.93489" lon="6.75647">
        <ele>1885</ele>
        <time>2014-07-31T17:15:37.250Z</time>
      </trkpt>
      <trkpt lat="44.93493" lon="6.7563">
        <ele>1885</ele>
        <time>2014-07-31T17:15:39.140Z</time>
      </trkpt>
      <trkpt lat="44.93493" lon="6.75623">
        <ele>1884.3</ele>
        <time>2014-07-31T17:15:40.250Z</time>
      </trkpt>
      <trkpt lat="44.93495" lon="6.75609">
        <ele>1885</ele>
        <time>2014-07-31T17:15:42.250Z</time>
      </trkpt>
      <trkpt lat="44.93496" lon="6.75596">
        <ele>1885</ele>
        <time>2014-07-31T17:15:44.250Z</time>
      </trkpt>
      <trkpt lat="44.93498" lon="6.75582">
        <ele>1884</ele>
        <time>2014-07-31T17:15:46.250Z</time>
      </trkpt>
      <trkpt lat="44.93502" lon="6.75568">
        <ele>1884</ele>
        <time>2014-07-31T17:15:48.250Z</time>
      </trkpt>
      <trkpt lat="44.93508" lon="6.75554">
        <ele>1884</ele>
        <time>2014-07-31T17:15:50.220Z</time>
      </trkpt>
      <trkpt lat="44.9352" lon="6.7554">
        <ele>1884</ele>
        <time>2014-07-31T17:15:52.250Z</time>
      </trkpt>
      <trkpt lat="44.9353" lon="6.75529">
        <ele>1884</ele>
        <time>2014-07-31T17:15:54.250Z</time>
      </trkpt>
      <trkpt lat="44.93536" lon="6.75517">
        <ele>1875.7</ele>
        <time>2014-07-31T17:15:56.150Z</time>
      </trkpt>
      <trkpt lat="44.93536" lon="6.75511">
        <ele>1874</ele>
        <time>2014-07-31T17:15:57.250Z</time>
      </trkpt>
      <trkpt lat="44.93539" lon="6.755">
        <ele>1872.4</ele>
        <time>2014-07-31T17:15:59.380Z</time>
      </trkpt>
      <trkpt lat="44.93545" lon="6.75492">
        <ele>1869.3</ele>
        <time>2014-07-31T17:16:01.250Z</time>
      </trkpt>
      <trkpt lat="44.93553" lon="6.75485">
        <ele>1866.3</ele>
        <time>2014-07-31T17:16:03.250Z</time>
      </trkpt>
      <trkpt lat="44.93559" lon="6.75479">
        <ele>1864.3</ele>
        <time>2014-07-31T17:16:05.250Z</time>
      </trkpt>
      <trkpt lat="44.93564" lon="6.75472">
        <ele>1863.6</ele>
        <time>2014-07-31T17:16:07.220Z</time>
      </trkpt>
      <trkpt lat="44.93566" lon="6.75467">
        <ele>1864</ele>
        <time>2014-07-31T17:16:09.150Z</time>
      </trkpt>
      <trkpt lat="44.93568" lon="6.75467">
        <ele>1864</ele>
        <time>2014-07-31T17:16:14.230Z</time>
      </trkpt>
      <trkpt lat="44.93568" lon="6.75466">
        <ele>1865</ele>
        <time>2014-07-31T17:16:22.250Z</time>
      </trkpt>
      <trkpt lat="44.93568" lon="6.75464">
        <ele>1865</ele>
        <time>2014-07-31T17:16:24.050Z</time>
      </trkpt>
      <trkpt lat="44.93568" lon="6.75463">
        <ele>1865</ele>
        <time>2014-07-31T17:16:25.250Z</time>
      </trkpt>
      <trkpt lat="44.93568" lon="6.75461">
        <ele>1865</ele>
        <time>2014-07-31T17:16:27.230Z</time>
      </trkpt>
      <trkpt lat="44.93567" lon="6.75459">
        <ele>1865</ele>
        <time>2014-07-31T17:16:29.250Z</time>
      </trkpt>
      <trkpt lat="44.93567" lon="6.75457">
        <ele>1865</ele>
        <time>2014-07-31T17:16:31.250Z</time>
      </trkpt>
      <trkpt lat="44.93566" lon="6.75456">
        <ele>1865</ele>
        <time>2014-07-31T17:16:33.150Z</time>
      </trkpt>
      <trkpt lat="44.93566" lon="6.75452">
        <ele>1867</ele>
        <time>2014-07-31T17:16:36.250Z</time>
      </trkpt>
      <trkpt lat="44.93566" lon="6.75449">
        <ele>1867</ele>
        <time>2014-07-31T17:16:38.150Z</time>
      </trkpt>
      <trkpt lat="44.93566" lon="6.75448">
        <ele>1867</ele>
        <time>2014-07-31T17:16:39.250Z</time>
      </trkpt>
      <trkpt lat="44.93565" lon="6.75445">
        <ele>1867</ele>
        <time>2014-07-31T17:16:41.220Z</time>
      </trkpt>
      <trkpt lat="44.93565" lon="6.75444">
        <ele>1867</ele>
        <time>2014-07-31T17:16:43.250Z</time>
      </trkpt>
      <trkpt lat="44.93565" lon="6.75441">
        <ele>1868.4</ele>
        <time>2014-07-31T17:16:45.250Z</time>
      </trkpt>
      <trkpt lat="44.93564" lon="6.7544">
        <ele>1869</ele>
        <time>2014-07-31T17:16:47.250Z</time>
      </trkpt>
      <trkpt lat="44.93564" lon="6.75438">
        <ele>1869</ele>
        <time>2014-07-31T17:16:49.250Z</time>
      </trkpt>
      <trkpt lat="44.93564" lon="6.75436">
        <ele>1869</ele>
        <time>2014-07-31T17:16:58.220Z</time>
      </trkpt>
      <trkpt lat="44.93562" lon="6.75433">
        <ele>1869</ele>
        <time>2014-07-31T17:17:00.210Z</time>
      </trkpt>
      <trkpt lat="44.93561" lon="6.75427">
        <ele>1869</ele>
        <time>2014-07-31T17:17:02.250Z</time>
      </trkpt>
      <trkpt lat="44.93559" lon="6.75419">
        <ele>1869</ele>
        <time>2014-07-31T17:17:04.200Z</time>
      </trkpt>
      <trkpt lat="44.93558" lon="6.75414">
        <ele>1867</ele>
        <time>2014-07-31T17:17:05.250Z</time>
      </trkpt>
      <trkpt lat="44.93555" lon="6.75401">
        <ele>1866</ele>
        <time>2014-07-31T17:17:07.250Z</time>
      </trkpt>
      <trkpt lat="44.9355" lon="6.75387">
        <ele>1866</ele>
        <time>2014-07-31T17:17:09.150Z</time>
      </trkpt>
      <trkpt lat="44.93547" lon="6.75381">
        <ele>1863.3</ele>
        <time>2014-07-31T17:17:10.250Z</time>
      </trkpt>
      <trkpt lat="44.93543" lon="6.75367">
        <ele>1862</ele>
        <time>2014-07-31T17:17:12.250Z</time>
      </trkpt>
      <trkpt lat="44.9354" lon="6.75353">
        <ele>1862</ele>
        <time>2014-07-31T17:17:14.250Z</time>
      </trkpt>
      <trkpt lat="44.93538" lon="6.75344">
        <ele>1855.7</ele>
        <time>2014-07-31T17:17:16.250Z</time>
      </trkpt>
      <trkpt lat="44.93538" lon="6.75339">
        <ele>1854.2</ele>
        <time>2014-07-31T17:17:18.380Z</time>
      </trkpt>
      <trkpt lat="44.9354" lon="6.75336">
        <ele>1855</ele>
        <time>2014-07-31T17:17:20.250Z</time>
      </trkpt>
      <trkpt lat="44.9354" lon="6.75332">
        <ele>1854.4</ele>
        <time>2014-07-31T17:17:22.150Z</time>
      </trkpt>
      <trkpt lat="44.93539" lon="6.7533">
        <ele>1854</ele>
        <time>2014-07-31T17:17:23.250Z</time>
      </trkpt>
      <trkpt lat="44.93536" lon="6.75326">
        <ele>1854</ele>
        <time>2014-07-31T17:17:25.250Z</time>
      </trkpt>
      <trkpt lat="44.93531" lon="6.75323">
        <ele>1854</ele>
        <time>2014-07-31T17:17:27.250Z</time>
      </trkpt>
      <trkpt lat="44.93527" lon="6.75318">
        <ele>1854</ele>
        <time>2014-07-31T17:17:29.250Z</time>
      </trkpt>
      <trkpt lat="44.93522" lon="6.75309">
        <ele>1854</ele>
        <time>2014-07-31T17:17:31.150Z</time>
      </trkpt>
      <trkpt lat="44.93519" lon="6.75304">
        <ele>1854</ele>
        <time>2014-07-31T17:17:32.220Z</time>
      </trkpt>
      <trkpt lat="44.93515" lon="6.75295">
        <ele>1854</ele>
        <time>2014-07-31T17:17:34.210Z</time>
      </trkpt>
      <trkpt lat="44.93508" lon="6.75284">
        <ele>1853</ele>
        <time>2014-07-31T17:17:36.250Z</time>
      </trkpt>
      <trkpt lat="44.935" lon="6.75269">
        <ele>1853</ele>
        <time>2014-07-31T17:17:38.250Z</time>
      </trkpt>
      <trkpt lat="44.93494" lon="6.75254">
        <ele>1853</ele>
        <time>2014-07-31T17:17:40.250Z</time>
      </trkpt>
      <trkpt lat="44.93493" lon="6.75241">
        <ele>1853</ele>
        <time>2014-07-31T17:17:42.250Z</time>
      </trkpt>
      <trkpt lat="44.93491" lon="6.75233">
        <ele>1853</ele>
        <time>2014-07-31T17:17:44.150Z</time>
      </trkpt>
      <trkpt lat="44.93491" lon="6.75229">
        <ele>1849.6</ele>
        <time>2014-07-31T17:17:45.250Z</time>
      </trkpt>
      <trkpt lat="44.93494" lon="6.75227">
        <ele>1848</ele>
        <time>2014-07-31T17:17:47.250Z</time>
      </trkpt>
      <trkpt lat="44.93494" lon="6.75223">
        <ele>1848</ele>
        <time>2014-07-31T17:17:49.220Z</time>
      </trkpt>
      <trkpt lat="44.93494" lon="6.75213">
        <ele>1843</ele>
        <time>2014-07-31T17:17:51.210Z</time>
      </trkpt>
      <trkpt lat="44.93492" lon="6.75205">
        <ele>1843</ele>
        <time>2014-07-31T17:17:53.250Z</time>
      </trkpt>
      <trkpt lat="44.9349" lon="6.75199">
        <ele>1841.6</ele>
        <time>2014-07-31T17:17:55.250Z</time>
      </trkpt>
      <trkpt lat="44.93488" lon="6.75191">
        <ele>1839.3</ele>
        <time>2014-07-31T17:17:57.250Z</time>
      </trkpt>
      <trkpt lat="44.93485" lon="6.75186">
        <ele>1839</ele>
        <time>2014-07-31T17:17:59.250Z</time>
      </trkpt>
      <trkpt lat="44.93483" lon="6.75182">
        <ele>1838.3</ele>
        <time>2014-07-31T17:18:01.250Z</time>
      </trkpt>
      <trkpt lat="44.93481" lon="6.75177">
        <ele>1839</ele>
        <time>2014-07-31T17:18:03.250Z</time>
      </trkpt>
      <trkpt lat="44.9348" lon="6.75171">
        <ele>1838.3</ele>
        <time>2014-07-31T17:18:05.250Z</time>
      </trkpt>
      <trkpt lat="44.93481" lon="6.75163">
        <ele>1838</ele>
        <time>2014-07-31T17:18:07.250Z</time>
      </trkpt>
      <trkpt lat="44.93485" lon="6.75156">
        <ele>1838</ele>
        <time>2014-07-31T17:18:09.150Z</time>
      </trkpt>
      <trkpt lat="44.93485" lon="6.75151">
        <ele>1836</ele>
        <time>2014-07-31T17:18:10.250Z</time>
      </trkpt>
      <trkpt lat="44.93486" lon="6.75145">
        <ele>1835</ele>
        <time>2014-07-31T17:18:12.250Z</time>
      </trkpt>
      <trkpt lat="44.9349" lon="6.75148">
        <ele>1835</ele>
        <time>2014-07-31T17:18:14.230Z</time>
      </trkpt>
      <trkpt lat="44.93494" lon="6.75152">
        <ele>1833</ele>
        <time>2014-07-31T17:18:15.250Z</time>
      </trkpt>
      <trkpt lat="44.93502" lon="6.75159">
        <ele>1829.5</ele>
        <time>2014-07-31T17:18:17.050Z</time>
      </trkpt>
      <trkpt lat="44.93506" lon="6.75163">
        <ele>1829</ele>
        <time>2014-07-31T17:18:18.250Z</time>
      </trkpt>
      <trkpt lat="44.93513" lon="6.75169">
        <ele>1829</ele>
        <time>2014-07-31T17:18:20.250Z</time>
      </trkpt>
      <trkpt lat="44.93521" lon="6.75171">
        <ele>1829</ele>
        <time>2014-07-31T17:18:22.150Z</time>
      </trkpt>
      <trkpt lat="44.9352" lon="6.75173">
        <ele>1829</ele>
        <time>2014-07-31T17:18:28.250Z</time>
      </trkpt>
      <trkpt lat="44.93519" lon="6.75173">
        <ele>1829</ele>
        <time>2014-07-31T17:18:32.250Z</time>
      </trkpt>
      <trkpt lat="44.93518" lon="6.75172">
        <ele>1829</ele>
        <time>2014-07-31T17:18:34.210Z</time>
      </trkpt>
      <trkpt lat="44.93515" lon="6.7517">
        <ele>1830</ele>
        <time>2014-07-31T17:18:36.250Z</time>
      </trkpt>
      <trkpt lat="44.93513" lon="6.75169">
        <ele>1830</ele>
        <time>2014-07-31T17:18:40.220Z</time>
      </trkpt>
      <trkpt lat="44.93513" lon="6.75171">
        <ele>1830</ele>
        <time>2014-07-31T17:18:42.150Z</time>
      </trkpt>
      <trkpt lat="44.93517" lon="6.75175">
        <ele>1830</ele>
        <time>2014-07-31T17:18:51.210Z</time>
      </trkpt>
      <trkpt lat="44.93522" lon="6.75175">
        <ele>1830</ele>
        <time>2014-07-31T17:18:53.250Z</time>
      </trkpt>
      <trkpt lat="44.93522" lon="6.75168">
        <ele>1828.8</ele>
        <time>2014-07-31T17:18:55.150Z</time>
      </trkpt>
      <trkpt lat="44.93522" lon="6.75164">
        <ele>1828</ele>
        <time>2014-07-31T17:18:56.250Z</time>
      </trkpt>
      <trkpt lat="44.9352" lon="6.75156">
        <ele>1828</ele>
        <time>2014-07-31T17:18:58.250Z</time>
      </trkpt>
      <trkpt lat="44.93517" lon="6.75148">
        <ele>1828</ele>
        <time>2014-07-31T17:19:00.210Z</time>
      </trkpt>
      <trkpt lat="44.93514" lon="6.75143">
        <ele>1828</ele>
        <time>2014-07-31T17:19:02.150Z</time>
      </trkpt>
      <trkpt lat="44.93513" lon="6.75139">
        <ele>1828</ele>
        <time>2014-07-31T17:19:03.250Z</time>
      </trkpt>
      <trkpt lat="44.93512" lon="6.75134">
        <ele>1826</ele>
        <time>2014-07-31T17:19:05.250Z</time>
      </trkpt>
      <trkpt lat="44.93511" lon="6.7513">
        <ele>1825</ele>
        <time>2014-07-31T17:19:07.230Z</time>
      </trkpt>
      <trkpt lat="44.93509" lon="6.75125">
        <ele>1825</ele>
        <time>2014-07-31T17:19:09.380Z</time>
      </trkpt>
      <trkpt lat="44.93507" lon="6.75107">
        <ele>1825</ele>
        <time>2014-07-31T17:19:11.250Z</time>
      </trkpt>
      <trkpt lat="44.93503" lon="6.75098">
        <ele>1825</ele>
        <time>2014-07-31T17:19:13.250Z</time>
      </trkpt>
      <trkpt lat="44.93506" lon="6.751">
        <ele>1823.6</ele>
        <time>2014-07-31T17:19:15.250Z</time>
      </trkpt>
      <trkpt lat="44.93515" lon="6.75105">
        <ele>1823</ele>
        <time>2014-07-31T17:19:17.210Z</time>
      </trkpt>
      <trkpt lat="44.93526" lon="6.75108">
        <ele>1823</ele>
        <time>2014-07-31T17:19:19.150Z</time>
      </trkpt>
      <trkpt lat="44.93531" lon="6.75106">
        <ele>1823</ele>
        <time>2014-07-31T17:19:20.250Z</time>
      </trkpt>
      <trkpt lat="44.93531" lon="6.75098">
        <ele>1823</ele>
        <time>2014-07-31T17:19:22.250Z</time>
      </trkpt>
      <trkpt lat="44.93529" lon="6.75085">
        <ele>1823</ele>
        <time>2014-07-31T17:19:24.250Z</time>
      </trkpt>
      <trkpt lat="44.93523" lon="6.75064">
        <ele>1815</ele>
        <time>2014-07-31T17:19:26.250Z</time>
      </trkpt>
      <trkpt lat="44.93516" lon="6.75044">
        <ele>1811.4</ele>
        <time>2014-07-31T17:19:28.150Z</time>
      </trkpt>
      <trkpt lat="44.93513" lon="6.75037">
        <ele>1810.3</ele>
        <time>2014-07-31T17:19:29.250Z</time>
      </trkpt>
      <trkpt lat="44.93505" lon="6.75022">
        <ele>1809.4</ele>
        <time>2014-07-31T17:19:31.220Z</time>
      </trkpt>
      <trkpt lat="44.93498" lon="6.75001">
        <ele>1807.3</ele>
        <time>2014-07-31T17:19:33.250Z</time>
      </trkpt>
      <trkpt lat="44.9349" lon="6.74978">
        <ele>1804.6</ele>
        <time>2014-07-31T17:19:35.250Z</time>
      </trkpt>
      <trkpt lat="44.93482" lon="6.74962">
        <ele>1803.7</ele>
        <time>2014-07-31T17:19:37.280Z</time>
      </trkpt>
      <trkpt lat="44.93478" lon="6.74954">
        <ele>1804</ele>
        <time>2014-07-31T17:19:38.250Z</time>
      </trkpt>
      <trkpt lat="44.93473" lon="6.74939">
        <ele>1803.3</ele>
        <time>2014-07-31T17:19:40.250Z</time>
      </trkpt>
      <trkpt lat="44.93466" lon="6.74923">
        <ele>1801.3</ele>
        <time>2014-07-31T17:19:42.230Z</time>
      </trkpt>
      <trkpt lat="44.9346" lon="6.74907">
        <ele>1800.3</ele>
        <time>2014-07-31T17:19:44.250Z</time>
      </trkpt>
      <trkpt lat="44.93454" lon="6.74891">
        <ele>1800</ele>
        <time>2014-07-31T17:19:46.250Z</time>
      </trkpt>
      <trkpt lat="44.93447" lon="6.74873">
        <ele>1800</ele>
        <time>2014-07-31T17:19:48.110Z</time>
      </trkpt>
      <trkpt lat="44.93444" lon="6.74865">
        <ele>1800</ele>
        <time>2014-07-31T17:19:49.250Z</time>
      </trkpt>
      <trkpt lat="44.93442" lon="6.74847">
        <ele>1798</ele>
        <time>2014-07-31T17:19:51.210Z</time>
      </trkpt>
      <trkpt lat="44.93438" lon="6.74829">
        <ele>1798</ele>
        <time>2014-07-31T17:19:53.140Z</time>
      </trkpt>
      <trkpt lat="44.93436" lon="6.74822">
        <ele>1798</ele>
        <time>2014-07-31T17:19:54.250Z</time>
      </trkpt>
      <trkpt lat="44.93429" lon="6.7481">
        <ele>1797</ele>
        <time>2014-07-31T17:19:56.150Z</time>
      </trkpt>
      <trkpt lat="44.93426" lon="6.74806">
        <ele>1797</ele>
        <time>2014-07-31T17:19:57.250Z</time>
      </trkpt>
      <trkpt lat="44.93422" lon="6.74797">
        <ele>1797</ele>
        <time>2014-07-31T17:19:59.250Z</time>
      </trkpt>
      <trkpt lat="44.93417" lon="6.74787">
        <ele>1796</ele>
        <time>2014-07-31T17:20:01.250Z</time>
      </trkpt>
      <trkpt lat="44.93414" lon="6.74776">
        <ele>1796</ele>
        <time>2014-07-31T17:20:03.250Z</time>
      </trkpt>
      <trkpt lat="44.93413" lon="6.74766">
        <ele>1795.4</ele>
        <time>2014-07-31T17:20:05.150Z</time>
      </trkpt>
      <trkpt lat="44.9341" lon="6.74757">
        <ele>1795</ele>
        <time>2014-07-31T17:20:07.250Z</time>
      </trkpt>
      <trkpt lat="44.93407" lon="6.74749">
        <ele>1795</ele>
        <time>2014-07-31T17:20:09.150Z</time>
      </trkpt>
      <trkpt lat="44.93406" lon="6.74742">
        <ele>1795</ele>
        <time>2014-07-31T17:20:10.250Z</time>
      </trkpt>
      <trkpt lat="44.93406" lon="6.74738">
        <ele>1795</ele>
        <time>2014-07-31T17:20:12.250Z</time>
      </trkpt>
      <trkpt lat="44.93408" lon="6.74734">
        <ele>1795</ele>
        <time>2014-07-31T17:20:14.250Z</time>
      </trkpt>
      <trkpt lat="44.93406" lon="6.74729">
        <ele>1793</ele>
        <time>2014-07-31T17:20:16.250Z</time>
      </trkpt>
      <trkpt lat="44.93403" lon="6.74724">
        <ele>1793</ele>
        <time>2014-07-31T17:20:18.250Z</time>
      </trkpt>
      <trkpt lat="44.93402" lon="6.74719">
        <ele>1793</ele>
        <time>2014-07-31T17:20:20.250Z</time>
      </trkpt>
      <trkpt lat="44.93399" lon="6.74712">
        <ele>1793</ele>
        <time>2014-07-31T17:20:22.220Z</time>
      </trkpt>
      <trkpt lat="44.93401" lon="6.74708">
        <ele>1793</ele>
        <time>2014-07-31T17:20:24.250Z</time>
      </trkpt>
      <trkpt lat="44.934" lon="6.74706">
        <ele>1792</ele>
        <time>2014-07-31T17:20:27.250Z</time>
      </trkpt>
      <trkpt lat="44.93399" lon="6.74705">
        <ele>1792</ele>
        <time>2014-07-31T17:20:29.250Z</time>
      </trkpt>
      <trkpt lat="44.934" lon="6.74705">
        <ele>1792</ele>
        <time>2014-07-31T17:20:31.250Z</time>
      </trkpt>
      <trkpt lat="44.93402" lon="6.74706">
        <ele>1792</ele>
        <time>2014-07-31T17:20:33.250Z</time>
      </trkpt>
      <trkpt lat="44.93403" lon="6.74707">
        <ele>1791.3</ele>
        <time>2014-07-31T17:20:35.250Z</time>
      </trkpt>
      <trkpt lat="44.93405" lon="6.74712">
        <ele>1791</ele>
        <time>2014-07-31T17:20:37.250Z</time>
      </trkpt>
      <trkpt lat="44.93409" lon="6.74719">
        <ele>1791</ele>
        <time>2014-07-31T17:20:39.210Z</time>
      </trkpt>
      <trkpt lat="44.93416" lon="6.74727">
        <ele>1791</ele>
        <time>2014-07-31T17:20:41.240Z</time>
      </trkpt>
      <trkpt lat="44.93422" lon="6.74738">
        <ele>1791</ele>
        <time>2014-07-31T17:20:43.250Z</time>
      </trkpt>
      <trkpt lat="44.9343" lon="6.7475">
        <ele>1790.3</ele>
        <time>2014-07-31T17:20:45.250Z</time>
      </trkpt>
      <trkpt lat="44.93439" lon="6.74761">
        <ele>1790</ele>
        <time>2014-07-31T17:20:47.250Z</time>
      </trkpt>
      <trkpt lat="44.9345" lon="6.74772">
        <ele>1790</ele>
        <time>2014-07-31T17:20:49.250Z</time>
      </trkpt>
      <trkpt lat="44.93462" lon="6.74784">
        <ele>1790</ele>
        <time>2014-07-31T17:20:51.210Z</time>
      </trkpt>
      <trkpt lat="44.93478" lon="6.74796">
        <ele>1790</ele>
        <time>2014-07-31T17:20:53.240Z</time>
      </trkpt>
      <trkpt lat="44.9349" lon="6.74812">
        <ele>1785.9</ele>
        <time>2014-07-31T17:20:55.250Z</time>
      </trkpt>
      <trkpt lat="44.93503" lon="6.7483">
        <ele>1779.3</ele>
        <time>2014-07-31T17:20:57.250Z</time>
      </trkpt>
      <trkpt lat="44.93517" lon="6.74845">
        <ele>1777.4</ele>
        <time>2014-07-31T17:20:59.250Z</time>
      </trkpt>
      <trkpt lat="44.9353" lon="6.7486">
        <ele>1775.3</ele>
        <time>2014-07-31T17:21:01.250Z</time>
      </trkpt>
      <trkpt lat="44.9354" lon="6.74877">
        <ele>1774</ele>
        <time>2014-07-31T17:21:03.140Z</time>
      </trkpt>
      <trkpt lat="44.93545" lon="6.74886">
        <ele>1773.3</ele>
        <time>2014-07-31T17:21:04.250Z</time>
      </trkpt>
      <trkpt lat="44.93555" lon="6.74897">
        <ele>1772.3</ele>
        <time>2014-07-31T17:21:06.250Z</time>
      </trkpt>
      <trkpt lat="44.93565" lon="6.7491">
        <ele>1770.3</ele>
        <time>2014-07-31T17:21:08.250Z</time>
      </trkpt>
      <trkpt lat="44.93574" lon="6.74927">
        <ele>1768.3</ele>
        <time>2014-07-31T17:21:10.250Z</time>
      </trkpt>
      <trkpt lat="44.93583" lon="6.74942">
        <ele>1765.6</ele>
        <time>2014-07-31T17:21:12.250Z</time>
      </trkpt>
      <trkpt lat="44.93596" lon="6.74953">
        <ele>1763.3</ele>
        <time>2014-07-31T17:21:14.250Z</time>
      </trkpt>
      <trkpt lat="44.9361" lon="6.74963">
        <ele>1761.3</ele>
        <time>2014-07-31T17:21:16.250Z</time>
      </trkpt>
      <trkpt lat="44.93627" lon="6.74968">
        <ele>1760.3</ele>
        <time>2014-07-31T17:21:18.250Z</time>
      </trkpt>
      <trkpt lat="44.9364" lon="6.74976">
        <ele>1758.7</ele>
        <time>2014-07-31T17:21:20.250Z</time>
      </trkpt>
      <trkpt lat="44.9365" lon="6.74988">
        <ele>1758</ele>
        <time>2014-07-31T17:21:22.150Z</time>
      </trkpt>
      <trkpt lat="44.93652" lon="6.74993">
        <ele>1756.6</ele>
        <time>2014-07-31T17:21:23.250Z</time>
      </trkpt>
      <trkpt lat="44.93658" lon="6.74998">
        <ele>1754.3</ele>
        <time>2014-07-31T17:21:25.250Z</time>
      </trkpt>
      <trkpt lat="44.93668" lon="6.75">
        <ele>1752.3</ele>
        <time>2014-07-31T17:21:27.250Z</time>
      </trkpt>
      <trkpt lat="44.93675" lon="6.75003">
        <ele>1748.4</ele>
        <time>2014-07-31T17:21:29.250Z</time>
      </trkpt>
      <trkpt lat="44.93683" lon="6.75009">
        <ele>1745.6</ele>
        <time>2014-07-31T17:21:31.250Z</time>
      </trkpt>
      <trkpt lat="44.93696" lon="6.75025">
        <ele>1742.6</ele>
        <time>2014-07-31T17:21:33.250Z</time>
      </trkpt>
      <trkpt lat="44.93705" lon="6.75043">
        <ele>1741</ele>
        <time>2014-07-31T17:21:35.250Z</time>
      </trkpt>
      <trkpt lat="44.93708" lon="6.75051">
        <ele>1740.2</ele>
        <time>2014-07-31T17:21:37.380Z</time>
      </trkpt>
      <trkpt lat="44.93711" lon="6.75054">
        <ele>1740</ele>
        <time>2014-07-31T17:21:39.150Z</time>
      </trkpt>
      <trkpt lat="44.93712" lon="6.75055">
        <ele>1740</ele>
        <time>2014-07-31T17:21:40.250Z</time>
      </trkpt>
      <trkpt lat="44.93713" lon="6.75057">
        <ele>1739</ele>
        <time>2014-07-31T17:21:42.250Z</time>
      </trkpt>
      <trkpt lat="44.93713" lon="6.75055">
        <ele>1738.4</ele>
        <time>2014-07-31T17:21:44.150Z</time>
      </trkpt>
      <trkpt lat="44.93712" lon="6.75056">
        <ele>1738</ele>
        <time>2014-07-31T17:21:50.250Z</time>
      </trkpt>
      <trkpt lat="44.93711" lon="6.75053">
        <ele>1738</ele>
        <time>2014-07-31T17:21:52.150Z</time>
      </trkpt>
      <trkpt lat="44.93711" lon="6.75049">
        <ele>1738</ele>
        <time>2014-07-31T17:21:55.250Z</time>
      </trkpt>
      <trkpt lat="44.93712" lon="6.75047">
        <ele>1738</ele>
        <time>2014-07-31T17:21:57.250Z</time>
      </trkpt>
      <trkpt lat="44.93714" lon="6.75044">
        <ele>1738</ele>
        <time>2014-07-31T17:21:59.250Z</time>
      </trkpt>
      <trkpt lat="44.93715" lon="6.75042">
        <ele>1738</ele>
        <time>2014-07-31T17:22:01.250Z</time>
      </trkpt>
      <trkpt lat="44.93716" lon="6.75042">
        <ele>1738</ele>
        <time>2014-07-31T17:22:03.250Z</time>
      </trkpt>
      <trkpt lat="44.93717" lon="6.75043">
        <ele>1738</ele>
        <time>2014-07-31T17:22:05.250Z</time>
      </trkpt>
      <trkpt lat="44.9372" lon="6.75043">
        <ele>1738</ele>
        <time>2014-07-31T17:22:07.250Z</time>
      </trkpt>
      <trkpt lat="44.93723" lon="6.75045">
        <ele>1738</ele>
        <time>2014-07-31T17:22:09.250Z</time>
      </trkpt>
      <trkpt lat="44.93725" lon="6.7505">
        <ele>1738</ele>
        <time>2014-07-31T17:22:11.250Z</time>
      </trkpt>
      <trkpt lat="44.93725" lon="6.75055">
        <ele>1738</ele>
        <time>2014-07-31T17:22:13.250Z</time>
      </trkpt>
      <trkpt lat="44.93727" lon="6.75058">
        <ele>1738</ele>
        <time>2014-07-31T17:22:15.380Z</time>
      </trkpt>
      <trkpt lat="44.93728" lon="6.75057">
        <ele>1738</ele>
        <time>2014-07-31T17:22:17.210Z</time>
      </trkpt>
      <trkpt lat="44.93727" lon="6.75058">
        <ele>1738</ele>
        <time>2014-07-31T17:22:19.250Z</time>
      </trkpt>
      <trkpt lat="44.93728" lon="6.75056">
        <ele>1738</ele>
        <time>2014-07-31T17:22:24.250Z</time>
      </trkpt>
      <trkpt lat="44.93728" lon="6.75055">
        <ele>1738</ele>
        <time>2014-07-31T17:22:26.250Z</time>
      </trkpt>
      <trkpt lat="44.93728" lon="6.75054">
        <ele>1738</ele>
        <time>2014-07-31T17:22:28.250Z</time>
      </trkpt>
      <trkpt lat="44.93728" lon="6.75052">
        <ele>1738</ele>
        <time>2014-07-31T17:22:30.250Z</time>
      </trkpt>
      <trkpt lat="44.93728" lon="6.75051">
        <ele>1738</ele>
        <time>2014-07-31T17:22:32.250Z</time>
      </trkpt>
      <trkpt lat="44.93729" lon="6.75049">
        <ele>1738</ele>
        <time>2014-07-31T17:22:34.110Z</time>
      </trkpt>
      <trkpt lat="44.93729" lon="6.75047">
        <ele>1738</ele>
        <time>2014-07-31T17:22:37.250Z</time>
      </trkpt>
      <trkpt lat="44.93729" lon="6.75045">
        <ele>1738</ele>
        <time>2014-07-31T17:22:40.250Z</time>
      </trkpt>
      <trkpt lat="44.93728" lon="6.75046">
        <ele>1738</ele>
        <time>2014-07-31T17:22:43.250Z</time>
      </trkpt>
      <trkpt lat="44.93728" lon="6.75045">
        <ele>1738</ele>
        <time>2014-07-31T17:23:00.110Z</time>
      </trkpt>
      <trkpt lat="44.93728" lon="6.75043">
        <ele>1739</ele>
        <time>2014-07-31T17:23:10.250Z</time>
      </trkpt>
      <trkpt lat="44.93729" lon="6.75043">
        <ele>1739</ele>
        <time>2014-07-31T17:23:12.220Z</time>
      </trkpt>
      <trkpt lat="44.9373" lon="6.75046">
        <ele>1739</ele>
        <time>2014-07-31T17:23:15.250Z</time>
      </trkpt>
      <trkpt lat="44.93729" lon="6.75048">
        <ele>1739</ele>
        <time>2014-07-31T17:23:17.210Z</time>
      </trkpt>
      <trkpt lat="44.93728" lon="6.7505">
        <ele>1739</ele>
        <time>2014-07-31T17:23:19.150Z</time>
      </trkpt>
      <trkpt lat="44.93726" lon="6.75051">
        <ele>1739</ele>
        <time>2014-07-31T17:23:20.250Z</time>
      </trkpt>
      <trkpt lat="44.93724" lon="6.75051">
        <ele>1739</ele>
        <time>2014-07-31T17:23:22.250Z</time>
      </trkpt>
      <trkpt lat="44.93722" lon="6.7505">
        <ele>1739</ele>
        <time>2014-07-31T17:23:24.250Z</time>
      </trkpt>
      <trkpt lat="44.9372" lon="6.75049">
        <ele>1738</ele>
        <time>2014-07-31T17:23:26.250Z</time>
      </trkpt>
      <trkpt lat="44.93719" lon="6.75048">
        <ele>1738</ele>
        <time>2014-07-31T17:23:29.220Z</time>
      </trkpt>
      <trkpt lat="44.93717" lon="6.75047">
        <ele>1738</ele>
        <time>2014-07-31T17:23:31.250Z</time>
      </trkpt>
      <trkpt lat="44.93715" lon="6.75046">
        <ele>1738</ele>
        <time>2014-07-31T17:23:33.150Z</time>
      </trkpt>
      <trkpt lat="44.93714" lon="6.75045">
        <ele>1738.7</ele>
        <time>2014-07-31T17:23:35.250Z</time>
      </trkpt>
      <trkpt lat="44.93713" lon="6.75043">
        <ele>1739</ele>
        <time>2014-07-31T17:23:37.150Z</time>
      </trkpt>
      <trkpt lat="44.93711" lon="6.75042">
        <ele>1739</ele>
        <time>2014-07-31T17:23:38.250Z</time>
      </trkpt>
      <trkpt lat="44.93709" lon="6.75038">
        <ele>1739</ele>
        <time>2014-07-31T17:23:40.250Z</time>
      </trkpt>
      <trkpt lat="44.93707" lon="6.75035">
        <ele>1739</ele>
        <time>2014-07-31T17:23:42.250Z</time>
      </trkpt>
      <trkpt lat="44.93705" lon="6.75032">
        <ele>1739</ele>
        <time>2014-07-31T17:23:44.150Z</time>
      </trkpt>
      <trkpt lat="44.93705" lon="6.7503">
        <ele>1739</ele>
        <time>2014-07-31T17:23:45.250Z</time>
      </trkpt>
      <trkpt lat="44.93703" lon="6.75028">
        <ele>1739</ele>
        <time>2014-07-31T17:23:47.140Z</time>
      </trkpt>
      <trkpt lat="44.93702" lon="6.75025">
        <ele>1739</ele>
        <time>2014-07-31T17:23:49.250Z</time>
      </trkpt>
      <trkpt lat="44.93701" lon="6.75022">
        <ele>1739</ele>
        <time>2014-07-31T17:23:51.210Z</time>
      </trkpt>
      <trkpt lat="44.93701" lon="6.7502">
        <ele>1739</ele>
        <time>2014-07-31T17:23:53.150Z</time>
      </trkpt>
      <trkpt lat="44.937" lon="6.75018">
        <ele>1739</ele>
        <time>2014-07-31T17:23:56.250Z</time>
      </trkpt>
      <trkpt lat="44.937" lon="6.75018">
        <ele>1739</ele>
        <time>2014-07-31T17:24:00.210Z</time>
      </trkpt>
      <trkpt lat="44.93699" lon="6.75017">
        <ele>1739</ele>
        <time>2014-07-31T17:24:09.250Z</time>
      </trkpt>
      <trkpt lat="44.93698" lon="6.75017">
        <ele>1740.2</ele>
        <time>2014-07-31T17:24:15.150Z</time>
      </trkpt>
      <trkpt lat="44.93697" lon="6.75017">
        <ele>1741</ele>
        <time>2014-07-31T17:24:20.220Z</time>
      </trkpt>
      <trkpt lat="44.93696" lon="6.75015">
        <ele>1741</ele>
        <time>2014-07-31T17:24:24.250Z</time>
      </trkpt>
      <trkpt lat="44.93695" lon="6.75012">
        <ele>1741</ele>
        <time>2014-07-31T17:24:28.230Z</time>
      </trkpt>
      <trkpt lat="44.93695" lon="6.75009">
        <ele>1741</ele>
        <time>2014-07-31T17:24:30.250Z</time>
      </trkpt>
      <trkpt lat="44.93694" lon="6.75007">
        <ele>1741</ele>
        <time>2014-07-31T17:24:32.250Z</time>
      </trkpt>
      <trkpt lat="44.93693" lon="6.75005">
        <ele>1741</ele>
        <time>2014-07-31T17:24:34.210Z</time>
      </trkpt>
      <trkpt lat="44.93692" lon="6.75003">
        <ele>1742</ele>
        <time>2014-07-31T17:24:36.250Z</time>
      </trkpt>
      <trkpt lat="44.93691" lon="6.75002">
        <ele>1742</ele>
        <time>2014-07-31T17:24:38.150Z</time>
      </trkpt>
      <trkpt lat="44.9369" lon="6.75001">
        <ele>1742</ele>
        <time>2014-07-31T17:24:39.250Z</time>
      </trkpt>
      <trkpt lat="44.93689" lon="6.74998">
        <ele>1742</ele>
        <time>2014-07-31T17:24:41.250Z</time>
      </trkpt>
      <trkpt lat="44.93688" lon="6.74996">
        <ele>1742</ele>
        <time>2014-07-31T17:24:43.250Z</time>
      </trkpt>
      <trkpt lat="44.93688" lon="6.74994">
        <ele>1742.7</ele>
        <time>2014-07-31T17:24:45.250Z</time>
      </trkpt>
      <trkpt lat="44.93688" lon="6.74991">
        <ele>1743</ele>
        <time>2014-07-31T17:24:47.150Z</time>
      </trkpt>
      <trkpt lat="44.93688" lon="6.7499">
        <ele>1743</ele>
        <time>2014-07-31T17:24:48.250Z</time>
      </trkpt>
      <trkpt lat="44.93688" lon="6.74986">
        <ele>1743</ele>
        <time>2014-07-31T17:24:50.150Z</time>
      </trkpt>
      <trkpt lat="44.93688" lon="6.74985">
        <ele>1743</ele>
        <time>2014-07-31T17:24:51.210Z</time>
      </trkpt>
      <trkpt lat="44.93689" lon="6.74982">
        <ele>1743</ele>
        <time>2014-07-31T17:24:53.250Z</time>
      </trkpt>
      <trkpt lat="44.9369" lon="6.7498">
        <ele>1743</ele>
        <time>2014-07-31T17:24:55.250Z</time>
      </trkpt>
      <trkpt lat="44.93692" lon="6.74977">
        <ele>1743</ele>
        <time>2014-07-31T17:24:57.250Z</time>
      </trkpt>
      <trkpt lat="44.93694" lon="6.74975">
        <ele>1743</ele>
        <time>2014-07-31T17:24:59.250Z</time>
      </trkpt>
      <trkpt lat="44.93695" lon="6.74973">
        <ele>1743</ele>
        <time>2014-07-31T17:25:01.150Z</time>
      </trkpt>
      <trkpt lat="44.93697" lon="6.74972">
        <ele>1743</ele>
        <time>2014-07-31T17:25:02.250Z</time>
      </trkpt>
      <trkpt lat="44.93698" lon="6.7497">
        <ele>1743</ele>
        <time>2014-07-31T17:25:04.250Z</time>
      </trkpt>
      <trkpt lat="44.93699" lon="6.7497">
        <ele>1743</ele>
        <time>2014-07-31T17:25:06.250Z</time>
      </trkpt>
    </trkseg>
  </trk>
</gpx>